<?xml version="1.0" encoding="UTF-8"?>
<gpx xmlns="http://www.topografix.com/GPX/1/1"
     creator="GpsDumpMac 0.29"
     version="1.1"
     xmlns:xsi="http://www.w3.org/2001/XMLSchema-instance"
     xsi:schemaLocation="http://www.topografix.com/GPX/1/1 http://www.topografix.com/GPX/1/1/gpx.xsd">
  <metadata>
    <link href="http://www.gethome.no/stein.sorensen/">
      <text>GPS dump for www.flightlog.org</text>
    </link>
    <time>2015-03-17T18:29:31Z</time>
    <bounds minlat="40.161533" minlon="-5.144083" maxlat="40.252983" maxlon="-4.879400"/>
  </metadata>
  <trk>
    <name>Track 001</name>
    <trkseg>
      <trkpt lat="40.252450" lon="-4.887300">
        <ele>1011.0</ele>
        <time>2015-03-14T14:30:56Z</time>
      </trkpt>
      <trkpt lat="40.252400" lon="-4.887233">
        <ele>1011.0</ele>
        <time>2015-03-14T14:30:57Z</time>
      </trkpt>
      <trkpt lat="40.252350" lon="-4.887200">
        <ele>1010.0</ele>
        <time>2015-03-14T14:30:58Z</time>
      </trkpt>
      <trkpt lat="40.252300" lon="-4.887167">
        <ele>1009.0</ele>
        <time>2015-03-14T14:30:59Z</time>
      </trkpt>
      <trkpt lat="40.252217" lon="-4.887150">
        <ele>1008.0</ele>
        <time>2015-03-14T14:31:00Z</time>
      </trkpt>
      <trkpt lat="40.252150" lon="-4.887133">
        <ele>1005.0</ele>
        <time>2015-03-14T14:31:01Z</time>
      </trkpt>
      <trkpt lat="40.252067" lon="-4.887117">
        <ele>1004.0</ele>
        <time>2015-03-14T14:31:02Z</time>
      </trkpt>
      <trkpt lat="40.251983" lon="-4.887083">
        <ele>1002.0</ele>
        <time>2015-03-14T14:31:03Z</time>
      </trkpt>
      <trkpt lat="40.251917" lon="-4.887050">
        <ele>1001.0</ele>
        <time>2015-03-14T14:31:04Z</time>
      </trkpt>
      <trkpt lat="40.251850" lon="-4.887000">
        <ele>999.0</ele>
        <time>2015-03-14T14:31:05Z</time>
      </trkpt>
      <trkpt lat="40.251783" lon="-4.886967">
        <ele>998.0</ele>
        <time>2015-03-14T14:31:06Z</time>
      </trkpt>
      <trkpt lat="40.251717" lon="-4.886917">
        <ele>996.0</ele>
        <time>2015-03-14T14:31:07Z</time>
      </trkpt>
      <trkpt lat="40.251633" lon="-4.886883">
        <ele>995.0</ele>
        <time>2015-03-14T14:31:08Z</time>
      </trkpt>
      <trkpt lat="40.251550" lon="-4.886867">
        <ele>995.0</ele>
        <time>2015-03-14T14:31:09Z</time>
      </trkpt>
      <trkpt lat="40.251483" lon="-4.886867">
        <ele>994.0</ele>
        <time>2015-03-14T14:31:10Z</time>
      </trkpt>
      <trkpt lat="40.251417" lon="-4.886867">
        <ele>993.0</ele>
        <time>2015-03-14T14:31:11Z</time>
      </trkpt>
      <trkpt lat="40.251333" lon="-4.886850">
        <ele>992.0</ele>
        <time>2015-03-14T14:31:12Z</time>
      </trkpt>
      <trkpt lat="40.251250" lon="-4.886833">
        <ele>992.0</ele>
        <time>2015-03-14T14:31:13Z</time>
      </trkpt>
      <trkpt lat="40.251167" lon="-4.886833">
        <ele>992.0</ele>
        <time>2015-03-14T14:31:14Z</time>
      </trkpt>
      <trkpt lat="40.251100" lon="-4.886850">
        <ele>992.0</ele>
        <time>2015-03-14T14:31:15Z</time>
      </trkpt>
      <trkpt lat="40.251017" lon="-4.886867">
        <ele>993.0</ele>
        <time>2015-03-14T14:31:16Z</time>
      </trkpt>
      <trkpt lat="40.250950" lon="-4.886883">
        <ele>992.0</ele>
        <time>2015-03-14T14:31:17Z</time>
      </trkpt>
      <trkpt lat="40.250867" lon="-4.886900">
        <ele>991.0</ele>
        <time>2015-03-14T14:31:18Z</time>
      </trkpt>
      <trkpt lat="40.250767" lon="-4.886917">
        <ele>990.0</ele>
        <time>2015-03-14T14:31:19Z</time>
      </trkpt>
      <trkpt lat="40.250667" lon="-4.886950">
        <ele>990.0</ele>
        <time>2015-03-14T14:31:20Z</time>
      </trkpt>
      <trkpt lat="40.250583" lon="-4.886983">
        <ele>993.0</ele>
        <time>2015-03-14T14:31:21Z</time>
      </trkpt>
      <trkpt lat="40.250517" lon="-4.887033">
        <ele>995.0</ele>
        <time>2015-03-14T14:31:22Z</time>
      </trkpt>
      <trkpt lat="40.250467" lon="-4.887083">
        <ele>996.0</ele>
        <time>2015-03-14T14:31:23Z</time>
      </trkpt>
      <trkpt lat="40.250400" lon="-4.887100">
        <ele>995.0</ele>
        <time>2015-03-14T14:31:24Z</time>
      </trkpt>
      <trkpt lat="40.250333" lon="-4.887117">
        <ele>993.0</ele>
        <time>2015-03-14T14:31:25Z</time>
      </trkpt>
      <trkpt lat="40.250267" lon="-4.887117">
        <ele>992.0</ele>
        <time>2015-03-14T14:31:26Z</time>
      </trkpt>
      <trkpt lat="40.250183" lon="-4.887117">
        <ele>991.0</ele>
        <time>2015-03-14T14:31:27Z</time>
      </trkpt>
      <trkpt lat="40.250100" lon="-4.887117">
        <ele>991.0</ele>
        <time>2015-03-14T14:31:28Z</time>
      </trkpt>
      <trkpt lat="40.250017" lon="-4.887117">
        <ele>992.0</ele>
        <time>2015-03-14T14:31:29Z</time>
      </trkpt>
      <trkpt lat="40.249950" lon="-4.887083">
        <ele>993.0</ele>
        <time>2015-03-14T14:31:30Z</time>
      </trkpt>
      <trkpt lat="40.249883" lon="-4.887050">
        <ele>995.0</ele>
        <time>2015-03-14T14:31:31Z</time>
      </trkpt>
      <trkpt lat="40.249833" lon="-4.887033">
        <ele>996.0</ele>
        <time>2015-03-14T14:31:32Z</time>
      </trkpt>
      <trkpt lat="40.249783" lon="-4.886983">
        <ele>997.0</ele>
        <time>2015-03-14T14:31:33Z</time>
      </trkpt>
      <trkpt lat="40.249750" lon="-4.886933">
        <ele>997.0</ele>
        <time>2015-03-14T14:31:34Z</time>
      </trkpt>
      <trkpt lat="40.249717" lon="-4.886867">
        <ele>997.0</ele>
        <time>2015-03-14T14:31:35Z</time>
      </trkpt>
      <trkpt lat="40.249700" lon="-4.886800">
        <ele>997.0</ele>
        <time>2015-03-14T14:31:36Z</time>
      </trkpt>
      <trkpt lat="40.249717" lon="-4.886733">
        <ele>995.0</ele>
        <time>2015-03-14T14:31:37Z</time>
      </trkpt>
      <trkpt lat="40.249750" lon="-4.886650">
        <ele>992.0</ele>
        <time>2015-03-14T14:31:38Z</time>
      </trkpt>
      <trkpt lat="40.249800" lon="-4.886583">
        <ele>991.0</ele>
        <time>2015-03-14T14:31:39Z</time>
      </trkpt>
      <trkpt lat="40.249850" lon="-4.886517">
        <ele>989.0</ele>
        <time>2015-03-14T14:31:40Z</time>
      </trkpt>
      <trkpt lat="40.249933" lon="-4.886500">
        <ele>988.0</ele>
        <time>2015-03-14T14:31:41Z</time>
      </trkpt>
      <trkpt lat="40.250017" lon="-4.886500">
        <ele>987.0</ele>
        <time>2015-03-14T14:31:42Z</time>
      </trkpt>
      <trkpt lat="40.250100" lon="-4.886517">
        <ele>986.0</ele>
        <time>2015-03-14T14:31:43Z</time>
      </trkpt>
      <trkpt lat="40.250183" lon="-4.886567">
        <ele>985.0</ele>
        <time>2015-03-14T14:31:44Z</time>
      </trkpt>
      <trkpt lat="40.250250" lon="-4.886633">
        <ele>985.0</ele>
        <time>2015-03-14T14:31:45Z</time>
      </trkpt>
      <trkpt lat="40.250300" lon="-4.886683">
        <ele>986.0</ele>
        <time>2015-03-14T14:31:46Z</time>
      </trkpt>
      <trkpt lat="40.250367" lon="-4.886700">
        <ele>986.0</ele>
        <time>2015-03-14T14:31:47Z</time>
      </trkpt>
      <trkpt lat="40.250450" lon="-4.886700">
        <ele>985.0</ele>
        <time>2015-03-14T14:31:48Z</time>
      </trkpt>
      <trkpt lat="40.250550" lon="-4.886683">
        <ele>983.0</ele>
        <time>2015-03-14T14:31:49Z</time>
      </trkpt>
      <trkpt lat="40.250650" lon="-4.886667">
        <ele>984.0</ele>
        <time>2015-03-14T14:31:50Z</time>
      </trkpt>
      <trkpt lat="40.250750" lon="-4.886667">
        <ele>985.0</ele>
        <time>2015-03-14T14:31:51Z</time>
      </trkpt>
      <trkpt lat="40.250833" lon="-4.886633">
        <ele>987.0</ele>
        <time>2015-03-14T14:31:52Z</time>
      </trkpt>
      <trkpt lat="40.250900" lon="-4.886600">
        <ele>987.0</ele>
        <time>2015-03-14T14:31:53Z</time>
      </trkpt>
      <trkpt lat="40.250950" lon="-4.886533">
        <ele>986.0</ele>
        <time>2015-03-14T14:31:54Z</time>
      </trkpt>
      <trkpt lat="40.251000" lon="-4.886467">
        <ele>986.0</ele>
        <time>2015-03-14T14:31:55Z</time>
      </trkpt>
      <trkpt lat="40.251067" lon="-4.886417">
        <ele>985.0</ele>
        <time>2015-03-14T14:31:56Z</time>
      </trkpt>
      <trkpt lat="40.251133" lon="-4.886367">
        <ele>984.0</ele>
        <time>2015-03-14T14:31:57Z</time>
      </trkpt>
      <trkpt lat="40.251200" lon="-4.886317">
        <ele>983.0</ele>
        <time>2015-03-14T14:31:58Z</time>
      </trkpt>
      <trkpt lat="40.251267" lon="-4.886250">
        <ele>982.0</ele>
        <time>2015-03-14T14:31:59Z</time>
      </trkpt>
      <trkpt lat="40.251283" lon="-4.886167">
        <ele>981.0</ele>
        <time>2015-03-14T14:32:00Z</time>
      </trkpt>
      <trkpt lat="40.251300" lon="-4.886100">
        <ele>979.0</ele>
        <time>2015-03-14T14:32:01Z</time>
      </trkpt>
      <trkpt lat="40.251267" lon="-4.886017">
        <ele>976.0</ele>
        <time>2015-03-14T14:32:02Z</time>
      </trkpt>
      <trkpt lat="40.251233" lon="-4.885917">
        <ele>973.0</ele>
        <time>2015-03-14T14:32:03Z</time>
      </trkpt>
      <trkpt lat="40.251200" lon="-4.885833">
        <ele>971.0</ele>
        <time>2015-03-14T14:32:04Z</time>
      </trkpt>
      <trkpt lat="40.251133" lon="-4.885767">
        <ele>970.0</ele>
        <time>2015-03-14T14:32:05Z</time>
      </trkpt>
      <trkpt lat="40.251050" lon="-4.885750">
        <ele>968.0</ele>
        <time>2015-03-14T14:32:06Z</time>
      </trkpt>
      <trkpt lat="40.250967" lon="-4.885783">
        <ele>965.0</ele>
        <time>2015-03-14T14:32:07Z</time>
      </trkpt>
      <trkpt lat="40.250883" lon="-4.885833">
        <ele>963.0</ele>
        <time>2015-03-14T14:32:08Z</time>
      </trkpt>
      <trkpt lat="40.250817" lon="-4.885900">
        <ele>963.0</ele>
        <time>2015-03-14T14:32:09Z</time>
      </trkpt>
      <trkpt lat="40.250733" lon="-4.885933">
        <ele>962.0</ele>
        <time>2015-03-14T14:32:10Z</time>
      </trkpt>
      <trkpt lat="40.250633" lon="-4.885950">
        <ele>961.0</ele>
        <time>2015-03-14T14:32:11Z</time>
      </trkpt>
      <trkpt lat="40.250533" lon="-4.886000">
        <ele>960.0</ele>
        <time>2015-03-14T14:32:12Z</time>
      </trkpt>
      <trkpt lat="40.250450" lon="-4.886050">
        <ele>961.0</ele>
        <time>2015-03-14T14:32:13Z</time>
      </trkpt>
      <trkpt lat="40.250367" lon="-4.886117">
        <ele>961.0</ele>
        <time>2015-03-14T14:32:14Z</time>
      </trkpt>
      <trkpt lat="40.250300" lon="-4.886167">
        <ele>962.0</ele>
        <time>2015-03-14T14:32:15Z</time>
      </trkpt>
      <trkpt lat="40.250233" lon="-4.886217">
        <ele>962.0</ele>
        <time>2015-03-14T14:32:16Z</time>
      </trkpt>
      <trkpt lat="40.250167" lon="-4.886267">
        <ele>961.0</ele>
        <time>2015-03-14T14:32:17Z</time>
      </trkpt>
      <trkpt lat="40.250083" lon="-4.886317">
        <ele>960.0</ele>
        <time>2015-03-14T14:32:18Z</time>
      </trkpt>
      <trkpt lat="40.250017" lon="-4.886367">
        <ele>960.0</ele>
        <time>2015-03-14T14:32:19Z</time>
      </trkpt>
      <trkpt lat="40.249933" lon="-4.886433">
        <ele>959.0</ele>
        <time>2015-03-14T14:32:20Z</time>
      </trkpt>
      <trkpt lat="40.249867" lon="-4.886483">
        <ele>960.0</ele>
        <time>2015-03-14T14:32:21Z</time>
      </trkpt>
      <trkpt lat="40.249800" lon="-4.886533">
        <ele>961.0</ele>
        <time>2015-03-14T14:32:22Z</time>
      </trkpt>
      <trkpt lat="40.249750" lon="-4.886600">
        <ele>960.0</ele>
        <time>2015-03-14T14:32:23Z</time>
      </trkpt>
      <trkpt lat="40.249683" lon="-4.886650">
        <ele>960.0</ele>
        <time>2015-03-14T14:32:24Z</time>
      </trkpt>
      <trkpt lat="40.249633" lon="-4.886733">
        <ele>959.0</ele>
        <time>2015-03-14T14:32:25Z</time>
      </trkpt>
      <trkpt lat="40.249567" lon="-4.886800">
        <ele>957.0</ele>
        <time>2015-03-14T14:32:26Z</time>
      </trkpt>
      <trkpt lat="40.249500" lon="-4.886900">
        <ele>956.0</ele>
        <time>2015-03-14T14:32:27Z</time>
      </trkpt>
      <trkpt lat="40.249450" lon="-4.886983">
        <ele>955.0</ele>
        <time>2015-03-14T14:32:28Z</time>
      </trkpt>
      <trkpt lat="40.249383" lon="-4.887067">
        <ele>954.0</ele>
        <time>2015-03-14T14:32:29Z</time>
      </trkpt>
      <trkpt lat="40.249300" lon="-4.887150">
        <ele>953.0</ele>
        <time>2015-03-14T14:32:30Z</time>
      </trkpt>
      <trkpt lat="40.249233" lon="-4.887233">
        <ele>952.0</ele>
        <time>2015-03-14T14:32:31Z</time>
      </trkpt>
      <trkpt lat="40.249167" lon="-4.887317">
        <ele>952.0</ele>
        <time>2015-03-14T14:32:32Z</time>
      </trkpt>
      <trkpt lat="40.249100" lon="-4.887417">
        <ele>951.0</ele>
        <time>2015-03-14T14:32:33Z</time>
      </trkpt>
      <trkpt lat="40.249033" lon="-4.887500">
        <ele>951.0</ele>
        <time>2015-03-14T14:32:34Z</time>
      </trkpt>
      <trkpt lat="40.248967" lon="-4.887567">
        <ele>950.0</ele>
        <time>2015-03-14T14:32:35Z</time>
      </trkpt>
      <trkpt lat="40.248883" lon="-4.887650">
        <ele>949.0</ele>
        <time>2015-03-14T14:32:36Z</time>
      </trkpt>
      <trkpt lat="40.248817" lon="-4.887717">
        <ele>947.0</ele>
        <time>2015-03-14T14:32:37Z</time>
      </trkpt>
      <trkpt lat="40.248733" lon="-4.887783">
        <ele>945.0</ele>
        <time>2015-03-14T14:32:38Z</time>
      </trkpt>
      <trkpt lat="40.248650" lon="-4.887833">
        <ele>943.0</ele>
        <time>2015-03-14T14:32:39Z</time>
      </trkpt>
      <trkpt lat="40.248550" lon="-4.887850">
        <ele>942.0</ele>
        <time>2015-03-14T14:32:40Z</time>
      </trkpt>
      <trkpt lat="40.248467" lon="-4.887850">
        <ele>942.0</ele>
        <time>2015-03-14T14:32:41Z</time>
      </trkpt>
      <trkpt lat="40.248383" lon="-4.887800">
        <ele>942.0</ele>
        <time>2015-03-14T14:32:42Z</time>
      </trkpt>
      <trkpt lat="40.248333" lon="-4.887733">
        <ele>942.0</ele>
        <time>2015-03-14T14:32:43Z</time>
      </trkpt>
      <trkpt lat="40.248283" lon="-4.887650">
        <ele>942.0</ele>
        <time>2015-03-14T14:32:44Z</time>
      </trkpt>
      <trkpt lat="40.248250" lon="-4.887583">
        <ele>942.0</ele>
        <time>2015-03-14T14:32:45Z</time>
      </trkpt>
      <trkpt lat="40.248250" lon="-4.887500">
        <ele>942.0</ele>
        <time>2015-03-14T14:32:46Z</time>
      </trkpt>
      <trkpt lat="40.248283" lon="-4.887433">
        <ele>940.0</ele>
        <time>2015-03-14T14:32:47Z</time>
      </trkpt>
      <trkpt lat="40.248333" lon="-4.887350">
        <ele>939.0</ele>
        <time>2015-03-14T14:32:48Z</time>
      </trkpt>
      <trkpt lat="40.248383" lon="-4.887283">
        <ele>939.0</ele>
        <time>2015-03-14T14:32:49Z</time>
      </trkpt>
      <trkpt lat="40.248450" lon="-4.887233">
        <ele>939.0</ele>
        <time>2015-03-14T14:32:50Z</time>
      </trkpt>
      <trkpt lat="40.248533" lon="-4.887183">
        <ele>939.0</ele>
        <time>2015-03-14T14:32:51Z</time>
      </trkpt>
      <trkpt lat="40.248600" lon="-4.887150">
        <ele>939.0</ele>
        <time>2015-03-14T14:32:52Z</time>
      </trkpt>
      <trkpt lat="40.248667" lon="-4.887133">
        <ele>940.0</ele>
        <time>2015-03-14T14:32:53Z</time>
      </trkpt>
      <trkpt lat="40.248733" lon="-4.887100">
        <ele>940.0</ele>
        <time>2015-03-14T14:32:54Z</time>
      </trkpt>
      <trkpt lat="40.248783" lon="-4.887067">
        <ele>939.0</ele>
        <time>2015-03-14T14:32:55Z</time>
      </trkpt>
      <trkpt lat="40.248833" lon="-4.887017">
        <ele>937.0</ele>
        <time>2015-03-14T14:32:56Z</time>
      </trkpt>
      <trkpt lat="40.248883" lon="-4.886967">
        <ele>935.0</ele>
        <time>2015-03-14T14:32:57Z</time>
      </trkpt>
      <trkpt lat="40.248917" lon="-4.886883">
        <ele>934.0</ele>
        <time>2015-03-14T14:32:58Z</time>
      </trkpt>
      <trkpt lat="40.248967" lon="-4.886817">
        <ele>932.0</ele>
        <time>2015-03-14T14:32:59Z</time>
      </trkpt>
      <trkpt lat="40.249017" lon="-4.886733">
        <ele>931.0</ele>
        <time>2015-03-14T14:33:00Z</time>
      </trkpt>
      <trkpt lat="40.249067" lon="-4.886650">
        <ele>930.0</ele>
        <time>2015-03-14T14:33:01Z</time>
      </trkpt>
      <trkpt lat="40.249117" lon="-4.886567">
        <ele>928.0</ele>
        <time>2015-03-14T14:33:02Z</time>
      </trkpt>
      <trkpt lat="40.249167" lon="-4.886483">
        <ele>927.0</ele>
        <time>2015-03-14T14:33:03Z</time>
      </trkpt>
      <trkpt lat="40.249200" lon="-4.886383">
        <ele>926.0</ele>
        <time>2015-03-14T14:33:04Z</time>
      </trkpt>
      <trkpt lat="40.249233" lon="-4.886300">
        <ele>925.0</ele>
        <time>2015-03-14T14:33:05Z</time>
      </trkpt>
      <trkpt lat="40.249267" lon="-4.886200">
        <ele>924.0</ele>
        <time>2015-03-14T14:33:06Z</time>
      </trkpt>
      <trkpt lat="40.249317" lon="-4.886100">
        <ele>923.0</ele>
        <time>2015-03-14T14:33:07Z</time>
      </trkpt>
      <trkpt lat="40.249350" lon="-4.886000">
        <ele>923.0</ele>
        <time>2015-03-14T14:33:08Z</time>
      </trkpt>
      <trkpt lat="40.249400" lon="-4.885900">
        <ele>923.0</ele>
        <time>2015-03-14T14:33:09Z</time>
      </trkpt>
      <trkpt lat="40.249433" lon="-4.885783">
        <ele>924.0</ele>
        <time>2015-03-14T14:33:10Z</time>
      </trkpt>
      <trkpt lat="40.249467" lon="-4.885683">
        <ele>925.0</ele>
        <time>2015-03-14T14:33:11Z</time>
      </trkpt>
      <trkpt lat="40.249500" lon="-4.885600">
        <ele>926.0</ele>
        <time>2015-03-14T14:33:12Z</time>
      </trkpt>
      <trkpt lat="40.249550" lon="-4.885517">
        <ele>927.0</ele>
        <time>2015-03-14T14:33:13Z</time>
      </trkpt>
      <trkpt lat="40.249583" lon="-4.885450">
        <ele>928.0</ele>
        <time>2015-03-14T14:33:14Z</time>
      </trkpt>
      <trkpt lat="40.249617" lon="-4.885383">
        <ele>928.0</ele>
        <time>2015-03-14T14:33:15Z</time>
      </trkpt>
      <trkpt lat="40.249617" lon="-4.885317">
        <ele>928.0</ele>
        <time>2015-03-14T14:33:16Z</time>
      </trkpt>
      <trkpt lat="40.249617" lon="-4.885233">
        <ele>927.0</ele>
        <time>2015-03-14T14:33:17Z</time>
      </trkpt>
      <trkpt lat="40.249600" lon="-4.885150">
        <ele>926.0</ele>
        <time>2015-03-14T14:33:18Z</time>
      </trkpt>
      <trkpt lat="40.249567" lon="-4.885067">
        <ele>927.0</ele>
        <time>2015-03-14T14:33:19Z</time>
      </trkpt>
      <trkpt lat="40.249533" lon="-4.885000">
        <ele>927.0</ele>
        <time>2015-03-14T14:33:20Z</time>
      </trkpt>
      <trkpt lat="40.249517" lon="-4.884933">
        <ele>926.0</ele>
        <time>2015-03-14T14:33:21Z</time>
      </trkpt>
      <trkpt lat="40.249500" lon="-4.884867">
        <ele>926.0</ele>
        <time>2015-03-14T14:33:22Z</time>
      </trkpt>
      <trkpt lat="40.249450" lon="-4.884783">
        <ele>925.0</ele>
        <time>2015-03-14T14:33:23Z</time>
      </trkpt>
      <trkpt lat="40.249400" lon="-4.884733">
        <ele>925.0</ele>
        <time>2015-03-14T14:33:24Z</time>
      </trkpt>
      <trkpt lat="40.249350" lon="-4.884683">
        <ele>925.0</ele>
        <time>2015-03-14T14:33:25Z</time>
      </trkpt>
      <trkpt lat="40.249283" lon="-4.884633">
        <ele>926.0</ele>
        <time>2015-03-14T14:33:26Z</time>
      </trkpt>
      <trkpt lat="40.249233" lon="-4.884600">
        <ele>926.0</ele>
        <time>2015-03-14T14:33:27Z</time>
      </trkpt>
      <trkpt lat="40.249183" lon="-4.884583">
        <ele>925.0</ele>
        <time>2015-03-14T14:33:28Z</time>
      </trkpt>
      <trkpt lat="40.249117" lon="-4.884567">
        <ele>924.0</ele>
        <time>2015-03-14T14:33:29Z</time>
      </trkpt>
      <trkpt lat="40.249050" lon="-4.884567">
        <ele>922.0</ele>
        <time>2015-03-14T14:33:30Z</time>
      </trkpt>
      <trkpt lat="40.248983" lon="-4.884600">
        <ele>921.0</ele>
        <time>2015-03-14T14:33:31Z</time>
      </trkpt>
      <trkpt lat="40.248917" lon="-4.884617">
        <ele>920.0</ele>
        <time>2015-03-14T14:33:32Z</time>
      </trkpt>
      <trkpt lat="40.248833" lon="-4.884617">
        <ele>919.0</ele>
        <time>2015-03-14T14:33:33Z</time>
      </trkpt>
      <trkpt lat="40.248750" lon="-4.884617">
        <ele>918.0</ele>
        <time>2015-03-14T14:33:34Z</time>
      </trkpt>
      <trkpt lat="40.248683" lon="-4.884617">
        <ele>918.0</ele>
        <time>2015-03-14T14:33:35Z</time>
      </trkpt>
      <trkpt lat="40.248600" lon="-4.884633">
        <ele>919.0</ele>
        <time>2015-03-14T14:33:36Z</time>
      </trkpt>
      <trkpt lat="40.248533" lon="-4.884667">
        <ele>919.0</ele>
        <time>2015-03-14T14:33:37Z</time>
      </trkpt>
      <trkpt lat="40.248467" lon="-4.884683">
        <ele>918.0</ele>
        <time>2015-03-14T14:33:38Z</time>
      </trkpt>
      <trkpt lat="40.248383" lon="-4.884700">
        <ele>918.0</ele>
        <time>2015-03-14T14:33:39Z</time>
      </trkpt>
      <trkpt lat="40.248317" lon="-4.884700">
        <ele>917.0</ele>
        <time>2015-03-14T14:33:40Z</time>
      </trkpt>
      <trkpt lat="40.248267" lon="-4.884683">
        <ele>917.0</ele>
        <time>2015-03-14T14:33:41Z</time>
      </trkpt>
      <trkpt lat="40.248200" lon="-4.884683">
        <ele>917.0</ele>
        <time>2015-03-14T14:33:42Z</time>
      </trkpt>
      <trkpt lat="40.248133" lon="-4.884667">
        <ele>916.0</ele>
        <time>2015-03-14T14:33:43Z</time>
      </trkpt>
      <trkpt lat="40.248067" lon="-4.884633">
        <ele>916.0</ele>
        <time>2015-03-14T14:33:44Z</time>
      </trkpt>
      <trkpt lat="40.248000" lon="-4.884600">
        <ele>916.0</ele>
        <time>2015-03-14T14:33:45Z</time>
      </trkpt>
      <trkpt lat="40.247950" lon="-4.884567">
        <ele>916.0</ele>
        <time>2015-03-14T14:33:46Z</time>
      </trkpt>
      <trkpt lat="40.247883" lon="-4.884550">
        <ele>916.0</ele>
        <time>2015-03-14T14:33:47Z</time>
      </trkpt>
      <trkpt lat="40.247817" lon="-4.884517">
        <ele>916.0</ele>
        <time>2015-03-14T14:33:48Z</time>
      </trkpt>
      <trkpt lat="40.247767" lon="-4.884483">
        <ele>916.0</ele>
        <time>2015-03-14T14:33:49Z</time>
      </trkpt>
      <trkpt lat="40.247700" lon="-4.884433">
        <ele>915.0</ele>
        <time>2015-03-14T14:33:50Z</time>
      </trkpt>
      <trkpt lat="40.247650" lon="-4.884400">
        <ele>914.0</ele>
        <time>2015-03-14T14:33:51Z</time>
      </trkpt>
      <trkpt lat="40.247583" lon="-4.884350">
        <ele>913.0</ele>
        <time>2015-03-14T14:33:52Z</time>
      </trkpt>
      <trkpt lat="40.247533" lon="-4.884283">
        <ele>912.0</ele>
        <time>2015-03-14T14:33:53Z</time>
      </trkpt>
      <trkpt lat="40.247517" lon="-4.884200">
        <ele>910.0</ele>
        <time>2015-03-14T14:33:54Z</time>
      </trkpt>
      <trkpt lat="40.247500" lon="-4.884117">
        <ele>908.0</ele>
        <time>2015-03-14T14:33:55Z</time>
      </trkpt>
      <trkpt lat="40.247517" lon="-4.884000">
        <ele>905.0</ele>
        <time>2015-03-14T14:33:56Z</time>
      </trkpt>
      <trkpt lat="40.247550" lon="-4.883917">
        <ele>903.0</ele>
        <time>2015-03-14T14:33:57Z</time>
      </trkpt>
      <trkpt lat="40.247600" lon="-4.883833">
        <ele>901.0</ele>
        <time>2015-03-14T14:33:58Z</time>
      </trkpt>
      <trkpt lat="40.247650" lon="-4.883750">
        <ele>899.0</ele>
        <time>2015-03-14T14:33:59Z</time>
      </trkpt>
      <trkpt lat="40.247717" lon="-4.883700">
        <ele>896.0</ele>
        <time>2015-03-14T14:34:00Z</time>
      </trkpt>
      <trkpt lat="40.247800" lon="-4.883667">
        <ele>892.0</ele>
        <time>2015-03-14T14:34:01Z</time>
      </trkpt>
      <trkpt lat="40.247883" lon="-4.883633">
        <ele>889.0</ele>
        <time>2015-03-14T14:34:02Z</time>
      </trkpt>
      <trkpt lat="40.247983" lon="-4.883617">
        <ele>885.0</ele>
        <time>2015-03-14T14:34:03Z</time>
      </trkpt>
      <trkpt lat="40.248083" lon="-4.883617">
        <ele>882.0</ele>
        <time>2015-03-14T14:34:04Z</time>
      </trkpt>
      <trkpt lat="40.248183" lon="-4.883600">
        <ele>879.0</ele>
        <time>2015-03-14T14:34:05Z</time>
      </trkpt>
      <trkpt lat="40.248283" lon="-4.883617">
        <ele>876.0</ele>
        <time>2015-03-14T14:34:06Z</time>
      </trkpt>
      <trkpt lat="40.248383" lon="-4.883600">
        <ele>874.0</ele>
        <time>2015-03-14T14:34:07Z</time>
      </trkpt>
      <trkpt lat="40.248483" lon="-4.883583">
        <ele>871.0</ele>
        <time>2015-03-14T14:34:08Z</time>
      </trkpt>
      <trkpt lat="40.248583" lon="-4.883550">
        <ele>868.0</ele>
        <time>2015-03-14T14:34:09Z</time>
      </trkpt>
      <trkpt lat="40.248667" lon="-4.883500">
        <ele>864.0</ele>
        <time>2015-03-14T14:34:10Z</time>
      </trkpt>
      <trkpt lat="40.248750" lon="-4.883450">
        <ele>862.0</ele>
        <time>2015-03-14T14:34:11Z</time>
      </trkpt>
      <trkpt lat="40.248833" lon="-4.883383">
        <ele>860.0</ele>
        <time>2015-03-14T14:34:12Z</time>
      </trkpt>
      <trkpt lat="40.248917" lon="-4.883317">
        <ele>857.0</ele>
        <time>2015-03-14T14:34:13Z</time>
      </trkpt>
      <trkpt lat="40.248983" lon="-4.883233">
        <ele>855.0</ele>
        <time>2015-03-14T14:34:14Z</time>
      </trkpt>
      <trkpt lat="40.249033" lon="-4.883133">
        <ele>853.0</ele>
        <time>2015-03-14T14:34:15Z</time>
      </trkpt>
      <trkpt lat="40.249083" lon="-4.883017">
        <ele>851.0</ele>
        <time>2015-03-14T14:34:16Z</time>
      </trkpt>
      <trkpt lat="40.249133" lon="-4.882917">
        <ele>850.0</ele>
        <time>2015-03-14T14:34:17Z</time>
      </trkpt>
      <trkpt lat="40.249200" lon="-4.882833">
        <ele>849.0</ele>
        <time>2015-03-14T14:34:18Z</time>
      </trkpt>
      <trkpt lat="40.249250" lon="-4.882750">
        <ele>846.0</ele>
        <time>2015-03-14T14:34:19Z</time>
      </trkpt>
      <trkpt lat="40.249283" lon="-4.882650">
        <ele>843.0</ele>
        <time>2015-03-14T14:34:20Z</time>
      </trkpt>
      <trkpt lat="40.249283" lon="-4.882550">
        <ele>841.0</ele>
        <time>2015-03-14T14:34:21Z</time>
      </trkpt>
      <trkpt lat="40.249283" lon="-4.882417">
        <ele>838.0</ele>
        <time>2015-03-14T14:34:22Z</time>
      </trkpt>
      <trkpt lat="40.249283" lon="-4.882283">
        <ele>836.0</ele>
        <time>2015-03-14T14:34:23Z</time>
      </trkpt>
      <trkpt lat="40.249300" lon="-4.882133">
        <ele>835.0</ele>
        <time>2015-03-14T14:34:24Z</time>
      </trkpt>
      <trkpt lat="40.249333" lon="-4.882000">
        <ele>836.0</ele>
        <time>2015-03-14T14:34:25Z</time>
      </trkpt>
      <trkpt lat="40.249367" lon="-4.881867">
        <ele>837.0</ele>
        <time>2015-03-14T14:34:26Z</time>
      </trkpt>
      <trkpt lat="40.249383" lon="-4.881767">
        <ele>838.0</ele>
        <time>2015-03-14T14:34:27Z</time>
      </trkpt>
      <trkpt lat="40.249400" lon="-4.881633">
        <ele>839.0</ele>
        <time>2015-03-14T14:34:28Z</time>
      </trkpt>
      <trkpt lat="40.249417" lon="-4.881517">
        <ele>840.0</ele>
        <time>2015-03-14T14:34:29Z</time>
      </trkpt>
      <trkpt lat="40.249400" lon="-4.881417">
        <ele>841.0</ele>
        <time>2015-03-14T14:34:30Z</time>
      </trkpt>
      <trkpt lat="40.249367" lon="-4.881333">
        <ele>842.0</ele>
        <time>2015-03-14T14:34:31Z</time>
      </trkpt>
      <trkpt lat="40.249300" lon="-4.881283">
        <ele>842.0</ele>
        <time>2015-03-14T14:34:32Z</time>
      </trkpt>
      <trkpt lat="40.249233" lon="-4.881250">
        <ele>841.0</ele>
        <time>2015-03-14T14:34:33Z</time>
      </trkpt>
      <trkpt lat="40.249150" lon="-4.881250">
        <ele>840.0</ele>
        <time>2015-03-14T14:34:34Z</time>
      </trkpt>
      <trkpt lat="40.249067" lon="-4.881300">
        <ele>840.0</ele>
        <time>2015-03-14T14:34:35Z</time>
      </trkpt>
      <trkpt lat="40.249017" lon="-4.881400">
        <ele>840.0</ele>
        <time>2015-03-14T14:34:36Z</time>
      </trkpt>
      <trkpt lat="40.248983" lon="-4.881517">
        <ele>841.0</ele>
        <time>2015-03-14T14:34:37Z</time>
      </trkpt>
      <trkpt lat="40.249000" lon="-4.881633">
        <ele>842.0</ele>
        <time>2015-03-14T14:34:38Z</time>
      </trkpt>
      <trkpt lat="40.249033" lon="-4.881733">
        <ele>843.0</ele>
        <time>2015-03-14T14:34:39Z</time>
      </trkpt>
      <trkpt lat="40.249100" lon="-4.881817">
        <ele>843.0</ele>
        <time>2015-03-14T14:34:40Z</time>
      </trkpt>
      <trkpt lat="40.249183" lon="-4.881867">
        <ele>841.0</ele>
        <time>2015-03-14T14:34:41Z</time>
      </trkpt>
      <trkpt lat="40.249283" lon="-4.881867">
        <ele>840.0</ele>
        <time>2015-03-14T14:34:42Z</time>
      </trkpt>
      <trkpt lat="40.249383" lon="-4.881817">
        <ele>840.0</ele>
        <time>2015-03-14T14:34:43Z</time>
      </trkpt>
      <trkpt lat="40.249483" lon="-4.881750">
        <ele>841.0</ele>
        <time>2015-03-14T14:34:44Z</time>
      </trkpt>
      <trkpt lat="40.249583" lon="-4.881683">
        <ele>843.0</ele>
        <time>2015-03-14T14:34:45Z</time>
      </trkpt>
      <trkpt lat="40.249667" lon="-4.881617">
        <ele>846.0</ele>
        <time>2015-03-14T14:34:46Z</time>
      </trkpt>
      <trkpt lat="40.249733" lon="-4.881567">
        <ele>847.0</ele>
        <time>2015-03-14T14:34:47Z</time>
      </trkpt>
      <trkpt lat="40.249767" lon="-4.881483">
        <ele>848.0</ele>
        <time>2015-03-14T14:34:48Z</time>
      </trkpt>
      <trkpt lat="40.249783" lon="-4.881400">
        <ele>847.0</ele>
        <time>2015-03-14T14:34:49Z</time>
      </trkpt>
      <trkpt lat="40.249767" lon="-4.881317">
        <ele>845.0</ele>
        <time>2015-03-14T14:34:50Z</time>
      </trkpt>
      <trkpt lat="40.249733" lon="-4.881233">
        <ele>843.0</ele>
        <time>2015-03-14T14:34:51Z</time>
      </trkpt>
      <trkpt lat="40.249683" lon="-4.881150">
        <ele>840.0</ele>
        <time>2015-03-14T14:34:52Z</time>
      </trkpt>
      <trkpt lat="40.249633" lon="-4.881083">
        <ele>837.0</ele>
        <time>2015-03-14T14:34:53Z</time>
      </trkpt>
      <trkpt lat="40.249550" lon="-4.881033">
        <ele>833.0</ele>
        <time>2015-03-14T14:34:54Z</time>
      </trkpt>
      <trkpt lat="40.249467" lon="-4.880967">
        <ele>831.0</ele>
        <time>2015-03-14T14:34:55Z</time>
      </trkpt>
      <trkpt lat="40.249400" lon="-4.880900">
        <ele>829.0</ele>
        <time>2015-03-14T14:34:56Z</time>
      </trkpt>
      <trkpt lat="40.249333" lon="-4.880800">
        <ele>828.0</ele>
        <time>2015-03-14T14:34:57Z</time>
      </trkpt>
      <trkpt lat="40.249283" lon="-4.880717">
        <ele>828.0</ele>
        <time>2015-03-14T14:34:58Z</time>
      </trkpt>
      <trkpt lat="40.249233" lon="-4.880617">
        <ele>828.0</ele>
        <time>2015-03-14T14:34:59Z</time>
      </trkpt>
      <trkpt lat="40.249167" lon="-4.880517">
        <ele>828.0</ele>
        <time>2015-03-14T14:35:00Z</time>
      </trkpt>
      <trkpt lat="40.249100" lon="-4.880417">
        <ele>830.0</ele>
        <time>2015-03-14T14:35:01Z</time>
      </trkpt>
      <trkpt lat="40.249050" lon="-4.880317">
        <ele>831.0</ele>
        <time>2015-03-14T14:35:02Z</time>
      </trkpt>
      <trkpt lat="40.249000" lon="-4.880233">
        <ele>832.0</ele>
        <time>2015-03-14T14:35:03Z</time>
      </trkpt>
      <trkpt lat="40.248950" lon="-4.880150">
        <ele>833.0</ele>
        <time>2015-03-14T14:35:04Z</time>
      </trkpt>
      <trkpt lat="40.248900" lon="-4.880083">
        <ele>832.0</ele>
        <time>2015-03-14T14:35:05Z</time>
      </trkpt>
      <trkpt lat="40.248833" lon="-4.880017">
        <ele>832.0</ele>
        <time>2015-03-14T14:35:06Z</time>
      </trkpt>
      <trkpt lat="40.248783" lon="-4.879933">
        <ele>833.0</ele>
        <time>2015-03-14T14:35:07Z</time>
      </trkpt>
      <trkpt lat="40.248767" lon="-4.879833">
        <ele>833.0</ele>
        <time>2015-03-14T14:35:08Z</time>
      </trkpt>
      <trkpt lat="40.248783" lon="-4.879717">
        <ele>832.0</ele>
        <time>2015-03-14T14:35:09Z</time>
      </trkpt>
      <trkpt lat="40.248817" lon="-4.879617">
        <ele>831.0</ele>
        <time>2015-03-14T14:35:10Z</time>
      </trkpt>
      <trkpt lat="40.248867" lon="-4.879533">
        <ele>831.0</ele>
        <time>2015-03-14T14:35:11Z</time>
      </trkpt>
      <trkpt lat="40.248917" lon="-4.879467">
        <ele>832.0</ele>
        <time>2015-03-14T14:35:12Z</time>
      </trkpt>
      <trkpt lat="40.249000" lon="-4.879417">
        <ele>832.0</ele>
        <time>2015-03-14T14:35:13Z</time>
      </trkpt>
      <trkpt lat="40.249083" lon="-4.879400">
        <ele>831.0</ele>
        <time>2015-03-14T14:35:14Z</time>
      </trkpt>
      <trkpt lat="40.249183" lon="-4.879417">
        <ele>831.0</ele>
        <time>2015-03-14T14:35:15Z</time>
      </trkpt>
      <trkpt lat="40.249283" lon="-4.879467">
        <ele>831.0</ele>
        <time>2015-03-14T14:35:16Z</time>
      </trkpt>
      <trkpt lat="40.249383" lon="-4.879533">
        <ele>832.0</ele>
        <time>2015-03-14T14:35:17Z</time>
      </trkpt>
      <trkpt lat="40.249467" lon="-4.879633">
        <ele>834.0</ele>
        <time>2015-03-14T14:35:18Z</time>
      </trkpt>
      <trkpt lat="40.249550" lon="-4.879717">
        <ele>836.0</ele>
        <time>2015-03-14T14:35:19Z</time>
      </trkpt>
      <trkpt lat="40.249633" lon="-4.879817">
        <ele>838.0</ele>
        <time>2015-03-14T14:35:20Z</time>
      </trkpt>
      <trkpt lat="40.249683" lon="-4.879933">
        <ele>840.0</ele>
        <time>2015-03-14T14:35:21Z</time>
      </trkpt>
      <trkpt lat="40.249683" lon="-4.880067">
        <ele>840.0</ele>
        <time>2015-03-14T14:35:22Z</time>
      </trkpt>
      <trkpt lat="40.249650" lon="-4.880200">
        <ele>840.0</ele>
        <time>2015-03-14T14:35:23Z</time>
      </trkpt>
      <trkpt lat="40.249600" lon="-4.880317">
        <ele>842.0</ele>
        <time>2015-03-14T14:35:24Z</time>
      </trkpt>
      <trkpt lat="40.249550" lon="-4.880417">
        <ele>845.0</ele>
        <time>2015-03-14T14:35:25Z</time>
      </trkpt>
      <trkpt lat="40.249483" lon="-4.880483">
        <ele>848.0</ele>
        <time>2015-03-14T14:35:26Z</time>
      </trkpt>
      <trkpt lat="40.249400" lon="-4.880500">
        <ele>850.0</ele>
        <time>2015-03-14T14:35:27Z</time>
      </trkpt>
      <trkpt lat="40.249333" lon="-4.880450">
        <ele>852.0</ele>
        <time>2015-03-14T14:35:28Z</time>
      </trkpt>
      <trkpt lat="40.249283" lon="-4.880367">
        <ele>853.0</ele>
        <time>2015-03-14T14:35:29Z</time>
      </trkpt>
      <trkpt lat="40.249267" lon="-4.880267">
        <ele>854.0</ele>
        <time>2015-03-14T14:35:30Z</time>
      </trkpt>
      <trkpt lat="40.249267" lon="-4.880167">
        <ele>856.0</ele>
        <time>2015-03-14T14:35:31Z</time>
      </trkpt>
      <trkpt lat="40.249300" lon="-4.880067">
        <ele>857.0</ele>
        <time>2015-03-14T14:35:32Z</time>
      </trkpt>
      <trkpt lat="40.249350" lon="-4.879967">
        <ele>857.0</ele>
        <time>2015-03-14T14:35:33Z</time>
      </trkpt>
      <trkpt lat="40.249433" lon="-4.879867">
        <ele>858.0</ele>
        <time>2015-03-14T14:35:34Z</time>
      </trkpt>
      <trkpt lat="40.249517" lon="-4.879817">
        <ele>860.0</ele>
        <time>2015-03-14T14:35:35Z</time>
      </trkpt>
      <trkpt lat="40.249617" lon="-4.879800">
        <ele>863.0</ele>
        <time>2015-03-14T14:35:36Z</time>
      </trkpt>
      <trkpt lat="40.249700" lon="-4.879800">
        <ele>865.0</ele>
        <time>2015-03-14T14:35:37Z</time>
      </trkpt>
      <trkpt lat="40.249800" lon="-4.879850">
        <ele>867.0</ele>
        <time>2015-03-14T14:35:38Z</time>
      </trkpt>
      <trkpt lat="40.249883" lon="-4.879950">
        <ele>868.0</ele>
        <time>2015-03-14T14:35:39Z</time>
      </trkpt>
      <trkpt lat="40.249967" lon="-4.880050">
        <ele>870.0</ele>
        <time>2015-03-14T14:35:40Z</time>
      </trkpt>
      <trkpt lat="40.250017" lon="-4.880183">
        <ele>872.0</ele>
        <time>2015-03-14T14:35:41Z</time>
      </trkpt>
      <trkpt lat="40.250050" lon="-4.880300">
        <ele>874.0</ele>
        <time>2015-03-14T14:35:42Z</time>
      </trkpt>
      <trkpt lat="40.250050" lon="-4.880433">
        <ele>876.0</ele>
        <time>2015-03-14T14:35:43Z</time>
      </trkpt>
      <trkpt lat="40.250017" lon="-4.880550">
        <ele>876.0</ele>
        <time>2015-03-14T14:35:44Z</time>
      </trkpt>
      <trkpt lat="40.249967" lon="-4.880650">
        <ele>878.0</ele>
        <time>2015-03-14T14:35:45Z</time>
      </trkpt>
      <trkpt lat="40.249933" lon="-4.880733">
        <ele>879.0</ele>
        <time>2015-03-14T14:35:46Z</time>
      </trkpt>
      <trkpt lat="40.249883" lon="-4.880800">
        <ele>881.0</ele>
        <time>2015-03-14T14:35:47Z</time>
      </trkpt>
      <trkpt lat="40.249850" lon="-4.880867">
        <ele>882.0</ele>
        <time>2015-03-14T14:35:48Z</time>
      </trkpt>
      <trkpt lat="40.249800" lon="-4.880950">
        <ele>883.0</ele>
        <time>2015-03-14T14:35:49Z</time>
      </trkpt>
      <trkpt lat="40.249733" lon="-4.881017">
        <ele>883.0</ele>
        <time>2015-03-14T14:35:50Z</time>
      </trkpt>
      <trkpt lat="40.249650" lon="-4.881067">
        <ele>884.0</ele>
        <time>2015-03-14T14:35:51Z</time>
      </trkpt>
      <trkpt lat="40.249567" lon="-4.881083">
        <ele>885.0</ele>
        <time>2015-03-14T14:35:52Z</time>
      </trkpt>
      <trkpt lat="40.249483" lon="-4.881017">
        <ele>886.0</ele>
        <time>2015-03-14T14:35:53Z</time>
      </trkpt>
      <trkpt lat="40.249450" lon="-4.880917">
        <ele>887.0</ele>
        <time>2015-03-14T14:35:54Z</time>
      </trkpt>
      <trkpt lat="40.249433" lon="-4.880800">
        <ele>889.0</ele>
        <time>2015-03-14T14:35:55Z</time>
      </trkpt>
      <trkpt lat="40.249433" lon="-4.880700">
        <ele>892.0</ele>
        <time>2015-03-14T14:35:56Z</time>
      </trkpt>
      <trkpt lat="40.249467" lon="-4.880617">
        <ele>894.0</ele>
        <time>2015-03-14T14:35:57Z</time>
      </trkpt>
      <trkpt lat="40.249500" lon="-4.880550">
        <ele>895.0</ele>
        <time>2015-03-14T14:35:58Z</time>
      </trkpt>
      <trkpt lat="40.249567" lon="-4.880500">
        <ele>896.0</ele>
        <time>2015-03-14T14:35:59Z</time>
      </trkpt>
      <trkpt lat="40.249650" lon="-4.880450">
        <ele>896.0</ele>
        <time>2015-03-14T14:36:00Z</time>
      </trkpt>
      <trkpt lat="40.249750" lon="-4.880400">
        <ele>897.0</ele>
        <time>2015-03-14T14:36:01Z</time>
      </trkpt>
      <trkpt lat="40.249850" lon="-4.880400">
        <ele>900.0</ele>
        <time>2015-03-14T14:36:02Z</time>
      </trkpt>
      <trkpt lat="40.249950" lon="-4.880433">
        <ele>902.0</ele>
        <time>2015-03-14T14:36:03Z</time>
      </trkpt>
      <trkpt lat="40.250033" lon="-4.880517">
        <ele>903.0</ele>
        <time>2015-03-14T14:36:04Z</time>
      </trkpt>
      <trkpt lat="40.250100" lon="-4.880617">
        <ele>904.0</ele>
        <time>2015-03-14T14:36:05Z</time>
      </trkpt>
      <trkpt lat="40.250133" lon="-4.880733">
        <ele>904.0</ele>
        <time>2015-03-14T14:36:06Z</time>
      </trkpt>
      <trkpt lat="40.250150" lon="-4.880850">
        <ele>906.0</ele>
        <time>2015-03-14T14:36:07Z</time>
      </trkpt>
      <trkpt lat="40.250150" lon="-4.880967">
        <ele>907.0</ele>
        <time>2015-03-14T14:36:08Z</time>
      </trkpt>
      <trkpt lat="40.250117" lon="-4.881083">
        <ele>908.0</ele>
        <time>2015-03-14T14:36:09Z</time>
      </trkpt>
      <trkpt lat="40.250083" lon="-4.881183">
        <ele>909.0</ele>
        <time>2015-03-14T14:36:10Z</time>
      </trkpt>
      <trkpt lat="40.250033" lon="-4.881267">
        <ele>909.0</ele>
        <time>2015-03-14T14:36:11Z</time>
      </trkpt>
      <trkpt lat="40.249950" lon="-4.881350">
        <ele>910.0</ele>
        <time>2015-03-14T14:36:12Z</time>
      </trkpt>
      <trkpt lat="40.249867" lon="-4.881383">
        <ele>912.0</ele>
        <time>2015-03-14T14:36:13Z</time>
      </trkpt>
      <trkpt lat="40.249800" lon="-4.881400">
        <ele>913.0</ele>
        <time>2015-03-14T14:36:14Z</time>
      </trkpt>
      <trkpt lat="40.249717" lon="-4.881350">
        <ele>914.0</ele>
        <time>2015-03-14T14:36:15Z</time>
      </trkpt>
      <trkpt lat="40.249667" lon="-4.881283">
        <ele>915.0</ele>
        <time>2015-03-14T14:36:16Z</time>
      </trkpt>
      <trkpt lat="40.249633" lon="-4.881167">
        <ele>916.0</ele>
        <time>2015-03-14T14:36:17Z</time>
      </trkpt>
      <trkpt lat="40.249633" lon="-4.881050">
        <ele>917.0</ele>
        <time>2015-03-14T14:36:18Z</time>
      </trkpt>
      <trkpt lat="40.249667" lon="-4.880950">
        <ele>919.0</ele>
        <time>2015-03-14T14:36:19Z</time>
      </trkpt>
      <trkpt lat="40.249717" lon="-4.880850">
        <ele>920.0</ele>
        <time>2015-03-14T14:36:20Z</time>
      </trkpt>
      <trkpt lat="40.249800" lon="-4.880783">
        <ele>922.0</ele>
        <time>2015-03-14T14:36:21Z</time>
      </trkpt>
      <trkpt lat="40.249900" lon="-4.880733">
        <ele>924.0</ele>
        <time>2015-03-14T14:36:22Z</time>
      </trkpt>
      <trkpt lat="40.250017" lon="-4.880717">
        <ele>925.0</ele>
        <time>2015-03-14T14:36:23Z</time>
      </trkpt>
      <trkpt lat="40.250117" lon="-4.880733">
        <ele>928.0</ele>
        <time>2015-03-14T14:36:24Z</time>
      </trkpt>
      <trkpt lat="40.250217" lon="-4.880767">
        <ele>931.0</ele>
        <time>2015-03-14T14:36:25Z</time>
      </trkpt>
      <trkpt lat="40.250283" lon="-4.880817">
        <ele>933.0</ele>
        <time>2015-03-14T14:36:26Z</time>
      </trkpt>
      <trkpt lat="40.250350" lon="-4.880867">
        <ele>934.0</ele>
        <time>2015-03-14T14:36:27Z</time>
      </trkpt>
      <trkpt lat="40.250383" lon="-4.880950">
        <ele>934.0</ele>
        <time>2015-03-14T14:36:28Z</time>
      </trkpt>
      <trkpt lat="40.250433" lon="-4.881050">
        <ele>933.0</ele>
        <time>2015-03-14T14:36:29Z</time>
      </trkpt>
      <trkpt lat="40.250450" lon="-4.881150">
        <ele>932.0</ele>
        <time>2015-03-14T14:36:30Z</time>
      </trkpt>
      <trkpt lat="40.250450" lon="-4.881267">
        <ele>932.0</ele>
        <time>2015-03-14T14:36:31Z</time>
      </trkpt>
      <trkpt lat="40.250433" lon="-4.881383">
        <ele>931.0</ele>
        <time>2015-03-14T14:36:32Z</time>
      </trkpt>
      <trkpt lat="40.250367" lon="-4.881467">
        <ele>931.0</ele>
        <time>2015-03-14T14:36:33Z</time>
      </trkpt>
      <trkpt lat="40.250283" lon="-4.881500">
        <ele>931.0</ele>
        <time>2015-03-14T14:36:34Z</time>
      </trkpt>
      <trkpt lat="40.250200" lon="-4.881500">
        <ele>933.0</ele>
        <time>2015-03-14T14:36:35Z</time>
      </trkpt>
      <trkpt lat="40.250117" lon="-4.881450">
        <ele>936.0</ele>
        <time>2015-03-14T14:36:36Z</time>
      </trkpt>
      <trkpt lat="40.250067" lon="-4.881383">
        <ele>939.0</ele>
        <time>2015-03-14T14:36:37Z</time>
      </trkpt>
      <trkpt lat="40.250050" lon="-4.881317">
        <ele>941.0</ele>
        <time>2015-03-14T14:36:38Z</time>
      </trkpt>
      <trkpt lat="40.250033" lon="-4.881233">
        <ele>944.0</ele>
        <time>2015-03-14T14:36:39Z</time>
      </trkpt>
      <trkpt lat="40.250017" lon="-4.881150">
        <ele>945.0</ele>
        <time>2015-03-14T14:36:40Z</time>
      </trkpt>
      <trkpt lat="40.250033" lon="-4.881050">
        <ele>945.0</ele>
        <time>2015-03-14T14:36:41Z</time>
      </trkpt>
      <trkpt lat="40.250067" lon="-4.880933">
        <ele>946.0</ele>
        <time>2015-03-14T14:36:42Z</time>
      </trkpt>
      <trkpt lat="40.250117" lon="-4.880833">
        <ele>948.0</ele>
        <time>2015-03-14T14:36:43Z</time>
      </trkpt>
      <trkpt lat="40.250200" lon="-4.880767">
        <ele>951.0</ele>
        <time>2015-03-14T14:36:44Z</time>
      </trkpt>
      <trkpt lat="40.250283" lon="-4.880717">
        <ele>954.0</ele>
        <time>2015-03-14T14:36:45Z</time>
      </trkpt>
      <trkpt lat="40.250367" lon="-4.880683">
        <ele>956.0</ele>
        <time>2015-03-14T14:36:46Z</time>
      </trkpt>
      <trkpt lat="40.250450" lon="-4.880667">
        <ele>957.0</ele>
        <time>2015-03-14T14:36:47Z</time>
      </trkpt>
      <trkpt lat="40.250550" lon="-4.880667">
        <ele>958.0</ele>
        <time>2015-03-14T14:36:48Z</time>
      </trkpt>
      <trkpt lat="40.250633" lon="-4.880717">
        <ele>958.0</ele>
        <time>2015-03-14T14:36:49Z</time>
      </trkpt>
      <trkpt lat="40.250717" lon="-4.880817">
        <ele>960.0</ele>
        <time>2015-03-14T14:36:50Z</time>
      </trkpt>
      <trkpt lat="40.250750" lon="-4.880950">
        <ele>961.0</ele>
        <time>2015-03-14T14:36:51Z</time>
      </trkpt>
      <trkpt lat="40.250750" lon="-4.881067">
        <ele>962.0</ele>
        <time>2015-03-14T14:36:52Z</time>
      </trkpt>
      <trkpt lat="40.250733" lon="-4.881183">
        <ele>964.0</ele>
        <time>2015-03-14T14:36:53Z</time>
      </trkpt>
      <trkpt lat="40.250700" lon="-4.881267">
        <ele>965.0</ele>
        <time>2015-03-14T14:36:54Z</time>
      </trkpt>
      <trkpt lat="40.250650" lon="-4.881350">
        <ele>966.0</ele>
        <time>2015-03-14T14:36:55Z</time>
      </trkpt>
      <trkpt lat="40.250600" lon="-4.881433">
        <ele>966.0</ele>
        <time>2015-03-14T14:36:56Z</time>
      </trkpt>
      <trkpt lat="40.250533" lon="-4.881500">
        <ele>965.0</ele>
        <time>2015-03-14T14:36:57Z</time>
      </trkpt>
      <trkpt lat="40.250450" lon="-4.881533">
        <ele>966.0</ele>
        <time>2015-03-14T14:36:58Z</time>
      </trkpt>
      <trkpt lat="40.250350" lon="-4.881533">
        <ele>967.0</ele>
        <time>2015-03-14T14:36:59Z</time>
      </trkpt>
      <trkpt lat="40.250283" lon="-4.881500">
        <ele>970.0</ele>
        <time>2015-03-14T14:37:00Z</time>
      </trkpt>
      <trkpt lat="40.250233" lon="-4.881433">
        <ele>972.0</ele>
        <time>2015-03-14T14:37:01Z</time>
      </trkpt>
      <trkpt lat="40.250217" lon="-4.881350">
        <ele>974.0</ele>
        <time>2015-03-14T14:37:02Z</time>
      </trkpt>
      <trkpt lat="40.250217" lon="-4.881233">
        <ele>975.0</ele>
        <time>2015-03-14T14:37:03Z</time>
      </trkpt>
      <trkpt lat="40.250250" lon="-4.881117">
        <ele>976.0</ele>
        <time>2015-03-14T14:37:04Z</time>
      </trkpt>
      <trkpt lat="40.250317" lon="-4.881017">
        <ele>979.0</ele>
        <time>2015-03-14T14:37:05Z</time>
      </trkpt>
      <trkpt lat="40.250400" lon="-4.880950">
        <ele>982.0</ele>
        <time>2015-03-14T14:37:06Z</time>
      </trkpt>
      <trkpt lat="40.250500" lon="-4.880933">
        <ele>984.0</ele>
        <time>2015-03-14T14:37:07Z</time>
      </trkpt>
      <trkpt lat="40.250600" lon="-4.880950">
        <ele>985.0</ele>
        <time>2015-03-14T14:37:08Z</time>
      </trkpt>
      <trkpt lat="40.250683" lon="-4.881000">
        <ele>987.0</ele>
        <time>2015-03-14T14:37:09Z</time>
      </trkpt>
      <trkpt lat="40.250750" lon="-4.881083">
        <ele>988.0</ele>
        <time>2015-03-14T14:37:10Z</time>
      </trkpt>
      <trkpt lat="40.250783" lon="-4.881183">
        <ele>989.0</ele>
        <time>2015-03-14T14:37:11Z</time>
      </trkpt>
      <trkpt lat="40.250817" lon="-4.881317">
        <ele>990.0</ele>
        <time>2015-03-14T14:37:12Z</time>
      </trkpt>
      <trkpt lat="40.250800" lon="-4.881433">
        <ele>992.0</ele>
        <time>2015-03-14T14:37:13Z</time>
      </trkpt>
      <trkpt lat="40.250783" lon="-4.881533">
        <ele>993.0</ele>
        <time>2015-03-14T14:37:14Z</time>
      </trkpt>
      <trkpt lat="40.250750" lon="-4.881633">
        <ele>994.0</ele>
        <time>2015-03-14T14:37:15Z</time>
      </trkpt>
      <trkpt lat="40.250700" lon="-4.881700">
        <ele>994.0</ele>
        <time>2015-03-14T14:37:16Z</time>
      </trkpt>
      <trkpt lat="40.250633" lon="-4.881767">
        <ele>995.0</ele>
        <time>2015-03-14T14:37:17Z</time>
      </trkpt>
      <trkpt lat="40.250550" lon="-4.881800">
        <ele>996.0</ele>
        <time>2015-03-14T14:37:18Z</time>
      </trkpt>
      <trkpt lat="40.250467" lon="-4.881800">
        <ele>997.0</ele>
        <time>2015-03-14T14:37:19Z</time>
      </trkpt>
      <trkpt lat="40.250400" lon="-4.881767">
        <ele>1000.0</ele>
        <time>2015-03-14T14:37:20Z</time>
      </trkpt>
      <trkpt lat="40.250350" lon="-4.881717">
        <ele>1003.0</ele>
        <time>2015-03-14T14:37:21Z</time>
      </trkpt>
      <trkpt lat="40.250333" lon="-4.881650">
        <ele>1006.0</ele>
        <time>2015-03-14T14:37:22Z</time>
      </trkpt>
      <trkpt lat="40.250317" lon="-4.881567">
        <ele>1007.0</ele>
        <time>2015-03-14T14:37:23Z</time>
      </trkpt>
      <trkpt lat="40.250317" lon="-4.881483">
        <ele>1008.0</ele>
        <time>2015-03-14T14:37:24Z</time>
      </trkpt>
      <trkpt lat="40.250333" lon="-4.881400">
        <ele>1010.0</ele>
        <time>2015-03-14T14:37:25Z</time>
      </trkpt>
      <trkpt lat="40.250383" lon="-4.881317">
        <ele>1010.0</ele>
        <time>2015-03-14T14:37:26Z</time>
      </trkpt>
      <trkpt lat="40.250450" lon="-4.881250">
        <ele>1011.0</ele>
        <time>2015-03-14T14:37:27Z</time>
      </trkpt>
      <trkpt lat="40.250533" lon="-4.881200">
        <ele>1012.0</ele>
        <time>2015-03-14T14:37:28Z</time>
      </trkpt>
      <trkpt lat="40.250617" lon="-4.881167">
        <ele>1013.0</ele>
        <time>2015-03-14T14:37:29Z</time>
      </trkpt>
      <trkpt lat="40.250717" lon="-4.881183">
        <ele>1014.0</ele>
        <time>2015-03-14T14:37:30Z</time>
      </trkpt>
      <trkpt lat="40.250817" lon="-4.881233">
        <ele>1014.0</ele>
        <time>2015-03-14T14:37:31Z</time>
      </trkpt>
      <trkpt lat="40.250900" lon="-4.881317">
        <ele>1015.0</ele>
        <time>2015-03-14T14:37:32Z</time>
      </trkpt>
      <trkpt lat="40.250967" lon="-4.881433">
        <ele>1016.0</ele>
        <time>2015-03-14T14:37:33Z</time>
      </trkpt>
      <trkpt lat="40.251000" lon="-4.881567">
        <ele>1018.0</ele>
        <time>2015-03-14T14:37:34Z</time>
      </trkpt>
      <trkpt lat="40.251017" lon="-4.881683">
        <ele>1020.0</ele>
        <time>2015-03-14T14:37:35Z</time>
      </trkpt>
      <trkpt lat="40.251000" lon="-4.881783">
        <ele>1022.0</ele>
        <time>2015-03-14T14:37:36Z</time>
      </trkpt>
      <trkpt lat="40.250967" lon="-4.881883">
        <ele>1023.0</ele>
        <time>2015-03-14T14:37:37Z</time>
      </trkpt>
      <trkpt lat="40.250933" lon="-4.881983">
        <ele>1023.0</ele>
        <time>2015-03-14T14:37:38Z</time>
      </trkpt>
      <trkpt lat="40.250867" lon="-4.882067">
        <ele>1025.0</ele>
        <time>2015-03-14T14:37:39Z</time>
      </trkpt>
      <trkpt lat="40.250817" lon="-4.882150">
        <ele>1027.0</ele>
        <time>2015-03-14T14:37:40Z</time>
      </trkpt>
      <trkpt lat="40.250733" lon="-4.882183">
        <ele>1028.0</ele>
        <time>2015-03-14T14:37:41Z</time>
      </trkpt>
      <trkpt lat="40.250667" lon="-4.882200">
        <ele>1030.0</ele>
        <time>2015-03-14T14:37:42Z</time>
      </trkpt>
      <trkpt lat="40.250600" lon="-4.882167">
        <ele>1032.0</ele>
        <time>2015-03-14T14:37:43Z</time>
      </trkpt>
      <trkpt lat="40.250550" lon="-4.882117">
        <ele>1034.0</ele>
        <time>2015-03-14T14:37:44Z</time>
      </trkpt>
      <trkpt lat="40.250517" lon="-4.882033">
        <ele>1035.0</ele>
        <time>2015-03-14T14:37:45Z</time>
      </trkpt>
      <trkpt lat="40.250500" lon="-4.881917">
        <ele>1037.0</ele>
        <time>2015-03-14T14:37:46Z</time>
      </trkpt>
      <trkpt lat="40.250517" lon="-4.881800">
        <ele>1038.0</ele>
        <time>2015-03-14T14:37:47Z</time>
      </trkpt>
      <trkpt lat="40.250583" lon="-4.881683">
        <ele>1039.0</ele>
        <time>2015-03-14T14:37:48Z</time>
      </trkpt>
      <trkpt lat="40.250667" lon="-4.881600">
        <ele>1041.0</ele>
        <time>2015-03-14T14:37:49Z</time>
      </trkpt>
      <trkpt lat="40.250767" lon="-4.881567">
        <ele>1042.0</ele>
        <time>2015-03-14T14:37:50Z</time>
      </trkpt>
      <trkpt lat="40.250867" lon="-4.881567">
        <ele>1045.0</ele>
        <time>2015-03-14T14:37:51Z</time>
      </trkpt>
      <trkpt lat="40.250967" lon="-4.881617">
        <ele>1047.0</ele>
        <time>2015-03-14T14:37:52Z</time>
      </trkpt>
      <trkpt lat="40.251050" lon="-4.881683">
        <ele>1048.0</ele>
        <time>2015-03-14T14:37:53Z</time>
      </trkpt>
      <trkpt lat="40.251100" lon="-4.881783">
        <ele>1048.0</ele>
        <time>2015-03-14T14:37:54Z</time>
      </trkpt>
      <trkpt lat="40.251150" lon="-4.881917">
        <ele>1049.0</ele>
        <time>2015-03-14T14:37:55Z</time>
      </trkpt>
      <trkpt lat="40.251167" lon="-4.882067">
        <ele>1049.0</ele>
        <time>2015-03-14T14:37:56Z</time>
      </trkpt>
      <trkpt lat="40.251133" lon="-4.882217">
        <ele>1050.0</ele>
        <time>2015-03-14T14:37:57Z</time>
      </trkpt>
      <trkpt lat="40.251067" lon="-4.882333">
        <ele>1052.0</ele>
        <time>2015-03-14T14:37:58Z</time>
      </trkpt>
      <trkpt lat="40.251000" lon="-4.882417">
        <ele>1055.0</ele>
        <time>2015-03-14T14:37:59Z</time>
      </trkpt>
      <trkpt lat="40.250933" lon="-4.882483">
        <ele>1059.0</ele>
        <time>2015-03-14T14:38:00Z</time>
      </trkpt>
      <trkpt lat="40.250867" lon="-4.882533">
        <ele>1062.0</ele>
        <time>2015-03-14T14:38:01Z</time>
      </trkpt>
      <trkpt lat="40.250817" lon="-4.882550">
        <ele>1064.0</ele>
        <time>2015-03-14T14:38:02Z</time>
      </trkpt>
      <trkpt lat="40.250750" lon="-4.882517">
        <ele>1065.0</ele>
        <time>2015-03-14T14:38:03Z</time>
      </trkpt>
      <trkpt lat="40.250700" lon="-4.882467">
        <ele>1066.0</ele>
        <time>2015-03-14T14:38:04Z</time>
      </trkpt>
      <trkpt lat="40.250650" lon="-4.882367">
        <ele>1068.0</ele>
        <time>2015-03-14T14:38:05Z</time>
      </trkpt>
      <trkpt lat="40.250650" lon="-4.882283">
        <ele>1070.0</ele>
        <time>2015-03-14T14:38:06Z</time>
      </trkpt>
      <trkpt lat="40.250650" lon="-4.882167">
        <ele>1071.0</ele>
        <time>2015-03-14T14:38:07Z</time>
      </trkpt>
      <trkpt lat="40.250667" lon="-4.882067">
        <ele>1072.0</ele>
        <time>2015-03-14T14:38:08Z</time>
      </trkpt>
      <trkpt lat="40.250700" lon="-4.881967">
        <ele>1073.0</ele>
        <time>2015-03-14T14:38:09Z</time>
      </trkpt>
      <trkpt lat="40.250733" lon="-4.881883">
        <ele>1075.0</ele>
        <time>2015-03-14T14:38:10Z</time>
      </trkpt>
      <trkpt lat="40.250800" lon="-4.881817">
        <ele>1076.0</ele>
        <time>2015-03-14T14:38:11Z</time>
      </trkpt>
      <trkpt lat="40.250883" lon="-4.881800">
        <ele>1077.0</ele>
        <time>2015-03-14T14:38:12Z</time>
      </trkpt>
      <trkpt lat="40.250967" lon="-4.881783">
        <ele>1077.0</ele>
        <time>2015-03-14T14:38:13Z</time>
      </trkpt>
      <trkpt lat="40.251067" lon="-4.881817">
        <ele>1078.0</ele>
        <time>2015-03-14T14:38:14Z</time>
      </trkpt>
      <trkpt lat="40.251150" lon="-4.881900">
        <ele>1078.0</ele>
        <time>2015-03-14T14:38:15Z</time>
      </trkpt>
      <trkpt lat="40.251200" lon="-4.882017">
        <ele>1077.0</ele>
        <time>2015-03-14T14:38:16Z</time>
      </trkpt>
      <trkpt lat="40.251233" lon="-4.882183">
        <ele>1077.0</ele>
        <time>2015-03-14T14:38:17Z</time>
      </trkpt>
      <trkpt lat="40.251217" lon="-4.882333">
        <ele>1077.0</ele>
        <time>2015-03-14T14:38:18Z</time>
      </trkpt>
      <trkpt lat="40.251167" lon="-4.882450">
        <ele>1079.0</ele>
        <time>2015-03-14T14:38:19Z</time>
      </trkpt>
      <trkpt lat="40.251100" lon="-4.882550">
        <ele>1081.0</ele>
        <time>2015-03-14T14:38:20Z</time>
      </trkpt>
      <trkpt lat="40.251033" lon="-4.882617">
        <ele>1082.0</ele>
        <time>2015-03-14T14:38:21Z</time>
      </trkpt>
      <trkpt lat="40.250950" lon="-4.882667">
        <ele>1084.0</ele>
        <time>2015-03-14T14:38:22Z</time>
      </trkpt>
      <trkpt lat="40.250867" lon="-4.882700">
        <ele>1086.0</ele>
        <time>2015-03-14T14:38:23Z</time>
      </trkpt>
      <trkpt lat="40.250800" lon="-4.882767">
        <ele>1089.0</ele>
        <time>2015-03-14T14:38:24Z</time>
      </trkpt>
      <trkpt lat="40.250733" lon="-4.882833">
        <ele>1091.0</ele>
        <time>2015-03-14T14:38:25Z</time>
      </trkpt>
      <trkpt lat="40.250700" lon="-4.882933">
        <ele>1094.0</ele>
        <time>2015-03-14T14:38:26Z</time>
      </trkpt>
      <trkpt lat="40.250683" lon="-4.883067">
        <ele>1096.0</ele>
        <time>2015-03-14T14:38:27Z</time>
      </trkpt>
      <trkpt lat="40.250700" lon="-4.883183">
        <ele>1099.0</ele>
        <time>2015-03-14T14:38:28Z</time>
      </trkpt>
      <trkpt lat="40.250733" lon="-4.883300">
        <ele>1101.0</ele>
        <time>2015-03-14T14:38:29Z</time>
      </trkpt>
      <trkpt lat="40.250783" lon="-4.883400">
        <ele>1102.0</ele>
        <time>2015-03-14T14:38:30Z</time>
      </trkpt>
      <trkpt lat="40.250867" lon="-4.883500">
        <ele>1103.0</ele>
        <time>2015-03-14T14:38:31Z</time>
      </trkpt>
      <trkpt lat="40.250967" lon="-4.883600">
        <ele>1103.0</ele>
        <time>2015-03-14T14:38:32Z</time>
      </trkpt>
      <trkpt lat="40.251083" lon="-4.883650">
        <ele>1104.0</ele>
        <time>2015-03-14T14:38:33Z</time>
      </trkpt>
      <trkpt lat="40.251200" lon="-4.883700">
        <ele>1105.0</ele>
        <time>2015-03-14T14:38:34Z</time>
      </trkpt>
      <trkpt lat="40.251317" lon="-4.883700">
        <ele>1106.0</ele>
        <time>2015-03-14T14:38:35Z</time>
      </trkpt>
      <trkpt lat="40.251433" lon="-4.883667">
        <ele>1108.0</ele>
        <time>2015-03-14T14:38:36Z</time>
      </trkpt>
      <trkpt lat="40.251533" lon="-4.883583">
        <ele>1109.0</ele>
        <time>2015-03-14T14:38:37Z</time>
      </trkpt>
      <trkpt lat="40.251600" lon="-4.883467">
        <ele>1111.0</ele>
        <time>2015-03-14T14:38:38Z</time>
      </trkpt>
      <trkpt lat="40.251617" lon="-4.883350">
        <ele>1113.0</ele>
        <time>2015-03-14T14:38:39Z</time>
      </trkpt>
      <trkpt lat="40.251583" lon="-4.883250">
        <ele>1115.0</ele>
        <time>2015-03-14T14:38:40Z</time>
      </trkpt>
      <trkpt lat="40.251550" lon="-4.883183">
        <ele>1118.0</ele>
        <time>2015-03-14T14:38:41Z</time>
      </trkpt>
      <trkpt lat="40.251500" lon="-4.883117">
        <ele>1120.0</ele>
        <time>2015-03-14T14:38:42Z</time>
      </trkpt>
      <trkpt lat="40.251450" lon="-4.883083">
        <ele>1122.0</ele>
        <time>2015-03-14T14:38:43Z</time>
      </trkpt>
      <trkpt lat="40.251367" lon="-4.883067">
        <ele>1123.0</ele>
        <time>2015-03-14T14:38:44Z</time>
      </trkpt>
      <trkpt lat="40.251283" lon="-4.883083">
        <ele>1123.0</ele>
        <time>2015-03-14T14:38:45Z</time>
      </trkpt>
      <trkpt lat="40.251200" lon="-4.883150">
        <ele>1123.0</ele>
        <time>2015-03-14T14:38:46Z</time>
      </trkpt>
      <trkpt lat="40.251117" lon="-4.883233">
        <ele>1124.0</ele>
        <time>2015-03-14T14:38:47Z</time>
      </trkpt>
      <trkpt lat="40.251050" lon="-4.883350">
        <ele>1126.0</ele>
        <time>2015-03-14T14:38:48Z</time>
      </trkpt>
      <trkpt lat="40.251017" lon="-4.883467">
        <ele>1129.0</ele>
        <time>2015-03-14T14:38:49Z</time>
      </trkpt>
      <trkpt lat="40.251000" lon="-4.883583">
        <ele>1132.0</ele>
        <time>2015-03-14T14:38:50Z</time>
      </trkpt>
      <trkpt lat="40.251017" lon="-4.883700">
        <ele>1134.0</ele>
        <time>2015-03-14T14:38:51Z</time>
      </trkpt>
      <trkpt lat="40.251050" lon="-4.883833">
        <ele>1136.0</ele>
        <time>2015-03-14T14:38:52Z</time>
      </trkpt>
      <trkpt lat="40.251117" lon="-4.883950">
        <ele>1137.0</ele>
        <time>2015-03-14T14:38:53Z</time>
      </trkpt>
      <trkpt lat="40.251200" lon="-4.884050">
        <ele>1137.0</ele>
        <time>2015-03-14T14:38:54Z</time>
      </trkpt>
      <trkpt lat="40.251317" lon="-4.884133">
        <ele>1139.0</ele>
        <time>2015-03-14T14:38:55Z</time>
      </trkpt>
      <trkpt lat="40.251433" lon="-4.884183">
        <ele>1141.0</ele>
        <time>2015-03-14T14:38:56Z</time>
      </trkpt>
      <trkpt lat="40.251550" lon="-4.884200">
        <ele>1144.0</ele>
        <time>2015-03-14T14:38:57Z</time>
      </trkpt>
      <trkpt lat="40.251667" lon="-4.884183">
        <ele>1147.0</ele>
        <time>2015-03-14T14:38:58Z</time>
      </trkpt>
      <trkpt lat="40.251750" lon="-4.884117">
        <ele>1149.0</ele>
        <time>2015-03-14T14:38:59Z</time>
      </trkpt>
      <trkpt lat="40.251783" lon="-4.884033">
        <ele>1150.0</ele>
        <time>2015-03-14T14:39:00Z</time>
      </trkpt>
      <trkpt lat="40.251800" lon="-4.883917">
        <ele>1152.0</ele>
        <time>2015-03-14T14:39:01Z</time>
      </trkpt>
      <trkpt lat="40.251783" lon="-4.883833">
        <ele>1153.0</ele>
        <time>2015-03-14T14:39:02Z</time>
      </trkpt>
      <trkpt lat="40.251750" lon="-4.883750">
        <ele>1156.0</ele>
        <time>2015-03-14T14:39:03Z</time>
      </trkpt>
      <trkpt lat="40.251700" lon="-4.883683">
        <ele>1159.0</ele>
        <time>2015-03-14T14:39:04Z</time>
      </trkpt>
      <trkpt lat="40.251633" lon="-4.883667">
        <ele>1160.0</ele>
        <time>2015-03-14T14:39:05Z</time>
      </trkpt>
      <trkpt lat="40.251550" lon="-4.883650">
        <ele>1161.0</ele>
        <time>2015-03-14T14:39:06Z</time>
      </trkpt>
      <trkpt lat="40.251467" lon="-4.883667">
        <ele>1163.0</ele>
        <time>2015-03-14T14:39:07Z</time>
      </trkpt>
      <trkpt lat="40.251367" lon="-4.883717">
        <ele>1164.0</ele>
        <time>2015-03-14T14:39:08Z</time>
      </trkpt>
      <trkpt lat="40.251283" lon="-4.883800">
        <ele>1165.0</ele>
        <time>2015-03-14T14:39:09Z</time>
      </trkpt>
      <trkpt lat="40.251233" lon="-4.883933">
        <ele>1167.0</ele>
        <time>2015-03-14T14:39:10Z</time>
      </trkpt>
      <trkpt lat="40.251217" lon="-4.884083">
        <ele>1169.0</ele>
        <time>2015-03-14T14:39:11Z</time>
      </trkpt>
      <trkpt lat="40.251233" lon="-4.884217">
        <ele>1172.0</ele>
        <time>2015-03-14T14:39:12Z</time>
      </trkpt>
      <trkpt lat="40.251283" lon="-4.884333">
        <ele>1174.0</ele>
        <time>2015-03-14T14:39:13Z</time>
      </trkpt>
      <trkpt lat="40.251367" lon="-4.884433">
        <ele>1176.0</ele>
        <time>2015-03-14T14:39:14Z</time>
      </trkpt>
      <trkpt lat="40.251467" lon="-4.884500">
        <ele>1178.0</ele>
        <time>2015-03-14T14:39:15Z</time>
      </trkpt>
      <trkpt lat="40.251600" lon="-4.884533">
        <ele>1179.0</ele>
        <time>2015-03-14T14:39:16Z</time>
      </trkpt>
      <trkpt lat="40.251717" lon="-4.884533">
        <ele>1182.0</ele>
        <time>2015-03-14T14:39:17Z</time>
      </trkpt>
      <trkpt lat="40.251817" lon="-4.884500">
        <ele>1184.0</ele>
        <time>2015-03-14T14:39:18Z</time>
      </trkpt>
      <trkpt lat="40.251917" lon="-4.884433">
        <ele>1186.0</ele>
        <time>2015-03-14T14:39:19Z</time>
      </trkpt>
      <trkpt lat="40.251983" lon="-4.884350">
        <ele>1187.0</ele>
        <time>2015-03-14T14:39:20Z</time>
      </trkpt>
      <trkpt lat="40.252017" lon="-4.884250">
        <ele>1189.0</ele>
        <time>2015-03-14T14:39:21Z</time>
      </trkpt>
      <trkpt lat="40.252017" lon="-4.884133">
        <ele>1191.0</ele>
        <time>2015-03-14T14:39:22Z</time>
      </trkpt>
      <trkpt lat="40.252000" lon="-4.884033">
        <ele>1195.0</ele>
        <time>2015-03-14T14:39:23Z</time>
      </trkpt>
      <trkpt lat="40.251967" lon="-4.883950">
        <ele>1199.0</ele>
        <time>2015-03-14T14:39:24Z</time>
      </trkpt>
      <trkpt lat="40.251900" lon="-4.883900">
        <ele>1201.0</ele>
        <time>2015-03-14T14:39:25Z</time>
      </trkpt>
      <trkpt lat="40.251833" lon="-4.883900">
        <ele>1202.0</ele>
        <time>2015-03-14T14:39:26Z</time>
      </trkpt>
      <trkpt lat="40.251750" lon="-4.883917">
        <ele>1203.0</ele>
        <time>2015-03-14T14:39:27Z</time>
      </trkpt>
      <trkpt lat="40.251650" lon="-4.883967">
        <ele>1204.0</ele>
        <time>2015-03-14T14:39:28Z</time>
      </trkpt>
      <trkpt lat="40.251567" lon="-4.884067">
        <ele>1206.0</ele>
        <time>2015-03-14T14:39:29Z</time>
      </trkpt>
      <trkpt lat="40.251500" lon="-4.884183">
        <ele>1210.0</ele>
        <time>2015-03-14T14:39:30Z</time>
      </trkpt>
      <trkpt lat="40.251483" lon="-4.884317">
        <ele>1213.0</ele>
        <time>2015-03-14T14:39:31Z</time>
      </trkpt>
      <trkpt lat="40.251517" lon="-4.884450">
        <ele>1215.0</ele>
        <time>2015-03-14T14:39:32Z</time>
      </trkpt>
      <trkpt lat="40.251550" lon="-4.884567">
        <ele>1217.0</ele>
        <time>2015-03-14T14:39:33Z</time>
      </trkpt>
      <trkpt lat="40.251617" lon="-4.884683">
        <ele>1219.0</ele>
        <time>2015-03-14T14:39:34Z</time>
      </trkpt>
      <trkpt lat="40.251683" lon="-4.884783">
        <ele>1222.0</ele>
        <time>2015-03-14T14:39:35Z</time>
      </trkpt>
      <trkpt lat="40.251767" lon="-4.884867">
        <ele>1225.0</ele>
        <time>2015-03-14T14:39:36Z</time>
      </trkpt>
      <trkpt lat="40.251850" lon="-4.884917">
        <ele>1227.0</ele>
        <time>2015-03-14T14:39:37Z</time>
      </trkpt>
      <trkpt lat="40.251933" lon="-4.884950">
        <ele>1228.0</ele>
        <time>2015-03-14T14:39:38Z</time>
      </trkpt>
      <trkpt lat="40.252033" lon="-4.884967">
        <ele>1229.0</ele>
        <time>2015-03-14T14:39:39Z</time>
      </trkpt>
      <trkpt lat="40.252133" lon="-4.884950">
        <ele>1228.0</ele>
        <time>2015-03-14T14:39:40Z</time>
      </trkpt>
      <trkpt lat="40.252250" lon="-4.884917">
        <ele>1229.0</ele>
        <time>2015-03-14T14:39:41Z</time>
      </trkpt>
      <trkpt lat="40.252350" lon="-4.884850">
        <ele>1230.0</ele>
        <time>2015-03-14T14:39:42Z</time>
      </trkpt>
      <trkpt lat="40.252433" lon="-4.884783">
        <ele>1233.0</ele>
        <time>2015-03-14T14:39:43Z</time>
      </trkpt>
      <trkpt lat="40.252483" lon="-4.884683">
        <ele>1235.0</ele>
        <time>2015-03-14T14:39:44Z</time>
      </trkpt>
      <trkpt lat="40.252517" lon="-4.884583">
        <ele>1237.0</ele>
        <time>2015-03-14T14:39:45Z</time>
      </trkpt>
      <trkpt lat="40.252500" lon="-4.884483">
        <ele>1239.0</ele>
        <time>2015-03-14T14:39:46Z</time>
      </trkpt>
      <trkpt lat="40.252467" lon="-4.884400">
        <ele>1241.0</ele>
        <time>2015-03-14T14:39:47Z</time>
      </trkpt>
      <trkpt lat="40.252417" lon="-4.884350">
        <ele>1242.0</ele>
        <time>2015-03-14T14:39:48Z</time>
      </trkpt>
      <trkpt lat="40.252333" lon="-4.884350">
        <ele>1243.0</ele>
        <time>2015-03-14T14:39:49Z</time>
      </trkpt>
      <trkpt lat="40.252250" lon="-4.884383">
        <ele>1243.0</ele>
        <time>2015-03-14T14:39:50Z</time>
      </trkpt>
      <trkpt lat="40.252150" lon="-4.884450">
        <ele>1244.0</ele>
        <time>2015-03-14T14:39:51Z</time>
      </trkpt>
      <trkpt lat="40.252067" lon="-4.884533">
        <ele>1247.0</ele>
        <time>2015-03-14T14:39:52Z</time>
      </trkpt>
      <trkpt lat="40.252017" lon="-4.884617">
        <ele>1251.0</ele>
        <time>2015-03-14T14:39:53Z</time>
      </trkpt>
      <trkpt lat="40.251967" lon="-4.884700">
        <ele>1254.0</ele>
        <time>2015-03-14T14:39:54Z</time>
      </trkpt>
      <trkpt lat="40.251933" lon="-4.884783">
        <ele>1257.0</ele>
        <time>2015-03-14T14:39:55Z</time>
      </trkpt>
      <trkpt lat="40.251883" lon="-4.884883">
        <ele>1258.0</ele>
        <time>2015-03-14T14:39:56Z</time>
      </trkpt>
      <trkpt lat="40.251850" lon="-4.884983">
        <ele>1260.0</ele>
        <time>2015-03-14T14:39:57Z</time>
      </trkpt>
      <trkpt lat="40.251817" lon="-4.885100">
        <ele>1261.0</ele>
        <time>2015-03-14T14:39:58Z</time>
      </trkpt>
      <trkpt lat="40.251800" lon="-4.885233">
        <ele>1263.0</ele>
        <time>2015-03-14T14:39:59Z</time>
      </trkpt>
      <trkpt lat="40.251783" lon="-4.885383">
        <ele>1266.0</ele>
        <time>2015-03-14T14:40:00Z</time>
      </trkpt>
      <trkpt lat="40.251800" lon="-4.885517">
        <ele>1270.0</ele>
        <time>2015-03-14T14:40:01Z</time>
      </trkpt>
      <trkpt lat="40.251833" lon="-4.885633">
        <ele>1272.0</ele>
        <time>2015-03-14T14:40:02Z</time>
      </trkpt>
      <trkpt lat="40.251900" lon="-4.885717">
        <ele>1274.0</ele>
        <time>2015-03-14T14:40:03Z</time>
      </trkpt>
      <trkpt lat="40.251967" lon="-4.885800">
        <ele>1275.0</ele>
        <time>2015-03-14T14:40:04Z</time>
      </trkpt>
      <trkpt lat="40.252067" lon="-4.885850">
        <ele>1276.0</ele>
        <time>2015-03-14T14:40:05Z</time>
      </trkpt>
      <trkpt lat="40.252150" lon="-4.885867">
        <ele>1278.0</ele>
        <time>2015-03-14T14:40:06Z</time>
      </trkpt>
      <trkpt lat="40.252250" lon="-4.885850">
        <ele>1280.0</ele>
        <time>2015-03-14T14:40:07Z</time>
      </trkpt>
      <trkpt lat="40.252350" lon="-4.885800">
        <ele>1283.0</ele>
        <time>2015-03-14T14:40:08Z</time>
      </trkpt>
      <trkpt lat="40.252433" lon="-4.885733">
        <ele>1285.0</ele>
        <time>2015-03-14T14:40:09Z</time>
      </trkpt>
      <trkpt lat="40.252483" lon="-4.885683">
        <ele>1288.0</ele>
        <time>2015-03-14T14:40:10Z</time>
      </trkpt>
      <trkpt lat="40.252533" lon="-4.885617">
        <ele>1289.0</ele>
        <time>2015-03-14T14:40:11Z</time>
      </trkpt>
      <trkpt lat="40.252550" lon="-4.885550">
        <ele>1289.0</ele>
        <time>2015-03-14T14:40:12Z</time>
      </trkpt>
      <trkpt lat="40.252567" lon="-4.885467">
        <ele>1289.0</ele>
        <time>2015-03-14T14:40:13Z</time>
      </trkpt>
      <trkpt lat="40.252583" lon="-4.885383">
        <ele>1288.0</ele>
        <time>2015-03-14T14:40:14Z</time>
      </trkpt>
      <trkpt lat="40.252583" lon="-4.885283">
        <ele>1288.0</ele>
        <time>2015-03-14T14:40:15Z</time>
      </trkpt>
      <trkpt lat="40.252567" lon="-4.885183">
        <ele>1289.0</ele>
        <time>2015-03-14T14:40:16Z</time>
      </trkpt>
      <trkpt lat="40.252517" lon="-4.885100">
        <ele>1291.0</ele>
        <time>2015-03-14T14:40:17Z</time>
      </trkpt>
      <trkpt lat="40.252450" lon="-4.885067">
        <ele>1293.0</ele>
        <time>2015-03-14T14:40:18Z</time>
      </trkpt>
      <trkpt lat="40.252383" lon="-4.885050">
        <ele>1296.0</ele>
        <time>2015-03-14T14:40:19Z</time>
      </trkpt>
      <trkpt lat="40.252317" lon="-4.885050">
        <ele>1300.0</ele>
        <time>2015-03-14T14:40:20Z</time>
      </trkpt>
      <trkpt lat="40.252267" lon="-4.885067">
        <ele>1302.0</ele>
        <time>2015-03-14T14:40:21Z</time>
      </trkpt>
      <trkpt lat="40.252200" lon="-4.885083">
        <ele>1305.0</ele>
        <time>2015-03-14T14:40:22Z</time>
      </trkpt>
      <trkpt lat="40.252133" lon="-4.885117">
        <ele>1306.0</ele>
        <time>2015-03-14T14:40:23Z</time>
      </trkpt>
      <trkpt lat="40.252050" lon="-4.885150">
        <ele>1308.0</ele>
        <time>2015-03-14T14:40:24Z</time>
      </trkpt>
      <trkpt lat="40.251967" lon="-4.885200">
        <ele>1310.0</ele>
        <time>2015-03-14T14:40:25Z</time>
      </trkpt>
      <trkpt lat="40.251900" lon="-4.885267">
        <ele>1313.0</ele>
        <time>2015-03-14T14:40:26Z</time>
      </trkpt>
      <trkpt lat="40.251833" lon="-4.885350">
        <ele>1316.0</ele>
        <time>2015-03-14T14:40:27Z</time>
      </trkpt>
      <trkpt lat="40.251750" lon="-4.885433">
        <ele>1320.0</ele>
        <time>2015-03-14T14:40:28Z</time>
      </trkpt>
      <trkpt lat="40.251683" lon="-4.885500">
        <ele>1324.0</ele>
        <time>2015-03-14T14:40:29Z</time>
      </trkpt>
      <trkpt lat="40.251600" lon="-4.885550">
        <ele>1328.0</ele>
        <time>2015-03-14T14:40:30Z</time>
      </trkpt>
      <trkpt lat="40.251517" lon="-4.885600">
        <ele>1332.0</ele>
        <time>2015-03-14T14:40:31Z</time>
      </trkpt>
      <trkpt lat="40.251450" lon="-4.885667">
        <ele>1335.0</ele>
        <time>2015-03-14T14:40:32Z</time>
      </trkpt>
      <trkpt lat="40.251400" lon="-4.885750">
        <ele>1337.0</ele>
        <time>2015-03-14T14:40:33Z</time>
      </trkpt>
      <trkpt lat="40.251383" lon="-4.885867">
        <ele>1337.0</ele>
        <time>2015-03-14T14:40:34Z</time>
      </trkpt>
      <trkpt lat="40.251400" lon="-4.886017">
        <ele>1338.0</ele>
        <time>2015-03-14T14:40:35Z</time>
      </trkpt>
      <trkpt lat="40.251433" lon="-4.886150">
        <ele>1341.0</ele>
        <time>2015-03-14T14:40:36Z</time>
      </trkpt>
      <trkpt lat="40.251483" lon="-4.886267">
        <ele>1346.0</ele>
        <time>2015-03-14T14:40:37Z</time>
      </trkpt>
      <trkpt lat="40.251533" lon="-4.886367">
        <ele>1352.0</ele>
        <time>2015-03-14T14:40:38Z</time>
      </trkpt>
      <trkpt lat="40.251567" lon="-4.886417">
        <ele>1355.0</ele>
        <time>2015-03-14T14:40:39Z</time>
      </trkpt>
      <trkpt lat="40.251617" lon="-4.886467">
        <ele>1356.0</ele>
        <time>2015-03-14T14:40:40Z</time>
      </trkpt>
      <trkpt lat="40.251683" lon="-4.886517">
        <ele>1356.0</ele>
        <time>2015-03-14T14:40:41Z</time>
      </trkpt>
      <trkpt lat="40.251767" lon="-4.886550">
        <ele>1354.0</ele>
        <time>2015-03-14T14:40:42Z</time>
      </trkpt>
      <trkpt lat="40.251867" lon="-4.886550">
        <ele>1353.0</ele>
        <time>2015-03-14T14:40:43Z</time>
      </trkpt>
      <trkpt lat="40.251967" lon="-4.886533">
        <ele>1352.0</ele>
        <time>2015-03-14T14:40:44Z</time>
      </trkpt>
      <trkpt lat="40.252067" lon="-4.886483">
        <ele>1351.0</ele>
        <time>2015-03-14T14:40:45Z</time>
      </trkpt>
      <trkpt lat="40.252150" lon="-4.886400">
        <ele>1350.0</ele>
        <time>2015-03-14T14:40:46Z</time>
      </trkpt>
      <trkpt lat="40.252200" lon="-4.886283">
        <ele>1350.0</ele>
        <time>2015-03-14T14:40:47Z</time>
      </trkpt>
      <trkpt lat="40.252233" lon="-4.886150">
        <ele>1351.0</ele>
        <time>2015-03-14T14:40:48Z</time>
      </trkpt>
      <trkpt lat="40.252233" lon="-4.886050">
        <ele>1353.0</ele>
        <time>2015-03-14T14:40:49Z</time>
      </trkpt>
      <trkpt lat="40.252200" lon="-4.885950">
        <ele>1355.0</ele>
        <time>2015-03-14T14:40:50Z</time>
      </trkpt>
      <trkpt lat="40.252150" lon="-4.885867">
        <ele>1355.0</ele>
        <time>2015-03-14T14:40:51Z</time>
      </trkpt>
      <trkpt lat="40.252067" lon="-4.885817">
        <ele>1356.0</ele>
        <time>2015-03-14T14:40:52Z</time>
      </trkpt>
      <trkpt lat="40.251983" lon="-4.885767">
        <ele>1357.0</ele>
        <time>2015-03-14T14:40:53Z</time>
      </trkpt>
      <trkpt lat="40.251900" lon="-4.885767">
        <ele>1359.0</ele>
        <time>2015-03-14T14:40:54Z</time>
      </trkpt>
      <trkpt lat="40.251800" lon="-4.885783">
        <ele>1361.0</ele>
        <time>2015-03-14T14:40:55Z</time>
      </trkpt>
      <trkpt lat="40.251717" lon="-4.885800">
        <ele>1363.0</ele>
        <time>2015-03-14T14:40:56Z</time>
      </trkpt>
      <trkpt lat="40.251650" lon="-4.885833">
        <ele>1366.0</ele>
        <time>2015-03-14T14:40:57Z</time>
      </trkpt>
      <trkpt lat="40.251567" lon="-4.885850">
        <ele>1369.0</ele>
        <time>2015-03-14T14:40:58Z</time>
      </trkpt>
      <trkpt lat="40.251500" lon="-4.885850">
        <ele>1370.0</ele>
        <time>2015-03-14T14:40:59Z</time>
      </trkpt>
      <trkpt lat="40.251433" lon="-4.885900">
        <ele>1371.0</ele>
        <time>2015-03-14T14:41:00Z</time>
      </trkpt>
      <trkpt lat="40.251367" lon="-4.885967">
        <ele>1370.0</ele>
        <time>2015-03-14T14:41:01Z</time>
      </trkpt>
      <trkpt lat="40.251317" lon="-4.886067">
        <ele>1370.0</ele>
        <time>2015-03-14T14:41:02Z</time>
      </trkpt>
      <trkpt lat="40.251283" lon="-4.886200">
        <ele>1369.0</ele>
        <time>2015-03-14T14:41:03Z</time>
      </trkpt>
      <trkpt lat="40.251267" lon="-4.886333">
        <ele>1370.0</ele>
        <time>2015-03-14T14:41:04Z</time>
      </trkpt>
      <trkpt lat="40.251250" lon="-4.886450">
        <ele>1371.0</ele>
        <time>2015-03-14T14:41:05Z</time>
      </trkpt>
      <trkpt lat="40.251267" lon="-4.886583">
        <ele>1372.0</ele>
        <time>2015-03-14T14:41:06Z</time>
      </trkpt>
      <trkpt lat="40.251283" lon="-4.886700">
        <ele>1374.0</ele>
        <time>2015-03-14T14:41:07Z</time>
      </trkpt>
      <trkpt lat="40.251300" lon="-4.886817">
        <ele>1375.0</ele>
        <time>2015-03-14T14:41:08Z</time>
      </trkpt>
      <trkpt lat="40.251333" lon="-4.886933">
        <ele>1376.0</ele>
        <time>2015-03-14T14:41:09Z</time>
      </trkpt>
      <trkpt lat="40.251367" lon="-4.887050">
        <ele>1377.0</ele>
        <time>2015-03-14T14:41:10Z</time>
      </trkpt>
      <trkpt lat="40.251400" lon="-4.887183">
        <ele>1379.0</ele>
        <time>2015-03-14T14:41:11Z</time>
      </trkpt>
      <trkpt lat="40.251433" lon="-4.887317">
        <ele>1382.0</ele>
        <time>2015-03-14T14:41:12Z</time>
      </trkpt>
      <trkpt lat="40.251483" lon="-4.887450">
        <ele>1387.0</ele>
        <time>2015-03-14T14:41:13Z</time>
      </trkpt>
      <trkpt lat="40.251517" lon="-4.887550">
        <ele>1390.0</ele>
        <time>2015-03-14T14:41:14Z</time>
      </trkpt>
      <trkpt lat="40.251550" lon="-4.887633">
        <ele>1392.0</ele>
        <time>2015-03-14T14:41:15Z</time>
      </trkpt>
      <trkpt lat="40.251550" lon="-4.887717">
        <ele>1393.0</ele>
        <time>2015-03-14T14:41:16Z</time>
      </trkpt>
      <trkpt lat="40.251567" lon="-4.887800">
        <ele>1390.0</ele>
        <time>2015-03-14T14:41:17Z</time>
      </trkpt>
      <trkpt lat="40.251600" lon="-4.887900">
        <ele>1388.0</ele>
        <time>2015-03-14T14:41:18Z</time>
      </trkpt>
      <trkpt lat="40.251667" lon="-4.888000">
        <ele>1385.0</ele>
        <time>2015-03-14T14:41:19Z</time>
      </trkpt>
      <trkpt lat="40.251750" lon="-4.888083">
        <ele>1383.0</ele>
        <time>2015-03-14T14:41:20Z</time>
      </trkpt>
      <trkpt lat="40.251833" lon="-4.888117">
        <ele>1383.0</ele>
        <time>2015-03-14T14:41:21Z</time>
      </trkpt>
      <trkpt lat="40.251900" lon="-4.888100">
        <ele>1383.0</ele>
        <time>2015-03-14T14:41:22Z</time>
      </trkpt>
      <trkpt lat="40.251933" lon="-4.888050">
        <ele>1383.0</ele>
        <time>2015-03-14T14:41:23Z</time>
      </trkpt>
      <trkpt lat="40.251967" lon="-4.887983">
        <ele>1383.0</ele>
        <time>2015-03-14T14:41:24Z</time>
      </trkpt>
      <trkpt lat="40.251983" lon="-4.887900">
        <ele>1382.0</ele>
        <time>2015-03-14T14:41:25Z</time>
      </trkpt>
      <trkpt lat="40.252000" lon="-4.887833">
        <ele>1381.0</ele>
        <time>2015-03-14T14:41:26Z</time>
      </trkpt>
      <trkpt lat="40.252017" lon="-4.887750">
        <ele>1378.0</ele>
        <time>2015-03-14T14:41:27Z</time>
      </trkpt>
      <trkpt lat="40.252050" lon="-4.887667">
        <ele>1375.0</ele>
        <time>2015-03-14T14:41:28Z</time>
      </trkpt>
      <trkpt lat="40.252083" lon="-4.887550">
        <ele>1372.0</ele>
        <time>2015-03-14T14:41:29Z</time>
      </trkpt>
      <trkpt lat="40.252100" lon="-4.887417">
        <ele>1370.0</ele>
        <time>2015-03-14T14:41:30Z</time>
      </trkpt>
      <trkpt lat="40.252100" lon="-4.887283">
        <ele>1371.0</ele>
        <time>2015-03-14T14:41:31Z</time>
      </trkpt>
      <trkpt lat="40.252083" lon="-4.887150">
        <ele>1373.0</ele>
        <time>2015-03-14T14:41:32Z</time>
      </trkpt>
      <trkpt lat="40.252100" lon="-4.887033">
        <ele>1376.0</ele>
        <time>2015-03-14T14:41:33Z</time>
      </trkpt>
      <trkpt lat="40.252133" lon="-4.886917">
        <ele>1380.0</ele>
        <time>2015-03-14T14:41:34Z</time>
      </trkpt>
      <trkpt lat="40.252183" lon="-4.886800">
        <ele>1383.0</ele>
        <time>2015-03-14T14:41:35Z</time>
      </trkpt>
      <trkpt lat="40.252233" lon="-4.886700">
        <ele>1386.0</ele>
        <time>2015-03-14T14:41:36Z</time>
      </trkpt>
      <trkpt lat="40.252283" lon="-4.886583">
        <ele>1389.0</ele>
        <time>2015-03-14T14:41:37Z</time>
      </trkpt>
      <trkpt lat="40.252317" lon="-4.886483">
        <ele>1392.0</ele>
        <time>2015-03-14T14:41:38Z</time>
      </trkpt>
      <trkpt lat="40.252333" lon="-4.886383">
        <ele>1394.0</ele>
        <time>2015-03-14T14:41:39Z</time>
      </trkpt>
      <trkpt lat="40.252350" lon="-4.886267">
        <ele>1396.0</ele>
        <time>2015-03-14T14:41:40Z</time>
      </trkpt>
      <trkpt lat="40.252333" lon="-4.886167">
        <ele>1397.0</ele>
        <time>2015-03-14T14:41:41Z</time>
      </trkpt>
      <trkpt lat="40.252283" lon="-4.886067">
        <ele>1398.0</ele>
        <time>2015-03-14T14:41:42Z</time>
      </trkpt>
      <trkpt lat="40.252217" lon="-4.885967">
        <ele>1399.0</ele>
        <time>2015-03-14T14:41:43Z</time>
      </trkpt>
      <trkpt lat="40.252133" lon="-4.885900">
        <ele>1401.0</ele>
        <time>2015-03-14T14:41:44Z</time>
      </trkpt>
      <trkpt lat="40.252050" lon="-4.885867">
        <ele>1405.0</ele>
        <time>2015-03-14T14:41:45Z</time>
      </trkpt>
      <trkpt lat="40.251983" lon="-4.885883">
        <ele>1408.0</ele>
        <time>2015-03-14T14:41:46Z</time>
      </trkpt>
      <trkpt lat="40.251917" lon="-4.885933">
        <ele>1410.0</ele>
        <time>2015-03-14T14:41:47Z</time>
      </trkpt>
      <trkpt lat="40.251867" lon="-4.886017">
        <ele>1411.0</ele>
        <time>2015-03-14T14:41:48Z</time>
      </trkpt>
      <trkpt lat="40.251817" lon="-4.886100">
        <ele>1411.0</ele>
        <time>2015-03-14T14:41:49Z</time>
      </trkpt>
      <trkpt lat="40.251767" lon="-4.886217">
        <ele>1412.0</ele>
        <time>2015-03-14T14:41:50Z</time>
      </trkpt>
      <trkpt lat="40.251733" lon="-4.886350">
        <ele>1413.0</ele>
        <time>2015-03-14T14:41:51Z</time>
      </trkpt>
      <trkpt lat="40.251750" lon="-4.886500">
        <ele>1415.0</ele>
        <time>2015-03-14T14:41:52Z</time>
      </trkpt>
      <trkpt lat="40.251800" lon="-4.886633">
        <ele>1415.0</ele>
        <time>2015-03-14T14:41:53Z</time>
      </trkpt>
      <trkpt lat="40.251883" lon="-4.886733">
        <ele>1417.0</ele>
        <time>2015-03-14T14:41:54Z</time>
      </trkpt>
      <trkpt lat="40.251967" lon="-4.886800">
        <ele>1419.0</ele>
        <time>2015-03-14T14:41:55Z</time>
      </trkpt>
      <trkpt lat="40.252067" lon="-4.886867">
        <ele>1421.0</ele>
        <time>2015-03-14T14:41:56Z</time>
      </trkpt>
      <trkpt lat="40.252167" lon="-4.886933">
        <ele>1424.0</ele>
        <time>2015-03-14T14:41:57Z</time>
      </trkpt>
      <trkpt lat="40.252250" lon="-4.886983">
        <ele>1427.0</ele>
        <time>2015-03-14T14:41:58Z</time>
      </trkpt>
      <trkpt lat="40.252350" lon="-4.887017">
        <ele>1429.0</ele>
        <time>2015-03-14T14:41:59Z</time>
      </trkpt>
      <trkpt lat="40.252450" lon="-4.887033">
        <ele>1432.0</ele>
        <time>2015-03-14T14:42:00Z</time>
      </trkpt>
      <trkpt lat="40.252533" lon="-4.887017">
        <ele>1435.0</ele>
        <time>2015-03-14T14:42:01Z</time>
      </trkpt>
      <trkpt lat="40.252617" lon="-4.886983">
        <ele>1438.0</ele>
        <time>2015-03-14T14:42:02Z</time>
      </trkpt>
      <trkpt lat="40.252700" lon="-4.886933">
        <ele>1439.0</ele>
        <time>2015-03-14T14:42:03Z</time>
      </trkpt>
      <trkpt lat="40.252750" lon="-4.886883">
        <ele>1440.0</ele>
        <time>2015-03-14T14:42:04Z</time>
      </trkpt>
      <trkpt lat="40.252817" lon="-4.886817">
        <ele>1440.0</ele>
        <time>2015-03-14T14:42:05Z</time>
      </trkpt>
      <trkpt lat="40.252883" lon="-4.886733">
        <ele>1439.0</ele>
        <time>2015-03-14T14:42:06Z</time>
      </trkpt>
      <trkpt lat="40.252933" lon="-4.886633">
        <ele>1438.0</ele>
        <time>2015-03-14T14:42:07Z</time>
      </trkpt>
      <trkpt lat="40.252967" lon="-4.886533">
        <ele>1438.0</ele>
        <time>2015-03-14T14:42:08Z</time>
      </trkpt>
      <trkpt lat="40.252983" lon="-4.886417">
        <ele>1438.0</ele>
        <time>2015-03-14T14:42:09Z</time>
      </trkpt>
      <trkpt lat="40.252983" lon="-4.886283">
        <ele>1438.0</ele>
        <time>2015-03-14T14:42:10Z</time>
      </trkpt>
      <trkpt lat="40.252967" lon="-4.886183">
        <ele>1438.0</ele>
        <time>2015-03-14T14:42:11Z</time>
      </trkpt>
      <trkpt lat="40.252933" lon="-4.886067">
        <ele>1437.0</ele>
        <time>2015-03-14T14:42:12Z</time>
      </trkpt>
      <trkpt lat="40.252883" lon="-4.885967">
        <ele>1437.0</ele>
        <time>2015-03-14T14:42:13Z</time>
      </trkpt>
      <trkpt lat="40.252833" lon="-4.885883">
        <ele>1436.0</ele>
        <time>2015-03-14T14:42:14Z</time>
      </trkpt>
      <trkpt lat="40.252750" lon="-4.885800">
        <ele>1435.0</ele>
        <time>2015-03-14T14:42:15Z</time>
      </trkpt>
      <trkpt lat="40.252650" lon="-4.885750">
        <ele>1434.0</ele>
        <time>2015-03-14T14:42:16Z</time>
      </trkpt>
      <trkpt lat="40.252550" lon="-4.885733">
        <ele>1433.0</ele>
        <time>2015-03-14T14:42:17Z</time>
      </trkpt>
      <trkpt lat="40.252450" lon="-4.885733">
        <ele>1434.0</ele>
        <time>2015-03-14T14:42:18Z</time>
      </trkpt>
      <trkpt lat="40.252350" lon="-4.885767">
        <ele>1437.0</ele>
        <time>2015-03-14T14:42:19Z</time>
      </trkpt>
      <trkpt lat="40.252283" lon="-4.885800">
        <ele>1440.0</ele>
        <time>2015-03-14T14:42:20Z</time>
      </trkpt>
      <trkpt lat="40.252200" lon="-4.885833">
        <ele>1443.0</ele>
        <time>2015-03-14T14:42:21Z</time>
      </trkpt>
      <trkpt lat="40.252133" lon="-4.885867">
        <ele>1446.0</ele>
        <time>2015-03-14T14:42:22Z</time>
      </trkpt>
      <trkpt lat="40.252067" lon="-4.885917">
        <ele>1449.0</ele>
        <time>2015-03-14T14:42:23Z</time>
      </trkpt>
      <trkpt lat="40.252017" lon="-4.885983">
        <ele>1450.0</ele>
        <time>2015-03-14T14:42:24Z</time>
      </trkpt>
      <trkpt lat="40.251967" lon="-4.886100">
        <ele>1452.0</ele>
        <time>2015-03-14T14:42:25Z</time>
      </trkpt>
      <trkpt lat="40.251950" lon="-4.886200">
        <ele>1454.0</ele>
        <time>2015-03-14T14:42:26Z</time>
      </trkpt>
      <trkpt lat="40.251917" lon="-4.886317">
        <ele>1457.0</ele>
        <time>2015-03-14T14:42:27Z</time>
      </trkpt>
      <trkpt lat="40.251933" lon="-4.886433">
        <ele>1461.0</ele>
        <time>2015-03-14T14:42:28Z</time>
      </trkpt>
      <trkpt lat="40.251950" lon="-4.886533">
        <ele>1464.0</ele>
        <time>2015-03-14T14:42:29Z</time>
      </trkpt>
      <trkpt lat="40.252000" lon="-4.886617">
        <ele>1467.0</ele>
        <time>2015-03-14T14:42:30Z</time>
      </trkpt>
      <trkpt lat="40.252083" lon="-4.886683">
        <ele>1469.0</ele>
        <time>2015-03-14T14:42:31Z</time>
      </trkpt>
      <trkpt lat="40.252167" lon="-4.886717">
        <ele>1470.0</ele>
        <time>2015-03-14T14:42:32Z</time>
      </trkpt>
      <trkpt lat="40.252283" lon="-4.886717">
        <ele>1472.0</ele>
        <time>2015-03-14T14:42:33Z</time>
      </trkpt>
      <trkpt lat="40.252383" lon="-4.886683">
        <ele>1475.0</ele>
        <time>2015-03-14T14:42:34Z</time>
      </trkpt>
      <trkpt lat="40.252483" lon="-4.886600">
        <ele>1478.0</ele>
        <time>2015-03-14T14:42:35Z</time>
      </trkpt>
      <trkpt lat="40.252533" lon="-4.886483">
        <ele>1480.0</ele>
        <time>2015-03-14T14:42:36Z</time>
      </trkpt>
      <trkpt lat="40.252550" lon="-4.886350">
        <ele>1482.0</ele>
        <time>2015-03-14T14:42:37Z</time>
      </trkpt>
      <trkpt lat="40.252567" lon="-4.886217">
        <ele>1483.0</ele>
        <time>2015-03-14T14:42:38Z</time>
      </trkpt>
      <trkpt lat="40.252567" lon="-4.886100">
        <ele>1484.0</ele>
        <time>2015-03-14T14:42:39Z</time>
      </trkpt>
      <trkpt lat="40.252550" lon="-4.885967">
        <ele>1484.0</ele>
        <time>2015-03-14T14:42:40Z</time>
      </trkpt>
      <trkpt lat="40.252500" lon="-4.885833">
        <ele>1485.0</ele>
        <time>2015-03-14T14:42:41Z</time>
      </trkpt>
      <trkpt lat="40.252400" lon="-4.885733">
        <ele>1484.0</ele>
        <time>2015-03-14T14:42:42Z</time>
      </trkpt>
      <trkpt lat="40.252300" lon="-4.885683">
        <ele>1485.0</ele>
        <time>2015-03-14T14:42:43Z</time>
      </trkpt>
      <trkpt lat="40.252183" lon="-4.885683">
        <ele>1487.0</ele>
        <time>2015-03-14T14:42:44Z</time>
      </trkpt>
      <trkpt lat="40.252083" lon="-4.885700">
        <ele>1491.0</ele>
        <time>2015-03-14T14:42:45Z</time>
      </trkpt>
      <trkpt lat="40.252000" lon="-4.885700">
        <ele>1494.0</ele>
        <time>2015-03-14T14:42:46Z</time>
      </trkpt>
      <trkpt lat="40.251917" lon="-4.885700">
        <ele>1497.0</ele>
        <time>2015-03-14T14:42:47Z</time>
      </trkpt>
      <trkpt lat="40.251850" lon="-4.885717">
        <ele>1498.0</ele>
        <time>2015-03-14T14:42:48Z</time>
      </trkpt>
      <trkpt lat="40.251767" lon="-4.885733">
        <ele>1498.0</ele>
        <time>2015-03-14T14:42:49Z</time>
      </trkpt>
      <trkpt lat="40.251667" lon="-4.885767">
        <ele>1497.0</ele>
        <time>2015-03-14T14:42:50Z</time>
      </trkpt>
      <trkpt lat="40.251583" lon="-4.885850">
        <ele>1498.0</ele>
        <time>2015-03-14T14:42:51Z</time>
      </trkpt>
      <trkpt lat="40.251500" lon="-4.885967">
        <ele>1500.0</ele>
        <time>2015-03-14T14:42:52Z</time>
      </trkpt>
      <trkpt lat="40.251450" lon="-4.886083">
        <ele>1504.0</ele>
        <time>2015-03-14T14:42:53Z</time>
      </trkpt>
      <trkpt lat="40.251433" lon="-4.886217">
        <ele>1507.0</ele>
        <time>2015-03-14T14:42:54Z</time>
      </trkpt>
      <trkpt lat="40.251433" lon="-4.886333">
        <ele>1510.0</ele>
        <time>2015-03-14T14:42:55Z</time>
      </trkpt>
      <trkpt lat="40.251450" lon="-4.886467">
        <ele>1513.0</ele>
        <time>2015-03-14T14:42:56Z</time>
      </trkpt>
      <trkpt lat="40.251483" lon="-4.886600">
        <ele>1516.0</ele>
        <time>2015-03-14T14:42:57Z</time>
      </trkpt>
      <trkpt lat="40.251517" lon="-4.886733">
        <ele>1519.0</ele>
        <time>2015-03-14T14:42:58Z</time>
      </trkpt>
      <trkpt lat="40.251550" lon="-4.886850">
        <ele>1521.0</ele>
        <time>2015-03-14T14:42:59Z</time>
      </trkpt>
      <trkpt lat="40.251600" lon="-4.886950">
        <ele>1522.0</ele>
        <time>2015-03-14T14:43:00Z</time>
      </trkpt>
      <trkpt lat="40.251667" lon="-4.887017">
        <ele>1522.0</ele>
        <time>2015-03-14T14:43:01Z</time>
      </trkpt>
      <trkpt lat="40.251767" lon="-4.887050">
        <ele>1522.0</ele>
        <time>2015-03-14T14:43:02Z</time>
      </trkpt>
      <trkpt lat="40.251883" lon="-4.887067">
        <ele>1524.0</ele>
        <time>2015-03-14T14:43:03Z</time>
      </trkpt>
      <trkpt lat="40.251983" lon="-4.887067">
        <ele>1526.0</ele>
        <time>2015-03-14T14:43:04Z</time>
      </trkpt>
      <trkpt lat="40.252083" lon="-4.887033">
        <ele>1531.0</ele>
        <time>2015-03-14T14:43:05Z</time>
      </trkpt>
      <trkpt lat="40.252167" lon="-4.887000">
        <ele>1535.0</ele>
        <time>2015-03-14T14:43:06Z</time>
      </trkpt>
      <trkpt lat="40.252217" lon="-4.886967">
        <ele>1538.0</ele>
        <time>2015-03-14T14:43:07Z</time>
      </trkpt>
      <trkpt lat="40.252283" lon="-4.886900">
        <ele>1539.0</ele>
        <time>2015-03-14T14:43:08Z</time>
      </trkpt>
      <trkpt lat="40.252333" lon="-4.886850">
        <ele>1539.0</ele>
        <time>2015-03-14T14:43:09Z</time>
      </trkpt>
      <trkpt lat="40.252417" lon="-4.886783">
        <ele>1539.0</ele>
        <time>2015-03-14T14:43:10Z</time>
      </trkpt>
      <trkpt lat="40.252467" lon="-4.886700">
        <ele>1539.0</ele>
        <time>2015-03-14T14:43:11Z</time>
      </trkpt>
      <trkpt lat="40.252517" lon="-4.886617">
        <ele>1539.0</ele>
        <time>2015-03-14T14:43:12Z</time>
      </trkpt>
      <trkpt lat="40.252517" lon="-4.886500">
        <ele>1538.0</ele>
        <time>2015-03-14T14:43:13Z</time>
      </trkpt>
      <trkpt lat="40.252483" lon="-4.886383">
        <ele>1535.0</ele>
        <time>2015-03-14T14:43:14Z</time>
      </trkpt>
      <trkpt lat="40.252417" lon="-4.886300">
        <ele>1533.0</ele>
        <time>2015-03-14T14:43:15Z</time>
      </trkpt>
      <trkpt lat="40.252317" lon="-4.886233">
        <ele>1531.0</ele>
        <time>2015-03-14T14:43:16Z</time>
      </trkpt>
      <trkpt lat="40.252233" lon="-4.886200">
        <ele>1530.0</ele>
        <time>2015-03-14T14:43:17Z</time>
      </trkpt>
      <trkpt lat="40.252133" lon="-4.886167">
        <ele>1528.0</ele>
        <time>2015-03-14T14:43:18Z</time>
      </trkpt>
      <trkpt lat="40.252017" lon="-4.886150">
        <ele>1526.0</ele>
        <time>2015-03-14T14:43:19Z</time>
      </trkpt>
      <trkpt lat="40.251900" lon="-4.886150">
        <ele>1525.0</ele>
        <time>2015-03-14T14:43:20Z</time>
      </trkpt>
      <trkpt lat="40.251783" lon="-4.886183">
        <ele>1527.0</ele>
        <time>2015-03-14T14:43:21Z</time>
      </trkpt>
      <trkpt lat="40.251667" lon="-4.886250">
        <ele>1531.0</ele>
        <time>2015-03-14T14:43:22Z</time>
      </trkpt>
      <trkpt lat="40.251600" lon="-4.886317">
        <ele>1536.0</ele>
        <time>2015-03-14T14:43:23Z</time>
      </trkpt>
      <trkpt lat="40.251550" lon="-4.886367">
        <ele>1540.0</ele>
        <time>2015-03-14T14:43:24Z</time>
      </trkpt>
      <trkpt lat="40.251483" lon="-4.886400">
        <ele>1542.0</ele>
        <time>2015-03-14T14:43:25Z</time>
      </trkpt>
      <trkpt lat="40.251417" lon="-4.886433">
        <ele>1543.0</ele>
        <time>2015-03-14T14:43:26Z</time>
      </trkpt>
      <trkpt lat="40.251350" lon="-4.886500">
        <ele>1543.0</ele>
        <time>2015-03-14T14:43:27Z</time>
      </trkpt>
      <trkpt lat="40.251300" lon="-4.886600">
        <ele>1543.0</ele>
        <time>2015-03-14T14:43:28Z</time>
      </trkpt>
      <trkpt lat="40.251250" lon="-4.886717">
        <ele>1544.0</ele>
        <time>2015-03-14T14:43:29Z</time>
      </trkpt>
      <trkpt lat="40.251250" lon="-4.886850">
        <ele>1544.0</ele>
        <time>2015-03-14T14:43:30Z</time>
      </trkpt>
      <trkpt lat="40.251267" lon="-4.886983">
        <ele>1545.0</ele>
        <time>2015-03-14T14:43:31Z</time>
      </trkpt>
      <trkpt lat="40.251317" lon="-4.887067">
        <ele>1546.0</ele>
        <time>2015-03-14T14:43:32Z</time>
      </trkpt>
      <trkpt lat="40.251367" lon="-4.887133">
        <ele>1548.0</ele>
        <time>2015-03-14T14:43:33Z</time>
      </trkpt>
      <trkpt lat="40.251433" lon="-4.887167">
        <ele>1550.0</ele>
        <time>2015-03-14T14:43:34Z</time>
      </trkpt>
      <trkpt lat="40.251483" lon="-4.887183">
        <ele>1553.0</ele>
        <time>2015-03-14T14:43:35Z</time>
      </trkpt>
      <trkpt lat="40.251550" lon="-4.887183">
        <ele>1554.0</ele>
        <time>2015-03-14T14:43:36Z</time>
      </trkpt>
      <trkpt lat="40.251617" lon="-4.887183">
        <ele>1556.0</ele>
        <time>2015-03-14T14:43:37Z</time>
      </trkpt>
      <trkpt lat="40.251683" lon="-4.887150">
        <ele>1556.0</ele>
        <time>2015-03-14T14:43:38Z</time>
      </trkpt>
      <trkpt lat="40.251767" lon="-4.887100">
        <ele>1558.0</ele>
        <time>2015-03-14T14:43:39Z</time>
      </trkpt>
      <trkpt lat="40.251833" lon="-4.887033">
        <ele>1559.0</ele>
        <time>2015-03-14T14:43:40Z</time>
      </trkpt>
      <trkpt lat="40.251883" lon="-4.886950">
        <ele>1559.0</ele>
        <time>2015-03-14T14:43:41Z</time>
      </trkpt>
      <trkpt lat="40.251933" lon="-4.886850">
        <ele>1560.0</ele>
        <time>2015-03-14T14:43:42Z</time>
      </trkpt>
      <trkpt lat="40.251950" lon="-4.886767">
        <ele>1560.0</ele>
        <time>2015-03-14T14:43:43Z</time>
      </trkpt>
      <trkpt lat="40.251933" lon="-4.886667">
        <ele>1559.0</ele>
        <time>2015-03-14T14:43:44Z</time>
      </trkpt>
      <trkpt lat="40.251917" lon="-4.886583">
        <ele>1556.0</ele>
        <time>2015-03-14T14:43:45Z</time>
      </trkpt>
      <trkpt lat="40.251867" lon="-4.886500">
        <ele>1552.0</ele>
        <time>2015-03-14T14:43:46Z</time>
      </trkpt>
      <trkpt lat="40.251783" lon="-4.886433">
        <ele>1550.0</ele>
        <time>2015-03-14T14:43:47Z</time>
      </trkpt>
      <trkpt lat="40.251700" lon="-4.886367">
        <ele>1548.0</ele>
        <time>2015-03-14T14:43:48Z</time>
      </trkpt>
      <trkpt lat="40.251583" lon="-4.886350">
        <ele>1548.0</ele>
        <time>2015-03-14T14:43:49Z</time>
      </trkpt>
      <trkpt lat="40.251467" lon="-4.886367">
        <ele>1548.0</ele>
        <time>2015-03-14T14:43:50Z</time>
      </trkpt>
      <trkpt lat="40.251367" lon="-4.886417">
        <ele>1551.0</ele>
        <time>2015-03-14T14:43:51Z</time>
      </trkpt>
      <trkpt lat="40.251267" lon="-4.886467">
        <ele>1557.0</ele>
        <time>2015-03-14T14:43:52Z</time>
      </trkpt>
      <trkpt lat="40.251183" lon="-4.886517">
        <ele>1562.0</ele>
        <time>2015-03-14T14:43:53Z</time>
      </trkpt>
      <trkpt lat="40.251117" lon="-4.886550">
        <ele>1566.0</ele>
        <time>2015-03-14T14:43:54Z</time>
      </trkpt>
      <trkpt lat="40.251067" lon="-4.886600">
        <ele>1569.0</ele>
        <time>2015-03-14T14:43:55Z</time>
      </trkpt>
      <trkpt lat="40.251000" lon="-4.886650">
        <ele>1570.0</ele>
        <time>2015-03-14T14:43:56Z</time>
      </trkpt>
      <trkpt lat="40.250917" lon="-4.886700">
        <ele>1570.0</ele>
        <time>2015-03-14T14:43:57Z</time>
      </trkpt>
      <trkpt lat="40.250833" lon="-4.886767">
        <ele>1570.0</ele>
        <time>2015-03-14T14:43:58Z</time>
      </trkpt>
      <trkpt lat="40.250767" lon="-4.886850">
        <ele>1571.0</ele>
        <time>2015-03-14T14:43:59Z</time>
      </trkpt>
      <trkpt lat="40.250733" lon="-4.886950">
        <ele>1570.0</ele>
        <time>2015-03-14T14:44:00Z</time>
      </trkpt>
      <trkpt lat="40.250733" lon="-4.887067">
        <ele>1568.0</ele>
        <time>2015-03-14T14:44:01Z</time>
      </trkpt>
      <trkpt lat="40.250733" lon="-4.887200">
        <ele>1566.0</ele>
        <time>2015-03-14T14:44:02Z</time>
      </trkpt>
      <trkpt lat="40.250783" lon="-4.887317">
        <ele>1565.0</ele>
        <time>2015-03-14T14:44:03Z</time>
      </trkpt>
      <trkpt lat="40.250817" lon="-4.887450">
        <ele>1565.0</ele>
        <time>2015-03-14T14:44:04Z</time>
      </trkpt>
      <trkpt lat="40.250867" lon="-4.887583">
        <ele>1566.0</ele>
        <time>2015-03-14T14:44:05Z</time>
      </trkpt>
      <trkpt lat="40.250933" lon="-4.887717">
        <ele>1569.0</ele>
        <time>2015-03-14T14:44:06Z</time>
      </trkpt>
      <trkpt lat="40.250983" lon="-4.887817">
        <ele>1573.0</ele>
        <time>2015-03-14T14:44:07Z</time>
      </trkpt>
      <trkpt lat="40.251033" lon="-4.887883">
        <ele>1578.0</ele>
        <time>2015-03-14T14:44:08Z</time>
      </trkpt>
      <trkpt lat="40.251067" lon="-4.887917">
        <ele>1582.0</ele>
        <time>2015-03-14T14:44:09Z</time>
      </trkpt>
      <trkpt lat="40.251083" lon="-4.887967">
        <ele>1583.0</ele>
        <time>2015-03-14T14:44:10Z</time>
      </trkpt>
      <trkpt lat="40.251100" lon="-4.888033">
        <ele>1584.0</ele>
        <time>2015-03-14T14:44:11Z</time>
      </trkpt>
      <trkpt lat="40.251133" lon="-4.888100">
        <ele>1584.0</ele>
        <time>2015-03-14T14:44:12Z</time>
      </trkpt>
      <trkpt lat="40.251183" lon="-4.888167">
        <ele>1583.0</ele>
        <time>2015-03-14T14:44:13Z</time>
      </trkpt>
      <trkpt lat="40.251250" lon="-4.888217">
        <ele>1583.0</ele>
        <time>2015-03-14T14:44:14Z</time>
      </trkpt>
      <trkpt lat="40.251333" lon="-4.888233">
        <ele>1584.0</ele>
        <time>2015-03-14T14:44:15Z</time>
      </trkpt>
      <trkpt lat="40.251417" lon="-4.888217">
        <ele>1588.0</ele>
        <time>2015-03-14T14:44:16Z</time>
      </trkpt>
      <trkpt lat="40.251483" lon="-4.888217">
        <ele>1593.0</ele>
        <time>2015-03-14T14:44:17Z</time>
      </trkpt>
      <trkpt lat="40.251517" lon="-4.888233">
        <ele>1598.0</ele>
        <time>2015-03-14T14:44:18Z</time>
      </trkpt>
      <trkpt lat="40.251550" lon="-4.888233">
        <ele>1599.0</ele>
        <time>2015-03-14T14:44:19Z</time>
      </trkpt>
      <trkpt lat="40.251583" lon="-4.888233">
        <ele>1600.0</ele>
        <time>2015-03-14T14:44:20Z</time>
      </trkpt>
      <trkpt lat="40.251617" lon="-4.888200">
        <ele>1599.0</ele>
        <time>2015-03-14T14:44:21Z</time>
      </trkpt>
      <trkpt lat="40.251633" lon="-4.888167">
        <ele>1597.0</ele>
        <time>2015-03-14T14:44:22Z</time>
      </trkpt>
      <trkpt lat="40.251667" lon="-4.888117">
        <ele>1595.0</ele>
        <time>2015-03-14T14:44:23Z</time>
      </trkpt>
      <trkpt lat="40.251667" lon="-4.888050">
        <ele>1593.0</ele>
        <time>2015-03-14T14:44:24Z</time>
      </trkpt>
      <trkpt lat="40.251667" lon="-4.887967">
        <ele>1592.0</ele>
        <time>2015-03-14T14:44:25Z</time>
      </trkpt>
      <trkpt lat="40.251633" lon="-4.887883">
        <ele>1590.0</ele>
        <time>2015-03-14T14:44:26Z</time>
      </trkpt>
      <trkpt lat="40.251583" lon="-4.887800">
        <ele>1589.0</ele>
        <time>2015-03-14T14:44:27Z</time>
      </trkpt>
      <trkpt lat="40.251517" lon="-4.887733">
        <ele>1587.0</ele>
        <time>2015-03-14T14:44:28Z</time>
      </trkpt>
      <trkpt lat="40.251417" lon="-4.887667">
        <ele>1587.0</ele>
        <time>2015-03-14T14:44:29Z</time>
      </trkpt>
      <trkpt lat="40.251317" lon="-4.887633">
        <ele>1586.0</ele>
        <time>2015-03-14T14:44:30Z</time>
      </trkpt>
      <trkpt lat="40.251200" lon="-4.887617">
        <ele>1584.0</ele>
        <time>2015-03-14T14:44:31Z</time>
      </trkpt>
      <trkpt lat="40.251083" lon="-4.887617">
        <ele>1580.0</ele>
        <time>2015-03-14T14:44:32Z</time>
      </trkpt>
      <trkpt lat="40.250967" lon="-4.887633">
        <ele>1579.0</ele>
        <time>2015-03-14T14:44:33Z</time>
      </trkpt>
      <trkpt lat="40.250833" lon="-4.887683">
        <ele>1578.0</ele>
        <time>2015-03-14T14:44:34Z</time>
      </trkpt>
      <trkpt lat="40.250700" lon="-4.887750">
        <ele>1578.0</ele>
        <time>2015-03-14T14:44:35Z</time>
      </trkpt>
      <trkpt lat="40.250583" lon="-4.887833">
        <ele>1579.0</ele>
        <time>2015-03-14T14:44:36Z</time>
      </trkpt>
      <trkpt lat="40.250500" lon="-4.887933">
        <ele>1581.0</ele>
        <time>2015-03-14T14:44:37Z</time>
      </trkpt>
      <trkpt lat="40.250417" lon="-4.888033">
        <ele>1582.0</ele>
        <time>2015-03-14T14:44:38Z</time>
      </trkpt>
      <trkpt lat="40.250367" lon="-4.888150">
        <ele>1581.0</ele>
        <time>2015-03-14T14:44:39Z</time>
      </trkpt>
      <trkpt lat="40.250367" lon="-4.888283">
        <ele>1579.0</ele>
        <time>2015-03-14T14:44:40Z</time>
      </trkpt>
      <trkpt lat="40.250367" lon="-4.888417">
        <ele>1577.0</ele>
        <time>2015-03-14T14:44:41Z</time>
      </trkpt>
      <trkpt lat="40.250383" lon="-4.888567">
        <ele>1575.0</ele>
        <time>2015-03-14T14:44:42Z</time>
      </trkpt>
      <trkpt lat="40.250417" lon="-4.888717">
        <ele>1574.0</ele>
        <time>2015-03-14T14:44:43Z</time>
      </trkpt>
      <trkpt lat="40.250467" lon="-4.888850">
        <ele>1575.0</ele>
        <time>2015-03-14T14:44:44Z</time>
      </trkpt>
      <trkpt lat="40.250517" lon="-4.888983">
        <ele>1575.0</ele>
        <time>2015-03-14T14:44:45Z</time>
      </trkpt>
      <trkpt lat="40.250583" lon="-4.889100">
        <ele>1576.0</ele>
        <time>2015-03-14T14:44:46Z</time>
      </trkpt>
      <trkpt lat="40.250650" lon="-4.889200">
        <ele>1576.0</ele>
        <time>2015-03-14T14:44:47Z</time>
      </trkpt>
      <trkpt lat="40.250733" lon="-4.889267">
        <ele>1577.0</ele>
        <time>2015-03-14T14:44:48Z</time>
      </trkpt>
      <trkpt lat="40.250833" lon="-4.889333">
        <ele>1578.0</ele>
        <time>2015-03-14T14:44:49Z</time>
      </trkpt>
      <trkpt lat="40.250917" lon="-4.889367">
        <ele>1579.0</ele>
        <time>2015-03-14T14:44:50Z</time>
      </trkpt>
      <trkpt lat="40.251000" lon="-4.889400">
        <ele>1580.0</ele>
        <time>2015-03-14T14:44:51Z</time>
      </trkpt>
      <trkpt lat="40.251067" lon="-4.889417">
        <ele>1581.0</ele>
        <time>2015-03-14T14:44:52Z</time>
      </trkpt>
      <trkpt lat="40.251133" lon="-4.889417">
        <ele>1582.0</ele>
        <time>2015-03-14T14:44:53Z</time>
      </trkpt>
      <trkpt lat="40.251183" lon="-4.889400">
        <ele>1582.0</ele>
        <time>2015-03-14T14:44:54Z</time>
      </trkpt>
      <trkpt lat="40.251217" lon="-4.889367">
        <ele>1581.0</ele>
        <time>2015-03-14T14:44:55Z</time>
      </trkpt>
      <trkpt lat="40.251250" lon="-4.889333">
        <ele>1580.0</ele>
        <time>2015-03-14T14:44:56Z</time>
      </trkpt>
      <trkpt lat="40.251267" lon="-4.889283">
        <ele>1578.0</ele>
        <time>2015-03-14T14:44:57Z</time>
      </trkpt>
      <trkpt lat="40.251267" lon="-4.889200">
        <ele>1577.0</ele>
        <time>2015-03-14T14:44:58Z</time>
      </trkpt>
      <trkpt lat="40.251250" lon="-4.889117">
        <ele>1575.0</ele>
        <time>2015-03-14T14:44:59Z</time>
      </trkpt>
      <trkpt lat="40.251217" lon="-4.889017">
        <ele>1573.0</ele>
        <time>2015-03-14T14:45:00Z</time>
      </trkpt>
      <trkpt lat="40.251183" lon="-4.888933">
        <ele>1571.0</ele>
        <time>2015-03-14T14:45:01Z</time>
      </trkpt>
      <trkpt lat="40.251117" lon="-4.888850">
        <ele>1569.0</ele>
        <time>2015-03-14T14:45:02Z</time>
      </trkpt>
      <trkpt lat="40.251033" lon="-4.888783">
        <ele>1567.0</ele>
        <time>2015-03-14T14:45:03Z</time>
      </trkpt>
      <trkpt lat="40.250950" lon="-4.888717">
        <ele>1564.0</ele>
        <time>2015-03-14T14:45:04Z</time>
      </trkpt>
      <trkpt lat="40.250850" lon="-4.888667">
        <ele>1563.0</ele>
        <time>2015-03-14T14:45:05Z</time>
      </trkpt>
      <trkpt lat="40.250733" lon="-4.888633">
        <ele>1560.0</ele>
        <time>2015-03-14T14:45:06Z</time>
      </trkpt>
      <trkpt lat="40.250617" lon="-4.888617">
        <ele>1558.0</ele>
        <time>2015-03-14T14:45:07Z</time>
      </trkpt>
      <trkpt lat="40.250500" lon="-4.888600">
        <ele>1556.0</ele>
        <time>2015-03-14T14:45:08Z</time>
      </trkpt>
      <trkpt lat="40.250383" lon="-4.888617">
        <ele>1554.0</ele>
        <time>2015-03-14T14:45:09Z</time>
      </trkpt>
      <trkpt lat="40.250300" lon="-4.888717">
        <ele>1552.0</ele>
        <time>2015-03-14T14:45:10Z</time>
      </trkpt>
      <trkpt lat="40.250233" lon="-4.888883">
        <ele>1552.0</ele>
        <time>2015-03-14T14:45:11Z</time>
      </trkpt>
      <trkpt lat="40.250217" lon="-4.889067">
        <ele>1554.0</ele>
        <time>2015-03-14T14:45:12Z</time>
      </trkpt>
      <trkpt lat="40.250217" lon="-4.889183">
        <ele>1557.0</ele>
        <time>2015-03-14T14:45:13Z</time>
      </trkpt>
      <trkpt lat="40.250200" lon="-4.889300">
        <ele>1559.0</ele>
        <time>2015-03-14T14:45:14Z</time>
      </trkpt>
      <trkpt lat="40.250183" lon="-4.889400">
        <ele>1558.0</ele>
        <time>2015-03-14T14:45:15Z</time>
      </trkpt>
      <trkpt lat="40.250150" lon="-4.889500">
        <ele>1556.0</ele>
        <time>2015-03-14T14:45:16Z</time>
      </trkpt>
      <trkpt lat="40.250133" lon="-4.889650">
        <ele>1554.0</ele>
        <time>2015-03-14T14:45:17Z</time>
      </trkpt>
      <trkpt lat="40.250133" lon="-4.889783">
        <ele>1553.0</ele>
        <time>2015-03-14T14:45:18Z</time>
      </trkpt>
      <trkpt lat="40.250117" lon="-4.889917">
        <ele>1555.0</ele>
        <time>2015-03-14T14:45:19Z</time>
      </trkpt>
      <trkpt lat="40.250100" lon="-4.890033">
        <ele>1557.0</ele>
        <time>2015-03-14T14:45:20Z</time>
      </trkpt>
      <trkpt lat="40.250067" lon="-4.890150">
        <ele>1559.0</ele>
        <time>2015-03-14T14:45:21Z</time>
      </trkpt>
      <trkpt lat="40.250067" lon="-4.890250">
        <ele>1560.0</ele>
        <time>2015-03-14T14:45:22Z</time>
      </trkpt>
      <trkpt lat="40.250067" lon="-4.890367">
        <ele>1561.0</ele>
        <time>2015-03-14T14:45:23Z</time>
      </trkpt>
      <trkpt lat="40.250067" lon="-4.890467">
        <ele>1563.0</ele>
        <time>2015-03-14T14:45:24Z</time>
      </trkpt>
      <trkpt lat="40.250067" lon="-4.890583">
        <ele>1564.0</ele>
        <time>2015-03-14T14:45:25Z</time>
      </trkpt>
      <trkpt lat="40.250067" lon="-4.890683">
        <ele>1565.0</ele>
        <time>2015-03-14T14:45:26Z</time>
      </trkpt>
      <trkpt lat="40.250067" lon="-4.890800">
        <ele>1566.0</ele>
        <time>2015-03-14T14:45:27Z</time>
      </trkpt>
      <trkpt lat="40.250100" lon="-4.890933">
        <ele>1568.0</ele>
        <time>2015-03-14T14:45:28Z</time>
      </trkpt>
      <trkpt lat="40.250183" lon="-4.891017">
        <ele>1570.0</ele>
        <time>2015-03-14T14:45:29Z</time>
      </trkpt>
      <trkpt lat="40.250267" lon="-4.891067">
        <ele>1572.0</ele>
        <time>2015-03-14T14:45:30Z</time>
      </trkpt>
      <trkpt lat="40.250350" lon="-4.891067">
        <ele>1574.0</ele>
        <time>2015-03-14T14:45:31Z</time>
      </trkpt>
      <trkpt lat="40.250417" lon="-4.891000">
        <ele>1574.0</ele>
        <time>2015-03-14T14:45:32Z</time>
      </trkpt>
      <trkpt lat="40.250433" lon="-4.890917">
        <ele>1574.0</ele>
        <time>2015-03-14T14:45:33Z</time>
      </trkpt>
      <trkpt lat="40.250433" lon="-4.890850">
        <ele>1575.0</ele>
        <time>2015-03-14T14:45:34Z</time>
      </trkpt>
      <trkpt lat="40.250433" lon="-4.890783">
        <ele>1576.0</ele>
        <time>2015-03-14T14:45:35Z</time>
      </trkpt>
      <trkpt lat="40.250433" lon="-4.890733">
        <ele>1575.0</ele>
        <time>2015-03-14T14:45:36Z</time>
      </trkpt>
      <trkpt lat="40.250417" lon="-4.890667">
        <ele>1573.0</ele>
        <time>2015-03-14T14:45:37Z</time>
      </trkpt>
      <trkpt lat="40.250400" lon="-4.890600">
        <ele>1570.0</ele>
        <time>2015-03-14T14:45:38Z</time>
      </trkpt>
      <trkpt lat="40.250383" lon="-4.890517">
        <ele>1568.0</ele>
        <time>2015-03-14T14:45:39Z</time>
      </trkpt>
      <trkpt lat="40.250333" lon="-4.890417">
        <ele>1566.0</ele>
        <time>2015-03-14T14:45:40Z</time>
      </trkpt>
      <trkpt lat="40.250267" lon="-4.890350">
        <ele>1565.0</ele>
        <time>2015-03-14T14:45:41Z</time>
      </trkpt>
      <trkpt lat="40.250183" lon="-4.890283">
        <ele>1564.0</ele>
        <time>2015-03-14T14:45:42Z</time>
      </trkpt>
      <trkpt lat="40.250100" lon="-4.890250">
        <ele>1563.0</ele>
        <time>2015-03-14T14:45:43Z</time>
      </trkpt>
      <trkpt lat="40.250000" lon="-4.890217">
        <ele>1561.0</ele>
        <time>2015-03-14T14:45:44Z</time>
      </trkpt>
      <trkpt lat="40.249900" lon="-4.890200">
        <ele>1560.0</ele>
        <time>2015-03-14T14:45:45Z</time>
      </trkpt>
      <trkpt lat="40.249800" lon="-4.890200">
        <ele>1559.0</ele>
        <time>2015-03-14T14:45:46Z</time>
      </trkpt>
      <trkpt lat="40.249700" lon="-4.890233">
        <ele>1557.0</ele>
        <time>2015-03-14T14:45:47Z</time>
      </trkpt>
      <trkpt lat="40.249583" lon="-4.890300">
        <ele>1555.0</ele>
        <time>2015-03-14T14:45:48Z</time>
      </trkpt>
      <trkpt lat="40.249483" lon="-4.890383">
        <ele>1555.0</ele>
        <time>2015-03-14T14:45:49Z</time>
      </trkpt>
      <trkpt lat="40.249383" lon="-4.890500">
        <ele>1557.0</ele>
        <time>2015-03-14T14:45:50Z</time>
      </trkpt>
      <trkpt lat="40.249317" lon="-4.890633">
        <ele>1559.0</ele>
        <time>2015-03-14T14:45:51Z</time>
      </trkpt>
      <trkpt lat="40.249250" lon="-4.890750">
        <ele>1562.0</ele>
        <time>2015-03-14T14:45:52Z</time>
      </trkpt>
      <trkpt lat="40.249183" lon="-4.890883">
        <ele>1565.0</ele>
        <time>2015-03-14T14:45:53Z</time>
      </trkpt>
      <trkpt lat="40.249150" lon="-4.891000">
        <ele>1567.0</ele>
        <time>2015-03-14T14:45:54Z</time>
      </trkpt>
      <trkpt lat="40.249150" lon="-4.891100">
        <ele>1569.0</ele>
        <time>2015-03-14T14:45:55Z</time>
      </trkpt>
      <trkpt lat="40.249150" lon="-4.891200">
        <ele>1570.0</ele>
        <time>2015-03-14T14:45:56Z</time>
      </trkpt>
      <trkpt lat="40.249150" lon="-4.891317">
        <ele>1572.0</ele>
        <time>2015-03-14T14:45:57Z</time>
      </trkpt>
      <trkpt lat="40.249183" lon="-4.891433">
        <ele>1575.0</ele>
        <time>2015-03-14T14:45:58Z</time>
      </trkpt>
      <trkpt lat="40.249217" lon="-4.891533">
        <ele>1579.0</ele>
        <time>2015-03-14T14:45:59Z</time>
      </trkpt>
      <trkpt lat="40.249267" lon="-4.891600">
        <ele>1583.0</ele>
        <time>2015-03-14T14:46:00Z</time>
      </trkpt>
      <trkpt lat="40.249300" lon="-4.891683">
        <ele>1586.0</ele>
        <time>2015-03-14T14:46:01Z</time>
      </trkpt>
      <trkpt lat="40.249333" lon="-4.891783">
        <ele>1588.0</ele>
        <time>2015-03-14T14:46:02Z</time>
      </trkpt>
      <trkpt lat="40.249383" lon="-4.891883">
        <ele>1589.0</ele>
        <time>2015-03-14T14:46:03Z</time>
      </trkpt>
      <trkpt lat="40.249433" lon="-4.892000">
        <ele>1591.0</ele>
        <time>2015-03-14T14:46:04Z</time>
      </trkpt>
      <trkpt lat="40.249467" lon="-4.892100">
        <ele>1593.0</ele>
        <time>2015-03-14T14:46:05Z</time>
      </trkpt>
      <trkpt lat="40.249517" lon="-4.892183">
        <ele>1596.0</ele>
        <time>2015-03-14T14:46:06Z</time>
      </trkpt>
      <trkpt lat="40.249567" lon="-4.892250">
        <ele>1597.0</ele>
        <time>2015-03-14T14:46:07Z</time>
      </trkpt>
      <trkpt lat="40.249633" lon="-4.892300">
        <ele>1597.0</ele>
        <time>2015-03-14T14:46:08Z</time>
      </trkpt>
      <trkpt lat="40.249717" lon="-4.892317">
        <ele>1596.0</ele>
        <time>2015-03-14T14:46:09Z</time>
      </trkpt>
      <trkpt lat="40.249783" lon="-4.892300">
        <ele>1597.0</ele>
        <time>2015-03-14T14:46:10Z</time>
      </trkpt>
      <trkpt lat="40.249850" lon="-4.892250">
        <ele>1598.0</ele>
        <time>2015-03-14T14:46:11Z</time>
      </trkpt>
      <trkpt lat="40.249883" lon="-4.892183">
        <ele>1598.0</ele>
        <time>2015-03-14T14:46:12Z</time>
      </trkpt>
      <trkpt lat="40.249867" lon="-4.892083">
        <ele>1598.0</ele>
        <time>2015-03-14T14:46:13Z</time>
      </trkpt>
      <trkpt lat="40.249833" lon="-4.891967">
        <ele>1598.0</ele>
        <time>2015-03-14T14:46:14Z</time>
      </trkpt>
      <trkpt lat="40.249750" lon="-4.891883">
        <ele>1598.0</ele>
        <time>2015-03-14T14:46:15Z</time>
      </trkpt>
      <trkpt lat="40.249667" lon="-4.891817">
        <ele>1598.0</ele>
        <time>2015-03-14T14:46:16Z</time>
      </trkpt>
      <trkpt lat="40.249567" lon="-4.891767">
        <ele>1598.0</ele>
        <time>2015-03-14T14:46:17Z</time>
      </trkpt>
      <trkpt lat="40.249433" lon="-4.891750">
        <ele>1596.0</ele>
        <time>2015-03-14T14:46:18Z</time>
      </trkpt>
      <trkpt lat="40.249300" lon="-4.891750">
        <ele>1595.0</ele>
        <time>2015-03-14T14:46:19Z</time>
      </trkpt>
      <trkpt lat="40.249167" lon="-4.891800">
        <ele>1594.0</ele>
        <time>2015-03-14T14:46:20Z</time>
      </trkpt>
      <trkpt lat="40.249033" lon="-4.891867">
        <ele>1593.0</ele>
        <time>2015-03-14T14:46:21Z</time>
      </trkpt>
      <trkpt lat="40.248917" lon="-4.891983">
        <ele>1593.0</ele>
        <time>2015-03-14T14:46:22Z</time>
      </trkpt>
      <trkpt lat="40.248817" lon="-4.892117">
        <ele>1593.0</ele>
        <time>2015-03-14T14:46:23Z</time>
      </trkpt>
      <trkpt lat="40.248767" lon="-4.892250">
        <ele>1595.0</ele>
        <time>2015-03-14T14:46:24Z</time>
      </trkpt>
      <trkpt lat="40.248750" lon="-4.892400">
        <ele>1599.0</ele>
        <time>2015-03-14T14:46:25Z</time>
      </trkpt>
      <trkpt lat="40.248750" lon="-4.892533">
        <ele>1601.0</ele>
        <time>2015-03-14T14:46:26Z</time>
      </trkpt>
      <trkpt lat="40.248733" lon="-4.892667">
        <ele>1603.0</ele>
        <time>2015-03-14T14:46:27Z</time>
      </trkpt>
      <trkpt lat="40.248733" lon="-4.892800">
        <ele>1604.0</ele>
        <time>2015-03-14T14:46:28Z</time>
      </trkpt>
      <trkpt lat="40.248750" lon="-4.892933">
        <ele>1605.0</ele>
        <time>2015-03-14T14:46:29Z</time>
      </trkpt>
      <trkpt lat="40.248783" lon="-4.893033">
        <ele>1606.0</ele>
        <time>2015-03-14T14:46:30Z</time>
      </trkpt>
      <trkpt lat="40.248833" lon="-4.893133">
        <ele>1606.0</ele>
        <time>2015-03-14T14:46:31Z</time>
      </trkpt>
      <trkpt lat="40.248917" lon="-4.893217">
        <ele>1607.0</ele>
        <time>2015-03-14T14:46:32Z</time>
      </trkpt>
      <trkpt lat="40.248983" lon="-4.893300">
        <ele>1608.0</ele>
        <time>2015-03-14T14:46:33Z</time>
      </trkpt>
      <trkpt lat="40.249067" lon="-4.893383">
        <ele>1609.0</ele>
        <time>2015-03-14T14:46:34Z</time>
      </trkpt>
      <trkpt lat="40.249133" lon="-4.893450">
        <ele>1610.0</ele>
        <time>2015-03-14T14:46:35Z</time>
      </trkpt>
      <trkpt lat="40.249217" lon="-4.893500">
        <ele>1610.0</ele>
        <time>2015-03-14T14:46:36Z</time>
      </trkpt>
      <trkpt lat="40.249317" lon="-4.893500">
        <ele>1610.0</ele>
        <time>2015-03-14T14:46:37Z</time>
      </trkpt>
      <trkpt lat="40.249400" lon="-4.893483">
        <ele>1610.0</ele>
        <time>2015-03-14T14:46:38Z</time>
      </trkpt>
      <trkpt lat="40.249500" lon="-4.893433">
        <ele>1610.0</ele>
        <time>2015-03-14T14:46:39Z</time>
      </trkpt>
      <trkpt lat="40.249567" lon="-4.893367">
        <ele>1612.0</ele>
        <time>2015-03-14T14:46:40Z</time>
      </trkpt>
      <trkpt lat="40.249617" lon="-4.893300">
        <ele>1614.0</ele>
        <time>2015-03-14T14:46:41Z</time>
      </trkpt>
      <trkpt lat="40.249667" lon="-4.893217">
        <ele>1617.0</ele>
        <time>2015-03-14T14:46:42Z</time>
      </trkpt>
      <trkpt lat="40.249683" lon="-4.893150">
        <ele>1620.0</ele>
        <time>2015-03-14T14:46:43Z</time>
      </trkpt>
      <trkpt lat="40.249700" lon="-4.893100">
        <ele>1622.0</ele>
        <time>2015-03-14T14:46:44Z</time>
      </trkpt>
      <trkpt lat="40.249717" lon="-4.893067">
        <ele>1621.0</ele>
        <time>2015-03-14T14:46:45Z</time>
      </trkpt>
      <trkpt lat="40.249750" lon="-4.893033">
        <ele>1619.0</ele>
        <time>2015-03-14T14:46:46Z</time>
      </trkpt>
      <trkpt lat="40.249783" lon="-4.892967">
        <ele>1617.0</ele>
        <time>2015-03-14T14:46:47Z</time>
      </trkpt>
      <trkpt lat="40.249800" lon="-4.892867">
        <ele>1616.0</ele>
        <time>2015-03-14T14:46:48Z</time>
      </trkpt>
      <trkpt lat="40.249817" lon="-4.892733">
        <ele>1617.0</ele>
        <time>2015-03-14T14:46:49Z</time>
      </trkpt>
      <trkpt lat="40.249800" lon="-4.892617">
        <ele>1620.0</ele>
        <time>2015-03-14T14:46:50Z</time>
      </trkpt>
      <trkpt lat="40.249800" lon="-4.892517">
        <ele>1623.0</ele>
        <time>2015-03-14T14:46:51Z</time>
      </trkpt>
      <trkpt lat="40.249783" lon="-4.892433">
        <ele>1626.0</ele>
        <time>2015-03-14T14:46:52Z</time>
      </trkpt>
      <trkpt lat="40.249750" lon="-4.892367">
        <ele>1627.0</ele>
        <time>2015-03-14T14:46:53Z</time>
      </trkpt>
      <trkpt lat="40.249733" lon="-4.892300">
        <ele>1627.0</ele>
        <time>2015-03-14T14:46:54Z</time>
      </trkpt>
      <trkpt lat="40.249700" lon="-4.892217">
        <ele>1626.0</ele>
        <time>2015-03-14T14:46:55Z</time>
      </trkpt>
      <trkpt lat="40.249650" lon="-4.892117">
        <ele>1624.0</ele>
        <time>2015-03-14T14:46:56Z</time>
      </trkpt>
      <trkpt lat="40.249600" lon="-4.892033">
        <ele>1624.0</ele>
        <time>2015-03-14T14:46:57Z</time>
      </trkpt>
      <trkpt lat="40.249517" lon="-4.891967">
        <ele>1625.0</ele>
        <time>2015-03-14T14:46:58Z</time>
      </trkpt>
      <trkpt lat="40.249417" lon="-4.891917">
        <ele>1625.0</ele>
        <time>2015-03-14T14:46:59Z</time>
      </trkpt>
      <trkpt lat="40.249317" lon="-4.891900">
        <ele>1624.0</ele>
        <time>2015-03-14T14:47:00Z</time>
      </trkpt>
      <trkpt lat="40.249200" lon="-4.891883">
        <ele>1623.0</ele>
        <time>2015-03-14T14:47:01Z</time>
      </trkpt>
      <trkpt lat="40.249100" lon="-4.891867">
        <ele>1621.0</ele>
        <time>2015-03-14T14:47:02Z</time>
      </trkpt>
      <trkpt lat="40.248983" lon="-4.891850">
        <ele>1618.0</ele>
        <time>2015-03-14T14:47:03Z</time>
      </trkpt>
      <trkpt lat="40.248867" lon="-4.891850">
        <ele>1616.0</ele>
        <time>2015-03-14T14:47:04Z</time>
      </trkpt>
      <trkpt lat="40.248750" lon="-4.891867">
        <ele>1614.0</ele>
        <time>2015-03-14T14:47:05Z</time>
      </trkpt>
      <trkpt lat="40.248633" lon="-4.891900">
        <ele>1612.0</ele>
        <time>2015-03-14T14:47:06Z</time>
      </trkpt>
      <trkpt lat="40.248500" lon="-4.891967">
        <ele>1611.0</ele>
        <time>2015-03-14T14:47:07Z</time>
      </trkpt>
      <trkpt lat="40.248383" lon="-4.892033">
        <ele>1612.0</ele>
        <time>2015-03-14T14:47:08Z</time>
      </trkpt>
      <trkpt lat="40.248283" lon="-4.892133">
        <ele>1614.0</ele>
        <time>2015-03-14T14:47:09Z</time>
      </trkpt>
      <trkpt lat="40.248200" lon="-4.892233">
        <ele>1616.0</ele>
        <time>2015-03-14T14:47:10Z</time>
      </trkpt>
      <trkpt lat="40.248133" lon="-4.892350">
        <ele>1617.0</ele>
        <time>2015-03-14T14:47:11Z</time>
      </trkpt>
      <trkpt lat="40.248100" lon="-4.892483">
        <ele>1618.0</ele>
        <time>2015-03-14T14:47:12Z</time>
      </trkpt>
      <trkpt lat="40.248067" lon="-4.892600">
        <ele>1617.0</ele>
        <time>2015-03-14T14:47:13Z</time>
      </trkpt>
      <trkpt lat="40.248067" lon="-4.892733">
        <ele>1616.0</ele>
        <time>2015-03-14T14:47:14Z</time>
      </trkpt>
      <trkpt lat="40.248067" lon="-4.892883">
        <ele>1614.0</ele>
        <time>2015-03-14T14:47:15Z</time>
      </trkpt>
      <trkpt lat="40.248100" lon="-4.893033">
        <ele>1612.0</ele>
        <time>2015-03-14T14:47:16Z</time>
      </trkpt>
      <trkpt lat="40.248150" lon="-4.893200">
        <ele>1612.0</ele>
        <time>2015-03-14T14:47:17Z</time>
      </trkpt>
      <trkpt lat="40.248200" lon="-4.893350">
        <ele>1612.0</ele>
        <time>2015-03-14T14:47:18Z</time>
      </trkpt>
      <trkpt lat="40.248250" lon="-4.893483">
        <ele>1613.0</ele>
        <time>2015-03-14T14:47:19Z</time>
      </trkpt>
      <trkpt lat="40.248283" lon="-4.893617">
        <ele>1615.0</ele>
        <time>2015-03-14T14:47:20Z</time>
      </trkpt>
      <trkpt lat="40.248333" lon="-4.893750">
        <ele>1615.0</ele>
        <time>2015-03-14T14:47:21Z</time>
      </trkpt>
      <trkpt lat="40.248383" lon="-4.893867">
        <ele>1615.0</ele>
        <time>2015-03-14T14:47:22Z</time>
      </trkpt>
      <trkpt lat="40.248433" lon="-4.894000">
        <ele>1616.0</ele>
        <time>2015-03-14T14:47:23Z</time>
      </trkpt>
      <trkpt lat="40.248483" lon="-4.894117">
        <ele>1616.0</ele>
        <time>2015-03-14T14:47:24Z</time>
      </trkpt>
      <trkpt lat="40.248567" lon="-4.894233">
        <ele>1616.0</ele>
        <time>2015-03-14T14:47:25Z</time>
      </trkpt>
      <trkpt lat="40.248650" lon="-4.894333">
        <ele>1617.0</ele>
        <time>2015-03-14T14:47:26Z</time>
      </trkpt>
      <trkpt lat="40.248733" lon="-4.894400">
        <ele>1618.0</ele>
        <time>2015-03-14T14:47:27Z</time>
      </trkpt>
      <trkpt lat="40.248817" lon="-4.894433">
        <ele>1619.0</ele>
        <time>2015-03-14T14:47:28Z</time>
      </trkpt>
      <trkpt lat="40.248883" lon="-4.894467">
        <ele>1619.0</ele>
        <time>2015-03-14T14:47:29Z</time>
      </trkpt>
      <trkpt lat="40.248950" lon="-4.894483">
        <ele>1619.0</ele>
        <time>2015-03-14T14:47:30Z</time>
      </trkpt>
      <trkpt lat="40.249033" lon="-4.894500">
        <ele>1618.0</ele>
        <time>2015-03-14T14:47:31Z</time>
      </trkpt>
      <trkpt lat="40.249100" lon="-4.894533">
        <ele>1617.0</ele>
        <time>2015-03-14T14:47:32Z</time>
      </trkpt>
      <trkpt lat="40.249200" lon="-4.894567">
        <ele>1617.0</ele>
        <time>2015-03-14T14:47:33Z</time>
      </trkpt>
      <trkpt lat="40.249283" lon="-4.894583">
        <ele>1619.0</ele>
        <time>2015-03-14T14:47:34Z</time>
      </trkpt>
      <trkpt lat="40.249367" lon="-4.894583">
        <ele>1621.0</ele>
        <time>2015-03-14T14:47:35Z</time>
      </trkpt>
      <trkpt lat="40.249433" lon="-4.894583">
        <ele>1622.0</ele>
        <time>2015-03-14T14:47:36Z</time>
      </trkpt>
      <trkpt lat="40.249500" lon="-4.894550">
        <ele>1624.0</ele>
        <time>2015-03-14T14:47:37Z</time>
      </trkpt>
      <trkpt lat="40.249567" lon="-4.894500">
        <ele>1625.0</ele>
        <time>2015-03-14T14:47:38Z</time>
      </trkpt>
      <trkpt lat="40.249633" lon="-4.894433">
        <ele>1627.0</ele>
        <time>2015-03-14T14:47:39Z</time>
      </trkpt>
      <trkpt lat="40.249683" lon="-4.894367">
        <ele>1629.0</ele>
        <time>2015-03-14T14:47:40Z</time>
      </trkpt>
      <trkpt lat="40.249733" lon="-4.894283">
        <ele>1632.0</ele>
        <time>2015-03-14T14:47:41Z</time>
      </trkpt>
      <trkpt lat="40.249767" lon="-4.894200">
        <ele>1634.0</ele>
        <time>2015-03-14T14:47:42Z</time>
      </trkpt>
      <trkpt lat="40.249783" lon="-4.894117">
        <ele>1636.0</ele>
        <time>2015-03-14T14:47:43Z</time>
      </trkpt>
      <trkpt lat="40.249767" lon="-4.894017">
        <ele>1637.0</ele>
        <time>2015-03-14T14:47:44Z</time>
      </trkpt>
      <trkpt lat="40.249733" lon="-4.893917">
        <ele>1637.0</ele>
        <time>2015-03-14T14:47:45Z</time>
      </trkpt>
      <trkpt lat="40.249667" lon="-4.893817">
        <ele>1637.0</ele>
        <time>2015-03-14T14:47:46Z</time>
      </trkpt>
      <trkpt lat="40.249600" lon="-4.893733">
        <ele>1638.0</ele>
        <time>2015-03-14T14:47:47Z</time>
      </trkpt>
      <trkpt lat="40.249517" lon="-4.893650">
        <ele>1640.0</ele>
        <time>2015-03-14T14:47:48Z</time>
      </trkpt>
      <trkpt lat="40.249433" lon="-4.893617">
        <ele>1642.0</ele>
        <time>2015-03-14T14:47:49Z</time>
      </trkpt>
      <trkpt lat="40.249350" lon="-4.893617">
        <ele>1643.0</ele>
        <time>2015-03-14T14:47:50Z</time>
      </trkpt>
      <trkpt lat="40.249250" lon="-4.893650">
        <ele>1643.0</ele>
        <time>2015-03-14T14:47:51Z</time>
      </trkpt>
      <trkpt lat="40.249150" lon="-4.893717">
        <ele>1644.0</ele>
        <time>2015-03-14T14:47:52Z</time>
      </trkpt>
      <trkpt lat="40.249067" lon="-4.893783">
        <ele>1645.0</ele>
        <time>2015-03-14T14:47:53Z</time>
      </trkpt>
      <trkpt lat="40.248983" lon="-4.893850">
        <ele>1646.0</ele>
        <time>2015-03-14T14:47:54Z</time>
      </trkpt>
      <trkpt lat="40.248917" lon="-4.893950">
        <ele>1647.0</ele>
        <time>2015-03-14T14:47:55Z</time>
      </trkpt>
      <trkpt lat="40.248867" lon="-4.894067">
        <ele>1647.0</ele>
        <time>2015-03-14T14:47:56Z</time>
      </trkpt>
      <trkpt lat="40.248850" lon="-4.894200">
        <ele>1647.0</ele>
        <time>2015-03-14T14:47:57Z</time>
      </trkpt>
      <trkpt lat="40.248867" lon="-4.894333">
        <ele>1648.0</ele>
        <time>2015-03-14T14:47:58Z</time>
      </trkpt>
      <trkpt lat="40.248900" lon="-4.894467">
        <ele>1648.0</ele>
        <time>2015-03-14T14:47:59Z</time>
      </trkpt>
      <trkpt lat="40.248950" lon="-4.894567">
        <ele>1648.0</ele>
        <time>2015-03-14T14:48:00Z</time>
      </trkpt>
      <trkpt lat="40.249017" lon="-4.894667">
        <ele>1648.0</ele>
        <time>2015-03-14T14:48:01Z</time>
      </trkpt>
      <trkpt lat="40.249100" lon="-4.894733">
        <ele>1648.0</ele>
        <time>2015-03-14T14:48:02Z</time>
      </trkpt>
      <trkpt lat="40.249200" lon="-4.894783">
        <ele>1649.0</ele>
        <time>2015-03-14T14:48:03Z</time>
      </trkpt>
      <trkpt lat="40.249300" lon="-4.894783">
        <ele>1650.0</ele>
        <time>2015-03-14T14:48:04Z</time>
      </trkpt>
      <trkpt lat="40.249383" lon="-4.894733">
        <ele>1652.0</ele>
        <time>2015-03-14T14:48:05Z</time>
      </trkpt>
      <trkpt lat="40.249467" lon="-4.894667">
        <ele>1654.0</ele>
        <time>2015-03-14T14:48:06Z</time>
      </trkpt>
      <trkpt lat="40.249500" lon="-4.894583">
        <ele>1657.0</ele>
        <time>2015-03-14T14:48:07Z</time>
      </trkpt>
      <trkpt lat="40.249533" lon="-4.894517">
        <ele>1660.0</ele>
        <time>2015-03-14T14:48:08Z</time>
      </trkpt>
      <trkpt lat="40.249567" lon="-4.894433">
        <ele>1661.0</ele>
        <time>2015-03-14T14:48:09Z</time>
      </trkpt>
      <trkpt lat="40.249583" lon="-4.894350">
        <ele>1662.0</ele>
        <time>2015-03-14T14:48:10Z</time>
      </trkpt>
      <trkpt lat="40.249600" lon="-4.894250">
        <ele>1662.0</ele>
        <time>2015-03-14T14:48:11Z</time>
      </trkpt>
      <trkpt lat="40.249617" lon="-4.894150">
        <ele>1661.0</ele>
        <time>2015-03-14T14:48:12Z</time>
      </trkpt>
      <trkpt lat="40.249617" lon="-4.894033">
        <ele>1661.0</ele>
        <time>2015-03-14T14:48:13Z</time>
      </trkpt>
      <trkpt lat="40.249583" lon="-4.893917">
        <ele>1662.0</ele>
        <time>2015-03-14T14:48:14Z</time>
      </trkpt>
      <trkpt lat="40.249500" lon="-4.893833">
        <ele>1663.0</ele>
        <time>2015-03-14T14:48:15Z</time>
      </trkpt>
      <trkpt lat="40.249417" lon="-4.893767">
        <ele>1665.0</ele>
        <time>2015-03-14T14:48:16Z</time>
      </trkpt>
      <trkpt lat="40.249317" lon="-4.893717">
        <ele>1668.0</ele>
        <time>2015-03-14T14:48:17Z</time>
      </trkpt>
      <trkpt lat="40.249200" lon="-4.893700">
        <ele>1671.0</ele>
        <time>2015-03-14T14:48:18Z</time>
      </trkpt>
      <trkpt lat="40.249083" lon="-4.893700">
        <ele>1673.0</ele>
        <time>2015-03-14T14:48:19Z</time>
      </trkpt>
      <trkpt lat="40.248967" lon="-4.893717">
        <ele>1675.0</ele>
        <time>2015-03-14T14:48:20Z</time>
      </trkpt>
      <trkpt lat="40.248867" lon="-4.893750">
        <ele>1677.0</ele>
        <time>2015-03-14T14:48:21Z</time>
      </trkpt>
      <trkpt lat="40.248750" lon="-4.893800">
        <ele>1679.0</ele>
        <time>2015-03-14T14:48:22Z</time>
      </trkpt>
      <trkpt lat="40.248667" lon="-4.893883">
        <ele>1681.0</ele>
        <time>2015-03-14T14:48:23Z</time>
      </trkpt>
      <trkpt lat="40.248600" lon="-4.893983">
        <ele>1682.0</ele>
        <time>2015-03-14T14:48:24Z</time>
      </trkpt>
      <trkpt lat="40.248550" lon="-4.894100">
        <ele>1682.0</ele>
        <time>2015-03-14T14:48:25Z</time>
      </trkpt>
      <trkpt lat="40.248500" lon="-4.894217">
        <ele>1681.0</ele>
        <time>2015-03-14T14:48:26Z</time>
      </trkpt>
      <trkpt lat="40.248483" lon="-4.894367">
        <ele>1680.0</ele>
        <time>2015-03-14T14:48:27Z</time>
      </trkpt>
      <trkpt lat="40.248467" lon="-4.894500">
        <ele>1679.0</ele>
        <time>2015-03-14T14:48:28Z</time>
      </trkpt>
      <trkpt lat="40.248467" lon="-4.894650">
        <ele>1678.0</ele>
        <time>2015-03-14T14:48:29Z</time>
      </trkpt>
      <trkpt lat="40.248517" lon="-4.894800">
        <ele>1677.0</ele>
        <time>2015-03-14T14:48:30Z</time>
      </trkpt>
      <trkpt lat="40.248567" lon="-4.894917">
        <ele>1677.0</ele>
        <time>2015-03-14T14:48:31Z</time>
      </trkpt>
      <trkpt lat="40.248650" lon="-4.895017">
        <ele>1678.0</ele>
        <time>2015-03-14T14:48:32Z</time>
      </trkpt>
      <trkpt lat="40.248733" lon="-4.895100">
        <ele>1679.0</ele>
        <time>2015-03-14T14:48:33Z</time>
      </trkpt>
      <trkpt lat="40.248833" lon="-4.895133">
        <ele>1681.0</ele>
        <time>2015-03-14T14:48:34Z</time>
      </trkpt>
      <trkpt lat="40.248933" lon="-4.895150">
        <ele>1681.0</ele>
        <time>2015-03-14T14:48:35Z</time>
      </trkpt>
      <trkpt lat="40.249033" lon="-4.895150">
        <ele>1681.0</ele>
        <time>2015-03-14T14:48:36Z</time>
      </trkpt>
      <trkpt lat="40.249117" lon="-4.895133">
        <ele>1681.0</ele>
        <time>2015-03-14T14:48:37Z</time>
      </trkpt>
      <trkpt lat="40.249217" lon="-4.895100">
        <ele>1682.0</ele>
        <time>2015-03-14T14:48:38Z</time>
      </trkpt>
      <trkpt lat="40.249300" lon="-4.895050">
        <ele>1684.0</ele>
        <time>2015-03-14T14:48:39Z</time>
      </trkpt>
      <trkpt lat="40.249367" lon="-4.894983">
        <ele>1687.0</ele>
        <time>2015-03-14T14:48:40Z</time>
      </trkpt>
      <trkpt lat="40.249450" lon="-4.894917">
        <ele>1692.0</ele>
        <time>2015-03-14T14:48:41Z</time>
      </trkpt>
      <trkpt lat="40.249483" lon="-4.894850">
        <ele>1696.0</ele>
        <time>2015-03-14T14:48:42Z</time>
      </trkpt>
      <trkpt lat="40.249533" lon="-4.894783">
        <ele>1699.0</ele>
        <time>2015-03-14T14:48:43Z</time>
      </trkpt>
      <trkpt lat="40.249550" lon="-4.894717">
        <ele>1701.0</ele>
        <time>2015-03-14T14:48:44Z</time>
      </trkpt>
      <trkpt lat="40.249583" lon="-4.894633">
        <ele>1701.0</ele>
        <time>2015-03-14T14:48:45Z</time>
      </trkpt>
      <trkpt lat="40.249600" lon="-4.894533">
        <ele>1701.0</ele>
        <time>2015-03-14T14:48:46Z</time>
      </trkpt>
      <trkpt lat="40.249583" lon="-4.894400">
        <ele>1700.0</ele>
        <time>2015-03-14T14:48:47Z</time>
      </trkpt>
      <trkpt lat="40.249550" lon="-4.894267">
        <ele>1700.0</ele>
        <time>2015-03-14T14:48:48Z</time>
      </trkpt>
      <trkpt lat="40.249500" lon="-4.894117">
        <ele>1703.0</ele>
        <time>2015-03-14T14:48:49Z</time>
      </trkpt>
      <trkpt lat="40.249433" lon="-4.893983">
        <ele>1708.0</ele>
        <time>2015-03-14T14:48:50Z</time>
      </trkpt>
      <trkpt lat="40.249350" lon="-4.893917">
        <ele>1713.0</ele>
        <time>2015-03-14T14:48:51Z</time>
      </trkpt>
      <trkpt lat="40.249250" lon="-4.893883">
        <ele>1716.0</ele>
        <time>2015-03-14T14:48:52Z</time>
      </trkpt>
      <trkpt lat="40.249150" lon="-4.893883">
        <ele>1719.0</ele>
        <time>2015-03-14T14:48:53Z</time>
      </trkpt>
      <trkpt lat="40.249050" lon="-4.893883">
        <ele>1723.0</ele>
        <time>2015-03-14T14:48:54Z</time>
      </trkpt>
      <trkpt lat="40.248950" lon="-4.893883">
        <ele>1726.0</ele>
        <time>2015-03-14T14:48:55Z</time>
      </trkpt>
      <trkpt lat="40.248867" lon="-4.893917">
        <ele>1729.0</ele>
        <time>2015-03-14T14:48:56Z</time>
      </trkpt>
      <trkpt lat="40.248783" lon="-4.893983">
        <ele>1730.0</ele>
        <time>2015-03-14T14:48:57Z</time>
      </trkpt>
      <trkpt lat="40.248700" lon="-4.894083">
        <ele>1731.0</ele>
        <time>2015-03-14T14:48:58Z</time>
      </trkpt>
      <trkpt lat="40.248650" lon="-4.894217">
        <ele>1731.0</ele>
        <time>2015-03-14T14:48:59Z</time>
      </trkpt>
      <trkpt lat="40.248617" lon="-4.894367">
        <ele>1732.0</ele>
        <time>2015-03-14T14:49:00Z</time>
      </trkpt>
      <trkpt lat="40.248633" lon="-4.894533">
        <ele>1732.0</ele>
        <time>2015-03-14T14:49:01Z</time>
      </trkpt>
      <trkpt lat="40.248683" lon="-4.894683">
        <ele>1734.0</ele>
        <time>2015-03-14T14:49:02Z</time>
      </trkpt>
      <trkpt lat="40.248750" lon="-4.894800">
        <ele>1736.0</ele>
        <time>2015-03-14T14:49:03Z</time>
      </trkpt>
      <trkpt lat="40.248833" lon="-4.894867">
        <ele>1741.0</ele>
        <time>2015-03-14T14:49:04Z</time>
      </trkpt>
      <trkpt lat="40.248900" lon="-4.894900">
        <ele>1744.0</ele>
        <time>2015-03-14T14:49:05Z</time>
      </trkpt>
      <trkpt lat="40.248983" lon="-4.894917">
        <ele>1747.0</ele>
        <time>2015-03-14T14:49:06Z</time>
      </trkpt>
      <trkpt lat="40.249050" lon="-4.894900">
        <ele>1750.0</ele>
        <time>2015-03-14T14:49:07Z</time>
      </trkpt>
      <trkpt lat="40.249117" lon="-4.894850">
        <ele>1752.0</ele>
        <time>2015-03-14T14:49:08Z</time>
      </trkpt>
      <trkpt lat="40.249150" lon="-4.894750">
        <ele>1754.0</ele>
        <time>2015-03-14T14:49:09Z</time>
      </trkpt>
      <trkpt lat="40.249167" lon="-4.894633">
        <ele>1756.0</ele>
        <time>2015-03-14T14:49:10Z</time>
      </trkpt>
      <trkpt lat="40.249150" lon="-4.894500">
        <ele>1760.0</ele>
        <time>2015-03-14T14:49:11Z</time>
      </trkpt>
      <trkpt lat="40.249100" lon="-4.894400">
        <ele>1762.0</ele>
        <time>2015-03-14T14:49:12Z</time>
      </trkpt>
      <trkpt lat="40.249017" lon="-4.894317">
        <ele>1764.0</ele>
        <time>2015-03-14T14:49:13Z</time>
      </trkpt>
      <trkpt lat="40.248917" lon="-4.894233">
        <ele>1766.0</ele>
        <time>2015-03-14T14:49:14Z</time>
      </trkpt>
      <trkpt lat="40.248817" lon="-4.894167">
        <ele>1768.0</ele>
        <time>2015-03-14T14:49:15Z</time>
      </trkpt>
      <trkpt lat="40.248700" lon="-4.894133">
        <ele>1771.0</ele>
        <time>2015-03-14T14:49:16Z</time>
      </trkpt>
      <trkpt lat="40.248600" lon="-4.894150">
        <ele>1776.0</ele>
        <time>2015-03-14T14:49:17Z</time>
      </trkpt>
      <trkpt lat="40.248500" lon="-4.894217">
        <ele>1779.0</ele>
        <time>2015-03-14T14:49:18Z</time>
      </trkpt>
      <trkpt lat="40.248417" lon="-4.894317">
        <ele>1782.0</ele>
        <time>2015-03-14T14:49:19Z</time>
      </trkpt>
      <trkpt lat="40.248367" lon="-4.894433">
        <ele>1784.0</ele>
        <time>2015-03-14T14:49:20Z</time>
      </trkpt>
      <trkpt lat="40.248333" lon="-4.894550">
        <ele>1786.0</ele>
        <time>2015-03-14T14:49:21Z</time>
      </trkpt>
      <trkpt lat="40.248300" lon="-4.894700">
        <ele>1787.0</ele>
        <time>2015-03-14T14:49:22Z</time>
      </trkpt>
      <trkpt lat="40.248317" lon="-4.894833">
        <ele>1787.0</ele>
        <time>2015-03-14T14:49:23Z</time>
      </trkpt>
      <trkpt lat="40.248350" lon="-4.894983">
        <ele>1788.0</ele>
        <time>2015-03-14T14:49:24Z</time>
      </trkpt>
      <trkpt lat="40.248417" lon="-4.895100">
        <ele>1789.0</ele>
        <time>2015-03-14T14:49:25Z</time>
      </trkpt>
      <trkpt lat="40.248500" lon="-4.895183">
        <ele>1792.0</ele>
        <time>2015-03-14T14:49:26Z</time>
      </trkpt>
      <trkpt lat="40.248567" lon="-4.895233">
        <ele>1794.0</ele>
        <time>2015-03-14T14:49:27Z</time>
      </trkpt>
      <trkpt lat="40.248650" lon="-4.895250">
        <ele>1797.0</ele>
        <time>2015-03-14T14:49:28Z</time>
      </trkpt>
      <trkpt lat="40.248733" lon="-4.895233">
        <ele>1799.0</ele>
        <time>2015-03-14T14:49:29Z</time>
      </trkpt>
      <trkpt lat="40.248800" lon="-4.895183">
        <ele>1802.0</ele>
        <time>2015-03-14T14:49:30Z</time>
      </trkpt>
      <trkpt lat="40.248850" lon="-4.895100">
        <ele>1804.0</ele>
        <time>2015-03-14T14:49:31Z</time>
      </trkpt>
      <trkpt lat="40.248883" lon="-4.895000">
        <ele>1805.0</ele>
        <time>2015-03-14T14:49:32Z</time>
      </trkpt>
      <trkpt lat="40.248867" lon="-4.894883">
        <ele>1806.0</ele>
        <time>2015-03-14T14:49:33Z</time>
      </trkpt>
      <trkpt lat="40.248833" lon="-4.894783">
        <ele>1807.0</ele>
        <time>2015-03-14T14:49:34Z</time>
      </trkpt>
      <trkpt lat="40.248783" lon="-4.894683">
        <ele>1808.0</ele>
        <time>2015-03-14T14:49:35Z</time>
      </trkpt>
      <trkpt lat="40.248683" lon="-4.894600">
        <ele>1808.0</ele>
        <time>2015-03-14T14:49:36Z</time>
      </trkpt>
      <trkpt lat="40.248583" lon="-4.894533">
        <ele>1809.0</ele>
        <time>2015-03-14T14:49:37Z</time>
      </trkpt>
      <trkpt lat="40.248467" lon="-4.894500">
        <ele>1810.0</ele>
        <time>2015-03-14T14:49:38Z</time>
      </trkpt>
      <trkpt lat="40.248333" lon="-4.894517">
        <ele>1812.0</ele>
        <time>2015-03-14T14:49:39Z</time>
      </trkpt>
      <trkpt lat="40.248200" lon="-4.894550">
        <ele>1815.0</ele>
        <time>2015-03-14T14:49:40Z</time>
      </trkpt>
      <trkpt lat="40.248083" lon="-4.894633">
        <ele>1818.0</ele>
        <time>2015-03-14T14:49:41Z</time>
      </trkpt>
      <trkpt lat="40.248017" lon="-4.894750">
        <ele>1822.0</ele>
        <time>2015-03-14T14:49:42Z</time>
      </trkpt>
      <trkpt lat="40.247967" lon="-4.894883">
        <ele>1823.0</ele>
        <time>2015-03-14T14:49:43Z</time>
      </trkpt>
      <trkpt lat="40.247967" lon="-4.895033">
        <ele>1824.0</ele>
        <time>2015-03-14T14:49:44Z</time>
      </trkpt>
      <trkpt lat="40.247967" lon="-4.895167">
        <ele>1826.0</ele>
        <time>2015-03-14T14:49:45Z</time>
      </trkpt>
      <trkpt lat="40.247967" lon="-4.895300">
        <ele>1827.0</ele>
        <time>2015-03-14T14:49:46Z</time>
      </trkpt>
      <trkpt lat="40.247983" lon="-4.895433">
        <ele>1829.0</ele>
        <time>2015-03-14T14:49:47Z</time>
      </trkpt>
      <trkpt lat="40.248017" lon="-4.895550">
        <ele>1830.0</ele>
        <time>2015-03-14T14:49:48Z</time>
      </trkpt>
      <trkpt lat="40.248067" lon="-4.895667">
        <ele>1830.0</ele>
        <time>2015-03-14T14:49:49Z</time>
      </trkpt>
      <trkpt lat="40.248150" lon="-4.895767">
        <ele>1830.0</ele>
        <time>2015-03-14T14:49:50Z</time>
      </trkpt>
      <trkpt lat="40.248233" lon="-4.895850">
        <ele>1832.0</ele>
        <time>2015-03-14T14:49:51Z</time>
      </trkpt>
      <trkpt lat="40.248317" lon="-4.895867">
        <ele>1834.0</ele>
        <time>2015-03-14T14:49:52Z</time>
      </trkpt>
      <trkpt lat="40.248383" lon="-4.895850">
        <ele>1837.0</ele>
        <time>2015-03-14T14:49:53Z</time>
      </trkpt>
      <trkpt lat="40.248433" lon="-4.895800">
        <ele>1840.0</ele>
        <time>2015-03-14T14:49:54Z</time>
      </trkpt>
      <trkpt lat="40.248467" lon="-4.895717">
        <ele>1842.0</ele>
        <time>2015-03-14T14:49:55Z</time>
      </trkpt>
      <trkpt lat="40.248483" lon="-4.895633">
        <ele>1843.0</ele>
        <time>2015-03-14T14:49:56Z</time>
      </trkpt>
      <trkpt lat="40.248483" lon="-4.895533">
        <ele>1844.0</ele>
        <time>2015-03-14T14:49:57Z</time>
      </trkpt>
      <trkpt lat="40.248467" lon="-4.895417">
        <ele>1844.0</ele>
        <time>2015-03-14T14:49:58Z</time>
      </trkpt>
      <trkpt lat="40.248417" lon="-4.895317">
        <ele>1845.0</ele>
        <time>2015-03-14T14:49:59Z</time>
      </trkpt>
      <trkpt lat="40.248333" lon="-4.895233">
        <ele>1844.0</ele>
        <time>2015-03-14T14:50:00Z</time>
      </trkpt>
      <trkpt lat="40.248217" lon="-4.895167">
        <ele>1845.0</ele>
        <time>2015-03-14T14:50:01Z</time>
      </trkpt>
      <trkpt lat="40.248100" lon="-4.895117">
        <ele>1846.0</ele>
        <time>2015-03-14T14:50:02Z</time>
      </trkpt>
      <trkpt lat="40.247967" lon="-4.895117">
        <ele>1850.0</ele>
        <time>2015-03-14T14:50:03Z</time>
      </trkpt>
      <trkpt lat="40.247850" lon="-4.895150">
        <ele>1853.0</ele>
        <time>2015-03-14T14:50:04Z</time>
      </trkpt>
      <trkpt lat="40.247767" lon="-4.895233">
        <ele>1855.0</ele>
        <time>2015-03-14T14:50:05Z</time>
      </trkpt>
      <trkpt lat="40.247683" lon="-4.895333">
        <ele>1856.0</ele>
        <time>2015-03-14T14:50:06Z</time>
      </trkpt>
      <trkpt lat="40.247617" lon="-4.895450">
        <ele>1858.0</ele>
        <time>2015-03-14T14:50:07Z</time>
      </trkpt>
      <trkpt lat="40.247567" lon="-4.895567">
        <ele>1859.0</ele>
        <time>2015-03-14T14:50:08Z</time>
      </trkpt>
      <trkpt lat="40.247533" lon="-4.895683">
        <ele>1859.0</ele>
        <time>2015-03-14T14:50:09Z</time>
      </trkpt>
      <trkpt lat="40.247517" lon="-4.895800">
        <ele>1858.0</ele>
        <time>2015-03-14T14:50:10Z</time>
      </trkpt>
      <trkpt lat="40.247500" lon="-4.895967">
        <ele>1856.0</ele>
        <time>2015-03-14T14:50:11Z</time>
      </trkpt>
      <trkpt lat="40.247517" lon="-4.896133">
        <ele>1855.0</ele>
        <time>2015-03-14T14:50:12Z</time>
      </trkpt>
      <trkpt lat="40.247533" lon="-4.896300">
        <ele>1857.0</ele>
        <time>2015-03-14T14:50:13Z</time>
      </trkpt>
      <trkpt lat="40.247583" lon="-4.896433">
        <ele>1859.0</ele>
        <time>2015-03-14T14:50:14Z</time>
      </trkpt>
      <trkpt lat="40.247650" lon="-4.896517">
        <ele>1861.0</ele>
        <time>2015-03-14T14:50:15Z</time>
      </trkpt>
      <trkpt lat="40.247733" lon="-4.896550">
        <ele>1862.0</ele>
        <time>2015-03-14T14:50:16Z</time>
      </trkpt>
      <trkpt lat="40.247800" lon="-4.896567">
        <ele>1863.0</ele>
        <time>2015-03-14T14:50:17Z</time>
      </trkpt>
      <trkpt lat="40.247867" lon="-4.896583">
        <ele>1866.0</ele>
        <time>2015-03-14T14:50:18Z</time>
      </trkpt>
      <trkpt lat="40.247933" lon="-4.896567">
        <ele>1867.0</ele>
        <time>2015-03-14T14:50:19Z</time>
      </trkpt>
      <trkpt lat="40.247967" lon="-4.896500">
        <ele>1868.0</ele>
        <time>2015-03-14T14:50:20Z</time>
      </trkpt>
      <trkpt lat="40.248000" lon="-4.896400">
        <ele>1867.0</ele>
        <time>2015-03-14T14:50:21Z</time>
      </trkpt>
      <trkpt lat="40.248000" lon="-4.896267">
        <ele>1868.0</ele>
        <time>2015-03-14T14:50:22Z</time>
      </trkpt>
      <trkpt lat="40.247967" lon="-4.896133">
        <ele>1869.0</ele>
        <time>2015-03-14T14:50:23Z</time>
      </trkpt>
      <trkpt lat="40.247933" lon="-4.896000">
        <ele>1872.0</ele>
        <time>2015-03-14T14:50:24Z</time>
      </trkpt>
      <trkpt lat="40.247867" lon="-4.895900">
        <ele>1874.0</ele>
        <time>2015-03-14T14:50:25Z</time>
      </trkpt>
      <trkpt lat="40.247783" lon="-4.895800">
        <ele>1877.0</ele>
        <time>2015-03-14T14:50:26Z</time>
      </trkpt>
      <trkpt lat="40.247700" lon="-4.895750">
        <ele>1879.0</ele>
        <time>2015-03-14T14:50:27Z</time>
      </trkpt>
      <trkpt lat="40.247583" lon="-4.895700">
        <ele>1881.0</ele>
        <time>2015-03-14T14:50:28Z</time>
      </trkpt>
      <trkpt lat="40.247483" lon="-4.895667">
        <ele>1882.0</ele>
        <time>2015-03-14T14:50:29Z</time>
      </trkpt>
      <trkpt lat="40.247367" lon="-4.895650">
        <ele>1883.0</ele>
        <time>2015-03-14T14:50:30Z</time>
      </trkpt>
      <trkpt lat="40.247250" lon="-4.895667">
        <ele>1883.0</ele>
        <time>2015-03-14T14:50:31Z</time>
      </trkpt>
      <trkpt lat="40.247133" lon="-4.895717">
        <ele>1884.0</ele>
        <time>2015-03-14T14:50:32Z</time>
      </trkpt>
      <trkpt lat="40.247033" lon="-4.895800">
        <ele>1885.0</ele>
        <time>2015-03-14T14:50:33Z</time>
      </trkpt>
      <trkpt lat="40.246950" lon="-4.895900">
        <ele>1886.0</ele>
        <time>2015-03-14T14:50:34Z</time>
      </trkpt>
      <trkpt lat="40.246867" lon="-4.896000">
        <ele>1888.0</ele>
        <time>2015-03-14T14:50:35Z</time>
      </trkpt>
      <trkpt lat="40.246800" lon="-4.896117">
        <ele>1889.0</ele>
        <time>2015-03-14T14:50:36Z</time>
      </trkpt>
      <trkpt lat="40.246750" lon="-4.896233">
        <ele>1889.0</ele>
        <time>2015-03-14T14:50:37Z</time>
      </trkpt>
      <trkpt lat="40.246700" lon="-4.896367">
        <ele>1889.0</ele>
        <time>2015-03-14T14:50:38Z</time>
      </trkpt>
      <trkpt lat="40.246683" lon="-4.896517">
        <ele>1888.0</ele>
        <time>2015-03-14T14:50:39Z</time>
      </trkpt>
      <trkpt lat="40.246683" lon="-4.896667">
        <ele>1888.0</ele>
        <time>2015-03-14T14:50:40Z</time>
      </trkpt>
      <trkpt lat="40.246717" lon="-4.896783">
        <ele>1888.0</ele>
        <time>2015-03-14T14:50:41Z</time>
      </trkpt>
      <trkpt lat="40.246767" lon="-4.896883">
        <ele>1889.0</ele>
        <time>2015-03-14T14:50:42Z</time>
      </trkpt>
      <trkpt lat="40.246817" lon="-4.896967">
        <ele>1890.0</ele>
        <time>2015-03-14T14:50:43Z</time>
      </trkpt>
      <trkpt lat="40.246883" lon="-4.897033">
        <ele>1890.0</ele>
        <time>2015-03-14T14:50:44Z</time>
      </trkpt>
      <trkpt lat="40.246933" lon="-4.897083">
        <ele>1890.0</ele>
        <time>2015-03-14T14:50:45Z</time>
      </trkpt>
      <trkpt lat="40.247017" lon="-4.897133">
        <ele>1889.0</ele>
        <time>2015-03-14T14:50:46Z</time>
      </trkpt>
      <trkpt lat="40.247100" lon="-4.897150">
        <ele>1889.0</ele>
        <time>2015-03-14T14:50:47Z</time>
      </trkpt>
      <trkpt lat="40.247183" lon="-4.897150">
        <ele>1890.0</ele>
        <time>2015-03-14T14:50:48Z</time>
      </trkpt>
      <trkpt lat="40.247250" lon="-4.897100">
        <ele>1892.0</ele>
        <time>2015-03-14T14:50:49Z</time>
      </trkpt>
      <trkpt lat="40.247283" lon="-4.897033">
        <ele>1894.0</ele>
        <time>2015-03-14T14:50:50Z</time>
      </trkpt>
      <trkpt lat="40.247283" lon="-4.896950">
        <ele>1896.0</ele>
        <time>2015-03-14T14:50:51Z</time>
      </trkpt>
      <trkpt lat="40.247283" lon="-4.896850">
        <ele>1898.0</ele>
        <time>2015-03-14T14:50:52Z</time>
      </trkpt>
      <trkpt lat="40.247250" lon="-4.896750">
        <ele>1898.0</ele>
        <time>2015-03-14T14:50:53Z</time>
      </trkpt>
      <trkpt lat="40.247217" lon="-4.896650">
        <ele>1898.0</ele>
        <time>2015-03-14T14:50:54Z</time>
      </trkpt>
      <trkpt lat="40.247150" lon="-4.896533">
        <ele>1898.0</ele>
        <time>2015-03-14T14:50:55Z</time>
      </trkpt>
      <trkpt lat="40.247067" lon="-4.896433">
        <ele>1898.0</ele>
        <time>2015-03-14T14:50:56Z</time>
      </trkpt>
      <trkpt lat="40.246950" lon="-4.896350">
        <ele>1899.0</ele>
        <time>2015-03-14T14:50:57Z</time>
      </trkpt>
      <trkpt lat="40.246850" lon="-4.896283">
        <ele>1901.0</ele>
        <time>2015-03-14T14:50:58Z</time>
      </trkpt>
      <trkpt lat="40.246733" lon="-4.896267">
        <ele>1903.0</ele>
        <time>2015-03-14T14:50:59Z</time>
      </trkpt>
      <trkpt lat="40.246617" lon="-4.896300">
        <ele>1904.0</ele>
        <time>2015-03-14T14:51:00Z</time>
      </trkpt>
      <trkpt lat="40.246500" lon="-4.896367">
        <ele>1904.0</ele>
        <time>2015-03-14T14:51:01Z</time>
      </trkpt>
      <trkpt lat="40.246400" lon="-4.896467">
        <ele>1903.0</ele>
        <time>2015-03-14T14:51:02Z</time>
      </trkpt>
      <trkpt lat="40.246317" lon="-4.896583">
        <ele>1903.0</ele>
        <time>2015-03-14T14:51:03Z</time>
      </trkpt>
      <trkpt lat="40.246233" lon="-4.896717">
        <ele>1903.0</ele>
        <time>2015-03-14T14:51:04Z</time>
      </trkpt>
      <trkpt lat="40.246150" lon="-4.896850">
        <ele>1903.0</ele>
        <time>2015-03-14T14:51:05Z</time>
      </trkpt>
      <trkpt lat="40.246100" lon="-4.896983">
        <ele>1904.0</ele>
        <time>2015-03-14T14:51:06Z</time>
      </trkpt>
      <trkpt lat="40.246067" lon="-4.897133">
        <ele>1903.0</ele>
        <time>2015-03-14T14:51:07Z</time>
      </trkpt>
      <trkpt lat="40.246067" lon="-4.897283">
        <ele>1902.0</ele>
        <time>2015-03-14T14:51:08Z</time>
      </trkpt>
      <trkpt lat="40.246100" lon="-4.897450">
        <ele>1900.0</ele>
        <time>2015-03-14T14:51:09Z</time>
      </trkpt>
      <trkpt lat="40.246150" lon="-4.897583">
        <ele>1900.0</ele>
        <time>2015-03-14T14:51:10Z</time>
      </trkpt>
      <trkpt lat="40.246217" lon="-4.897683">
        <ele>1900.0</ele>
        <time>2015-03-14T14:51:11Z</time>
      </trkpt>
      <trkpt lat="40.246283" lon="-4.897750">
        <ele>1900.0</ele>
        <time>2015-03-14T14:51:12Z</time>
      </trkpt>
      <trkpt lat="40.246350" lon="-4.897767">
        <ele>1900.0</ele>
        <time>2015-03-14T14:51:13Z</time>
      </trkpt>
      <trkpt lat="40.246417" lon="-4.897783">
        <ele>1899.0</ele>
        <time>2015-03-14T14:51:14Z</time>
      </trkpt>
      <trkpt lat="40.246483" lon="-4.897767">
        <ele>1898.0</ele>
        <time>2015-03-14T14:51:15Z</time>
      </trkpt>
      <trkpt lat="40.246550" lon="-4.897717">
        <ele>1898.0</ele>
        <time>2015-03-14T14:51:16Z</time>
      </trkpt>
      <trkpt lat="40.246617" lon="-4.897650">
        <ele>1898.0</ele>
        <time>2015-03-14T14:51:17Z</time>
      </trkpt>
      <trkpt lat="40.246633" lon="-4.897550">
        <ele>1899.0</ele>
        <time>2015-03-14T14:51:18Z</time>
      </trkpt>
      <trkpt lat="40.246633" lon="-4.897467">
        <ele>1901.0</ele>
        <time>2015-03-14T14:51:19Z</time>
      </trkpt>
      <trkpt lat="40.246600" lon="-4.897367">
        <ele>1902.0</ele>
        <time>2015-03-14T14:51:20Z</time>
      </trkpt>
      <trkpt lat="40.246567" lon="-4.897283">
        <ele>1902.0</ele>
        <time>2015-03-14T14:51:21Z</time>
      </trkpt>
      <trkpt lat="40.246500" lon="-4.897183">
        <ele>1901.0</ele>
        <time>2015-03-14T14:51:22Z</time>
      </trkpt>
      <trkpt lat="40.246417" lon="-4.897100">
        <ele>1899.0</ele>
        <time>2015-03-14T14:51:23Z</time>
      </trkpt>
      <trkpt lat="40.246317" lon="-4.897017">
        <ele>1898.0</ele>
        <time>2015-03-14T14:51:24Z</time>
      </trkpt>
      <trkpt lat="40.246217" lon="-4.896933">
        <ele>1897.0</ele>
        <time>2015-03-14T14:51:25Z</time>
      </trkpt>
      <trkpt lat="40.246100" lon="-4.896883">
        <ele>1898.0</ele>
        <time>2015-03-14T14:51:26Z</time>
      </trkpt>
      <trkpt lat="40.246017" lon="-4.896833">
        <ele>1900.0</ele>
        <time>2015-03-14T14:51:27Z</time>
      </trkpt>
      <trkpt lat="40.245917" lon="-4.896800">
        <ele>1900.0</ele>
        <time>2015-03-14T14:51:28Z</time>
      </trkpt>
      <trkpt lat="40.245850" lon="-4.896767">
        <ele>1900.0</ele>
        <time>2015-03-14T14:51:29Z</time>
      </trkpt>
      <trkpt lat="40.245767" lon="-4.896733">
        <ele>1899.0</ele>
        <time>2015-03-14T14:51:30Z</time>
      </trkpt>
      <trkpt lat="40.245667" lon="-4.896700">
        <ele>1898.0</ele>
        <time>2015-03-14T14:51:31Z</time>
      </trkpt>
      <trkpt lat="40.245583" lon="-4.896683">
        <ele>1897.0</ele>
        <time>2015-03-14T14:51:32Z</time>
      </trkpt>
      <trkpt lat="40.245483" lon="-4.896667">
        <ele>1897.0</ele>
        <time>2015-03-14T14:51:33Z</time>
      </trkpt>
      <trkpt lat="40.245367" lon="-4.896683">
        <ele>1898.0</ele>
        <time>2015-03-14T14:51:34Z</time>
      </trkpt>
      <trkpt lat="40.245267" lon="-4.896717">
        <ele>1899.0</ele>
        <time>2015-03-14T14:51:35Z</time>
      </trkpt>
      <trkpt lat="40.245150" lon="-4.896783">
        <ele>1901.0</ele>
        <time>2015-03-14T14:51:36Z</time>
      </trkpt>
      <trkpt lat="40.245067" lon="-4.896850">
        <ele>1902.0</ele>
        <time>2015-03-14T14:51:37Z</time>
      </trkpt>
      <trkpt lat="40.244967" lon="-4.896917">
        <ele>1904.0</ele>
        <time>2015-03-14T14:51:38Z</time>
      </trkpt>
      <trkpt lat="40.244883" lon="-4.896967">
        <ele>1904.0</ele>
        <time>2015-03-14T14:51:39Z</time>
      </trkpt>
      <trkpt lat="40.244800" lon="-4.897017">
        <ele>1905.0</ele>
        <time>2015-03-14T14:51:40Z</time>
      </trkpt>
      <trkpt lat="40.244700" lon="-4.897083">
        <ele>1905.0</ele>
        <time>2015-03-14T14:51:41Z</time>
      </trkpt>
      <trkpt lat="40.244617" lon="-4.897167">
        <ele>1904.0</ele>
        <time>2015-03-14T14:51:42Z</time>
      </trkpt>
      <trkpt lat="40.244517" lon="-4.897267">
        <ele>1904.0</ele>
        <time>2015-03-14T14:51:43Z</time>
      </trkpt>
      <trkpt lat="40.244417" lon="-4.897383">
        <ele>1905.0</ele>
        <time>2015-03-14T14:51:44Z</time>
      </trkpt>
      <trkpt lat="40.244333" lon="-4.897483">
        <ele>1906.0</ele>
        <time>2015-03-14T14:51:45Z</time>
      </trkpt>
      <trkpt lat="40.244250" lon="-4.897583">
        <ele>1908.0</ele>
        <time>2015-03-14T14:51:46Z</time>
      </trkpt>
      <trkpt lat="40.244167" lon="-4.897683">
        <ele>1908.0</ele>
        <time>2015-03-14T14:51:47Z</time>
      </trkpt>
      <trkpt lat="40.244100" lon="-4.897783">
        <ele>1907.0</ele>
        <time>2015-03-14T14:51:48Z</time>
      </trkpt>
      <trkpt lat="40.244017" lon="-4.897900">
        <ele>1906.0</ele>
        <time>2015-03-14T14:51:49Z</time>
      </trkpt>
      <trkpt lat="40.243933" lon="-4.898033">
        <ele>1905.0</ele>
        <time>2015-03-14T14:51:50Z</time>
      </trkpt>
      <trkpt lat="40.243850" lon="-4.898150">
        <ele>1903.0</ele>
        <time>2015-03-14T14:51:51Z</time>
      </trkpt>
      <trkpt lat="40.243767" lon="-4.898283">
        <ele>1902.0</ele>
        <time>2015-03-14T14:51:52Z</time>
      </trkpt>
      <trkpt lat="40.243683" lon="-4.898417">
        <ele>1901.0</ele>
        <time>2015-03-14T14:51:53Z</time>
      </trkpt>
      <trkpt lat="40.243583" lon="-4.898567">
        <ele>1899.0</ele>
        <time>2015-03-14T14:51:54Z</time>
      </trkpt>
      <trkpt lat="40.243500" lon="-4.898700">
        <ele>1898.0</ele>
        <time>2015-03-14T14:51:55Z</time>
      </trkpt>
      <trkpt lat="40.243433" lon="-4.898850">
        <ele>1896.0</ele>
        <time>2015-03-14T14:51:56Z</time>
      </trkpt>
      <trkpt lat="40.243350" lon="-4.899000">
        <ele>1894.0</ele>
        <time>2015-03-14T14:51:57Z</time>
      </trkpt>
      <trkpt lat="40.243267" lon="-4.899150">
        <ele>1893.0</ele>
        <time>2015-03-14T14:51:58Z</time>
      </trkpt>
      <trkpt lat="40.243167" lon="-4.899267">
        <ele>1893.0</ele>
        <time>2015-03-14T14:51:59Z</time>
      </trkpt>
      <trkpt lat="40.243083" lon="-4.899383">
        <ele>1892.0</ele>
        <time>2015-03-14T14:52:00Z</time>
      </trkpt>
      <trkpt lat="40.243000" lon="-4.899483">
        <ele>1891.0</ele>
        <time>2015-03-14T14:52:01Z</time>
      </trkpt>
      <trkpt lat="40.242917" lon="-4.899600">
        <ele>1890.0</ele>
        <time>2015-03-14T14:52:02Z</time>
      </trkpt>
      <trkpt lat="40.242833" lon="-4.899717">
        <ele>1888.0</ele>
        <time>2015-03-14T14:52:03Z</time>
      </trkpt>
      <trkpt lat="40.242767" lon="-4.899850">
        <ele>1886.0</ele>
        <time>2015-03-14T14:52:04Z</time>
      </trkpt>
      <trkpt lat="40.242683" lon="-4.899967">
        <ele>1885.0</ele>
        <time>2015-03-14T14:52:05Z</time>
      </trkpt>
      <trkpt lat="40.242600" lon="-4.900083">
        <ele>1883.0</ele>
        <time>2015-03-14T14:52:06Z</time>
      </trkpt>
      <trkpt lat="40.242517" lon="-4.900200">
        <ele>1883.0</ele>
        <time>2015-03-14T14:52:07Z</time>
      </trkpt>
      <trkpt lat="40.242417" lon="-4.900300">
        <ele>1881.0</ele>
        <time>2015-03-14T14:52:08Z</time>
      </trkpt>
      <trkpt lat="40.242333" lon="-4.900400">
        <ele>1879.0</ele>
        <time>2015-03-14T14:52:09Z</time>
      </trkpt>
      <trkpt lat="40.242250" lon="-4.900500">
        <ele>1877.0</ele>
        <time>2015-03-14T14:52:10Z</time>
      </trkpt>
      <trkpt lat="40.242167" lon="-4.900617">
        <ele>1874.0</ele>
        <time>2015-03-14T14:52:11Z</time>
      </trkpt>
      <trkpt lat="40.242083" lon="-4.900717">
        <ele>1870.0</ele>
        <time>2015-03-14T14:52:12Z</time>
      </trkpt>
      <trkpt lat="40.241983" lon="-4.900850">
        <ele>1867.0</ele>
        <time>2015-03-14T14:52:13Z</time>
      </trkpt>
      <trkpt lat="40.241883" lon="-4.900983">
        <ele>1864.0</ele>
        <time>2015-03-14T14:52:14Z</time>
      </trkpt>
      <trkpt lat="40.241800" lon="-4.901117">
        <ele>1862.0</ele>
        <time>2015-03-14T14:52:15Z</time>
      </trkpt>
      <trkpt lat="40.241717" lon="-4.901250">
        <ele>1860.0</ele>
        <time>2015-03-14T14:52:16Z</time>
      </trkpt>
      <trkpt lat="40.241633" lon="-4.901367">
        <ele>1857.0</ele>
        <time>2015-03-14T14:52:17Z</time>
      </trkpt>
      <trkpt lat="40.241550" lon="-4.901517">
        <ele>1854.0</ele>
        <time>2015-03-14T14:52:18Z</time>
      </trkpt>
      <trkpt lat="40.241450" lon="-4.901650">
        <ele>1850.0</ele>
        <time>2015-03-14T14:52:19Z</time>
      </trkpt>
      <trkpt lat="40.241367" lon="-4.901800">
        <ele>1847.0</ele>
        <time>2015-03-14T14:52:20Z</time>
      </trkpt>
      <trkpt lat="40.241283" lon="-4.901950">
        <ele>1845.0</ele>
        <time>2015-03-14T14:52:21Z</time>
      </trkpt>
      <trkpt lat="40.241200" lon="-4.902083">
        <ele>1843.0</ele>
        <time>2015-03-14T14:52:22Z</time>
      </trkpt>
      <trkpt lat="40.241117" lon="-4.902200">
        <ele>1841.0</ele>
        <time>2015-03-14T14:52:23Z</time>
      </trkpt>
      <trkpt lat="40.241033" lon="-4.902333">
        <ele>1838.0</ele>
        <time>2015-03-14T14:52:24Z</time>
      </trkpt>
      <trkpt lat="40.240950" lon="-4.902467">
        <ele>1834.0</ele>
        <time>2015-03-14T14:52:25Z</time>
      </trkpt>
      <trkpt lat="40.240867" lon="-4.902583">
        <ele>1830.0</ele>
        <time>2015-03-14T14:52:26Z</time>
      </trkpt>
      <trkpt lat="40.240767" lon="-4.902717">
        <ele>1826.0</ele>
        <time>2015-03-14T14:52:27Z</time>
      </trkpt>
      <trkpt lat="40.240650" lon="-4.902833">
        <ele>1823.0</ele>
        <time>2015-03-14T14:52:28Z</time>
      </trkpt>
      <trkpt lat="40.240550" lon="-4.902933">
        <ele>1821.0</ele>
        <time>2015-03-14T14:52:29Z</time>
      </trkpt>
      <trkpt lat="40.240450" lon="-4.903033">
        <ele>1818.0</ele>
        <time>2015-03-14T14:52:30Z</time>
      </trkpt>
      <trkpt lat="40.240350" lon="-4.903133">
        <ele>1815.0</ele>
        <time>2015-03-14T14:52:31Z</time>
      </trkpt>
      <trkpt lat="40.240250" lon="-4.903233">
        <ele>1811.0</ele>
        <time>2015-03-14T14:52:32Z</time>
      </trkpt>
      <trkpt lat="40.240150" lon="-4.903333">
        <ele>1806.0</ele>
        <time>2015-03-14T14:52:33Z</time>
      </trkpt>
      <trkpt lat="40.240033" lon="-4.903433">
        <ele>1803.0</ele>
        <time>2015-03-14T14:52:34Z</time>
      </trkpt>
      <trkpt lat="40.239917" lon="-4.903533">
        <ele>1800.0</ele>
        <time>2015-03-14T14:52:35Z</time>
      </trkpt>
      <trkpt lat="40.239800" lon="-4.903633">
        <ele>1797.0</ele>
        <time>2015-03-14T14:52:36Z</time>
      </trkpt>
      <trkpt lat="40.239700" lon="-4.903700">
        <ele>1794.0</ele>
        <time>2015-03-14T14:52:37Z</time>
      </trkpt>
      <trkpt lat="40.239583" lon="-4.903783">
        <ele>1791.0</ele>
        <time>2015-03-14T14:52:38Z</time>
      </trkpt>
      <trkpt lat="40.239467" lon="-4.903850">
        <ele>1787.0</ele>
        <time>2015-03-14T14:52:39Z</time>
      </trkpt>
      <trkpt lat="40.239333" lon="-4.903933">
        <ele>1782.0</ele>
        <time>2015-03-14T14:52:40Z</time>
      </trkpt>
      <trkpt lat="40.239200" lon="-4.904000">
        <ele>1779.0</ele>
        <time>2015-03-14T14:52:41Z</time>
      </trkpt>
      <trkpt lat="40.239067" lon="-4.904083">
        <ele>1776.0</ele>
        <time>2015-03-14T14:52:42Z</time>
      </trkpt>
      <trkpt lat="40.238933" lon="-4.904167">
        <ele>1773.0</ele>
        <time>2015-03-14T14:52:43Z</time>
      </trkpt>
      <trkpt lat="40.238800" lon="-4.904250">
        <ele>1772.0</ele>
        <time>2015-03-14T14:52:44Z</time>
      </trkpt>
      <trkpt lat="40.238683" lon="-4.904317">
        <ele>1770.0</ele>
        <time>2015-03-14T14:52:45Z</time>
      </trkpt>
      <trkpt lat="40.238567" lon="-4.904383">
        <ele>1767.0</ele>
        <time>2015-03-14T14:52:46Z</time>
      </trkpt>
      <trkpt lat="40.238433" lon="-4.904450">
        <ele>1763.0</ele>
        <time>2015-03-14T14:52:47Z</time>
      </trkpt>
      <trkpt lat="40.238300" lon="-4.904533">
        <ele>1760.0</ele>
        <time>2015-03-14T14:52:48Z</time>
      </trkpt>
      <trkpt lat="40.238183" lon="-4.904617">
        <ele>1757.0</ele>
        <time>2015-03-14T14:52:49Z</time>
      </trkpt>
      <trkpt lat="40.238050" lon="-4.904700">
        <ele>1754.0</ele>
        <time>2015-03-14T14:52:50Z</time>
      </trkpt>
      <trkpt lat="40.237933" lon="-4.904800">
        <ele>1751.0</ele>
        <time>2015-03-14T14:52:51Z</time>
      </trkpt>
      <trkpt lat="40.237817" lon="-4.904883">
        <ele>1748.0</ele>
        <time>2015-03-14T14:52:52Z</time>
      </trkpt>
      <trkpt lat="40.237700" lon="-4.904983">
        <ele>1745.0</ele>
        <time>2015-03-14T14:52:53Z</time>
      </trkpt>
      <trkpt lat="40.237583" lon="-4.905083">
        <ele>1743.0</ele>
        <time>2015-03-14T14:52:54Z</time>
      </trkpt>
      <trkpt lat="40.237467" lon="-4.905183">
        <ele>1740.0</ele>
        <time>2015-03-14T14:52:55Z</time>
      </trkpt>
      <trkpt lat="40.237350" lon="-4.905283">
        <ele>1739.0</ele>
        <time>2015-03-14T14:52:56Z</time>
      </trkpt>
      <trkpt lat="40.237233" lon="-4.905383">
        <ele>1737.0</ele>
        <time>2015-03-14T14:52:57Z</time>
      </trkpt>
      <trkpt lat="40.237117" lon="-4.905467">
        <ele>1736.0</ele>
        <time>2015-03-14T14:52:58Z</time>
      </trkpt>
      <trkpt lat="40.237017" lon="-4.905550">
        <ele>1734.0</ele>
        <time>2015-03-14T14:52:59Z</time>
      </trkpt>
      <trkpt lat="40.236900" lon="-4.905633">
        <ele>1732.0</ele>
        <time>2015-03-14T14:53:00Z</time>
      </trkpt>
      <trkpt lat="40.236783" lon="-4.905717">
        <ele>1730.0</ele>
        <time>2015-03-14T14:53:01Z</time>
      </trkpt>
      <trkpt lat="40.236667" lon="-4.905783">
        <ele>1727.0</ele>
        <time>2015-03-14T14:53:02Z</time>
      </trkpt>
      <trkpt lat="40.236550" lon="-4.905867">
        <ele>1725.0</ele>
        <time>2015-03-14T14:53:03Z</time>
      </trkpt>
      <trkpt lat="40.236433" lon="-4.905933">
        <ele>1723.0</ele>
        <time>2015-03-14T14:53:04Z</time>
      </trkpt>
      <trkpt lat="40.236300" lon="-4.906017">
        <ele>1721.0</ele>
        <time>2015-03-14T14:53:05Z</time>
      </trkpt>
      <trkpt lat="40.236183" lon="-4.906100">
        <ele>1719.0</ele>
        <time>2015-03-14T14:53:06Z</time>
      </trkpt>
      <trkpt lat="40.236067" lon="-4.906200">
        <ele>1717.0</ele>
        <time>2015-03-14T14:53:07Z</time>
      </trkpt>
      <trkpt lat="40.235950" lon="-4.906283">
        <ele>1715.0</ele>
        <time>2015-03-14T14:53:08Z</time>
      </trkpt>
      <trkpt lat="40.235833" lon="-4.906383">
        <ele>1714.0</ele>
        <time>2015-03-14T14:53:09Z</time>
      </trkpt>
      <trkpt lat="40.235717" lon="-4.906483">
        <ele>1712.0</ele>
        <time>2015-03-14T14:53:10Z</time>
      </trkpt>
      <trkpt lat="40.235600" lon="-4.906583">
        <ele>1710.0</ele>
        <time>2015-03-14T14:53:11Z</time>
      </trkpt>
      <trkpt lat="40.235500" lon="-4.906683">
        <ele>1708.0</ele>
        <time>2015-03-14T14:53:12Z</time>
      </trkpt>
      <trkpt lat="40.235400" lon="-4.906800">
        <ele>1706.0</ele>
        <time>2015-03-14T14:53:13Z</time>
      </trkpt>
      <trkpt lat="40.235300" lon="-4.906900">
        <ele>1704.0</ele>
        <time>2015-03-14T14:53:14Z</time>
      </trkpt>
      <trkpt lat="40.235200" lon="-4.907017">
        <ele>1702.0</ele>
        <time>2015-03-14T14:53:15Z</time>
      </trkpt>
      <trkpt lat="40.235083" lon="-4.907117">
        <ele>1701.0</ele>
        <time>2015-03-14T14:53:16Z</time>
      </trkpt>
      <trkpt lat="40.234983" lon="-4.907233">
        <ele>1700.0</ele>
        <time>2015-03-14T14:53:17Z</time>
      </trkpt>
      <trkpt lat="40.234900" lon="-4.907333">
        <ele>1700.0</ele>
        <time>2015-03-14T14:53:18Z</time>
      </trkpt>
      <trkpt lat="40.234800" lon="-4.907450">
        <ele>1699.0</ele>
        <time>2015-03-14T14:53:19Z</time>
      </trkpt>
      <trkpt lat="40.234733" lon="-4.907567">
        <ele>1697.0</ele>
        <time>2015-03-14T14:53:20Z</time>
      </trkpt>
      <trkpt lat="40.234633" lon="-4.907667">
        <ele>1696.0</ele>
        <time>2015-03-14T14:53:21Z</time>
      </trkpt>
      <trkpt lat="40.234533" lon="-4.907783">
        <ele>1694.0</ele>
        <time>2015-03-14T14:53:22Z</time>
      </trkpt>
      <trkpt lat="40.234433" lon="-4.907883">
        <ele>1692.0</ele>
        <time>2015-03-14T14:53:23Z</time>
      </trkpt>
      <trkpt lat="40.234333" lon="-4.907983">
        <ele>1690.0</ele>
        <time>2015-03-14T14:53:24Z</time>
      </trkpt>
      <trkpt lat="40.234233" lon="-4.908083">
        <ele>1688.0</ele>
        <time>2015-03-14T14:53:25Z</time>
      </trkpt>
      <trkpt lat="40.234133" lon="-4.908200">
        <ele>1686.0</ele>
        <time>2015-03-14T14:53:26Z</time>
      </trkpt>
      <trkpt lat="40.234050" lon="-4.908317">
        <ele>1684.0</ele>
        <time>2015-03-14T14:53:27Z</time>
      </trkpt>
      <trkpt lat="40.233950" lon="-4.908450">
        <ele>1682.0</ele>
        <time>2015-03-14T14:53:28Z</time>
      </trkpt>
      <trkpt lat="40.233867" lon="-4.908567">
        <ele>1681.0</ele>
        <time>2015-03-14T14:53:29Z</time>
      </trkpt>
      <trkpt lat="40.233783" lon="-4.908700">
        <ele>1680.0</ele>
        <time>2015-03-14T14:53:30Z</time>
      </trkpt>
      <trkpt lat="40.233700" lon="-4.908833">
        <ele>1679.0</ele>
        <time>2015-03-14T14:53:31Z</time>
      </trkpt>
      <trkpt lat="40.233633" lon="-4.908983">
        <ele>1678.0</ele>
        <time>2015-03-14T14:53:32Z</time>
      </trkpt>
      <trkpt lat="40.233567" lon="-4.909117">
        <ele>1678.0</ele>
        <time>2015-03-14T14:53:33Z</time>
      </trkpt>
      <trkpt lat="40.233500" lon="-4.909233">
        <ele>1677.0</ele>
        <time>2015-03-14T14:53:34Z</time>
      </trkpt>
      <trkpt lat="40.233450" lon="-4.909367">
        <ele>1676.0</ele>
        <time>2015-03-14T14:53:35Z</time>
      </trkpt>
      <trkpt lat="40.233383" lon="-4.909500">
        <ele>1674.0</ele>
        <time>2015-03-14T14:53:36Z</time>
      </trkpt>
      <trkpt lat="40.233317" lon="-4.909633">
        <ele>1674.0</ele>
        <time>2015-03-14T14:53:37Z</time>
      </trkpt>
      <trkpt lat="40.233250" lon="-4.909767">
        <ele>1673.0</ele>
        <time>2015-03-14T14:53:38Z</time>
      </trkpt>
      <trkpt lat="40.233200" lon="-4.909900">
        <ele>1673.0</ele>
        <time>2015-03-14T14:53:39Z</time>
      </trkpt>
      <trkpt lat="40.233167" lon="-4.910050">
        <ele>1672.0</ele>
        <time>2015-03-14T14:53:40Z</time>
      </trkpt>
      <trkpt lat="40.233133" lon="-4.910200">
        <ele>1670.0</ele>
        <time>2015-03-14T14:53:41Z</time>
      </trkpt>
      <trkpt lat="40.233100" lon="-4.910350">
        <ele>1669.0</ele>
        <time>2015-03-14T14:53:42Z</time>
      </trkpt>
      <trkpt lat="40.233067" lon="-4.910500">
        <ele>1668.0</ele>
        <time>2015-03-14T14:53:43Z</time>
      </trkpt>
      <trkpt lat="40.233033" lon="-4.910650">
        <ele>1668.0</ele>
        <time>2015-03-14T14:53:44Z</time>
      </trkpt>
      <trkpt lat="40.233000" lon="-4.910800">
        <ele>1668.0</ele>
        <time>2015-03-14T14:53:45Z</time>
      </trkpt>
      <trkpt lat="40.232983" lon="-4.910933">
        <ele>1668.0</ele>
        <time>2015-03-14T14:53:46Z</time>
      </trkpt>
      <trkpt lat="40.232983" lon="-4.911067">
        <ele>1667.0</ele>
        <time>2015-03-14T14:53:47Z</time>
      </trkpt>
      <trkpt lat="40.232967" lon="-4.911200">
        <ele>1666.0</ele>
        <time>2015-03-14T14:53:48Z</time>
      </trkpt>
      <trkpt lat="40.232967" lon="-4.911333">
        <ele>1664.0</ele>
        <time>2015-03-14T14:53:49Z</time>
      </trkpt>
      <trkpt lat="40.232950" lon="-4.911450">
        <ele>1663.0</ele>
        <time>2015-03-14T14:53:50Z</time>
      </trkpt>
      <trkpt lat="40.232950" lon="-4.911600">
        <ele>1661.0</ele>
        <time>2015-03-14T14:53:51Z</time>
      </trkpt>
      <trkpt lat="40.232950" lon="-4.911733">
        <ele>1660.0</ele>
        <time>2015-03-14T14:53:52Z</time>
      </trkpt>
      <trkpt lat="40.232950" lon="-4.911867">
        <ele>1658.0</ele>
        <time>2015-03-14T14:53:53Z</time>
      </trkpt>
      <trkpt lat="40.232967" lon="-4.911983">
        <ele>1657.0</ele>
        <time>2015-03-14T14:53:54Z</time>
      </trkpt>
      <trkpt lat="40.232950" lon="-4.912100">
        <ele>1656.0</ele>
        <time>2015-03-14T14:53:55Z</time>
      </trkpt>
      <trkpt lat="40.232950" lon="-4.912233">
        <ele>1656.0</ele>
        <time>2015-03-14T14:53:56Z</time>
      </trkpt>
      <trkpt lat="40.232950" lon="-4.912350">
        <ele>1656.0</ele>
        <time>2015-03-14T14:53:57Z</time>
      </trkpt>
      <trkpt lat="40.232933" lon="-4.912450">
        <ele>1655.0</ele>
        <time>2015-03-14T14:53:58Z</time>
      </trkpt>
      <trkpt lat="40.232933" lon="-4.912550">
        <ele>1655.0</ele>
        <time>2015-03-14T14:53:59Z</time>
      </trkpt>
      <trkpt lat="40.232933" lon="-4.912650">
        <ele>1654.0</ele>
        <time>2015-03-14T14:54:00Z</time>
      </trkpt>
      <trkpt lat="40.232917" lon="-4.912750">
        <ele>1652.0</ele>
        <time>2015-03-14T14:54:01Z</time>
      </trkpt>
      <trkpt lat="40.232900" lon="-4.912850">
        <ele>1651.0</ele>
        <time>2015-03-14T14:54:02Z</time>
      </trkpt>
      <trkpt lat="40.232883" lon="-4.912967">
        <ele>1649.0</ele>
        <time>2015-03-14T14:54:03Z</time>
      </trkpt>
      <trkpt lat="40.232867" lon="-4.913083">
        <ele>1648.0</ele>
        <time>2015-03-14T14:54:04Z</time>
      </trkpt>
      <trkpt lat="40.232833" lon="-4.913183">
        <ele>1647.0</ele>
        <time>2015-03-14T14:54:05Z</time>
      </trkpt>
      <trkpt lat="40.232817" lon="-4.913283">
        <ele>1646.0</ele>
        <time>2015-03-14T14:54:06Z</time>
      </trkpt>
      <trkpt lat="40.232783" lon="-4.913383">
        <ele>1645.0</ele>
        <time>2015-03-14T14:54:07Z</time>
      </trkpt>
      <trkpt lat="40.232733" lon="-4.913483">
        <ele>1644.0</ele>
        <time>2015-03-14T14:54:08Z</time>
      </trkpt>
      <trkpt lat="40.232683" lon="-4.913583">
        <ele>1642.0</ele>
        <time>2015-03-14T14:54:09Z</time>
      </trkpt>
      <trkpt lat="40.232617" lon="-4.913683">
        <ele>1641.0</ele>
        <time>2015-03-14T14:54:10Z</time>
      </trkpt>
      <trkpt lat="40.232550" lon="-4.913767">
        <ele>1641.0</ele>
        <time>2015-03-14T14:54:11Z</time>
      </trkpt>
      <trkpt lat="40.232500" lon="-4.913850">
        <ele>1640.0</ele>
        <time>2015-03-14T14:54:12Z</time>
      </trkpt>
      <trkpt lat="40.232433" lon="-4.913950">
        <ele>1639.0</ele>
        <time>2015-03-14T14:54:13Z</time>
      </trkpt>
      <trkpt lat="40.232383" lon="-4.914033">
        <ele>1638.0</ele>
        <time>2015-03-14T14:54:14Z</time>
      </trkpt>
      <trkpt lat="40.232317" lon="-4.914117">
        <ele>1635.0</ele>
        <time>2015-03-14T14:54:15Z</time>
      </trkpt>
      <trkpt lat="40.232250" lon="-4.914217">
        <ele>1632.0</ele>
        <time>2015-03-14T14:54:16Z</time>
      </trkpt>
      <trkpt lat="40.232150" lon="-4.914317">
        <ele>1629.0</ele>
        <time>2015-03-14T14:54:17Z</time>
      </trkpt>
      <trkpt lat="40.232067" lon="-4.914400">
        <ele>1627.0</ele>
        <time>2015-03-14T14:54:18Z</time>
      </trkpt>
      <trkpt lat="40.231983" lon="-4.914483">
        <ele>1626.0</ele>
        <time>2015-03-14T14:54:19Z</time>
      </trkpt>
      <trkpt lat="40.231900" lon="-4.914550">
        <ele>1624.0</ele>
        <time>2015-03-14T14:54:20Z</time>
      </trkpt>
      <trkpt lat="40.231817" lon="-4.914600">
        <ele>1622.0</ele>
        <time>2015-03-14T14:54:21Z</time>
      </trkpt>
      <trkpt lat="40.231717" lon="-4.914667">
        <ele>1619.0</ele>
        <time>2015-03-14T14:54:22Z</time>
      </trkpt>
      <trkpt lat="40.231617" lon="-4.914717">
        <ele>1615.0</ele>
        <time>2015-03-14T14:54:23Z</time>
      </trkpt>
      <trkpt lat="40.231500" lon="-4.914767">
        <ele>1614.0</ele>
        <time>2015-03-14T14:54:24Z</time>
      </trkpt>
      <trkpt lat="40.231383" lon="-4.914817">
        <ele>1613.0</ele>
        <time>2015-03-14T14:54:25Z</time>
      </trkpt>
      <trkpt lat="40.231283" lon="-4.914867">
        <ele>1612.0</ele>
        <time>2015-03-14T14:54:26Z</time>
      </trkpt>
      <trkpt lat="40.231183" lon="-4.914900">
        <ele>1611.0</ele>
        <time>2015-03-14T14:54:27Z</time>
      </trkpt>
      <trkpt lat="40.231083" lon="-4.914950">
        <ele>1609.0</ele>
        <time>2015-03-14T14:54:28Z</time>
      </trkpt>
      <trkpt lat="40.230983" lon="-4.915000">
        <ele>1607.0</ele>
        <time>2015-03-14T14:54:29Z</time>
      </trkpt>
      <trkpt lat="40.230883" lon="-4.915033">
        <ele>1606.0</ele>
        <time>2015-03-14T14:54:30Z</time>
      </trkpt>
      <trkpt lat="40.230783" lon="-4.915067">
        <ele>1604.0</ele>
        <time>2015-03-14T14:54:31Z</time>
      </trkpt>
      <trkpt lat="40.230667" lon="-4.915117">
        <ele>1603.0</ele>
        <time>2015-03-14T14:54:32Z</time>
      </trkpt>
      <trkpt lat="40.230567" lon="-4.915150">
        <ele>1602.0</ele>
        <time>2015-03-14T14:54:33Z</time>
      </trkpt>
      <trkpt lat="40.230467" lon="-4.915200">
        <ele>1600.0</ele>
        <time>2015-03-14T14:54:34Z</time>
      </trkpt>
      <trkpt lat="40.230367" lon="-4.915250">
        <ele>1599.0</ele>
        <time>2015-03-14T14:54:35Z</time>
      </trkpt>
      <trkpt lat="40.230267" lon="-4.915300">
        <ele>1597.0</ele>
        <time>2015-03-14T14:54:36Z</time>
      </trkpt>
      <trkpt lat="40.230150" lon="-4.915367">
        <ele>1596.0</ele>
        <time>2015-03-14T14:54:37Z</time>
      </trkpt>
      <trkpt lat="40.230050" lon="-4.915417">
        <ele>1595.0</ele>
        <time>2015-03-14T14:54:38Z</time>
      </trkpt>
      <trkpt lat="40.229967" lon="-4.915483">
        <ele>1594.0</ele>
        <time>2015-03-14T14:54:39Z</time>
      </trkpt>
      <trkpt lat="40.229883" lon="-4.915567">
        <ele>1593.0</ele>
        <time>2015-03-14T14:54:40Z</time>
      </trkpt>
      <trkpt lat="40.229800" lon="-4.915667">
        <ele>1591.0</ele>
        <time>2015-03-14T14:54:41Z</time>
      </trkpt>
      <trkpt lat="40.229700" lon="-4.915750">
        <ele>1590.0</ele>
        <time>2015-03-14T14:54:42Z</time>
      </trkpt>
      <trkpt lat="40.229617" lon="-4.915833">
        <ele>1589.0</ele>
        <time>2015-03-14T14:54:43Z</time>
      </trkpt>
      <trkpt lat="40.229533" lon="-4.915900">
        <ele>1588.0</ele>
        <time>2015-03-14T14:54:44Z</time>
      </trkpt>
      <trkpt lat="40.229450" lon="-4.916000">
        <ele>1587.0</ele>
        <time>2015-03-14T14:54:45Z</time>
      </trkpt>
      <trkpt lat="40.229367" lon="-4.916083">
        <ele>1586.0</ele>
        <time>2015-03-14T14:54:46Z</time>
      </trkpt>
      <trkpt lat="40.229300" lon="-4.916167">
        <ele>1584.0</ele>
        <time>2015-03-14T14:54:47Z</time>
      </trkpt>
      <trkpt lat="40.229217" lon="-4.916267">
        <ele>1583.0</ele>
        <time>2015-03-14T14:54:48Z</time>
      </trkpt>
      <trkpt lat="40.229133" lon="-4.916350">
        <ele>1581.0</ele>
        <time>2015-03-14T14:54:49Z</time>
      </trkpt>
      <trkpt lat="40.229050" lon="-4.916433">
        <ele>1579.0</ele>
        <time>2015-03-14T14:54:50Z</time>
      </trkpt>
      <trkpt lat="40.228967" lon="-4.916533">
        <ele>1579.0</ele>
        <time>2015-03-14T14:54:51Z</time>
      </trkpt>
      <trkpt lat="40.228900" lon="-4.916633">
        <ele>1578.0</ele>
        <time>2015-03-14T14:54:52Z</time>
      </trkpt>
      <trkpt lat="40.228850" lon="-4.916733">
        <ele>1579.0</ele>
        <time>2015-03-14T14:54:53Z</time>
      </trkpt>
      <trkpt lat="40.228800" lon="-4.916833">
        <ele>1578.0</ele>
        <time>2015-03-14T14:54:54Z</time>
      </trkpt>
      <trkpt lat="40.228750" lon="-4.916950">
        <ele>1577.0</ele>
        <time>2015-03-14T14:54:55Z</time>
      </trkpt>
      <trkpt lat="40.228717" lon="-4.917067">
        <ele>1576.0</ele>
        <time>2015-03-14T14:54:56Z</time>
      </trkpt>
      <trkpt lat="40.228667" lon="-4.917183">
        <ele>1575.0</ele>
        <time>2015-03-14T14:54:57Z</time>
      </trkpt>
      <trkpt lat="40.228617" lon="-4.917317">
        <ele>1575.0</ele>
        <time>2015-03-14T14:54:58Z</time>
      </trkpt>
      <trkpt lat="40.228583" lon="-4.917433">
        <ele>1575.0</ele>
        <time>2015-03-14T14:54:59Z</time>
      </trkpt>
      <trkpt lat="40.228533" lon="-4.917550">
        <ele>1574.0</ele>
        <time>2015-03-14T14:55:00Z</time>
      </trkpt>
      <trkpt lat="40.228500" lon="-4.917650">
        <ele>1573.0</ele>
        <time>2015-03-14T14:55:01Z</time>
      </trkpt>
      <trkpt lat="40.228467" lon="-4.917750">
        <ele>1570.0</ele>
        <time>2015-03-14T14:55:02Z</time>
      </trkpt>
      <trkpt lat="40.228433" lon="-4.917867">
        <ele>1567.0</ele>
        <time>2015-03-14T14:55:03Z</time>
      </trkpt>
      <trkpt lat="40.228417" lon="-4.917983">
        <ele>1564.0</ele>
        <time>2015-03-14T14:55:04Z</time>
      </trkpt>
      <trkpt lat="40.228383" lon="-4.918117">
        <ele>1562.0</ele>
        <time>2015-03-14T14:55:05Z</time>
      </trkpt>
      <trkpt lat="40.228350" lon="-4.918233">
        <ele>1560.0</ele>
        <time>2015-03-14T14:55:06Z</time>
      </trkpt>
      <trkpt lat="40.228333" lon="-4.918333">
        <ele>1558.0</ele>
        <time>2015-03-14T14:55:07Z</time>
      </trkpt>
      <trkpt lat="40.228300" lon="-4.918433">
        <ele>1557.0</ele>
        <time>2015-03-14T14:55:08Z</time>
      </trkpt>
      <trkpt lat="40.228267" lon="-4.918517">
        <ele>1555.0</ele>
        <time>2015-03-14T14:55:09Z</time>
      </trkpt>
      <trkpt lat="40.228233" lon="-4.918600">
        <ele>1552.0</ele>
        <time>2015-03-14T14:55:10Z</time>
      </trkpt>
      <trkpt lat="40.228217" lon="-4.918683">
        <ele>1548.0</ele>
        <time>2015-03-14T14:55:11Z</time>
      </trkpt>
      <trkpt lat="40.228183" lon="-4.918783">
        <ele>1545.0</ele>
        <time>2015-03-14T14:55:12Z</time>
      </trkpt>
      <trkpt lat="40.228183" lon="-4.918900">
        <ele>1543.0</ele>
        <time>2015-03-14T14:55:13Z</time>
      </trkpt>
      <trkpt lat="40.228167" lon="-4.918983">
        <ele>1542.0</ele>
        <time>2015-03-14T14:55:14Z</time>
      </trkpt>
      <trkpt lat="40.228150" lon="-4.919067">
        <ele>1541.0</ele>
        <time>2015-03-14T14:55:15Z</time>
      </trkpt>
      <trkpt lat="40.228133" lon="-4.919133">
        <ele>1539.0</ele>
        <time>2015-03-14T14:55:16Z</time>
      </trkpt>
      <trkpt lat="40.228133" lon="-4.919217">
        <ele>1537.0</ele>
        <time>2015-03-14T14:55:17Z</time>
      </trkpt>
      <trkpt lat="40.228133" lon="-4.919300">
        <ele>1533.0</ele>
        <time>2015-03-14T14:55:18Z</time>
      </trkpt>
      <trkpt lat="40.228133" lon="-4.919400">
        <ele>1530.0</ele>
        <time>2015-03-14T14:55:19Z</time>
      </trkpt>
      <trkpt lat="40.228150" lon="-4.919517">
        <ele>1527.0</ele>
        <time>2015-03-14T14:55:20Z</time>
      </trkpt>
      <trkpt lat="40.228167" lon="-4.919633">
        <ele>1525.0</ele>
        <time>2015-03-14T14:55:21Z</time>
      </trkpt>
      <trkpt lat="40.228167" lon="-4.919750">
        <ele>1524.0</ele>
        <time>2015-03-14T14:55:22Z</time>
      </trkpt>
      <trkpt lat="40.228150" lon="-4.919850">
        <ele>1522.0</ele>
        <time>2015-03-14T14:55:23Z</time>
      </trkpt>
      <trkpt lat="40.228150" lon="-4.919950">
        <ele>1521.0</ele>
        <time>2015-03-14T14:55:24Z</time>
      </trkpt>
      <trkpt lat="40.228150" lon="-4.920033">
        <ele>1519.0</ele>
        <time>2015-03-14T14:55:25Z</time>
      </trkpt>
      <trkpt lat="40.228150" lon="-4.920133">
        <ele>1516.0</ele>
        <time>2015-03-14T14:55:26Z</time>
      </trkpt>
      <trkpt lat="40.228150" lon="-4.920233">
        <ele>1514.0</ele>
        <time>2015-03-14T14:55:27Z</time>
      </trkpt>
      <trkpt lat="40.228150" lon="-4.920350">
        <ele>1512.0</ele>
        <time>2015-03-14T14:55:28Z</time>
      </trkpt>
      <trkpt lat="40.228150" lon="-4.920467">
        <ele>1511.0</ele>
        <time>2015-03-14T14:55:29Z</time>
      </trkpt>
      <trkpt lat="40.228150" lon="-4.920583">
        <ele>1509.0</ele>
        <time>2015-03-14T14:55:30Z</time>
      </trkpt>
      <trkpt lat="40.228133" lon="-4.920683">
        <ele>1508.0</ele>
        <time>2015-03-14T14:55:31Z</time>
      </trkpt>
      <trkpt lat="40.228133" lon="-4.920783">
        <ele>1506.0</ele>
        <time>2015-03-14T14:55:32Z</time>
      </trkpt>
      <trkpt lat="40.228150" lon="-4.920883">
        <ele>1504.0</ele>
        <time>2015-03-14T14:55:33Z</time>
      </trkpt>
      <trkpt lat="40.228150" lon="-4.920967">
        <ele>1502.0</ele>
        <time>2015-03-14T14:55:34Z</time>
      </trkpt>
      <trkpt lat="40.228167" lon="-4.921067">
        <ele>1500.0</ele>
        <time>2015-03-14T14:55:35Z</time>
      </trkpt>
      <trkpt lat="40.228183" lon="-4.921167">
        <ele>1497.0</ele>
        <time>2015-03-14T14:55:36Z</time>
      </trkpt>
      <trkpt lat="40.228183" lon="-4.921283">
        <ele>1495.0</ele>
        <time>2015-03-14T14:55:37Z</time>
      </trkpt>
      <trkpt lat="40.228200" lon="-4.921383">
        <ele>1493.0</ele>
        <time>2015-03-14T14:55:38Z</time>
      </trkpt>
      <trkpt lat="40.228200" lon="-4.921483">
        <ele>1491.0</ele>
        <time>2015-03-14T14:55:39Z</time>
      </trkpt>
      <trkpt lat="40.228217" lon="-4.921583">
        <ele>1489.0</ele>
        <time>2015-03-14T14:55:40Z</time>
      </trkpt>
      <trkpt lat="40.228233" lon="-4.921683">
        <ele>1487.0</ele>
        <time>2015-03-14T14:55:41Z</time>
      </trkpt>
      <trkpt lat="40.228233" lon="-4.921783">
        <ele>1485.0</ele>
        <time>2015-03-14T14:55:42Z</time>
      </trkpt>
      <trkpt lat="40.228217" lon="-4.921867">
        <ele>1483.0</ele>
        <time>2015-03-14T14:55:43Z</time>
      </trkpt>
      <trkpt lat="40.228200" lon="-4.921967">
        <ele>1480.0</ele>
        <time>2015-03-14T14:55:44Z</time>
      </trkpt>
      <trkpt lat="40.228183" lon="-4.922050">
        <ele>1478.0</ele>
        <time>2015-03-14T14:55:45Z</time>
      </trkpt>
      <trkpt lat="40.228167" lon="-4.922133">
        <ele>1475.0</ele>
        <time>2015-03-14T14:55:46Z</time>
      </trkpt>
      <trkpt lat="40.228150" lon="-4.922217">
        <ele>1471.0</ele>
        <time>2015-03-14T14:55:47Z</time>
      </trkpt>
      <trkpt lat="40.228150" lon="-4.922300">
        <ele>1467.0</ele>
        <time>2015-03-14T14:55:48Z</time>
      </trkpt>
      <trkpt lat="40.228133" lon="-4.922400">
        <ele>1462.0</ele>
        <time>2015-03-14T14:55:49Z</time>
      </trkpt>
      <trkpt lat="40.228100" lon="-4.922500">
        <ele>1458.0</ele>
        <time>2015-03-14T14:55:50Z</time>
      </trkpt>
      <trkpt lat="40.228067" lon="-4.922617">
        <ele>1454.0</ele>
        <time>2015-03-14T14:55:51Z</time>
      </trkpt>
      <trkpt lat="40.228017" lon="-4.922733">
        <ele>1451.0</ele>
        <time>2015-03-14T14:55:52Z</time>
      </trkpt>
      <trkpt lat="40.227983" lon="-4.922850">
        <ele>1449.0</ele>
        <time>2015-03-14T14:55:53Z</time>
      </trkpt>
      <trkpt lat="40.227933" lon="-4.922950">
        <ele>1447.0</ele>
        <time>2015-03-14T14:55:54Z</time>
      </trkpt>
      <trkpt lat="40.227883" lon="-4.923067">
        <ele>1444.0</ele>
        <time>2015-03-14T14:55:55Z</time>
      </trkpt>
      <trkpt lat="40.227833" lon="-4.923183">
        <ele>1442.0</ele>
        <time>2015-03-14T14:55:56Z</time>
      </trkpt>
      <trkpt lat="40.227783" lon="-4.923300">
        <ele>1439.0</ele>
        <time>2015-03-14T14:55:57Z</time>
      </trkpt>
      <trkpt lat="40.227733" lon="-4.923417">
        <ele>1437.0</ele>
        <time>2015-03-14T14:55:58Z</time>
      </trkpt>
      <trkpt lat="40.227683" lon="-4.923517">
        <ele>1434.0</ele>
        <time>2015-03-14T14:55:59Z</time>
      </trkpt>
      <trkpt lat="40.227650" lon="-4.923633">
        <ele>1432.0</ele>
        <time>2015-03-14T14:56:00Z</time>
      </trkpt>
      <trkpt lat="40.227600" lon="-4.923750">
        <ele>1429.0</ele>
        <time>2015-03-14T14:56:01Z</time>
      </trkpt>
      <trkpt lat="40.227533" lon="-4.923883">
        <ele>1426.0</ele>
        <time>2015-03-14T14:56:02Z</time>
      </trkpt>
      <trkpt lat="40.227483" lon="-4.923983">
        <ele>1423.0</ele>
        <time>2015-03-14T14:56:03Z</time>
      </trkpt>
      <trkpt lat="40.227417" lon="-4.924083">
        <ele>1419.0</ele>
        <time>2015-03-14T14:56:04Z</time>
      </trkpt>
      <trkpt lat="40.227350" lon="-4.924167">
        <ele>1415.0</ele>
        <time>2015-03-14T14:56:05Z</time>
      </trkpt>
      <trkpt lat="40.227283" lon="-4.924283">
        <ele>1411.0</ele>
        <time>2015-03-14T14:56:06Z</time>
      </trkpt>
      <trkpt lat="40.227217" lon="-4.924417">
        <ele>1407.0</ele>
        <time>2015-03-14T14:56:07Z</time>
      </trkpt>
      <trkpt lat="40.227167" lon="-4.924533">
        <ele>1405.0</ele>
        <time>2015-03-14T14:56:08Z</time>
      </trkpt>
      <trkpt lat="40.227100" lon="-4.924667">
        <ele>1403.0</ele>
        <time>2015-03-14T14:56:09Z</time>
      </trkpt>
      <trkpt lat="40.227050" lon="-4.924783">
        <ele>1402.0</ele>
        <time>2015-03-14T14:56:10Z</time>
      </trkpt>
      <trkpt lat="40.227017" lon="-4.924917">
        <ele>1401.0</ele>
        <time>2015-03-14T14:56:11Z</time>
      </trkpt>
      <trkpt lat="40.226983" lon="-4.925050">
        <ele>1399.0</ele>
        <time>2015-03-14T14:56:12Z</time>
      </trkpt>
      <trkpt lat="40.226950" lon="-4.925183">
        <ele>1398.0</ele>
        <time>2015-03-14T14:56:13Z</time>
      </trkpt>
      <trkpt lat="40.226917" lon="-4.925333">
        <ele>1398.0</ele>
        <time>2015-03-14T14:56:14Z</time>
      </trkpt>
      <trkpt lat="40.226883" lon="-4.925483">
        <ele>1398.0</ele>
        <time>2015-03-14T14:56:15Z</time>
      </trkpt>
      <trkpt lat="40.226867" lon="-4.925600">
        <ele>1399.0</ele>
        <time>2015-03-14T14:56:16Z</time>
      </trkpt>
      <trkpt lat="40.226850" lon="-4.925733">
        <ele>1399.0</ele>
        <time>2015-03-14T14:56:17Z</time>
      </trkpt>
      <trkpt lat="40.226833" lon="-4.925850">
        <ele>1399.0</ele>
        <time>2015-03-14T14:56:18Z</time>
      </trkpt>
      <trkpt lat="40.226800" lon="-4.925983">
        <ele>1399.0</ele>
        <time>2015-03-14T14:56:19Z</time>
      </trkpt>
      <trkpt lat="40.226767" lon="-4.926117">
        <ele>1399.0</ele>
        <time>2015-03-14T14:56:20Z</time>
      </trkpt>
      <trkpt lat="40.226733" lon="-4.926250">
        <ele>1398.0</ele>
        <time>2015-03-14T14:56:21Z</time>
      </trkpt>
      <trkpt lat="40.226700" lon="-4.926383">
        <ele>1398.0</ele>
        <time>2015-03-14T14:56:22Z</time>
      </trkpt>
      <trkpt lat="40.226667" lon="-4.926517">
        <ele>1397.0</ele>
        <time>2015-03-14T14:56:23Z</time>
      </trkpt>
      <trkpt lat="40.226633" lon="-4.926667">
        <ele>1396.0</ele>
        <time>2015-03-14T14:56:24Z</time>
      </trkpt>
      <trkpt lat="40.226600" lon="-4.926800">
        <ele>1395.0</ele>
        <time>2015-03-14T14:56:25Z</time>
      </trkpt>
      <trkpt lat="40.226567" lon="-4.926950">
        <ele>1395.0</ele>
        <time>2015-03-14T14:56:26Z</time>
      </trkpt>
      <trkpt lat="40.226517" lon="-4.927100">
        <ele>1394.0</ele>
        <time>2015-03-14T14:56:27Z</time>
      </trkpt>
      <trkpt lat="40.226483" lon="-4.927233">
        <ele>1394.0</ele>
        <time>2015-03-14T14:56:28Z</time>
      </trkpt>
      <trkpt lat="40.226450" lon="-4.927383">
        <ele>1393.0</ele>
        <time>2015-03-14T14:56:29Z</time>
      </trkpt>
      <trkpt lat="40.226417" lon="-4.927533">
        <ele>1393.0</ele>
        <time>2015-03-14T14:56:30Z</time>
      </trkpt>
      <trkpt lat="40.226400" lon="-4.927683">
        <ele>1393.0</ele>
        <time>2015-03-14T14:56:31Z</time>
      </trkpt>
      <trkpt lat="40.226367" lon="-4.927833">
        <ele>1394.0</ele>
        <time>2015-03-14T14:56:32Z</time>
      </trkpt>
      <trkpt lat="40.226333" lon="-4.927983">
        <ele>1395.0</ele>
        <time>2015-03-14T14:56:33Z</time>
      </trkpt>
      <trkpt lat="40.226300" lon="-4.928100">
        <ele>1396.0</ele>
        <time>2015-03-14T14:56:34Z</time>
      </trkpt>
      <trkpt lat="40.226267" lon="-4.928233">
        <ele>1397.0</ele>
        <time>2015-03-14T14:56:35Z</time>
      </trkpt>
      <trkpt lat="40.226233" lon="-4.928367">
        <ele>1396.0</ele>
        <time>2015-03-14T14:56:36Z</time>
      </trkpt>
      <trkpt lat="40.226200" lon="-4.928500">
        <ele>1396.0</ele>
        <time>2015-03-14T14:56:37Z</time>
      </trkpt>
      <trkpt lat="40.226167" lon="-4.928650">
        <ele>1396.0</ele>
        <time>2015-03-14T14:56:38Z</time>
      </trkpt>
      <trkpt lat="40.226117" lon="-4.928800">
        <ele>1396.0</ele>
        <time>2015-03-14T14:56:39Z</time>
      </trkpt>
      <trkpt lat="40.226083" lon="-4.928933">
        <ele>1397.0</ele>
        <time>2015-03-14T14:56:40Z</time>
      </trkpt>
      <trkpt lat="40.226050" lon="-4.929050">
        <ele>1397.0</ele>
        <time>2015-03-14T14:56:41Z</time>
      </trkpt>
      <trkpt lat="40.226000" lon="-4.929183">
        <ele>1397.0</ele>
        <time>2015-03-14T14:56:42Z</time>
      </trkpt>
      <trkpt lat="40.225967" lon="-4.929317">
        <ele>1396.0</ele>
        <time>2015-03-14T14:56:43Z</time>
      </trkpt>
      <trkpt lat="40.225933" lon="-4.929450">
        <ele>1394.0</ele>
        <time>2015-03-14T14:56:44Z</time>
      </trkpt>
      <trkpt lat="40.225883" lon="-4.929600">
        <ele>1394.0</ele>
        <time>2015-03-14T14:56:45Z</time>
      </trkpt>
      <trkpt lat="40.225833" lon="-4.929733">
        <ele>1393.0</ele>
        <time>2015-03-14T14:56:46Z</time>
      </trkpt>
      <trkpt lat="40.225800" lon="-4.929883">
        <ele>1394.0</ele>
        <time>2015-03-14T14:56:47Z</time>
      </trkpt>
      <trkpt lat="40.225750" lon="-4.930017">
        <ele>1394.0</ele>
        <time>2015-03-14T14:56:48Z</time>
      </trkpt>
      <trkpt lat="40.225717" lon="-4.930150">
        <ele>1395.0</ele>
        <time>2015-03-14T14:56:49Z</time>
      </trkpt>
      <trkpt lat="40.225683" lon="-4.930300">
        <ele>1395.0</ele>
        <time>2015-03-14T14:56:50Z</time>
      </trkpt>
      <trkpt lat="40.225633" lon="-4.930433">
        <ele>1395.0</ele>
        <time>2015-03-14T14:56:51Z</time>
      </trkpt>
      <trkpt lat="40.225600" lon="-4.930583">
        <ele>1394.0</ele>
        <time>2015-03-14T14:56:52Z</time>
      </trkpt>
      <trkpt lat="40.225567" lon="-4.930717">
        <ele>1394.0</ele>
        <time>2015-03-14T14:56:53Z</time>
      </trkpt>
      <trkpt lat="40.225533" lon="-4.930867">
        <ele>1394.0</ele>
        <time>2015-03-14T14:56:54Z</time>
      </trkpt>
      <trkpt lat="40.225500" lon="-4.931017">
        <ele>1393.0</ele>
        <time>2015-03-14T14:56:55Z</time>
      </trkpt>
      <trkpt lat="40.225483" lon="-4.931150">
        <ele>1393.0</ele>
        <time>2015-03-14T14:56:56Z</time>
      </trkpt>
      <trkpt lat="40.225450" lon="-4.931300">
        <ele>1393.0</ele>
        <time>2015-03-14T14:56:57Z</time>
      </trkpt>
      <trkpt lat="40.225417" lon="-4.931433">
        <ele>1393.0</ele>
        <time>2015-03-14T14:56:58Z</time>
      </trkpt>
      <trkpt lat="40.225400" lon="-4.931583">
        <ele>1393.0</ele>
        <time>2015-03-14T14:56:59Z</time>
      </trkpt>
      <trkpt lat="40.225367" lon="-4.931717">
        <ele>1393.0</ele>
        <time>2015-03-14T14:57:00Z</time>
      </trkpt>
      <trkpt lat="40.225333" lon="-4.931850">
        <ele>1394.0</ele>
        <time>2015-03-14T14:57:01Z</time>
      </trkpt>
      <trkpt lat="40.225300" lon="-4.931967">
        <ele>1395.0</ele>
        <time>2015-03-14T14:57:02Z</time>
      </trkpt>
      <trkpt lat="40.225283" lon="-4.932083">
        <ele>1396.0</ele>
        <time>2015-03-14T14:57:03Z</time>
      </trkpt>
      <trkpt lat="40.225250" lon="-4.932217">
        <ele>1397.0</ele>
        <time>2015-03-14T14:57:04Z</time>
      </trkpt>
      <trkpt lat="40.225217" lon="-4.932333">
        <ele>1397.0</ele>
        <time>2015-03-14T14:57:05Z</time>
      </trkpt>
      <trkpt lat="40.225167" lon="-4.932433">
        <ele>1399.0</ele>
        <time>2015-03-14T14:57:06Z</time>
      </trkpt>
      <trkpt lat="40.225100" lon="-4.932533">
        <ele>1399.0</ele>
        <time>2015-03-14T14:57:07Z</time>
      </trkpt>
      <trkpt lat="40.225000" lon="-4.932617">
        <ele>1401.0</ele>
        <time>2015-03-14T14:57:08Z</time>
      </trkpt>
      <trkpt lat="40.224917" lon="-4.932667">
        <ele>1402.0</ele>
        <time>2015-03-14T14:57:09Z</time>
      </trkpt>
      <trkpt lat="40.224817" lon="-4.932700">
        <ele>1404.0</ele>
        <time>2015-03-14T14:57:10Z</time>
      </trkpt>
      <trkpt lat="40.224717" lon="-4.932700">
        <ele>1406.0</ele>
        <time>2015-03-14T14:57:11Z</time>
      </trkpt>
      <trkpt lat="40.224617" lon="-4.932650">
        <ele>1408.0</ele>
        <time>2015-03-14T14:57:12Z</time>
      </trkpt>
      <trkpt lat="40.224533" lon="-4.932583">
        <ele>1410.0</ele>
        <time>2015-03-14T14:57:13Z</time>
      </trkpt>
      <trkpt lat="40.224483" lon="-4.932483">
        <ele>1413.0</ele>
        <time>2015-03-14T14:57:14Z</time>
      </trkpt>
      <trkpt lat="40.224433" lon="-4.932367">
        <ele>1415.0</ele>
        <time>2015-03-14T14:57:15Z</time>
      </trkpt>
      <trkpt lat="40.224433" lon="-4.932267">
        <ele>1417.0</ele>
        <time>2015-03-14T14:57:16Z</time>
      </trkpt>
      <trkpt lat="40.224450" lon="-4.932150">
        <ele>1419.0</ele>
        <time>2015-03-14T14:57:17Z</time>
      </trkpt>
      <trkpt lat="40.224500" lon="-4.932050">
        <ele>1421.0</ele>
        <time>2015-03-14T14:57:18Z</time>
      </trkpt>
      <trkpt lat="40.224567" lon="-4.931983">
        <ele>1423.0</ele>
        <time>2015-03-14T14:57:19Z</time>
      </trkpt>
      <trkpt lat="40.224650" lon="-4.931950">
        <ele>1426.0</ele>
        <time>2015-03-14T14:57:20Z</time>
      </trkpt>
      <trkpt lat="40.224717" lon="-4.931933">
        <ele>1428.0</ele>
        <time>2015-03-14T14:57:21Z</time>
      </trkpt>
      <trkpt lat="40.224783" lon="-4.931933">
        <ele>1429.0</ele>
        <time>2015-03-14T14:57:22Z</time>
      </trkpt>
      <trkpt lat="40.224850" lon="-4.931967">
        <ele>1430.0</ele>
        <time>2015-03-14T14:57:23Z</time>
      </trkpt>
      <trkpt lat="40.224900" lon="-4.932017">
        <ele>1430.0</ele>
        <time>2015-03-14T14:57:24Z</time>
      </trkpt>
      <trkpt lat="40.224967" lon="-4.932100">
        <ele>1430.0</ele>
        <time>2015-03-14T14:57:25Z</time>
      </trkpt>
      <trkpt lat="40.225017" lon="-4.932217">
        <ele>1430.0</ele>
        <time>2015-03-14T14:57:26Z</time>
      </trkpt>
      <trkpt lat="40.225033" lon="-4.932317">
        <ele>1432.0</ele>
        <time>2015-03-14T14:57:27Z</time>
      </trkpt>
      <trkpt lat="40.225017" lon="-4.932450">
        <ele>1432.0</ele>
        <time>2015-03-14T14:57:28Z</time>
      </trkpt>
      <trkpt lat="40.224983" lon="-4.932550">
        <ele>1433.0</ele>
        <time>2015-03-14T14:57:29Z</time>
      </trkpt>
      <trkpt lat="40.224933" lon="-4.932650">
        <ele>1432.0</ele>
        <time>2015-03-14T14:57:30Z</time>
      </trkpt>
      <trkpt lat="40.224850" lon="-4.932733">
        <ele>1431.0</ele>
        <time>2015-03-14T14:57:31Z</time>
      </trkpt>
      <trkpt lat="40.224750" lon="-4.932800">
        <ele>1430.0</ele>
        <time>2015-03-14T14:57:32Z</time>
      </trkpt>
      <trkpt lat="40.224633" lon="-4.932850">
        <ele>1429.0</ele>
        <time>2015-03-14T14:57:33Z</time>
      </trkpt>
      <trkpt lat="40.224517" lon="-4.932867">
        <ele>1428.0</ele>
        <time>2015-03-14T14:57:34Z</time>
      </trkpt>
      <trkpt lat="40.224383" lon="-4.932833">
        <ele>1429.0</ele>
        <time>2015-03-14T14:57:35Z</time>
      </trkpt>
      <trkpt lat="40.224267" lon="-4.932767">
        <ele>1432.0</ele>
        <time>2015-03-14T14:57:36Z</time>
      </trkpt>
      <trkpt lat="40.224200" lon="-4.932667">
        <ele>1436.0</ele>
        <time>2015-03-14T14:57:37Z</time>
      </trkpt>
      <trkpt lat="40.224117" lon="-4.932583">
        <ele>1439.0</ele>
        <time>2015-03-14T14:57:38Z</time>
      </trkpt>
      <trkpt lat="40.224067" lon="-4.932500">
        <ele>1443.0</ele>
        <time>2015-03-14T14:57:39Z</time>
      </trkpt>
      <trkpt lat="40.224000" lon="-4.932417">
        <ele>1445.0</ele>
        <time>2015-03-14T14:57:40Z</time>
      </trkpt>
      <trkpt lat="40.223933" lon="-4.932317">
        <ele>1448.0</ele>
        <time>2015-03-14T14:57:41Z</time>
      </trkpt>
      <trkpt lat="40.223917" lon="-4.932217">
        <ele>1450.0</ele>
        <time>2015-03-14T14:57:42Z</time>
      </trkpt>
      <trkpt lat="40.223933" lon="-4.932133">
        <ele>1450.0</ele>
        <time>2015-03-14T14:57:43Z</time>
      </trkpt>
      <trkpt lat="40.223967" lon="-4.932033">
        <ele>1451.0</ele>
        <time>2015-03-14T14:57:44Z</time>
      </trkpt>
      <trkpt lat="40.224017" lon="-4.931950">
        <ele>1451.0</ele>
        <time>2015-03-14T14:57:45Z</time>
      </trkpt>
      <trkpt lat="40.224067" lon="-4.931900">
        <ele>1452.0</ele>
        <time>2015-03-14T14:57:46Z</time>
      </trkpt>
      <trkpt lat="40.224133" lon="-4.931867">
        <ele>1453.0</ele>
        <time>2015-03-14T14:57:47Z</time>
      </trkpt>
      <trkpt lat="40.224217" lon="-4.931867">
        <ele>1454.0</ele>
        <time>2015-03-14T14:57:48Z</time>
      </trkpt>
      <trkpt lat="40.224283" lon="-4.931900">
        <ele>1454.0</ele>
        <time>2015-03-14T14:57:49Z</time>
      </trkpt>
      <trkpt lat="40.224333" lon="-4.931983">
        <ele>1455.0</ele>
        <time>2015-03-14T14:57:50Z</time>
      </trkpt>
      <trkpt lat="40.224367" lon="-4.932067">
        <ele>1456.0</ele>
        <time>2015-03-14T14:57:51Z</time>
      </trkpt>
      <trkpt lat="40.224400" lon="-4.932183">
        <ele>1457.0</ele>
        <time>2015-03-14T14:57:52Z</time>
      </trkpt>
      <trkpt lat="40.224433" lon="-4.932283">
        <ele>1458.0</ele>
        <time>2015-03-14T14:57:53Z</time>
      </trkpt>
      <trkpt lat="40.224450" lon="-4.932400">
        <ele>1458.0</ele>
        <time>2015-03-14T14:57:54Z</time>
      </trkpt>
      <trkpt lat="40.224433" lon="-4.932533">
        <ele>1460.0</ele>
        <time>2015-03-14T14:57:55Z</time>
      </trkpt>
      <trkpt lat="40.224400" lon="-4.932633">
        <ele>1461.0</ele>
        <time>2015-03-14T14:57:56Z</time>
      </trkpt>
      <trkpt lat="40.224350" lon="-4.932750">
        <ele>1462.0</ele>
        <time>2015-03-14T14:57:57Z</time>
      </trkpt>
      <trkpt lat="40.224283" lon="-4.932850">
        <ele>1462.0</ele>
        <time>2015-03-14T14:57:58Z</time>
      </trkpt>
      <trkpt lat="40.224200" lon="-4.932950">
        <ele>1462.0</ele>
        <time>2015-03-14T14:57:59Z</time>
      </trkpt>
      <trkpt lat="40.224100" lon="-4.933017">
        <ele>1462.0</ele>
        <time>2015-03-14T14:58:00Z</time>
      </trkpt>
      <trkpt lat="40.223967" lon="-4.933050">
        <ele>1463.0</ele>
        <time>2015-03-14T14:58:01Z</time>
      </trkpt>
      <trkpt lat="40.223850" lon="-4.933067">
        <ele>1464.0</ele>
        <time>2015-03-14T14:58:02Z</time>
      </trkpt>
      <trkpt lat="40.223733" lon="-4.933033">
        <ele>1466.0</ele>
        <time>2015-03-14T14:58:03Z</time>
      </trkpt>
      <trkpt lat="40.223633" lon="-4.932983">
        <ele>1469.0</ele>
        <time>2015-03-14T14:58:04Z</time>
      </trkpt>
      <trkpt lat="40.223550" lon="-4.932900">
        <ele>1471.0</ele>
        <time>2015-03-14T14:58:05Z</time>
      </trkpt>
      <trkpt lat="40.223500" lon="-4.932800">
        <ele>1474.0</ele>
        <time>2015-03-14T14:58:06Z</time>
      </trkpt>
      <trkpt lat="40.223467" lon="-4.932683">
        <ele>1477.0</ele>
        <time>2015-03-14T14:58:07Z</time>
      </trkpt>
      <trkpt lat="40.223467" lon="-4.932583">
        <ele>1479.0</ele>
        <time>2015-03-14T14:58:08Z</time>
      </trkpt>
      <trkpt lat="40.223500" lon="-4.932500">
        <ele>1482.0</ele>
        <time>2015-03-14T14:58:09Z</time>
      </trkpt>
      <trkpt lat="40.223533" lon="-4.932417">
        <ele>1483.0</ele>
        <time>2015-03-14T14:58:10Z</time>
      </trkpt>
      <trkpt lat="40.223600" lon="-4.932383">
        <ele>1484.0</ele>
        <time>2015-03-14T14:58:11Z</time>
      </trkpt>
      <trkpt lat="40.223667" lon="-4.932367">
        <ele>1485.0</ele>
        <time>2015-03-14T14:58:12Z</time>
      </trkpt>
      <trkpt lat="40.223750" lon="-4.932367">
        <ele>1486.0</ele>
        <time>2015-03-14T14:58:13Z</time>
      </trkpt>
      <trkpt lat="40.223817" lon="-4.932383">
        <ele>1488.0</ele>
        <time>2015-03-14T14:58:14Z</time>
      </trkpt>
      <trkpt lat="40.223883" lon="-4.932433">
        <ele>1490.0</ele>
        <time>2015-03-14T14:58:15Z</time>
      </trkpt>
      <trkpt lat="40.223917" lon="-4.932517">
        <ele>1490.0</ele>
        <time>2015-03-14T14:58:16Z</time>
      </trkpt>
      <trkpt lat="40.223917" lon="-4.932633">
        <ele>1490.0</ele>
        <time>2015-03-14T14:58:17Z</time>
      </trkpt>
      <trkpt lat="40.223917" lon="-4.932767">
        <ele>1489.0</ele>
        <time>2015-03-14T14:58:18Z</time>
      </trkpt>
      <trkpt lat="40.223883" lon="-4.932900">
        <ele>1490.0</ele>
        <time>2015-03-14T14:58:19Z</time>
      </trkpt>
      <trkpt lat="40.223833" lon="-4.933017">
        <ele>1492.0</ele>
        <time>2015-03-14T14:58:20Z</time>
      </trkpt>
      <trkpt lat="40.223750" lon="-4.933117">
        <ele>1493.0</ele>
        <time>2015-03-14T14:58:21Z</time>
      </trkpt>
      <trkpt lat="40.223650" lon="-4.933167">
        <ele>1494.0</ele>
        <time>2015-03-14T14:58:22Z</time>
      </trkpt>
      <trkpt lat="40.223550" lon="-4.933200">
        <ele>1495.0</ele>
        <time>2015-03-14T14:58:23Z</time>
      </trkpt>
      <trkpt lat="40.223433" lon="-4.933217">
        <ele>1496.0</ele>
        <time>2015-03-14T14:58:24Z</time>
      </trkpt>
      <trkpt lat="40.223317" lon="-4.933183">
        <ele>1498.0</ele>
        <time>2015-03-14T14:58:25Z</time>
      </trkpt>
      <trkpt lat="40.223217" lon="-4.933100">
        <ele>1500.0</ele>
        <time>2015-03-14T14:58:26Z</time>
      </trkpt>
      <trkpt lat="40.223150" lon="-4.933000">
        <ele>1503.0</ele>
        <time>2015-03-14T14:58:27Z</time>
      </trkpt>
      <trkpt lat="40.223100" lon="-4.932883">
        <ele>1506.0</ele>
        <time>2015-03-14T14:58:28Z</time>
      </trkpt>
      <trkpt lat="40.223100" lon="-4.932767">
        <ele>1509.0</ele>
        <time>2015-03-14T14:58:29Z</time>
      </trkpt>
      <trkpt lat="40.223117" lon="-4.932650">
        <ele>1511.0</ele>
        <time>2015-03-14T14:58:30Z</time>
      </trkpt>
      <trkpt lat="40.223150" lon="-4.932550">
        <ele>1514.0</ele>
        <time>2015-03-14T14:58:31Z</time>
      </trkpt>
      <trkpt lat="40.223200" lon="-4.932467">
        <ele>1516.0</ele>
        <time>2015-03-14T14:58:32Z</time>
      </trkpt>
      <trkpt lat="40.223267" lon="-4.932417">
        <ele>1518.0</ele>
        <time>2015-03-14T14:58:33Z</time>
      </trkpt>
      <trkpt lat="40.223317" lon="-4.932367">
        <ele>1520.0</ele>
        <time>2015-03-14T14:58:34Z</time>
      </trkpt>
      <trkpt lat="40.223383" lon="-4.932333">
        <ele>1522.0</ele>
        <time>2015-03-14T14:58:35Z</time>
      </trkpt>
      <trkpt lat="40.223450" lon="-4.932300">
        <ele>1523.0</ele>
        <time>2015-03-14T14:58:36Z</time>
      </trkpt>
      <trkpt lat="40.223517" lon="-4.932283">
        <ele>1524.0</ele>
        <time>2015-03-14T14:58:37Z</time>
      </trkpt>
      <trkpt lat="40.223583" lon="-4.932300">
        <ele>1525.0</ele>
        <time>2015-03-14T14:58:38Z</time>
      </trkpt>
      <trkpt lat="40.223650" lon="-4.932350">
        <ele>1524.0</ele>
        <time>2015-03-14T14:58:39Z</time>
      </trkpt>
      <trkpt lat="40.223700" lon="-4.932450">
        <ele>1524.0</ele>
        <time>2015-03-14T14:58:40Z</time>
      </trkpt>
      <trkpt lat="40.223750" lon="-4.932550">
        <ele>1525.0</ele>
        <time>2015-03-14T14:58:41Z</time>
      </trkpt>
      <trkpt lat="40.223767" lon="-4.932667">
        <ele>1527.0</ele>
        <time>2015-03-14T14:58:42Z</time>
      </trkpt>
      <trkpt lat="40.223767" lon="-4.932783">
        <ele>1529.0</ele>
        <time>2015-03-14T14:58:43Z</time>
      </trkpt>
      <trkpt lat="40.223733" lon="-4.932883">
        <ele>1530.0</ele>
        <time>2015-03-14T14:58:44Z</time>
      </trkpt>
      <trkpt lat="40.223683" lon="-4.933000">
        <ele>1531.0</ele>
        <time>2015-03-14T14:58:45Z</time>
      </trkpt>
      <trkpt lat="40.223617" lon="-4.933100">
        <ele>1531.0</ele>
        <time>2015-03-14T14:58:46Z</time>
      </trkpt>
      <trkpt lat="40.223517" lon="-4.933183">
        <ele>1533.0</ele>
        <time>2015-03-14T14:58:47Z</time>
      </trkpt>
      <trkpt lat="40.223400" lon="-4.933233">
        <ele>1535.0</ele>
        <time>2015-03-14T14:58:48Z</time>
      </trkpt>
      <trkpt lat="40.223300" lon="-4.933250">
        <ele>1538.0</ele>
        <time>2015-03-14T14:58:49Z</time>
      </trkpt>
      <trkpt lat="40.223217" lon="-4.933217">
        <ele>1540.0</ele>
        <time>2015-03-14T14:58:50Z</time>
      </trkpt>
      <trkpt lat="40.223133" lon="-4.933167">
        <ele>1540.0</ele>
        <time>2015-03-14T14:58:51Z</time>
      </trkpt>
      <trkpt lat="40.223033" lon="-4.933083">
        <ele>1540.0</ele>
        <time>2015-03-14T14:58:52Z</time>
      </trkpt>
      <trkpt lat="40.222950" lon="-4.933000">
        <ele>1541.0</ele>
        <time>2015-03-14T14:58:53Z</time>
      </trkpt>
      <trkpt lat="40.222883" lon="-4.932883">
        <ele>1543.0</ele>
        <time>2015-03-14T14:58:54Z</time>
      </trkpt>
      <trkpt lat="40.222850" lon="-4.932767">
        <ele>1544.0</ele>
        <time>2015-03-14T14:58:55Z</time>
      </trkpt>
      <trkpt lat="40.222833" lon="-4.932633">
        <ele>1545.0</ele>
        <time>2015-03-14T14:58:56Z</time>
      </trkpt>
      <trkpt lat="40.222850" lon="-4.932500">
        <ele>1547.0</ele>
        <time>2015-03-14T14:58:57Z</time>
      </trkpt>
      <trkpt lat="40.222883" lon="-4.932383">
        <ele>1549.0</ele>
        <time>2015-03-14T14:58:58Z</time>
      </trkpt>
      <trkpt lat="40.222933" lon="-4.932317">
        <ele>1551.0</ele>
        <time>2015-03-14T14:58:59Z</time>
      </trkpt>
      <trkpt lat="40.222983" lon="-4.932267">
        <ele>1553.0</ele>
        <time>2015-03-14T14:59:00Z</time>
      </trkpt>
      <trkpt lat="40.223050" lon="-4.932267">
        <ele>1553.0</ele>
        <time>2015-03-14T14:59:01Z</time>
      </trkpt>
      <trkpt lat="40.223117" lon="-4.932283">
        <ele>1553.0</ele>
        <time>2015-03-14T14:59:02Z</time>
      </trkpt>
      <trkpt lat="40.223183" lon="-4.932300">
        <ele>1552.0</ele>
        <time>2015-03-14T14:59:03Z</time>
      </trkpt>
      <trkpt lat="40.223233" lon="-4.932333">
        <ele>1552.0</ele>
        <time>2015-03-14T14:59:04Z</time>
      </trkpt>
      <trkpt lat="40.223300" lon="-4.932400">
        <ele>1551.0</ele>
        <time>2015-03-14T14:59:05Z</time>
      </trkpt>
      <trkpt lat="40.223367" lon="-4.932483">
        <ele>1551.0</ele>
        <time>2015-03-14T14:59:06Z</time>
      </trkpt>
      <trkpt lat="40.223400" lon="-4.932583">
        <ele>1551.0</ele>
        <time>2015-03-14T14:59:07Z</time>
      </trkpt>
      <trkpt lat="40.223417" lon="-4.932700">
        <ele>1552.0</ele>
        <time>2015-03-14T14:59:08Z</time>
      </trkpt>
      <trkpt lat="40.223400" lon="-4.932833">
        <ele>1553.0</ele>
        <time>2015-03-14T14:59:09Z</time>
      </trkpt>
      <trkpt lat="40.223350" lon="-4.932950">
        <ele>1555.0</ele>
        <time>2015-03-14T14:59:10Z</time>
      </trkpt>
      <trkpt lat="40.223317" lon="-4.933067">
        <ele>1558.0</ele>
        <time>2015-03-14T14:59:11Z</time>
      </trkpt>
      <trkpt lat="40.223267" lon="-4.933167">
        <ele>1561.0</ele>
        <time>2015-03-14T14:59:12Z</time>
      </trkpt>
      <trkpt lat="40.223217" lon="-4.933250">
        <ele>1563.0</ele>
        <time>2015-03-14T14:59:13Z</time>
      </trkpt>
      <trkpt lat="40.223133" lon="-4.933317">
        <ele>1563.0</ele>
        <time>2015-03-14T14:59:14Z</time>
      </trkpt>
      <trkpt lat="40.223050" lon="-4.933383">
        <ele>1564.0</ele>
        <time>2015-03-14T14:59:15Z</time>
      </trkpt>
      <trkpt lat="40.222950" lon="-4.933417">
        <ele>1564.0</ele>
        <time>2015-03-14T14:59:16Z</time>
      </trkpt>
      <trkpt lat="40.222833" lon="-4.933417">
        <ele>1565.0</ele>
        <time>2015-03-14T14:59:17Z</time>
      </trkpt>
      <trkpt lat="40.222717" lon="-4.933400">
        <ele>1566.0</ele>
        <time>2015-03-14T14:59:18Z</time>
      </trkpt>
      <trkpt lat="40.222617" lon="-4.933333">
        <ele>1566.0</ele>
        <time>2015-03-14T14:59:19Z</time>
      </trkpt>
      <trkpt lat="40.222550" lon="-4.933233">
        <ele>1566.0</ele>
        <time>2015-03-14T14:59:20Z</time>
      </trkpt>
      <trkpt lat="40.222500" lon="-4.933100">
        <ele>1565.0</ele>
        <time>2015-03-14T14:59:21Z</time>
      </trkpt>
      <trkpt lat="40.222467" lon="-4.932967">
        <ele>1566.0</ele>
        <time>2015-03-14T14:59:22Z</time>
      </trkpt>
      <trkpt lat="40.222450" lon="-4.932817">
        <ele>1569.0</ele>
        <time>2015-03-14T14:59:23Z</time>
      </trkpt>
      <trkpt lat="40.222467" lon="-4.932700">
        <ele>1572.0</ele>
        <time>2015-03-14T14:59:24Z</time>
      </trkpt>
      <trkpt lat="40.222483" lon="-4.932600">
        <ele>1575.0</ele>
        <time>2015-03-14T14:59:25Z</time>
      </trkpt>
      <trkpt lat="40.222517" lon="-4.932533">
        <ele>1576.0</ele>
        <time>2015-03-14T14:59:26Z</time>
      </trkpt>
      <trkpt lat="40.222550" lon="-4.932467">
        <ele>1577.0</ele>
        <time>2015-03-14T14:59:27Z</time>
      </trkpt>
      <trkpt lat="40.222600" lon="-4.932400">
        <ele>1576.0</ele>
        <time>2015-03-14T14:59:28Z</time>
      </trkpt>
      <trkpt lat="40.222667" lon="-4.932350">
        <ele>1575.0</ele>
        <time>2015-03-14T14:59:29Z</time>
      </trkpt>
      <trkpt lat="40.222733" lon="-4.932317">
        <ele>1575.0</ele>
        <time>2015-03-14T14:59:30Z</time>
      </trkpt>
      <trkpt lat="40.222800" lon="-4.932300">
        <ele>1574.0</ele>
        <time>2015-03-14T14:59:31Z</time>
      </trkpt>
      <trkpt lat="40.222883" lon="-4.932317">
        <ele>1573.0</ele>
        <time>2015-03-14T14:59:32Z</time>
      </trkpt>
      <trkpt lat="40.222950" lon="-4.932383">
        <ele>1571.0</ele>
        <time>2015-03-14T14:59:33Z</time>
      </trkpt>
      <trkpt lat="40.223033" lon="-4.932467">
        <ele>1570.0</ele>
        <time>2015-03-14T14:59:34Z</time>
      </trkpt>
      <trkpt lat="40.223100" lon="-4.932567">
        <ele>1570.0</ele>
        <time>2015-03-14T14:59:35Z</time>
      </trkpt>
      <trkpt lat="40.223150" lon="-4.932667">
        <ele>1571.0</ele>
        <time>2015-03-14T14:59:36Z</time>
      </trkpt>
      <trkpt lat="40.223200" lon="-4.932750">
        <ele>1573.0</ele>
        <time>2015-03-14T14:59:37Z</time>
      </trkpt>
      <trkpt lat="40.223250" lon="-4.932833">
        <ele>1574.0</ele>
        <time>2015-03-14T14:59:38Z</time>
      </trkpt>
      <trkpt lat="40.223300" lon="-4.932917">
        <ele>1574.0</ele>
        <time>2015-03-14T14:59:39Z</time>
      </trkpt>
      <trkpt lat="40.223333" lon="-4.933017">
        <ele>1572.0</ele>
        <time>2015-03-14T14:59:40Z</time>
      </trkpt>
      <trkpt lat="40.223367" lon="-4.933150">
        <ele>1572.0</ele>
        <time>2015-03-14T14:59:41Z</time>
      </trkpt>
      <trkpt lat="40.223383" lon="-4.933283">
        <ele>1572.0</ele>
        <time>2015-03-14T14:59:42Z</time>
      </trkpt>
      <trkpt lat="40.223383" lon="-4.933417">
        <ele>1572.0</ele>
        <time>2015-03-14T14:59:43Z</time>
      </trkpt>
      <trkpt lat="40.223367" lon="-4.933550">
        <ele>1574.0</ele>
        <time>2015-03-14T14:59:44Z</time>
      </trkpt>
      <trkpt lat="40.223350" lon="-4.933683">
        <ele>1576.0</ele>
        <time>2015-03-14T14:59:45Z</time>
      </trkpt>
      <trkpt lat="40.223350" lon="-4.933817">
        <ele>1578.0</ele>
        <time>2015-03-14T14:59:46Z</time>
      </trkpt>
      <trkpt lat="40.223333" lon="-4.933933">
        <ele>1580.0</ele>
        <time>2015-03-14T14:59:47Z</time>
      </trkpt>
      <trkpt lat="40.223333" lon="-4.934067">
        <ele>1581.0</ele>
        <time>2015-03-14T14:59:48Z</time>
      </trkpt>
      <trkpt lat="40.223300" lon="-4.934200">
        <ele>1584.0</ele>
        <time>2015-03-14T14:59:49Z</time>
      </trkpt>
      <trkpt lat="40.223233" lon="-4.934317">
        <ele>1586.0</ele>
        <time>2015-03-14T14:59:50Z</time>
      </trkpt>
      <trkpt lat="40.223167" lon="-4.934417">
        <ele>1589.0</ele>
        <time>2015-03-14T14:59:51Z</time>
      </trkpt>
      <trkpt lat="40.223100" lon="-4.934483">
        <ele>1591.0</ele>
        <time>2015-03-14T14:59:52Z</time>
      </trkpt>
      <trkpt lat="40.223017" lon="-4.934550">
        <ele>1592.0</ele>
        <time>2015-03-14T14:59:53Z</time>
      </trkpt>
      <trkpt lat="40.222933" lon="-4.934600">
        <ele>1592.0</ele>
        <time>2015-03-14T14:59:54Z</time>
      </trkpt>
      <trkpt lat="40.222833" lon="-4.934617">
        <ele>1593.0</ele>
        <time>2015-03-14T14:59:55Z</time>
      </trkpt>
      <trkpt lat="40.222717" lon="-4.934600">
        <ele>1594.0</ele>
        <time>2015-03-14T14:59:56Z</time>
      </trkpt>
      <trkpt lat="40.222617" lon="-4.934567">
        <ele>1594.0</ele>
        <time>2015-03-14T14:59:57Z</time>
      </trkpt>
      <trkpt lat="40.222533" lon="-4.934483">
        <ele>1595.0</ele>
        <time>2015-03-14T14:59:58Z</time>
      </trkpt>
      <trkpt lat="40.222467" lon="-4.934367">
        <ele>1595.0</ele>
        <time>2015-03-14T14:59:59Z</time>
      </trkpt>
      <trkpt lat="40.222400" lon="-4.934233">
        <ele>1595.0</ele>
        <time>2015-03-14T15:00:00Z</time>
      </trkpt>
      <trkpt lat="40.222383" lon="-4.934100">
        <ele>1595.0</ele>
        <time>2015-03-14T15:00:01Z</time>
      </trkpt>
      <trkpt lat="40.222400" lon="-4.933950">
        <ele>1596.0</ele>
        <time>2015-03-14T15:00:02Z</time>
      </trkpt>
      <trkpt lat="40.222433" lon="-4.933833">
        <ele>1598.0</ele>
        <time>2015-03-14T15:00:03Z</time>
      </trkpt>
      <trkpt lat="40.222500" lon="-4.933733">
        <ele>1599.0</ele>
        <time>2015-03-14T15:00:04Z</time>
      </trkpt>
      <trkpt lat="40.222567" lon="-4.933650">
        <ele>1601.0</ele>
        <time>2015-03-14T15:00:05Z</time>
      </trkpt>
      <trkpt lat="40.222650" lon="-4.933617">
        <ele>1603.0</ele>
        <time>2015-03-14T15:00:06Z</time>
      </trkpt>
      <trkpt lat="40.222717" lon="-4.933617">
        <ele>1604.0</ele>
        <time>2015-03-14T15:00:07Z</time>
      </trkpt>
      <trkpt lat="40.222800" lon="-4.933650">
        <ele>1604.0</ele>
        <time>2015-03-14T15:00:08Z</time>
      </trkpt>
      <trkpt lat="40.222867" lon="-4.933717">
        <ele>1604.0</ele>
        <time>2015-03-14T15:00:09Z</time>
      </trkpt>
      <trkpt lat="40.222933" lon="-4.933800">
        <ele>1605.0</ele>
        <time>2015-03-14T15:00:10Z</time>
      </trkpt>
      <trkpt lat="40.222983" lon="-4.933883">
        <ele>1607.0</ele>
        <time>2015-03-14T15:00:11Z</time>
      </trkpt>
      <trkpt lat="40.223000" lon="-4.934000">
        <ele>1609.0</ele>
        <time>2015-03-14T15:00:12Z</time>
      </trkpt>
      <trkpt lat="40.223017" lon="-4.934100">
        <ele>1609.0</ele>
        <time>2015-03-14T15:00:13Z</time>
      </trkpt>
      <trkpt lat="40.223000" lon="-4.934217">
        <ele>1610.0</ele>
        <time>2015-03-14T15:00:14Z</time>
      </trkpt>
      <trkpt lat="40.222967" lon="-4.934333">
        <ele>1610.0</ele>
        <time>2015-03-14T15:00:15Z</time>
      </trkpt>
      <trkpt lat="40.222917" lon="-4.934450">
        <ele>1610.0</ele>
        <time>2015-03-14T15:00:16Z</time>
      </trkpt>
      <trkpt lat="40.222850" lon="-4.934567">
        <ele>1611.0</ele>
        <time>2015-03-14T15:00:17Z</time>
      </trkpt>
      <trkpt lat="40.222767" lon="-4.934633">
        <ele>1613.0</ele>
        <time>2015-03-14T15:00:18Z</time>
      </trkpt>
      <trkpt lat="40.222650" lon="-4.934700">
        <ele>1615.0</ele>
        <time>2015-03-14T15:00:19Z</time>
      </trkpt>
      <trkpt lat="40.222550" lon="-4.934717">
        <ele>1618.0</ele>
        <time>2015-03-14T15:00:20Z</time>
      </trkpt>
      <trkpt lat="40.222450" lon="-4.934717">
        <ele>1620.0</ele>
        <time>2015-03-14T15:00:21Z</time>
      </trkpt>
      <trkpt lat="40.222333" lon="-4.934700">
        <ele>1622.0</ele>
        <time>2015-03-14T15:00:22Z</time>
      </trkpt>
      <trkpt lat="40.222233" lon="-4.934667">
        <ele>1623.0</ele>
        <time>2015-03-14T15:00:23Z</time>
      </trkpt>
      <trkpt lat="40.222133" lon="-4.934600">
        <ele>1625.0</ele>
        <time>2015-03-14T15:00:24Z</time>
      </trkpt>
      <trkpt lat="40.222050" lon="-4.934500">
        <ele>1626.0</ele>
        <time>2015-03-14T15:00:25Z</time>
      </trkpt>
      <trkpt lat="40.222033" lon="-4.934383">
        <ele>1626.0</ele>
        <time>2015-03-14T15:00:26Z</time>
      </trkpt>
      <trkpt lat="40.222033" lon="-4.934250">
        <ele>1627.0</ele>
        <time>2015-03-14T15:00:27Z</time>
      </trkpt>
      <trkpt lat="40.222033" lon="-4.934117">
        <ele>1629.0</ele>
        <time>2015-03-14T15:00:28Z</time>
      </trkpt>
      <trkpt lat="40.222033" lon="-4.934000">
        <ele>1631.0</ele>
        <time>2015-03-14T15:00:29Z</time>
      </trkpt>
      <trkpt lat="40.222033" lon="-4.933900">
        <ele>1633.0</ele>
        <time>2015-03-14T15:00:30Z</time>
      </trkpt>
      <trkpt lat="40.222083" lon="-4.933817">
        <ele>1633.0</ele>
        <time>2015-03-14T15:00:31Z</time>
      </trkpt>
      <trkpt lat="40.222150" lon="-4.933733">
        <ele>1633.0</ele>
        <time>2015-03-14T15:00:32Z</time>
      </trkpt>
      <trkpt lat="40.222233" lon="-4.933667">
        <ele>1633.0</ele>
        <time>2015-03-14T15:00:33Z</time>
      </trkpt>
      <trkpt lat="40.222317" lon="-4.933633">
        <ele>1634.0</ele>
        <time>2015-03-14T15:00:34Z</time>
      </trkpt>
      <trkpt lat="40.222400" lon="-4.933650">
        <ele>1635.0</ele>
        <time>2015-03-14T15:00:35Z</time>
      </trkpt>
      <trkpt lat="40.222467" lon="-4.933700">
        <ele>1636.0</ele>
        <time>2015-03-14T15:00:36Z</time>
      </trkpt>
      <trkpt lat="40.222533" lon="-4.933783">
        <ele>1637.0</ele>
        <time>2015-03-14T15:00:37Z</time>
      </trkpt>
      <trkpt lat="40.222567" lon="-4.933867">
        <ele>1638.0</ele>
        <time>2015-03-14T15:00:38Z</time>
      </trkpt>
      <trkpt lat="40.222600" lon="-4.933950">
        <ele>1639.0</ele>
        <time>2015-03-14T15:00:39Z</time>
      </trkpt>
      <trkpt lat="40.222633" lon="-4.934050">
        <ele>1640.0</ele>
        <time>2015-03-14T15:00:40Z</time>
      </trkpt>
      <trkpt lat="40.222633" lon="-4.934150">
        <ele>1641.0</ele>
        <time>2015-03-14T15:00:41Z</time>
      </trkpt>
      <trkpt lat="40.222617" lon="-4.934250">
        <ele>1642.0</ele>
        <time>2015-03-14T15:00:42Z</time>
      </trkpt>
      <trkpt lat="40.222583" lon="-4.934350">
        <ele>1642.0</ele>
        <time>2015-03-14T15:00:43Z</time>
      </trkpt>
      <trkpt lat="40.222517" lon="-4.934467">
        <ele>1643.0</ele>
        <time>2015-03-14T15:00:44Z</time>
      </trkpt>
      <trkpt lat="40.222450" lon="-4.934550">
        <ele>1644.0</ele>
        <time>2015-03-14T15:00:45Z</time>
      </trkpt>
      <trkpt lat="40.222350" lon="-4.934633">
        <ele>1646.0</ele>
        <time>2015-03-14T15:00:46Z</time>
      </trkpt>
      <trkpt lat="40.222267" lon="-4.934683">
        <ele>1647.0</ele>
        <time>2015-03-14T15:00:47Z</time>
      </trkpt>
      <trkpt lat="40.222150" lon="-4.934733">
        <ele>1648.0</ele>
        <time>2015-03-14T15:00:48Z</time>
      </trkpt>
      <trkpt lat="40.222050" lon="-4.934733">
        <ele>1649.0</ele>
        <time>2015-03-14T15:00:49Z</time>
      </trkpt>
      <trkpt lat="40.221933" lon="-4.934733">
        <ele>1650.0</ele>
        <time>2015-03-14T15:00:50Z</time>
      </trkpt>
      <trkpt lat="40.221833" lon="-4.934683">
        <ele>1652.0</ele>
        <time>2015-03-14T15:00:51Z</time>
      </trkpt>
      <trkpt lat="40.221750" lon="-4.934617">
        <ele>1654.0</ele>
        <time>2015-03-14T15:00:52Z</time>
      </trkpt>
      <trkpt lat="40.221683" lon="-4.934517">
        <ele>1656.0</ele>
        <time>2015-03-14T15:00:53Z</time>
      </trkpt>
      <trkpt lat="40.221633" lon="-4.934433">
        <ele>1657.0</ele>
        <time>2015-03-14T15:00:54Z</time>
      </trkpt>
      <trkpt lat="40.221583" lon="-4.934317">
        <ele>1659.0</ele>
        <time>2015-03-14T15:00:55Z</time>
      </trkpt>
      <trkpt lat="40.221550" lon="-4.934217">
        <ele>1660.0</ele>
        <time>2015-03-14T15:00:56Z</time>
      </trkpt>
      <trkpt lat="40.221533" lon="-4.934100">
        <ele>1662.0</ele>
        <time>2015-03-14T15:00:57Z</time>
      </trkpt>
      <trkpt lat="40.221533" lon="-4.933983">
        <ele>1663.0</ele>
        <time>2015-03-14T15:00:58Z</time>
      </trkpt>
      <trkpt lat="40.221567" lon="-4.933883">
        <ele>1664.0</ele>
        <time>2015-03-14T15:00:59Z</time>
      </trkpt>
      <trkpt lat="40.221617" lon="-4.933783">
        <ele>1664.0</ele>
        <time>2015-03-14T15:01:00Z</time>
      </trkpt>
      <trkpt lat="40.221667" lon="-4.933717">
        <ele>1665.0</ele>
        <time>2015-03-14T15:01:01Z</time>
      </trkpt>
      <trkpt lat="40.221733" lon="-4.933650">
        <ele>1665.0</ele>
        <time>2015-03-14T15:01:02Z</time>
      </trkpt>
      <trkpt lat="40.221800" lon="-4.933617">
        <ele>1665.0</ele>
        <time>2015-03-14T15:01:03Z</time>
      </trkpt>
      <trkpt lat="40.221883" lon="-4.933617">
        <ele>1666.0</ele>
        <time>2015-03-14T15:01:04Z</time>
      </trkpt>
      <trkpt lat="40.221950" lon="-4.933633">
        <ele>1667.0</ele>
        <time>2015-03-14T15:01:05Z</time>
      </trkpt>
      <trkpt lat="40.222017" lon="-4.933667">
        <ele>1668.0</ele>
        <time>2015-03-14T15:01:06Z</time>
      </trkpt>
      <trkpt lat="40.222083" lon="-4.933733">
        <ele>1669.0</ele>
        <time>2015-03-14T15:01:07Z</time>
      </trkpt>
      <trkpt lat="40.222100" lon="-4.933817">
        <ele>1670.0</ele>
        <time>2015-03-14T15:01:08Z</time>
      </trkpt>
      <trkpt lat="40.222117" lon="-4.933900">
        <ele>1671.0</ele>
        <time>2015-03-14T15:01:09Z</time>
      </trkpt>
      <trkpt lat="40.222117" lon="-4.934000">
        <ele>1672.0</ele>
        <time>2015-03-14T15:01:10Z</time>
      </trkpt>
      <trkpt lat="40.222100" lon="-4.934100">
        <ele>1673.0</ele>
        <time>2015-03-14T15:01:11Z</time>
      </trkpt>
      <trkpt lat="40.222067" lon="-4.934200">
        <ele>1673.0</ele>
        <time>2015-03-14T15:01:12Z</time>
      </trkpt>
      <trkpt lat="40.222017" lon="-4.934317">
        <ele>1674.0</ele>
        <time>2015-03-14T15:01:13Z</time>
      </trkpt>
      <trkpt lat="40.221950" lon="-4.934433">
        <ele>1674.0</ele>
        <time>2015-03-14T15:01:14Z</time>
      </trkpt>
      <trkpt lat="40.221867" lon="-4.934517">
        <ele>1676.0</ele>
        <time>2015-03-14T15:01:15Z</time>
      </trkpt>
      <trkpt lat="40.221767" lon="-4.934583">
        <ele>1678.0</ele>
        <time>2015-03-14T15:01:16Z</time>
      </trkpt>
      <trkpt lat="40.221650" lon="-4.934617">
        <ele>1679.0</ele>
        <time>2015-03-14T15:01:17Z</time>
      </trkpt>
      <trkpt lat="40.221550" lon="-4.934617">
        <ele>1680.0</ele>
        <time>2015-03-14T15:01:18Z</time>
      </trkpt>
      <trkpt lat="40.221433" lon="-4.934583">
        <ele>1680.0</ele>
        <time>2015-03-14T15:01:19Z</time>
      </trkpt>
      <trkpt lat="40.221333" lon="-4.934517">
        <ele>1680.0</ele>
        <time>2015-03-14T15:01:20Z</time>
      </trkpt>
      <trkpt lat="40.221250" lon="-4.934417">
        <ele>1681.0</ele>
        <time>2015-03-14T15:01:21Z</time>
      </trkpt>
      <trkpt lat="40.221167" lon="-4.934317">
        <ele>1682.0</ele>
        <time>2015-03-14T15:01:22Z</time>
      </trkpt>
      <trkpt lat="40.221133" lon="-4.934200">
        <ele>1683.0</ele>
        <time>2015-03-14T15:01:23Z</time>
      </trkpt>
      <trkpt lat="40.221117" lon="-4.934067">
        <ele>1682.0</ele>
        <time>2015-03-14T15:01:24Z</time>
      </trkpt>
      <trkpt lat="40.221117" lon="-4.933950">
        <ele>1681.0</ele>
        <time>2015-03-14T15:01:25Z</time>
      </trkpt>
      <trkpt lat="40.221150" lon="-4.933833">
        <ele>1680.0</ele>
        <time>2015-03-14T15:01:26Z</time>
      </trkpt>
      <trkpt lat="40.221217" lon="-4.933733">
        <ele>1679.0</ele>
        <time>2015-03-14T15:01:27Z</time>
      </trkpt>
      <trkpt lat="40.221283" lon="-4.933650">
        <ele>1680.0</ele>
        <time>2015-03-14T15:01:28Z</time>
      </trkpt>
      <trkpt lat="40.221350" lon="-4.933600">
        <ele>1680.0</ele>
        <time>2015-03-14T15:01:29Z</time>
      </trkpt>
      <trkpt lat="40.221417" lon="-4.933567">
        <ele>1681.0</ele>
        <time>2015-03-14T15:01:30Z</time>
      </trkpt>
      <trkpt lat="40.221483" lon="-4.933567">
        <ele>1682.0</ele>
        <time>2015-03-14T15:01:31Z</time>
      </trkpt>
      <trkpt lat="40.221533" lon="-4.933600">
        <ele>1682.0</ele>
        <time>2015-03-14T15:01:32Z</time>
      </trkpt>
      <trkpt lat="40.221583" lon="-4.933667">
        <ele>1682.0</ele>
        <time>2015-03-14T15:01:33Z</time>
      </trkpt>
      <trkpt lat="40.221633" lon="-4.933750">
        <ele>1683.0</ele>
        <time>2015-03-14T15:01:34Z</time>
      </trkpt>
      <trkpt lat="40.221667" lon="-4.933850">
        <ele>1684.0</ele>
        <time>2015-03-14T15:01:35Z</time>
      </trkpt>
      <trkpt lat="40.221700" lon="-4.933950">
        <ele>1686.0</ele>
        <time>2015-03-14T15:01:36Z</time>
      </trkpt>
      <trkpt lat="40.221733" lon="-4.934050">
        <ele>1688.0</ele>
        <time>2015-03-14T15:01:37Z</time>
      </trkpt>
      <trkpt lat="40.221767" lon="-4.934133">
        <ele>1691.0</ele>
        <time>2015-03-14T15:01:38Z</time>
      </trkpt>
      <trkpt lat="40.221783" lon="-4.934233">
        <ele>1694.0</ele>
        <time>2015-03-14T15:01:39Z</time>
      </trkpt>
      <trkpt lat="40.221783" lon="-4.934333">
        <ele>1697.0</ele>
        <time>2015-03-14T15:01:40Z</time>
      </trkpt>
      <trkpt lat="40.221767" lon="-4.934433">
        <ele>1699.0</ele>
        <time>2015-03-14T15:01:41Z</time>
      </trkpt>
      <trkpt lat="40.221717" lon="-4.934533">
        <ele>1701.0</ele>
        <time>2015-03-14T15:01:42Z</time>
      </trkpt>
      <trkpt lat="40.221633" lon="-4.934633">
        <ele>1702.0</ele>
        <time>2015-03-14T15:01:43Z</time>
      </trkpt>
      <trkpt lat="40.221533" lon="-4.934700">
        <ele>1704.0</ele>
        <time>2015-03-14T15:01:44Z</time>
      </trkpt>
      <trkpt lat="40.221433" lon="-4.934750">
        <ele>1705.0</ele>
        <time>2015-03-14T15:01:45Z</time>
      </trkpt>
      <trkpt lat="40.221317" lon="-4.934733">
        <ele>1706.0</ele>
        <time>2015-03-14T15:01:46Z</time>
      </trkpt>
      <trkpt lat="40.221217" lon="-4.934683">
        <ele>1706.0</ele>
        <time>2015-03-14T15:01:47Z</time>
      </trkpt>
      <trkpt lat="40.221133" lon="-4.934583">
        <ele>1705.0</ele>
        <time>2015-03-14T15:01:48Z</time>
      </trkpt>
      <trkpt lat="40.221067" lon="-4.934467">
        <ele>1706.0</ele>
        <time>2015-03-14T15:01:49Z</time>
      </trkpt>
      <trkpt lat="40.221033" lon="-4.934333">
        <ele>1707.0</ele>
        <time>2015-03-14T15:01:50Z</time>
      </trkpt>
      <trkpt lat="40.221017" lon="-4.934217">
        <ele>1708.0</ele>
        <time>2015-03-14T15:01:51Z</time>
      </trkpt>
      <trkpt lat="40.221017" lon="-4.934100">
        <ele>1708.0</ele>
        <time>2015-03-14T15:01:52Z</time>
      </trkpt>
      <trkpt lat="40.221067" lon="-4.933983">
        <ele>1707.0</ele>
        <time>2015-03-14T15:01:53Z</time>
      </trkpt>
      <trkpt lat="40.221117" lon="-4.933900">
        <ele>1706.0</ele>
        <time>2015-03-14T15:01:54Z</time>
      </trkpt>
      <trkpt lat="40.221200" lon="-4.933850">
        <ele>1705.0</ele>
        <time>2015-03-14T15:01:55Z</time>
      </trkpt>
      <trkpt lat="40.221300" lon="-4.933850">
        <ele>1706.0</ele>
        <time>2015-03-14T15:01:56Z</time>
      </trkpt>
      <trkpt lat="40.221383" lon="-4.933867">
        <ele>1707.0</ele>
        <time>2015-03-14T15:01:57Z</time>
      </trkpt>
      <trkpt lat="40.221450" lon="-4.933883">
        <ele>1711.0</ele>
        <time>2015-03-14T15:01:58Z</time>
      </trkpt>
      <trkpt lat="40.221517" lon="-4.933900">
        <ele>1714.0</ele>
        <time>2015-03-14T15:01:59Z</time>
      </trkpt>
      <trkpt lat="40.221583" lon="-4.933900">
        <ele>1718.0</ele>
        <time>2015-03-14T15:02:00Z</time>
      </trkpt>
      <trkpt lat="40.221650" lon="-4.933900">
        <ele>1720.0</ele>
        <time>2015-03-14T15:02:01Z</time>
      </trkpt>
      <trkpt lat="40.221717" lon="-4.933917">
        <ele>1723.0</ele>
        <time>2015-03-14T15:02:02Z</time>
      </trkpt>
      <trkpt lat="40.221767" lon="-4.933967">
        <ele>1724.0</ele>
        <time>2015-03-14T15:02:03Z</time>
      </trkpt>
      <trkpt lat="40.221817" lon="-4.934017">
        <ele>1727.0</ele>
        <time>2015-03-14T15:02:04Z</time>
      </trkpt>
      <trkpt lat="40.221867" lon="-4.934083">
        <ele>1730.0</ele>
        <time>2015-03-14T15:02:05Z</time>
      </trkpt>
      <trkpt lat="40.221917" lon="-4.934167">
        <ele>1733.0</ele>
        <time>2015-03-14T15:02:06Z</time>
      </trkpt>
      <trkpt lat="40.221950" lon="-4.934217">
        <ele>1737.0</ele>
        <time>2015-03-14T15:02:07Z</time>
      </trkpt>
      <trkpt lat="40.221983" lon="-4.934283">
        <ele>1740.0</ele>
        <time>2015-03-14T15:02:08Z</time>
      </trkpt>
      <trkpt lat="40.222000" lon="-4.934367">
        <ele>1742.0</ele>
        <time>2015-03-14T15:02:09Z</time>
      </trkpt>
      <trkpt lat="40.222033" lon="-4.934450">
        <ele>1744.0</ele>
        <time>2015-03-14T15:02:10Z</time>
      </trkpt>
      <trkpt lat="40.222033" lon="-4.934550">
        <ele>1746.0</ele>
        <time>2015-03-14T15:02:11Z</time>
      </trkpt>
      <trkpt lat="40.222033" lon="-4.934650">
        <ele>1749.0</ele>
        <time>2015-03-14T15:02:12Z</time>
      </trkpt>
      <trkpt lat="40.222017" lon="-4.934750">
        <ele>1753.0</ele>
        <time>2015-03-14T15:02:13Z</time>
      </trkpt>
      <trkpt lat="40.221983" lon="-4.934850">
        <ele>1756.0</ele>
        <time>2015-03-14T15:02:14Z</time>
      </trkpt>
      <trkpt lat="40.221917" lon="-4.934917">
        <ele>1759.0</ele>
        <time>2015-03-14T15:02:15Z</time>
      </trkpt>
      <trkpt lat="40.221850" lon="-4.934983">
        <ele>1760.0</ele>
        <time>2015-03-14T15:02:16Z</time>
      </trkpt>
      <trkpt lat="40.221750" lon="-4.935017">
        <ele>1760.0</ele>
        <time>2015-03-14T15:02:17Z</time>
      </trkpt>
      <trkpt lat="40.221633" lon="-4.935033">
        <ele>1761.0</ele>
        <time>2015-03-14T15:02:18Z</time>
      </trkpt>
      <trkpt lat="40.221517" lon="-4.935017">
        <ele>1762.0</ele>
        <time>2015-03-14T15:02:19Z</time>
      </trkpt>
      <trkpt lat="40.221400" lon="-4.934967">
        <ele>1763.0</ele>
        <time>2015-03-14T15:02:20Z</time>
      </trkpt>
      <trkpt lat="40.221317" lon="-4.934900">
        <ele>1764.0</ele>
        <time>2015-03-14T15:02:21Z</time>
      </trkpt>
      <trkpt lat="40.221233" lon="-4.934817">
        <ele>1766.0</ele>
        <time>2015-03-14T15:02:22Z</time>
      </trkpt>
      <trkpt lat="40.221150" lon="-4.934717">
        <ele>1768.0</ele>
        <time>2015-03-14T15:02:23Z</time>
      </trkpt>
      <trkpt lat="40.221083" lon="-4.934583">
        <ele>1770.0</ele>
        <time>2015-03-14T15:02:24Z</time>
      </trkpt>
      <trkpt lat="40.221033" lon="-4.934450">
        <ele>1772.0</ele>
        <time>2015-03-14T15:02:25Z</time>
      </trkpt>
      <trkpt lat="40.221000" lon="-4.934300">
        <ele>1775.0</ele>
        <time>2015-03-14T15:02:26Z</time>
      </trkpt>
      <trkpt lat="40.221000" lon="-4.934167">
        <ele>1777.0</ele>
        <time>2015-03-14T15:02:27Z</time>
      </trkpt>
      <trkpt lat="40.221000" lon="-4.934033">
        <ele>1780.0</ele>
        <time>2015-03-14T15:02:28Z</time>
      </trkpt>
      <trkpt lat="40.221033" lon="-4.933917">
        <ele>1783.0</ele>
        <time>2015-03-14T15:02:29Z</time>
      </trkpt>
      <trkpt lat="40.221083" lon="-4.933833">
        <ele>1785.0</ele>
        <time>2015-03-14T15:02:30Z</time>
      </trkpt>
      <trkpt lat="40.221133" lon="-4.933750">
        <ele>1787.0</ele>
        <time>2015-03-14T15:02:31Z</time>
      </trkpt>
      <trkpt lat="40.221200" lon="-4.933700">
        <ele>1789.0</ele>
        <time>2015-03-14T15:02:32Z</time>
      </trkpt>
      <trkpt lat="40.221250" lon="-4.933667">
        <ele>1791.0</ele>
        <time>2015-03-14T15:02:33Z</time>
      </trkpt>
      <trkpt lat="40.221300" lon="-4.933683">
        <ele>1792.0</ele>
        <time>2015-03-14T15:02:34Z</time>
      </trkpt>
      <trkpt lat="40.221333" lon="-4.933717">
        <ele>1792.0</ele>
        <time>2015-03-14T15:02:35Z</time>
      </trkpt>
      <trkpt lat="40.221383" lon="-4.933783">
        <ele>1792.0</ele>
        <time>2015-03-14T15:02:36Z</time>
      </trkpt>
      <trkpt lat="40.221400" lon="-4.933883">
        <ele>1793.0</ele>
        <time>2015-03-14T15:02:37Z</time>
      </trkpt>
      <trkpt lat="40.221417" lon="-4.934000">
        <ele>1795.0</ele>
        <time>2015-03-14T15:02:38Z</time>
      </trkpt>
      <trkpt lat="40.221417" lon="-4.934100">
        <ele>1798.0</ele>
        <time>2015-03-14T15:02:39Z</time>
      </trkpt>
      <trkpt lat="40.221417" lon="-4.934200">
        <ele>1800.0</ele>
        <time>2015-03-14T15:02:40Z</time>
      </trkpt>
      <trkpt lat="40.221417" lon="-4.934300">
        <ele>1803.0</ele>
        <time>2015-03-14T15:02:41Z</time>
      </trkpt>
      <trkpt lat="40.221400" lon="-4.934400">
        <ele>1805.0</ele>
        <time>2015-03-14T15:02:42Z</time>
      </trkpt>
      <trkpt lat="40.221383" lon="-4.934483">
        <ele>1806.0</ele>
        <time>2015-03-14T15:02:43Z</time>
      </trkpt>
      <trkpt lat="40.221317" lon="-4.934583">
        <ele>1807.0</ele>
        <time>2015-03-14T15:02:44Z</time>
      </trkpt>
      <trkpt lat="40.221233" lon="-4.934650">
        <ele>1806.0</ele>
        <time>2015-03-14T15:02:45Z</time>
      </trkpt>
      <trkpt lat="40.221117" lon="-4.934683">
        <ele>1806.0</ele>
        <time>2015-03-14T15:02:46Z</time>
      </trkpt>
      <trkpt lat="40.221017" lon="-4.934717">
        <ele>1807.0</ele>
        <time>2015-03-14T15:02:47Z</time>
      </trkpt>
      <trkpt lat="40.220900" lon="-4.934717">
        <ele>1807.0</ele>
        <time>2015-03-14T15:02:48Z</time>
      </trkpt>
      <trkpt lat="40.220800" lon="-4.934683">
        <ele>1808.0</ele>
        <time>2015-03-14T15:02:49Z</time>
      </trkpt>
      <trkpt lat="40.220683" lon="-4.934617">
        <ele>1808.0</ele>
        <time>2015-03-14T15:02:50Z</time>
      </trkpt>
      <trkpt lat="40.220600" lon="-4.934500">
        <ele>1807.0</ele>
        <time>2015-03-14T15:02:51Z</time>
      </trkpt>
      <trkpt lat="40.220533" lon="-4.934333">
        <ele>1807.0</ele>
        <time>2015-03-14T15:02:52Z</time>
      </trkpt>
      <trkpt lat="40.220483" lon="-4.934167">
        <ele>1808.0</ele>
        <time>2015-03-14T15:02:53Z</time>
      </trkpt>
      <trkpt lat="40.220467" lon="-4.934017">
        <ele>1811.0</ele>
        <time>2015-03-14T15:02:54Z</time>
      </trkpt>
      <trkpt lat="40.220450" lon="-4.933867">
        <ele>1815.0</ele>
        <time>2015-03-14T15:02:55Z</time>
      </trkpt>
      <trkpt lat="40.220450" lon="-4.933750">
        <ele>1815.0</ele>
        <time>2015-03-14T15:02:56Z</time>
      </trkpt>
      <trkpt lat="40.220467" lon="-4.933633">
        <ele>1815.0</ele>
        <time>2015-03-14T15:02:57Z</time>
      </trkpt>
      <trkpt lat="40.220483" lon="-4.933517">
        <ele>1814.0</ele>
        <time>2015-03-14T15:02:58Z</time>
      </trkpt>
      <trkpt lat="40.220533" lon="-4.933433">
        <ele>1812.0</ele>
        <time>2015-03-14T15:02:59Z</time>
      </trkpt>
      <trkpt lat="40.220600" lon="-4.933367">
        <ele>1810.0</ele>
        <time>2015-03-14T15:03:00Z</time>
      </trkpt>
      <trkpt lat="40.220683" lon="-4.933350">
        <ele>1808.0</ele>
        <time>2015-03-14T15:03:01Z</time>
      </trkpt>
      <trkpt lat="40.220767" lon="-4.933383">
        <ele>1808.0</ele>
        <time>2015-03-14T15:03:02Z</time>
      </trkpt>
      <trkpt lat="40.220850" lon="-4.933450">
        <ele>1808.0</ele>
        <time>2015-03-14T15:03:03Z</time>
      </trkpt>
      <trkpt lat="40.220917" lon="-4.933533">
        <ele>1810.0</ele>
        <time>2015-03-14T15:03:04Z</time>
      </trkpt>
      <trkpt lat="40.220967" lon="-4.933633">
        <ele>1812.0</ele>
        <time>2015-03-14T15:03:05Z</time>
      </trkpt>
      <trkpt lat="40.221000" lon="-4.933733">
        <ele>1815.0</ele>
        <time>2015-03-14T15:03:06Z</time>
      </trkpt>
      <trkpt lat="40.221033" lon="-4.933817">
        <ele>1818.0</ele>
        <time>2015-03-14T15:03:07Z</time>
      </trkpt>
      <trkpt lat="40.221050" lon="-4.933900">
        <ele>1819.0</ele>
        <time>2015-03-14T15:03:08Z</time>
      </trkpt>
      <trkpt lat="40.221067" lon="-4.934000">
        <ele>1820.0</ele>
        <time>2015-03-14T15:03:09Z</time>
      </trkpt>
      <trkpt lat="40.221067" lon="-4.934117">
        <ele>1819.0</ele>
        <time>2015-03-14T15:03:10Z</time>
      </trkpt>
      <trkpt lat="40.221083" lon="-4.934233">
        <ele>1819.0</ele>
        <time>2015-03-14T15:03:11Z</time>
      </trkpt>
      <trkpt lat="40.221083" lon="-4.934367">
        <ele>1818.0</ele>
        <time>2015-03-14T15:03:12Z</time>
      </trkpt>
      <trkpt lat="40.221067" lon="-4.934500">
        <ele>1819.0</ele>
        <time>2015-03-14T15:03:13Z</time>
      </trkpt>
      <trkpt lat="40.221067" lon="-4.934617">
        <ele>1821.0</ele>
        <time>2015-03-14T15:03:14Z</time>
      </trkpt>
      <trkpt lat="40.221067" lon="-4.934750">
        <ele>1823.0</ele>
        <time>2015-03-14T15:03:15Z</time>
      </trkpt>
      <trkpt lat="40.221083" lon="-4.934867">
        <ele>1825.0</ele>
        <time>2015-03-14T15:03:16Z</time>
      </trkpt>
      <trkpt lat="40.221083" lon="-4.934967">
        <ele>1826.0</ele>
        <time>2015-03-14T15:03:17Z</time>
      </trkpt>
      <trkpt lat="40.221100" lon="-4.935100">
        <ele>1827.0</ele>
        <time>2015-03-14T15:03:18Z</time>
      </trkpt>
      <trkpt lat="40.221100" lon="-4.935233">
        <ele>1829.0</ele>
        <time>2015-03-14T15:03:19Z</time>
      </trkpt>
      <trkpt lat="40.221083" lon="-4.935350">
        <ele>1831.0</ele>
        <time>2015-03-14T15:03:20Z</time>
      </trkpt>
      <trkpt lat="40.221050" lon="-4.935467">
        <ele>1834.0</ele>
        <time>2015-03-14T15:03:21Z</time>
      </trkpt>
      <trkpt lat="40.220983" lon="-4.935567">
        <ele>1835.0</ele>
        <time>2015-03-14T15:03:22Z</time>
      </trkpt>
      <trkpt lat="40.220900" lon="-4.935633">
        <ele>1836.0</ele>
        <time>2015-03-14T15:03:23Z</time>
      </trkpt>
      <trkpt lat="40.220783" lon="-4.935683">
        <ele>1836.0</ele>
        <time>2015-03-14T15:03:24Z</time>
      </trkpt>
      <trkpt lat="40.220650" lon="-4.935683">
        <ele>1836.0</ele>
        <time>2015-03-14T15:03:25Z</time>
      </trkpt>
      <trkpt lat="40.220533" lon="-4.935667">
        <ele>1837.0</ele>
        <time>2015-03-14T15:03:26Z</time>
      </trkpt>
      <trkpt lat="40.220417" lon="-4.935600">
        <ele>1838.0</ele>
        <time>2015-03-14T15:03:27Z</time>
      </trkpt>
      <trkpt lat="40.220317" lon="-4.935517">
        <ele>1840.0</ele>
        <time>2015-03-14T15:03:28Z</time>
      </trkpt>
      <trkpt lat="40.220233" lon="-4.935417">
        <ele>1842.0</ele>
        <time>2015-03-14T15:03:29Z</time>
      </trkpt>
      <trkpt lat="40.220183" lon="-4.935300">
        <ele>1843.0</ele>
        <time>2015-03-14T15:03:30Z</time>
      </trkpt>
      <trkpt lat="40.220167" lon="-4.935167">
        <ele>1844.0</ele>
        <time>2015-03-14T15:03:31Z</time>
      </trkpt>
      <trkpt lat="40.220150" lon="-4.935033">
        <ele>1845.0</ele>
        <time>2015-03-14T15:03:32Z</time>
      </trkpt>
      <trkpt lat="40.220183" lon="-4.934933">
        <ele>1847.0</ele>
        <time>2015-03-14T15:03:33Z</time>
      </trkpt>
      <trkpt lat="40.220217" lon="-4.934833">
        <ele>1848.0</ele>
        <time>2015-03-14T15:03:34Z</time>
      </trkpt>
      <trkpt lat="40.220267" lon="-4.934783">
        <ele>1849.0</ele>
        <time>2015-03-14T15:03:35Z</time>
      </trkpt>
      <trkpt lat="40.220317" lon="-4.934750">
        <ele>1849.0</ele>
        <time>2015-03-14T15:03:36Z</time>
      </trkpt>
      <trkpt lat="40.220383" lon="-4.934733">
        <ele>1849.0</ele>
        <time>2015-03-14T15:03:37Z</time>
      </trkpt>
      <trkpt lat="40.220450" lon="-4.934750">
        <ele>1849.0</ele>
        <time>2015-03-14T15:03:38Z</time>
      </trkpt>
      <trkpt lat="40.220517" lon="-4.934800">
        <ele>1849.0</ele>
        <time>2015-03-14T15:03:39Z</time>
      </trkpt>
      <trkpt lat="40.220583" lon="-4.934867">
        <ele>1850.0</ele>
        <time>2015-03-14T15:03:40Z</time>
      </trkpt>
      <trkpt lat="40.220633" lon="-4.934967">
        <ele>1852.0</ele>
        <time>2015-03-14T15:03:41Z</time>
      </trkpt>
      <trkpt lat="40.220667" lon="-4.935050">
        <ele>1854.0</ele>
        <time>2015-03-14T15:03:42Z</time>
      </trkpt>
      <trkpt lat="40.220717" lon="-4.935133">
        <ele>1855.0</ele>
        <time>2015-03-14T15:03:43Z</time>
      </trkpt>
      <trkpt lat="40.220750" lon="-4.935233">
        <ele>1855.0</ele>
        <time>2015-03-14T15:03:44Z</time>
      </trkpt>
      <trkpt lat="40.220800" lon="-4.935333">
        <ele>1856.0</ele>
        <time>2015-03-14T15:03:45Z</time>
      </trkpt>
      <trkpt lat="40.220850" lon="-4.935433">
        <ele>1857.0</ele>
        <time>2015-03-14T15:03:46Z</time>
      </trkpt>
      <trkpt lat="40.220867" lon="-4.935550">
        <ele>1860.0</ele>
        <time>2015-03-14T15:03:47Z</time>
      </trkpt>
      <trkpt lat="40.220867" lon="-4.935650">
        <ele>1863.0</ele>
        <time>2015-03-14T15:03:48Z</time>
      </trkpt>
      <trkpt lat="40.220850" lon="-4.935750">
        <ele>1864.0</ele>
        <time>2015-03-14T15:03:49Z</time>
      </trkpt>
      <trkpt lat="40.220817" lon="-4.935850">
        <ele>1865.0</ele>
        <time>2015-03-14T15:03:50Z</time>
      </trkpt>
      <trkpt lat="40.220767" lon="-4.935967">
        <ele>1864.0</ele>
        <time>2015-03-14T15:03:51Z</time>
      </trkpt>
      <trkpt lat="40.220700" lon="-4.936050">
        <ele>1864.0</ele>
        <time>2015-03-14T15:03:52Z</time>
      </trkpt>
      <trkpt lat="40.220600" lon="-4.936133">
        <ele>1863.0</ele>
        <time>2015-03-14T15:03:53Z</time>
      </trkpt>
      <trkpt lat="40.220500" lon="-4.936183">
        <ele>1864.0</ele>
        <time>2015-03-14T15:03:54Z</time>
      </trkpt>
      <trkpt lat="40.220383" lon="-4.936183">
        <ele>1865.0</ele>
        <time>2015-03-14T15:03:55Z</time>
      </trkpt>
      <trkpt lat="40.220300" lon="-4.936167">
        <ele>1866.0</ele>
        <time>2015-03-14T15:03:56Z</time>
      </trkpt>
      <trkpt lat="40.220217" lon="-4.936117">
        <ele>1866.0</ele>
        <time>2015-03-14T15:03:57Z</time>
      </trkpt>
      <trkpt lat="40.220133" lon="-4.936033">
        <ele>1865.0</ele>
        <time>2015-03-14T15:03:58Z</time>
      </trkpt>
      <trkpt lat="40.220067" lon="-4.935933">
        <ele>1863.0</ele>
        <time>2015-03-14T15:03:59Z</time>
      </trkpt>
      <trkpt lat="40.220000" lon="-4.935817">
        <ele>1862.0</ele>
        <time>2015-03-14T15:04:00Z</time>
      </trkpt>
      <trkpt lat="40.219983" lon="-4.935667">
        <ele>1861.0</ele>
        <time>2015-03-14T15:04:01Z</time>
      </trkpt>
      <trkpt lat="40.219983" lon="-4.935517">
        <ele>1862.0</ele>
        <time>2015-03-14T15:04:02Z</time>
      </trkpt>
      <trkpt lat="40.220000" lon="-4.935383">
        <ele>1863.0</ele>
        <time>2015-03-14T15:04:03Z</time>
      </trkpt>
      <trkpt lat="40.220050" lon="-4.935300">
        <ele>1866.0</ele>
        <time>2015-03-14T15:04:04Z</time>
      </trkpt>
      <trkpt lat="40.220100" lon="-4.935250">
        <ele>1868.0</ele>
        <time>2015-03-14T15:04:05Z</time>
      </trkpt>
      <trkpt lat="40.220150" lon="-4.935217">
        <ele>1870.0</ele>
        <time>2015-03-14T15:04:06Z</time>
      </trkpt>
      <trkpt lat="40.220217" lon="-4.935217">
        <ele>1870.0</ele>
        <time>2015-03-14T15:04:07Z</time>
      </trkpt>
      <trkpt lat="40.220267" lon="-4.935217">
        <ele>1871.0</ele>
        <time>2015-03-14T15:04:08Z</time>
      </trkpt>
      <trkpt lat="40.220333" lon="-4.935250">
        <ele>1871.0</ele>
        <time>2015-03-14T15:04:09Z</time>
      </trkpt>
      <trkpt lat="40.220400" lon="-4.935317">
        <ele>1871.0</ele>
        <time>2015-03-14T15:04:10Z</time>
      </trkpt>
      <trkpt lat="40.220467" lon="-4.935383">
        <ele>1872.0</ele>
        <time>2015-03-14T15:04:11Z</time>
      </trkpt>
      <trkpt lat="40.220517" lon="-4.935500">
        <ele>1873.0</ele>
        <time>2015-03-14T15:04:12Z</time>
      </trkpt>
      <trkpt lat="40.220550" lon="-4.935617">
        <ele>1876.0</ele>
        <time>2015-03-14T15:04:13Z</time>
      </trkpt>
      <trkpt lat="40.220583" lon="-4.935717">
        <ele>1879.0</ele>
        <time>2015-03-14T15:04:14Z</time>
      </trkpt>
      <trkpt lat="40.220600" lon="-4.935783">
        <ele>1881.0</ele>
        <time>2015-03-14T15:04:15Z</time>
      </trkpt>
      <trkpt lat="40.220633" lon="-4.935850">
        <ele>1882.0</ele>
        <time>2015-03-14T15:04:16Z</time>
      </trkpt>
      <trkpt lat="40.220650" lon="-4.935933">
        <ele>1881.0</ele>
        <time>2015-03-14T15:04:17Z</time>
      </trkpt>
      <trkpt lat="40.220683" lon="-4.936017">
        <ele>1880.0</ele>
        <time>2015-03-14T15:04:18Z</time>
      </trkpt>
      <trkpt lat="40.220700" lon="-4.936133">
        <ele>1878.0</ele>
        <time>2015-03-14T15:04:19Z</time>
      </trkpt>
      <trkpt lat="40.220733" lon="-4.936233">
        <ele>1877.0</ele>
        <time>2015-03-14T15:04:20Z</time>
      </trkpt>
      <trkpt lat="40.220767" lon="-4.936350">
        <ele>1877.0</ele>
        <time>2015-03-14T15:04:21Z</time>
      </trkpt>
      <trkpt lat="40.220800" lon="-4.936450">
        <ele>1877.0</ele>
        <time>2015-03-14T15:04:22Z</time>
      </trkpt>
      <trkpt lat="40.220817" lon="-4.936567">
        <ele>1877.0</ele>
        <time>2015-03-14T15:04:23Z</time>
      </trkpt>
      <trkpt lat="40.220833" lon="-4.936683">
        <ele>1877.0</ele>
        <time>2015-03-14T15:04:24Z</time>
      </trkpt>
      <trkpt lat="40.220817" lon="-4.936800">
        <ele>1878.0</ele>
        <time>2015-03-14T15:04:25Z</time>
      </trkpt>
      <trkpt lat="40.220817" lon="-4.936900">
        <ele>1879.0</ele>
        <time>2015-03-14T15:04:26Z</time>
      </trkpt>
      <trkpt lat="40.220800" lon="-4.937017">
        <ele>1879.0</ele>
        <time>2015-03-14T15:04:27Z</time>
      </trkpt>
      <trkpt lat="40.220800" lon="-4.937117">
        <ele>1879.0</ele>
        <time>2015-03-14T15:04:28Z</time>
      </trkpt>
      <trkpt lat="40.220800" lon="-4.937233">
        <ele>1878.0</ele>
        <time>2015-03-14T15:04:29Z</time>
      </trkpt>
      <trkpt lat="40.220800" lon="-4.937350">
        <ele>1878.0</ele>
        <time>2015-03-14T15:04:30Z</time>
      </trkpt>
      <trkpt lat="40.220783" lon="-4.937467">
        <ele>1877.0</ele>
        <time>2015-03-14T15:04:31Z</time>
      </trkpt>
      <trkpt lat="40.220767" lon="-4.937583">
        <ele>1876.0</ele>
        <time>2015-03-14T15:04:32Z</time>
      </trkpt>
      <trkpt lat="40.220717" lon="-4.937683">
        <ele>1874.0</ele>
        <time>2015-03-14T15:04:33Z</time>
      </trkpt>
      <trkpt lat="40.220667" lon="-4.937800">
        <ele>1872.0</ele>
        <time>2015-03-14T15:04:34Z</time>
      </trkpt>
      <trkpt lat="40.220617" lon="-4.937917">
        <ele>1869.0</ele>
        <time>2015-03-14T15:04:35Z</time>
      </trkpt>
      <trkpt lat="40.220550" lon="-4.938050">
        <ele>1867.0</ele>
        <time>2015-03-14T15:04:36Z</time>
      </trkpt>
      <trkpt lat="40.220500" lon="-4.938183">
        <ele>1867.0</ele>
        <time>2015-03-14T15:04:37Z</time>
      </trkpt>
      <trkpt lat="40.220450" lon="-4.938300">
        <ele>1868.0</ele>
        <time>2015-03-14T15:04:38Z</time>
      </trkpt>
      <trkpt lat="40.220400" lon="-4.938417">
        <ele>1868.0</ele>
        <time>2015-03-14T15:04:39Z</time>
      </trkpt>
      <trkpt lat="40.220350" lon="-4.938517">
        <ele>1868.0</ele>
        <time>2015-03-14T15:04:40Z</time>
      </trkpt>
      <trkpt lat="40.220283" lon="-4.938617">
        <ele>1866.0</ele>
        <time>2015-03-14T15:04:41Z</time>
      </trkpt>
      <trkpt lat="40.220217" lon="-4.938750">
        <ele>1865.0</ele>
        <time>2015-03-14T15:04:42Z</time>
      </trkpt>
      <trkpt lat="40.220150" lon="-4.938867">
        <ele>1865.0</ele>
        <time>2015-03-14T15:04:43Z</time>
      </trkpt>
      <trkpt lat="40.220083" lon="-4.938983">
        <ele>1866.0</ele>
        <time>2015-03-14T15:04:44Z</time>
      </trkpt>
      <trkpt lat="40.220017" lon="-4.939083">
        <ele>1867.0</ele>
        <time>2015-03-14T15:04:45Z</time>
      </trkpt>
      <trkpt lat="40.219967" lon="-4.939167">
        <ele>1869.0</ele>
        <time>2015-03-14T15:04:46Z</time>
      </trkpt>
      <trkpt lat="40.219917" lon="-4.939250">
        <ele>1869.0</ele>
        <time>2015-03-14T15:04:47Z</time>
      </trkpt>
      <trkpt lat="40.219850" lon="-4.939333">
        <ele>1869.0</ele>
        <time>2015-03-14T15:04:48Z</time>
      </trkpt>
      <trkpt lat="40.219817" lon="-4.939450">
        <ele>1869.0</ele>
        <time>2015-03-14T15:04:49Z</time>
      </trkpt>
      <trkpt lat="40.219767" lon="-4.939567">
        <ele>1868.0</ele>
        <time>2015-03-14T15:04:50Z</time>
      </trkpt>
      <trkpt lat="40.219717" lon="-4.939683">
        <ele>1868.0</ele>
        <time>2015-03-14T15:04:51Z</time>
      </trkpt>
      <trkpt lat="40.219667" lon="-4.939800">
        <ele>1867.0</ele>
        <time>2015-03-14T15:04:52Z</time>
      </trkpt>
      <trkpt lat="40.219617" lon="-4.939917">
        <ele>1867.0</ele>
        <time>2015-03-14T15:04:53Z</time>
      </trkpt>
      <trkpt lat="40.219550" lon="-4.940033">
        <ele>1866.0</ele>
        <time>2015-03-14T15:04:54Z</time>
      </trkpt>
      <trkpt lat="40.219500" lon="-4.940150">
        <ele>1865.0</ele>
        <time>2015-03-14T15:04:55Z</time>
      </trkpt>
      <trkpt lat="40.219450" lon="-4.940283">
        <ele>1864.0</ele>
        <time>2015-03-14T15:04:56Z</time>
      </trkpt>
      <trkpt lat="40.219400" lon="-4.940400">
        <ele>1863.0</ele>
        <time>2015-03-14T15:04:57Z</time>
      </trkpt>
      <trkpt lat="40.219333" lon="-4.940533">
        <ele>1863.0</ele>
        <time>2015-03-14T15:04:58Z</time>
      </trkpt>
      <trkpt lat="40.219283" lon="-4.940667">
        <ele>1863.0</ele>
        <time>2015-03-14T15:04:59Z</time>
      </trkpt>
      <trkpt lat="40.219217" lon="-4.940783">
        <ele>1863.0</ele>
        <time>2015-03-14T15:05:00Z</time>
      </trkpt>
      <trkpt lat="40.219183" lon="-4.940900">
        <ele>1863.0</ele>
        <time>2015-03-14T15:05:01Z</time>
      </trkpt>
      <trkpt lat="40.219133" lon="-4.941017">
        <ele>1862.0</ele>
        <time>2015-03-14T15:05:02Z</time>
      </trkpt>
      <trkpt lat="40.219083" lon="-4.941150">
        <ele>1861.0</ele>
        <time>2015-03-14T15:05:03Z</time>
      </trkpt>
      <trkpt lat="40.219017" lon="-4.941283">
        <ele>1860.0</ele>
        <time>2015-03-14T15:05:04Z</time>
      </trkpt>
      <trkpt lat="40.218967" lon="-4.941417">
        <ele>1860.0</ele>
        <time>2015-03-14T15:05:05Z</time>
      </trkpt>
      <trkpt lat="40.218900" lon="-4.941550">
        <ele>1860.0</ele>
        <time>2015-03-14T15:05:06Z</time>
      </trkpt>
      <trkpt lat="40.218833" lon="-4.941667">
        <ele>1860.0</ele>
        <time>2015-03-14T15:05:07Z</time>
      </trkpt>
      <trkpt lat="40.218783" lon="-4.941783">
        <ele>1860.0</ele>
        <time>2015-03-14T15:05:08Z</time>
      </trkpt>
      <trkpt lat="40.218733" lon="-4.941900">
        <ele>1859.0</ele>
        <time>2015-03-14T15:05:09Z</time>
      </trkpt>
      <trkpt lat="40.218683" lon="-4.942033">
        <ele>1858.0</ele>
        <time>2015-03-14T15:05:10Z</time>
      </trkpt>
      <trkpt lat="40.218617" lon="-4.942167">
        <ele>1859.0</ele>
        <time>2015-03-14T15:05:11Z</time>
      </trkpt>
      <trkpt lat="40.218567" lon="-4.942283">
        <ele>1859.0</ele>
        <time>2015-03-14T15:05:12Z</time>
      </trkpt>
      <trkpt lat="40.218500" lon="-4.942383">
        <ele>1861.0</ele>
        <time>2015-03-14T15:05:13Z</time>
      </trkpt>
      <trkpt lat="40.218433" lon="-4.942483">
        <ele>1861.0</ele>
        <time>2015-03-14T15:05:14Z</time>
      </trkpt>
      <trkpt lat="40.218383" lon="-4.942583">
        <ele>1861.0</ele>
        <time>2015-03-14T15:05:15Z</time>
      </trkpt>
      <trkpt lat="40.218350" lon="-4.942683">
        <ele>1860.0</ele>
        <time>2015-03-14T15:05:16Z</time>
      </trkpt>
      <trkpt lat="40.218300" lon="-4.942800">
        <ele>1858.0</ele>
        <time>2015-03-14T15:05:17Z</time>
      </trkpt>
      <trkpt lat="40.218250" lon="-4.942917">
        <ele>1856.0</ele>
        <time>2015-03-14T15:05:18Z</time>
      </trkpt>
      <trkpt lat="40.218183" lon="-4.943033">
        <ele>1855.0</ele>
        <time>2015-03-14T15:05:19Z</time>
      </trkpt>
      <trkpt lat="40.218117" lon="-4.943150">
        <ele>1853.0</ele>
        <time>2015-03-14T15:05:20Z</time>
      </trkpt>
      <trkpt lat="40.218050" lon="-4.943283">
        <ele>1852.0</ele>
        <time>2015-03-14T15:05:21Z</time>
      </trkpt>
      <trkpt lat="40.217983" lon="-4.943417">
        <ele>1852.0</ele>
        <time>2015-03-14T15:05:22Z</time>
      </trkpt>
      <trkpt lat="40.217950" lon="-4.943533">
        <ele>1851.0</ele>
        <time>2015-03-14T15:05:23Z</time>
      </trkpt>
      <trkpt lat="40.217900" lon="-4.943667">
        <ele>1849.0</ele>
        <time>2015-03-14T15:05:24Z</time>
      </trkpt>
      <trkpt lat="40.217833" lon="-4.943800">
        <ele>1847.0</ele>
        <time>2015-03-14T15:05:25Z</time>
      </trkpt>
      <trkpt lat="40.217783" lon="-4.943917">
        <ele>1845.0</ele>
        <time>2015-03-14T15:05:26Z</time>
      </trkpt>
      <trkpt lat="40.217717" lon="-4.944050">
        <ele>1843.0</ele>
        <time>2015-03-14T15:05:27Z</time>
      </trkpt>
      <trkpt lat="40.217650" lon="-4.944183">
        <ele>1842.0</ele>
        <time>2015-03-14T15:05:28Z</time>
      </trkpt>
      <trkpt lat="40.217583" lon="-4.944300">
        <ele>1840.0</ele>
        <time>2015-03-14T15:05:29Z</time>
      </trkpt>
      <trkpt lat="40.217517" lon="-4.944433">
        <ele>1838.0</ele>
        <time>2015-03-14T15:05:30Z</time>
      </trkpt>
      <trkpt lat="40.217467" lon="-4.944550">
        <ele>1836.0</ele>
        <time>2015-03-14T15:05:31Z</time>
      </trkpt>
      <trkpt lat="40.217400" lon="-4.944683">
        <ele>1834.0</ele>
        <time>2015-03-14T15:05:32Z</time>
      </trkpt>
      <trkpt lat="40.217333" lon="-4.944800">
        <ele>1831.0</ele>
        <time>2015-03-14T15:05:33Z</time>
      </trkpt>
      <trkpt lat="40.217250" lon="-4.944900">
        <ele>1829.0</ele>
        <time>2015-03-14T15:05:34Z</time>
      </trkpt>
      <trkpt lat="40.217167" lon="-4.945017">
        <ele>1827.0</ele>
        <time>2015-03-14T15:05:35Z</time>
      </trkpt>
      <trkpt lat="40.217100" lon="-4.945133">
        <ele>1824.0</ele>
        <time>2015-03-14T15:05:36Z</time>
      </trkpt>
      <trkpt lat="40.217050" lon="-4.945250">
        <ele>1821.0</ele>
        <time>2015-03-14T15:05:37Z</time>
      </trkpt>
      <trkpt lat="40.217000" lon="-4.945367">
        <ele>1818.0</ele>
        <time>2015-03-14T15:05:38Z</time>
      </trkpt>
      <trkpt lat="40.216933" lon="-4.945500">
        <ele>1815.0</ele>
        <time>2015-03-14T15:05:39Z</time>
      </trkpt>
      <trkpt lat="40.216867" lon="-4.945633">
        <ele>1812.0</ele>
        <time>2015-03-14T15:05:40Z</time>
      </trkpt>
      <trkpt lat="40.216800" lon="-4.945783">
        <ele>1809.0</ele>
        <time>2015-03-14T15:05:41Z</time>
      </trkpt>
      <trkpt lat="40.216750" lon="-4.945933">
        <ele>1806.0</ele>
        <time>2015-03-14T15:05:42Z</time>
      </trkpt>
      <trkpt lat="40.216700" lon="-4.946100">
        <ele>1804.0</ele>
        <time>2015-03-14T15:05:43Z</time>
      </trkpt>
      <trkpt lat="40.216667" lon="-4.946250">
        <ele>1803.0</ele>
        <time>2015-03-14T15:05:44Z</time>
      </trkpt>
      <trkpt lat="40.216617" lon="-4.946400">
        <ele>1802.0</ele>
        <time>2015-03-14T15:05:45Z</time>
      </trkpt>
      <trkpt lat="40.216567" lon="-4.946550">
        <ele>1801.0</ele>
        <time>2015-03-14T15:05:46Z</time>
      </trkpt>
      <trkpt lat="40.216483" lon="-4.946700">
        <ele>1799.0</ele>
        <time>2015-03-14T15:05:47Z</time>
      </trkpt>
      <trkpt lat="40.216433" lon="-4.946833">
        <ele>1798.0</ele>
        <time>2015-03-14T15:05:48Z</time>
      </trkpt>
      <trkpt lat="40.216383" lon="-4.946983">
        <ele>1796.0</ele>
        <time>2015-03-14T15:05:49Z</time>
      </trkpt>
      <trkpt lat="40.216333" lon="-4.947117">
        <ele>1796.0</ele>
        <time>2015-03-14T15:05:50Z</time>
      </trkpt>
      <trkpt lat="40.216267" lon="-4.947233">
        <ele>1796.0</ele>
        <time>2015-03-14T15:05:51Z</time>
      </trkpt>
      <trkpt lat="40.216200" lon="-4.947333">
        <ele>1795.0</ele>
        <time>2015-03-14T15:05:52Z</time>
      </trkpt>
      <trkpt lat="40.216117" lon="-4.947433">
        <ele>1795.0</ele>
        <time>2015-03-14T15:05:53Z</time>
      </trkpt>
      <trkpt lat="40.216050" lon="-4.947533">
        <ele>1793.0</ele>
        <time>2015-03-14T15:05:54Z</time>
      </trkpt>
      <trkpt lat="40.215983" lon="-4.947650">
        <ele>1791.0</ele>
        <time>2015-03-14T15:05:55Z</time>
      </trkpt>
      <trkpt lat="40.215933" lon="-4.947767">
        <ele>1789.0</ele>
        <time>2015-03-14T15:05:56Z</time>
      </trkpt>
      <trkpt lat="40.215867" lon="-4.947883">
        <ele>1787.0</ele>
        <time>2015-03-14T15:05:57Z</time>
      </trkpt>
      <trkpt lat="40.215817" lon="-4.948000">
        <ele>1786.0</ele>
        <time>2015-03-14T15:05:58Z</time>
      </trkpt>
      <trkpt lat="40.215750" lon="-4.948117">
        <ele>1786.0</ele>
        <time>2015-03-14T15:05:59Z</time>
      </trkpt>
      <trkpt lat="40.215700" lon="-4.948217">
        <ele>1786.0</ele>
        <time>2015-03-14T15:06:00Z</time>
      </trkpt>
      <trkpt lat="40.215650" lon="-4.948300">
        <ele>1784.0</ele>
        <time>2015-03-14T15:06:01Z</time>
      </trkpt>
      <trkpt lat="40.215600" lon="-4.948400">
        <ele>1782.0</ele>
        <time>2015-03-14T15:06:02Z</time>
      </trkpt>
      <trkpt lat="40.215567" lon="-4.948517">
        <ele>1780.0</ele>
        <time>2015-03-14T15:06:03Z</time>
      </trkpt>
      <trkpt lat="40.215517" lon="-4.948633">
        <ele>1777.0</ele>
        <time>2015-03-14T15:06:04Z</time>
      </trkpt>
      <trkpt lat="40.215467" lon="-4.948767">
        <ele>1776.0</ele>
        <time>2015-03-14T15:06:05Z</time>
      </trkpt>
      <trkpt lat="40.215433" lon="-4.948883">
        <ele>1777.0</ele>
        <time>2015-03-14T15:06:06Z</time>
      </trkpt>
      <trkpt lat="40.215417" lon="-4.948983">
        <ele>1777.0</ele>
        <time>2015-03-14T15:06:07Z</time>
      </trkpt>
      <trkpt lat="40.215400" lon="-4.949067">
        <ele>1777.0</ele>
        <time>2015-03-14T15:06:08Z</time>
      </trkpt>
      <trkpt lat="40.215367" lon="-4.949167">
        <ele>1776.0</ele>
        <time>2015-03-14T15:06:09Z</time>
      </trkpt>
      <trkpt lat="40.215333" lon="-4.949283">
        <ele>1774.0</ele>
        <time>2015-03-14T15:06:10Z</time>
      </trkpt>
      <trkpt lat="40.215283" lon="-4.949400">
        <ele>1773.0</ele>
        <time>2015-03-14T15:06:11Z</time>
      </trkpt>
      <trkpt lat="40.215233" lon="-4.949517">
        <ele>1773.0</ele>
        <time>2015-03-14T15:06:12Z</time>
      </trkpt>
      <trkpt lat="40.215183" lon="-4.949633">
        <ele>1773.0</ele>
        <time>2015-03-14T15:06:13Z</time>
      </trkpt>
      <trkpt lat="40.215150" lon="-4.949733">
        <ele>1772.0</ele>
        <time>2015-03-14T15:06:14Z</time>
      </trkpt>
      <trkpt lat="40.215117" lon="-4.949833">
        <ele>1771.0</ele>
        <time>2015-03-14T15:06:15Z</time>
      </trkpt>
      <trkpt lat="40.215067" lon="-4.949950">
        <ele>1770.0</ele>
        <time>2015-03-14T15:06:16Z</time>
      </trkpt>
      <trkpt lat="40.215017" lon="-4.950083">
        <ele>1768.0</ele>
        <time>2015-03-14T15:06:17Z</time>
      </trkpt>
      <trkpt lat="40.214967" lon="-4.950217">
        <ele>1768.0</ele>
        <time>2015-03-14T15:06:18Z</time>
      </trkpt>
      <trkpt lat="40.214917" lon="-4.950333">
        <ele>1768.0</ele>
        <time>2015-03-14T15:06:19Z</time>
      </trkpt>
      <trkpt lat="40.214883" lon="-4.950450">
        <ele>1769.0</ele>
        <time>2015-03-14T15:06:20Z</time>
      </trkpt>
      <trkpt lat="40.214850" lon="-4.950583">
        <ele>1769.0</ele>
        <time>2015-03-14T15:06:21Z</time>
      </trkpt>
      <trkpt lat="40.214817" lon="-4.950700">
        <ele>1769.0</ele>
        <time>2015-03-14T15:06:22Z</time>
      </trkpt>
      <trkpt lat="40.214783" lon="-4.950833">
        <ele>1769.0</ele>
        <time>2015-03-14T15:06:23Z</time>
      </trkpt>
      <trkpt lat="40.214733" lon="-4.950967">
        <ele>1768.0</ele>
        <time>2015-03-14T15:06:24Z</time>
      </trkpt>
      <trkpt lat="40.214700" lon="-4.951083">
        <ele>1768.0</ele>
        <time>2015-03-14T15:06:25Z</time>
      </trkpt>
      <trkpt lat="40.214667" lon="-4.951217">
        <ele>1767.0</ele>
        <time>2015-03-14T15:06:26Z</time>
      </trkpt>
      <trkpt lat="40.214633" lon="-4.951333">
        <ele>1766.0</ele>
        <time>2015-03-14T15:06:27Z</time>
      </trkpt>
      <trkpt lat="40.214600" lon="-4.951483">
        <ele>1765.0</ele>
        <time>2015-03-14T15:06:28Z</time>
      </trkpt>
      <trkpt lat="40.214567" lon="-4.951617">
        <ele>1765.0</ele>
        <time>2015-03-14T15:06:29Z</time>
      </trkpt>
      <trkpt lat="40.214517" lon="-4.951733">
        <ele>1766.0</ele>
        <time>2015-03-14T15:06:30Z</time>
      </trkpt>
      <trkpt lat="40.214483" lon="-4.951850">
        <ele>1766.0</ele>
        <time>2015-03-14T15:06:31Z</time>
      </trkpt>
      <trkpt lat="40.214450" lon="-4.951967">
        <ele>1765.0</ele>
        <time>2015-03-14T15:06:32Z</time>
      </trkpt>
      <trkpt lat="40.214433" lon="-4.952100">
        <ele>1764.0</ele>
        <time>2015-03-14T15:06:33Z</time>
      </trkpt>
      <trkpt lat="40.214400" lon="-4.952233">
        <ele>1763.0</ele>
        <time>2015-03-14T15:06:34Z</time>
      </trkpt>
      <trkpt lat="40.214383" lon="-4.952367">
        <ele>1763.0</ele>
        <time>2015-03-14T15:06:35Z</time>
      </trkpt>
      <trkpt lat="40.214367" lon="-4.952500">
        <ele>1764.0</ele>
        <time>2015-03-14T15:06:36Z</time>
      </trkpt>
      <trkpt lat="40.214367" lon="-4.952617">
        <ele>1765.0</ele>
        <time>2015-03-14T15:06:37Z</time>
      </trkpt>
      <trkpt lat="40.214350" lon="-4.952733">
        <ele>1766.0</ele>
        <time>2015-03-14T15:06:38Z</time>
      </trkpt>
      <trkpt lat="40.214350" lon="-4.952833">
        <ele>1766.0</ele>
        <time>2015-03-14T15:06:39Z</time>
      </trkpt>
      <trkpt lat="40.214333" lon="-4.952950">
        <ele>1766.0</ele>
        <time>2015-03-14T15:06:40Z</time>
      </trkpt>
      <trkpt lat="40.214333" lon="-4.953067">
        <ele>1767.0</ele>
        <time>2015-03-14T15:06:41Z</time>
      </trkpt>
      <trkpt lat="40.214333" lon="-4.953167">
        <ele>1767.0</ele>
        <time>2015-03-14T15:06:42Z</time>
      </trkpt>
      <trkpt lat="40.214333" lon="-4.953267">
        <ele>1768.0</ele>
        <time>2015-03-14T15:06:43Z</time>
      </trkpt>
      <trkpt lat="40.214333" lon="-4.953367">
        <ele>1768.0</ele>
        <time>2015-03-14T15:06:44Z</time>
      </trkpt>
      <trkpt lat="40.214317" lon="-4.953467">
        <ele>1769.0</ele>
        <time>2015-03-14T15:06:45Z</time>
      </trkpt>
      <trkpt lat="40.214267" lon="-4.953583">
        <ele>1768.0</ele>
        <time>2015-03-14T15:06:46Z</time>
      </trkpt>
      <trkpt lat="40.214183" lon="-4.953700">
        <ele>1768.0</ele>
        <time>2015-03-14T15:06:47Z</time>
      </trkpt>
      <trkpt lat="40.214067" lon="-4.953800">
        <ele>1767.0</ele>
        <time>2015-03-14T15:06:48Z</time>
      </trkpt>
      <trkpt lat="40.213933" lon="-4.953867">
        <ele>1767.0</ele>
        <time>2015-03-14T15:06:49Z</time>
      </trkpt>
      <trkpt lat="40.213783" lon="-4.953883">
        <ele>1767.0</ele>
        <time>2015-03-14T15:06:50Z</time>
      </trkpt>
      <trkpt lat="40.213633" lon="-4.953867">
        <ele>1767.0</ele>
        <time>2015-03-14T15:06:51Z</time>
      </trkpt>
      <trkpt lat="40.213500" lon="-4.953800">
        <ele>1766.0</ele>
        <time>2015-03-14T15:06:52Z</time>
      </trkpt>
      <trkpt lat="40.213383" lon="-4.953717">
        <ele>1766.0</ele>
        <time>2015-03-14T15:06:53Z</time>
      </trkpt>
      <trkpt lat="40.213283" lon="-4.953583">
        <ele>1765.0</ele>
        <time>2015-03-14T15:06:54Z</time>
      </trkpt>
      <trkpt lat="40.213233" lon="-4.953450">
        <ele>1765.0</ele>
        <time>2015-03-14T15:06:55Z</time>
      </trkpt>
      <trkpt lat="40.213200" lon="-4.953333">
        <ele>1765.0</ele>
        <time>2015-03-14T15:06:56Z</time>
      </trkpt>
      <trkpt lat="40.213217" lon="-4.953233">
        <ele>1765.0</ele>
        <time>2015-03-14T15:06:57Z</time>
      </trkpt>
      <trkpt lat="40.213233" lon="-4.953150">
        <ele>1764.0</ele>
        <time>2015-03-14T15:06:58Z</time>
      </trkpt>
      <trkpt lat="40.213283" lon="-4.953100">
        <ele>1764.0</ele>
        <time>2015-03-14T15:06:59Z</time>
      </trkpt>
      <trkpt lat="40.213333" lon="-4.953067">
        <ele>1764.0</ele>
        <time>2015-03-14T15:07:00Z</time>
      </trkpt>
      <trkpt lat="40.213383" lon="-4.953067">
        <ele>1765.0</ele>
        <time>2015-03-14T15:07:01Z</time>
      </trkpt>
      <trkpt lat="40.213433" lon="-4.953083">
        <ele>1766.0</ele>
        <time>2015-03-14T15:07:02Z</time>
      </trkpt>
      <trkpt lat="40.213483" lon="-4.953133">
        <ele>1766.0</ele>
        <time>2015-03-14T15:07:03Z</time>
      </trkpt>
      <trkpt lat="40.213533" lon="-4.953200">
        <ele>1766.0</ele>
        <time>2015-03-14T15:07:04Z</time>
      </trkpt>
      <trkpt lat="40.213567" lon="-4.953250">
        <ele>1766.0</ele>
        <time>2015-03-14T15:07:05Z</time>
      </trkpt>
      <trkpt lat="40.213617" lon="-4.953317">
        <ele>1766.0</ele>
        <time>2015-03-14T15:07:06Z</time>
      </trkpt>
      <trkpt lat="40.213667" lon="-4.953383">
        <ele>1766.0</ele>
        <time>2015-03-14T15:07:07Z</time>
      </trkpt>
      <trkpt lat="40.213717" lon="-4.953450">
        <ele>1766.0</ele>
        <time>2015-03-14T15:07:08Z</time>
      </trkpt>
      <trkpt lat="40.213750" lon="-4.953550">
        <ele>1766.0</ele>
        <time>2015-03-14T15:07:09Z</time>
      </trkpt>
      <trkpt lat="40.213767" lon="-4.953650">
        <ele>1767.0</ele>
        <time>2015-03-14T15:07:10Z</time>
      </trkpt>
      <trkpt lat="40.213800" lon="-4.953750">
        <ele>1768.0</ele>
        <time>2015-03-14T15:07:11Z</time>
      </trkpt>
      <trkpt lat="40.213817" lon="-4.953850">
        <ele>1769.0</ele>
        <time>2015-03-14T15:07:12Z</time>
      </trkpt>
      <trkpt lat="40.213833" lon="-4.953933">
        <ele>1769.0</ele>
        <time>2015-03-14T15:07:13Z</time>
      </trkpt>
      <trkpt lat="40.213867" lon="-4.954033">
        <ele>1769.0</ele>
        <time>2015-03-14T15:07:14Z</time>
      </trkpt>
      <trkpt lat="40.213883" lon="-4.954117">
        <ele>1769.0</ele>
        <time>2015-03-14T15:07:15Z</time>
      </trkpt>
      <trkpt lat="40.213900" lon="-4.954217">
        <ele>1769.0</ele>
        <time>2015-03-14T15:07:16Z</time>
      </trkpt>
      <trkpt lat="40.213917" lon="-4.954300">
        <ele>1769.0</ele>
        <time>2015-03-14T15:07:17Z</time>
      </trkpt>
      <trkpt lat="40.213950" lon="-4.954400">
        <ele>1770.0</ele>
        <time>2015-03-14T15:07:18Z</time>
      </trkpt>
      <trkpt lat="40.213950" lon="-4.954500">
        <ele>1770.0</ele>
        <time>2015-03-14T15:07:19Z</time>
      </trkpt>
      <trkpt lat="40.213950" lon="-4.954600">
        <ele>1769.0</ele>
        <time>2015-03-14T15:07:20Z</time>
      </trkpt>
      <trkpt lat="40.213950" lon="-4.954717">
        <ele>1768.0</ele>
        <time>2015-03-14T15:07:21Z</time>
      </trkpt>
      <trkpt lat="40.213950" lon="-4.954850">
        <ele>1767.0</ele>
        <time>2015-03-14T15:07:22Z</time>
      </trkpt>
      <trkpt lat="40.213950" lon="-4.954983">
        <ele>1766.0</ele>
        <time>2015-03-14T15:07:23Z</time>
      </trkpt>
      <trkpt lat="40.213967" lon="-4.955100">
        <ele>1766.0</ele>
        <time>2015-03-14T15:07:24Z</time>
      </trkpt>
      <trkpt lat="40.213967" lon="-4.955217">
        <ele>1768.0</ele>
        <time>2015-03-14T15:07:25Z</time>
      </trkpt>
      <trkpt lat="40.213967" lon="-4.955333">
        <ele>1769.0</ele>
        <time>2015-03-14T15:07:26Z</time>
      </trkpt>
      <trkpt lat="40.213950" lon="-4.955450">
        <ele>1770.0</ele>
        <time>2015-03-14T15:07:27Z</time>
      </trkpt>
      <trkpt lat="40.213950" lon="-4.955567">
        <ele>1771.0</ele>
        <time>2015-03-14T15:07:28Z</time>
      </trkpt>
      <trkpt lat="40.213950" lon="-4.955683">
        <ele>1770.0</ele>
        <time>2015-03-14T15:07:29Z</time>
      </trkpt>
      <trkpt lat="40.213950" lon="-4.955817">
        <ele>1770.0</ele>
        <time>2015-03-14T15:07:30Z</time>
      </trkpt>
      <trkpt lat="40.213950" lon="-4.955933">
        <ele>1770.0</ele>
        <time>2015-03-14T15:07:31Z</time>
      </trkpt>
      <trkpt lat="40.213950" lon="-4.956067">
        <ele>1772.0</ele>
        <time>2015-03-14T15:07:32Z</time>
      </trkpt>
      <trkpt lat="40.213950" lon="-4.956183">
        <ele>1773.0</ele>
        <time>2015-03-14T15:07:33Z</time>
      </trkpt>
      <trkpt lat="40.213967" lon="-4.956300">
        <ele>1775.0</ele>
        <time>2015-03-14T15:07:34Z</time>
      </trkpt>
      <trkpt lat="40.213967" lon="-4.956417">
        <ele>1776.0</ele>
        <time>2015-03-14T15:07:35Z</time>
      </trkpt>
      <trkpt lat="40.213950" lon="-4.956533">
        <ele>1777.0</ele>
        <time>2015-03-14T15:07:36Z</time>
      </trkpt>
      <trkpt lat="40.213933" lon="-4.956667">
        <ele>1778.0</ele>
        <time>2015-03-14T15:07:37Z</time>
      </trkpt>
      <trkpt lat="40.213917" lon="-4.956783">
        <ele>1780.0</ele>
        <time>2015-03-14T15:07:38Z</time>
      </trkpt>
      <trkpt lat="40.213883" lon="-4.956917">
        <ele>1782.0</ele>
        <time>2015-03-14T15:07:39Z</time>
      </trkpt>
      <trkpt lat="40.213867" lon="-4.957033">
        <ele>1784.0</ele>
        <time>2015-03-14T15:07:40Z</time>
      </trkpt>
      <trkpt lat="40.213850" lon="-4.957150">
        <ele>1786.0</ele>
        <time>2015-03-14T15:07:41Z</time>
      </trkpt>
      <trkpt lat="40.213833" lon="-4.957250">
        <ele>1787.0</ele>
        <time>2015-03-14T15:07:42Z</time>
      </trkpt>
      <trkpt lat="40.213850" lon="-4.957350">
        <ele>1788.0</ele>
        <time>2015-03-14T15:07:43Z</time>
      </trkpt>
      <trkpt lat="40.213867" lon="-4.957417">
        <ele>1789.0</ele>
        <time>2015-03-14T15:07:44Z</time>
      </trkpt>
      <trkpt lat="40.213917" lon="-4.957433">
        <ele>1790.0</ele>
        <time>2015-03-14T15:07:45Z</time>
      </trkpt>
      <trkpt lat="40.213950" lon="-4.957433">
        <ele>1790.0</ele>
        <time>2015-03-14T15:07:46Z</time>
      </trkpt>
      <trkpt lat="40.214000" lon="-4.957383">
        <ele>1791.0</ele>
        <time>2015-03-14T15:07:47Z</time>
      </trkpt>
      <trkpt lat="40.214033" lon="-4.957317">
        <ele>1792.0</ele>
        <time>2015-03-14T15:07:48Z</time>
      </trkpt>
      <trkpt lat="40.214033" lon="-4.957217">
        <ele>1793.0</ele>
        <time>2015-03-14T15:07:49Z</time>
      </trkpt>
      <trkpt lat="40.214017" lon="-4.957100">
        <ele>1793.0</ele>
        <time>2015-03-14T15:07:50Z</time>
      </trkpt>
      <trkpt lat="40.213950" lon="-4.956967">
        <ele>1793.0</ele>
        <time>2015-03-14T15:07:51Z</time>
      </trkpt>
      <trkpt lat="40.213850" lon="-4.956850">
        <ele>1795.0</ele>
        <time>2015-03-14T15:07:52Z</time>
      </trkpt>
      <trkpt lat="40.213733" lon="-4.956767">
        <ele>1797.0</ele>
        <time>2015-03-14T15:07:53Z</time>
      </trkpt>
      <trkpt lat="40.213617" lon="-4.956700">
        <ele>1799.0</ele>
        <time>2015-03-14T15:07:54Z</time>
      </trkpt>
      <trkpt lat="40.213483" lon="-4.956667">
        <ele>1800.0</ele>
        <time>2015-03-14T15:07:55Z</time>
      </trkpt>
      <trkpt lat="40.213350" lon="-4.956633">
        <ele>1800.0</ele>
        <time>2015-03-14T15:07:56Z</time>
      </trkpt>
      <trkpt lat="40.213200" lon="-4.956633">
        <ele>1800.0</ele>
        <time>2015-03-14T15:07:57Z</time>
      </trkpt>
      <trkpt lat="40.213067" lon="-4.956667">
        <ele>1800.0</ele>
        <time>2015-03-14T15:07:58Z</time>
      </trkpt>
      <trkpt lat="40.212917" lon="-4.956733">
        <ele>1801.0</ele>
        <time>2015-03-14T15:07:59Z</time>
      </trkpt>
      <trkpt lat="40.212800" lon="-4.956833">
        <ele>1802.0</ele>
        <time>2015-03-14T15:08:00Z</time>
      </trkpt>
      <trkpt lat="40.212717" lon="-4.956950">
        <ele>1804.0</ele>
        <time>2015-03-14T15:08:01Z</time>
      </trkpt>
      <trkpt lat="40.212650" lon="-4.957083">
        <ele>1806.0</ele>
        <time>2015-03-14T15:08:02Z</time>
      </trkpt>
      <trkpt lat="40.212617" lon="-4.957200">
        <ele>1807.0</ele>
        <time>2015-03-14T15:08:03Z</time>
      </trkpt>
      <trkpt lat="40.212600" lon="-4.957300">
        <ele>1808.0</ele>
        <time>2015-03-14T15:08:04Z</time>
      </trkpt>
      <trkpt lat="40.212617" lon="-4.957400">
        <ele>1808.0</ele>
        <time>2015-03-14T15:08:05Z</time>
      </trkpt>
      <trkpt lat="40.212650" lon="-4.957483">
        <ele>1808.0</ele>
        <time>2015-03-14T15:08:06Z</time>
      </trkpt>
      <trkpt lat="40.212700" lon="-4.957533">
        <ele>1809.0</ele>
        <time>2015-03-14T15:08:07Z</time>
      </trkpt>
      <trkpt lat="40.212767" lon="-4.957550">
        <ele>1809.0</ele>
        <time>2015-03-14T15:08:08Z</time>
      </trkpt>
      <trkpt lat="40.212817" lon="-4.957533">
        <ele>1810.0</ele>
        <time>2015-03-14T15:08:09Z</time>
      </trkpt>
      <trkpt lat="40.212867" lon="-4.957483">
        <ele>1811.0</ele>
        <time>2015-03-14T15:08:10Z</time>
      </trkpt>
      <trkpt lat="40.212900" lon="-4.957400">
        <ele>1812.0</ele>
        <time>2015-03-14T15:08:11Z</time>
      </trkpt>
      <trkpt lat="40.212900" lon="-4.957300">
        <ele>1813.0</ele>
        <time>2015-03-14T15:08:12Z</time>
      </trkpt>
      <trkpt lat="40.212883" lon="-4.957183">
        <ele>1814.0</ele>
        <time>2015-03-14T15:08:13Z</time>
      </trkpt>
      <trkpt lat="40.212850" lon="-4.957067">
        <ele>1815.0</ele>
        <time>2015-03-14T15:08:14Z</time>
      </trkpt>
      <trkpt lat="40.212783" lon="-4.956950">
        <ele>1816.0</ele>
        <time>2015-03-14T15:08:15Z</time>
      </trkpt>
      <trkpt lat="40.212683" lon="-4.956850">
        <ele>1816.0</ele>
        <time>2015-03-14T15:08:16Z</time>
      </trkpt>
      <trkpt lat="40.212583" lon="-4.956767">
        <ele>1817.0</ele>
        <time>2015-03-14T15:08:17Z</time>
      </trkpt>
      <trkpt lat="40.212450" lon="-4.956700">
        <ele>1818.0</ele>
        <time>2015-03-14T15:08:18Z</time>
      </trkpt>
      <trkpt lat="40.212300" lon="-4.956667">
        <ele>1819.0</ele>
        <time>2015-03-14T15:08:19Z</time>
      </trkpt>
      <trkpt lat="40.212167" lon="-4.956667">
        <ele>1820.0</ele>
        <time>2015-03-14T15:08:20Z</time>
      </trkpt>
      <trkpt lat="40.212017" lon="-4.956717">
        <ele>1820.0</ele>
        <time>2015-03-14T15:08:21Z</time>
      </trkpt>
      <trkpt lat="40.211900" lon="-4.956800">
        <ele>1820.0</ele>
        <time>2015-03-14T15:08:22Z</time>
      </trkpt>
      <trkpt lat="40.211783" lon="-4.956900">
        <ele>1821.0</ele>
        <time>2015-03-14T15:08:23Z</time>
      </trkpt>
      <trkpt lat="40.211683" lon="-4.957017">
        <ele>1822.0</ele>
        <time>2015-03-14T15:08:24Z</time>
      </trkpt>
      <trkpt lat="40.211617" lon="-4.957133">
        <ele>1823.0</ele>
        <time>2015-03-14T15:08:25Z</time>
      </trkpt>
      <trkpt lat="40.211567" lon="-4.957250">
        <ele>1824.0</ele>
        <time>2015-03-14T15:08:26Z</time>
      </trkpt>
      <trkpt lat="40.211533" lon="-4.957367">
        <ele>1823.0</ele>
        <time>2015-03-14T15:08:27Z</time>
      </trkpt>
      <trkpt lat="40.211533" lon="-4.957500">
        <ele>1823.0</ele>
        <time>2015-03-14T15:08:28Z</time>
      </trkpt>
      <trkpt lat="40.211550" lon="-4.957617">
        <ele>1823.0</ele>
        <time>2015-03-14T15:08:29Z</time>
      </trkpt>
      <trkpt lat="40.211600" lon="-4.957717">
        <ele>1824.0</ele>
        <time>2015-03-14T15:08:30Z</time>
      </trkpt>
      <trkpt lat="40.211650" lon="-4.957783">
        <ele>1825.0</ele>
        <time>2015-03-14T15:08:31Z</time>
      </trkpt>
      <trkpt lat="40.211717" lon="-4.957800">
        <ele>1826.0</ele>
        <time>2015-03-14T15:08:32Z</time>
      </trkpt>
      <trkpt lat="40.211783" lon="-4.957800">
        <ele>1826.0</ele>
        <time>2015-03-14T15:08:33Z</time>
      </trkpt>
      <trkpt lat="40.211850" lon="-4.957750">
        <ele>1827.0</ele>
        <time>2015-03-14T15:08:34Z</time>
      </trkpt>
      <trkpt lat="40.211900" lon="-4.957700">
        <ele>1828.0</ele>
        <time>2015-03-14T15:08:35Z</time>
      </trkpt>
      <trkpt lat="40.211933" lon="-4.957633">
        <ele>1829.0</ele>
        <time>2015-03-14T15:08:36Z</time>
      </trkpt>
      <trkpt lat="40.211967" lon="-4.957550">
        <ele>1829.0</ele>
        <time>2015-03-14T15:08:37Z</time>
      </trkpt>
      <trkpt lat="40.211967" lon="-4.957450">
        <ele>1829.0</ele>
        <time>2015-03-14T15:08:38Z</time>
      </trkpt>
      <trkpt lat="40.211933" lon="-4.957317">
        <ele>1828.0</ele>
        <time>2015-03-14T15:08:39Z</time>
      </trkpt>
      <trkpt lat="40.211883" lon="-4.957200">
        <ele>1827.0</ele>
        <time>2015-03-14T15:08:40Z</time>
      </trkpt>
      <trkpt lat="40.211800" lon="-4.957100">
        <ele>1827.0</ele>
        <time>2015-03-14T15:08:41Z</time>
      </trkpt>
      <trkpt lat="40.211700" lon="-4.957017">
        <ele>1828.0</ele>
        <time>2015-03-14T15:08:42Z</time>
      </trkpt>
      <trkpt lat="40.211583" lon="-4.956950">
        <ele>1828.0</ele>
        <time>2015-03-14T15:08:43Z</time>
      </trkpt>
      <trkpt lat="40.211450" lon="-4.956917">
        <ele>1828.0</ele>
        <time>2015-03-14T15:08:44Z</time>
      </trkpt>
      <trkpt lat="40.211300" lon="-4.956917">
        <ele>1828.0</ele>
        <time>2015-03-14T15:08:45Z</time>
      </trkpt>
      <trkpt lat="40.211167" lon="-4.956950">
        <ele>1829.0</ele>
        <time>2015-03-14T15:08:46Z</time>
      </trkpt>
      <trkpt lat="40.211033" lon="-4.957017">
        <ele>1828.0</ele>
        <time>2015-03-14T15:08:47Z</time>
      </trkpt>
      <trkpt lat="40.210917" lon="-4.957117">
        <ele>1828.0</ele>
        <time>2015-03-14T15:08:48Z</time>
      </trkpt>
      <trkpt lat="40.210817" lon="-4.957250">
        <ele>1827.0</ele>
        <time>2015-03-14T15:08:49Z</time>
      </trkpt>
      <trkpt lat="40.210767" lon="-4.957400">
        <ele>1827.0</ele>
        <time>2015-03-14T15:08:50Z</time>
      </trkpt>
      <trkpt lat="40.210733" lon="-4.957550">
        <ele>1827.0</ele>
        <time>2015-03-14T15:08:51Z</time>
      </trkpt>
      <trkpt lat="40.210733" lon="-4.957683">
        <ele>1827.0</ele>
        <time>2015-03-14T15:08:52Z</time>
      </trkpt>
      <trkpt lat="40.210767" lon="-4.957817">
        <ele>1826.0</ele>
        <time>2015-03-14T15:08:53Z</time>
      </trkpt>
      <trkpt lat="40.210800" lon="-4.957933">
        <ele>1826.0</ele>
        <time>2015-03-14T15:08:54Z</time>
      </trkpt>
      <trkpt lat="40.210850" lon="-4.958017">
        <ele>1827.0</ele>
        <time>2015-03-14T15:08:55Z</time>
      </trkpt>
      <trkpt lat="40.210900" lon="-4.958100">
        <ele>1827.0</ele>
        <time>2015-03-14T15:08:56Z</time>
      </trkpt>
      <trkpt lat="40.210933" lon="-4.958183">
        <ele>1827.0</ele>
        <time>2015-03-14T15:08:57Z</time>
      </trkpt>
      <trkpt lat="40.210983" lon="-4.958267">
        <ele>1825.0</ele>
        <time>2015-03-14T15:08:58Z</time>
      </trkpt>
      <trkpt lat="40.211033" lon="-4.958333">
        <ele>1823.0</ele>
        <time>2015-03-14T15:08:59Z</time>
      </trkpt>
      <trkpt lat="40.211117" lon="-4.958417">
        <ele>1821.0</ele>
        <time>2015-03-14T15:09:00Z</time>
      </trkpt>
      <trkpt lat="40.211200" lon="-4.958467">
        <ele>1820.0</ele>
        <time>2015-03-14T15:09:01Z</time>
      </trkpt>
      <trkpt lat="40.211283" lon="-4.958500">
        <ele>1821.0</ele>
        <time>2015-03-14T15:09:02Z</time>
      </trkpt>
      <trkpt lat="40.211350" lon="-4.958550">
        <ele>1821.0</ele>
        <time>2015-03-14T15:09:03Z</time>
      </trkpt>
      <trkpt lat="40.211433" lon="-4.958600">
        <ele>1822.0</ele>
        <time>2015-03-14T15:09:04Z</time>
      </trkpt>
      <trkpt lat="40.211500" lon="-4.958633">
        <ele>1822.0</ele>
        <time>2015-03-14T15:09:05Z</time>
      </trkpt>
      <trkpt lat="40.211567" lon="-4.958667">
        <ele>1822.0</ele>
        <time>2015-03-14T15:09:06Z</time>
      </trkpt>
      <trkpt lat="40.211650" lon="-4.958683">
        <ele>1822.0</ele>
        <time>2015-03-14T15:09:07Z</time>
      </trkpt>
      <trkpt lat="40.211717" lon="-4.958700">
        <ele>1822.0</ele>
        <time>2015-03-14T15:09:08Z</time>
      </trkpt>
      <trkpt lat="40.211783" lon="-4.958733">
        <ele>1821.0</ele>
        <time>2015-03-14T15:09:09Z</time>
      </trkpt>
      <trkpt lat="40.211850" lon="-4.958767">
        <ele>1821.0</ele>
        <time>2015-03-14T15:09:10Z</time>
      </trkpt>
      <trkpt lat="40.211917" lon="-4.958817">
        <ele>1822.0</ele>
        <time>2015-03-14T15:09:11Z</time>
      </trkpt>
      <trkpt lat="40.211967" lon="-4.958867">
        <ele>1823.0</ele>
        <time>2015-03-14T15:09:12Z</time>
      </trkpt>
      <trkpt lat="40.212033" lon="-4.958933">
        <ele>1824.0</ele>
        <time>2015-03-14T15:09:13Z</time>
      </trkpt>
      <trkpt lat="40.212100" lon="-4.959000">
        <ele>1825.0</ele>
        <time>2015-03-14T15:09:14Z</time>
      </trkpt>
      <trkpt lat="40.212150" lon="-4.959067">
        <ele>1826.0</ele>
        <time>2015-03-14T15:09:15Z</time>
      </trkpt>
      <trkpt lat="40.212217" lon="-4.959150">
        <ele>1827.0</ele>
        <time>2015-03-14T15:09:16Z</time>
      </trkpt>
      <trkpt lat="40.212283" lon="-4.959233">
        <ele>1829.0</ele>
        <time>2015-03-14T15:09:17Z</time>
      </trkpt>
      <trkpt lat="40.212317" lon="-4.959333">
        <ele>1830.0</ele>
        <time>2015-03-14T15:09:18Z</time>
      </trkpt>
      <trkpt lat="40.212350" lon="-4.959450">
        <ele>1831.0</ele>
        <time>2015-03-14T15:09:19Z</time>
      </trkpt>
      <trkpt lat="40.212367" lon="-4.959567">
        <ele>1833.0</ele>
        <time>2015-03-14T15:09:20Z</time>
      </trkpt>
      <trkpt lat="40.212400" lon="-4.959667">
        <ele>1835.0</ele>
        <time>2015-03-14T15:09:21Z</time>
      </trkpt>
      <trkpt lat="40.212433" lon="-4.959767">
        <ele>1836.0</ele>
        <time>2015-03-14T15:09:22Z</time>
      </trkpt>
      <trkpt lat="40.212483" lon="-4.959833">
        <ele>1837.0</ele>
        <time>2015-03-14T15:09:23Z</time>
      </trkpt>
      <trkpt lat="40.212567" lon="-4.959867">
        <ele>1837.0</ele>
        <time>2015-03-14T15:09:24Z</time>
      </trkpt>
      <trkpt lat="40.212650" lon="-4.959883">
        <ele>1836.0</ele>
        <time>2015-03-14T15:09:25Z</time>
      </trkpt>
      <trkpt lat="40.212733" lon="-4.959867">
        <ele>1836.0</ele>
        <time>2015-03-14T15:09:26Z</time>
      </trkpt>
      <trkpt lat="40.212800" lon="-4.959800">
        <ele>1836.0</ele>
        <time>2015-03-14T15:09:27Z</time>
      </trkpt>
      <trkpt lat="40.212850" lon="-4.959683">
        <ele>1836.0</ele>
        <time>2015-03-14T15:09:28Z</time>
      </trkpt>
      <trkpt lat="40.212867" lon="-4.959567">
        <ele>1836.0</ele>
        <time>2015-03-14T15:09:29Z</time>
      </trkpt>
      <trkpt lat="40.212867" lon="-4.959433">
        <ele>1838.0</ele>
        <time>2015-03-14T15:09:30Z</time>
      </trkpt>
      <trkpt lat="40.212817" lon="-4.959317">
        <ele>1839.0</ele>
        <time>2015-03-14T15:09:31Z</time>
      </trkpt>
      <trkpt lat="40.212733" lon="-4.959217">
        <ele>1840.0</ele>
        <time>2015-03-14T15:09:32Z</time>
      </trkpt>
      <trkpt lat="40.212633" lon="-4.959167">
        <ele>1840.0</ele>
        <time>2015-03-14T15:09:33Z</time>
      </trkpt>
      <trkpt lat="40.212500" lon="-4.959150">
        <ele>1840.0</ele>
        <time>2015-03-14T15:09:34Z</time>
      </trkpt>
      <trkpt lat="40.212367" lon="-4.959167">
        <ele>1841.0</ele>
        <time>2015-03-14T15:09:35Z</time>
      </trkpt>
      <trkpt lat="40.212250" lon="-4.959250">
        <ele>1842.0</ele>
        <time>2015-03-14T15:09:36Z</time>
      </trkpt>
      <trkpt lat="40.212167" lon="-4.959350">
        <ele>1843.0</ele>
        <time>2015-03-14T15:09:37Z</time>
      </trkpt>
      <trkpt lat="40.212100" lon="-4.959500">
        <ele>1843.0</ele>
        <time>2015-03-14T15:09:38Z</time>
      </trkpt>
      <trkpt lat="40.212067" lon="-4.959633">
        <ele>1845.0</ele>
        <time>2015-03-14T15:09:39Z</time>
      </trkpt>
      <trkpt lat="40.212050" lon="-4.959750">
        <ele>1846.0</ele>
        <time>2015-03-14T15:09:40Z</time>
      </trkpt>
      <trkpt lat="40.212033" lon="-4.959883">
        <ele>1847.0</ele>
        <time>2015-03-14T15:09:41Z</time>
      </trkpt>
      <trkpt lat="40.212033" lon="-4.960017">
        <ele>1847.0</ele>
        <time>2015-03-14T15:09:42Z</time>
      </trkpt>
      <trkpt lat="40.212033" lon="-4.960150">
        <ele>1848.0</ele>
        <time>2015-03-14T15:09:43Z</time>
      </trkpt>
      <trkpt lat="40.212033" lon="-4.960283">
        <ele>1848.0</ele>
        <time>2015-03-14T15:09:44Z</time>
      </trkpt>
      <trkpt lat="40.212050" lon="-4.960400">
        <ele>1849.0</ele>
        <time>2015-03-14T15:09:45Z</time>
      </trkpt>
      <trkpt lat="40.212067" lon="-4.960517">
        <ele>1849.0</ele>
        <time>2015-03-14T15:09:46Z</time>
      </trkpt>
      <trkpt lat="40.212117" lon="-4.960617">
        <ele>1848.0</ele>
        <time>2015-03-14T15:09:47Z</time>
      </trkpt>
      <trkpt lat="40.212183" lon="-4.960717">
        <ele>1848.0</ele>
        <time>2015-03-14T15:09:48Z</time>
      </trkpt>
      <trkpt lat="40.212250" lon="-4.960817">
        <ele>1848.0</ele>
        <time>2015-03-14T15:09:49Z</time>
      </trkpt>
      <trkpt lat="40.212333" lon="-4.960917">
        <ele>1849.0</ele>
        <time>2015-03-14T15:09:50Z</time>
      </trkpt>
      <trkpt lat="40.212417" lon="-4.961000">
        <ele>1851.0</ele>
        <time>2015-03-14T15:09:51Z</time>
      </trkpt>
      <trkpt lat="40.212500" lon="-4.961067">
        <ele>1852.0</ele>
        <time>2015-03-14T15:09:52Z</time>
      </trkpt>
      <trkpt lat="40.212583" lon="-4.961117">
        <ele>1854.0</ele>
        <time>2015-03-14T15:09:53Z</time>
      </trkpt>
      <trkpt lat="40.212667" lon="-4.961150">
        <ele>1855.0</ele>
        <time>2015-03-14T15:09:54Z</time>
      </trkpt>
      <trkpt lat="40.212750" lon="-4.961183">
        <ele>1857.0</ele>
        <time>2015-03-14T15:09:55Z</time>
      </trkpt>
      <trkpt lat="40.212833" lon="-4.961200">
        <ele>1859.0</ele>
        <time>2015-03-14T15:09:56Z</time>
      </trkpt>
      <trkpt lat="40.212917" lon="-4.961183">
        <ele>1860.0</ele>
        <time>2015-03-14T15:09:57Z</time>
      </trkpt>
      <trkpt lat="40.213000" lon="-4.961133">
        <ele>1861.0</ele>
        <time>2015-03-14T15:09:58Z</time>
      </trkpt>
      <trkpt lat="40.213083" lon="-4.961067">
        <ele>1862.0</ele>
        <time>2015-03-14T15:09:59Z</time>
      </trkpt>
      <trkpt lat="40.213133" lon="-4.960967">
        <ele>1862.0</ele>
        <time>2015-03-14T15:10:00Z</time>
      </trkpt>
      <trkpt lat="40.213167" lon="-4.960850">
        <ele>1863.0</ele>
        <time>2015-03-14T15:10:01Z</time>
      </trkpt>
      <trkpt lat="40.213183" lon="-4.960717">
        <ele>1863.0</ele>
        <time>2015-03-14T15:10:02Z</time>
      </trkpt>
      <trkpt lat="40.213150" lon="-4.960583">
        <ele>1863.0</ele>
        <time>2015-03-14T15:10:03Z</time>
      </trkpt>
      <trkpt lat="40.213117" lon="-4.960467">
        <ele>1863.0</ele>
        <time>2015-03-14T15:10:04Z</time>
      </trkpt>
      <trkpt lat="40.213033" lon="-4.960350">
        <ele>1864.0</ele>
        <time>2015-03-14T15:10:05Z</time>
      </trkpt>
      <trkpt lat="40.212933" lon="-4.960283">
        <ele>1865.0</ele>
        <time>2015-03-14T15:10:06Z</time>
      </trkpt>
      <trkpt lat="40.212833" lon="-4.960250">
        <ele>1866.0</ele>
        <time>2015-03-14T15:10:07Z</time>
      </trkpt>
      <trkpt lat="40.212717" lon="-4.960267">
        <ele>1866.0</ele>
        <time>2015-03-14T15:10:08Z</time>
      </trkpt>
      <trkpt lat="40.212617" lon="-4.960317">
        <ele>1867.0</ele>
        <time>2015-03-14T15:10:09Z</time>
      </trkpt>
      <trkpt lat="40.212533" lon="-4.960383">
        <ele>1867.0</ele>
        <time>2015-03-14T15:10:10Z</time>
      </trkpt>
      <trkpt lat="40.212467" lon="-4.960483">
        <ele>1867.0</ele>
        <time>2015-03-14T15:10:11Z</time>
      </trkpt>
      <trkpt lat="40.212400" lon="-4.960583">
        <ele>1867.0</ele>
        <time>2015-03-14T15:10:12Z</time>
      </trkpt>
      <trkpt lat="40.212350" lon="-4.960683">
        <ele>1868.0</ele>
        <time>2015-03-14T15:10:13Z</time>
      </trkpt>
      <trkpt lat="40.212317" lon="-4.960800">
        <ele>1868.0</ele>
        <time>2015-03-14T15:10:14Z</time>
      </trkpt>
      <trkpt lat="40.212283" lon="-4.960917">
        <ele>1868.0</ele>
        <time>2015-03-14T15:10:15Z</time>
      </trkpt>
      <trkpt lat="40.212283" lon="-4.961050">
        <ele>1868.0</ele>
        <time>2015-03-14T15:10:16Z</time>
      </trkpt>
      <trkpt lat="40.212300" lon="-4.961183">
        <ele>1868.0</ele>
        <time>2015-03-14T15:10:17Z</time>
      </trkpt>
      <trkpt lat="40.212333" lon="-4.961300">
        <ele>1869.0</ele>
        <time>2015-03-14T15:10:18Z</time>
      </trkpt>
      <trkpt lat="40.212367" lon="-4.961417">
        <ele>1871.0</ele>
        <time>2015-03-14T15:10:19Z</time>
      </trkpt>
      <trkpt lat="40.212417" lon="-4.961517">
        <ele>1873.0</ele>
        <time>2015-03-14T15:10:20Z</time>
      </trkpt>
      <trkpt lat="40.212450" lon="-4.961617">
        <ele>1874.0</ele>
        <time>2015-03-14T15:10:21Z</time>
      </trkpt>
      <trkpt lat="40.212500" lon="-4.961700">
        <ele>1875.0</ele>
        <time>2015-03-14T15:10:22Z</time>
      </trkpt>
      <trkpt lat="40.212550" lon="-4.961767">
        <ele>1875.0</ele>
        <time>2015-03-14T15:10:23Z</time>
      </trkpt>
      <trkpt lat="40.212617" lon="-4.961833">
        <ele>1875.0</ele>
        <time>2015-03-14T15:10:24Z</time>
      </trkpt>
      <trkpt lat="40.212700" lon="-4.961850">
        <ele>1875.0</ele>
        <time>2015-03-14T15:10:25Z</time>
      </trkpt>
      <trkpt lat="40.212800" lon="-4.961817">
        <ele>1875.0</ele>
        <time>2015-03-14T15:10:26Z</time>
      </trkpt>
      <trkpt lat="40.212883" lon="-4.961767">
        <ele>1876.0</ele>
        <time>2015-03-14T15:10:27Z</time>
      </trkpt>
      <trkpt lat="40.212950" lon="-4.961667">
        <ele>1878.0</ele>
        <time>2015-03-14T15:10:28Z</time>
      </trkpt>
      <trkpt lat="40.213000" lon="-4.961583">
        <ele>1881.0</ele>
        <time>2015-03-14T15:10:29Z</time>
      </trkpt>
      <trkpt lat="40.213033" lon="-4.961483">
        <ele>1883.0</ele>
        <time>2015-03-14T15:10:30Z</time>
      </trkpt>
      <trkpt lat="40.213050" lon="-4.961400">
        <ele>1885.0</ele>
        <time>2015-03-14T15:10:31Z</time>
      </trkpt>
      <trkpt lat="40.213033" lon="-4.961283">
        <ele>1886.0</ele>
        <time>2015-03-14T15:10:32Z</time>
      </trkpt>
      <trkpt lat="40.213000" lon="-4.961183">
        <ele>1886.0</ele>
        <time>2015-03-14T15:10:33Z</time>
      </trkpt>
      <trkpt lat="40.212950" lon="-4.961067">
        <ele>1886.0</ele>
        <time>2015-03-14T15:10:34Z</time>
      </trkpt>
      <trkpt lat="40.212867" lon="-4.960983">
        <ele>1886.0</ele>
        <time>2015-03-14T15:10:35Z</time>
      </trkpt>
      <trkpt lat="40.212767" lon="-4.960917">
        <ele>1886.0</ele>
        <time>2015-03-14T15:10:36Z</time>
      </trkpt>
      <trkpt lat="40.212667" lon="-4.960900">
        <ele>1887.0</ele>
        <time>2015-03-14T15:10:37Z</time>
      </trkpt>
      <trkpt lat="40.212550" lon="-4.960900">
        <ele>1888.0</ele>
        <time>2015-03-14T15:10:38Z</time>
      </trkpt>
      <trkpt lat="40.212450" lon="-4.960933">
        <ele>1889.0</ele>
        <time>2015-03-14T15:10:39Z</time>
      </trkpt>
      <trkpt lat="40.212350" lon="-4.960983">
        <ele>1890.0</ele>
        <time>2015-03-14T15:10:40Z</time>
      </trkpt>
      <trkpt lat="40.212267" lon="-4.961050">
        <ele>1890.0</ele>
        <time>2015-03-14T15:10:41Z</time>
      </trkpt>
      <trkpt lat="40.212183" lon="-4.961133">
        <ele>1890.0</ele>
        <time>2015-03-14T15:10:42Z</time>
      </trkpt>
      <trkpt lat="40.212100" lon="-4.961233">
        <ele>1889.0</ele>
        <time>2015-03-14T15:10:43Z</time>
      </trkpt>
      <trkpt lat="40.212033" lon="-4.961350">
        <ele>1890.0</ele>
        <time>2015-03-14T15:10:44Z</time>
      </trkpt>
      <trkpt lat="40.211983" lon="-4.961483">
        <ele>1890.0</ele>
        <time>2015-03-14T15:10:45Z</time>
      </trkpt>
      <trkpt lat="40.211967" lon="-4.961600">
        <ele>1891.0</ele>
        <time>2015-03-14T15:10:46Z</time>
      </trkpt>
      <trkpt lat="40.211950" lon="-4.961733">
        <ele>1892.0</ele>
        <time>2015-03-14T15:10:47Z</time>
      </trkpt>
      <trkpt lat="40.211950" lon="-4.961850">
        <ele>1893.0</ele>
        <time>2015-03-14T15:10:48Z</time>
      </trkpt>
      <trkpt lat="40.211967" lon="-4.961983">
        <ele>1893.0</ele>
        <time>2015-03-14T15:10:49Z</time>
      </trkpt>
      <trkpt lat="40.211983" lon="-4.962117">
        <ele>1893.0</ele>
        <time>2015-03-14T15:10:50Z</time>
      </trkpt>
      <trkpt lat="40.212017" lon="-4.962233">
        <ele>1893.0</ele>
        <time>2015-03-14T15:10:51Z</time>
      </trkpt>
      <trkpt lat="40.212083" lon="-4.962333">
        <ele>1893.0</ele>
        <time>2015-03-14T15:10:52Z</time>
      </trkpt>
      <trkpt lat="40.212150" lon="-4.962433">
        <ele>1893.0</ele>
        <time>2015-03-14T15:10:53Z</time>
      </trkpt>
      <trkpt lat="40.212233" lon="-4.962500">
        <ele>1894.0</ele>
        <time>2015-03-14T15:10:54Z</time>
      </trkpt>
      <trkpt lat="40.212317" lon="-4.962550">
        <ele>1895.0</ele>
        <time>2015-03-14T15:10:55Z</time>
      </trkpt>
      <trkpt lat="40.212417" lon="-4.962583">
        <ele>1895.0</ele>
        <time>2015-03-14T15:10:56Z</time>
      </trkpt>
      <trkpt lat="40.212500" lon="-4.962583">
        <ele>1897.0</ele>
        <time>2015-03-14T15:10:57Z</time>
      </trkpt>
      <trkpt lat="40.212583" lon="-4.962567">
        <ele>1898.0</ele>
        <time>2015-03-14T15:10:58Z</time>
      </trkpt>
      <trkpt lat="40.212650" lon="-4.962533">
        <ele>1901.0</ele>
        <time>2015-03-14T15:10:59Z</time>
      </trkpt>
      <trkpt lat="40.212700" lon="-4.962500">
        <ele>1902.0</ele>
        <time>2015-03-14T15:11:00Z</time>
      </trkpt>
      <trkpt lat="40.212767" lon="-4.962467">
        <ele>1905.0</ele>
        <time>2015-03-14T15:11:01Z</time>
      </trkpt>
      <trkpt lat="40.212833" lon="-4.962433">
        <ele>1907.0</ele>
        <time>2015-03-14T15:11:02Z</time>
      </trkpt>
      <trkpt lat="40.212900" lon="-4.962400">
        <ele>1910.0</ele>
        <time>2015-03-14T15:11:03Z</time>
      </trkpt>
      <trkpt lat="40.212950" lon="-4.962367">
        <ele>1913.0</ele>
        <time>2015-03-14T15:11:04Z</time>
      </trkpt>
      <trkpt lat="40.213000" lon="-4.962317">
        <ele>1914.0</ele>
        <time>2015-03-14T15:11:05Z</time>
      </trkpt>
      <trkpt lat="40.213017" lon="-4.962217">
        <ele>1914.0</ele>
        <time>2015-03-14T15:11:06Z</time>
      </trkpt>
      <trkpt lat="40.213017" lon="-4.962117">
        <ele>1913.0</ele>
        <time>2015-03-14T15:11:07Z</time>
      </trkpt>
      <trkpt lat="40.212983" lon="-4.962000">
        <ele>1914.0</ele>
        <time>2015-03-14T15:11:08Z</time>
      </trkpt>
      <trkpt lat="40.212933" lon="-4.961900">
        <ele>1915.0</ele>
        <time>2015-03-14T15:11:09Z</time>
      </trkpt>
      <trkpt lat="40.212867" lon="-4.961800">
        <ele>1917.0</ele>
        <time>2015-03-14T15:11:10Z</time>
      </trkpt>
      <trkpt lat="40.212767" lon="-4.961733">
        <ele>1919.0</ele>
        <time>2015-03-14T15:11:11Z</time>
      </trkpt>
      <trkpt lat="40.212667" lon="-4.961717">
        <ele>1919.0</ele>
        <time>2015-03-14T15:11:12Z</time>
      </trkpt>
      <trkpt lat="40.212550" lon="-4.961750">
        <ele>1920.0</ele>
        <time>2015-03-14T15:11:13Z</time>
      </trkpt>
      <trkpt lat="40.212450" lon="-4.961800">
        <ele>1919.0</ele>
        <time>2015-03-14T15:11:14Z</time>
      </trkpt>
      <trkpt lat="40.212350" lon="-4.961867">
        <ele>1919.0</ele>
        <time>2015-03-14T15:11:15Z</time>
      </trkpt>
      <trkpt lat="40.212267" lon="-4.961950">
        <ele>1918.0</ele>
        <time>2015-03-14T15:11:16Z</time>
      </trkpt>
      <trkpt lat="40.212183" lon="-4.962067">
        <ele>1918.0</ele>
        <time>2015-03-14T15:11:17Z</time>
      </trkpt>
      <trkpt lat="40.212133" lon="-4.962200">
        <ele>1918.0</ele>
        <time>2015-03-14T15:11:18Z</time>
      </trkpt>
      <trkpt lat="40.212100" lon="-4.962350">
        <ele>1918.0</ele>
        <time>2015-03-14T15:11:19Z</time>
      </trkpt>
      <trkpt lat="40.212100" lon="-4.962517">
        <ele>1920.0</ele>
        <time>2015-03-14T15:11:20Z</time>
      </trkpt>
      <trkpt lat="40.212100" lon="-4.962667">
        <ele>1922.0</ele>
        <time>2015-03-14T15:11:21Z</time>
      </trkpt>
      <trkpt lat="40.212100" lon="-4.962817">
        <ele>1924.0</ele>
        <time>2015-03-14T15:11:22Z</time>
      </trkpt>
      <trkpt lat="40.212117" lon="-4.962967">
        <ele>1926.0</ele>
        <time>2015-03-14T15:11:23Z</time>
      </trkpt>
      <trkpt lat="40.212150" lon="-4.963117">
        <ele>1927.0</ele>
        <time>2015-03-14T15:11:24Z</time>
      </trkpt>
      <trkpt lat="40.212200" lon="-4.963250">
        <ele>1927.0</ele>
        <time>2015-03-14T15:11:25Z</time>
      </trkpt>
      <trkpt lat="40.212283" lon="-4.963367">
        <ele>1926.0</ele>
        <time>2015-03-14T15:11:26Z</time>
      </trkpt>
      <trkpt lat="40.212367" lon="-4.963483">
        <ele>1926.0</ele>
        <time>2015-03-14T15:11:27Z</time>
      </trkpt>
      <trkpt lat="40.212467" lon="-4.963567">
        <ele>1928.0</ele>
        <time>2015-03-14T15:11:28Z</time>
      </trkpt>
      <trkpt lat="40.212567" lon="-4.963633">
        <ele>1931.0</ele>
        <time>2015-03-14T15:11:29Z</time>
      </trkpt>
      <trkpt lat="40.212633" lon="-4.963667">
        <ele>1933.0</ele>
        <time>2015-03-14T15:11:30Z</time>
      </trkpt>
      <trkpt lat="40.212717" lon="-4.963700">
        <ele>1933.0</ele>
        <time>2015-03-14T15:11:31Z</time>
      </trkpt>
      <trkpt lat="40.212783" lon="-4.963683">
        <ele>1933.0</ele>
        <time>2015-03-14T15:11:32Z</time>
      </trkpt>
      <trkpt lat="40.212867" lon="-4.963650">
        <ele>1932.0</ele>
        <time>2015-03-14T15:11:33Z</time>
      </trkpt>
      <trkpt lat="40.212933" lon="-4.963583">
        <ele>1931.0</ele>
        <time>2015-03-14T15:11:34Z</time>
      </trkpt>
      <trkpt lat="40.212967" lon="-4.963500">
        <ele>1932.0</ele>
        <time>2015-03-14T15:11:35Z</time>
      </trkpt>
      <trkpt lat="40.213000" lon="-4.963417">
        <ele>1933.0</ele>
        <time>2015-03-14T15:11:36Z</time>
      </trkpt>
      <trkpt lat="40.213033" lon="-4.963333">
        <ele>1933.0</ele>
        <time>2015-03-14T15:11:37Z</time>
      </trkpt>
      <trkpt lat="40.213033" lon="-4.963233">
        <ele>1932.0</ele>
        <time>2015-03-14T15:11:38Z</time>
      </trkpt>
      <trkpt lat="40.213017" lon="-4.963117">
        <ele>1931.0</ele>
        <time>2015-03-14T15:11:39Z</time>
      </trkpt>
      <trkpt lat="40.213000" lon="-4.963017">
        <ele>1930.0</ele>
        <time>2015-03-14T15:11:40Z</time>
      </trkpt>
      <trkpt lat="40.212967" lon="-4.962900">
        <ele>1931.0</ele>
        <time>2015-03-14T15:11:41Z</time>
      </trkpt>
      <trkpt lat="40.212933" lon="-4.962800">
        <ele>1931.0</ele>
        <time>2015-03-14T15:11:42Z</time>
      </trkpt>
      <trkpt lat="40.212883" lon="-4.962700">
        <ele>1932.0</ele>
        <time>2015-03-14T15:11:43Z</time>
      </trkpt>
      <trkpt lat="40.212833" lon="-4.962600">
        <ele>1934.0</ele>
        <time>2015-03-14T15:11:44Z</time>
      </trkpt>
      <trkpt lat="40.212767" lon="-4.962517">
        <ele>1935.0</ele>
        <time>2015-03-14T15:11:45Z</time>
      </trkpt>
      <trkpt lat="40.212717" lon="-4.962450">
        <ele>1938.0</ele>
        <time>2015-03-14T15:11:46Z</time>
      </trkpt>
      <trkpt lat="40.212633" lon="-4.962400">
        <ele>1940.0</ele>
        <time>2015-03-14T15:11:47Z</time>
      </trkpt>
      <trkpt lat="40.212550" lon="-4.962383">
        <ele>1941.0</ele>
        <time>2015-03-14T15:11:48Z</time>
      </trkpt>
      <trkpt lat="40.212450" lon="-4.962367">
        <ele>1943.0</ele>
        <time>2015-03-14T15:11:49Z</time>
      </trkpt>
      <trkpt lat="40.212367" lon="-4.962383">
        <ele>1945.0</ele>
        <time>2015-03-14T15:11:50Z</time>
      </trkpt>
      <trkpt lat="40.212267" lon="-4.962433">
        <ele>1946.0</ele>
        <time>2015-03-14T15:11:51Z</time>
      </trkpt>
      <trkpt lat="40.212183" lon="-4.962500">
        <ele>1946.0</ele>
        <time>2015-03-14T15:11:52Z</time>
      </trkpt>
      <trkpt lat="40.212117" lon="-4.962600">
        <ele>1946.0</ele>
        <time>2015-03-14T15:11:53Z</time>
      </trkpt>
      <trkpt lat="40.212050" lon="-4.962733">
        <ele>1947.0</ele>
        <time>2015-03-14T15:11:54Z</time>
      </trkpt>
      <trkpt lat="40.211983" lon="-4.962867">
        <ele>1948.0</ele>
        <time>2015-03-14T15:11:55Z</time>
      </trkpt>
      <trkpt lat="40.211917" lon="-4.962983">
        <ele>1950.0</ele>
        <time>2015-03-14T15:11:56Z</time>
      </trkpt>
      <trkpt lat="40.211883" lon="-4.963117">
        <ele>1952.0</ele>
        <time>2015-03-14T15:11:57Z</time>
      </trkpt>
      <trkpt lat="40.211850" lon="-4.963233">
        <ele>1953.0</ele>
        <time>2015-03-14T15:11:58Z</time>
      </trkpt>
      <trkpt lat="40.211833" lon="-4.963350">
        <ele>1954.0</ele>
        <time>2015-03-14T15:11:59Z</time>
      </trkpt>
      <trkpt lat="40.211833" lon="-4.963467">
        <ele>1954.0</ele>
        <time>2015-03-14T15:12:00Z</time>
      </trkpt>
      <trkpt lat="40.211833" lon="-4.963600">
        <ele>1954.0</ele>
        <time>2015-03-14T15:12:01Z</time>
      </trkpt>
      <trkpt lat="40.211867" lon="-4.963733">
        <ele>1954.0</ele>
        <time>2015-03-14T15:12:02Z</time>
      </trkpt>
      <trkpt lat="40.211917" lon="-4.963833">
        <ele>1955.0</ele>
        <time>2015-03-14T15:12:03Z</time>
      </trkpt>
      <trkpt lat="40.211983" lon="-4.963917">
        <ele>1956.0</ele>
        <time>2015-03-14T15:12:04Z</time>
      </trkpt>
      <trkpt lat="40.212050" lon="-4.963950">
        <ele>1956.0</ele>
        <time>2015-03-14T15:12:05Z</time>
      </trkpt>
      <trkpt lat="40.212133" lon="-4.963983">
        <ele>1956.0</ele>
        <time>2015-03-14T15:12:06Z</time>
      </trkpt>
      <trkpt lat="40.212200" lon="-4.963983">
        <ele>1956.0</ele>
        <time>2015-03-14T15:12:07Z</time>
      </trkpt>
      <trkpt lat="40.212267" lon="-4.963950">
        <ele>1954.0</ele>
        <time>2015-03-14T15:12:08Z</time>
      </trkpt>
      <trkpt lat="40.212333" lon="-4.963900">
        <ele>1953.0</ele>
        <time>2015-03-14T15:12:09Z</time>
      </trkpt>
      <trkpt lat="40.212400" lon="-4.963833">
        <ele>1951.0</ele>
        <time>2015-03-14T15:12:10Z</time>
      </trkpt>
      <trkpt lat="40.212450" lon="-4.963733">
        <ele>1951.0</ele>
        <time>2015-03-14T15:12:11Z</time>
      </trkpt>
      <trkpt lat="40.212483" lon="-4.963633">
        <ele>1950.0</ele>
        <time>2015-03-14T15:12:12Z</time>
      </trkpt>
      <trkpt lat="40.212467" lon="-4.963500">
        <ele>1950.0</ele>
        <time>2015-03-14T15:12:13Z</time>
      </trkpt>
      <trkpt lat="40.212450" lon="-4.963383">
        <ele>1949.0</ele>
        <time>2015-03-14T15:12:14Z</time>
      </trkpt>
      <trkpt lat="40.212417" lon="-4.963267">
        <ele>1951.0</ele>
        <time>2015-03-14T15:12:15Z</time>
      </trkpt>
      <trkpt lat="40.212383" lon="-4.963150">
        <ele>1952.0</ele>
        <time>2015-03-14T15:12:16Z</time>
      </trkpt>
      <trkpt lat="40.212333" lon="-4.963033">
        <ele>1954.0</ele>
        <time>2015-03-14T15:12:17Z</time>
      </trkpt>
      <trkpt lat="40.212267" lon="-4.962933">
        <ele>1956.0</ele>
        <time>2015-03-14T15:12:18Z</time>
      </trkpt>
      <trkpt lat="40.212200" lon="-4.962850">
        <ele>1958.0</ele>
        <time>2015-03-14T15:12:19Z</time>
      </trkpt>
      <trkpt lat="40.212133" lon="-4.962767">
        <ele>1959.0</ele>
        <time>2015-03-14T15:12:20Z</time>
      </trkpt>
      <trkpt lat="40.212067" lon="-4.962683">
        <ele>1960.0</ele>
        <time>2015-03-14T15:12:21Z</time>
      </trkpt>
      <trkpt lat="40.211983" lon="-4.962617">
        <ele>1962.0</ele>
        <time>2015-03-14T15:12:22Z</time>
      </trkpt>
      <trkpt lat="40.211900" lon="-4.962550">
        <ele>1964.0</ele>
        <time>2015-03-14T15:12:23Z</time>
      </trkpt>
      <trkpt lat="40.211817" lon="-4.962483">
        <ele>1966.0</ele>
        <time>2015-03-14T15:12:24Z</time>
      </trkpt>
      <trkpt lat="40.211733" lon="-4.962450">
        <ele>1968.0</ele>
        <time>2015-03-14T15:12:25Z</time>
      </trkpt>
      <trkpt lat="40.211633" lon="-4.962433">
        <ele>1969.0</ele>
        <time>2015-03-14T15:12:26Z</time>
      </trkpt>
      <trkpt lat="40.211517" lon="-4.962433">
        <ele>1970.0</ele>
        <time>2015-03-14T15:12:27Z</time>
      </trkpt>
      <trkpt lat="40.211417" lon="-4.962467">
        <ele>1970.0</ele>
        <time>2015-03-14T15:12:28Z</time>
      </trkpt>
      <trkpt lat="40.211317" lon="-4.962533">
        <ele>1970.0</ele>
        <time>2015-03-14T15:12:29Z</time>
      </trkpt>
      <trkpt lat="40.211217" lon="-4.962617">
        <ele>1970.0</ele>
        <time>2015-03-14T15:12:30Z</time>
      </trkpt>
      <trkpt lat="40.211150" lon="-4.962717">
        <ele>1970.0</ele>
        <time>2015-03-14T15:12:31Z</time>
      </trkpt>
      <trkpt lat="40.211083" lon="-4.962817">
        <ele>1969.0</ele>
        <time>2015-03-14T15:12:32Z</time>
      </trkpt>
      <trkpt lat="40.211050" lon="-4.962933">
        <ele>1968.0</ele>
        <time>2015-03-14T15:12:33Z</time>
      </trkpt>
      <trkpt lat="40.211017" lon="-4.963050">
        <ele>1966.0</ele>
        <time>2015-03-14T15:12:34Z</time>
      </trkpt>
      <trkpt lat="40.210983" lon="-4.963200">
        <ele>1965.0</ele>
        <time>2015-03-14T15:12:35Z</time>
      </trkpt>
      <trkpt lat="40.210983" lon="-4.963333">
        <ele>1964.0</ele>
        <time>2015-03-14T15:12:36Z</time>
      </trkpt>
      <trkpt lat="40.211017" lon="-4.963483">
        <ele>1964.0</ele>
        <time>2015-03-14T15:12:37Z</time>
      </trkpt>
      <trkpt lat="40.211067" lon="-4.963600">
        <ele>1964.0</ele>
        <time>2015-03-14T15:12:38Z</time>
      </trkpt>
      <trkpt lat="40.211133" lon="-4.963683">
        <ele>1965.0</ele>
        <time>2015-03-14T15:12:39Z</time>
      </trkpt>
      <trkpt lat="40.211200" lon="-4.963750">
        <ele>1967.0</ele>
        <time>2015-03-14T15:12:40Z</time>
      </trkpt>
      <trkpt lat="40.211267" lon="-4.963783">
        <ele>1967.0</ele>
        <time>2015-03-14T15:12:41Z</time>
      </trkpt>
      <trkpt lat="40.211333" lon="-4.963817">
        <ele>1967.0</ele>
        <time>2015-03-14T15:12:42Z</time>
      </trkpt>
      <trkpt lat="40.211383" lon="-4.963817">
        <ele>1967.0</ele>
        <time>2015-03-14T15:12:43Z</time>
      </trkpt>
      <trkpt lat="40.211450" lon="-4.963817">
        <ele>1966.0</ele>
        <time>2015-03-14T15:12:44Z</time>
      </trkpt>
      <trkpt lat="40.211533" lon="-4.963783">
        <ele>1965.0</ele>
        <time>2015-03-14T15:12:45Z</time>
      </trkpt>
      <trkpt lat="40.211600" lon="-4.963733">
        <ele>1964.0</ele>
        <time>2015-03-14T15:12:46Z</time>
      </trkpt>
      <trkpt lat="40.211683" lon="-4.963700">
        <ele>1964.0</ele>
        <time>2015-03-14T15:12:47Z</time>
      </trkpt>
      <trkpt lat="40.211750" lon="-4.963667">
        <ele>1965.0</ele>
        <time>2015-03-14T15:12:48Z</time>
      </trkpt>
      <trkpt lat="40.211833" lon="-4.963633">
        <ele>1966.0</ele>
        <time>2015-03-14T15:12:49Z</time>
      </trkpt>
      <trkpt lat="40.211900" lon="-4.963600">
        <ele>1967.0</ele>
        <time>2015-03-14T15:12:50Z</time>
      </trkpt>
      <trkpt lat="40.211950" lon="-4.963550">
        <ele>1969.0</ele>
        <time>2015-03-14T15:12:51Z</time>
      </trkpt>
      <trkpt lat="40.212000" lon="-4.963467">
        <ele>1970.0</ele>
        <time>2015-03-14T15:12:52Z</time>
      </trkpt>
      <trkpt lat="40.212050" lon="-4.963400">
        <ele>1971.0</ele>
        <time>2015-03-14T15:12:53Z</time>
      </trkpt>
      <trkpt lat="40.212100" lon="-4.963317">
        <ele>1974.0</ele>
        <time>2015-03-14T15:12:54Z</time>
      </trkpt>
      <trkpt lat="40.212167" lon="-4.963250">
        <ele>1977.0</ele>
        <time>2015-03-14T15:12:55Z</time>
      </trkpt>
      <trkpt lat="40.212217" lon="-4.963183">
        <ele>1979.0</ele>
        <time>2015-03-14T15:12:56Z</time>
      </trkpt>
      <trkpt lat="40.212267" lon="-4.963117">
        <ele>1981.0</ele>
        <time>2015-03-14T15:12:57Z</time>
      </trkpt>
      <trkpt lat="40.212317" lon="-4.963050">
        <ele>1983.0</ele>
        <time>2015-03-14T15:12:58Z</time>
      </trkpt>
      <trkpt lat="40.212350" lon="-4.962967">
        <ele>1985.0</ele>
        <time>2015-03-14T15:12:59Z</time>
      </trkpt>
      <trkpt lat="40.212417" lon="-4.962900">
        <ele>1988.0</ele>
        <time>2015-03-14T15:13:00Z</time>
      </trkpt>
      <trkpt lat="40.212483" lon="-4.962867">
        <ele>1990.0</ele>
        <time>2015-03-14T15:13:01Z</time>
      </trkpt>
      <trkpt lat="40.212567" lon="-4.962833">
        <ele>1991.0</ele>
        <time>2015-03-14T15:13:02Z</time>
      </trkpt>
      <trkpt lat="40.212633" lon="-4.962833">
        <ele>1991.0</ele>
        <time>2015-03-14T15:13:03Z</time>
      </trkpt>
      <trkpt lat="40.212717" lon="-4.962850">
        <ele>1993.0</ele>
        <time>2015-03-14T15:13:04Z</time>
      </trkpt>
      <trkpt lat="40.212767" lon="-4.962867">
        <ele>1996.0</ele>
        <time>2015-03-14T15:13:05Z</time>
      </trkpt>
      <trkpt lat="40.212817" lon="-4.962900">
        <ele>1998.0</ele>
        <time>2015-03-14T15:13:06Z</time>
      </trkpt>
      <trkpt lat="40.212850" lon="-4.962933">
        <ele>1999.0</ele>
        <time>2015-03-14T15:13:07Z</time>
      </trkpt>
      <trkpt lat="40.212900" lon="-4.962967">
        <ele>2000.0</ele>
        <time>2015-03-14T15:13:08Z</time>
      </trkpt>
      <trkpt lat="40.212933" lon="-4.963000">
        <ele>2001.0</ele>
        <time>2015-03-14T15:13:09Z</time>
      </trkpt>
      <trkpt lat="40.212983" lon="-4.963083">
        <ele>2001.0</ele>
        <time>2015-03-14T15:13:10Z</time>
      </trkpt>
      <trkpt lat="40.213017" lon="-4.963183">
        <ele>2001.0</ele>
        <time>2015-03-14T15:13:11Z</time>
      </trkpt>
      <trkpt lat="40.213017" lon="-4.963317">
        <ele>2002.0</ele>
        <time>2015-03-14T15:13:12Z</time>
      </trkpt>
      <trkpt lat="40.212983" lon="-4.963467">
        <ele>2003.0</ele>
        <time>2015-03-14T15:13:13Z</time>
      </trkpt>
      <trkpt lat="40.212900" lon="-4.963600">
        <ele>2004.0</ele>
        <time>2015-03-14T15:13:14Z</time>
      </trkpt>
      <trkpt lat="40.212783" lon="-4.963700">
        <ele>2005.0</ele>
        <time>2015-03-14T15:13:15Z</time>
      </trkpt>
      <trkpt lat="40.212650" lon="-4.963767">
        <ele>2006.0</ele>
        <time>2015-03-14T15:13:16Z</time>
      </trkpt>
      <trkpt lat="40.212533" lon="-4.963767">
        <ele>2008.0</ele>
        <time>2015-03-14T15:13:17Z</time>
      </trkpt>
      <trkpt lat="40.212433" lon="-4.963717">
        <ele>2011.0</ele>
        <time>2015-03-14T15:13:18Z</time>
      </trkpt>
      <trkpt lat="40.212333" lon="-4.963650">
        <ele>2014.0</ele>
        <time>2015-03-14T15:13:19Z</time>
      </trkpt>
      <trkpt lat="40.212250" lon="-4.963583">
        <ele>2018.0</ele>
        <time>2015-03-14T15:13:20Z</time>
      </trkpt>
      <trkpt lat="40.212183" lon="-4.963500">
        <ele>2021.0</ele>
        <time>2015-03-14T15:13:21Z</time>
      </trkpt>
      <trkpt lat="40.212150" lon="-4.963400">
        <ele>2024.0</ele>
        <time>2015-03-14T15:13:22Z</time>
      </trkpt>
      <trkpt lat="40.212133" lon="-4.963283">
        <ele>2026.0</ele>
        <time>2015-03-14T15:13:23Z</time>
      </trkpt>
      <trkpt lat="40.212133" lon="-4.963183">
        <ele>2029.0</ele>
        <time>2015-03-14T15:13:24Z</time>
      </trkpt>
      <trkpt lat="40.212150" lon="-4.963117">
        <ele>2031.0</ele>
        <time>2015-03-14T15:13:25Z</time>
      </trkpt>
      <trkpt lat="40.212167" lon="-4.963067">
        <ele>2032.0</ele>
        <time>2015-03-14T15:13:26Z</time>
      </trkpt>
      <trkpt lat="40.212200" lon="-4.963033">
        <ele>2034.0</ele>
        <time>2015-03-14T15:13:27Z</time>
      </trkpt>
      <trkpt lat="40.212233" lon="-4.963017">
        <ele>2035.0</ele>
        <time>2015-03-14T15:13:28Z</time>
      </trkpt>
      <trkpt lat="40.212250" lon="-4.963000">
        <ele>2036.0</ele>
        <time>2015-03-14T15:13:29Z</time>
      </trkpt>
      <trkpt lat="40.212283" lon="-4.963017">
        <ele>2036.0</ele>
        <time>2015-03-14T15:13:30Z</time>
      </trkpt>
      <trkpt lat="40.212333" lon="-4.963050">
        <ele>2036.0</ele>
        <time>2015-03-14T15:13:31Z</time>
      </trkpt>
      <trkpt lat="40.212367" lon="-4.963133">
        <ele>2036.0</ele>
        <time>2015-03-14T15:13:32Z</time>
      </trkpt>
      <trkpt lat="40.212400" lon="-4.963250">
        <ele>2037.0</ele>
        <time>2015-03-14T15:13:33Z</time>
      </trkpt>
      <trkpt lat="40.212417" lon="-4.963383">
        <ele>2039.0</ele>
        <time>2015-03-14T15:13:34Z</time>
      </trkpt>
      <trkpt lat="40.212400" lon="-4.963517">
        <ele>2042.0</ele>
        <time>2015-03-14T15:13:35Z</time>
      </trkpt>
      <trkpt lat="40.212367" lon="-4.963633">
        <ele>2044.0</ele>
        <time>2015-03-14T15:13:36Z</time>
      </trkpt>
      <trkpt lat="40.212317" lon="-4.963767">
        <ele>2046.0</ele>
        <time>2015-03-14T15:13:37Z</time>
      </trkpt>
      <trkpt lat="40.212267" lon="-4.963883">
        <ele>2047.0</ele>
        <time>2015-03-14T15:13:38Z</time>
      </trkpt>
      <trkpt lat="40.212200" lon="-4.964017">
        <ele>2048.0</ele>
        <time>2015-03-14T15:13:39Z</time>
      </trkpt>
      <trkpt lat="40.212117" lon="-4.964167">
        <ele>2048.0</ele>
        <time>2015-03-14T15:13:40Z</time>
      </trkpt>
      <trkpt lat="40.212000" lon="-4.964283">
        <ele>2049.0</ele>
        <time>2015-03-14T15:13:41Z</time>
      </trkpt>
      <trkpt lat="40.211900" lon="-4.964367">
        <ele>2051.0</ele>
        <time>2015-03-14T15:13:42Z</time>
      </trkpt>
      <trkpt lat="40.211783" lon="-4.964400">
        <ele>2054.0</ele>
        <time>2015-03-14T15:13:43Z</time>
      </trkpt>
      <trkpt lat="40.211667" lon="-4.964417">
        <ele>2056.0</ele>
        <time>2015-03-14T15:13:44Z</time>
      </trkpt>
      <trkpt lat="40.211583" lon="-4.964400">
        <ele>2058.0</ele>
        <time>2015-03-14T15:13:45Z</time>
      </trkpt>
      <trkpt lat="40.211483" lon="-4.964383">
        <ele>2059.0</ele>
        <time>2015-03-14T15:13:46Z</time>
      </trkpt>
      <trkpt lat="40.211400" lon="-4.964333">
        <ele>2060.0</ele>
        <time>2015-03-14T15:13:47Z</time>
      </trkpt>
      <trkpt lat="40.211317" lon="-4.964267">
        <ele>2060.0</ele>
        <time>2015-03-14T15:13:48Z</time>
      </trkpt>
      <trkpt lat="40.211250" lon="-4.964183">
        <ele>2060.0</ele>
        <time>2015-03-14T15:13:49Z</time>
      </trkpt>
      <trkpt lat="40.211200" lon="-4.964083">
        <ele>2061.0</ele>
        <time>2015-03-14T15:13:50Z</time>
      </trkpt>
      <trkpt lat="40.211150" lon="-4.963967">
        <ele>2062.0</ele>
        <time>2015-03-14T15:13:51Z</time>
      </trkpt>
      <trkpt lat="40.211117" lon="-4.963850">
        <ele>2063.0</ele>
        <time>2015-03-14T15:13:52Z</time>
      </trkpt>
      <trkpt lat="40.211117" lon="-4.963733">
        <ele>2063.0</ele>
        <time>2015-03-14T15:13:53Z</time>
      </trkpt>
      <trkpt lat="40.211133" lon="-4.963633">
        <ele>2064.0</ele>
        <time>2015-03-14T15:13:54Z</time>
      </trkpt>
      <trkpt lat="40.211183" lon="-4.963583">
        <ele>2066.0</ele>
        <time>2015-03-14T15:13:55Z</time>
      </trkpt>
      <trkpt lat="40.211217" lon="-4.963550">
        <ele>2067.0</ele>
        <time>2015-03-14T15:13:56Z</time>
      </trkpt>
      <trkpt lat="40.211267" lon="-4.963533">
        <ele>2069.0</ele>
        <time>2015-03-14T15:13:57Z</time>
      </trkpt>
      <trkpt lat="40.211300" lon="-4.963567">
        <ele>2070.0</ele>
        <time>2015-03-14T15:13:58Z</time>
      </trkpt>
      <trkpt lat="40.211350" lon="-4.963617">
        <ele>2070.0</ele>
        <time>2015-03-14T15:13:59Z</time>
      </trkpt>
      <trkpt lat="40.211400" lon="-4.963700">
        <ele>2070.0</ele>
        <time>2015-03-14T15:14:00Z</time>
      </trkpt>
      <trkpt lat="40.211433" lon="-4.963800">
        <ele>2070.0</ele>
        <time>2015-03-14T15:14:01Z</time>
      </trkpt>
      <trkpt lat="40.211450" lon="-4.963917">
        <ele>2071.0</ele>
        <time>2015-03-14T15:14:02Z</time>
      </trkpt>
      <trkpt lat="40.211467" lon="-4.964050">
        <ele>2072.0</ele>
        <time>2015-03-14T15:14:03Z</time>
      </trkpt>
      <trkpt lat="40.211450" lon="-4.964183">
        <ele>2073.0</ele>
        <time>2015-03-14T15:14:04Z</time>
      </trkpt>
      <trkpt lat="40.211400" lon="-4.964333">
        <ele>2074.0</ele>
        <time>2015-03-14T15:14:05Z</time>
      </trkpt>
      <trkpt lat="40.211350" lon="-4.964467">
        <ele>2076.0</ele>
        <time>2015-03-14T15:14:06Z</time>
      </trkpt>
      <trkpt lat="40.211267" lon="-4.964600">
        <ele>2079.0</ele>
        <time>2015-03-14T15:14:07Z</time>
      </trkpt>
      <trkpt lat="40.211200" lon="-4.964717">
        <ele>2081.0</ele>
        <time>2015-03-14T15:14:08Z</time>
      </trkpt>
      <trkpt lat="40.211133" lon="-4.964800">
        <ele>2083.0</ele>
        <time>2015-03-14T15:14:09Z</time>
      </trkpt>
      <trkpt lat="40.211067" lon="-4.964900">
        <ele>2084.0</ele>
        <time>2015-03-14T15:14:10Z</time>
      </trkpt>
      <trkpt lat="40.211000" lon="-4.964967">
        <ele>2084.0</ele>
        <time>2015-03-14T15:14:11Z</time>
      </trkpt>
      <trkpt lat="40.210900" lon="-4.965017">
        <ele>2082.0</ele>
        <time>2015-03-14T15:14:12Z</time>
      </trkpt>
      <trkpt lat="40.210783" lon="-4.965050">
        <ele>2081.0</ele>
        <time>2015-03-14T15:14:13Z</time>
      </trkpt>
      <trkpt lat="40.210667" lon="-4.965033">
        <ele>2080.0</ele>
        <time>2015-03-14T15:14:14Z</time>
      </trkpt>
      <trkpt lat="40.210550" lon="-4.964983">
        <ele>2080.0</ele>
        <time>2015-03-14T15:14:15Z</time>
      </trkpt>
      <trkpt lat="40.210450" lon="-4.964900">
        <ele>2081.0</ele>
        <time>2015-03-14T15:14:16Z</time>
      </trkpt>
      <trkpt lat="40.210367" lon="-4.964817">
        <ele>2082.0</ele>
        <time>2015-03-14T15:14:17Z</time>
      </trkpt>
      <trkpt lat="40.210300" lon="-4.964733">
        <ele>2084.0</ele>
        <time>2015-03-14T15:14:18Z</time>
      </trkpt>
      <trkpt lat="40.210250" lon="-4.964667">
        <ele>2085.0</ele>
        <time>2015-03-14T15:14:19Z</time>
      </trkpt>
      <trkpt lat="40.210217" lon="-4.964583">
        <ele>2085.0</ele>
        <time>2015-03-14T15:14:20Z</time>
      </trkpt>
      <trkpt lat="40.210217" lon="-4.964500">
        <ele>2084.0</ele>
        <time>2015-03-14T15:14:21Z</time>
      </trkpt>
      <trkpt lat="40.210250" lon="-4.964417">
        <ele>2082.0</ele>
        <time>2015-03-14T15:14:22Z</time>
      </trkpt>
      <trkpt lat="40.210267" lon="-4.964317">
        <ele>2081.0</ele>
        <time>2015-03-14T15:14:23Z</time>
      </trkpt>
      <trkpt lat="40.210300" lon="-4.964217">
        <ele>2082.0</ele>
        <time>2015-03-14T15:14:24Z</time>
      </trkpt>
      <trkpt lat="40.210333" lon="-4.964133">
        <ele>2084.0</ele>
        <time>2015-03-14T15:14:25Z</time>
      </trkpt>
      <trkpt lat="40.210367" lon="-4.964083">
        <ele>2087.0</ele>
        <time>2015-03-14T15:14:26Z</time>
      </trkpt>
      <trkpt lat="40.210400" lon="-4.964067">
        <ele>2088.0</ele>
        <time>2015-03-14T15:14:27Z</time>
      </trkpt>
      <trkpt lat="40.210433" lon="-4.964083">
        <ele>2088.0</ele>
        <time>2015-03-14T15:14:28Z</time>
      </trkpt>
      <trkpt lat="40.210467" lon="-4.964100">
        <ele>2088.0</ele>
        <time>2015-03-14T15:14:29Z</time>
      </trkpt>
      <trkpt lat="40.210517" lon="-4.964133">
        <ele>2088.0</ele>
        <time>2015-03-14T15:14:30Z</time>
      </trkpt>
      <trkpt lat="40.210550" lon="-4.964167">
        <ele>2090.0</ele>
        <time>2015-03-14T15:14:31Z</time>
      </trkpt>
      <trkpt lat="40.210583" lon="-4.964233">
        <ele>2091.0</ele>
        <time>2015-03-14T15:14:32Z</time>
      </trkpt>
      <trkpt lat="40.210600" lon="-4.964317">
        <ele>2092.0</ele>
        <time>2015-03-14T15:14:33Z</time>
      </trkpt>
      <trkpt lat="40.210617" lon="-4.964417">
        <ele>2092.0</ele>
        <time>2015-03-14T15:14:34Z</time>
      </trkpt>
      <trkpt lat="40.210633" lon="-4.964517">
        <ele>2092.0</ele>
        <time>2015-03-14T15:14:35Z</time>
      </trkpt>
      <trkpt lat="40.210650" lon="-4.964633">
        <ele>2093.0</ele>
        <time>2015-03-14T15:14:36Z</time>
      </trkpt>
      <trkpt lat="40.210667" lon="-4.964750">
        <ele>2094.0</ele>
        <time>2015-03-14T15:14:37Z</time>
      </trkpt>
      <trkpt lat="40.210667" lon="-4.964883">
        <ele>2094.0</ele>
        <time>2015-03-14T15:14:38Z</time>
      </trkpt>
      <trkpt lat="40.210650" lon="-4.965033">
        <ele>2094.0</ele>
        <time>2015-03-14T15:14:39Z</time>
      </trkpt>
      <trkpt lat="40.210650" lon="-4.965183">
        <ele>2096.0</ele>
        <time>2015-03-14T15:14:40Z</time>
      </trkpt>
      <trkpt lat="40.210633" lon="-4.965317">
        <ele>2097.0</ele>
        <time>2015-03-14T15:14:41Z</time>
      </trkpt>
      <trkpt lat="40.210633" lon="-4.965433">
        <ele>2099.0</ele>
        <time>2015-03-14T15:14:42Z</time>
      </trkpt>
      <trkpt lat="40.210617" lon="-4.965550">
        <ele>2100.0</ele>
        <time>2015-03-14T15:14:43Z</time>
      </trkpt>
      <trkpt lat="40.210583" lon="-4.965650">
        <ele>2100.0</ele>
        <time>2015-03-14T15:14:44Z</time>
      </trkpt>
      <trkpt lat="40.210533" lon="-4.965783">
        <ele>2099.0</ele>
        <time>2015-03-14T15:14:45Z</time>
      </trkpt>
      <trkpt lat="40.210450" lon="-4.965917">
        <ele>2098.0</ele>
        <time>2015-03-14T15:14:46Z</time>
      </trkpt>
      <trkpt lat="40.210367" lon="-4.966050">
        <ele>2097.0</ele>
        <time>2015-03-14T15:14:47Z</time>
      </trkpt>
      <trkpt lat="40.210267" lon="-4.966167">
        <ele>2098.0</ele>
        <time>2015-03-14T15:14:48Z</time>
      </trkpt>
      <trkpt lat="40.210167" lon="-4.966283">
        <ele>2099.0</ele>
        <time>2015-03-14T15:14:49Z</time>
      </trkpt>
      <trkpt lat="40.210050" lon="-4.966367">
        <ele>2098.0</ele>
        <time>2015-03-14T15:14:50Z</time>
      </trkpt>
      <trkpt lat="40.209933" lon="-4.966417">
        <ele>2098.0</ele>
        <time>2015-03-14T15:14:51Z</time>
      </trkpt>
      <trkpt lat="40.209817" lon="-4.966433">
        <ele>2099.0</ele>
        <time>2015-03-14T15:14:52Z</time>
      </trkpt>
      <trkpt lat="40.209717" lon="-4.966450">
        <ele>2099.0</ele>
        <time>2015-03-14T15:14:53Z</time>
      </trkpt>
      <trkpt lat="40.209633" lon="-4.966450">
        <ele>2098.0</ele>
        <time>2015-03-14T15:14:54Z</time>
      </trkpt>
      <trkpt lat="40.209567" lon="-4.966400">
        <ele>2097.0</ele>
        <time>2015-03-14T15:14:55Z</time>
      </trkpt>
      <trkpt lat="40.209517" lon="-4.966317">
        <ele>2093.0</ele>
        <time>2015-03-14T15:14:56Z</time>
      </trkpt>
      <trkpt lat="40.209467" lon="-4.966200">
        <ele>2089.0</ele>
        <time>2015-03-14T15:14:57Z</time>
      </trkpt>
      <trkpt lat="40.209450" lon="-4.966100">
        <ele>2086.0</ele>
        <time>2015-03-14T15:14:58Z</time>
      </trkpt>
      <trkpt lat="40.209467" lon="-4.966000">
        <ele>2085.0</ele>
        <time>2015-03-14T15:14:59Z</time>
      </trkpt>
      <trkpt lat="40.209517" lon="-4.965933">
        <ele>2084.0</ele>
        <time>2015-03-14T15:15:00Z</time>
      </trkpt>
      <trkpt lat="40.209583" lon="-4.965917">
        <ele>2084.0</ele>
        <time>2015-03-14T15:15:01Z</time>
      </trkpt>
      <trkpt lat="40.209650" lon="-4.965950">
        <ele>2085.0</ele>
        <time>2015-03-14T15:15:02Z</time>
      </trkpt>
      <trkpt lat="40.209683" lon="-4.966000">
        <ele>2085.0</ele>
        <time>2015-03-14T15:15:03Z</time>
      </trkpt>
      <trkpt lat="40.209717" lon="-4.966083">
        <ele>2085.0</ele>
        <time>2015-03-14T15:15:04Z</time>
      </trkpt>
      <trkpt lat="40.209750" lon="-4.966183">
        <ele>2084.0</ele>
        <time>2015-03-14T15:15:05Z</time>
      </trkpt>
      <trkpt lat="40.209783" lon="-4.966267">
        <ele>2082.0</ele>
        <time>2015-03-14T15:15:06Z</time>
      </trkpt>
      <trkpt lat="40.209817" lon="-4.966367">
        <ele>2082.0</ele>
        <time>2015-03-14T15:15:07Z</time>
      </trkpt>
      <trkpt lat="40.209850" lon="-4.966483">
        <ele>2083.0</ele>
        <time>2015-03-14T15:15:08Z</time>
      </trkpt>
      <trkpt lat="40.209883" lon="-4.966583">
        <ele>2084.0</ele>
        <time>2015-03-14T15:15:09Z</time>
      </trkpt>
      <trkpt lat="40.209900" lon="-4.966683">
        <ele>2084.0</ele>
        <time>2015-03-14T15:15:10Z</time>
      </trkpt>
      <trkpt lat="40.209917" lon="-4.966783">
        <ele>2084.0</ele>
        <time>2015-03-14T15:15:11Z</time>
      </trkpt>
      <trkpt lat="40.209933" lon="-4.966900">
        <ele>2083.0</ele>
        <time>2015-03-14T15:15:12Z</time>
      </trkpt>
      <trkpt lat="40.209967" lon="-4.967017">
        <ele>2082.0</ele>
        <time>2015-03-14T15:15:13Z</time>
      </trkpt>
      <trkpt lat="40.210000" lon="-4.967133">
        <ele>2081.0</ele>
        <time>2015-03-14T15:15:14Z</time>
      </trkpt>
      <trkpt lat="40.210033" lon="-4.967250">
        <ele>2080.0</ele>
        <time>2015-03-14T15:15:15Z</time>
      </trkpt>
      <trkpt lat="40.210067" lon="-4.967367">
        <ele>2079.0</ele>
        <time>2015-03-14T15:15:16Z</time>
      </trkpt>
      <trkpt lat="40.210083" lon="-4.967467">
        <ele>2078.0</ele>
        <time>2015-03-14T15:15:17Z</time>
      </trkpt>
      <trkpt lat="40.210083" lon="-4.967600">
        <ele>2075.0</ele>
        <time>2015-03-14T15:15:18Z</time>
      </trkpt>
      <trkpt lat="40.210083" lon="-4.967733">
        <ele>2072.0</ele>
        <time>2015-03-14T15:15:19Z</time>
      </trkpt>
      <trkpt lat="40.210067" lon="-4.967883">
        <ele>2069.0</ele>
        <time>2015-03-14T15:15:20Z</time>
      </trkpt>
      <trkpt lat="40.210050" lon="-4.968033">
        <ele>2067.0</ele>
        <time>2015-03-14T15:15:21Z</time>
      </trkpt>
      <trkpt lat="40.210017" lon="-4.968200">
        <ele>2066.0</ele>
        <time>2015-03-14T15:15:22Z</time>
      </trkpt>
      <trkpt lat="40.209983" lon="-4.968333">
        <ele>2066.0</ele>
        <time>2015-03-14T15:15:23Z</time>
      </trkpt>
      <trkpt lat="40.209933" lon="-4.968467">
        <ele>2065.0</ele>
        <time>2015-03-14T15:15:24Z</time>
      </trkpt>
      <trkpt lat="40.209883" lon="-4.968600">
        <ele>2064.0</ele>
        <time>2015-03-14T15:15:25Z</time>
      </trkpt>
      <trkpt lat="40.209833" lon="-4.968733">
        <ele>2062.0</ele>
        <time>2015-03-14T15:15:26Z</time>
      </trkpt>
      <trkpt lat="40.209783" lon="-4.968883">
        <ele>2060.0</ele>
        <time>2015-03-14T15:15:27Z</time>
      </trkpt>
      <trkpt lat="40.209717" lon="-4.969017">
        <ele>2057.0</ele>
        <time>2015-03-14T15:15:28Z</time>
      </trkpt>
      <trkpt lat="40.209633" lon="-4.969150">
        <ele>2055.0</ele>
        <time>2015-03-14T15:15:29Z</time>
      </trkpt>
      <trkpt lat="40.209550" lon="-4.969267">
        <ele>2053.0</ele>
        <time>2015-03-14T15:15:30Z</time>
      </trkpt>
      <trkpt lat="40.209467" lon="-4.969383">
        <ele>2051.0</ele>
        <time>2015-03-14T15:15:31Z</time>
      </trkpt>
      <trkpt lat="40.209367" lon="-4.969483">
        <ele>2048.0</ele>
        <time>2015-03-14T15:15:32Z</time>
      </trkpt>
      <trkpt lat="40.209267" lon="-4.969600">
        <ele>2046.0</ele>
        <time>2015-03-14T15:15:33Z</time>
      </trkpt>
      <trkpt lat="40.209167" lon="-4.969700">
        <ele>2045.0</ele>
        <time>2015-03-14T15:15:34Z</time>
      </trkpt>
      <trkpt lat="40.209067" lon="-4.969783">
        <ele>2044.0</ele>
        <time>2015-03-14T15:15:35Z</time>
      </trkpt>
      <trkpt lat="40.208967" lon="-4.969867">
        <ele>2042.0</ele>
        <time>2015-03-14T15:15:36Z</time>
      </trkpt>
      <trkpt lat="40.208867" lon="-4.969950">
        <ele>2040.0</ele>
        <time>2015-03-14T15:15:37Z</time>
      </trkpt>
      <trkpt lat="40.208767" lon="-4.970050">
        <ele>2037.0</ele>
        <time>2015-03-14T15:15:38Z</time>
      </trkpt>
      <trkpt lat="40.208667" lon="-4.970167">
        <ele>2035.0</ele>
        <time>2015-03-14T15:15:39Z</time>
      </trkpt>
      <trkpt lat="40.208567" lon="-4.970267">
        <ele>2033.0</ele>
        <time>2015-03-14T15:15:40Z</time>
      </trkpt>
      <trkpt lat="40.208467" lon="-4.970383">
        <ele>2033.0</ele>
        <time>2015-03-14T15:15:41Z</time>
      </trkpt>
      <trkpt lat="40.208367" lon="-4.970500">
        <ele>2032.0</ele>
        <time>2015-03-14T15:15:42Z</time>
      </trkpt>
      <trkpt lat="40.208283" lon="-4.970617">
        <ele>2030.0</ele>
        <time>2015-03-14T15:15:43Z</time>
      </trkpt>
      <trkpt lat="40.208200" lon="-4.970733">
        <ele>2028.0</ele>
        <time>2015-03-14T15:15:44Z</time>
      </trkpt>
      <trkpt lat="40.208117" lon="-4.970850">
        <ele>2026.0</ele>
        <time>2015-03-14T15:15:45Z</time>
      </trkpt>
      <trkpt lat="40.208033" lon="-4.970983">
        <ele>2024.0</ele>
        <time>2015-03-14T15:15:46Z</time>
      </trkpt>
      <trkpt lat="40.207950" lon="-4.971117">
        <ele>2022.0</ele>
        <time>2015-03-14T15:15:47Z</time>
      </trkpt>
      <trkpt lat="40.207883" lon="-4.971250">
        <ele>2021.0</ele>
        <time>2015-03-14T15:15:48Z</time>
      </trkpt>
      <trkpt lat="40.207817" lon="-4.971400">
        <ele>2019.0</ele>
        <time>2015-03-14T15:15:49Z</time>
      </trkpt>
      <trkpt lat="40.207750" lon="-4.971517">
        <ele>2018.0</ele>
        <time>2015-03-14T15:15:50Z</time>
      </trkpt>
      <trkpt lat="40.207700" lon="-4.971650">
        <ele>2017.0</ele>
        <time>2015-03-14T15:15:51Z</time>
      </trkpt>
      <trkpt lat="40.207617" lon="-4.971767">
        <ele>2015.0</ele>
        <time>2015-03-14T15:15:52Z</time>
      </trkpt>
      <trkpt lat="40.207550" lon="-4.971900">
        <ele>2013.0</ele>
        <time>2015-03-14T15:15:53Z</time>
      </trkpt>
      <trkpt lat="40.207483" lon="-4.972033">
        <ele>2011.0</ele>
        <time>2015-03-14T15:15:54Z</time>
      </trkpt>
      <trkpt lat="40.207417" lon="-4.972167">
        <ele>2009.0</ele>
        <time>2015-03-14T15:15:55Z</time>
      </trkpt>
      <trkpt lat="40.207350" lon="-4.972317">
        <ele>2008.0</ele>
        <time>2015-03-14T15:15:56Z</time>
      </trkpt>
      <trkpt lat="40.207283" lon="-4.972450">
        <ele>2006.0</ele>
        <time>2015-03-14T15:15:57Z</time>
      </trkpt>
      <trkpt lat="40.207217" lon="-4.972583">
        <ele>2006.0</ele>
        <time>2015-03-14T15:15:58Z</time>
      </trkpt>
      <trkpt lat="40.207150" lon="-4.972717">
        <ele>2005.0</ele>
        <time>2015-03-14T15:15:59Z</time>
      </trkpt>
      <trkpt lat="40.207083" lon="-4.972833">
        <ele>2004.0</ele>
        <time>2015-03-14T15:16:00Z</time>
      </trkpt>
      <trkpt lat="40.207017" lon="-4.972950">
        <ele>2003.0</ele>
        <time>2015-03-14T15:16:01Z</time>
      </trkpt>
      <trkpt lat="40.206967" lon="-4.973083">
        <ele>2002.0</ele>
        <time>2015-03-14T15:16:02Z</time>
      </trkpt>
      <trkpt lat="40.206917" lon="-4.973217">
        <ele>2001.0</ele>
        <time>2015-03-14T15:16:03Z</time>
      </trkpt>
      <trkpt lat="40.206867" lon="-4.973350">
        <ele>1999.0</ele>
        <time>2015-03-14T15:16:04Z</time>
      </trkpt>
      <trkpt lat="40.206817" lon="-4.973467">
        <ele>1998.0</ele>
        <time>2015-03-14T15:16:05Z</time>
      </trkpt>
      <trkpt lat="40.206750" lon="-4.973600">
        <ele>1996.0</ele>
        <time>2015-03-14T15:16:06Z</time>
      </trkpt>
      <trkpt lat="40.206700" lon="-4.973733">
        <ele>1995.0</ele>
        <time>2015-03-14T15:16:07Z</time>
      </trkpt>
      <trkpt lat="40.206650" lon="-4.973867">
        <ele>1994.0</ele>
        <time>2015-03-14T15:16:08Z</time>
      </trkpt>
      <trkpt lat="40.206600" lon="-4.974017">
        <ele>1993.0</ele>
        <time>2015-03-14T15:16:09Z</time>
      </trkpt>
      <trkpt lat="40.206567" lon="-4.974167">
        <ele>1992.0</ele>
        <time>2015-03-14T15:16:10Z</time>
      </trkpt>
      <trkpt lat="40.206517" lon="-4.974300">
        <ele>1993.0</ele>
        <time>2015-03-14T15:16:11Z</time>
      </trkpt>
      <trkpt lat="40.206483" lon="-4.974433">
        <ele>1993.0</ele>
        <time>2015-03-14T15:16:12Z</time>
      </trkpt>
      <trkpt lat="40.206450" lon="-4.974567">
        <ele>1993.0</ele>
        <time>2015-03-14T15:16:13Z</time>
      </trkpt>
      <trkpt lat="40.206417" lon="-4.974683">
        <ele>1993.0</ele>
        <time>2015-03-14T15:16:14Z</time>
      </trkpt>
      <trkpt lat="40.206383" lon="-4.974800">
        <ele>1993.0</ele>
        <time>2015-03-14T15:16:15Z</time>
      </trkpt>
      <trkpt lat="40.206350" lon="-4.974900">
        <ele>1991.0</ele>
        <time>2015-03-14T15:16:16Z</time>
      </trkpt>
      <trkpt lat="40.206317" lon="-4.975017">
        <ele>1990.0</ele>
        <time>2015-03-14T15:16:17Z</time>
      </trkpt>
      <trkpt lat="40.206267" lon="-4.975133">
        <ele>1987.0</ele>
        <time>2015-03-14T15:16:18Z</time>
      </trkpt>
      <trkpt lat="40.206233" lon="-4.975250">
        <ele>1986.0</ele>
        <time>2015-03-14T15:16:19Z</time>
      </trkpt>
      <trkpt lat="40.206200" lon="-4.975367">
        <ele>1984.0</ele>
        <time>2015-03-14T15:16:20Z</time>
      </trkpt>
      <trkpt lat="40.206150" lon="-4.975467">
        <ele>1982.0</ele>
        <time>2015-03-14T15:16:21Z</time>
      </trkpt>
      <trkpt lat="40.206117" lon="-4.975583">
        <ele>1980.0</ele>
        <time>2015-03-14T15:16:22Z</time>
      </trkpt>
      <trkpt lat="40.206067" lon="-4.975700">
        <ele>1977.0</ele>
        <time>2015-03-14T15:16:23Z</time>
      </trkpt>
      <trkpt lat="40.206017" lon="-4.975817">
        <ele>1974.0</ele>
        <time>2015-03-14T15:16:24Z</time>
      </trkpt>
      <trkpt lat="40.205983" lon="-4.975933">
        <ele>1972.0</ele>
        <time>2015-03-14T15:16:25Z</time>
      </trkpt>
      <trkpt lat="40.205933" lon="-4.976067">
        <ele>1970.0</ele>
        <time>2015-03-14T15:16:26Z</time>
      </trkpt>
      <trkpt lat="40.205883" lon="-4.976183">
        <ele>1968.0</ele>
        <time>2015-03-14T15:16:27Z</time>
      </trkpt>
      <trkpt lat="40.205850" lon="-4.976317">
        <ele>1966.0</ele>
        <time>2015-03-14T15:16:28Z</time>
      </trkpt>
      <trkpt lat="40.205783" lon="-4.976433">
        <ele>1964.0</ele>
        <time>2015-03-14T15:16:29Z</time>
      </trkpt>
      <trkpt lat="40.205733" lon="-4.976550">
        <ele>1962.0</ele>
        <time>2015-03-14T15:16:30Z</time>
      </trkpt>
      <trkpt lat="40.205667" lon="-4.976667">
        <ele>1960.0</ele>
        <time>2015-03-14T15:16:31Z</time>
      </trkpt>
      <trkpt lat="40.205617" lon="-4.976800">
        <ele>1959.0</ele>
        <time>2015-03-14T15:16:32Z</time>
      </trkpt>
      <trkpt lat="40.205567" lon="-4.976933">
        <ele>1958.0</ele>
        <time>2015-03-14T15:16:33Z</time>
      </trkpt>
      <trkpt lat="40.205500" lon="-4.977067">
        <ele>1957.0</ele>
        <time>2015-03-14T15:16:34Z</time>
      </trkpt>
      <trkpt lat="40.205450" lon="-4.977200">
        <ele>1956.0</ele>
        <time>2015-03-14T15:16:35Z</time>
      </trkpt>
      <trkpt lat="40.205383" lon="-4.977317">
        <ele>1955.0</ele>
        <time>2015-03-14T15:16:36Z</time>
      </trkpt>
      <trkpt lat="40.205333" lon="-4.977467">
        <ele>1954.0</ele>
        <time>2015-03-14T15:16:37Z</time>
      </trkpt>
      <trkpt lat="40.205283" lon="-4.977600">
        <ele>1953.0</ele>
        <time>2015-03-14T15:16:38Z</time>
      </trkpt>
      <trkpt lat="40.205233" lon="-4.977750">
        <ele>1952.0</ele>
        <time>2015-03-14T15:16:39Z</time>
      </trkpt>
      <trkpt lat="40.205183" lon="-4.977883">
        <ele>1952.0</ele>
        <time>2015-03-14T15:16:40Z</time>
      </trkpt>
      <trkpt lat="40.205133" lon="-4.978017">
        <ele>1951.0</ele>
        <time>2015-03-14T15:16:41Z</time>
      </trkpt>
      <trkpt lat="40.205083" lon="-4.978150">
        <ele>1950.0</ele>
        <time>2015-03-14T15:16:42Z</time>
      </trkpt>
      <trkpt lat="40.205050" lon="-4.978300">
        <ele>1949.0</ele>
        <time>2015-03-14T15:16:43Z</time>
      </trkpt>
      <trkpt lat="40.205000" lon="-4.978433">
        <ele>1947.0</ele>
        <time>2015-03-14T15:16:44Z</time>
      </trkpt>
      <trkpt lat="40.204967" lon="-4.978583">
        <ele>1946.0</ele>
        <time>2015-03-14T15:16:45Z</time>
      </trkpt>
      <trkpt lat="40.204933" lon="-4.978750">
        <ele>1944.0</ele>
        <time>2015-03-14T15:16:46Z</time>
      </trkpt>
      <trkpt lat="40.204900" lon="-4.978900">
        <ele>1943.0</ele>
        <time>2015-03-14T15:16:47Z</time>
      </trkpt>
      <trkpt lat="40.204867" lon="-4.979033">
        <ele>1942.0</ele>
        <time>2015-03-14T15:16:48Z</time>
      </trkpt>
      <trkpt lat="40.204817" lon="-4.979183">
        <ele>1942.0</ele>
        <time>2015-03-14T15:16:49Z</time>
      </trkpt>
      <trkpt lat="40.204783" lon="-4.979317">
        <ele>1940.0</ele>
        <time>2015-03-14T15:16:50Z</time>
      </trkpt>
      <trkpt lat="40.204750" lon="-4.979467">
        <ele>1938.0</ele>
        <time>2015-03-14T15:16:51Z</time>
      </trkpt>
      <trkpt lat="40.204717" lon="-4.979617">
        <ele>1935.0</ele>
        <time>2015-03-14T15:16:52Z</time>
      </trkpt>
      <trkpt lat="40.204667" lon="-4.979767">
        <ele>1933.0</ele>
        <time>2015-03-14T15:16:53Z</time>
      </trkpt>
      <trkpt lat="40.204633" lon="-4.979917">
        <ele>1931.0</ele>
        <time>2015-03-14T15:16:54Z</time>
      </trkpt>
      <trkpt lat="40.204600" lon="-4.980067">
        <ele>1930.0</ele>
        <time>2015-03-14T15:16:55Z</time>
      </trkpt>
      <trkpt lat="40.204550" lon="-4.980200">
        <ele>1928.0</ele>
        <time>2015-03-14T15:16:56Z</time>
      </trkpt>
      <trkpt lat="40.204500" lon="-4.980367">
        <ele>1927.0</ele>
        <time>2015-03-14T15:16:57Z</time>
      </trkpt>
      <trkpt lat="40.204467" lon="-4.980517">
        <ele>1927.0</ele>
        <time>2015-03-14T15:16:58Z</time>
      </trkpt>
      <trkpt lat="40.204417" lon="-4.980650">
        <ele>1926.0</ele>
        <time>2015-03-14T15:16:59Z</time>
      </trkpt>
      <trkpt lat="40.204367" lon="-4.980767">
        <ele>1926.0</ele>
        <time>2015-03-14T15:17:00Z</time>
      </trkpt>
      <trkpt lat="40.204317" lon="-4.980883">
        <ele>1924.0</ele>
        <time>2015-03-14T15:17:01Z</time>
      </trkpt>
      <trkpt lat="40.204267" lon="-4.981000">
        <ele>1922.0</ele>
        <time>2015-03-14T15:17:02Z</time>
      </trkpt>
      <trkpt lat="40.204200" lon="-4.981133">
        <ele>1920.0</ele>
        <time>2015-03-14T15:17:03Z</time>
      </trkpt>
      <trkpt lat="40.204150" lon="-4.981283">
        <ele>1917.0</ele>
        <time>2015-03-14T15:17:04Z</time>
      </trkpt>
      <trkpt lat="40.204083" lon="-4.981417">
        <ele>1914.0</ele>
        <time>2015-03-14T15:17:05Z</time>
      </trkpt>
      <trkpt lat="40.204033" lon="-4.981567">
        <ele>1912.0</ele>
        <time>2015-03-14T15:17:06Z</time>
      </trkpt>
      <trkpt lat="40.203983" lon="-4.981717">
        <ele>1910.0</ele>
        <time>2015-03-14T15:17:07Z</time>
      </trkpt>
      <trkpt lat="40.203950" lon="-4.981850">
        <ele>1910.0</ele>
        <time>2015-03-14T15:17:08Z</time>
      </trkpt>
      <trkpt lat="40.203900" lon="-4.981983">
        <ele>1908.0</ele>
        <time>2015-03-14T15:17:09Z</time>
      </trkpt>
      <trkpt lat="40.203867" lon="-4.982117">
        <ele>1906.0</ele>
        <time>2015-03-14T15:17:10Z</time>
      </trkpt>
      <trkpt lat="40.203817" lon="-4.982267">
        <ele>1904.0</ele>
        <time>2015-03-14T15:17:11Z</time>
      </trkpt>
      <trkpt lat="40.203783" lon="-4.982417">
        <ele>1903.0</ele>
        <time>2015-03-14T15:17:12Z</time>
      </trkpt>
      <trkpt lat="40.203733" lon="-4.982550">
        <ele>1903.0</ele>
        <time>2015-03-14T15:17:13Z</time>
      </trkpt>
      <trkpt lat="40.203700" lon="-4.982700">
        <ele>1903.0</ele>
        <time>2015-03-14T15:17:14Z</time>
      </trkpt>
      <trkpt lat="40.203667" lon="-4.982833">
        <ele>1904.0</ele>
        <time>2015-03-14T15:17:15Z</time>
      </trkpt>
      <trkpt lat="40.203650" lon="-4.982950">
        <ele>1904.0</ele>
        <time>2015-03-14T15:17:16Z</time>
      </trkpt>
      <trkpt lat="40.203617" lon="-4.983050">
        <ele>1904.0</ele>
        <time>2015-03-14T15:17:17Z</time>
      </trkpt>
      <trkpt lat="40.203583" lon="-4.983183">
        <ele>1903.0</ele>
        <time>2015-03-14T15:17:18Z</time>
      </trkpt>
      <trkpt lat="40.203550" lon="-4.983300">
        <ele>1902.0</ele>
        <time>2015-03-14T15:17:19Z</time>
      </trkpt>
      <trkpt lat="40.203517" lon="-4.983433">
        <ele>1901.0</ele>
        <time>2015-03-14T15:17:20Z</time>
      </trkpt>
      <trkpt lat="40.203483" lon="-4.983567">
        <ele>1900.0</ele>
        <time>2015-03-14T15:17:21Z</time>
      </trkpt>
      <trkpt lat="40.203450" lon="-4.983717">
        <ele>1899.0</ele>
        <time>2015-03-14T15:17:22Z</time>
      </trkpt>
      <trkpt lat="40.203417" lon="-4.983850">
        <ele>1898.0</ele>
        <time>2015-03-14T15:17:23Z</time>
      </trkpt>
      <trkpt lat="40.203383" lon="-4.983983">
        <ele>1897.0</ele>
        <time>2015-03-14T15:17:24Z</time>
      </trkpt>
      <trkpt lat="40.203350" lon="-4.984117">
        <ele>1897.0</ele>
        <time>2015-03-14T15:17:25Z</time>
      </trkpt>
      <trkpt lat="40.203300" lon="-4.984217">
        <ele>1896.0</ele>
        <time>2015-03-14T15:17:26Z</time>
      </trkpt>
      <trkpt lat="40.203267" lon="-4.984333">
        <ele>1895.0</ele>
        <time>2015-03-14T15:17:27Z</time>
      </trkpt>
      <trkpt lat="40.203233" lon="-4.984467">
        <ele>1893.0</ele>
        <time>2015-03-14T15:17:28Z</time>
      </trkpt>
      <trkpt lat="40.203200" lon="-4.984600">
        <ele>1892.0</ele>
        <time>2015-03-14T15:17:29Z</time>
      </trkpt>
      <trkpt lat="40.203167" lon="-4.984733">
        <ele>1890.0</ele>
        <time>2015-03-14T15:17:30Z</time>
      </trkpt>
      <trkpt lat="40.203133" lon="-4.984850">
        <ele>1890.0</ele>
        <time>2015-03-14T15:17:31Z</time>
      </trkpt>
      <trkpt lat="40.203100" lon="-4.984967">
        <ele>1889.0</ele>
        <time>2015-03-14T15:17:32Z</time>
      </trkpt>
      <trkpt lat="40.203067" lon="-4.985100">
        <ele>1888.0</ele>
        <time>2015-03-14T15:17:33Z</time>
      </trkpt>
      <trkpt lat="40.203033" lon="-4.985217">
        <ele>1886.0</ele>
        <time>2015-03-14T15:17:34Z</time>
      </trkpt>
      <trkpt lat="40.203000" lon="-4.985350">
        <ele>1885.0</ele>
        <time>2015-03-14T15:17:35Z</time>
      </trkpt>
      <trkpt lat="40.202967" lon="-4.985483">
        <ele>1883.0</ele>
        <time>2015-03-14T15:17:36Z</time>
      </trkpt>
      <trkpt lat="40.202933" lon="-4.985617">
        <ele>1883.0</ele>
        <time>2015-03-14T15:17:37Z</time>
      </trkpt>
      <trkpt lat="40.202883" lon="-4.985750">
        <ele>1882.0</ele>
        <time>2015-03-14T15:17:38Z</time>
      </trkpt>
      <trkpt lat="40.202850" lon="-4.985883">
        <ele>1881.0</ele>
        <time>2015-03-14T15:17:39Z</time>
      </trkpt>
      <trkpt lat="40.202817" lon="-4.986017">
        <ele>1881.0</ele>
        <time>2015-03-14T15:17:40Z</time>
      </trkpt>
      <trkpt lat="40.202783" lon="-4.986150">
        <ele>1880.0</ele>
        <time>2015-03-14T15:17:41Z</time>
      </trkpt>
      <trkpt lat="40.202767" lon="-4.986267">
        <ele>1879.0</ele>
        <time>2015-03-14T15:17:42Z</time>
      </trkpt>
      <trkpt lat="40.202733" lon="-4.986400">
        <ele>1879.0</ele>
        <time>2015-03-14T15:17:43Z</time>
      </trkpt>
      <trkpt lat="40.202700" lon="-4.986517">
        <ele>1878.0</ele>
        <time>2015-03-14T15:17:44Z</time>
      </trkpt>
      <trkpt lat="40.202667" lon="-4.986650">
        <ele>1877.0</ele>
        <time>2015-03-14T15:17:45Z</time>
      </trkpt>
      <trkpt lat="40.202650" lon="-4.986783">
        <ele>1876.0</ele>
        <time>2015-03-14T15:17:46Z</time>
      </trkpt>
      <trkpt lat="40.202617" lon="-4.986917">
        <ele>1875.0</ele>
        <time>2015-03-14T15:17:47Z</time>
      </trkpt>
      <trkpt lat="40.202600" lon="-4.987050">
        <ele>1875.0</ele>
        <time>2015-03-14T15:17:48Z</time>
      </trkpt>
      <trkpt lat="40.202567" lon="-4.987183">
        <ele>1874.0</ele>
        <time>2015-03-14T15:17:49Z</time>
      </trkpt>
      <trkpt lat="40.202550" lon="-4.987300">
        <ele>1875.0</ele>
        <time>2015-03-14T15:17:50Z</time>
      </trkpt>
      <trkpt lat="40.202517" lon="-4.987433">
        <ele>1875.0</ele>
        <time>2015-03-14T15:17:51Z</time>
      </trkpt>
      <trkpt lat="40.202483" lon="-4.987550">
        <ele>1874.0</ele>
        <time>2015-03-14T15:17:52Z</time>
      </trkpt>
      <trkpt lat="40.202450" lon="-4.987667">
        <ele>1873.0</ele>
        <time>2015-03-14T15:17:53Z</time>
      </trkpt>
      <trkpt lat="40.202417" lon="-4.987783">
        <ele>1871.0</ele>
        <time>2015-03-14T15:17:54Z</time>
      </trkpt>
      <trkpt lat="40.202383" lon="-4.987917">
        <ele>1870.0</ele>
        <time>2015-03-14T15:17:55Z</time>
      </trkpt>
      <trkpt lat="40.202350" lon="-4.988033">
        <ele>1869.0</ele>
        <time>2015-03-14T15:17:56Z</time>
      </trkpt>
      <trkpt lat="40.202300" lon="-4.988150">
        <ele>1868.0</ele>
        <time>2015-03-14T15:17:57Z</time>
      </trkpt>
      <trkpt lat="40.202267" lon="-4.988267">
        <ele>1868.0</ele>
        <time>2015-03-14T15:17:58Z</time>
      </trkpt>
      <trkpt lat="40.202233" lon="-4.988367">
        <ele>1867.0</ele>
        <time>2015-03-14T15:17:59Z</time>
      </trkpt>
      <trkpt lat="40.202217" lon="-4.988467">
        <ele>1866.0</ele>
        <time>2015-03-14T15:18:00Z</time>
      </trkpt>
      <trkpt lat="40.202183" lon="-4.988567">
        <ele>1865.0</ele>
        <time>2015-03-14T15:18:01Z</time>
      </trkpt>
      <trkpt lat="40.202150" lon="-4.988683">
        <ele>1864.0</ele>
        <time>2015-03-14T15:18:02Z</time>
      </trkpt>
      <trkpt lat="40.202133" lon="-4.988800">
        <ele>1863.0</ele>
        <time>2015-03-14T15:18:03Z</time>
      </trkpt>
      <trkpt lat="40.202100" lon="-4.988900">
        <ele>1862.0</ele>
        <time>2015-03-14T15:18:04Z</time>
      </trkpt>
      <trkpt lat="40.202067" lon="-4.989000">
        <ele>1862.0</ele>
        <time>2015-03-14T15:18:05Z</time>
      </trkpt>
      <trkpt lat="40.202033" lon="-4.989100">
        <ele>1862.0</ele>
        <time>2015-03-14T15:18:06Z</time>
      </trkpt>
      <trkpt lat="40.202000" lon="-4.989200">
        <ele>1861.0</ele>
        <time>2015-03-14T15:18:07Z</time>
      </trkpt>
      <trkpt lat="40.201983" lon="-4.989300">
        <ele>1860.0</ele>
        <time>2015-03-14T15:18:08Z</time>
      </trkpt>
      <trkpt lat="40.201950" lon="-4.989400">
        <ele>1859.0</ele>
        <time>2015-03-14T15:18:09Z</time>
      </trkpt>
      <trkpt lat="40.201933" lon="-4.989500">
        <ele>1859.0</ele>
        <time>2015-03-14T15:18:10Z</time>
      </trkpt>
      <trkpt lat="40.201900" lon="-4.989617">
        <ele>1858.0</ele>
        <time>2015-03-14T15:18:11Z</time>
      </trkpt>
      <trkpt lat="40.201883" lon="-4.989717">
        <ele>1858.0</ele>
        <time>2015-03-14T15:18:12Z</time>
      </trkpt>
      <trkpt lat="40.201867" lon="-4.989833">
        <ele>1857.0</ele>
        <time>2015-03-14T15:18:13Z</time>
      </trkpt>
      <trkpt lat="40.201850" lon="-4.989933">
        <ele>1857.0</ele>
        <time>2015-03-14T15:18:14Z</time>
      </trkpt>
      <trkpt lat="40.201850" lon="-4.990050">
        <ele>1857.0</ele>
        <time>2015-03-14T15:18:15Z</time>
      </trkpt>
      <trkpt lat="40.201833" lon="-4.990150">
        <ele>1856.0</ele>
        <time>2015-03-14T15:18:16Z</time>
      </trkpt>
      <trkpt lat="40.201817" lon="-4.990267">
        <ele>1856.0</ele>
        <time>2015-03-14T15:18:17Z</time>
      </trkpt>
      <trkpt lat="40.201783" lon="-4.990367">
        <ele>1856.0</ele>
        <time>2015-03-14T15:18:18Z</time>
      </trkpt>
      <trkpt lat="40.201733" lon="-4.990467">
        <ele>1856.0</ele>
        <time>2015-03-14T15:18:19Z</time>
      </trkpt>
      <trkpt lat="40.201700" lon="-4.990583">
        <ele>1855.0</ele>
        <time>2015-03-14T15:18:20Z</time>
      </trkpt>
      <trkpt lat="40.201667" lon="-4.990683">
        <ele>1855.0</ele>
        <time>2015-03-14T15:18:21Z</time>
      </trkpt>
      <trkpt lat="40.201650" lon="-4.990800">
        <ele>1854.0</ele>
        <time>2015-03-14T15:18:22Z</time>
      </trkpt>
      <trkpt lat="40.201633" lon="-4.990917">
        <ele>1854.0</ele>
        <time>2015-03-14T15:18:23Z</time>
      </trkpt>
      <trkpt lat="40.201600" lon="-4.991033">
        <ele>1854.0</ele>
        <time>2015-03-14T15:18:24Z</time>
      </trkpt>
      <trkpt lat="40.201583" lon="-4.991133">
        <ele>1853.0</ele>
        <time>2015-03-14T15:18:25Z</time>
      </trkpt>
      <trkpt lat="40.201550" lon="-4.991250">
        <ele>1853.0</ele>
        <time>2015-03-14T15:18:26Z</time>
      </trkpt>
      <trkpt lat="40.201517" lon="-4.991350">
        <ele>1853.0</ele>
        <time>2015-03-14T15:18:27Z</time>
      </trkpt>
      <trkpt lat="40.201500" lon="-4.991450">
        <ele>1853.0</ele>
        <time>2015-03-14T15:18:28Z</time>
      </trkpt>
      <trkpt lat="40.201500" lon="-4.991550">
        <ele>1853.0</ele>
        <time>2015-03-14T15:18:29Z</time>
      </trkpt>
      <trkpt lat="40.201483" lon="-4.991650">
        <ele>1852.0</ele>
        <time>2015-03-14T15:18:30Z</time>
      </trkpt>
      <trkpt lat="40.201467" lon="-4.991750">
        <ele>1852.0</ele>
        <time>2015-03-14T15:18:31Z</time>
      </trkpt>
      <trkpt lat="40.201450" lon="-4.991867">
        <ele>1851.0</ele>
        <time>2015-03-14T15:18:32Z</time>
      </trkpt>
      <trkpt lat="40.201433" lon="-4.991967">
        <ele>1850.0</ele>
        <time>2015-03-14T15:18:33Z</time>
      </trkpt>
      <trkpt lat="40.201433" lon="-4.992083">
        <ele>1849.0</ele>
        <time>2015-03-14T15:18:34Z</time>
      </trkpt>
      <trkpt lat="40.201433" lon="-4.992200">
        <ele>1849.0</ele>
        <time>2015-03-14T15:18:35Z</time>
      </trkpt>
      <trkpt lat="40.201450" lon="-4.992300">
        <ele>1849.0</ele>
        <time>2015-03-14T15:18:36Z</time>
      </trkpt>
      <trkpt lat="40.201433" lon="-4.992417">
        <ele>1849.0</ele>
        <time>2015-03-14T15:18:37Z</time>
      </trkpt>
      <trkpt lat="40.201417" lon="-4.992517">
        <ele>1849.0</ele>
        <time>2015-03-14T15:18:38Z</time>
      </trkpt>
      <trkpt lat="40.201400" lon="-4.992600">
        <ele>1849.0</ele>
        <time>2015-03-14T15:18:39Z</time>
      </trkpt>
      <trkpt lat="40.201383" lon="-4.992700">
        <ele>1848.0</ele>
        <time>2015-03-14T15:18:40Z</time>
      </trkpt>
      <trkpt lat="40.201383" lon="-4.992783">
        <ele>1847.0</ele>
        <time>2015-03-14T15:18:41Z</time>
      </trkpt>
      <trkpt lat="40.201383" lon="-4.992883">
        <ele>1845.0</ele>
        <time>2015-03-14T15:18:42Z</time>
      </trkpt>
      <trkpt lat="40.201383" lon="-4.992983">
        <ele>1843.0</ele>
        <time>2015-03-14T15:18:43Z</time>
      </trkpt>
      <trkpt lat="40.201367" lon="-4.993100">
        <ele>1842.0</ele>
        <time>2015-03-14T15:18:44Z</time>
      </trkpt>
      <trkpt lat="40.201367" lon="-4.993217">
        <ele>1840.0</ele>
        <time>2015-03-14T15:18:45Z</time>
      </trkpt>
      <trkpt lat="40.201367" lon="-4.993333">
        <ele>1839.0</ele>
        <time>2015-03-14T15:18:46Z</time>
      </trkpt>
      <trkpt lat="40.201367" lon="-4.993450">
        <ele>1838.0</ele>
        <time>2015-03-14T15:18:47Z</time>
      </trkpt>
      <trkpt lat="40.201367" lon="-4.993550">
        <ele>1837.0</ele>
        <time>2015-03-14T15:18:48Z</time>
      </trkpt>
      <trkpt lat="40.201367" lon="-4.993667">
        <ele>1836.0</ele>
        <time>2015-03-14T15:18:49Z</time>
      </trkpt>
      <trkpt lat="40.201383" lon="-4.993767">
        <ele>1835.0</ele>
        <time>2015-03-14T15:18:50Z</time>
      </trkpt>
      <trkpt lat="40.201383" lon="-4.993867">
        <ele>1833.0</ele>
        <time>2015-03-14T15:18:51Z</time>
      </trkpt>
      <trkpt lat="40.201383" lon="-4.993983">
        <ele>1831.0</ele>
        <time>2015-03-14T15:18:52Z</time>
      </trkpt>
      <trkpt lat="40.201367" lon="-4.994100">
        <ele>1829.0</ele>
        <time>2015-03-14T15:18:53Z</time>
      </trkpt>
      <trkpt lat="40.201367" lon="-4.994217">
        <ele>1827.0</ele>
        <time>2015-03-14T15:18:54Z</time>
      </trkpt>
      <trkpt lat="40.201367" lon="-4.994333">
        <ele>1826.0</ele>
        <time>2015-03-14T15:18:55Z</time>
      </trkpt>
      <trkpt lat="40.201367" lon="-4.994450">
        <ele>1824.0</ele>
        <time>2015-03-14T15:18:56Z</time>
      </trkpt>
      <trkpt lat="40.201367" lon="-4.994567">
        <ele>1822.0</ele>
        <time>2015-03-14T15:18:57Z</time>
      </trkpt>
      <trkpt lat="40.201383" lon="-4.994683">
        <ele>1821.0</ele>
        <time>2015-03-14T15:18:58Z</time>
      </trkpt>
      <trkpt lat="40.201383" lon="-4.994817">
        <ele>1819.0</ele>
        <time>2015-03-14T15:18:59Z</time>
      </trkpt>
      <trkpt lat="40.201400" lon="-4.994933">
        <ele>1818.0</ele>
        <time>2015-03-14T15:19:00Z</time>
      </trkpt>
      <trkpt lat="40.201400" lon="-4.995067">
        <ele>1817.0</ele>
        <time>2015-03-14T15:19:01Z</time>
      </trkpt>
      <trkpt lat="40.201400" lon="-4.995183">
        <ele>1817.0</ele>
        <time>2015-03-14T15:19:02Z</time>
      </trkpt>
      <trkpt lat="40.201400" lon="-4.995283">
        <ele>1816.0</ele>
        <time>2015-03-14T15:19:03Z</time>
      </trkpt>
      <trkpt lat="40.201400" lon="-4.995400">
        <ele>1816.0</ele>
        <time>2015-03-14T15:19:04Z</time>
      </trkpt>
      <trkpt lat="40.201400" lon="-4.995500">
        <ele>1815.0</ele>
        <time>2015-03-14T15:19:05Z</time>
      </trkpt>
      <trkpt lat="40.201400" lon="-4.995600">
        <ele>1814.0</ele>
        <time>2015-03-14T15:19:06Z</time>
      </trkpt>
      <trkpt lat="40.201383" lon="-4.995717">
        <ele>1812.0</ele>
        <time>2015-03-14T15:19:07Z</time>
      </trkpt>
      <trkpt lat="40.201383" lon="-4.995833">
        <ele>1809.0</ele>
        <time>2015-03-14T15:19:08Z</time>
      </trkpt>
      <trkpt lat="40.201367" lon="-4.995933">
        <ele>1806.0</ele>
        <time>2015-03-14T15:19:09Z</time>
      </trkpt>
      <trkpt lat="40.201333" lon="-4.996050">
        <ele>1804.0</ele>
        <time>2015-03-14T15:19:10Z</time>
      </trkpt>
      <trkpt lat="40.201317" lon="-4.996183">
        <ele>1803.0</ele>
        <time>2015-03-14T15:19:11Z</time>
      </trkpt>
      <trkpt lat="40.201317" lon="-4.996300">
        <ele>1803.0</ele>
        <time>2015-03-14T15:19:12Z</time>
      </trkpt>
      <trkpt lat="40.201300" lon="-4.996417">
        <ele>1803.0</ele>
        <time>2015-03-14T15:19:13Z</time>
      </trkpt>
      <trkpt lat="40.201283" lon="-4.996533">
        <ele>1803.0</ele>
        <time>2015-03-14T15:19:14Z</time>
      </trkpt>
      <trkpt lat="40.201250" lon="-4.996617">
        <ele>1803.0</ele>
        <time>2015-03-14T15:19:15Z</time>
      </trkpt>
      <trkpt lat="40.201233" lon="-4.996717">
        <ele>1802.0</ele>
        <time>2015-03-14T15:19:16Z</time>
      </trkpt>
      <trkpt lat="40.201217" lon="-4.996817">
        <ele>1800.0</ele>
        <time>2015-03-14T15:19:17Z</time>
      </trkpt>
      <trkpt lat="40.201200" lon="-4.996933">
        <ele>1798.0</ele>
        <time>2015-03-14T15:19:18Z</time>
      </trkpt>
      <trkpt lat="40.201200" lon="-4.997067">
        <ele>1797.0</ele>
        <time>2015-03-14T15:19:19Z</time>
      </trkpt>
      <trkpt lat="40.201183" lon="-4.997183">
        <ele>1797.0</ele>
        <time>2015-03-14T15:19:20Z</time>
      </trkpt>
      <trkpt lat="40.201167" lon="-4.997300">
        <ele>1797.0</ele>
        <time>2015-03-14T15:19:21Z</time>
      </trkpt>
      <trkpt lat="40.201167" lon="-4.997400">
        <ele>1798.0</ele>
        <time>2015-03-14T15:19:22Z</time>
      </trkpt>
      <trkpt lat="40.201150" lon="-4.997483">
        <ele>1798.0</ele>
        <time>2015-03-14T15:19:23Z</time>
      </trkpt>
      <trkpt lat="40.201150" lon="-4.997583">
        <ele>1798.0</ele>
        <time>2015-03-14T15:19:24Z</time>
      </trkpt>
      <trkpt lat="40.201150" lon="-4.997683">
        <ele>1797.0</ele>
        <time>2015-03-14T15:19:25Z</time>
      </trkpt>
      <trkpt lat="40.201150" lon="-4.997783">
        <ele>1797.0</ele>
        <time>2015-03-14T15:19:26Z</time>
      </trkpt>
      <trkpt lat="40.201150" lon="-4.997900">
        <ele>1797.0</ele>
        <time>2015-03-14T15:19:27Z</time>
      </trkpt>
      <trkpt lat="40.201150" lon="-4.998033">
        <ele>1796.0</ele>
        <time>2015-03-14T15:19:28Z</time>
      </trkpt>
      <trkpt lat="40.201150" lon="-4.998150">
        <ele>1796.0</ele>
        <time>2015-03-14T15:19:29Z</time>
      </trkpt>
      <trkpt lat="40.201133" lon="-4.998267">
        <ele>1795.0</ele>
        <time>2015-03-14T15:19:30Z</time>
      </trkpt>
      <trkpt lat="40.201117" lon="-4.998367">
        <ele>1794.0</ele>
        <time>2015-03-14T15:19:31Z</time>
      </trkpt>
      <trkpt lat="40.201117" lon="-4.998483">
        <ele>1793.0</ele>
        <time>2015-03-14T15:19:32Z</time>
      </trkpt>
      <trkpt lat="40.201100" lon="-4.998600">
        <ele>1792.0</ele>
        <time>2015-03-14T15:19:33Z</time>
      </trkpt>
      <trkpt lat="40.201100" lon="-4.998717">
        <ele>1791.0</ele>
        <time>2015-03-14T15:19:34Z</time>
      </trkpt>
      <trkpt lat="40.201083" lon="-4.998850">
        <ele>1789.0</ele>
        <time>2015-03-14T15:19:35Z</time>
      </trkpt>
      <trkpt lat="40.201067" lon="-4.998967">
        <ele>1788.0</ele>
        <time>2015-03-14T15:19:36Z</time>
      </trkpt>
      <trkpt lat="40.201067" lon="-4.999083">
        <ele>1788.0</ele>
        <time>2015-03-14T15:19:37Z</time>
      </trkpt>
      <trkpt lat="40.201050" lon="-4.999200">
        <ele>1788.0</ele>
        <time>2015-03-14T15:19:38Z</time>
      </trkpt>
      <trkpt lat="40.201067" lon="-4.999317">
        <ele>1787.0</ele>
        <time>2015-03-14T15:19:39Z</time>
      </trkpt>
      <trkpt lat="40.201083" lon="-4.999433">
        <ele>1786.0</ele>
        <time>2015-03-14T15:19:40Z</time>
      </trkpt>
      <trkpt lat="40.201083" lon="-4.999533">
        <ele>1785.0</ele>
        <time>2015-03-14T15:19:41Z</time>
      </trkpt>
      <trkpt lat="40.201083" lon="-4.999667">
        <ele>1784.0</ele>
        <time>2015-03-14T15:19:42Z</time>
      </trkpt>
      <trkpt lat="40.201100" lon="-4.999800">
        <ele>1782.0</ele>
        <time>2015-03-14T15:19:43Z</time>
      </trkpt>
      <trkpt lat="40.201100" lon="-4.999933">
        <ele>1782.0</ele>
        <time>2015-03-14T15:19:44Z</time>
      </trkpt>
      <trkpt lat="40.201100" lon="-5.000050">
        <ele>1781.0</ele>
        <time>2015-03-14T15:19:45Z</time>
      </trkpt>
      <trkpt lat="40.201117" lon="-5.000167">
        <ele>1781.0</ele>
        <time>2015-03-14T15:19:46Z</time>
      </trkpt>
      <trkpt lat="40.201117" lon="-5.000300">
        <ele>1780.0</ele>
        <time>2015-03-14T15:19:47Z</time>
      </trkpt>
      <trkpt lat="40.201117" lon="-5.000417">
        <ele>1779.0</ele>
        <time>2015-03-14T15:19:48Z</time>
      </trkpt>
      <trkpt lat="40.201117" lon="-5.000533">
        <ele>1777.0</ele>
        <time>2015-03-14T15:19:49Z</time>
      </trkpt>
      <trkpt lat="40.201100" lon="-5.000667">
        <ele>1775.0</ele>
        <time>2015-03-14T15:19:50Z</time>
      </trkpt>
      <trkpt lat="40.201100" lon="-5.000800">
        <ele>1773.0</ele>
        <time>2015-03-14T15:19:51Z</time>
      </trkpt>
      <trkpt lat="40.201083" lon="-5.000933">
        <ele>1772.0</ele>
        <time>2015-03-14T15:19:52Z</time>
      </trkpt>
      <trkpt lat="40.201067" lon="-5.001067">
        <ele>1770.0</ele>
        <time>2015-03-14T15:19:53Z</time>
      </trkpt>
      <trkpt lat="40.201050" lon="-5.001200">
        <ele>1769.0</ele>
        <time>2015-03-14T15:19:54Z</time>
      </trkpt>
      <trkpt lat="40.201033" lon="-5.001333">
        <ele>1768.0</ele>
        <time>2015-03-14T15:19:55Z</time>
      </trkpt>
      <trkpt lat="40.201017" lon="-5.001483">
        <ele>1767.0</ele>
        <time>2015-03-14T15:19:56Z</time>
      </trkpt>
      <trkpt lat="40.201000" lon="-5.001617">
        <ele>1767.0</ele>
        <time>2015-03-14T15:19:57Z</time>
      </trkpt>
      <trkpt lat="40.200983" lon="-5.001733">
        <ele>1766.0</ele>
        <time>2015-03-14T15:19:58Z</time>
      </trkpt>
      <trkpt lat="40.200983" lon="-5.001850">
        <ele>1765.0</ele>
        <time>2015-03-14T15:19:59Z</time>
      </trkpt>
      <trkpt lat="40.200967" lon="-5.001967">
        <ele>1763.0</ele>
        <time>2015-03-14T15:20:00Z</time>
      </trkpt>
      <trkpt lat="40.200950" lon="-5.002100">
        <ele>1761.0</ele>
        <time>2015-03-14T15:20:01Z</time>
      </trkpt>
      <trkpt lat="40.200933" lon="-5.002233">
        <ele>1759.0</ele>
        <time>2015-03-14T15:20:02Z</time>
      </trkpt>
      <trkpt lat="40.200917" lon="-5.002367">
        <ele>1758.0</ele>
        <time>2015-03-14T15:20:03Z</time>
      </trkpt>
      <trkpt lat="40.200900" lon="-5.002500">
        <ele>1757.0</ele>
        <time>2015-03-14T15:20:04Z</time>
      </trkpt>
      <trkpt lat="40.200900" lon="-5.002633">
        <ele>1757.0</ele>
        <time>2015-03-14T15:20:05Z</time>
      </trkpt>
      <trkpt lat="40.200900" lon="-5.002767">
        <ele>1756.0</ele>
        <time>2015-03-14T15:20:06Z</time>
      </trkpt>
      <trkpt lat="40.200917" lon="-5.002883">
        <ele>1756.0</ele>
        <time>2015-03-14T15:20:07Z</time>
      </trkpt>
      <trkpt lat="40.200917" lon="-5.003000">
        <ele>1755.0</ele>
        <time>2015-03-14T15:20:08Z</time>
      </trkpt>
      <trkpt lat="40.200917" lon="-5.003133">
        <ele>1753.0</ele>
        <time>2015-03-14T15:20:09Z</time>
      </trkpt>
      <trkpt lat="40.200917" lon="-5.003250">
        <ele>1751.0</ele>
        <time>2015-03-14T15:20:10Z</time>
      </trkpt>
      <trkpt lat="40.200917" lon="-5.003383">
        <ele>1749.0</ele>
        <time>2015-03-14T15:20:11Z</time>
      </trkpt>
      <trkpt lat="40.200917" lon="-5.003500">
        <ele>1747.0</ele>
        <time>2015-03-14T15:20:12Z</time>
      </trkpt>
      <trkpt lat="40.200917" lon="-5.003633">
        <ele>1744.0</ele>
        <time>2015-03-14T15:20:13Z</time>
      </trkpt>
      <trkpt lat="40.200933" lon="-5.003767">
        <ele>1741.0</ele>
        <time>2015-03-14T15:20:14Z</time>
      </trkpt>
      <trkpt lat="40.200933" lon="-5.003900">
        <ele>1739.0</ele>
        <time>2015-03-14T15:20:15Z</time>
      </trkpt>
      <trkpt lat="40.200933" lon="-5.004033">
        <ele>1737.0</ele>
        <time>2015-03-14T15:20:16Z</time>
      </trkpt>
      <trkpt lat="40.200933" lon="-5.004150">
        <ele>1735.0</ele>
        <time>2015-03-14T15:20:17Z</time>
      </trkpt>
      <trkpt lat="40.200950" lon="-5.004267">
        <ele>1734.0</ele>
        <time>2015-03-14T15:20:18Z</time>
      </trkpt>
      <trkpt lat="40.200933" lon="-5.004400">
        <ele>1732.0</ele>
        <time>2015-03-14T15:20:19Z</time>
      </trkpt>
      <trkpt lat="40.200933" lon="-5.004517">
        <ele>1731.0</ele>
        <time>2015-03-14T15:20:20Z</time>
      </trkpt>
      <trkpt lat="40.200933" lon="-5.004650">
        <ele>1730.0</ele>
        <time>2015-03-14T15:20:21Z</time>
      </trkpt>
      <trkpt lat="40.200917" lon="-5.004767">
        <ele>1730.0</ele>
        <time>2015-03-14T15:20:22Z</time>
      </trkpt>
      <trkpt lat="40.200917" lon="-5.004883">
        <ele>1729.0</ele>
        <time>2015-03-14T15:20:23Z</time>
      </trkpt>
      <trkpt lat="40.200900" lon="-5.005000">
        <ele>1728.0</ele>
        <time>2015-03-14T15:20:24Z</time>
      </trkpt>
      <trkpt lat="40.200883" lon="-5.005117">
        <ele>1727.0</ele>
        <time>2015-03-14T15:20:25Z</time>
      </trkpt>
      <trkpt lat="40.200850" lon="-5.005217">
        <ele>1726.0</ele>
        <time>2015-03-14T15:20:26Z</time>
      </trkpt>
      <trkpt lat="40.200817" lon="-5.005333">
        <ele>1724.0</ele>
        <time>2015-03-14T15:20:27Z</time>
      </trkpt>
      <trkpt lat="40.200800" lon="-5.005450">
        <ele>1722.0</ele>
        <time>2015-03-14T15:20:28Z</time>
      </trkpt>
      <trkpt lat="40.200767" lon="-5.005583">
        <ele>1720.0</ele>
        <time>2015-03-14T15:20:29Z</time>
      </trkpt>
      <trkpt lat="40.200750" lon="-5.005700">
        <ele>1719.0</ele>
        <time>2015-03-14T15:20:30Z</time>
      </trkpt>
      <trkpt lat="40.200717" lon="-5.005817">
        <ele>1718.0</ele>
        <time>2015-03-14T15:20:31Z</time>
      </trkpt>
      <trkpt lat="40.200683" lon="-5.005917">
        <ele>1717.0</ele>
        <time>2015-03-14T15:20:32Z</time>
      </trkpt>
      <trkpt lat="40.200650" lon="-5.006017">
        <ele>1715.0</ele>
        <time>2015-03-14T15:20:33Z</time>
      </trkpt>
      <trkpt lat="40.200633" lon="-5.006133">
        <ele>1713.0</ele>
        <time>2015-03-14T15:20:34Z</time>
      </trkpt>
      <trkpt lat="40.200600" lon="-5.006233">
        <ele>1712.0</ele>
        <time>2015-03-14T15:20:35Z</time>
      </trkpt>
      <trkpt lat="40.200583" lon="-5.006333">
        <ele>1710.0</ele>
        <time>2015-03-14T15:20:36Z</time>
      </trkpt>
      <trkpt lat="40.200550" lon="-5.006433">
        <ele>1709.0</ele>
        <time>2015-03-14T15:20:37Z</time>
      </trkpt>
      <trkpt lat="40.200500" lon="-5.006533">
        <ele>1707.0</ele>
        <time>2015-03-14T15:20:38Z</time>
      </trkpt>
      <trkpt lat="40.200467" lon="-5.006633">
        <ele>1706.0</ele>
        <time>2015-03-14T15:20:39Z</time>
      </trkpt>
      <trkpt lat="40.200433" lon="-5.006733">
        <ele>1704.0</ele>
        <time>2015-03-14T15:20:40Z</time>
      </trkpt>
      <trkpt lat="40.200400" lon="-5.006833">
        <ele>1702.0</ele>
        <time>2015-03-14T15:20:41Z</time>
      </trkpt>
      <trkpt lat="40.200367" lon="-5.006933">
        <ele>1700.0</ele>
        <time>2015-03-14T15:20:42Z</time>
      </trkpt>
      <trkpt lat="40.200317" lon="-5.007033">
        <ele>1699.0</ele>
        <time>2015-03-14T15:20:43Z</time>
      </trkpt>
      <trkpt lat="40.200283" lon="-5.007150">
        <ele>1698.0</ele>
        <time>2015-03-14T15:20:44Z</time>
      </trkpt>
      <trkpt lat="40.200250" lon="-5.007250">
        <ele>1697.0</ele>
        <time>2015-03-14T15:20:45Z</time>
      </trkpt>
      <trkpt lat="40.200217" lon="-5.007367">
        <ele>1697.0</ele>
        <time>2015-03-14T15:20:46Z</time>
      </trkpt>
      <trkpt lat="40.200183" lon="-5.007450">
        <ele>1696.0</ele>
        <time>2015-03-14T15:20:47Z</time>
      </trkpt>
      <trkpt lat="40.200133" lon="-5.007533">
        <ele>1695.0</ele>
        <time>2015-03-14T15:20:48Z</time>
      </trkpt>
      <trkpt lat="40.200083" lon="-5.007633">
        <ele>1693.0</ele>
        <time>2015-03-14T15:20:49Z</time>
      </trkpt>
      <trkpt lat="40.200050" lon="-5.007750">
        <ele>1691.0</ele>
        <time>2015-03-14T15:20:50Z</time>
      </trkpt>
      <trkpt lat="40.200017" lon="-5.007867">
        <ele>1690.0</ele>
        <time>2015-03-14T15:20:51Z</time>
      </trkpt>
      <trkpt lat="40.199983" lon="-5.007983">
        <ele>1689.0</ele>
        <time>2015-03-14T15:20:52Z</time>
      </trkpt>
      <trkpt lat="40.199950" lon="-5.008083">
        <ele>1689.0</ele>
        <time>2015-03-14T15:20:53Z</time>
      </trkpt>
      <trkpt lat="40.199917" lon="-5.008167">
        <ele>1688.0</ele>
        <time>2015-03-14T15:20:54Z</time>
      </trkpt>
      <trkpt lat="40.199883" lon="-5.008267">
        <ele>1686.0</ele>
        <time>2015-03-14T15:20:55Z</time>
      </trkpt>
      <trkpt lat="40.199867" lon="-5.008383">
        <ele>1685.0</ele>
        <time>2015-03-14T15:20:56Z</time>
      </trkpt>
      <trkpt lat="40.199850" lon="-5.008483">
        <ele>1684.0</ele>
        <time>2015-03-14T15:20:57Z</time>
      </trkpt>
      <trkpt lat="40.199833" lon="-5.008600">
        <ele>1683.0</ele>
        <time>2015-03-14T15:20:58Z</time>
      </trkpt>
      <trkpt lat="40.199817" lon="-5.008717">
        <ele>1682.0</ele>
        <time>2015-03-14T15:20:59Z</time>
      </trkpt>
      <trkpt lat="40.199800" lon="-5.008817">
        <ele>1681.0</ele>
        <time>2015-03-14T15:21:00Z</time>
      </trkpt>
      <trkpt lat="40.199800" lon="-5.008933">
        <ele>1680.0</ele>
        <time>2015-03-14T15:21:01Z</time>
      </trkpt>
      <trkpt lat="40.199800" lon="-5.009050">
        <ele>1679.0</ele>
        <time>2015-03-14T15:21:02Z</time>
      </trkpt>
      <trkpt lat="40.199800" lon="-5.009150">
        <ele>1678.0</ele>
        <time>2015-03-14T15:21:03Z</time>
      </trkpt>
      <trkpt lat="40.199783" lon="-5.009267">
        <ele>1677.0</ele>
        <time>2015-03-14T15:21:04Z</time>
      </trkpt>
      <trkpt lat="40.199767" lon="-5.009383">
        <ele>1676.0</ele>
        <time>2015-03-14T15:21:05Z</time>
      </trkpt>
      <trkpt lat="40.199750" lon="-5.009500">
        <ele>1676.0</ele>
        <time>2015-03-14T15:21:06Z</time>
      </trkpt>
      <trkpt lat="40.199750" lon="-5.009600">
        <ele>1676.0</ele>
        <time>2015-03-14T15:21:07Z</time>
      </trkpt>
      <trkpt lat="40.199750" lon="-5.009700">
        <ele>1675.0</ele>
        <time>2015-03-14T15:21:08Z</time>
      </trkpt>
      <trkpt lat="40.199750" lon="-5.009783">
        <ele>1673.0</ele>
        <time>2015-03-14T15:21:09Z</time>
      </trkpt>
      <trkpt lat="40.199750" lon="-5.009900">
        <ele>1671.0</ele>
        <time>2015-03-14T15:21:10Z</time>
      </trkpt>
      <trkpt lat="40.199750" lon="-5.010017">
        <ele>1669.0</ele>
        <time>2015-03-14T15:21:11Z</time>
      </trkpt>
      <trkpt lat="40.199733" lon="-5.010133">
        <ele>1666.0</ele>
        <time>2015-03-14T15:21:12Z</time>
      </trkpt>
      <trkpt lat="40.199717" lon="-5.010250">
        <ele>1665.0</ele>
        <time>2015-03-14T15:21:13Z</time>
      </trkpt>
      <trkpt lat="40.199683" lon="-5.010350">
        <ele>1664.0</ele>
        <time>2015-03-14T15:21:14Z</time>
      </trkpt>
      <trkpt lat="40.199667" lon="-5.010450">
        <ele>1664.0</ele>
        <time>2015-03-14T15:21:15Z</time>
      </trkpt>
      <trkpt lat="40.199667" lon="-5.010533">
        <ele>1663.0</ele>
        <time>2015-03-14T15:21:16Z</time>
      </trkpt>
      <trkpt lat="40.199650" lon="-5.010617">
        <ele>1661.0</ele>
        <time>2015-03-14T15:21:17Z</time>
      </trkpt>
      <trkpt lat="40.199633" lon="-5.010717">
        <ele>1659.0</ele>
        <time>2015-03-14T15:21:18Z</time>
      </trkpt>
      <trkpt lat="40.199617" lon="-5.010817">
        <ele>1656.0</ele>
        <time>2015-03-14T15:21:19Z</time>
      </trkpt>
      <trkpt lat="40.199617" lon="-5.010917">
        <ele>1655.0</ele>
        <time>2015-03-14T15:21:20Z</time>
      </trkpt>
      <trkpt lat="40.199617" lon="-5.011017">
        <ele>1654.0</ele>
        <time>2015-03-14T15:21:21Z</time>
      </trkpt>
      <trkpt lat="40.199600" lon="-5.011100">
        <ele>1653.0</ele>
        <time>2015-03-14T15:21:22Z</time>
      </trkpt>
      <trkpt lat="40.199600" lon="-5.011167">
        <ele>1651.0</ele>
        <time>2015-03-14T15:21:23Z</time>
      </trkpt>
      <trkpt lat="40.199583" lon="-5.011250">
        <ele>1649.0</ele>
        <time>2015-03-14T15:21:24Z</time>
      </trkpt>
      <trkpt lat="40.199583" lon="-5.011333">
        <ele>1646.0</ele>
        <time>2015-03-14T15:21:25Z</time>
      </trkpt>
      <trkpt lat="40.199567" lon="-5.011417">
        <ele>1643.0</ele>
        <time>2015-03-14T15:21:26Z</time>
      </trkpt>
      <trkpt lat="40.199550" lon="-5.011517">
        <ele>1641.0</ele>
        <time>2015-03-14T15:21:27Z</time>
      </trkpt>
      <trkpt lat="40.199550" lon="-5.011617">
        <ele>1637.0</ele>
        <time>2015-03-14T15:21:28Z</time>
      </trkpt>
      <trkpt lat="40.199533" lon="-5.011733">
        <ele>1635.0</ele>
        <time>2015-03-14T15:21:29Z</time>
      </trkpt>
      <trkpt lat="40.199533" lon="-5.011850">
        <ele>1632.0</ele>
        <time>2015-03-14T15:21:30Z</time>
      </trkpt>
      <trkpt lat="40.199517" lon="-5.011967">
        <ele>1630.0</ele>
        <time>2015-03-14T15:21:31Z</time>
      </trkpt>
      <trkpt lat="40.199517" lon="-5.012067">
        <ele>1628.0</ele>
        <time>2015-03-14T15:21:32Z</time>
      </trkpt>
      <trkpt lat="40.199517" lon="-5.012183">
        <ele>1627.0</ele>
        <time>2015-03-14T15:21:33Z</time>
      </trkpt>
      <trkpt lat="40.199517" lon="-5.012283">
        <ele>1625.0</ele>
        <time>2015-03-14T15:21:34Z</time>
      </trkpt>
      <trkpt lat="40.199517" lon="-5.012417">
        <ele>1622.0</ele>
        <time>2015-03-14T15:21:35Z</time>
      </trkpt>
      <trkpt lat="40.199517" lon="-5.012550">
        <ele>1621.0</ele>
        <time>2015-03-14T15:21:36Z</time>
      </trkpt>
      <trkpt lat="40.199517" lon="-5.012683">
        <ele>1619.0</ele>
        <time>2015-03-14T15:21:37Z</time>
      </trkpt>
      <trkpt lat="40.199533" lon="-5.012800">
        <ele>1618.0</ele>
        <time>2015-03-14T15:21:38Z</time>
      </trkpt>
      <trkpt lat="40.199550" lon="-5.012933">
        <ele>1616.0</ele>
        <time>2015-03-14T15:21:39Z</time>
      </trkpt>
      <trkpt lat="40.199583" lon="-5.013050">
        <ele>1615.0</ele>
        <time>2015-03-14T15:21:40Z</time>
      </trkpt>
      <trkpt lat="40.199600" lon="-5.013167">
        <ele>1613.0</ele>
        <time>2015-03-14T15:21:41Z</time>
      </trkpt>
      <trkpt lat="40.199617" lon="-5.013300">
        <ele>1610.0</ele>
        <time>2015-03-14T15:21:42Z</time>
      </trkpt>
      <trkpt lat="40.199633" lon="-5.013433">
        <ele>1608.0</ele>
        <time>2015-03-14T15:21:43Z</time>
      </trkpt>
      <trkpt lat="40.199667" lon="-5.013567">
        <ele>1606.0</ele>
        <time>2015-03-14T15:21:44Z</time>
      </trkpt>
      <trkpt lat="40.199683" lon="-5.013700">
        <ele>1605.0</ele>
        <time>2015-03-14T15:21:45Z</time>
      </trkpt>
      <trkpt lat="40.199700" lon="-5.013833">
        <ele>1605.0</ele>
        <time>2015-03-14T15:21:46Z</time>
      </trkpt>
      <trkpt lat="40.199700" lon="-5.013933">
        <ele>1605.0</ele>
        <time>2015-03-14T15:21:47Z</time>
      </trkpt>
      <trkpt lat="40.199700" lon="-5.014050">
        <ele>1603.0</ele>
        <time>2015-03-14T15:21:48Z</time>
      </trkpt>
      <trkpt lat="40.199700" lon="-5.014167">
        <ele>1601.0</ele>
        <time>2015-03-14T15:21:49Z</time>
      </trkpt>
      <trkpt lat="40.199683" lon="-5.014283">
        <ele>1599.0</ele>
        <time>2015-03-14T15:21:50Z</time>
      </trkpt>
      <trkpt lat="40.199683" lon="-5.014417">
        <ele>1596.0</ele>
        <time>2015-03-14T15:21:51Z</time>
      </trkpt>
      <trkpt lat="40.199683" lon="-5.014550">
        <ele>1593.0</ele>
        <time>2015-03-14T15:21:52Z</time>
      </trkpt>
      <trkpt lat="40.199683" lon="-5.014683">
        <ele>1591.0</ele>
        <time>2015-03-14T15:21:53Z</time>
      </trkpt>
      <trkpt lat="40.199683" lon="-5.014817">
        <ele>1590.0</ele>
        <time>2015-03-14T15:21:54Z</time>
      </trkpt>
      <trkpt lat="40.199700" lon="-5.014933">
        <ele>1588.0</ele>
        <time>2015-03-14T15:21:55Z</time>
      </trkpt>
      <trkpt lat="40.199700" lon="-5.015067">
        <ele>1586.0</ele>
        <time>2015-03-14T15:21:56Z</time>
      </trkpt>
      <trkpt lat="40.199717" lon="-5.015200">
        <ele>1585.0</ele>
        <time>2015-03-14T15:21:57Z</time>
      </trkpt>
      <trkpt lat="40.199733" lon="-5.015350">
        <ele>1583.0</ele>
        <time>2015-03-14T15:21:58Z</time>
      </trkpt>
      <trkpt lat="40.199750" lon="-5.015500">
        <ele>1583.0</ele>
        <time>2015-03-14T15:21:59Z</time>
      </trkpt>
      <trkpt lat="40.199767" lon="-5.015633">
        <ele>1583.0</ele>
        <time>2015-03-14T15:22:00Z</time>
      </trkpt>
      <trkpt lat="40.199783" lon="-5.015767">
        <ele>1583.0</ele>
        <time>2015-03-14T15:22:01Z</time>
      </trkpt>
      <trkpt lat="40.199783" lon="-5.015883">
        <ele>1583.0</ele>
        <time>2015-03-14T15:22:02Z</time>
      </trkpt>
      <trkpt lat="40.199800" lon="-5.016017">
        <ele>1582.0</ele>
        <time>2015-03-14T15:22:03Z</time>
      </trkpt>
      <trkpt lat="40.199800" lon="-5.016133">
        <ele>1580.0</ele>
        <time>2015-03-14T15:22:04Z</time>
      </trkpt>
      <trkpt lat="40.199817" lon="-5.016283">
        <ele>1579.0</ele>
        <time>2015-03-14T15:22:05Z</time>
      </trkpt>
      <trkpt lat="40.199833" lon="-5.016417">
        <ele>1577.0</ele>
        <time>2015-03-14T15:22:06Z</time>
      </trkpt>
      <trkpt lat="40.199850" lon="-5.016567">
        <ele>1577.0</ele>
        <time>2015-03-14T15:22:07Z</time>
      </trkpt>
      <trkpt lat="40.199850" lon="-5.016700">
        <ele>1576.0</ele>
        <time>2015-03-14T15:22:08Z</time>
      </trkpt>
      <trkpt lat="40.199867" lon="-5.016817">
        <ele>1575.0</ele>
        <time>2015-03-14T15:22:09Z</time>
      </trkpt>
      <trkpt lat="40.199867" lon="-5.016933">
        <ele>1573.0</ele>
        <time>2015-03-14T15:22:10Z</time>
      </trkpt>
      <trkpt lat="40.199867" lon="-5.017067">
        <ele>1570.0</ele>
        <time>2015-03-14T15:22:11Z</time>
      </trkpt>
      <trkpt lat="40.199850" lon="-5.017200">
        <ele>1567.0</ele>
        <time>2015-03-14T15:22:12Z</time>
      </trkpt>
      <trkpt lat="40.199850" lon="-5.017367">
        <ele>1563.0</ele>
        <time>2015-03-14T15:22:13Z</time>
      </trkpt>
      <trkpt lat="40.199850" lon="-5.017517">
        <ele>1561.0</ele>
        <time>2015-03-14T15:22:14Z</time>
      </trkpt>
      <trkpt lat="40.199833" lon="-5.017667">
        <ele>1559.0</ele>
        <time>2015-03-14T15:22:15Z</time>
      </trkpt>
      <trkpt lat="40.199833" lon="-5.017817">
        <ele>1557.0</ele>
        <time>2015-03-14T15:22:16Z</time>
      </trkpt>
      <trkpt lat="40.199833" lon="-5.017967">
        <ele>1555.0</ele>
        <time>2015-03-14T15:22:17Z</time>
      </trkpt>
      <trkpt lat="40.199833" lon="-5.018117">
        <ele>1554.0</ele>
        <time>2015-03-14T15:22:18Z</time>
      </trkpt>
      <trkpt lat="40.199850" lon="-5.018267">
        <ele>1553.0</ele>
        <time>2015-03-14T15:22:19Z</time>
      </trkpt>
      <trkpt lat="40.199867" lon="-5.018417">
        <ele>1552.0</ele>
        <time>2015-03-14T15:22:20Z</time>
      </trkpt>
      <trkpt lat="40.199883" lon="-5.018550">
        <ele>1551.0</ele>
        <time>2015-03-14T15:22:21Z</time>
      </trkpt>
      <trkpt lat="40.199900" lon="-5.018683">
        <ele>1549.0</ele>
        <time>2015-03-14T15:22:22Z</time>
      </trkpt>
      <trkpt lat="40.199917" lon="-5.018817">
        <ele>1547.0</ele>
        <time>2015-03-14T15:22:23Z</time>
      </trkpt>
      <trkpt lat="40.199917" lon="-5.018950">
        <ele>1545.0</ele>
        <time>2015-03-14T15:22:24Z</time>
      </trkpt>
      <trkpt lat="40.199933" lon="-5.019100">
        <ele>1542.0</ele>
        <time>2015-03-14T15:22:25Z</time>
      </trkpt>
      <trkpt lat="40.199950" lon="-5.019250">
        <ele>1540.0</ele>
        <time>2015-03-14T15:22:26Z</time>
      </trkpt>
      <trkpt lat="40.199967" lon="-5.019400">
        <ele>1538.0</ele>
        <time>2015-03-14T15:22:27Z</time>
      </trkpt>
      <trkpt lat="40.199983" lon="-5.019533">
        <ele>1537.0</ele>
        <time>2015-03-14T15:22:28Z</time>
      </trkpt>
      <trkpt lat="40.199983" lon="-5.019683">
        <ele>1535.0</ele>
        <time>2015-03-14T15:22:29Z</time>
      </trkpt>
      <trkpt lat="40.199983" lon="-5.019800">
        <ele>1533.0</ele>
        <time>2015-03-14T15:22:30Z</time>
      </trkpt>
      <trkpt lat="40.199967" lon="-5.019933">
        <ele>1531.0</ele>
        <time>2015-03-14T15:22:31Z</time>
      </trkpt>
      <trkpt lat="40.199967" lon="-5.020067">
        <ele>1528.0</ele>
        <time>2015-03-14T15:22:32Z</time>
      </trkpt>
      <trkpt lat="40.199983" lon="-5.020200">
        <ele>1526.0</ele>
        <time>2015-03-14T15:22:33Z</time>
      </trkpt>
      <trkpt lat="40.199983" lon="-5.020333">
        <ele>1524.0</ele>
        <time>2015-03-14T15:22:34Z</time>
      </trkpt>
      <trkpt lat="40.199983" lon="-5.020467">
        <ele>1523.0</ele>
        <time>2015-03-14T15:22:35Z</time>
      </trkpt>
      <trkpt lat="40.199983" lon="-5.020583">
        <ele>1522.0</ele>
        <time>2015-03-14T15:22:36Z</time>
      </trkpt>
      <trkpt lat="40.199983" lon="-5.020700">
        <ele>1519.0</ele>
        <time>2015-03-14T15:22:37Z</time>
      </trkpt>
      <trkpt lat="40.199983" lon="-5.020817">
        <ele>1516.0</ele>
        <time>2015-03-14T15:22:38Z</time>
      </trkpt>
      <trkpt lat="40.199983" lon="-5.020950">
        <ele>1513.0</ele>
        <time>2015-03-14T15:22:39Z</time>
      </trkpt>
      <trkpt lat="40.200000" lon="-5.021083">
        <ele>1510.0</ele>
        <time>2015-03-14T15:22:40Z</time>
      </trkpt>
      <trkpt lat="40.200000" lon="-5.021217">
        <ele>1508.0</ele>
        <time>2015-03-14T15:22:41Z</time>
      </trkpt>
      <trkpt lat="40.200000" lon="-5.021367">
        <ele>1507.0</ele>
        <time>2015-03-14T15:22:42Z</time>
      </trkpt>
      <trkpt lat="40.200000" lon="-5.021483">
        <ele>1506.0</ele>
        <time>2015-03-14T15:22:43Z</time>
      </trkpt>
      <trkpt lat="40.200000" lon="-5.021617">
        <ele>1504.0</ele>
        <time>2015-03-14T15:22:44Z</time>
      </trkpt>
      <trkpt lat="40.200000" lon="-5.021733">
        <ele>1502.0</ele>
        <time>2015-03-14T15:22:45Z</time>
      </trkpt>
      <trkpt lat="40.200000" lon="-5.021850">
        <ele>1499.0</ele>
        <time>2015-03-14T15:22:46Z</time>
      </trkpt>
      <trkpt lat="40.200017" lon="-5.021983">
        <ele>1495.0</ele>
        <time>2015-03-14T15:22:47Z</time>
      </trkpt>
      <trkpt lat="40.200033" lon="-5.022117">
        <ele>1492.0</ele>
        <time>2015-03-14T15:22:48Z</time>
      </trkpt>
      <trkpt lat="40.200033" lon="-5.022250">
        <ele>1488.0</ele>
        <time>2015-03-14T15:22:49Z</time>
      </trkpt>
      <trkpt lat="40.200017" lon="-5.022400">
        <ele>1486.0</ele>
        <time>2015-03-14T15:22:50Z</time>
      </trkpt>
      <trkpt lat="40.199983" lon="-5.022550">
        <ele>1484.0</ele>
        <time>2015-03-14T15:22:51Z</time>
      </trkpt>
      <trkpt lat="40.199967" lon="-5.022683">
        <ele>1482.0</ele>
        <time>2015-03-14T15:22:52Z</time>
      </trkpt>
      <trkpt lat="40.199967" lon="-5.022817">
        <ele>1481.0</ele>
        <time>2015-03-14T15:22:53Z</time>
      </trkpt>
      <trkpt lat="40.199950" lon="-5.022967">
        <ele>1478.0</ele>
        <time>2015-03-14T15:22:54Z</time>
      </trkpt>
      <trkpt lat="40.199933" lon="-5.023100">
        <ele>1476.0</ele>
        <time>2015-03-14T15:22:55Z</time>
      </trkpt>
      <trkpt lat="40.199900" lon="-5.023250">
        <ele>1474.0</ele>
        <time>2015-03-14T15:22:56Z</time>
      </trkpt>
      <trkpt lat="40.199883" lon="-5.023400">
        <ele>1472.0</ele>
        <time>2015-03-14T15:22:57Z</time>
      </trkpt>
      <trkpt lat="40.199867" lon="-5.023550">
        <ele>1471.0</ele>
        <time>2015-03-14T15:22:58Z</time>
      </trkpt>
      <trkpt lat="40.199850" lon="-5.023700">
        <ele>1470.0</ele>
        <time>2015-03-14T15:22:59Z</time>
      </trkpt>
      <trkpt lat="40.199833" lon="-5.023833">
        <ele>1469.0</ele>
        <time>2015-03-14T15:23:00Z</time>
      </trkpt>
      <trkpt lat="40.199817" lon="-5.023983">
        <ele>1467.0</ele>
        <time>2015-03-14T15:23:01Z</time>
      </trkpt>
      <trkpt lat="40.199800" lon="-5.024117">
        <ele>1465.0</ele>
        <time>2015-03-14T15:23:02Z</time>
      </trkpt>
      <trkpt lat="40.199800" lon="-5.024267">
        <ele>1463.0</ele>
        <time>2015-03-14T15:23:03Z</time>
      </trkpt>
      <trkpt lat="40.199800" lon="-5.024417">
        <ele>1462.0</ele>
        <time>2015-03-14T15:23:04Z</time>
      </trkpt>
      <trkpt lat="40.199817" lon="-5.024550">
        <ele>1461.0</ele>
        <time>2015-03-14T15:23:05Z</time>
      </trkpt>
      <trkpt lat="40.199817" lon="-5.024683">
        <ele>1460.0</ele>
        <time>2015-03-14T15:23:06Z</time>
      </trkpt>
      <trkpt lat="40.199800" lon="-5.024817">
        <ele>1459.0</ele>
        <time>2015-03-14T15:23:07Z</time>
      </trkpt>
      <trkpt lat="40.199800" lon="-5.024933">
        <ele>1457.0</ele>
        <time>2015-03-14T15:23:08Z</time>
      </trkpt>
      <trkpt lat="40.199817" lon="-5.025067">
        <ele>1455.0</ele>
        <time>2015-03-14T15:23:09Z</time>
      </trkpt>
      <trkpt lat="40.199817" lon="-5.025217">
        <ele>1453.0</ele>
        <time>2015-03-14T15:23:10Z</time>
      </trkpt>
      <trkpt lat="40.199833" lon="-5.025367">
        <ele>1451.0</ele>
        <time>2015-03-14T15:23:11Z</time>
      </trkpt>
      <trkpt lat="40.199850" lon="-5.025500">
        <ele>1450.0</ele>
        <time>2015-03-14T15:23:12Z</time>
      </trkpt>
      <trkpt lat="40.199867" lon="-5.025650">
        <ele>1449.0</ele>
        <time>2015-03-14T15:23:13Z</time>
      </trkpt>
      <trkpt lat="40.199867" lon="-5.025767">
        <ele>1448.0</ele>
        <time>2015-03-14T15:23:14Z</time>
      </trkpt>
      <trkpt lat="40.199883" lon="-5.025883">
        <ele>1447.0</ele>
        <time>2015-03-14T15:23:15Z</time>
      </trkpt>
      <trkpt lat="40.199867" lon="-5.025983">
        <ele>1445.0</ele>
        <time>2015-03-14T15:23:16Z</time>
      </trkpt>
      <trkpt lat="40.199867" lon="-5.026117">
        <ele>1442.0</ele>
        <time>2015-03-14T15:23:17Z</time>
      </trkpt>
      <trkpt lat="40.199867" lon="-5.026250">
        <ele>1439.0</ele>
        <time>2015-03-14T15:23:18Z</time>
      </trkpt>
      <trkpt lat="40.199867" lon="-5.026383">
        <ele>1437.0</ele>
        <time>2015-03-14T15:23:19Z</time>
      </trkpt>
      <trkpt lat="40.199867" lon="-5.026517">
        <ele>1435.0</ele>
        <time>2015-03-14T15:23:20Z</time>
      </trkpt>
      <trkpt lat="40.199867" lon="-5.026633">
        <ele>1434.0</ele>
        <time>2015-03-14T15:23:21Z</time>
      </trkpt>
      <trkpt lat="40.199850" lon="-5.026767">
        <ele>1432.0</ele>
        <time>2015-03-14T15:23:22Z</time>
      </trkpt>
      <trkpt lat="40.199833" lon="-5.026883">
        <ele>1430.0</ele>
        <time>2015-03-14T15:23:23Z</time>
      </trkpt>
      <trkpt lat="40.199817" lon="-5.027017">
        <ele>1429.0</ele>
        <time>2015-03-14T15:23:24Z</time>
      </trkpt>
      <trkpt lat="40.199817" lon="-5.027167">
        <ele>1428.0</ele>
        <time>2015-03-14T15:23:25Z</time>
      </trkpt>
      <trkpt lat="40.199817" lon="-5.027300">
        <ele>1428.0</ele>
        <time>2015-03-14T15:23:26Z</time>
      </trkpt>
      <trkpt lat="40.199817" lon="-5.027417">
        <ele>1429.0</ele>
        <time>2015-03-14T15:23:27Z</time>
      </trkpt>
      <trkpt lat="40.199817" lon="-5.027533">
        <ele>1429.0</ele>
        <time>2015-03-14T15:23:28Z</time>
      </trkpt>
      <trkpt lat="40.199817" lon="-5.027650">
        <ele>1429.0</ele>
        <time>2015-03-14T15:23:29Z</time>
      </trkpt>
      <trkpt lat="40.199817" lon="-5.027767">
        <ele>1429.0</ele>
        <time>2015-03-14T15:23:30Z</time>
      </trkpt>
      <trkpt lat="40.199817" lon="-5.027900">
        <ele>1429.0</ele>
        <time>2015-03-14T15:23:31Z</time>
      </trkpt>
      <trkpt lat="40.199833" lon="-5.028017">
        <ele>1430.0</ele>
        <time>2015-03-14T15:23:32Z</time>
      </trkpt>
      <trkpt lat="40.199833" lon="-5.028133">
        <ele>1430.0</ele>
        <time>2015-03-14T15:23:33Z</time>
      </trkpt>
      <trkpt lat="40.199833" lon="-5.028250">
        <ele>1429.0</ele>
        <time>2015-03-14T15:23:34Z</time>
      </trkpt>
      <trkpt lat="40.199817" lon="-5.028367">
        <ele>1428.0</ele>
        <time>2015-03-14T15:23:35Z</time>
      </trkpt>
      <trkpt lat="40.199817" lon="-5.028483">
        <ele>1427.0</ele>
        <time>2015-03-14T15:23:36Z</time>
      </trkpt>
      <trkpt lat="40.199800" lon="-5.028600">
        <ele>1427.0</ele>
        <time>2015-03-14T15:23:37Z</time>
      </trkpt>
      <trkpt lat="40.199767" lon="-5.028717">
        <ele>1428.0</ele>
        <time>2015-03-14T15:23:38Z</time>
      </trkpt>
      <trkpt lat="40.199733" lon="-5.028833">
        <ele>1428.0</ele>
        <time>2015-03-14T15:23:39Z</time>
      </trkpt>
      <trkpt lat="40.199700" lon="-5.028933">
        <ele>1429.0</ele>
        <time>2015-03-14T15:23:40Z</time>
      </trkpt>
      <trkpt lat="40.199667" lon="-5.029050">
        <ele>1430.0</ele>
        <time>2015-03-14T15:23:41Z</time>
      </trkpt>
      <trkpt lat="40.199633" lon="-5.029133">
        <ele>1430.0</ele>
        <time>2015-03-14T15:23:42Z</time>
      </trkpt>
      <trkpt lat="40.199583" lon="-5.029217">
        <ele>1430.0</ele>
        <time>2015-03-14T15:23:43Z</time>
      </trkpt>
      <trkpt lat="40.199533" lon="-5.029300">
        <ele>1429.0</ele>
        <time>2015-03-14T15:23:44Z</time>
      </trkpt>
      <trkpt lat="40.199483" lon="-5.029383">
        <ele>1429.0</ele>
        <time>2015-03-14T15:23:45Z</time>
      </trkpt>
      <trkpt lat="40.199417" lon="-5.029450">
        <ele>1429.0</ele>
        <time>2015-03-14T15:23:46Z</time>
      </trkpt>
      <trkpt lat="40.199350" lon="-5.029533">
        <ele>1429.0</ele>
        <time>2015-03-14T15:23:47Z</time>
      </trkpt>
      <trkpt lat="40.199317" lon="-5.029633">
        <ele>1429.0</ele>
        <time>2015-03-14T15:23:48Z</time>
      </trkpt>
      <trkpt lat="40.199267" lon="-5.029750">
        <ele>1428.0</ele>
        <time>2015-03-14T15:23:49Z</time>
      </trkpt>
      <trkpt lat="40.199233" lon="-5.029867">
        <ele>1428.0</ele>
        <time>2015-03-14T15:23:50Z</time>
      </trkpt>
      <trkpt lat="40.199183" lon="-5.029967">
        <ele>1428.0</ele>
        <time>2015-03-14T15:23:51Z</time>
      </trkpt>
      <trkpt lat="40.199150" lon="-5.030067">
        <ele>1428.0</ele>
        <time>2015-03-14T15:23:52Z</time>
      </trkpt>
      <trkpt lat="40.199117" lon="-5.030167">
        <ele>1428.0</ele>
        <time>2015-03-14T15:23:53Z</time>
      </trkpt>
      <trkpt lat="40.199100" lon="-5.030283">
        <ele>1426.0</ele>
        <time>2015-03-14T15:23:54Z</time>
      </trkpt>
      <trkpt lat="40.199067" lon="-5.030400">
        <ele>1425.0</ele>
        <time>2015-03-14T15:23:55Z</time>
      </trkpt>
      <trkpt lat="40.199033" lon="-5.030533">
        <ele>1423.0</ele>
        <time>2015-03-14T15:23:56Z</time>
      </trkpt>
      <trkpt lat="40.199000" lon="-5.030667">
        <ele>1422.0</ele>
        <time>2015-03-14T15:23:57Z</time>
      </trkpt>
      <trkpt lat="40.198983" lon="-5.030800">
        <ele>1422.0</ele>
        <time>2015-03-14T15:23:58Z</time>
      </trkpt>
      <trkpt lat="40.198950" lon="-5.030933">
        <ele>1421.0</ele>
        <time>2015-03-14T15:23:59Z</time>
      </trkpt>
      <trkpt lat="40.198917" lon="-5.031050">
        <ele>1421.0</ele>
        <time>2015-03-14T15:24:00Z</time>
      </trkpt>
      <trkpt lat="40.198900" lon="-5.031183">
        <ele>1421.0</ele>
        <time>2015-03-14T15:24:01Z</time>
      </trkpt>
      <trkpt lat="40.198883" lon="-5.031300">
        <ele>1421.0</ele>
        <time>2015-03-14T15:24:02Z</time>
      </trkpt>
      <trkpt lat="40.198867" lon="-5.031433">
        <ele>1420.0</ele>
        <time>2015-03-14T15:24:03Z</time>
      </trkpt>
      <trkpt lat="40.198850" lon="-5.031550">
        <ele>1420.0</ele>
        <time>2015-03-14T15:24:04Z</time>
      </trkpt>
      <trkpt lat="40.198850" lon="-5.031683">
        <ele>1420.0</ele>
        <time>2015-03-14T15:24:05Z</time>
      </trkpt>
      <trkpt lat="40.198833" lon="-5.031817">
        <ele>1420.0</ele>
        <time>2015-03-14T15:24:06Z</time>
      </trkpt>
      <trkpt lat="40.198817" lon="-5.031950">
        <ele>1421.0</ele>
        <time>2015-03-14T15:24:07Z</time>
      </trkpt>
      <trkpt lat="40.198817" lon="-5.032083">
        <ele>1422.0</ele>
        <time>2015-03-14T15:24:08Z</time>
      </trkpt>
      <trkpt lat="40.198833" lon="-5.032200">
        <ele>1422.0</ele>
        <time>2015-03-14T15:24:09Z</time>
      </trkpt>
      <trkpt lat="40.198850" lon="-5.032317">
        <ele>1423.0</ele>
        <time>2015-03-14T15:24:10Z</time>
      </trkpt>
      <trkpt lat="40.198867" lon="-5.032433">
        <ele>1423.0</ele>
        <time>2015-03-14T15:24:11Z</time>
      </trkpt>
      <trkpt lat="40.198900" lon="-5.032550">
        <ele>1423.0</ele>
        <time>2015-03-14T15:24:12Z</time>
      </trkpt>
      <trkpt lat="40.198917" lon="-5.032667">
        <ele>1422.0</ele>
        <time>2015-03-14T15:24:13Z</time>
      </trkpt>
      <trkpt lat="40.198917" lon="-5.032800">
        <ele>1422.0</ele>
        <time>2015-03-14T15:24:14Z</time>
      </trkpt>
      <trkpt lat="40.198917" lon="-5.032917">
        <ele>1422.0</ele>
        <time>2015-03-14T15:24:15Z</time>
      </trkpt>
      <trkpt lat="40.198900" lon="-5.033050">
        <ele>1421.0</ele>
        <time>2015-03-14T15:24:16Z</time>
      </trkpt>
      <trkpt lat="40.198867" lon="-5.033167">
        <ele>1421.0</ele>
        <time>2015-03-14T15:24:17Z</time>
      </trkpt>
      <trkpt lat="40.198850" lon="-5.033283">
        <ele>1421.0</ele>
        <time>2015-03-14T15:24:18Z</time>
      </trkpt>
      <trkpt lat="40.198817" lon="-5.033417">
        <ele>1420.0</ele>
        <time>2015-03-14T15:24:19Z</time>
      </trkpt>
      <trkpt lat="40.198783" lon="-5.033533">
        <ele>1420.0</ele>
        <time>2015-03-14T15:24:20Z</time>
      </trkpt>
      <trkpt lat="40.198733" lon="-5.033650">
        <ele>1420.0</ele>
        <time>2015-03-14T15:24:21Z</time>
      </trkpt>
      <trkpt lat="40.198667" lon="-5.033750">
        <ele>1420.0</ele>
        <time>2015-03-14T15:24:22Z</time>
      </trkpt>
      <trkpt lat="40.198600" lon="-5.033850">
        <ele>1420.0</ele>
        <time>2015-03-14T15:24:23Z</time>
      </trkpt>
      <trkpt lat="40.198533" lon="-5.033967">
        <ele>1420.0</ele>
        <time>2015-03-14T15:24:24Z</time>
      </trkpt>
      <trkpt lat="40.198483" lon="-5.034083">
        <ele>1420.0</ele>
        <time>2015-03-14T15:24:25Z</time>
      </trkpt>
      <trkpt lat="40.198433" lon="-5.034200">
        <ele>1420.0</ele>
        <time>2015-03-14T15:24:26Z</time>
      </trkpt>
      <trkpt lat="40.198400" lon="-5.034300">
        <ele>1421.0</ele>
        <time>2015-03-14T15:24:27Z</time>
      </trkpt>
      <trkpt lat="40.198350" lon="-5.034400">
        <ele>1420.0</ele>
        <time>2015-03-14T15:24:28Z</time>
      </trkpt>
      <trkpt lat="40.198300" lon="-5.034517">
        <ele>1419.0</ele>
        <time>2015-03-14T15:24:29Z</time>
      </trkpt>
      <trkpt lat="40.198250" lon="-5.034617">
        <ele>1417.0</ele>
        <time>2015-03-14T15:24:30Z</time>
      </trkpt>
      <trkpt lat="40.198200" lon="-5.034750">
        <ele>1416.0</ele>
        <time>2015-03-14T15:24:31Z</time>
      </trkpt>
      <trkpt lat="40.198150" lon="-5.034883">
        <ele>1415.0</ele>
        <time>2015-03-14T15:24:32Z</time>
      </trkpt>
      <trkpt lat="40.198100" lon="-5.035000">
        <ele>1416.0</ele>
        <time>2015-03-14T15:24:33Z</time>
      </trkpt>
      <trkpt lat="40.198067" lon="-5.035117">
        <ele>1416.0</ele>
        <time>2015-03-14T15:24:34Z</time>
      </trkpt>
      <trkpt lat="40.198033" lon="-5.035233">
        <ele>1415.0</ele>
        <time>2015-03-14T15:24:35Z</time>
      </trkpt>
      <trkpt lat="40.198000" lon="-5.035333">
        <ele>1414.0</ele>
        <time>2015-03-14T15:24:36Z</time>
      </trkpt>
      <trkpt lat="40.197967" lon="-5.035450">
        <ele>1412.0</ele>
        <time>2015-03-14T15:24:37Z</time>
      </trkpt>
      <trkpt lat="40.197917" lon="-5.035567">
        <ele>1409.0</ele>
        <time>2015-03-14T15:24:38Z</time>
      </trkpt>
      <trkpt lat="40.197867" lon="-5.035700">
        <ele>1407.0</ele>
        <time>2015-03-14T15:24:39Z</time>
      </trkpt>
      <trkpt lat="40.197817" lon="-5.035833">
        <ele>1405.0</ele>
        <time>2015-03-14T15:24:40Z</time>
      </trkpt>
      <trkpt lat="40.197783" lon="-5.035967">
        <ele>1406.0</ele>
        <time>2015-03-14T15:24:41Z</time>
      </trkpt>
      <trkpt lat="40.197767" lon="-5.036083">
        <ele>1406.0</ele>
        <time>2015-03-14T15:24:42Z</time>
      </trkpt>
      <trkpt lat="40.197733" lon="-5.036183">
        <ele>1406.0</ele>
        <time>2015-03-14T15:24:43Z</time>
      </trkpt>
      <trkpt lat="40.197700" lon="-5.036283">
        <ele>1405.0</ele>
        <time>2015-03-14T15:24:44Z</time>
      </trkpt>
      <trkpt lat="40.197667" lon="-5.036383">
        <ele>1404.0</ele>
        <time>2015-03-14T15:24:45Z</time>
      </trkpt>
      <trkpt lat="40.197633" lon="-5.036483">
        <ele>1403.0</ele>
        <time>2015-03-14T15:24:46Z</time>
      </trkpt>
      <trkpt lat="40.197583" lon="-5.036583">
        <ele>1402.0</ele>
        <time>2015-03-14T15:24:47Z</time>
      </trkpt>
      <trkpt lat="40.197550" lon="-5.036683">
        <ele>1400.0</ele>
        <time>2015-03-14T15:24:48Z</time>
      </trkpt>
      <trkpt lat="40.197533" lon="-5.036800">
        <ele>1399.0</ele>
        <time>2015-03-14T15:24:49Z</time>
      </trkpt>
      <trkpt lat="40.197517" lon="-5.036933">
        <ele>1398.0</ele>
        <time>2015-03-14T15:24:50Z</time>
      </trkpt>
      <trkpt lat="40.197500" lon="-5.037050">
        <ele>1397.0</ele>
        <time>2015-03-14T15:24:51Z</time>
      </trkpt>
      <trkpt lat="40.197467" lon="-5.037167">
        <ele>1396.0</ele>
        <time>2015-03-14T15:24:52Z</time>
      </trkpt>
      <trkpt lat="40.197450" lon="-5.037267">
        <ele>1395.0</ele>
        <time>2015-03-14T15:24:53Z</time>
      </trkpt>
      <trkpt lat="40.197417" lon="-5.037383">
        <ele>1394.0</ele>
        <time>2015-03-14T15:24:54Z</time>
      </trkpt>
      <trkpt lat="40.197383" lon="-5.037483">
        <ele>1393.0</ele>
        <time>2015-03-14T15:24:55Z</time>
      </trkpt>
      <trkpt lat="40.197350" lon="-5.037583">
        <ele>1391.0</ele>
        <time>2015-03-14T15:24:56Z</time>
      </trkpt>
      <trkpt lat="40.197333" lon="-5.037700">
        <ele>1390.0</ele>
        <time>2015-03-14T15:24:57Z</time>
      </trkpt>
      <trkpt lat="40.197317" lon="-5.037833">
        <ele>1388.0</ele>
        <time>2015-03-14T15:24:58Z</time>
      </trkpt>
      <trkpt lat="40.197283" lon="-5.037950">
        <ele>1387.0</ele>
        <time>2015-03-14T15:24:59Z</time>
      </trkpt>
      <trkpt lat="40.197250" lon="-5.038067">
        <ele>1386.0</ele>
        <time>2015-03-14T15:25:00Z</time>
      </trkpt>
      <trkpt lat="40.197217" lon="-5.038183">
        <ele>1386.0</ele>
        <time>2015-03-14T15:25:01Z</time>
      </trkpt>
      <trkpt lat="40.197183" lon="-5.038300">
        <ele>1385.0</ele>
        <time>2015-03-14T15:25:02Z</time>
      </trkpt>
      <trkpt lat="40.197150" lon="-5.038400">
        <ele>1384.0</ele>
        <time>2015-03-14T15:25:03Z</time>
      </trkpt>
      <trkpt lat="40.197117" lon="-5.038517">
        <ele>1383.0</ele>
        <time>2015-03-14T15:25:04Z</time>
      </trkpt>
      <trkpt lat="40.197083" lon="-5.038617">
        <ele>1382.0</ele>
        <time>2015-03-14T15:25:05Z</time>
      </trkpt>
      <trkpt lat="40.197050" lon="-5.038717">
        <ele>1380.0</ele>
        <time>2015-03-14T15:25:06Z</time>
      </trkpt>
      <trkpt lat="40.197017" lon="-5.038833">
        <ele>1379.0</ele>
        <time>2015-03-14T15:25:07Z</time>
      </trkpt>
      <trkpt lat="40.196983" lon="-5.038950">
        <ele>1378.0</ele>
        <time>2015-03-14T15:25:08Z</time>
      </trkpt>
      <trkpt lat="40.196950" lon="-5.039067">
        <ele>1377.0</ele>
        <time>2015-03-14T15:25:09Z</time>
      </trkpt>
      <trkpt lat="40.196900" lon="-5.039167">
        <ele>1376.0</ele>
        <time>2015-03-14T15:25:10Z</time>
      </trkpt>
      <trkpt lat="40.196883" lon="-5.039283">
        <ele>1376.0</ele>
        <time>2015-03-14T15:25:11Z</time>
      </trkpt>
      <trkpt lat="40.196850" lon="-5.039400">
        <ele>1377.0</ele>
        <time>2015-03-14T15:25:12Z</time>
      </trkpt>
      <trkpt lat="40.196833" lon="-5.039500">
        <ele>1377.0</ele>
        <time>2015-03-14T15:25:13Z</time>
      </trkpt>
      <trkpt lat="40.196817" lon="-5.039600">
        <ele>1377.0</ele>
        <time>2015-03-14T15:25:14Z</time>
      </trkpt>
      <trkpt lat="40.196800" lon="-5.039700">
        <ele>1376.0</ele>
        <time>2015-03-14T15:25:15Z</time>
      </trkpt>
      <trkpt lat="40.196800" lon="-5.039817">
        <ele>1374.0</ele>
        <time>2015-03-14T15:25:16Z</time>
      </trkpt>
      <trkpt lat="40.196783" lon="-5.039917">
        <ele>1371.0</ele>
        <time>2015-03-14T15:25:17Z</time>
      </trkpt>
      <trkpt lat="40.196783" lon="-5.040033">
        <ele>1368.0</ele>
        <time>2015-03-14T15:25:18Z</time>
      </trkpt>
      <trkpt lat="40.196750" lon="-5.040167">
        <ele>1365.0</ele>
        <time>2015-03-14T15:25:19Z</time>
      </trkpt>
      <trkpt lat="40.196733" lon="-5.040283">
        <ele>1363.0</ele>
        <time>2015-03-14T15:25:20Z</time>
      </trkpt>
      <trkpt lat="40.196700" lon="-5.040417">
        <ele>1361.0</ele>
        <time>2015-03-14T15:25:21Z</time>
      </trkpt>
      <trkpt lat="40.196683" lon="-5.040550">
        <ele>1359.0</ele>
        <time>2015-03-14T15:25:22Z</time>
      </trkpt>
      <trkpt lat="40.196667" lon="-5.040683">
        <ele>1359.0</ele>
        <time>2015-03-14T15:25:23Z</time>
      </trkpt>
      <trkpt lat="40.196650" lon="-5.040800">
        <ele>1360.0</ele>
        <time>2015-03-14T15:25:24Z</time>
      </trkpt>
      <trkpt lat="40.196633" lon="-5.040917">
        <ele>1361.0</ele>
        <time>2015-03-14T15:25:25Z</time>
      </trkpt>
      <trkpt lat="40.196617" lon="-5.041017">
        <ele>1361.0</ele>
        <time>2015-03-14T15:25:26Z</time>
      </trkpt>
      <trkpt lat="40.196583" lon="-5.041117">
        <ele>1361.0</ele>
        <time>2015-03-14T15:25:27Z</time>
      </trkpt>
      <trkpt lat="40.196567" lon="-5.041233">
        <ele>1361.0</ele>
        <time>2015-03-14T15:25:28Z</time>
      </trkpt>
      <trkpt lat="40.196533" lon="-5.041333">
        <ele>1361.0</ele>
        <time>2015-03-14T15:25:29Z</time>
      </trkpt>
      <trkpt lat="40.196483" lon="-5.041417">
        <ele>1361.0</ele>
        <time>2015-03-14T15:25:30Z</time>
      </trkpt>
      <trkpt lat="40.196450" lon="-5.041500">
        <ele>1361.0</ele>
        <time>2015-03-14T15:25:31Z</time>
      </trkpt>
      <trkpt lat="40.196400" lon="-5.041567">
        <ele>1362.0</ele>
        <time>2015-03-14T15:25:32Z</time>
      </trkpt>
      <trkpt lat="40.196367" lon="-5.041617">
        <ele>1363.0</ele>
        <time>2015-03-14T15:25:33Z</time>
      </trkpt>
      <trkpt lat="40.196317" lon="-5.041633">
        <ele>1363.0</ele>
        <time>2015-03-14T15:25:34Z</time>
      </trkpt>
      <trkpt lat="40.196250" lon="-5.041633">
        <ele>1363.0</ele>
        <time>2015-03-14T15:25:35Z</time>
      </trkpt>
      <trkpt lat="40.196200" lon="-5.041617">
        <ele>1363.0</ele>
        <time>2015-03-14T15:25:36Z</time>
      </trkpt>
      <trkpt lat="40.196133" lon="-5.041567">
        <ele>1363.0</ele>
        <time>2015-03-14T15:25:37Z</time>
      </trkpt>
      <trkpt lat="40.196067" lon="-5.041500">
        <ele>1364.0</ele>
        <time>2015-03-14T15:25:38Z</time>
      </trkpt>
      <trkpt lat="40.196000" lon="-5.041433">
        <ele>1366.0</ele>
        <time>2015-03-14T15:25:39Z</time>
      </trkpt>
      <trkpt lat="40.195967" lon="-5.041350">
        <ele>1367.0</ele>
        <time>2015-03-14T15:25:40Z</time>
      </trkpt>
      <trkpt lat="40.195933" lon="-5.041250">
        <ele>1367.0</ele>
        <time>2015-03-14T15:25:41Z</time>
      </trkpt>
      <trkpt lat="40.195933" lon="-5.041150">
        <ele>1367.0</ele>
        <time>2015-03-14T15:25:42Z</time>
      </trkpt>
      <trkpt lat="40.195933" lon="-5.041033">
        <ele>1366.0</ele>
        <time>2015-03-14T15:25:43Z</time>
      </trkpt>
      <trkpt lat="40.195917" lon="-5.040917">
        <ele>1366.0</ele>
        <time>2015-03-14T15:25:44Z</time>
      </trkpt>
      <trkpt lat="40.195917" lon="-5.040817">
        <ele>1367.0</ele>
        <time>2015-03-14T15:25:45Z</time>
      </trkpt>
      <trkpt lat="40.195933" lon="-5.040700">
        <ele>1367.0</ele>
        <time>2015-03-14T15:25:46Z</time>
      </trkpt>
      <trkpt lat="40.195967" lon="-5.040600">
        <ele>1367.0</ele>
        <time>2015-03-14T15:25:47Z</time>
      </trkpt>
      <trkpt lat="40.196017" lon="-5.040483">
        <ele>1365.0</ele>
        <time>2015-03-14T15:25:48Z</time>
      </trkpt>
      <trkpt lat="40.196067" lon="-5.040367">
        <ele>1364.0</ele>
        <time>2015-03-14T15:25:49Z</time>
      </trkpt>
      <trkpt lat="40.196133" lon="-5.040267">
        <ele>1364.0</ele>
        <time>2015-03-14T15:25:50Z</time>
      </trkpt>
      <trkpt lat="40.196217" lon="-5.040150">
        <ele>1365.0</ele>
        <time>2015-03-14T15:25:51Z</time>
      </trkpt>
      <trkpt lat="40.196300" lon="-5.040067">
        <ele>1366.0</ele>
        <time>2015-03-14T15:25:52Z</time>
      </trkpt>
      <trkpt lat="40.196383" lon="-5.040000">
        <ele>1367.0</ele>
        <time>2015-03-14T15:25:53Z</time>
      </trkpt>
      <trkpt lat="40.196483" lon="-5.039950">
        <ele>1367.0</ele>
        <time>2015-03-14T15:25:54Z</time>
      </trkpt>
      <trkpt lat="40.196583" lon="-5.039917">
        <ele>1366.0</ele>
        <time>2015-03-14T15:25:55Z</time>
      </trkpt>
      <trkpt lat="40.196700" lon="-5.039900">
        <ele>1364.0</ele>
        <time>2015-03-14T15:25:56Z</time>
      </trkpt>
      <trkpt lat="40.196817" lon="-5.039917">
        <ele>1363.0</ele>
        <time>2015-03-14T15:25:57Z</time>
      </trkpt>
      <trkpt lat="40.196933" lon="-5.039967">
        <ele>1363.0</ele>
        <time>2015-03-14T15:25:58Z</time>
      </trkpt>
      <trkpt lat="40.197033" lon="-5.040033">
        <ele>1362.0</ele>
        <time>2015-03-14T15:25:59Z</time>
      </trkpt>
      <trkpt lat="40.197100" lon="-5.040133">
        <ele>1362.0</ele>
        <time>2015-03-14T15:26:00Z</time>
      </trkpt>
      <trkpt lat="40.197150" lon="-5.040250">
        <ele>1362.0</ele>
        <time>2015-03-14T15:26:01Z</time>
      </trkpt>
      <trkpt lat="40.197183" lon="-5.040367">
        <ele>1362.0</ele>
        <time>2015-03-14T15:26:02Z</time>
      </trkpt>
      <trkpt lat="40.197200" lon="-5.040500">
        <ele>1361.0</ele>
        <time>2015-03-14T15:26:03Z</time>
      </trkpt>
      <trkpt lat="40.197183" lon="-5.040600">
        <ele>1361.0</ele>
        <time>2015-03-14T15:26:04Z</time>
      </trkpt>
      <trkpt lat="40.197167" lon="-5.040717">
        <ele>1360.0</ele>
        <time>2015-03-14T15:26:05Z</time>
      </trkpt>
      <trkpt lat="40.197117" lon="-5.040817">
        <ele>1359.0</ele>
        <time>2015-03-14T15:26:06Z</time>
      </trkpt>
      <trkpt lat="40.197067" lon="-5.040917">
        <ele>1357.0</ele>
        <time>2015-03-14T15:26:07Z</time>
      </trkpt>
      <trkpt lat="40.197017" lon="-5.041017">
        <ele>1357.0</ele>
        <time>2015-03-14T15:26:08Z</time>
      </trkpt>
      <trkpt lat="40.197000" lon="-5.041117">
        <ele>1357.0</ele>
        <time>2015-03-14T15:26:09Z</time>
      </trkpt>
      <trkpt lat="40.196967" lon="-5.041217">
        <ele>1357.0</ele>
        <time>2015-03-14T15:26:10Z</time>
      </trkpt>
      <trkpt lat="40.196950" lon="-5.041317">
        <ele>1356.0</ele>
        <time>2015-03-14T15:26:11Z</time>
      </trkpt>
      <trkpt lat="40.196933" lon="-5.041417">
        <ele>1356.0</ele>
        <time>2015-03-14T15:26:12Z</time>
      </trkpt>
      <trkpt lat="40.196900" lon="-5.041517">
        <ele>1356.0</ele>
        <time>2015-03-14T15:26:13Z</time>
      </trkpt>
      <trkpt lat="40.196883" lon="-5.041617">
        <ele>1356.0</ele>
        <time>2015-03-14T15:26:14Z</time>
      </trkpt>
      <trkpt lat="40.196867" lon="-5.041733">
        <ele>1356.0</ele>
        <time>2015-03-14T15:26:15Z</time>
      </trkpt>
      <trkpt lat="40.196850" lon="-5.041867">
        <ele>1357.0</ele>
        <time>2015-03-14T15:26:16Z</time>
      </trkpt>
      <trkpt lat="40.196833" lon="-5.042000">
        <ele>1359.0</ele>
        <time>2015-03-14T15:26:17Z</time>
      </trkpt>
      <trkpt lat="40.196817" lon="-5.042117">
        <ele>1364.0</ele>
        <time>2015-03-14T15:26:18Z</time>
      </trkpt>
      <trkpt lat="40.196817" lon="-5.042217">
        <ele>1367.0</ele>
        <time>2015-03-14T15:26:19Z</time>
      </trkpt>
      <trkpt lat="40.196800" lon="-5.042317">
        <ele>1370.0</ele>
        <time>2015-03-14T15:26:20Z</time>
      </trkpt>
      <trkpt lat="40.196800" lon="-5.042417">
        <ele>1371.0</ele>
        <time>2015-03-14T15:26:21Z</time>
      </trkpt>
      <trkpt lat="40.196767" lon="-5.042517">
        <ele>1373.0</ele>
        <time>2015-03-14T15:26:22Z</time>
      </trkpt>
      <trkpt lat="40.196717" lon="-5.042600">
        <ele>1376.0</ele>
        <time>2015-03-14T15:26:23Z</time>
      </trkpt>
      <trkpt lat="40.196650" lon="-5.042650">
        <ele>1378.0</ele>
        <time>2015-03-14T15:26:24Z</time>
      </trkpt>
      <trkpt lat="40.196583" lon="-5.042700">
        <ele>1382.0</ele>
        <time>2015-03-14T15:26:25Z</time>
      </trkpt>
      <trkpt lat="40.196517" lon="-5.042717">
        <ele>1386.0</ele>
        <time>2015-03-14T15:26:26Z</time>
      </trkpt>
      <trkpt lat="40.196433" lon="-5.042717">
        <ele>1390.0</ele>
        <time>2015-03-14T15:26:27Z</time>
      </trkpt>
      <trkpt lat="40.196367" lon="-5.042700">
        <ele>1392.0</ele>
        <time>2015-03-14T15:26:28Z</time>
      </trkpt>
      <trkpt lat="40.196317" lon="-5.042650">
        <ele>1393.0</ele>
        <time>2015-03-14T15:26:29Z</time>
      </trkpt>
      <trkpt lat="40.196267" lon="-5.042567">
        <ele>1393.0</ele>
        <time>2015-03-14T15:26:30Z</time>
      </trkpt>
      <trkpt lat="40.196233" lon="-5.042450">
        <ele>1393.0</ele>
        <time>2015-03-14T15:26:31Z</time>
      </trkpt>
      <trkpt lat="40.196217" lon="-5.042317">
        <ele>1393.0</ele>
        <time>2015-03-14T15:26:32Z</time>
      </trkpt>
      <trkpt lat="40.196233" lon="-5.042183">
        <ele>1394.0</ele>
        <time>2015-03-14T15:26:33Z</time>
      </trkpt>
      <trkpt lat="40.196283" lon="-5.042067">
        <ele>1395.0</ele>
        <time>2015-03-14T15:26:34Z</time>
      </trkpt>
      <trkpt lat="40.196350" lon="-5.041967">
        <ele>1396.0</ele>
        <time>2015-03-14T15:26:35Z</time>
      </trkpt>
      <trkpt lat="40.196433" lon="-5.041883">
        <ele>1396.0</ele>
        <time>2015-03-14T15:26:36Z</time>
      </trkpt>
      <trkpt lat="40.196533" lon="-5.041817">
        <ele>1395.0</ele>
        <time>2015-03-14T15:26:37Z</time>
      </trkpt>
      <trkpt lat="40.196633" lon="-5.041750">
        <ele>1395.0</ele>
        <time>2015-03-14T15:26:38Z</time>
      </trkpt>
      <trkpt lat="40.196767" lon="-5.041717">
        <ele>1396.0</ele>
        <time>2015-03-14T15:26:39Z</time>
      </trkpt>
      <trkpt lat="40.196867" lon="-5.041717">
        <ele>1397.0</ele>
        <time>2015-03-14T15:26:40Z</time>
      </trkpt>
      <trkpt lat="40.196950" lon="-5.041750">
        <ele>1398.0</ele>
        <time>2015-03-14T15:26:41Z</time>
      </trkpt>
      <trkpt lat="40.197033" lon="-5.041817">
        <ele>1397.0</ele>
        <time>2015-03-14T15:26:42Z</time>
      </trkpt>
      <trkpt lat="40.197117" lon="-5.041917">
        <ele>1398.0</ele>
        <time>2015-03-14T15:26:43Z</time>
      </trkpt>
      <trkpt lat="40.197217" lon="-5.042000">
        <ele>1401.0</ele>
        <time>2015-03-14T15:26:44Z</time>
      </trkpt>
      <trkpt lat="40.197300" lon="-5.042083">
        <ele>1405.0</ele>
        <time>2015-03-14T15:26:45Z</time>
      </trkpt>
      <trkpt lat="40.197367" lon="-5.042150">
        <ele>1408.0</ele>
        <time>2015-03-14T15:26:46Z</time>
      </trkpt>
      <trkpt lat="40.197433" lon="-5.042217">
        <ele>1411.0</ele>
        <time>2015-03-14T15:26:47Z</time>
      </trkpt>
      <trkpt lat="40.197483" lon="-5.042300">
        <ele>1412.0</ele>
        <time>2015-03-14T15:26:48Z</time>
      </trkpt>
      <trkpt lat="40.197517" lon="-5.042400">
        <ele>1412.0</ele>
        <time>2015-03-14T15:26:49Z</time>
      </trkpt>
      <trkpt lat="40.197567" lon="-5.042517">
        <ele>1413.0</ele>
        <time>2015-03-14T15:26:50Z</time>
      </trkpt>
      <trkpt lat="40.197583" lon="-5.042633">
        <ele>1414.0</ele>
        <time>2015-03-14T15:26:51Z</time>
      </trkpt>
      <trkpt lat="40.197567" lon="-5.042750">
        <ele>1415.0</ele>
        <time>2015-03-14T15:26:52Z</time>
      </trkpt>
      <trkpt lat="40.197533" lon="-5.042867">
        <ele>1416.0</ele>
        <time>2015-03-14T15:26:53Z</time>
      </trkpt>
      <trkpt lat="40.197467" lon="-5.042967">
        <ele>1418.0</ele>
        <time>2015-03-14T15:26:54Z</time>
      </trkpt>
      <trkpt lat="40.197417" lon="-5.043050">
        <ele>1420.0</ele>
        <time>2015-03-14T15:26:55Z</time>
      </trkpt>
      <trkpt lat="40.197383" lon="-5.043133">
        <ele>1423.0</ele>
        <time>2015-03-14T15:26:56Z</time>
      </trkpt>
      <trkpt lat="40.197333" lon="-5.043233">
        <ele>1424.0</ele>
        <time>2015-03-14T15:26:57Z</time>
      </trkpt>
      <trkpt lat="40.197283" lon="-5.043333">
        <ele>1426.0</ele>
        <time>2015-03-14T15:26:58Z</time>
      </trkpt>
      <trkpt lat="40.197217" lon="-5.043417">
        <ele>1427.0</ele>
        <time>2015-03-14T15:26:59Z</time>
      </trkpt>
      <trkpt lat="40.197133" lon="-5.043483">
        <ele>1429.0</ele>
        <time>2015-03-14T15:27:00Z</time>
      </trkpt>
      <trkpt lat="40.197067" lon="-5.043517">
        <ele>1430.0</ele>
        <time>2015-03-14T15:27:01Z</time>
      </trkpt>
      <trkpt lat="40.196983" lon="-5.043550">
        <ele>1432.0</ele>
        <time>2015-03-14T15:27:02Z</time>
      </trkpt>
      <trkpt lat="40.196900" lon="-5.043550">
        <ele>1434.0</ele>
        <time>2015-03-14T15:27:03Z</time>
      </trkpt>
      <trkpt lat="40.196833" lon="-5.043517">
        <ele>1437.0</ele>
        <time>2015-03-14T15:27:04Z</time>
      </trkpt>
      <trkpt lat="40.196767" lon="-5.043467">
        <ele>1440.0</ele>
        <time>2015-03-14T15:27:05Z</time>
      </trkpt>
      <trkpt lat="40.196700" lon="-5.043400">
        <ele>1443.0</ele>
        <time>2015-03-14T15:27:06Z</time>
      </trkpt>
      <trkpt lat="40.196650" lon="-5.043300">
        <ele>1445.0</ele>
        <time>2015-03-14T15:27:07Z</time>
      </trkpt>
      <trkpt lat="40.196617" lon="-5.043200">
        <ele>1447.0</ele>
        <time>2015-03-14T15:27:08Z</time>
      </trkpt>
      <trkpt lat="40.196617" lon="-5.043083">
        <ele>1450.0</ele>
        <time>2015-03-14T15:27:09Z</time>
      </trkpt>
      <trkpt lat="40.196650" lon="-5.042967">
        <ele>1452.0</ele>
        <time>2015-03-14T15:27:10Z</time>
      </trkpt>
      <trkpt lat="40.196700" lon="-5.042850">
        <ele>1453.0</ele>
        <time>2015-03-14T15:27:11Z</time>
      </trkpt>
      <trkpt lat="40.196767" lon="-5.042750">
        <ele>1454.0</ele>
        <time>2015-03-14T15:27:12Z</time>
      </trkpt>
      <trkpt lat="40.196833" lon="-5.042650">
        <ele>1454.0</ele>
        <time>2015-03-14T15:27:13Z</time>
      </trkpt>
      <trkpt lat="40.196933" lon="-5.042583">
        <ele>1455.0</ele>
        <time>2015-03-14T15:27:14Z</time>
      </trkpt>
      <trkpt lat="40.197050" lon="-5.042550">
        <ele>1456.0</ele>
        <time>2015-03-14T15:27:15Z</time>
      </trkpt>
      <trkpt lat="40.197150" lon="-5.042533">
        <ele>1456.0</ele>
        <time>2015-03-14T15:27:16Z</time>
      </trkpt>
      <trkpt lat="40.197267" lon="-5.042533">
        <ele>1458.0</ele>
        <time>2015-03-14T15:27:17Z</time>
      </trkpt>
      <trkpt lat="40.197367" lon="-5.042567">
        <ele>1460.0</ele>
        <time>2015-03-14T15:27:18Z</time>
      </trkpt>
      <trkpt lat="40.197450" lon="-5.042583">
        <ele>1462.0</ele>
        <time>2015-03-14T15:27:19Z</time>
      </trkpt>
      <trkpt lat="40.197533" lon="-5.042633">
        <ele>1465.0</ele>
        <time>2015-03-14T15:27:20Z</time>
      </trkpt>
      <trkpt lat="40.197600" lon="-5.042683">
        <ele>1467.0</ele>
        <time>2015-03-14T15:27:21Z</time>
      </trkpt>
      <trkpt lat="40.197650" lon="-5.042767">
        <ele>1468.0</ele>
        <time>2015-03-14T15:27:22Z</time>
      </trkpt>
      <trkpt lat="40.197700" lon="-5.042883">
        <ele>1469.0</ele>
        <time>2015-03-14T15:27:23Z</time>
      </trkpt>
      <trkpt lat="40.197733" lon="-5.043000">
        <ele>1471.0</ele>
        <time>2015-03-14T15:27:24Z</time>
      </trkpt>
      <trkpt lat="40.197750" lon="-5.043117">
        <ele>1473.0</ele>
        <time>2015-03-14T15:27:25Z</time>
      </trkpt>
      <trkpt lat="40.197750" lon="-5.043233">
        <ele>1476.0</ele>
        <time>2015-03-14T15:27:26Z</time>
      </trkpt>
      <trkpt lat="40.197733" lon="-5.043350">
        <ele>1479.0</ele>
        <time>2015-03-14T15:27:27Z</time>
      </trkpt>
      <trkpt lat="40.197717" lon="-5.043450">
        <ele>1482.0</ele>
        <time>2015-03-14T15:27:28Z</time>
      </trkpt>
      <trkpt lat="40.197683" lon="-5.043533">
        <ele>1484.0</ele>
        <time>2015-03-14T15:27:29Z</time>
      </trkpt>
      <trkpt lat="40.197633" lon="-5.043617">
        <ele>1486.0</ele>
        <time>2015-03-14T15:27:30Z</time>
      </trkpt>
      <trkpt lat="40.197567" lon="-5.043700">
        <ele>1487.0</ele>
        <time>2015-03-14T15:27:31Z</time>
      </trkpt>
      <trkpt lat="40.197483" lon="-5.043733">
        <ele>1488.0</ele>
        <time>2015-03-14T15:27:32Z</time>
      </trkpt>
      <trkpt lat="40.197400" lon="-5.043750">
        <ele>1490.0</ele>
        <time>2015-03-14T15:27:33Z</time>
      </trkpt>
      <trkpt lat="40.197333" lon="-5.043717">
        <ele>1492.0</ele>
        <time>2015-03-14T15:27:34Z</time>
      </trkpt>
      <trkpt lat="40.197267" lon="-5.043667">
        <ele>1493.0</ele>
        <time>2015-03-14T15:27:35Z</time>
      </trkpt>
      <trkpt lat="40.197200" lon="-5.043600">
        <ele>1494.0</ele>
        <time>2015-03-14T15:27:36Z</time>
      </trkpt>
      <trkpt lat="40.197150" lon="-5.043517">
        <ele>1496.0</ele>
        <time>2015-03-14T15:27:37Z</time>
      </trkpt>
      <trkpt lat="40.197100" lon="-5.043417">
        <ele>1498.0</ele>
        <time>2015-03-14T15:27:38Z</time>
      </trkpt>
      <trkpt lat="40.197050" lon="-5.043283">
        <ele>1499.0</ele>
        <time>2015-03-14T15:27:39Z</time>
      </trkpt>
      <trkpt lat="40.197017" lon="-5.043150">
        <ele>1502.0</ele>
        <time>2015-03-14T15:27:40Z</time>
      </trkpt>
      <trkpt lat="40.197000" lon="-5.043033">
        <ele>1505.0</ele>
        <time>2015-03-14T15:27:41Z</time>
      </trkpt>
      <trkpt lat="40.197017" lon="-5.042917">
        <ele>1508.0</ele>
        <time>2015-03-14T15:27:42Z</time>
      </trkpt>
      <trkpt lat="40.197050" lon="-5.042783">
        <ele>1510.0</ele>
        <time>2015-03-14T15:27:43Z</time>
      </trkpt>
      <trkpt lat="40.197100" lon="-5.042667">
        <ele>1512.0</ele>
        <time>2015-03-14T15:27:44Z</time>
      </trkpt>
      <trkpt lat="40.197167" lon="-5.042567">
        <ele>1513.0</ele>
        <time>2015-03-14T15:27:45Z</time>
      </trkpt>
      <trkpt lat="40.197233" lon="-5.042467">
        <ele>1514.0</ele>
        <time>2015-03-14T15:27:46Z</time>
      </trkpt>
      <trkpt lat="40.197333" lon="-5.042400">
        <ele>1515.0</ele>
        <time>2015-03-14T15:27:47Z</time>
      </trkpt>
      <trkpt lat="40.197417" lon="-5.042350">
        <ele>1515.0</ele>
        <time>2015-03-14T15:27:48Z</time>
      </trkpt>
      <trkpt lat="40.197517" lon="-5.042317">
        <ele>1515.0</ele>
        <time>2015-03-14T15:27:49Z</time>
      </trkpt>
      <trkpt lat="40.197633" lon="-5.042317">
        <ele>1515.0</ele>
        <time>2015-03-14T15:27:50Z</time>
      </trkpt>
      <trkpt lat="40.197750" lon="-5.042350">
        <ele>1514.0</ele>
        <time>2015-03-14T15:27:51Z</time>
      </trkpt>
      <trkpt lat="40.197850" lon="-5.042400">
        <ele>1514.0</ele>
        <time>2015-03-14T15:27:52Z</time>
      </trkpt>
      <trkpt lat="40.197950" lon="-5.042483">
        <ele>1515.0</ele>
        <time>2015-03-14T15:27:53Z</time>
      </trkpt>
      <trkpt lat="40.198017" lon="-5.042583">
        <ele>1517.0</ele>
        <time>2015-03-14T15:27:54Z</time>
      </trkpt>
      <trkpt lat="40.198067" lon="-5.042700">
        <ele>1519.0</ele>
        <time>2015-03-14T15:27:55Z</time>
      </trkpt>
      <trkpt lat="40.198117" lon="-5.042800">
        <ele>1521.0</ele>
        <time>2015-03-14T15:27:56Z</time>
      </trkpt>
      <trkpt lat="40.198167" lon="-5.042917">
        <ele>1523.0</ele>
        <time>2015-03-14T15:27:57Z</time>
      </trkpt>
      <trkpt lat="40.198200" lon="-5.043017">
        <ele>1525.0</ele>
        <time>2015-03-14T15:27:58Z</time>
      </trkpt>
      <trkpt lat="40.198200" lon="-5.043133">
        <ele>1526.0</ele>
        <time>2015-03-14T15:27:59Z</time>
      </trkpt>
      <trkpt lat="40.198167" lon="-5.043250">
        <ele>1527.0</ele>
        <time>2015-03-14T15:28:00Z</time>
      </trkpt>
      <trkpt lat="40.198133" lon="-5.043350">
        <ele>1528.0</ele>
        <time>2015-03-14T15:28:01Z</time>
      </trkpt>
      <trkpt lat="40.198083" lon="-5.043450">
        <ele>1530.0</ele>
        <time>2015-03-14T15:28:02Z</time>
      </trkpt>
      <trkpt lat="40.198017" lon="-5.043533">
        <ele>1533.0</ele>
        <time>2015-03-14T15:28:03Z</time>
      </trkpt>
      <trkpt lat="40.197967" lon="-5.043583">
        <ele>1535.0</ele>
        <time>2015-03-14T15:28:04Z</time>
      </trkpt>
      <trkpt lat="40.197883" lon="-5.043617">
        <ele>1538.0</ele>
        <time>2015-03-14T15:28:05Z</time>
      </trkpt>
      <trkpt lat="40.197800" lon="-5.043617">
        <ele>1539.0</ele>
        <time>2015-03-14T15:28:06Z</time>
      </trkpt>
      <trkpt lat="40.197733" lon="-5.043617">
        <ele>1541.0</ele>
        <time>2015-03-14T15:28:07Z</time>
      </trkpt>
      <trkpt lat="40.197650" lon="-5.043583">
        <ele>1543.0</ele>
        <time>2015-03-14T15:28:08Z</time>
      </trkpt>
      <trkpt lat="40.197567" lon="-5.043533">
        <ele>1545.0</ele>
        <time>2015-03-14T15:28:09Z</time>
      </trkpt>
      <trkpt lat="40.197483" lon="-5.043500">
        <ele>1549.0</ele>
        <time>2015-03-14T15:28:10Z</time>
      </trkpt>
      <trkpt lat="40.197400" lon="-5.043433">
        <ele>1552.0</ele>
        <time>2015-03-14T15:28:11Z</time>
      </trkpt>
      <trkpt lat="40.197333" lon="-5.043367">
        <ele>1555.0</ele>
        <time>2015-03-14T15:28:12Z</time>
      </trkpt>
      <trkpt lat="40.197283" lon="-5.043300">
        <ele>1558.0</ele>
        <time>2015-03-14T15:28:13Z</time>
      </trkpt>
      <trkpt lat="40.197233" lon="-5.043217">
        <ele>1561.0</ele>
        <time>2015-03-14T15:28:14Z</time>
      </trkpt>
      <trkpt lat="40.197200" lon="-5.043133">
        <ele>1564.0</ele>
        <time>2015-03-14T15:28:15Z</time>
      </trkpt>
      <trkpt lat="40.197167" lon="-5.043050">
        <ele>1566.0</ele>
        <time>2015-03-14T15:28:16Z</time>
      </trkpt>
      <trkpt lat="40.197167" lon="-5.042950">
        <ele>1566.0</ele>
        <time>2015-03-14T15:28:17Z</time>
      </trkpt>
      <trkpt lat="40.197167" lon="-5.042833">
        <ele>1566.0</ele>
        <time>2015-03-14T15:28:18Z</time>
      </trkpt>
      <trkpt lat="40.197167" lon="-5.042717">
        <ele>1567.0</ele>
        <time>2015-03-14T15:28:19Z</time>
      </trkpt>
      <trkpt lat="40.197200" lon="-5.042583">
        <ele>1568.0</ele>
        <time>2015-03-14T15:28:20Z</time>
      </trkpt>
      <trkpt lat="40.197250" lon="-5.042483">
        <ele>1569.0</ele>
        <time>2015-03-14T15:28:21Z</time>
      </trkpt>
      <trkpt lat="40.197317" lon="-5.042383">
        <ele>1570.0</ele>
        <time>2015-03-14T15:28:22Z</time>
      </trkpt>
      <trkpt lat="40.197400" lon="-5.042283">
        <ele>1570.0</ele>
        <time>2015-03-14T15:28:23Z</time>
      </trkpt>
      <trkpt lat="40.197500" lon="-5.042217">
        <ele>1570.0</ele>
        <time>2015-03-14T15:28:24Z</time>
      </trkpt>
      <trkpt lat="40.197600" lon="-5.042167">
        <ele>1570.0</ele>
        <time>2015-03-14T15:28:25Z</time>
      </trkpt>
      <trkpt lat="40.197700" lon="-5.042150">
        <ele>1570.0</ele>
        <time>2015-03-14T15:28:26Z</time>
      </trkpt>
      <trkpt lat="40.197817" lon="-5.042150">
        <ele>1570.0</ele>
        <time>2015-03-14T15:28:27Z</time>
      </trkpt>
      <trkpt lat="40.197950" lon="-5.042183">
        <ele>1571.0</ele>
        <time>2015-03-14T15:28:28Z</time>
      </trkpt>
      <trkpt lat="40.198050" lon="-5.042233">
        <ele>1572.0</ele>
        <time>2015-03-14T15:28:29Z</time>
      </trkpt>
      <trkpt lat="40.198150" lon="-5.042300">
        <ele>1574.0</ele>
        <time>2015-03-14T15:28:30Z</time>
      </trkpt>
      <trkpt lat="40.198233" lon="-5.042367">
        <ele>1575.0</ele>
        <time>2015-03-14T15:28:31Z</time>
      </trkpt>
      <trkpt lat="40.198300" lon="-5.042450">
        <ele>1577.0</ele>
        <time>2015-03-14T15:28:32Z</time>
      </trkpt>
      <trkpt lat="40.198367" lon="-5.042533">
        <ele>1577.0</ele>
        <time>2015-03-14T15:28:33Z</time>
      </trkpt>
      <trkpt lat="40.198417" lon="-5.042633">
        <ele>1578.0</ele>
        <time>2015-03-14T15:28:34Z</time>
      </trkpt>
      <trkpt lat="40.198450" lon="-5.042750">
        <ele>1579.0</ele>
        <time>2015-03-14T15:28:35Z</time>
      </trkpt>
      <trkpt lat="40.198467" lon="-5.042867">
        <ele>1580.0</ele>
        <time>2015-03-14T15:28:36Z</time>
      </trkpt>
      <trkpt lat="40.198483" lon="-5.042983">
        <ele>1581.0</ele>
        <time>2015-03-14T15:28:37Z</time>
      </trkpt>
      <trkpt lat="40.198467" lon="-5.043100">
        <ele>1582.0</ele>
        <time>2015-03-14T15:28:38Z</time>
      </trkpt>
      <trkpt lat="40.198450" lon="-5.043200">
        <ele>1582.0</ele>
        <time>2015-03-14T15:28:39Z</time>
      </trkpt>
      <trkpt lat="40.198433" lon="-5.043317">
        <ele>1584.0</ele>
        <time>2015-03-14T15:28:40Z</time>
      </trkpt>
      <trkpt lat="40.198417" lon="-5.043433">
        <ele>1586.0</ele>
        <time>2015-03-14T15:28:41Z</time>
      </trkpt>
      <trkpt lat="40.198367" lon="-5.043533">
        <ele>1589.0</ele>
        <time>2015-03-14T15:28:42Z</time>
      </trkpt>
      <trkpt lat="40.198317" lon="-5.043600">
        <ele>1592.0</ele>
        <time>2015-03-14T15:28:43Z</time>
      </trkpt>
      <trkpt lat="40.198267" lon="-5.043650">
        <ele>1594.0</ele>
        <time>2015-03-14T15:28:44Z</time>
      </trkpt>
      <trkpt lat="40.198183" lon="-5.043683">
        <ele>1596.0</ele>
        <time>2015-03-14T15:28:45Z</time>
      </trkpt>
      <trkpt lat="40.198117" lon="-5.043717">
        <ele>1598.0</ele>
        <time>2015-03-14T15:28:46Z</time>
      </trkpt>
      <trkpt lat="40.198050" lon="-5.043750">
        <ele>1599.0</ele>
        <time>2015-03-14T15:28:47Z</time>
      </trkpt>
      <trkpt lat="40.197967" lon="-5.043750">
        <ele>1601.0</ele>
        <time>2015-03-14T15:28:48Z</time>
      </trkpt>
      <trkpt lat="40.197883" lon="-5.043733">
        <ele>1602.0</ele>
        <time>2015-03-14T15:28:49Z</time>
      </trkpt>
      <trkpt lat="40.197800" lon="-5.043700">
        <ele>1603.0</ele>
        <time>2015-03-14T15:28:50Z</time>
      </trkpt>
      <trkpt lat="40.197717" lon="-5.043650">
        <ele>1605.0</ele>
        <time>2015-03-14T15:28:51Z</time>
      </trkpt>
      <trkpt lat="40.197650" lon="-5.043567">
        <ele>1607.0</ele>
        <time>2015-03-14T15:28:52Z</time>
      </trkpt>
      <trkpt lat="40.197600" lon="-5.043483">
        <ele>1609.0</ele>
        <time>2015-03-14T15:28:53Z</time>
      </trkpt>
      <trkpt lat="40.197567" lon="-5.043383">
        <ele>1612.0</ele>
        <time>2015-03-14T15:28:54Z</time>
      </trkpt>
      <trkpt lat="40.197533" lon="-5.043267">
        <ele>1613.0</ele>
        <time>2015-03-14T15:28:55Z</time>
      </trkpt>
      <trkpt lat="40.197533" lon="-5.043150">
        <ele>1614.0</ele>
        <time>2015-03-14T15:28:56Z</time>
      </trkpt>
      <trkpt lat="40.197550" lon="-5.043050">
        <ele>1615.0</ele>
        <time>2015-03-14T15:28:57Z</time>
      </trkpt>
      <trkpt lat="40.197583" lon="-5.042933">
        <ele>1615.0</ele>
        <time>2015-03-14T15:28:58Z</time>
      </trkpt>
      <trkpt lat="40.197633" lon="-5.042817">
        <ele>1615.0</ele>
        <time>2015-03-14T15:28:59Z</time>
      </trkpt>
      <trkpt lat="40.197683" lon="-5.042683">
        <ele>1615.0</ele>
        <time>2015-03-14T15:29:00Z</time>
      </trkpt>
      <trkpt lat="40.197767" lon="-5.042583">
        <ele>1615.0</ele>
        <time>2015-03-14T15:29:01Z</time>
      </trkpt>
      <trkpt lat="40.197850" lon="-5.042483">
        <ele>1616.0</ele>
        <time>2015-03-14T15:29:02Z</time>
      </trkpt>
      <trkpt lat="40.197950" lon="-5.042417">
        <ele>1616.0</ele>
        <time>2015-03-14T15:29:03Z</time>
      </trkpt>
      <trkpt lat="40.198050" lon="-5.042350">
        <ele>1616.0</ele>
        <time>2015-03-14T15:29:04Z</time>
      </trkpt>
      <trkpt lat="40.198150" lon="-5.042300">
        <ele>1617.0</ele>
        <time>2015-03-14T15:29:05Z</time>
      </trkpt>
      <trkpt lat="40.198250" lon="-5.042267">
        <ele>1619.0</ele>
        <time>2015-03-14T15:29:06Z</time>
      </trkpt>
      <trkpt lat="40.198367" lon="-5.042250">
        <ele>1620.0</ele>
        <time>2015-03-14T15:29:07Z</time>
      </trkpt>
      <trkpt lat="40.198467" lon="-5.042250">
        <ele>1620.0</ele>
        <time>2015-03-14T15:29:08Z</time>
      </trkpt>
      <trkpt lat="40.198567" lon="-5.042283">
        <ele>1621.0</ele>
        <time>2015-03-14T15:29:09Z</time>
      </trkpt>
      <trkpt lat="40.198667" lon="-5.042317">
        <ele>1622.0</ele>
        <time>2015-03-14T15:29:10Z</time>
      </trkpt>
      <trkpt lat="40.198750" lon="-5.042383">
        <ele>1623.0</ele>
        <time>2015-03-14T15:29:11Z</time>
      </trkpt>
      <trkpt lat="40.198833" lon="-5.042433">
        <ele>1624.0</ele>
        <time>2015-03-14T15:29:12Z</time>
      </trkpt>
      <trkpt lat="40.198900" lon="-5.042500">
        <ele>1625.0</ele>
        <time>2015-03-14T15:29:13Z</time>
      </trkpt>
      <trkpt lat="40.198967" lon="-5.042567">
        <ele>1626.0</ele>
        <time>2015-03-14T15:29:14Z</time>
      </trkpt>
      <trkpt lat="40.199017" lon="-5.042667">
        <ele>1626.0</ele>
        <time>2015-03-14T15:29:15Z</time>
      </trkpt>
      <trkpt lat="40.199067" lon="-5.042783">
        <ele>1626.0</ele>
        <time>2015-03-14T15:29:16Z</time>
      </trkpt>
      <trkpt lat="40.199100" lon="-5.042883">
        <ele>1627.0</ele>
        <time>2015-03-14T15:29:17Z</time>
      </trkpt>
      <trkpt lat="40.199100" lon="-5.043000">
        <ele>1628.0</ele>
        <time>2015-03-14T15:29:18Z</time>
      </trkpt>
      <trkpt lat="40.199117" lon="-5.043117">
        <ele>1629.0</ele>
        <time>2015-03-14T15:29:19Z</time>
      </trkpt>
      <trkpt lat="40.199100" lon="-5.043233">
        <ele>1631.0</ele>
        <time>2015-03-14T15:29:20Z</time>
      </trkpt>
      <trkpt lat="40.199100" lon="-5.043350">
        <ele>1632.0</ele>
        <time>2015-03-14T15:29:21Z</time>
      </trkpt>
      <trkpt lat="40.199050" lon="-5.043450">
        <ele>1634.0</ele>
        <time>2015-03-14T15:29:22Z</time>
      </trkpt>
      <trkpt lat="40.199000" lon="-5.043517">
        <ele>1636.0</ele>
        <time>2015-03-14T15:29:23Z</time>
      </trkpt>
      <trkpt lat="40.198933" lon="-5.043567">
        <ele>1637.0</ele>
        <time>2015-03-14T15:29:24Z</time>
      </trkpt>
      <trkpt lat="40.198867" lon="-5.043583">
        <ele>1639.0</ele>
        <time>2015-03-14T15:29:25Z</time>
      </trkpt>
      <trkpt lat="40.198800" lon="-5.043583">
        <ele>1640.0</ele>
        <time>2015-03-14T15:29:26Z</time>
      </trkpt>
      <trkpt lat="40.198733" lon="-5.043550">
        <ele>1641.0</ele>
        <time>2015-03-14T15:29:27Z</time>
      </trkpt>
      <trkpt lat="40.198683" lon="-5.043483">
        <ele>1641.0</ele>
        <time>2015-03-14T15:29:28Z</time>
      </trkpt>
      <trkpt lat="40.198667" lon="-5.043367">
        <ele>1641.0</ele>
        <time>2015-03-14T15:29:29Z</time>
      </trkpt>
      <trkpt lat="40.198667" lon="-5.043250">
        <ele>1640.0</ele>
        <time>2015-03-14T15:29:30Z</time>
      </trkpt>
      <trkpt lat="40.198683" lon="-5.043117">
        <ele>1640.0</ele>
        <time>2015-03-14T15:29:31Z</time>
      </trkpt>
      <trkpt lat="40.198733" lon="-5.043000">
        <ele>1641.0</ele>
        <time>2015-03-14T15:29:32Z</time>
      </trkpt>
      <trkpt lat="40.198783" lon="-5.042900">
        <ele>1641.0</ele>
        <time>2015-03-14T15:29:33Z</time>
      </trkpt>
      <trkpt lat="40.198867" lon="-5.042800">
        <ele>1641.0</ele>
        <time>2015-03-14T15:29:34Z</time>
      </trkpt>
      <trkpt lat="40.198950" lon="-5.042733">
        <ele>1641.0</ele>
        <time>2015-03-14T15:29:35Z</time>
      </trkpt>
      <trkpt lat="40.199067" lon="-5.042683">
        <ele>1640.0</ele>
        <time>2015-03-14T15:29:36Z</time>
      </trkpt>
      <trkpt lat="40.199183" lon="-5.042683">
        <ele>1640.0</ele>
        <time>2015-03-14T15:29:37Z</time>
      </trkpt>
      <trkpt lat="40.199300" lon="-5.042683">
        <ele>1642.0</ele>
        <time>2015-03-14T15:29:38Z</time>
      </trkpt>
      <trkpt lat="40.199400" lon="-5.042717">
        <ele>1644.0</ele>
        <time>2015-03-14T15:29:39Z</time>
      </trkpt>
      <trkpt lat="40.199500" lon="-5.042750">
        <ele>1646.0</ele>
        <time>2015-03-14T15:29:40Z</time>
      </trkpt>
      <trkpt lat="40.199583" lon="-5.042800">
        <ele>1647.0</ele>
        <time>2015-03-14T15:29:41Z</time>
      </trkpt>
      <trkpt lat="40.199667" lon="-5.042867">
        <ele>1647.0</ele>
        <time>2015-03-14T15:29:42Z</time>
      </trkpt>
      <trkpt lat="40.199733" lon="-5.042950">
        <ele>1647.0</ele>
        <time>2015-03-14T15:29:43Z</time>
      </trkpt>
      <trkpt lat="40.199800" lon="-5.043050">
        <ele>1647.0</ele>
        <time>2015-03-14T15:29:44Z</time>
      </trkpt>
      <trkpt lat="40.199850" lon="-5.043183">
        <ele>1648.0</ele>
        <time>2015-03-14T15:29:45Z</time>
      </trkpt>
      <trkpt lat="40.199867" lon="-5.043300">
        <ele>1649.0</ele>
        <time>2015-03-14T15:29:46Z</time>
      </trkpt>
      <trkpt lat="40.199867" lon="-5.043417">
        <ele>1651.0</ele>
        <time>2015-03-14T15:29:47Z</time>
      </trkpt>
      <trkpt lat="40.199850" lon="-5.043533">
        <ele>1653.0</ele>
        <time>2015-03-14T15:29:48Z</time>
      </trkpt>
      <trkpt lat="40.199833" lon="-5.043650">
        <ele>1655.0</ele>
        <time>2015-03-14T15:29:49Z</time>
      </trkpt>
      <trkpt lat="40.199800" lon="-5.043750">
        <ele>1657.0</ele>
        <time>2015-03-14T15:29:50Z</time>
      </trkpt>
      <trkpt lat="40.199767" lon="-5.043867">
        <ele>1659.0</ele>
        <time>2015-03-14T15:29:51Z</time>
      </trkpt>
      <trkpt lat="40.199733" lon="-5.043967">
        <ele>1661.0</ele>
        <time>2015-03-14T15:29:52Z</time>
      </trkpt>
      <trkpt lat="40.199683" lon="-5.044067">
        <ele>1663.0</ele>
        <time>2015-03-14T15:29:53Z</time>
      </trkpt>
      <trkpt lat="40.199633" lon="-5.044183">
        <ele>1665.0</ele>
        <time>2015-03-14T15:29:54Z</time>
      </trkpt>
      <trkpt lat="40.199600" lon="-5.044267">
        <ele>1668.0</ele>
        <time>2015-03-14T15:29:55Z</time>
      </trkpt>
      <trkpt lat="40.199550" lon="-5.044350">
        <ele>1669.0</ele>
        <time>2015-03-14T15:29:56Z</time>
      </trkpt>
      <trkpt lat="40.199483" lon="-5.044400">
        <ele>1671.0</ele>
        <time>2015-03-14T15:29:57Z</time>
      </trkpt>
      <trkpt lat="40.199400" lon="-5.044433">
        <ele>1672.0</ele>
        <time>2015-03-14T15:29:58Z</time>
      </trkpt>
      <trkpt lat="40.199317" lon="-5.044433">
        <ele>1673.0</ele>
        <time>2015-03-14T15:29:59Z</time>
      </trkpt>
      <trkpt lat="40.199217" lon="-5.044400">
        <ele>1675.0</ele>
        <time>2015-03-14T15:30:00Z</time>
      </trkpt>
      <trkpt lat="40.199150" lon="-5.044350">
        <ele>1677.0</ele>
        <time>2015-03-14T15:30:01Z</time>
      </trkpt>
      <trkpt lat="40.199083" lon="-5.044300">
        <ele>1679.0</ele>
        <time>2015-03-14T15:30:02Z</time>
      </trkpt>
      <trkpt lat="40.199050" lon="-5.044233">
        <ele>1681.0</ele>
        <time>2015-03-14T15:30:03Z</time>
      </trkpt>
      <trkpt lat="40.199033" lon="-5.044150">
        <ele>1681.0</ele>
        <time>2015-03-14T15:30:04Z</time>
      </trkpt>
      <trkpt lat="40.199017" lon="-5.044033">
        <ele>1681.0</ele>
        <time>2015-03-14T15:30:05Z</time>
      </trkpt>
      <trkpt lat="40.199017" lon="-5.043917">
        <ele>1681.0</ele>
        <time>2015-03-14T15:30:06Z</time>
      </trkpt>
      <trkpt lat="40.199050" lon="-5.043783">
        <ele>1682.0</ele>
        <time>2015-03-14T15:30:07Z</time>
      </trkpt>
      <trkpt lat="40.199100" lon="-5.043650">
        <ele>1683.0</ele>
        <time>2015-03-14T15:30:08Z</time>
      </trkpt>
      <trkpt lat="40.199167" lon="-5.043550">
        <ele>1684.0</ele>
        <time>2015-03-14T15:30:09Z</time>
      </trkpt>
      <trkpt lat="40.199267" lon="-5.043483">
        <ele>1684.0</ele>
        <time>2015-03-14T15:30:10Z</time>
      </trkpt>
      <trkpt lat="40.199367" lon="-5.043433">
        <ele>1685.0</ele>
        <time>2015-03-14T15:30:11Z</time>
      </trkpt>
      <trkpt lat="40.199483" lon="-5.043400">
        <ele>1685.0</ele>
        <time>2015-03-14T15:30:12Z</time>
      </trkpt>
      <trkpt lat="40.199600" lon="-5.043400">
        <ele>1685.0</ele>
        <time>2015-03-14T15:30:13Z</time>
      </trkpt>
      <trkpt lat="40.199717" lon="-5.043417">
        <ele>1686.0</ele>
        <time>2015-03-14T15:30:14Z</time>
      </trkpt>
      <trkpt lat="40.199800" lon="-5.043467">
        <ele>1685.0</ele>
        <time>2015-03-14T15:30:15Z</time>
      </trkpt>
      <trkpt lat="40.199900" lon="-5.043533">
        <ele>1685.0</ele>
        <time>2015-03-14T15:30:16Z</time>
      </trkpt>
      <trkpt lat="40.199983" lon="-5.043600">
        <ele>1684.0</ele>
        <time>2015-03-14T15:30:17Z</time>
      </trkpt>
      <trkpt lat="40.200067" lon="-5.043700">
        <ele>1684.0</ele>
        <time>2015-03-14T15:30:18Z</time>
      </trkpt>
      <trkpt lat="40.200150" lon="-5.043800">
        <ele>1684.0</ele>
        <time>2015-03-14T15:30:19Z</time>
      </trkpt>
      <trkpt lat="40.200217" lon="-5.043900">
        <ele>1686.0</ele>
        <time>2015-03-14T15:30:20Z</time>
      </trkpt>
      <trkpt lat="40.200267" lon="-5.044017">
        <ele>1688.0</ele>
        <time>2015-03-14T15:30:21Z</time>
      </trkpt>
      <trkpt lat="40.200317" lon="-5.044117">
        <ele>1690.0</ele>
        <time>2015-03-14T15:30:22Z</time>
      </trkpt>
      <trkpt lat="40.200350" lon="-5.044233">
        <ele>1691.0</ele>
        <time>2015-03-14T15:30:23Z</time>
      </trkpt>
      <trkpt lat="40.200367" lon="-5.044350">
        <ele>1692.0</ele>
        <time>2015-03-14T15:30:24Z</time>
      </trkpt>
      <trkpt lat="40.200367" lon="-5.044483">
        <ele>1692.0</ele>
        <time>2015-03-14T15:30:25Z</time>
      </trkpt>
      <trkpt lat="40.200350" lon="-5.044617">
        <ele>1693.0</ele>
        <time>2015-03-14T15:30:26Z</time>
      </trkpt>
      <trkpt lat="40.200300" lon="-5.044733">
        <ele>1694.0</ele>
        <time>2015-03-14T15:30:27Z</time>
      </trkpt>
      <trkpt lat="40.200250" lon="-5.044833">
        <ele>1695.0</ele>
        <time>2015-03-14T15:30:28Z</time>
      </trkpt>
      <trkpt lat="40.200200" lon="-5.044933">
        <ele>1697.0</ele>
        <time>2015-03-14T15:30:29Z</time>
      </trkpt>
      <trkpt lat="40.200133" lon="-5.045017">
        <ele>1698.0</ele>
        <time>2015-03-14T15:30:30Z</time>
      </trkpt>
      <trkpt lat="40.200050" lon="-5.045083">
        <ele>1698.0</ele>
        <time>2015-03-14T15:30:31Z</time>
      </trkpt>
      <trkpt lat="40.199967" lon="-5.045133">
        <ele>1699.0</ele>
        <time>2015-03-14T15:30:32Z</time>
      </trkpt>
      <trkpt lat="40.199900" lon="-5.045167">
        <ele>1701.0</ele>
        <time>2015-03-14T15:30:33Z</time>
      </trkpt>
      <trkpt lat="40.199817" lon="-5.045183">
        <ele>1702.0</ele>
        <time>2015-03-14T15:30:34Z</time>
      </trkpt>
      <trkpt lat="40.199750" lon="-5.045167">
        <ele>1702.0</ele>
        <time>2015-03-14T15:30:35Z</time>
      </trkpt>
      <trkpt lat="40.199683" lon="-5.045117">
        <ele>1702.0</ele>
        <time>2015-03-14T15:30:36Z</time>
      </trkpt>
      <trkpt lat="40.199633" lon="-5.045050">
        <ele>1700.0</ele>
        <time>2015-03-14T15:30:37Z</time>
      </trkpt>
      <trkpt lat="40.199567" lon="-5.044950">
        <ele>1699.0</ele>
        <time>2015-03-14T15:30:38Z</time>
      </trkpt>
      <trkpt lat="40.199533" lon="-5.044833">
        <ele>1699.0</ele>
        <time>2015-03-14T15:30:39Z</time>
      </trkpt>
      <trkpt lat="40.199500" lon="-5.044717">
        <ele>1700.0</ele>
        <time>2015-03-14T15:30:40Z</time>
      </trkpt>
      <trkpt lat="40.199483" lon="-5.044583">
        <ele>1700.0</ele>
        <time>2015-03-14T15:30:41Z</time>
      </trkpt>
      <trkpt lat="40.199500" lon="-5.044450">
        <ele>1699.0</ele>
        <time>2015-03-14T15:30:42Z</time>
      </trkpt>
      <trkpt lat="40.199533" lon="-5.044300">
        <ele>1699.0</ele>
        <time>2015-03-14T15:30:43Z</time>
      </trkpt>
      <trkpt lat="40.199583" lon="-5.044167">
        <ele>1700.0</ele>
        <time>2015-03-14T15:30:44Z</time>
      </trkpt>
      <trkpt lat="40.199650" lon="-5.044050">
        <ele>1702.0</ele>
        <time>2015-03-14T15:30:45Z</time>
      </trkpt>
      <trkpt lat="40.199717" lon="-5.043967">
        <ele>1705.0</ele>
        <time>2015-03-14T15:30:46Z</time>
      </trkpt>
      <trkpt lat="40.199800" lon="-5.043900">
        <ele>1708.0</ele>
        <time>2015-03-14T15:30:47Z</time>
      </trkpt>
      <trkpt lat="40.199867" lon="-5.043850">
        <ele>1709.0</ele>
        <time>2015-03-14T15:30:48Z</time>
      </trkpt>
      <trkpt lat="40.199950" lon="-5.043800">
        <ele>1710.0</ele>
        <time>2015-03-14T15:30:49Z</time>
      </trkpt>
      <trkpt lat="40.200033" lon="-5.043733">
        <ele>1710.0</ele>
        <time>2015-03-14T15:30:50Z</time>
      </trkpt>
      <trkpt lat="40.200117" lon="-5.043683">
        <ele>1711.0</ele>
        <time>2015-03-14T15:30:51Z</time>
      </trkpt>
      <trkpt lat="40.200217" lon="-5.043650">
        <ele>1712.0</ele>
        <time>2015-03-14T15:30:52Z</time>
      </trkpt>
      <trkpt lat="40.200317" lon="-5.043650">
        <ele>1712.0</ele>
        <time>2015-03-14T15:30:53Z</time>
      </trkpt>
      <trkpt lat="40.200417" lon="-5.043683">
        <ele>1712.0</ele>
        <time>2015-03-14T15:30:54Z</time>
      </trkpt>
      <trkpt lat="40.200517" lon="-5.043750">
        <ele>1713.0</ele>
        <time>2015-03-14T15:30:55Z</time>
      </trkpt>
      <trkpt lat="40.200600" lon="-5.043817">
        <ele>1715.0</ele>
        <time>2015-03-14T15:30:56Z</time>
      </trkpt>
      <trkpt lat="40.200667" lon="-5.043917">
        <ele>1716.0</ele>
        <time>2015-03-14T15:30:57Z</time>
      </trkpt>
      <trkpt lat="40.200700" lon="-5.044033">
        <ele>1717.0</ele>
        <time>2015-03-14T15:30:58Z</time>
      </trkpt>
      <trkpt lat="40.200717" lon="-5.044150">
        <ele>1718.0</ele>
        <time>2015-03-14T15:30:59Z</time>
      </trkpt>
      <trkpt lat="40.200717" lon="-5.044283">
        <ele>1719.0</ele>
        <time>2015-03-14T15:31:00Z</time>
      </trkpt>
      <trkpt lat="40.200683" lon="-5.044400">
        <ele>1720.0</ele>
        <time>2015-03-14T15:31:01Z</time>
      </trkpt>
      <trkpt lat="40.200650" lon="-5.044517">
        <ele>1722.0</ele>
        <time>2015-03-14T15:31:02Z</time>
      </trkpt>
      <trkpt lat="40.200583" lon="-5.044617">
        <ele>1723.0</ele>
        <time>2015-03-14T15:31:03Z</time>
      </trkpt>
      <trkpt lat="40.200517" lon="-5.044683">
        <ele>1724.0</ele>
        <time>2015-03-14T15:31:04Z</time>
      </trkpt>
      <trkpt lat="40.200450" lon="-5.044733">
        <ele>1724.0</ele>
        <time>2015-03-14T15:31:05Z</time>
      </trkpt>
      <trkpt lat="40.200367" lon="-5.044750">
        <ele>1724.0</ele>
        <time>2015-03-14T15:31:06Z</time>
      </trkpt>
      <trkpt lat="40.200283" lon="-5.044750">
        <ele>1724.0</ele>
        <time>2015-03-14T15:31:07Z</time>
      </trkpt>
      <trkpt lat="40.200200" lon="-5.044733">
        <ele>1724.0</ele>
        <time>2015-03-14T15:31:08Z</time>
      </trkpt>
      <trkpt lat="40.200117" lon="-5.044700">
        <ele>1724.0</ele>
        <time>2015-03-14T15:31:09Z</time>
      </trkpt>
      <trkpt lat="40.200050" lon="-5.044633">
        <ele>1725.0</ele>
        <time>2015-03-14T15:31:10Z</time>
      </trkpt>
      <trkpt lat="40.199983" lon="-5.044567">
        <ele>1725.0</ele>
        <time>2015-03-14T15:31:11Z</time>
      </trkpt>
      <trkpt lat="40.199950" lon="-5.044467">
        <ele>1725.0</ele>
        <time>2015-03-14T15:31:12Z</time>
      </trkpt>
      <trkpt lat="40.199900" lon="-5.044350">
        <ele>1725.0</ele>
        <time>2015-03-14T15:31:13Z</time>
      </trkpt>
      <trkpt lat="40.199850" lon="-5.044233">
        <ele>1726.0</ele>
        <time>2015-03-14T15:31:14Z</time>
      </trkpt>
      <trkpt lat="40.199800" lon="-5.044117">
        <ele>1728.0</ele>
        <time>2015-03-14T15:31:15Z</time>
      </trkpt>
      <trkpt lat="40.199767" lon="-5.044000">
        <ele>1731.0</ele>
        <time>2015-03-14T15:31:16Z</time>
      </trkpt>
      <trkpt lat="40.199733" lon="-5.043883">
        <ele>1732.0</ele>
        <time>2015-03-14T15:31:17Z</time>
      </trkpt>
      <trkpt lat="40.199717" lon="-5.043767">
        <ele>1733.0</ele>
        <time>2015-03-14T15:31:18Z</time>
      </trkpt>
      <trkpt lat="40.199700" lon="-5.043633">
        <ele>1733.0</ele>
        <time>2015-03-14T15:31:19Z</time>
      </trkpt>
      <trkpt lat="40.199717" lon="-5.043517">
        <ele>1733.0</ele>
        <time>2015-03-14T15:31:20Z</time>
      </trkpt>
      <trkpt lat="40.199733" lon="-5.043383">
        <ele>1733.0</ele>
        <time>2015-03-14T15:31:21Z</time>
      </trkpt>
      <trkpt lat="40.199767" lon="-5.043267">
        <ele>1732.0</ele>
        <time>2015-03-14T15:31:22Z</time>
      </trkpt>
      <trkpt lat="40.199833" lon="-5.043150">
        <ele>1732.0</ele>
        <time>2015-03-14T15:31:23Z</time>
      </trkpt>
      <trkpt lat="40.199883" lon="-5.043033">
        <ele>1732.0</ele>
        <time>2015-03-14T15:31:24Z</time>
      </trkpt>
      <trkpt lat="40.199967" lon="-5.042933">
        <ele>1732.0</ele>
        <time>2015-03-14T15:31:25Z</time>
      </trkpt>
      <trkpt lat="40.200050" lon="-5.042850">
        <ele>1732.0</ele>
        <time>2015-03-14T15:31:26Z</time>
      </trkpt>
      <trkpt lat="40.200150" lon="-5.042783">
        <ele>1733.0</ele>
        <time>2015-03-14T15:31:27Z</time>
      </trkpt>
      <trkpt lat="40.200267" lon="-5.042717">
        <ele>1735.0</ele>
        <time>2015-03-14T15:31:28Z</time>
      </trkpt>
      <trkpt lat="40.200350" lon="-5.042700">
        <ele>1737.0</ele>
        <time>2015-03-14T15:31:29Z</time>
      </trkpt>
      <trkpt lat="40.200433" lon="-5.042717">
        <ele>1738.0</ele>
        <time>2015-03-14T15:31:30Z</time>
      </trkpt>
      <trkpt lat="40.200500" lon="-5.042750">
        <ele>1739.0</ele>
        <time>2015-03-14T15:31:31Z</time>
      </trkpt>
      <trkpt lat="40.200567" lon="-5.042783">
        <ele>1738.0</ele>
        <time>2015-03-14T15:31:32Z</time>
      </trkpt>
      <trkpt lat="40.200633" lon="-5.042850">
        <ele>1736.0</ele>
        <time>2015-03-14T15:31:33Z</time>
      </trkpt>
      <trkpt lat="40.200700" lon="-5.042933">
        <ele>1735.0</ele>
        <time>2015-03-14T15:31:34Z</time>
      </trkpt>
      <trkpt lat="40.200767" lon="-5.043033">
        <ele>1734.0</ele>
        <time>2015-03-14T15:31:35Z</time>
      </trkpt>
      <trkpt lat="40.200817" lon="-5.043150">
        <ele>1734.0</ele>
        <time>2015-03-14T15:31:36Z</time>
      </trkpt>
      <trkpt lat="40.200833" lon="-5.043267">
        <ele>1733.0</ele>
        <time>2015-03-14T15:31:37Z</time>
      </trkpt>
      <trkpt lat="40.200833" lon="-5.043400">
        <ele>1733.0</ele>
        <time>2015-03-14T15:31:38Z</time>
      </trkpt>
      <trkpt lat="40.200800" lon="-5.043500">
        <ele>1733.0</ele>
        <time>2015-03-14T15:31:39Z</time>
      </trkpt>
      <trkpt lat="40.200767" lon="-5.043600">
        <ele>1734.0</ele>
        <time>2015-03-14T15:31:40Z</time>
      </trkpt>
      <trkpt lat="40.200717" lon="-5.043667">
        <ele>1735.0</ele>
        <time>2015-03-14T15:31:41Z</time>
      </trkpt>
      <trkpt lat="40.200650" lon="-5.043717">
        <ele>1736.0</ele>
        <time>2015-03-14T15:31:42Z</time>
      </trkpt>
      <trkpt lat="40.200567" lon="-5.043733">
        <ele>1736.0</ele>
        <time>2015-03-14T15:31:43Z</time>
      </trkpt>
      <trkpt lat="40.200467" lon="-5.043717">
        <ele>1737.0</ele>
        <time>2015-03-14T15:31:44Z</time>
      </trkpt>
      <trkpt lat="40.200383" lon="-5.043700">
        <ele>1740.0</ele>
        <time>2015-03-14T15:31:45Z</time>
      </trkpt>
      <trkpt lat="40.200317" lon="-5.043683">
        <ele>1742.0</ele>
        <time>2015-03-14T15:31:46Z</time>
      </trkpt>
      <trkpt lat="40.200250" lon="-5.043667">
        <ele>1744.0</ele>
        <time>2015-03-14T15:31:47Z</time>
      </trkpt>
      <trkpt lat="40.200167" lon="-5.043633">
        <ele>1745.0</ele>
        <time>2015-03-14T15:31:48Z</time>
      </trkpt>
      <trkpt lat="40.200100" lon="-5.043583">
        <ele>1747.0</ele>
        <time>2015-03-14T15:31:49Z</time>
      </trkpt>
      <trkpt lat="40.200033" lon="-5.043517">
        <ele>1747.0</ele>
        <time>2015-03-14T15:31:50Z</time>
      </trkpt>
      <trkpt lat="40.199983" lon="-5.043467">
        <ele>1748.0</ele>
        <time>2015-03-14T15:31:51Z</time>
      </trkpt>
      <trkpt lat="40.199917" lon="-5.043417">
        <ele>1748.0</ele>
        <time>2015-03-14T15:31:52Z</time>
      </trkpt>
      <trkpt lat="40.199867" lon="-5.043350">
        <ele>1747.0</ele>
        <time>2015-03-14T15:31:53Z</time>
      </trkpt>
      <trkpt lat="40.199817" lon="-5.043267">
        <ele>1746.0</ele>
        <time>2015-03-14T15:31:54Z</time>
      </trkpt>
      <trkpt lat="40.199767" lon="-5.043150">
        <ele>1746.0</ele>
        <time>2015-03-14T15:31:55Z</time>
      </trkpt>
      <trkpt lat="40.199750" lon="-5.043050">
        <ele>1747.0</ele>
        <time>2015-03-14T15:31:56Z</time>
      </trkpt>
      <trkpt lat="40.199733" lon="-5.042933">
        <ele>1747.0</ele>
        <time>2015-03-14T15:31:57Z</time>
      </trkpt>
      <trkpt lat="40.199733" lon="-5.042817">
        <ele>1747.0</ele>
        <time>2015-03-14T15:31:58Z</time>
      </trkpt>
      <trkpt lat="40.199750" lon="-5.042717">
        <ele>1745.0</ele>
        <time>2015-03-14T15:31:59Z</time>
      </trkpt>
      <trkpt lat="40.199783" lon="-5.042583">
        <ele>1743.0</ele>
        <time>2015-03-14T15:32:00Z</time>
      </trkpt>
      <trkpt lat="40.199817" lon="-5.042467">
        <ele>1740.0</ele>
        <time>2015-03-14T15:32:01Z</time>
      </trkpt>
      <trkpt lat="40.199867" lon="-5.042317">
        <ele>1738.0</ele>
        <time>2015-03-14T15:32:02Z</time>
      </trkpt>
      <trkpt lat="40.199933" lon="-5.042200">
        <ele>1736.0</ele>
        <time>2015-03-14T15:32:03Z</time>
      </trkpt>
      <trkpt lat="40.200017" lon="-5.042083">
        <ele>1735.0</ele>
        <time>2015-03-14T15:32:04Z</time>
      </trkpt>
      <trkpt lat="40.200133" lon="-5.042017">
        <ele>1733.0</ele>
        <time>2015-03-14T15:32:05Z</time>
      </trkpt>
      <trkpt lat="40.200250" lon="-5.041967">
        <ele>1733.0</ele>
        <time>2015-03-14T15:32:06Z</time>
      </trkpt>
      <trkpt lat="40.200350" lon="-5.041950">
        <ele>1733.0</ele>
        <time>2015-03-14T15:32:07Z</time>
      </trkpt>
      <trkpt lat="40.200467" lon="-5.041933">
        <ele>1734.0</ele>
        <time>2015-03-14T15:32:08Z</time>
      </trkpt>
      <trkpt lat="40.200567" lon="-5.041950">
        <ele>1735.0</ele>
        <time>2015-03-14T15:32:09Z</time>
      </trkpt>
      <trkpt lat="40.200667" lon="-5.041967">
        <ele>1737.0</ele>
        <time>2015-03-14T15:32:10Z</time>
      </trkpt>
      <trkpt lat="40.200750" lon="-5.041983">
        <ele>1737.0</ele>
        <time>2015-03-14T15:32:11Z</time>
      </trkpt>
      <trkpt lat="40.200833" lon="-5.042017">
        <ele>1737.0</ele>
        <time>2015-03-14T15:32:12Z</time>
      </trkpt>
      <trkpt lat="40.200917" lon="-5.042050">
        <ele>1736.0</ele>
        <time>2015-03-14T15:32:13Z</time>
      </trkpt>
      <trkpt lat="40.201017" lon="-5.042100">
        <ele>1737.0</ele>
        <time>2015-03-14T15:32:14Z</time>
      </trkpt>
      <trkpt lat="40.201083" lon="-5.042167">
        <ele>1737.0</ele>
        <time>2015-03-14T15:32:15Z</time>
      </trkpt>
      <trkpt lat="40.201150" lon="-5.042233">
        <ele>1737.0</ele>
        <time>2015-03-14T15:32:16Z</time>
      </trkpt>
      <trkpt lat="40.201200" lon="-5.042317">
        <ele>1737.0</ele>
        <time>2015-03-14T15:32:17Z</time>
      </trkpt>
      <trkpt lat="40.201250" lon="-5.042400">
        <ele>1736.0</ele>
        <time>2015-03-14T15:32:18Z</time>
      </trkpt>
      <trkpt lat="40.201300" lon="-5.042500">
        <ele>1736.0</ele>
        <time>2015-03-14T15:32:19Z</time>
      </trkpt>
      <trkpt lat="40.201350" lon="-5.042600">
        <ele>1735.0</ele>
        <time>2015-03-14T15:32:20Z</time>
      </trkpt>
      <trkpt lat="40.201367" lon="-5.042717">
        <ele>1735.0</ele>
        <time>2015-03-14T15:32:21Z</time>
      </trkpt>
      <trkpt lat="40.201383" lon="-5.042833">
        <ele>1735.0</ele>
        <time>2015-03-14T15:32:22Z</time>
      </trkpt>
      <trkpt lat="40.201383" lon="-5.042933">
        <ele>1735.0</ele>
        <time>2015-03-14T15:32:23Z</time>
      </trkpt>
      <trkpt lat="40.201367" lon="-5.043033">
        <ele>1735.0</ele>
        <time>2015-03-14T15:32:24Z</time>
      </trkpt>
      <trkpt lat="40.201350" lon="-5.043133">
        <ele>1735.0</ele>
        <time>2015-03-14T15:32:25Z</time>
      </trkpt>
      <trkpt lat="40.201317" lon="-5.043217">
        <ele>1733.0</ele>
        <time>2015-03-14T15:32:26Z</time>
      </trkpt>
      <trkpt lat="40.201283" lon="-5.043317">
        <ele>1732.0</ele>
        <time>2015-03-14T15:32:27Z</time>
      </trkpt>
      <trkpt lat="40.201250" lon="-5.043433">
        <ele>1730.0</ele>
        <time>2015-03-14T15:32:28Z</time>
      </trkpt>
      <trkpt lat="40.201217" lon="-5.043550">
        <ele>1729.0</ele>
        <time>2015-03-14T15:32:29Z</time>
      </trkpt>
      <trkpt lat="40.201167" lon="-5.043683">
        <ele>1728.0</ele>
        <time>2015-03-14T15:32:30Z</time>
      </trkpt>
      <trkpt lat="40.201133" lon="-5.043800">
        <ele>1729.0</ele>
        <time>2015-03-14T15:32:31Z</time>
      </trkpt>
      <trkpt lat="40.201083" lon="-5.043933">
        <ele>1730.0</ele>
        <time>2015-03-14T15:32:32Z</time>
      </trkpt>
      <trkpt lat="40.201050" lon="-5.044050">
        <ele>1732.0</ele>
        <time>2015-03-14T15:32:33Z</time>
      </trkpt>
      <trkpt lat="40.201017" lon="-5.044167">
        <ele>1734.0</ele>
        <time>2015-03-14T15:32:34Z</time>
      </trkpt>
      <trkpt lat="40.200983" lon="-5.044300">
        <ele>1734.0</ele>
        <time>2015-03-14T15:32:35Z</time>
      </trkpt>
      <trkpt lat="40.200950" lon="-5.044433">
        <ele>1734.0</ele>
        <time>2015-03-14T15:32:36Z</time>
      </trkpt>
      <trkpt lat="40.200917" lon="-5.044533">
        <ele>1734.0</ele>
        <time>2015-03-14T15:32:37Z</time>
      </trkpt>
      <trkpt lat="40.200850" lon="-5.044650">
        <ele>1734.0</ele>
        <time>2015-03-14T15:32:38Z</time>
      </trkpt>
      <trkpt lat="40.200800" lon="-5.044733">
        <ele>1734.0</ele>
        <time>2015-03-14T15:32:39Z</time>
      </trkpt>
      <trkpt lat="40.200717" lon="-5.044817">
        <ele>1733.0</ele>
        <time>2015-03-14T15:32:40Z</time>
      </trkpt>
      <trkpt lat="40.200650" lon="-5.044883">
        <ele>1733.0</ele>
        <time>2015-03-14T15:32:41Z</time>
      </trkpt>
      <trkpt lat="40.200550" lon="-5.044933">
        <ele>1733.0</ele>
        <time>2015-03-14T15:32:42Z</time>
      </trkpt>
      <trkpt lat="40.200467" lon="-5.044967">
        <ele>1733.0</ele>
        <time>2015-03-14T15:32:43Z</time>
      </trkpt>
      <trkpt lat="40.200367" lon="-5.044983">
        <ele>1734.0</ele>
        <time>2015-03-14T15:32:44Z</time>
      </trkpt>
      <trkpt lat="40.200283" lon="-5.045017">
        <ele>1735.0</ele>
        <time>2015-03-14T15:32:45Z</time>
      </trkpt>
      <trkpt lat="40.200200" lon="-5.045067">
        <ele>1736.0</ele>
        <time>2015-03-14T15:32:46Z</time>
      </trkpt>
      <trkpt lat="40.200117" lon="-5.045083">
        <ele>1738.0</ele>
        <time>2015-03-14T15:32:47Z</time>
      </trkpt>
      <trkpt lat="40.200033" lon="-5.045083">
        <ele>1738.0</ele>
        <time>2015-03-14T15:32:48Z</time>
      </trkpt>
      <trkpt lat="40.199933" lon="-5.045067">
        <ele>1739.0</ele>
        <time>2015-03-14T15:32:49Z</time>
      </trkpt>
      <trkpt lat="40.199850" lon="-5.045050">
        <ele>1740.0</ele>
        <time>2015-03-14T15:32:50Z</time>
      </trkpt>
      <trkpt lat="40.199750" lon="-5.045017">
        <ele>1742.0</ele>
        <time>2015-03-14T15:32:51Z</time>
      </trkpt>
      <trkpt lat="40.199683" lon="-5.044967">
        <ele>1743.0</ele>
        <time>2015-03-14T15:32:52Z</time>
      </trkpt>
      <trkpt lat="40.199600" lon="-5.044917">
        <ele>1745.0</ele>
        <time>2015-03-14T15:32:53Z</time>
      </trkpt>
      <trkpt lat="40.199533" lon="-5.044833">
        <ele>1747.0</ele>
        <time>2015-03-14T15:32:54Z</time>
      </trkpt>
      <trkpt lat="40.199467" lon="-5.044750">
        <ele>1749.0</ele>
        <time>2015-03-14T15:32:55Z</time>
      </trkpt>
      <trkpt lat="40.199433" lon="-5.044650">
        <ele>1751.0</ele>
        <time>2015-03-14T15:32:56Z</time>
      </trkpt>
      <trkpt lat="40.199400" lon="-5.044533">
        <ele>1753.0</ele>
        <time>2015-03-14T15:32:57Z</time>
      </trkpt>
      <trkpt lat="40.199383" lon="-5.044400">
        <ele>1755.0</ele>
        <time>2015-03-14T15:32:58Z</time>
      </trkpt>
      <trkpt lat="40.199383" lon="-5.044250">
        <ele>1757.0</ele>
        <time>2015-03-14T15:32:59Z</time>
      </trkpt>
      <trkpt lat="40.199383" lon="-5.044100">
        <ele>1760.0</ele>
        <time>2015-03-14T15:33:00Z</time>
      </trkpt>
      <trkpt lat="40.199400" lon="-5.043967">
        <ele>1764.0</ele>
        <time>2015-03-14T15:33:01Z</time>
      </trkpt>
      <trkpt lat="40.199433" lon="-5.043833">
        <ele>1768.0</ele>
        <time>2015-03-14T15:33:02Z</time>
      </trkpt>
      <trkpt lat="40.199483" lon="-5.043733">
        <ele>1771.0</ele>
        <time>2015-03-14T15:33:03Z</time>
      </trkpt>
      <trkpt lat="40.199533" lon="-5.043617">
        <ele>1773.0</ele>
        <time>2015-03-14T15:33:04Z</time>
      </trkpt>
      <trkpt lat="40.199617" lon="-5.043517">
        <ele>1775.0</ele>
        <time>2015-03-14T15:33:05Z</time>
      </trkpt>
      <trkpt lat="40.199700" lon="-5.043450">
        <ele>1777.0</ele>
        <time>2015-03-14T15:33:06Z</time>
      </trkpt>
      <trkpt lat="40.199800" lon="-5.043400">
        <ele>1779.0</ele>
        <time>2015-03-14T15:33:07Z</time>
      </trkpt>
      <trkpt lat="40.199917" lon="-5.043367">
        <ele>1781.0</ele>
        <time>2015-03-14T15:33:08Z</time>
      </trkpt>
      <trkpt lat="40.200017" lon="-5.043367">
        <ele>1785.0</ele>
        <time>2015-03-14T15:33:09Z</time>
      </trkpt>
      <trkpt lat="40.200100" lon="-5.043400">
        <ele>1788.0</ele>
        <time>2015-03-14T15:33:10Z</time>
      </trkpt>
      <trkpt lat="40.200183" lon="-5.043467">
        <ele>1791.0</ele>
        <time>2015-03-14T15:33:11Z</time>
      </trkpt>
      <trkpt lat="40.200250" lon="-5.043550">
        <ele>1794.0</ele>
        <time>2015-03-14T15:33:12Z</time>
      </trkpt>
      <trkpt lat="40.200283" lon="-5.043667">
        <ele>1796.0</ele>
        <time>2015-03-14T15:33:13Z</time>
      </trkpt>
      <trkpt lat="40.200300" lon="-5.043783">
        <ele>1797.0</ele>
        <time>2015-03-14T15:33:14Z</time>
      </trkpt>
      <trkpt lat="40.200300" lon="-5.043900">
        <ele>1798.0</ele>
        <time>2015-03-14T15:33:15Z</time>
      </trkpt>
      <trkpt lat="40.200267" lon="-5.044017">
        <ele>1800.0</ele>
        <time>2015-03-14T15:33:16Z</time>
      </trkpt>
      <trkpt lat="40.200200" lon="-5.044100">
        <ele>1803.0</ele>
        <time>2015-03-14T15:33:17Z</time>
      </trkpt>
      <trkpt lat="40.200133" lon="-5.044167">
        <ele>1805.0</ele>
        <time>2015-03-14T15:33:18Z</time>
      </trkpt>
      <trkpt lat="40.200067" lon="-5.044183">
        <ele>1808.0</ele>
        <time>2015-03-14T15:33:19Z</time>
      </trkpt>
      <trkpt lat="40.199983" lon="-5.044167">
        <ele>1809.0</ele>
        <time>2015-03-14T15:33:20Z</time>
      </trkpt>
      <trkpt lat="40.199900" lon="-5.044133">
        <ele>1810.0</ele>
        <time>2015-03-14T15:33:21Z</time>
      </trkpt>
      <trkpt lat="40.199800" lon="-5.044067">
        <ele>1812.0</ele>
        <time>2015-03-14T15:33:22Z</time>
      </trkpt>
      <trkpt lat="40.199717" lon="-5.043983">
        <ele>1815.0</ele>
        <time>2015-03-14T15:33:23Z</time>
      </trkpt>
      <trkpt lat="40.199667" lon="-5.043883">
        <ele>1819.0</ele>
        <time>2015-03-14T15:33:24Z</time>
      </trkpt>
      <trkpt lat="40.199633" lon="-5.043767">
        <ele>1822.0</ele>
        <time>2015-03-14T15:33:25Z</time>
      </trkpt>
      <trkpt lat="40.199617" lon="-5.043650">
        <ele>1825.0</ele>
        <time>2015-03-14T15:33:26Z</time>
      </trkpt>
      <trkpt lat="40.199617" lon="-5.043533">
        <ele>1827.0</ele>
        <time>2015-03-14T15:33:27Z</time>
      </trkpt>
      <trkpt lat="40.199633" lon="-5.043400">
        <ele>1830.0</ele>
        <time>2015-03-14T15:33:28Z</time>
      </trkpt>
      <trkpt lat="40.199683" lon="-5.043283">
        <ele>1832.0</ele>
        <time>2015-03-14T15:33:29Z</time>
      </trkpt>
      <trkpt lat="40.199733" lon="-5.043183">
        <ele>1833.0</ele>
        <time>2015-03-14T15:33:30Z</time>
      </trkpt>
      <trkpt lat="40.199817" lon="-5.043083">
        <ele>1834.0</ele>
        <time>2015-03-14T15:33:31Z</time>
      </trkpt>
      <trkpt lat="40.199917" lon="-5.043033">
        <ele>1835.0</ele>
        <time>2015-03-14T15:33:32Z</time>
      </trkpt>
      <trkpt lat="40.200017" lon="-5.043000">
        <ele>1837.0</ele>
        <time>2015-03-14T15:33:33Z</time>
      </trkpt>
      <trkpt lat="40.200133" lon="-5.043017">
        <ele>1839.0</ele>
        <time>2015-03-14T15:33:34Z</time>
      </trkpt>
      <trkpt lat="40.200233" lon="-5.043050">
        <ele>1842.0</ele>
        <time>2015-03-14T15:33:35Z</time>
      </trkpt>
      <trkpt lat="40.200333" lon="-5.043117">
        <ele>1845.0</ele>
        <time>2015-03-14T15:33:36Z</time>
      </trkpt>
      <trkpt lat="40.200400" lon="-5.043183">
        <ele>1850.0</ele>
        <time>2015-03-14T15:33:37Z</time>
      </trkpt>
      <trkpt lat="40.200450" lon="-5.043283">
        <ele>1852.0</ele>
        <time>2015-03-14T15:33:38Z</time>
      </trkpt>
      <trkpt lat="40.200467" lon="-5.043383">
        <ele>1855.0</ele>
        <time>2015-03-14T15:33:39Z</time>
      </trkpt>
      <trkpt lat="40.200467" lon="-5.043483">
        <ele>1857.0</ele>
        <time>2015-03-14T15:33:40Z</time>
      </trkpt>
      <trkpt lat="40.200450" lon="-5.043583">
        <ele>1860.0</ele>
        <time>2015-03-14T15:33:41Z</time>
      </trkpt>
      <trkpt lat="40.200417" lon="-5.043667">
        <ele>1863.0</ele>
        <time>2015-03-14T15:33:42Z</time>
      </trkpt>
      <trkpt lat="40.200350" lon="-5.043733">
        <ele>1865.0</ele>
        <time>2015-03-14T15:33:43Z</time>
      </trkpt>
      <trkpt lat="40.200283" lon="-5.043767">
        <ele>1866.0</ele>
        <time>2015-03-14T15:33:44Z</time>
      </trkpt>
      <trkpt lat="40.200200" lon="-5.043750">
        <ele>1867.0</ele>
        <time>2015-03-14T15:33:45Z</time>
      </trkpt>
      <trkpt lat="40.200100" lon="-5.043717">
        <ele>1869.0</ele>
        <time>2015-03-14T15:33:46Z</time>
      </trkpt>
      <trkpt lat="40.200017" lon="-5.043650">
        <ele>1871.0</ele>
        <time>2015-03-14T15:33:47Z</time>
      </trkpt>
      <trkpt lat="40.199933" lon="-5.043550">
        <ele>1874.0</ele>
        <time>2015-03-14T15:33:48Z</time>
      </trkpt>
      <trkpt lat="40.199900" lon="-5.043433">
        <ele>1877.0</ele>
        <time>2015-03-14T15:33:49Z</time>
      </trkpt>
      <trkpt lat="40.199867" lon="-5.043317">
        <ele>1880.0</ele>
        <time>2015-03-14T15:33:50Z</time>
      </trkpt>
      <trkpt lat="40.199867" lon="-5.043183">
        <ele>1882.0</ele>
        <time>2015-03-14T15:33:51Z</time>
      </trkpt>
      <trkpt lat="40.199883" lon="-5.043050">
        <ele>1883.0</ele>
        <time>2015-03-14T15:33:52Z</time>
      </trkpt>
      <trkpt lat="40.199917" lon="-5.042917">
        <ele>1885.0</ele>
        <time>2015-03-14T15:33:53Z</time>
      </trkpt>
      <trkpt lat="40.199983" lon="-5.042817">
        <ele>1886.0</ele>
        <time>2015-03-14T15:33:54Z</time>
      </trkpt>
      <trkpt lat="40.200067" lon="-5.042733">
        <ele>1887.0</ele>
        <time>2015-03-14T15:33:55Z</time>
      </trkpt>
      <trkpt lat="40.200167" lon="-5.042683">
        <ele>1888.0</ele>
        <time>2015-03-14T15:33:56Z</time>
      </trkpt>
      <trkpt lat="40.200267" lon="-5.042667">
        <ele>1890.0</ele>
        <time>2015-03-14T15:33:57Z</time>
      </trkpt>
      <trkpt lat="40.200367" lon="-5.042683">
        <ele>1893.0</ele>
        <time>2015-03-14T15:33:58Z</time>
      </trkpt>
      <trkpt lat="40.200467" lon="-5.042717">
        <ele>1895.0</ele>
        <time>2015-03-14T15:33:59Z</time>
      </trkpt>
      <trkpt lat="40.200567" lon="-5.042750">
        <ele>1899.0</ele>
        <time>2015-03-14T15:34:00Z</time>
      </trkpt>
      <trkpt lat="40.200650" lon="-5.042800">
        <ele>1902.0</ele>
        <time>2015-03-14T15:34:01Z</time>
      </trkpt>
      <trkpt lat="40.200733" lon="-5.042867">
        <ele>1904.0</ele>
        <time>2015-03-14T15:34:02Z</time>
      </trkpt>
      <trkpt lat="40.200783" lon="-5.042950">
        <ele>1907.0</ele>
        <time>2015-03-14T15:34:03Z</time>
      </trkpt>
      <trkpt lat="40.200833" lon="-5.043050">
        <ele>1910.0</ele>
        <time>2015-03-14T15:34:04Z</time>
      </trkpt>
      <trkpt lat="40.200833" lon="-5.043150">
        <ele>1913.0</ele>
        <time>2015-03-14T15:34:05Z</time>
      </trkpt>
      <trkpt lat="40.200833" lon="-5.043250">
        <ele>1916.0</ele>
        <time>2015-03-14T15:34:06Z</time>
      </trkpt>
      <trkpt lat="40.200817" lon="-5.043317">
        <ele>1919.0</ele>
        <time>2015-03-14T15:34:07Z</time>
      </trkpt>
      <trkpt lat="40.200783" lon="-5.043400">
        <ele>1920.0</ele>
        <time>2015-03-14T15:34:08Z</time>
      </trkpt>
      <trkpt lat="40.200733" lon="-5.043467">
        <ele>1921.0</ele>
        <time>2015-03-14T15:34:09Z</time>
      </trkpt>
      <trkpt lat="40.200683" lon="-5.043550">
        <ele>1921.0</ele>
        <time>2015-03-14T15:34:10Z</time>
      </trkpt>
      <trkpt lat="40.200600" lon="-5.043600">
        <ele>1922.0</ele>
        <time>2015-03-14T15:34:11Z</time>
      </trkpt>
      <trkpt lat="40.200500" lon="-5.043617">
        <ele>1922.0</ele>
        <time>2015-03-14T15:34:12Z</time>
      </trkpt>
      <trkpt lat="40.200417" lon="-5.043567">
        <ele>1923.0</ele>
        <time>2015-03-14T15:34:13Z</time>
      </trkpt>
      <trkpt lat="40.200317" lon="-5.043500">
        <ele>1925.0</ele>
        <time>2015-03-14T15:34:14Z</time>
      </trkpt>
      <trkpt lat="40.200233" lon="-5.043400">
        <ele>1927.0</ele>
        <time>2015-03-14T15:34:15Z</time>
      </trkpt>
      <trkpt lat="40.200167" lon="-5.043300">
        <ele>1929.0</ele>
        <time>2015-03-14T15:34:16Z</time>
      </trkpt>
      <trkpt lat="40.200117" lon="-5.043183">
        <ele>1933.0</ele>
        <time>2015-03-14T15:34:17Z</time>
      </trkpt>
      <trkpt lat="40.200083" lon="-5.043083">
        <ele>1936.0</ele>
        <time>2015-03-14T15:34:18Z</time>
      </trkpt>
      <trkpt lat="40.200050" lon="-5.042950">
        <ele>1937.0</ele>
        <time>2015-03-14T15:34:19Z</time>
      </trkpt>
      <trkpt lat="40.200050" lon="-5.042833">
        <ele>1938.0</ele>
        <time>2015-03-14T15:34:20Z</time>
      </trkpt>
      <trkpt lat="40.200083" lon="-5.042700">
        <ele>1939.0</ele>
        <time>2015-03-14T15:34:21Z</time>
      </trkpt>
      <trkpt lat="40.200150" lon="-5.042583">
        <ele>1939.0</ele>
        <time>2015-03-14T15:34:22Z</time>
      </trkpt>
      <trkpt lat="40.200233" lon="-5.042500">
        <ele>1939.0</ele>
        <time>2015-03-14T15:34:23Z</time>
      </trkpt>
      <trkpt lat="40.200333" lon="-5.042450">
        <ele>1940.0</ele>
        <time>2015-03-14T15:34:24Z</time>
      </trkpt>
      <trkpt lat="40.200433" lon="-5.042417">
        <ele>1942.0</ele>
        <time>2015-03-14T15:34:25Z</time>
      </trkpt>
      <trkpt lat="40.200533" lon="-5.042417">
        <ele>1944.0</ele>
        <time>2015-03-14T15:34:26Z</time>
      </trkpt>
      <trkpt lat="40.200617" lon="-5.042433">
        <ele>1946.0</ele>
        <time>2015-03-14T15:34:27Z</time>
      </trkpt>
      <trkpt lat="40.200700" lon="-5.042467">
        <ele>1947.0</ele>
        <time>2015-03-14T15:34:28Z</time>
      </trkpt>
      <trkpt lat="40.200767" lon="-5.042533">
        <ele>1949.0</ele>
        <time>2015-03-14T15:34:29Z</time>
      </trkpt>
      <trkpt lat="40.200800" lon="-5.042633">
        <ele>1951.0</ele>
        <time>2015-03-14T15:34:30Z</time>
      </trkpt>
      <trkpt lat="40.200833" lon="-5.042733">
        <ele>1952.0</ele>
        <time>2015-03-14T15:34:31Z</time>
      </trkpt>
      <trkpt lat="40.200833" lon="-5.042850">
        <ele>1953.0</ele>
        <time>2015-03-14T15:34:32Z</time>
      </trkpt>
      <trkpt lat="40.200817" lon="-5.042950">
        <ele>1956.0</ele>
        <time>2015-03-14T15:34:33Z</time>
      </trkpt>
      <trkpt lat="40.200800" lon="-5.043033">
        <ele>1958.0</ele>
        <time>2015-03-14T15:34:34Z</time>
      </trkpt>
      <trkpt lat="40.200750" lon="-5.043117">
        <ele>1959.0</ele>
        <time>2015-03-14T15:34:35Z</time>
      </trkpt>
      <trkpt lat="40.200683" lon="-5.043183">
        <ele>1961.0</ele>
        <time>2015-03-14T15:34:36Z</time>
      </trkpt>
      <trkpt lat="40.200600" lon="-5.043233">
        <ele>1962.0</ele>
        <time>2015-03-14T15:34:37Z</time>
      </trkpt>
      <trkpt lat="40.200517" lon="-5.043250">
        <ele>1962.0</ele>
        <time>2015-03-14T15:34:38Z</time>
      </trkpt>
      <trkpt lat="40.200417" lon="-5.043250">
        <ele>1963.0</ele>
        <time>2015-03-14T15:34:39Z</time>
      </trkpt>
      <trkpt lat="40.200333" lon="-5.043233">
        <ele>1964.0</ele>
        <time>2015-03-14T15:34:40Z</time>
      </trkpt>
      <trkpt lat="40.200250" lon="-5.043200">
        <ele>1966.0</ele>
        <time>2015-03-14T15:34:41Z</time>
      </trkpt>
      <trkpt lat="40.200167" lon="-5.043150">
        <ele>1968.0</ele>
        <time>2015-03-14T15:34:42Z</time>
      </trkpt>
      <trkpt lat="40.200100" lon="-5.043083">
        <ele>1969.0</ele>
        <time>2015-03-14T15:34:43Z</time>
      </trkpt>
      <trkpt lat="40.200050" lon="-5.043000">
        <ele>1969.0</ele>
        <time>2015-03-14T15:34:44Z</time>
      </trkpt>
      <trkpt lat="40.200000" lon="-5.042883">
        <ele>1969.0</ele>
        <time>2015-03-14T15:34:45Z</time>
      </trkpt>
      <trkpt lat="40.199967" lon="-5.042750">
        <ele>1970.0</ele>
        <time>2015-03-14T15:34:46Z</time>
      </trkpt>
      <trkpt lat="40.199967" lon="-5.042600">
        <ele>1971.0</ele>
        <time>2015-03-14T15:34:47Z</time>
      </trkpt>
      <trkpt lat="40.199983" lon="-5.042483">
        <ele>1972.0</ele>
        <time>2015-03-14T15:34:48Z</time>
      </trkpt>
      <trkpt lat="40.200033" lon="-5.042367">
        <ele>1973.0</ele>
        <time>2015-03-14T15:34:49Z</time>
      </trkpt>
      <trkpt lat="40.200100" lon="-5.042267">
        <ele>1973.0</ele>
        <time>2015-03-14T15:34:50Z</time>
      </trkpt>
      <trkpt lat="40.200183" lon="-5.042183">
        <ele>1973.0</ele>
        <time>2015-03-14T15:34:51Z</time>
      </trkpt>
      <trkpt lat="40.200267" lon="-5.042117">
        <ele>1973.0</ele>
        <time>2015-03-14T15:34:52Z</time>
      </trkpt>
      <trkpt lat="40.200367" lon="-5.042083">
        <ele>1973.0</ele>
        <time>2015-03-14T15:34:53Z</time>
      </trkpt>
      <trkpt lat="40.200450" lon="-5.042067">
        <ele>1973.0</ele>
        <time>2015-03-14T15:34:54Z</time>
      </trkpt>
      <trkpt lat="40.200550" lon="-5.042083">
        <ele>1972.0</ele>
        <time>2015-03-14T15:34:55Z</time>
      </trkpt>
      <trkpt lat="40.200650" lon="-5.042100">
        <ele>1971.0</ele>
        <time>2015-03-14T15:34:56Z</time>
      </trkpt>
      <trkpt lat="40.200750" lon="-5.042150">
        <ele>1972.0</ele>
        <time>2015-03-14T15:34:57Z</time>
      </trkpt>
      <trkpt lat="40.200833" lon="-5.042167">
        <ele>1973.0</ele>
        <time>2015-03-14T15:34:58Z</time>
      </trkpt>
      <trkpt lat="40.200917" lon="-5.042200">
        <ele>1975.0</ele>
        <time>2015-03-14T15:34:59Z</time>
      </trkpt>
      <trkpt lat="40.200967" lon="-5.042250">
        <ele>1976.0</ele>
        <time>2015-03-14T15:35:00Z</time>
      </trkpt>
      <trkpt lat="40.201017" lon="-5.042317">
        <ele>1977.0</ele>
        <time>2015-03-14T15:35:01Z</time>
      </trkpt>
      <trkpt lat="40.201083" lon="-5.042383">
        <ele>1976.0</ele>
        <time>2015-03-14T15:35:02Z</time>
      </trkpt>
      <trkpt lat="40.201117" lon="-5.042467">
        <ele>1976.0</ele>
        <time>2015-03-14T15:35:03Z</time>
      </trkpt>
      <trkpt lat="40.201150" lon="-5.042567">
        <ele>1976.0</ele>
        <time>2015-03-14T15:35:04Z</time>
      </trkpt>
      <trkpt lat="40.201183" lon="-5.042667">
        <ele>1977.0</ele>
        <time>2015-03-14T15:35:05Z</time>
      </trkpt>
      <trkpt lat="40.201200" lon="-5.042767">
        <ele>1978.0</ele>
        <time>2015-03-14T15:35:06Z</time>
      </trkpt>
      <trkpt lat="40.201200" lon="-5.042883">
        <ele>1979.0</ele>
        <time>2015-03-14T15:35:07Z</time>
      </trkpt>
      <trkpt lat="40.201183" lon="-5.042983">
        <ele>1980.0</ele>
        <time>2015-03-14T15:35:08Z</time>
      </trkpt>
      <trkpt lat="40.201167" lon="-5.043083">
        <ele>1981.0</ele>
        <time>2015-03-14T15:35:09Z</time>
      </trkpt>
      <trkpt lat="40.201117" lon="-5.043167">
        <ele>1982.0</ele>
        <time>2015-03-14T15:35:10Z</time>
      </trkpt>
      <trkpt lat="40.201067" lon="-5.043250">
        <ele>1983.0</ele>
        <time>2015-03-14T15:35:11Z</time>
      </trkpt>
      <trkpt lat="40.201000" lon="-5.043317">
        <ele>1983.0</ele>
        <time>2015-03-14T15:35:12Z</time>
      </trkpt>
      <trkpt lat="40.200933" lon="-5.043367">
        <ele>1984.0</ele>
        <time>2015-03-14T15:35:13Z</time>
      </trkpt>
      <trkpt lat="40.200850" lon="-5.043400">
        <ele>1986.0</ele>
        <time>2015-03-14T15:35:14Z</time>
      </trkpt>
      <trkpt lat="40.200783" lon="-5.043417">
        <ele>1988.0</ele>
        <time>2015-03-14T15:35:15Z</time>
      </trkpt>
      <trkpt lat="40.200700" lon="-5.043417">
        <ele>1989.0</ele>
        <time>2015-03-14T15:35:16Z</time>
      </trkpt>
      <trkpt lat="40.200617" lon="-5.043400">
        <ele>1991.0</ele>
        <time>2015-03-14T15:35:17Z</time>
      </trkpt>
      <trkpt lat="40.200550" lon="-5.043367">
        <ele>1992.0</ele>
        <time>2015-03-14T15:35:18Z</time>
      </trkpt>
      <trkpt lat="40.200467" lon="-5.043333">
        <ele>1994.0</ele>
        <time>2015-03-14T15:35:19Z</time>
      </trkpt>
      <trkpt lat="40.200417" lon="-5.043300">
        <ele>1996.0</ele>
        <time>2015-03-14T15:35:20Z</time>
      </trkpt>
      <trkpt lat="40.200367" lon="-5.043217">
        <ele>1996.0</ele>
        <time>2015-03-14T15:35:21Z</time>
      </trkpt>
      <trkpt lat="40.200333" lon="-5.043117">
        <ele>1995.0</ele>
        <time>2015-03-14T15:35:22Z</time>
      </trkpt>
      <trkpt lat="40.200300" lon="-5.042983">
        <ele>1994.0</ele>
        <time>2015-03-14T15:35:23Z</time>
      </trkpt>
      <trkpt lat="40.200300" lon="-5.042850">
        <ele>1995.0</ele>
        <time>2015-03-14T15:35:24Z</time>
      </trkpt>
      <trkpt lat="40.200317" lon="-5.042717">
        <ele>1996.0</ele>
        <time>2015-03-14T15:35:25Z</time>
      </trkpt>
      <trkpt lat="40.200367" lon="-5.042600">
        <ele>1996.0</ele>
        <time>2015-03-14T15:35:26Z</time>
      </trkpt>
      <trkpt lat="40.200433" lon="-5.042500">
        <ele>1996.0</ele>
        <time>2015-03-14T15:35:27Z</time>
      </trkpt>
      <trkpt lat="40.200517" lon="-5.042417">
        <ele>1996.0</ele>
        <time>2015-03-14T15:35:28Z</time>
      </trkpt>
      <trkpt lat="40.200600" lon="-5.042350">
        <ele>1997.0</ele>
        <time>2015-03-14T15:35:29Z</time>
      </trkpt>
      <trkpt lat="40.200700" lon="-5.042300">
        <ele>1997.0</ele>
        <time>2015-03-14T15:35:30Z</time>
      </trkpt>
      <trkpt lat="40.200800" lon="-5.042283">
        <ele>1997.0</ele>
        <time>2015-03-14T15:35:31Z</time>
      </trkpt>
      <trkpt lat="40.200917" lon="-5.042267">
        <ele>1998.0</ele>
        <time>2015-03-14T15:35:32Z</time>
      </trkpt>
      <trkpt lat="40.201017" lon="-5.042283">
        <ele>1998.0</ele>
        <time>2015-03-14T15:35:33Z</time>
      </trkpt>
      <trkpt lat="40.201117" lon="-5.042317">
        <ele>1997.0</ele>
        <time>2015-03-14T15:35:34Z</time>
      </trkpt>
      <trkpt lat="40.201217" lon="-5.042367">
        <ele>1997.0</ele>
        <time>2015-03-14T15:35:35Z</time>
      </trkpt>
      <trkpt lat="40.201300" lon="-5.042450">
        <ele>1998.0</ele>
        <time>2015-03-14T15:35:36Z</time>
      </trkpt>
      <trkpt lat="40.201383" lon="-5.042550">
        <ele>1999.0</ele>
        <time>2015-03-14T15:35:37Z</time>
      </trkpt>
      <trkpt lat="40.201467" lon="-5.042650">
        <ele>2001.0</ele>
        <time>2015-03-14T15:35:38Z</time>
      </trkpt>
      <trkpt lat="40.201550" lon="-5.042750">
        <ele>2003.0</ele>
        <time>2015-03-14T15:35:39Z</time>
      </trkpt>
      <trkpt lat="40.201600" lon="-5.042833">
        <ele>2005.0</ele>
        <time>2015-03-14T15:35:40Z</time>
      </trkpt>
      <trkpt lat="40.201667" lon="-5.042917">
        <ele>2008.0</ele>
        <time>2015-03-14T15:35:41Z</time>
      </trkpt>
      <trkpt lat="40.201700" lon="-5.043017">
        <ele>2008.0</ele>
        <time>2015-03-14T15:35:42Z</time>
      </trkpt>
      <trkpt lat="40.201717" lon="-5.043117">
        <ele>2008.0</ele>
        <time>2015-03-14T15:35:43Z</time>
      </trkpt>
      <trkpt lat="40.201717" lon="-5.043233">
        <ele>2007.0</ele>
        <time>2015-03-14T15:35:44Z</time>
      </trkpt>
      <trkpt lat="40.201700" lon="-5.043350">
        <ele>2006.0</ele>
        <time>2015-03-14T15:35:45Z</time>
      </trkpt>
      <trkpt lat="40.201667" lon="-5.043450">
        <ele>2005.0</ele>
        <time>2015-03-14T15:35:46Z</time>
      </trkpt>
      <trkpt lat="40.201617" lon="-5.043567">
        <ele>2006.0</ele>
        <time>2015-03-14T15:35:47Z</time>
      </trkpt>
      <trkpt lat="40.201550" lon="-5.043650">
        <ele>2007.0</ele>
        <time>2015-03-14T15:35:48Z</time>
      </trkpt>
      <trkpt lat="40.201467" lon="-5.043700">
        <ele>2009.0</ele>
        <time>2015-03-14T15:35:49Z</time>
      </trkpt>
      <trkpt lat="40.201383" lon="-5.043750">
        <ele>2011.0</ele>
        <time>2015-03-14T15:35:50Z</time>
      </trkpt>
      <trkpt lat="40.201300" lon="-5.043767">
        <ele>2013.0</ele>
        <time>2015-03-14T15:35:51Z</time>
      </trkpt>
      <trkpt lat="40.201233" lon="-5.043800">
        <ele>2015.0</ele>
        <time>2015-03-14T15:35:52Z</time>
      </trkpt>
      <trkpt lat="40.201150" lon="-5.043800">
        <ele>2016.0</ele>
        <time>2015-03-14T15:35:53Z</time>
      </trkpt>
      <trkpt lat="40.201100" lon="-5.043767">
        <ele>2016.0</ele>
        <time>2015-03-14T15:35:54Z</time>
      </trkpt>
      <trkpt lat="40.201033" lon="-5.043700">
        <ele>2014.0</ele>
        <time>2015-03-14T15:35:55Z</time>
      </trkpt>
      <trkpt lat="40.200967" lon="-5.043600">
        <ele>2013.0</ele>
        <time>2015-03-14T15:35:56Z</time>
      </trkpt>
      <trkpt lat="40.200933" lon="-5.043483">
        <ele>2013.0</ele>
        <time>2015-03-14T15:35:57Z</time>
      </trkpt>
      <trkpt lat="40.200933" lon="-5.043367">
        <ele>2013.0</ele>
        <time>2015-03-14T15:35:58Z</time>
      </trkpt>
      <trkpt lat="40.200967" lon="-5.043233">
        <ele>2013.0</ele>
        <time>2015-03-14T15:35:59Z</time>
      </trkpt>
      <trkpt lat="40.201033" lon="-5.043117">
        <ele>2013.0</ele>
        <time>2015-03-14T15:36:00Z</time>
      </trkpt>
      <trkpt lat="40.201150" lon="-5.043033">
        <ele>2014.0</ele>
        <time>2015-03-14T15:36:01Z</time>
      </trkpt>
      <trkpt lat="40.201250" lon="-5.042967">
        <ele>2017.0</ele>
        <time>2015-03-14T15:36:02Z</time>
      </trkpt>
      <trkpt lat="40.201333" lon="-5.042900">
        <ele>2021.0</ele>
        <time>2015-03-14T15:36:03Z</time>
      </trkpt>
      <trkpt lat="40.201417" lon="-5.042833">
        <ele>2023.0</ele>
        <time>2015-03-14T15:36:04Z</time>
      </trkpt>
      <trkpt lat="40.201483" lon="-5.042783">
        <ele>2024.0</ele>
        <time>2015-03-14T15:36:05Z</time>
      </trkpt>
      <trkpt lat="40.201567" lon="-5.042733">
        <ele>2025.0</ele>
        <time>2015-03-14T15:36:06Z</time>
      </trkpt>
      <trkpt lat="40.201650" lon="-5.042683">
        <ele>2024.0</ele>
        <time>2015-03-14T15:36:07Z</time>
      </trkpt>
      <trkpt lat="40.201767" lon="-5.042650">
        <ele>2023.0</ele>
        <time>2015-03-14T15:36:08Z</time>
      </trkpt>
      <trkpt lat="40.201883" lon="-5.042633">
        <ele>2023.0</ele>
        <time>2015-03-14T15:36:09Z</time>
      </trkpt>
      <trkpt lat="40.202000" lon="-5.042633">
        <ele>2024.0</ele>
        <time>2015-03-14T15:36:10Z</time>
      </trkpt>
      <trkpt lat="40.202117" lon="-5.042633">
        <ele>2026.0</ele>
        <time>2015-03-14T15:36:11Z</time>
      </trkpt>
      <trkpt lat="40.202200" lon="-5.042650">
        <ele>2027.0</ele>
        <time>2015-03-14T15:36:12Z</time>
      </trkpt>
      <trkpt lat="40.202300" lon="-5.042683">
        <ele>2027.0</ele>
        <time>2015-03-14T15:36:13Z</time>
      </trkpt>
      <trkpt lat="40.202367" lon="-5.042750">
        <ele>2027.0</ele>
        <time>2015-03-14T15:36:14Z</time>
      </trkpt>
      <trkpt lat="40.202450" lon="-5.042833">
        <ele>2026.0</ele>
        <time>2015-03-14T15:36:15Z</time>
      </trkpt>
      <trkpt lat="40.202533" lon="-5.042917">
        <ele>2026.0</ele>
        <time>2015-03-14T15:36:16Z</time>
      </trkpt>
      <trkpt lat="40.202617" lon="-5.043000">
        <ele>2026.0</ele>
        <time>2015-03-14T15:36:17Z</time>
      </trkpt>
      <trkpt lat="40.202683" lon="-5.043083">
        <ele>2026.0</ele>
        <time>2015-03-14T15:36:18Z</time>
      </trkpt>
      <trkpt lat="40.202733" lon="-5.043167">
        <ele>2027.0</ele>
        <time>2015-03-14T15:36:19Z</time>
      </trkpt>
      <trkpt lat="40.202783" lon="-5.043283">
        <ele>2026.0</ele>
        <time>2015-03-14T15:36:20Z</time>
      </trkpt>
      <trkpt lat="40.202800" lon="-5.043400">
        <ele>2024.0</ele>
        <time>2015-03-14T15:36:21Z</time>
      </trkpt>
      <trkpt lat="40.202833" lon="-5.043500">
        <ele>2023.0</ele>
        <time>2015-03-14T15:36:22Z</time>
      </trkpt>
      <trkpt lat="40.202867" lon="-5.043617">
        <ele>2020.0</ele>
        <time>2015-03-14T15:36:23Z</time>
      </trkpt>
      <trkpt lat="40.202900" lon="-5.043733">
        <ele>2018.0</ele>
        <time>2015-03-14T15:36:24Z</time>
      </trkpt>
      <trkpt lat="40.202900" lon="-5.043850">
        <ele>2014.0</ele>
        <time>2015-03-14T15:36:25Z</time>
      </trkpt>
      <trkpt lat="40.202883" lon="-5.043983">
        <ele>2011.0</ele>
        <time>2015-03-14T15:36:26Z</time>
      </trkpt>
      <trkpt lat="40.202833" lon="-5.044100">
        <ele>2008.0</ele>
        <time>2015-03-14T15:36:27Z</time>
      </trkpt>
      <trkpt lat="40.202750" lon="-5.044200">
        <ele>2006.0</ele>
        <time>2015-03-14T15:36:28Z</time>
      </trkpt>
      <trkpt lat="40.202667" lon="-5.044267">
        <ele>2006.0</ele>
        <time>2015-03-14T15:36:29Z</time>
      </trkpt>
      <trkpt lat="40.202583" lon="-5.044300">
        <ele>2006.0</ele>
        <time>2015-03-14T15:36:30Z</time>
      </trkpt>
      <trkpt lat="40.202517" lon="-5.044300">
        <ele>2005.0</ele>
        <time>2015-03-14T15:36:31Z</time>
      </trkpt>
      <trkpt lat="40.202450" lon="-5.044283">
        <ele>2004.0</ele>
        <time>2015-03-14T15:36:32Z</time>
      </trkpt>
      <trkpt lat="40.202367" lon="-5.044233">
        <ele>2001.0</ele>
        <time>2015-03-14T15:36:33Z</time>
      </trkpt>
      <trkpt lat="40.202317" lon="-5.044133">
        <ele>2000.0</ele>
        <time>2015-03-14T15:36:34Z</time>
      </trkpt>
      <trkpt lat="40.202267" lon="-5.044017">
        <ele>1999.0</ele>
        <time>2015-03-14T15:36:35Z</time>
      </trkpt>
      <trkpt lat="40.202233" lon="-5.043917">
        <ele>2001.0</ele>
        <time>2015-03-14T15:36:36Z</time>
      </trkpt>
      <trkpt lat="40.202217" lon="-5.043817">
        <ele>2002.0</ele>
        <time>2015-03-14T15:36:37Z</time>
      </trkpt>
      <trkpt lat="40.202200" lon="-5.043717">
        <ele>2004.0</ele>
        <time>2015-03-14T15:36:38Z</time>
      </trkpt>
      <trkpt lat="40.202200" lon="-5.043617">
        <ele>2005.0</ele>
        <time>2015-03-14T15:36:39Z</time>
      </trkpt>
      <trkpt lat="40.202200" lon="-5.043500">
        <ele>2004.0</ele>
        <time>2015-03-14T15:36:40Z</time>
      </trkpt>
      <trkpt lat="40.202233" lon="-5.043383">
        <ele>2004.0</ele>
        <time>2015-03-14T15:36:41Z</time>
      </trkpt>
      <trkpt lat="40.202283" lon="-5.043267">
        <ele>2003.0</ele>
        <time>2015-03-14T15:36:42Z</time>
      </trkpt>
      <trkpt lat="40.202350" lon="-5.043150">
        <ele>2002.0</ele>
        <time>2015-03-14T15:36:43Z</time>
      </trkpt>
      <trkpt lat="40.202450" lon="-5.043050">
        <ele>2002.0</ele>
        <time>2015-03-14T15:36:44Z</time>
      </trkpt>
      <trkpt lat="40.202533" lon="-5.042967">
        <ele>2002.0</ele>
        <time>2015-03-14T15:36:45Z</time>
      </trkpt>
      <trkpt lat="40.202617" lon="-5.042883">
        <ele>2002.0</ele>
        <time>2015-03-14T15:36:46Z</time>
      </trkpt>
      <trkpt lat="40.202717" lon="-5.042817">
        <ele>2002.0</ele>
        <time>2015-03-14T15:36:47Z</time>
      </trkpt>
      <trkpt lat="40.202817" lon="-5.042783">
        <ele>2002.0</ele>
        <time>2015-03-14T15:36:48Z</time>
      </trkpt>
      <trkpt lat="40.202933" lon="-5.042750">
        <ele>2001.0</ele>
        <time>2015-03-14T15:36:49Z</time>
      </trkpt>
      <trkpt lat="40.203033" lon="-5.042733">
        <ele>2000.0</ele>
        <time>2015-03-14T15:36:50Z</time>
      </trkpt>
      <trkpt lat="40.203150" lon="-5.042717">
        <ele>2000.0</ele>
        <time>2015-03-14T15:36:51Z</time>
      </trkpt>
      <trkpt lat="40.203267" lon="-5.042700">
        <ele>2000.0</ele>
        <time>2015-03-14T15:36:52Z</time>
      </trkpt>
      <trkpt lat="40.203367" lon="-5.042683">
        <ele>2000.0</ele>
        <time>2015-03-14T15:36:53Z</time>
      </trkpt>
      <trkpt lat="40.203483" lon="-5.042700">
        <ele>2001.0</ele>
        <time>2015-03-14T15:36:54Z</time>
      </trkpt>
      <trkpt lat="40.203583" lon="-5.042717">
        <ele>2000.0</ele>
        <time>2015-03-14T15:36:55Z</time>
      </trkpt>
      <trkpt lat="40.203700" lon="-5.042750">
        <ele>1998.0</ele>
        <time>2015-03-14T15:36:56Z</time>
      </trkpt>
      <trkpt lat="40.203817" lon="-5.042800">
        <ele>1997.0</ele>
        <time>2015-03-14T15:36:57Z</time>
      </trkpt>
      <trkpt lat="40.203917" lon="-5.042883">
        <ele>1996.0</ele>
        <time>2015-03-14T15:36:58Z</time>
      </trkpt>
      <trkpt lat="40.204017" lon="-5.042967">
        <ele>1995.0</ele>
        <time>2015-03-14T15:36:59Z</time>
      </trkpt>
      <trkpt lat="40.204100" lon="-5.043067">
        <ele>1993.0</ele>
        <time>2015-03-14T15:37:00Z</time>
      </trkpt>
      <trkpt lat="40.204167" lon="-5.043183">
        <ele>1992.0</ele>
        <time>2015-03-14T15:37:01Z</time>
      </trkpt>
      <trkpt lat="40.204217" lon="-5.043300">
        <ele>1989.0</ele>
        <time>2015-03-14T15:37:02Z</time>
      </trkpt>
      <trkpt lat="40.204250" lon="-5.043450">
        <ele>1987.0</ele>
        <time>2015-03-14T15:37:03Z</time>
      </trkpt>
      <trkpt lat="40.204267" lon="-5.043617">
        <ele>1984.0</ele>
        <time>2015-03-14T15:37:04Z</time>
      </trkpt>
      <trkpt lat="40.204267" lon="-5.043750">
        <ele>1982.0</ele>
        <time>2015-03-14T15:37:05Z</time>
      </trkpt>
      <trkpt lat="40.204250" lon="-5.043867">
        <ele>1981.0</ele>
        <time>2015-03-14T15:37:06Z</time>
      </trkpt>
      <trkpt lat="40.204233" lon="-5.043983">
        <ele>1978.0</ele>
        <time>2015-03-14T15:37:07Z</time>
      </trkpt>
      <trkpt lat="40.204217" lon="-5.044100">
        <ele>1974.0</ele>
        <time>2015-03-14T15:37:08Z</time>
      </trkpt>
      <trkpt lat="40.204200" lon="-5.044233">
        <ele>1970.0</ele>
        <time>2015-03-14T15:37:09Z</time>
      </trkpt>
      <trkpt lat="40.204150" lon="-5.044367">
        <ele>1966.0</ele>
        <time>2015-03-14T15:37:10Z</time>
      </trkpt>
      <trkpt lat="40.204100" lon="-5.044500">
        <ele>1962.0</ele>
        <time>2015-03-14T15:37:11Z</time>
      </trkpt>
      <trkpt lat="40.204050" lon="-5.044617">
        <ele>1959.0</ele>
        <time>2015-03-14T15:37:12Z</time>
      </trkpt>
      <trkpt lat="40.204000" lon="-5.044733">
        <ele>1956.0</ele>
        <time>2015-03-14T15:37:13Z</time>
      </trkpt>
      <trkpt lat="40.203933" lon="-5.044833">
        <ele>1953.0</ele>
        <time>2015-03-14T15:37:14Z</time>
      </trkpt>
      <trkpt lat="40.203883" lon="-5.044917">
        <ele>1950.0</ele>
        <time>2015-03-14T15:37:15Z</time>
      </trkpt>
      <trkpt lat="40.203800" lon="-5.045000">
        <ele>1945.0</ele>
        <time>2015-03-14T15:37:16Z</time>
      </trkpt>
      <trkpt lat="40.203717" lon="-5.045083">
        <ele>1940.0</ele>
        <time>2015-03-14T15:37:17Z</time>
      </trkpt>
      <trkpt lat="40.203633" lon="-5.045150">
        <ele>1936.0</ele>
        <time>2015-03-14T15:37:18Z</time>
      </trkpt>
      <trkpt lat="40.203550" lon="-5.045250">
        <ele>1932.0</ele>
        <time>2015-03-14T15:37:19Z</time>
      </trkpt>
      <trkpt lat="40.203483" lon="-5.045333">
        <ele>1929.0</ele>
        <time>2015-03-14T15:37:20Z</time>
      </trkpt>
      <trkpt lat="40.203400" lon="-5.045417">
        <ele>1927.0</ele>
        <time>2015-03-14T15:37:21Z</time>
      </trkpt>
      <trkpt lat="40.203333" lon="-5.045467">
        <ele>1925.0</ele>
        <time>2015-03-14T15:37:22Z</time>
      </trkpt>
      <trkpt lat="40.203250" lon="-5.045533">
        <ele>1923.0</ele>
        <time>2015-03-14T15:37:23Z</time>
      </trkpt>
      <trkpt lat="40.203167" lon="-5.045617">
        <ele>1922.0</ele>
        <time>2015-03-14T15:37:24Z</time>
      </trkpt>
      <trkpt lat="40.203083" lon="-5.045700">
        <ele>1920.0</ele>
        <time>2015-03-14T15:37:25Z</time>
      </trkpt>
      <trkpt lat="40.203033" lon="-5.045817">
        <ele>1918.0</ele>
        <time>2015-03-14T15:37:26Z</time>
      </trkpt>
      <trkpt lat="40.202967" lon="-5.045933">
        <ele>1917.0</ele>
        <time>2015-03-14T15:37:27Z</time>
      </trkpt>
      <trkpt lat="40.202917" lon="-5.046067">
        <ele>1915.0</ele>
        <time>2015-03-14T15:37:28Z</time>
      </trkpt>
      <trkpt lat="40.202867" lon="-5.046167">
        <ele>1913.0</ele>
        <time>2015-03-14T15:37:29Z</time>
      </trkpt>
      <trkpt lat="40.202800" lon="-5.046267">
        <ele>1912.0</ele>
        <time>2015-03-14T15:37:30Z</time>
      </trkpt>
      <trkpt lat="40.202733" lon="-5.046367">
        <ele>1911.0</ele>
        <time>2015-03-14T15:37:31Z</time>
      </trkpt>
      <trkpt lat="40.202683" lon="-5.046450">
        <ele>1911.0</ele>
        <time>2015-03-14T15:37:32Z</time>
      </trkpt>
      <trkpt lat="40.202617" lon="-5.046517">
        <ele>1911.0</ele>
        <time>2015-03-14T15:37:33Z</time>
      </trkpt>
      <trkpt lat="40.202517" lon="-5.046550">
        <ele>1911.0</ele>
        <time>2015-03-14T15:37:34Z</time>
      </trkpt>
      <trkpt lat="40.202433" lon="-5.046583">
        <ele>1912.0</ele>
        <time>2015-03-14T15:37:35Z</time>
      </trkpt>
      <trkpt lat="40.202350" lon="-5.046617">
        <ele>1915.0</ele>
        <time>2015-03-14T15:37:36Z</time>
      </trkpt>
      <trkpt lat="40.202267" lon="-5.046683">
        <ele>1918.0</ele>
        <time>2015-03-14T15:37:37Z</time>
      </trkpt>
      <trkpt lat="40.202183" lon="-5.046750">
        <ele>1921.0</ele>
        <time>2015-03-14T15:37:38Z</time>
      </trkpt>
      <trkpt lat="40.202133" lon="-5.046800">
        <ele>1925.0</ele>
        <time>2015-03-14T15:37:39Z</time>
      </trkpt>
      <trkpt lat="40.202067" lon="-5.046833">
        <ele>1929.0</ele>
        <time>2015-03-14T15:37:40Z</time>
      </trkpt>
      <trkpt lat="40.202000" lon="-5.046867">
        <ele>1931.0</ele>
        <time>2015-03-14T15:37:41Z</time>
      </trkpt>
      <trkpt lat="40.201950" lon="-5.046883">
        <ele>1933.0</ele>
        <time>2015-03-14T15:37:42Z</time>
      </trkpt>
      <trkpt lat="40.201883" lon="-5.046900">
        <ele>1935.0</ele>
        <time>2015-03-14T15:37:43Z</time>
      </trkpt>
      <trkpt lat="40.201817" lon="-5.046900">
        <ele>1936.0</ele>
        <time>2015-03-14T15:37:44Z</time>
      </trkpt>
      <trkpt lat="40.201750" lon="-5.046867">
        <ele>1937.0</ele>
        <time>2015-03-14T15:37:45Z</time>
      </trkpt>
      <trkpt lat="40.201683" lon="-5.046833">
        <ele>1938.0</ele>
        <time>2015-03-14T15:37:46Z</time>
      </trkpt>
      <trkpt lat="40.201617" lon="-5.046800">
        <ele>1941.0</ele>
        <time>2015-03-14T15:37:47Z</time>
      </trkpt>
      <trkpt lat="40.201567" lon="-5.046750">
        <ele>1943.0</ele>
        <time>2015-03-14T15:37:48Z</time>
      </trkpt>
      <trkpt lat="40.201533" lon="-5.046683">
        <ele>1946.0</ele>
        <time>2015-03-14T15:37:49Z</time>
      </trkpt>
      <trkpt lat="40.201500" lon="-5.046600">
        <ele>1948.0</ele>
        <time>2015-03-14T15:37:50Z</time>
      </trkpt>
      <trkpt lat="40.201467" lon="-5.046517">
        <ele>1950.0</ele>
        <time>2015-03-14T15:37:51Z</time>
      </trkpt>
      <trkpt lat="40.201467" lon="-5.046417">
        <ele>1952.0</ele>
        <time>2015-03-14T15:37:52Z</time>
      </trkpt>
      <trkpt lat="40.201467" lon="-5.046333">
        <ele>1955.0</ele>
        <time>2015-03-14T15:37:53Z</time>
      </trkpt>
      <trkpt lat="40.201483" lon="-5.046250">
        <ele>1957.0</ele>
        <time>2015-03-14T15:37:54Z</time>
      </trkpt>
      <trkpt lat="40.201550" lon="-5.046150">
        <ele>1957.0</ele>
        <time>2015-03-14T15:37:55Z</time>
      </trkpt>
      <trkpt lat="40.201617" lon="-5.046067">
        <ele>1958.0</ele>
        <time>2015-03-14T15:37:56Z</time>
      </trkpt>
      <trkpt lat="40.201717" lon="-5.045967">
        <ele>1959.0</ele>
        <time>2015-03-14T15:37:57Z</time>
      </trkpt>
      <trkpt lat="40.201817" lon="-5.045917">
        <ele>1963.0</ele>
        <time>2015-03-14T15:37:58Z</time>
      </trkpt>
      <trkpt lat="40.201917" lon="-5.045883">
        <ele>1966.0</ele>
        <time>2015-03-14T15:37:59Z</time>
      </trkpt>
      <trkpt lat="40.202017" lon="-5.045900">
        <ele>1969.0</ele>
        <time>2015-03-14T15:38:00Z</time>
      </trkpt>
      <trkpt lat="40.202117" lon="-5.045917">
        <ele>1971.0</ele>
        <time>2015-03-14T15:38:01Z</time>
      </trkpt>
      <trkpt lat="40.202217" lon="-5.045967">
        <ele>1972.0</ele>
        <time>2015-03-14T15:38:02Z</time>
      </trkpt>
      <trkpt lat="40.202317" lon="-5.046050">
        <ele>1972.0</ele>
        <time>2015-03-14T15:38:03Z</time>
      </trkpt>
      <trkpt lat="40.202400" lon="-5.046167">
        <ele>1972.0</ele>
        <time>2015-03-14T15:38:04Z</time>
      </trkpt>
      <trkpt lat="40.202450" lon="-5.046317">
        <ele>1972.0</ele>
        <time>2015-03-14T15:38:05Z</time>
      </trkpt>
      <trkpt lat="40.202500" lon="-5.046467">
        <ele>1972.0</ele>
        <time>2015-03-14T15:38:06Z</time>
      </trkpt>
      <trkpt lat="40.202500" lon="-5.046633">
        <ele>1974.0</ele>
        <time>2015-03-14T15:38:07Z</time>
      </trkpt>
      <trkpt lat="40.202500" lon="-5.046767">
        <ele>1976.0</ele>
        <time>2015-03-14T15:38:08Z</time>
      </trkpt>
      <trkpt lat="40.202483" lon="-5.046883">
        <ele>1979.0</ele>
        <time>2015-03-14T15:38:09Z</time>
      </trkpt>
      <trkpt lat="40.202450" lon="-5.047000">
        <ele>1980.0</ele>
        <time>2015-03-14T15:38:10Z</time>
      </trkpt>
      <trkpt lat="40.202417" lon="-5.047100">
        <ele>1981.0</ele>
        <time>2015-03-14T15:38:11Z</time>
      </trkpt>
      <trkpt lat="40.202367" lon="-5.047183">
        <ele>1982.0</ele>
        <time>2015-03-14T15:38:12Z</time>
      </trkpt>
      <trkpt lat="40.202300" lon="-5.047250">
        <ele>1982.0</ele>
        <time>2015-03-14T15:38:13Z</time>
      </trkpt>
      <trkpt lat="40.202217" lon="-5.047283">
        <ele>1981.0</ele>
        <time>2015-03-14T15:38:14Z</time>
      </trkpt>
      <trkpt lat="40.202117" lon="-5.047267">
        <ele>1982.0</ele>
        <time>2015-03-14T15:38:15Z</time>
      </trkpt>
      <trkpt lat="40.202050" lon="-5.047233">
        <ele>1983.0</ele>
        <time>2015-03-14T15:38:16Z</time>
      </trkpt>
      <trkpt lat="40.201967" lon="-5.047183">
        <ele>1984.0</ele>
        <time>2015-03-14T15:38:17Z</time>
      </trkpt>
      <trkpt lat="40.201917" lon="-5.047133">
        <ele>1986.0</ele>
        <time>2015-03-14T15:38:18Z</time>
      </trkpt>
      <trkpt lat="40.201883" lon="-5.047050">
        <ele>1987.0</ele>
        <time>2015-03-14T15:38:19Z</time>
      </trkpt>
      <trkpt lat="40.201883" lon="-5.046950">
        <ele>1987.0</ele>
        <time>2015-03-14T15:38:20Z</time>
      </trkpt>
      <trkpt lat="40.201883" lon="-5.046833">
        <ele>1987.0</ele>
        <time>2015-03-14T15:38:21Z</time>
      </trkpt>
      <trkpt lat="40.201917" lon="-5.046700">
        <ele>1989.0</ele>
        <time>2015-03-14T15:38:22Z</time>
      </trkpt>
      <trkpt lat="40.201950" lon="-5.046600">
        <ele>1993.0</ele>
        <time>2015-03-14T15:38:23Z</time>
      </trkpt>
      <trkpt lat="40.202017" lon="-5.046517">
        <ele>1996.0</ele>
        <time>2015-03-14T15:38:24Z</time>
      </trkpt>
      <trkpt lat="40.202083" lon="-5.046450">
        <ele>1998.0</ele>
        <time>2015-03-14T15:38:25Z</time>
      </trkpt>
      <trkpt lat="40.202167" lon="-5.046400">
        <ele>1999.0</ele>
        <time>2015-03-14T15:38:26Z</time>
      </trkpt>
      <trkpt lat="40.202267" lon="-5.046350">
        <ele>1999.0</ele>
        <time>2015-03-14T15:38:27Z</time>
      </trkpt>
      <trkpt lat="40.202383" lon="-5.046317">
        <ele>1999.0</ele>
        <time>2015-03-14T15:38:28Z</time>
      </trkpt>
      <trkpt lat="40.202500" lon="-5.046333">
        <ele>2000.0</ele>
        <time>2015-03-14T15:38:29Z</time>
      </trkpt>
      <trkpt lat="40.202617" lon="-5.046367">
        <ele>2001.0</ele>
        <time>2015-03-14T15:38:30Z</time>
      </trkpt>
      <trkpt lat="40.202717" lon="-5.046433">
        <ele>2003.0</ele>
        <time>2015-03-14T15:38:31Z</time>
      </trkpt>
      <trkpt lat="40.202800" lon="-5.046517">
        <ele>2005.0</ele>
        <time>2015-03-14T15:38:32Z</time>
      </trkpt>
      <trkpt lat="40.202867" lon="-5.046617">
        <ele>2005.0</ele>
        <time>2015-03-14T15:38:33Z</time>
      </trkpt>
      <trkpt lat="40.202933" lon="-5.046717">
        <ele>2005.0</ele>
        <time>2015-03-14T15:38:34Z</time>
      </trkpt>
      <trkpt lat="40.202967" lon="-5.046867">
        <ele>2003.0</ele>
        <time>2015-03-14T15:38:35Z</time>
      </trkpt>
      <trkpt lat="40.203000" lon="-5.047017">
        <ele>2002.0</ele>
        <time>2015-03-14T15:38:36Z</time>
      </trkpt>
      <trkpt lat="40.203017" lon="-5.047167">
        <ele>2003.0</ele>
        <time>2015-03-14T15:38:37Z</time>
      </trkpt>
      <trkpt lat="40.203017" lon="-5.047300">
        <ele>2004.0</ele>
        <time>2015-03-14T15:38:38Z</time>
      </trkpt>
      <trkpt lat="40.203017" lon="-5.047433">
        <ele>2006.0</ele>
        <time>2015-03-14T15:38:39Z</time>
      </trkpt>
      <trkpt lat="40.202983" lon="-5.047550">
        <ele>2006.0</ele>
        <time>2015-03-14T15:38:40Z</time>
      </trkpt>
      <trkpt lat="40.202933" lon="-5.047650">
        <ele>2005.0</ele>
        <time>2015-03-14T15:38:41Z</time>
      </trkpt>
      <trkpt lat="40.202867" lon="-5.047733">
        <ele>2005.0</ele>
        <time>2015-03-14T15:38:42Z</time>
      </trkpt>
      <trkpt lat="40.202800" lon="-5.047817">
        <ele>2006.0</ele>
        <time>2015-03-14T15:38:43Z</time>
      </trkpt>
      <trkpt lat="40.202733" lon="-5.047900">
        <ele>2007.0</ele>
        <time>2015-03-14T15:38:44Z</time>
      </trkpt>
      <trkpt lat="40.202683" lon="-5.048000">
        <ele>2008.0</ele>
        <time>2015-03-14T15:38:45Z</time>
      </trkpt>
      <trkpt lat="40.202633" lon="-5.048083">
        <ele>2008.0</ele>
        <time>2015-03-14T15:38:46Z</time>
      </trkpt>
      <trkpt lat="40.202567" lon="-5.048150">
        <ele>2008.0</ele>
        <time>2015-03-14T15:38:47Z</time>
      </trkpt>
      <trkpt lat="40.202500" lon="-5.048200">
        <ele>2007.0</ele>
        <time>2015-03-14T15:38:48Z</time>
      </trkpt>
      <trkpt lat="40.202417" lon="-5.048250">
        <ele>2007.0</ele>
        <time>2015-03-14T15:38:49Z</time>
      </trkpt>
      <trkpt lat="40.202333" lon="-5.048283">
        <ele>2007.0</ele>
        <time>2015-03-14T15:38:50Z</time>
      </trkpt>
      <trkpt lat="40.202250" lon="-5.048317">
        <ele>2007.0</ele>
        <time>2015-03-14T15:38:51Z</time>
      </trkpt>
      <trkpt lat="40.202183" lon="-5.048350">
        <ele>2006.0</ele>
        <time>2015-03-14T15:38:52Z</time>
      </trkpt>
      <trkpt lat="40.202100" lon="-5.048350">
        <ele>2006.0</ele>
        <time>2015-03-14T15:38:53Z</time>
      </trkpt>
      <trkpt lat="40.202017" lon="-5.048350">
        <ele>2005.0</ele>
        <time>2015-03-14T15:38:54Z</time>
      </trkpt>
      <trkpt lat="40.201933" lon="-5.048350">
        <ele>2004.0</ele>
        <time>2015-03-14T15:38:55Z</time>
      </trkpt>
      <trkpt lat="40.201867" lon="-5.048317">
        <ele>2003.0</ele>
        <time>2015-03-14T15:38:56Z</time>
      </trkpt>
      <trkpt lat="40.201800" lon="-5.048250">
        <ele>2002.0</ele>
        <time>2015-03-14T15:38:57Z</time>
      </trkpt>
      <trkpt lat="40.201750" lon="-5.048167">
        <ele>2002.0</ele>
        <time>2015-03-14T15:38:58Z</time>
      </trkpt>
      <trkpt lat="40.201700" lon="-5.048067">
        <ele>2001.0</ele>
        <time>2015-03-14T15:38:59Z</time>
      </trkpt>
      <trkpt lat="40.201683" lon="-5.047967">
        <ele>2002.0</ele>
        <time>2015-03-14T15:39:00Z</time>
      </trkpt>
      <trkpt lat="40.201667" lon="-5.047850">
        <ele>2003.0</ele>
        <time>2015-03-14T15:39:01Z</time>
      </trkpt>
      <trkpt lat="40.201667" lon="-5.047750">
        <ele>2003.0</ele>
        <time>2015-03-14T15:39:02Z</time>
      </trkpt>
      <trkpt lat="40.201683" lon="-5.047650">
        <ele>2003.0</ele>
        <time>2015-03-14T15:39:03Z</time>
      </trkpt>
      <trkpt lat="40.201717" lon="-5.047550">
        <ele>2003.0</ele>
        <time>2015-03-14T15:39:04Z</time>
      </trkpt>
      <trkpt lat="40.201750" lon="-5.047450">
        <ele>2002.0</ele>
        <time>2015-03-14T15:39:05Z</time>
      </trkpt>
      <trkpt lat="40.201800" lon="-5.047350">
        <ele>2002.0</ele>
        <time>2015-03-14T15:39:06Z</time>
      </trkpt>
      <trkpt lat="40.201883" lon="-5.047250">
        <ele>2001.0</ele>
        <time>2015-03-14T15:39:07Z</time>
      </trkpt>
      <trkpt lat="40.201967" lon="-5.047167">
        <ele>2001.0</ele>
        <time>2015-03-14T15:39:08Z</time>
      </trkpt>
      <trkpt lat="40.202083" lon="-5.047067">
        <ele>2002.0</ele>
        <time>2015-03-14T15:39:09Z</time>
      </trkpt>
      <trkpt lat="40.202183" lon="-5.047000">
        <ele>2003.0</ele>
        <time>2015-03-14T15:39:10Z</time>
      </trkpt>
      <trkpt lat="40.202283" lon="-5.046950">
        <ele>2006.0</ele>
        <time>2015-03-14T15:39:11Z</time>
      </trkpt>
      <trkpt lat="40.202383" lon="-5.046917">
        <ele>2009.0</ele>
        <time>2015-03-14T15:39:12Z</time>
      </trkpt>
      <trkpt lat="40.202467" lon="-5.046883">
        <ele>2011.0</ele>
        <time>2015-03-14T15:39:13Z</time>
      </trkpt>
      <trkpt lat="40.202567" lon="-5.046867">
        <ele>2011.0</ele>
        <time>2015-03-14T15:39:14Z</time>
      </trkpt>
      <trkpt lat="40.202650" lon="-5.046867">
        <ele>2010.0</ele>
        <time>2015-03-14T15:39:15Z</time>
      </trkpt>
      <trkpt lat="40.202767" lon="-5.046900">
        <ele>2009.0</ele>
        <time>2015-03-14T15:39:16Z</time>
      </trkpt>
      <trkpt lat="40.202867" lon="-5.046967">
        <ele>2008.0</ele>
        <time>2015-03-14T15:39:17Z</time>
      </trkpt>
      <trkpt lat="40.202967" lon="-5.047050">
        <ele>2008.0</ele>
        <time>2015-03-14T15:39:18Z</time>
      </trkpt>
      <trkpt lat="40.203050" lon="-5.047167">
        <ele>2008.0</ele>
        <time>2015-03-14T15:39:19Z</time>
      </trkpt>
      <trkpt lat="40.203117" lon="-5.047283">
        <ele>2009.0</ele>
        <time>2015-03-14T15:39:20Z</time>
      </trkpt>
      <trkpt lat="40.203167" lon="-5.047400">
        <ele>2008.0</ele>
        <time>2015-03-14T15:39:21Z</time>
      </trkpt>
      <trkpt lat="40.203200" lon="-5.047533">
        <ele>2008.0</ele>
        <time>2015-03-14T15:39:22Z</time>
      </trkpt>
      <trkpt lat="40.203233" lon="-5.047667">
        <ele>2007.0</ele>
        <time>2015-03-14T15:39:23Z</time>
      </trkpt>
      <trkpt lat="40.203233" lon="-5.047817">
        <ele>2006.0</ele>
        <time>2015-03-14T15:39:24Z</time>
      </trkpt>
      <trkpt lat="40.203233" lon="-5.047950">
        <ele>2006.0</ele>
        <time>2015-03-14T15:39:25Z</time>
      </trkpt>
      <trkpt lat="40.203217" lon="-5.048083">
        <ele>2007.0</ele>
        <time>2015-03-14T15:39:26Z</time>
      </trkpt>
      <trkpt lat="40.203217" lon="-5.048217">
        <ele>2008.0</ele>
        <time>2015-03-14T15:39:27Z</time>
      </trkpt>
      <trkpt lat="40.203233" lon="-5.048333">
        <ele>2008.0</ele>
        <time>2015-03-14T15:39:28Z</time>
      </trkpt>
      <trkpt lat="40.203233" lon="-5.048450">
        <ele>2008.0</ele>
        <time>2015-03-14T15:39:29Z</time>
      </trkpt>
      <trkpt lat="40.203217" lon="-5.048550">
        <ele>2007.0</ele>
        <time>2015-03-14T15:39:30Z</time>
      </trkpt>
      <trkpt lat="40.203183" lon="-5.048650">
        <ele>2007.0</ele>
        <time>2015-03-14T15:39:31Z</time>
      </trkpt>
      <trkpt lat="40.203133" lon="-5.048750">
        <ele>2007.0</ele>
        <time>2015-03-14T15:39:32Z</time>
      </trkpt>
      <trkpt lat="40.203067" lon="-5.048850">
        <ele>2007.0</ele>
        <time>2015-03-14T15:39:33Z</time>
      </trkpt>
      <trkpt lat="40.203033" lon="-5.048967">
        <ele>2009.0</ele>
        <time>2015-03-14T15:39:34Z</time>
      </trkpt>
      <trkpt lat="40.203017" lon="-5.049083">
        <ele>2010.0</ele>
        <time>2015-03-14T15:39:35Z</time>
      </trkpt>
      <trkpt lat="40.202983" lon="-5.049183">
        <ele>2012.0</ele>
        <time>2015-03-14T15:39:36Z</time>
      </trkpt>
      <trkpt lat="40.202950" lon="-5.049267">
        <ele>2013.0</ele>
        <time>2015-03-14T15:39:37Z</time>
      </trkpt>
      <trkpt lat="40.202883" lon="-5.049333">
        <ele>2013.0</ele>
        <time>2015-03-14T15:39:38Z</time>
      </trkpt>
      <trkpt lat="40.202817" lon="-5.049383">
        <ele>2013.0</ele>
        <time>2015-03-14T15:39:39Z</time>
      </trkpt>
      <trkpt lat="40.202733" lon="-5.049433">
        <ele>2013.0</ele>
        <time>2015-03-14T15:39:40Z</time>
      </trkpt>
      <trkpt lat="40.202667" lon="-5.049500">
        <ele>2012.0</ele>
        <time>2015-03-14T15:39:41Z</time>
      </trkpt>
      <trkpt lat="40.202600" lon="-5.049583">
        <ele>2012.0</ele>
        <time>2015-03-14T15:39:42Z</time>
      </trkpt>
      <trkpt lat="40.202533" lon="-5.049683">
        <ele>2011.0</ele>
        <time>2015-03-14T15:39:43Z</time>
      </trkpt>
      <trkpt lat="40.202483" lon="-5.049783">
        <ele>2011.0</ele>
        <time>2015-03-14T15:39:44Z</time>
      </trkpt>
      <trkpt lat="40.202417" lon="-5.049867">
        <ele>2010.0</ele>
        <time>2015-03-14T15:39:45Z</time>
      </trkpt>
      <trkpt lat="40.202367" lon="-5.049950">
        <ele>2010.0</ele>
        <time>2015-03-14T15:39:46Z</time>
      </trkpt>
      <trkpt lat="40.202300" lon="-5.050033">
        <ele>2009.0</ele>
        <time>2015-03-14T15:39:47Z</time>
      </trkpt>
      <trkpt lat="40.202233" lon="-5.050100">
        <ele>2008.0</ele>
        <time>2015-03-14T15:39:48Z</time>
      </trkpt>
      <trkpt lat="40.202167" lon="-5.050183">
        <ele>2006.0</ele>
        <time>2015-03-14T15:39:49Z</time>
      </trkpt>
      <trkpt lat="40.202117" lon="-5.050267">
        <ele>2003.0</ele>
        <time>2015-03-14T15:39:50Z</time>
      </trkpt>
      <trkpt lat="40.202050" lon="-5.050350">
        <ele>2001.0</ele>
        <time>2015-03-14T15:39:51Z</time>
      </trkpt>
      <trkpt lat="40.202000" lon="-5.050450">
        <ele>1998.0</ele>
        <time>2015-03-14T15:39:52Z</time>
      </trkpt>
      <trkpt lat="40.201950" lon="-5.050567">
        <ele>1995.0</ele>
        <time>2015-03-14T15:39:53Z</time>
      </trkpt>
      <trkpt lat="40.201900" lon="-5.050683">
        <ele>1993.0</ele>
        <time>2015-03-14T15:39:54Z</time>
      </trkpt>
      <trkpt lat="40.201850" lon="-5.050783">
        <ele>1992.0</ele>
        <time>2015-03-14T15:39:55Z</time>
      </trkpt>
      <trkpt lat="40.201817" lon="-5.050900">
        <ele>1990.0</ele>
        <time>2015-03-14T15:39:56Z</time>
      </trkpt>
      <trkpt lat="40.201783" lon="-5.051000">
        <ele>1988.0</ele>
        <time>2015-03-14T15:39:57Z</time>
      </trkpt>
      <trkpt lat="40.201767" lon="-5.051117">
        <ele>1985.0</ele>
        <time>2015-03-14T15:39:58Z</time>
      </trkpt>
      <trkpt lat="40.201750" lon="-5.051250">
        <ele>1982.0</ele>
        <time>2015-03-14T15:39:59Z</time>
      </trkpt>
      <trkpt lat="40.201733" lon="-5.051383">
        <ele>1979.0</ele>
        <time>2015-03-14T15:40:00Z</time>
      </trkpt>
      <trkpt lat="40.201717" lon="-5.051517">
        <ele>1976.0</ele>
        <time>2015-03-14T15:40:01Z</time>
      </trkpt>
      <trkpt lat="40.201683" lon="-5.051650">
        <ele>1973.0</ele>
        <time>2015-03-14T15:40:02Z</time>
      </trkpt>
      <trkpt lat="40.201650" lon="-5.051783">
        <ele>1970.0</ele>
        <time>2015-03-14T15:40:03Z</time>
      </trkpt>
      <trkpt lat="40.201633" lon="-5.051933">
        <ele>1968.0</ele>
        <time>2015-03-14T15:40:04Z</time>
      </trkpt>
      <trkpt lat="40.201600" lon="-5.052067">
        <ele>1965.0</ele>
        <time>2015-03-14T15:40:05Z</time>
      </trkpt>
      <trkpt lat="40.201583" lon="-5.052200">
        <ele>1962.0</ele>
        <time>2015-03-14T15:40:06Z</time>
      </trkpt>
      <trkpt lat="40.201550" lon="-5.052333">
        <ele>1959.0</ele>
        <time>2015-03-14T15:40:07Z</time>
      </trkpt>
      <trkpt lat="40.201533" lon="-5.052467">
        <ele>1955.0</ele>
        <time>2015-03-14T15:40:08Z</time>
      </trkpt>
      <trkpt lat="40.201500" lon="-5.052600">
        <ele>1951.0</ele>
        <time>2015-03-14T15:40:09Z</time>
      </trkpt>
      <trkpt lat="40.201450" lon="-5.052733">
        <ele>1947.0</ele>
        <time>2015-03-14T15:40:10Z</time>
      </trkpt>
      <trkpt lat="40.201383" lon="-5.052850">
        <ele>1944.0</ele>
        <time>2015-03-14T15:40:11Z</time>
      </trkpt>
      <trkpt lat="40.201317" lon="-5.052950">
        <ele>1940.0</ele>
        <time>2015-03-14T15:40:12Z</time>
      </trkpt>
      <trkpt lat="40.201250" lon="-5.053033">
        <ele>1936.0</ele>
        <time>2015-03-14T15:40:13Z</time>
      </trkpt>
      <trkpt lat="40.201167" lon="-5.053133">
        <ele>1932.0</ele>
        <time>2015-03-14T15:40:14Z</time>
      </trkpt>
      <trkpt lat="40.201083" lon="-5.053217">
        <ele>1928.0</ele>
        <time>2015-03-14T15:40:15Z</time>
      </trkpt>
      <trkpt lat="40.201017" lon="-5.053300">
        <ele>1924.0</ele>
        <time>2015-03-14T15:40:16Z</time>
      </trkpt>
      <trkpt lat="40.200933" lon="-5.053383">
        <ele>1919.0</ele>
        <time>2015-03-14T15:40:17Z</time>
      </trkpt>
      <trkpt lat="40.200850" lon="-5.053467">
        <ele>1914.0</ele>
        <time>2015-03-14T15:40:18Z</time>
      </trkpt>
      <trkpt lat="40.200750" lon="-5.053533">
        <ele>1909.0</ele>
        <time>2015-03-14T15:40:19Z</time>
      </trkpt>
      <trkpt lat="40.200633" lon="-5.053600">
        <ele>1905.0</ele>
        <time>2015-03-14T15:40:20Z</time>
      </trkpt>
      <trkpt lat="40.200517" lon="-5.053650">
        <ele>1901.0</ele>
        <time>2015-03-14T15:40:21Z</time>
      </trkpt>
      <trkpt lat="40.200417" lon="-5.053667">
        <ele>1899.0</ele>
        <time>2015-03-14T15:40:22Z</time>
      </trkpt>
      <trkpt lat="40.200317" lon="-5.053683">
        <ele>1898.0</ele>
        <time>2015-03-14T15:40:23Z</time>
      </trkpt>
      <trkpt lat="40.200233" lon="-5.053717">
        <ele>1897.0</ele>
        <time>2015-03-14T15:40:24Z</time>
      </trkpt>
      <trkpt lat="40.200167" lon="-5.053767">
        <ele>1895.0</ele>
        <time>2015-03-14T15:40:25Z</time>
      </trkpt>
      <trkpt lat="40.200067" lon="-5.053817">
        <ele>1892.0</ele>
        <time>2015-03-14T15:40:26Z</time>
      </trkpt>
      <trkpt lat="40.199983" lon="-5.053867">
        <ele>1888.0</ele>
        <time>2015-03-14T15:40:27Z</time>
      </trkpt>
      <trkpt lat="40.199883" lon="-5.053933">
        <ele>1885.0</ele>
        <time>2015-03-14T15:40:28Z</time>
      </trkpt>
      <trkpt lat="40.199783" lon="-5.053983">
        <ele>1883.0</ele>
        <time>2015-03-14T15:40:29Z</time>
      </trkpt>
      <trkpt lat="40.199683" lon="-5.054067">
        <ele>1881.0</ele>
        <time>2015-03-14T15:40:30Z</time>
      </trkpt>
      <trkpt lat="40.199600" lon="-5.054150">
        <ele>1878.0</ele>
        <time>2015-03-14T15:40:31Z</time>
      </trkpt>
      <trkpt lat="40.199517" lon="-5.054250">
        <ele>1875.0</ele>
        <time>2015-03-14T15:40:32Z</time>
      </trkpt>
      <trkpt lat="40.199433" lon="-5.054350">
        <ele>1872.0</ele>
        <time>2015-03-14T15:40:33Z</time>
      </trkpt>
      <trkpt lat="40.199367" lon="-5.054450">
        <ele>1870.0</ele>
        <time>2015-03-14T15:40:34Z</time>
      </trkpt>
      <trkpt lat="40.199283" lon="-5.054550">
        <ele>1867.0</ele>
        <time>2015-03-14T15:40:35Z</time>
      </trkpt>
      <trkpt lat="40.199200" lon="-5.054650">
        <ele>1865.0</ele>
        <time>2015-03-14T15:40:36Z</time>
      </trkpt>
      <trkpt lat="40.199133" lon="-5.054750">
        <ele>1861.0</ele>
        <time>2015-03-14T15:40:37Z</time>
      </trkpt>
      <trkpt lat="40.199067" lon="-5.054850">
        <ele>1858.0</ele>
        <time>2015-03-14T15:40:38Z</time>
      </trkpt>
      <trkpt lat="40.198983" lon="-5.054967">
        <ele>1854.0</ele>
        <time>2015-03-14T15:40:39Z</time>
      </trkpt>
      <trkpt lat="40.198917" lon="-5.055100">
        <ele>1851.0</ele>
        <time>2015-03-14T15:40:40Z</time>
      </trkpt>
      <trkpt lat="40.198867" lon="-5.055233">
        <ele>1848.0</ele>
        <time>2015-03-14T15:40:41Z</time>
      </trkpt>
      <trkpt lat="40.198800" lon="-5.055350">
        <ele>1845.0</ele>
        <time>2015-03-14T15:40:42Z</time>
      </trkpt>
      <trkpt lat="40.198733" lon="-5.055483">
        <ele>1843.0</ele>
        <time>2015-03-14T15:40:43Z</time>
      </trkpt>
      <trkpt lat="40.198667" lon="-5.055600">
        <ele>1840.0</ele>
        <time>2015-03-14T15:40:44Z</time>
      </trkpt>
      <trkpt lat="40.198600" lon="-5.055733">
        <ele>1837.0</ele>
        <time>2015-03-14T15:40:45Z</time>
      </trkpt>
      <trkpt lat="40.198533" lon="-5.055867">
        <ele>1835.0</ele>
        <time>2015-03-14T15:40:46Z</time>
      </trkpt>
      <trkpt lat="40.198483" lon="-5.056017">
        <ele>1832.0</ele>
        <time>2015-03-14T15:40:47Z</time>
      </trkpt>
      <trkpt lat="40.198417" lon="-5.056150">
        <ele>1830.0</ele>
        <time>2015-03-14T15:40:48Z</time>
      </trkpt>
      <trkpt lat="40.198367" lon="-5.056300">
        <ele>1827.0</ele>
        <time>2015-03-14T15:40:49Z</time>
      </trkpt>
      <trkpt lat="40.198317" lon="-5.056450">
        <ele>1824.0</ele>
        <time>2015-03-14T15:40:50Z</time>
      </trkpt>
      <trkpt lat="40.198250" lon="-5.056600">
        <ele>1820.0</ele>
        <time>2015-03-14T15:40:51Z</time>
      </trkpt>
      <trkpt lat="40.198200" lon="-5.056750">
        <ele>1816.0</ele>
        <time>2015-03-14T15:40:52Z</time>
      </trkpt>
      <trkpt lat="40.198167" lon="-5.056917">
        <ele>1814.0</ele>
        <time>2015-03-14T15:40:53Z</time>
      </trkpt>
      <trkpt lat="40.198117" lon="-5.057083">
        <ele>1811.0</ele>
        <time>2015-03-14T15:40:54Z</time>
      </trkpt>
      <trkpt lat="40.198050" lon="-5.057233">
        <ele>1810.0</ele>
        <time>2015-03-14T15:40:55Z</time>
      </trkpt>
      <trkpt lat="40.198000" lon="-5.057383">
        <ele>1807.0</ele>
        <time>2015-03-14T15:40:56Z</time>
      </trkpt>
      <trkpt lat="40.197950" lon="-5.057533">
        <ele>1805.0</ele>
        <time>2015-03-14T15:40:57Z</time>
      </trkpt>
      <trkpt lat="40.197917" lon="-5.057683">
        <ele>1802.0</ele>
        <time>2015-03-14T15:40:58Z</time>
      </trkpt>
      <trkpt lat="40.197850" lon="-5.057850">
        <ele>1799.0</ele>
        <time>2015-03-14T15:40:59Z</time>
      </trkpt>
      <trkpt lat="40.197800" lon="-5.058000">
        <ele>1796.0</ele>
        <time>2015-03-14T15:41:00Z</time>
      </trkpt>
      <trkpt lat="40.197767" lon="-5.058167">
        <ele>1794.0</ele>
        <time>2015-03-14T15:41:01Z</time>
      </trkpt>
      <trkpt lat="40.197717" lon="-5.058317">
        <ele>1792.0</ele>
        <time>2015-03-14T15:41:02Z</time>
      </trkpt>
      <trkpt lat="40.197683" lon="-5.058467">
        <ele>1789.0</ele>
        <time>2015-03-14T15:41:03Z</time>
      </trkpt>
      <trkpt lat="40.197650" lon="-5.058617">
        <ele>1785.0</ele>
        <time>2015-03-14T15:41:04Z</time>
      </trkpt>
      <trkpt lat="40.197600" lon="-5.058767">
        <ele>1781.0</ele>
        <time>2015-03-14T15:41:05Z</time>
      </trkpt>
      <trkpt lat="40.197567" lon="-5.058933">
        <ele>1777.0</ele>
        <time>2015-03-14T15:41:06Z</time>
      </trkpt>
      <trkpt lat="40.197517" lon="-5.059083">
        <ele>1774.0</ele>
        <time>2015-03-14T15:41:07Z</time>
      </trkpt>
      <trkpt lat="40.197483" lon="-5.059267">
        <ele>1771.0</ele>
        <time>2015-03-14T15:41:08Z</time>
      </trkpt>
      <trkpt lat="40.197467" lon="-5.059417">
        <ele>1768.0</ele>
        <time>2015-03-14T15:41:09Z</time>
      </trkpt>
      <trkpt lat="40.197433" lon="-5.059583">
        <ele>1766.0</ele>
        <time>2015-03-14T15:41:10Z</time>
      </trkpt>
      <trkpt lat="40.197400" lon="-5.059733">
        <ele>1764.0</ele>
        <time>2015-03-14T15:41:11Z</time>
      </trkpt>
      <trkpt lat="40.197383" lon="-5.059883">
        <ele>1761.0</ele>
        <time>2015-03-14T15:41:12Z</time>
      </trkpt>
      <trkpt lat="40.197350" lon="-5.060033">
        <ele>1759.0</ele>
        <time>2015-03-14T15:41:13Z</time>
      </trkpt>
      <trkpt lat="40.197317" lon="-5.060200">
        <ele>1756.0</ele>
        <time>2015-03-14T15:41:14Z</time>
      </trkpt>
      <trkpt lat="40.197300" lon="-5.060350">
        <ele>1754.0</ele>
        <time>2015-03-14T15:41:15Z</time>
      </trkpt>
      <trkpt lat="40.197267" lon="-5.060483">
        <ele>1752.0</ele>
        <time>2015-03-14T15:41:16Z</time>
      </trkpt>
      <trkpt lat="40.197250" lon="-5.060633">
        <ele>1751.0</ele>
        <time>2015-03-14T15:41:17Z</time>
      </trkpt>
      <trkpt lat="40.197217" lon="-5.060783">
        <ele>1749.0</ele>
        <time>2015-03-14T15:41:18Z</time>
      </trkpt>
      <trkpt lat="40.197183" lon="-5.060950">
        <ele>1748.0</ele>
        <time>2015-03-14T15:41:19Z</time>
      </trkpt>
      <trkpt lat="40.197150" lon="-5.061100">
        <ele>1746.0</ele>
        <time>2015-03-14T15:41:20Z</time>
      </trkpt>
      <trkpt lat="40.197117" lon="-5.061250">
        <ele>1745.0</ele>
        <time>2015-03-14T15:41:21Z</time>
      </trkpt>
      <trkpt lat="40.197067" lon="-5.061383">
        <ele>1743.0</ele>
        <time>2015-03-14T15:41:22Z</time>
      </trkpt>
      <trkpt lat="40.197033" lon="-5.061550">
        <ele>1741.0</ele>
        <time>2015-03-14T15:41:23Z</time>
      </trkpt>
      <trkpt lat="40.197000" lon="-5.061717">
        <ele>1738.0</ele>
        <time>2015-03-14T15:41:24Z</time>
      </trkpt>
      <trkpt lat="40.196950" lon="-5.061900">
        <ele>1737.0</ele>
        <time>2015-03-14T15:41:25Z</time>
      </trkpt>
      <trkpt lat="40.196933" lon="-5.062067">
        <ele>1737.0</ele>
        <time>2015-03-14T15:41:26Z</time>
      </trkpt>
      <trkpt lat="40.196917" lon="-5.062217">
        <ele>1737.0</ele>
        <time>2015-03-14T15:41:27Z</time>
      </trkpt>
      <trkpt lat="40.196883" lon="-5.062383">
        <ele>1736.0</ele>
        <time>2015-03-14T15:41:28Z</time>
      </trkpt>
      <trkpt lat="40.196867" lon="-5.062533">
        <ele>1735.0</ele>
        <time>2015-03-14T15:41:29Z</time>
      </trkpt>
      <trkpt lat="40.196833" lon="-5.062683">
        <ele>1734.0</ele>
        <time>2015-03-14T15:41:30Z</time>
      </trkpt>
      <trkpt lat="40.196783" lon="-5.062850">
        <ele>1734.0</ele>
        <time>2015-03-14T15:41:31Z</time>
      </trkpt>
      <trkpt lat="40.196750" lon="-5.063000">
        <ele>1733.0</ele>
        <time>2015-03-14T15:41:32Z</time>
      </trkpt>
      <trkpt lat="40.196717" lon="-5.063133">
        <ele>1732.0</ele>
        <time>2015-03-14T15:41:33Z</time>
      </trkpt>
      <trkpt lat="40.196667" lon="-5.063283">
        <ele>1732.0</ele>
        <time>2015-03-14T15:41:34Z</time>
      </trkpt>
      <trkpt lat="40.196633" lon="-5.063417">
        <ele>1731.0</ele>
        <time>2015-03-14T15:41:35Z</time>
      </trkpt>
      <trkpt lat="40.196583" lon="-5.063550">
        <ele>1730.0</ele>
        <time>2015-03-14T15:41:36Z</time>
      </trkpt>
      <trkpt lat="40.196533" lon="-5.063667">
        <ele>1728.0</ele>
        <time>2015-03-14T15:41:37Z</time>
      </trkpt>
      <trkpt lat="40.196483" lon="-5.063800">
        <ele>1726.0</ele>
        <time>2015-03-14T15:41:38Z</time>
      </trkpt>
      <trkpt lat="40.196417" lon="-5.063917">
        <ele>1723.0</ele>
        <time>2015-03-14T15:41:39Z</time>
      </trkpt>
      <trkpt lat="40.196350" lon="-5.064033">
        <ele>1719.0</ele>
        <time>2015-03-14T15:41:40Z</time>
      </trkpt>
      <trkpt lat="40.196283" lon="-5.064150">
        <ele>1716.0</ele>
        <time>2015-03-14T15:41:41Z</time>
      </trkpt>
      <trkpt lat="40.196217" lon="-5.064267">
        <ele>1713.0</ele>
        <time>2015-03-14T15:41:42Z</time>
      </trkpt>
      <trkpt lat="40.196167" lon="-5.064400">
        <ele>1710.0</ele>
        <time>2015-03-14T15:41:43Z</time>
      </trkpt>
      <trkpt lat="40.196100" lon="-5.064517">
        <ele>1708.0</ele>
        <time>2015-03-14T15:41:44Z</time>
      </trkpt>
      <trkpt lat="40.196033" lon="-5.064650">
        <ele>1705.0</ele>
        <time>2015-03-14T15:41:45Z</time>
      </trkpt>
      <trkpt lat="40.195967" lon="-5.064767">
        <ele>1703.0</ele>
        <time>2015-03-14T15:41:46Z</time>
      </trkpt>
      <trkpt lat="40.195900" lon="-5.064900">
        <ele>1701.0</ele>
        <time>2015-03-14T15:41:47Z</time>
      </trkpt>
      <trkpt lat="40.195833" lon="-5.065017">
        <ele>1699.0</ele>
        <time>2015-03-14T15:41:48Z</time>
      </trkpt>
      <trkpt lat="40.195767" lon="-5.065150">
        <ele>1697.0</ele>
        <time>2015-03-14T15:41:49Z</time>
      </trkpt>
      <trkpt lat="40.195717" lon="-5.065283">
        <ele>1696.0</ele>
        <time>2015-03-14T15:41:50Z</time>
      </trkpt>
      <trkpt lat="40.195667" lon="-5.065400">
        <ele>1695.0</ele>
        <time>2015-03-14T15:41:51Z</time>
      </trkpt>
      <trkpt lat="40.195617" lon="-5.065517">
        <ele>1693.0</ele>
        <time>2015-03-14T15:41:52Z</time>
      </trkpt>
      <trkpt lat="40.195567" lon="-5.065633">
        <ele>1691.0</ele>
        <time>2015-03-14T15:41:53Z</time>
      </trkpt>
      <trkpt lat="40.195500" lon="-5.065750">
        <ele>1689.0</ele>
        <time>2015-03-14T15:41:54Z</time>
      </trkpt>
      <trkpt lat="40.195433" lon="-5.065867">
        <ele>1686.0</ele>
        <time>2015-03-14T15:41:55Z</time>
      </trkpt>
      <trkpt lat="40.195383" lon="-5.065983">
        <ele>1683.0</ele>
        <time>2015-03-14T15:41:56Z</time>
      </trkpt>
      <trkpt lat="40.195317" lon="-5.066100">
        <ele>1681.0</ele>
        <time>2015-03-14T15:41:57Z</time>
      </trkpt>
      <trkpt lat="40.195250" lon="-5.066217">
        <ele>1679.0</ele>
        <time>2015-03-14T15:41:58Z</time>
      </trkpt>
      <trkpt lat="40.195200" lon="-5.066350">
        <ele>1677.0</ele>
        <time>2015-03-14T15:41:59Z</time>
      </trkpt>
      <trkpt lat="40.195150" lon="-5.066467">
        <ele>1675.0</ele>
        <time>2015-03-14T15:42:00Z</time>
      </trkpt>
      <trkpt lat="40.195100" lon="-5.066583">
        <ele>1673.0</ele>
        <time>2015-03-14T15:42:01Z</time>
      </trkpt>
      <trkpt lat="40.195050" lon="-5.066700">
        <ele>1671.0</ele>
        <time>2015-03-14T15:42:02Z</time>
      </trkpt>
      <trkpt lat="40.195000" lon="-5.066817">
        <ele>1668.0</ele>
        <time>2015-03-14T15:42:03Z</time>
      </trkpt>
      <trkpt lat="40.194950" lon="-5.066950">
        <ele>1665.0</ele>
        <time>2015-03-14T15:42:04Z</time>
      </trkpt>
      <trkpt lat="40.194900" lon="-5.067100">
        <ele>1663.0</ele>
        <time>2015-03-14T15:42:05Z</time>
      </trkpt>
      <trkpt lat="40.194850" lon="-5.067233">
        <ele>1661.0</ele>
        <time>2015-03-14T15:42:06Z</time>
      </trkpt>
      <trkpt lat="40.194800" lon="-5.067367">
        <ele>1660.0</ele>
        <time>2015-03-14T15:42:07Z</time>
      </trkpt>
      <trkpt lat="40.194750" lon="-5.067483">
        <ele>1658.0</ele>
        <time>2015-03-14T15:42:08Z</time>
      </trkpt>
      <trkpt lat="40.194700" lon="-5.067600">
        <ele>1657.0</ele>
        <time>2015-03-14T15:42:09Z</time>
      </trkpt>
      <trkpt lat="40.194650" lon="-5.067717">
        <ele>1656.0</ele>
        <time>2015-03-14T15:42:10Z</time>
      </trkpt>
      <trkpt lat="40.194600" lon="-5.067850">
        <ele>1655.0</ele>
        <time>2015-03-14T15:42:11Z</time>
      </trkpt>
      <trkpt lat="40.194550" lon="-5.067967">
        <ele>1655.0</ele>
        <time>2015-03-14T15:42:12Z</time>
      </trkpt>
      <trkpt lat="40.194517" lon="-5.068083">
        <ele>1654.0</ele>
        <time>2015-03-14T15:42:13Z</time>
      </trkpt>
      <trkpt lat="40.194467" lon="-5.068200">
        <ele>1653.0</ele>
        <time>2015-03-14T15:42:14Z</time>
      </trkpt>
      <trkpt lat="40.194417" lon="-5.068317">
        <ele>1652.0</ele>
        <time>2015-03-14T15:42:15Z</time>
      </trkpt>
      <trkpt lat="40.194367" lon="-5.068433">
        <ele>1651.0</ele>
        <time>2015-03-14T15:42:16Z</time>
      </trkpt>
      <trkpt lat="40.194317" lon="-5.068567">
        <ele>1649.0</ele>
        <time>2015-03-14T15:42:17Z</time>
      </trkpt>
      <trkpt lat="40.194267" lon="-5.068683">
        <ele>1648.0</ele>
        <time>2015-03-14T15:42:18Z</time>
      </trkpt>
      <trkpt lat="40.194217" lon="-5.068800">
        <ele>1646.0</ele>
        <time>2015-03-14T15:42:19Z</time>
      </trkpt>
      <trkpt lat="40.194167" lon="-5.068933">
        <ele>1645.0</ele>
        <time>2015-03-14T15:42:20Z</time>
      </trkpt>
      <trkpt lat="40.194133" lon="-5.069050">
        <ele>1644.0</ele>
        <time>2015-03-14T15:42:21Z</time>
      </trkpt>
      <trkpt lat="40.194083" lon="-5.069167">
        <ele>1643.0</ele>
        <time>2015-03-14T15:42:22Z</time>
      </trkpt>
      <trkpt lat="40.194050" lon="-5.069283">
        <ele>1642.0</ele>
        <time>2015-03-14T15:42:23Z</time>
      </trkpt>
      <trkpt lat="40.194000" lon="-5.069417">
        <ele>1641.0</ele>
        <time>2015-03-14T15:42:24Z</time>
      </trkpt>
      <trkpt lat="40.193950" lon="-5.069550">
        <ele>1640.0</ele>
        <time>2015-03-14T15:42:25Z</time>
      </trkpt>
      <trkpt lat="40.193900" lon="-5.069667">
        <ele>1639.0</ele>
        <time>2015-03-14T15:42:26Z</time>
      </trkpt>
      <trkpt lat="40.193867" lon="-5.069783">
        <ele>1639.0</ele>
        <time>2015-03-14T15:42:27Z</time>
      </trkpt>
      <trkpt lat="40.193833" lon="-5.069917">
        <ele>1638.0</ele>
        <time>2015-03-14T15:42:28Z</time>
      </trkpt>
      <trkpt lat="40.193800" lon="-5.070033">
        <ele>1637.0</ele>
        <time>2015-03-14T15:42:29Z</time>
      </trkpt>
      <trkpt lat="40.193767" lon="-5.070167">
        <ele>1636.0</ele>
        <time>2015-03-14T15:42:30Z</time>
      </trkpt>
      <trkpt lat="40.193733" lon="-5.070300">
        <ele>1636.0</ele>
        <time>2015-03-14T15:42:31Z</time>
      </trkpt>
      <trkpt lat="40.193683" lon="-5.070450">
        <ele>1635.0</ele>
        <time>2015-03-14T15:42:32Z</time>
      </trkpt>
      <trkpt lat="40.193633" lon="-5.070583">
        <ele>1636.0</ele>
        <time>2015-03-14T15:42:33Z</time>
      </trkpt>
      <trkpt lat="40.193600" lon="-5.070717">
        <ele>1636.0</ele>
        <time>2015-03-14T15:42:34Z</time>
      </trkpt>
      <trkpt lat="40.193567" lon="-5.070850">
        <ele>1636.0</ele>
        <time>2015-03-14T15:42:35Z</time>
      </trkpt>
      <trkpt lat="40.193533" lon="-5.070967">
        <ele>1636.0</ele>
        <time>2015-03-14T15:42:36Z</time>
      </trkpt>
      <trkpt lat="40.193500" lon="-5.071100">
        <ele>1635.0</ele>
        <time>2015-03-14T15:42:37Z</time>
      </trkpt>
      <trkpt lat="40.193467" lon="-5.071233">
        <ele>1634.0</ele>
        <time>2015-03-14T15:42:38Z</time>
      </trkpt>
      <trkpt lat="40.193417" lon="-5.071367">
        <ele>1632.0</ele>
        <time>2015-03-14T15:42:39Z</time>
      </trkpt>
      <trkpt lat="40.193383" lon="-5.071500">
        <ele>1632.0</ele>
        <time>2015-03-14T15:42:40Z</time>
      </trkpt>
      <trkpt lat="40.193333" lon="-5.071633">
        <ele>1632.0</ele>
        <time>2015-03-14T15:42:41Z</time>
      </trkpt>
      <trkpt lat="40.193300" lon="-5.071750">
        <ele>1632.0</ele>
        <time>2015-03-14T15:42:42Z</time>
      </trkpt>
      <trkpt lat="40.193267" lon="-5.071867">
        <ele>1633.0</ele>
        <time>2015-03-14T15:42:43Z</time>
      </trkpt>
      <trkpt lat="40.193233" lon="-5.071967">
        <ele>1633.0</ele>
        <time>2015-03-14T15:42:44Z</time>
      </trkpt>
      <trkpt lat="40.193200" lon="-5.072067">
        <ele>1632.0</ele>
        <time>2015-03-14T15:42:45Z</time>
      </trkpt>
      <trkpt lat="40.193167" lon="-5.072167">
        <ele>1630.0</ele>
        <time>2015-03-14T15:42:46Z</time>
      </trkpt>
      <trkpt lat="40.193133" lon="-5.072283">
        <ele>1628.0</ele>
        <time>2015-03-14T15:42:47Z</time>
      </trkpt>
      <trkpt lat="40.193100" lon="-5.072400">
        <ele>1626.0</ele>
        <time>2015-03-14T15:42:48Z</time>
      </trkpt>
      <trkpt lat="40.193067" lon="-5.072517">
        <ele>1624.0</ele>
        <time>2015-03-14T15:42:49Z</time>
      </trkpt>
      <trkpt lat="40.193033" lon="-5.072650">
        <ele>1623.0</ele>
        <time>2015-03-14T15:42:50Z</time>
      </trkpt>
      <trkpt lat="40.193000" lon="-5.072767">
        <ele>1622.0</ele>
        <time>2015-03-14T15:42:51Z</time>
      </trkpt>
      <trkpt lat="40.192967" lon="-5.072883">
        <ele>1621.0</ele>
        <time>2015-03-14T15:42:52Z</time>
      </trkpt>
      <trkpt lat="40.192933" lon="-5.072983">
        <ele>1620.0</ele>
        <time>2015-03-14T15:42:53Z</time>
      </trkpt>
      <trkpt lat="40.192900" lon="-5.073100">
        <ele>1618.0</ele>
        <time>2015-03-14T15:42:54Z</time>
      </trkpt>
      <trkpt lat="40.192883" lon="-5.073217">
        <ele>1616.0</ele>
        <time>2015-03-14T15:42:55Z</time>
      </trkpt>
      <trkpt lat="40.192850" lon="-5.073333">
        <ele>1614.0</ele>
        <time>2015-03-14T15:42:56Z</time>
      </trkpt>
      <trkpt lat="40.192817" lon="-5.073450">
        <ele>1612.0</ele>
        <time>2015-03-14T15:42:57Z</time>
      </trkpt>
      <trkpt lat="40.192783" lon="-5.073550">
        <ele>1610.0</ele>
        <time>2015-03-14T15:42:58Z</time>
      </trkpt>
      <trkpt lat="40.192750" lon="-5.073683">
        <ele>1609.0</ele>
        <time>2015-03-14T15:42:59Z</time>
      </trkpt>
      <trkpt lat="40.192717" lon="-5.073800">
        <ele>1607.0</ele>
        <time>2015-03-14T15:43:00Z</time>
      </trkpt>
      <trkpt lat="40.192667" lon="-5.073917">
        <ele>1607.0</ele>
        <time>2015-03-14T15:43:01Z</time>
      </trkpt>
      <trkpt lat="40.192617" lon="-5.074017">
        <ele>1607.0</ele>
        <time>2015-03-14T15:43:02Z</time>
      </trkpt>
      <trkpt lat="40.192583" lon="-5.074117">
        <ele>1607.0</ele>
        <time>2015-03-14T15:43:03Z</time>
      </trkpt>
      <trkpt lat="40.192533" lon="-5.074217">
        <ele>1606.0</ele>
        <time>2015-03-14T15:43:04Z</time>
      </trkpt>
      <trkpt lat="40.192500" lon="-5.074317">
        <ele>1605.0</ele>
        <time>2015-03-14T15:43:05Z</time>
      </trkpt>
      <trkpt lat="40.192450" lon="-5.074433">
        <ele>1603.0</ele>
        <time>2015-03-14T15:43:06Z</time>
      </trkpt>
      <trkpt lat="40.192400" lon="-5.074550">
        <ele>1602.0</ele>
        <time>2015-03-14T15:43:07Z</time>
      </trkpt>
      <trkpt lat="40.192350" lon="-5.074667">
        <ele>1601.0</ele>
        <time>2015-03-14T15:43:08Z</time>
      </trkpt>
      <trkpt lat="40.192317" lon="-5.074783">
        <ele>1600.0</ele>
        <time>2015-03-14T15:43:09Z</time>
      </trkpt>
      <trkpt lat="40.192267" lon="-5.074900">
        <ele>1600.0</ele>
        <time>2015-03-14T15:43:10Z</time>
      </trkpt>
      <trkpt lat="40.192250" lon="-5.075000">
        <ele>1599.0</ele>
        <time>2015-03-14T15:43:11Z</time>
      </trkpt>
      <trkpt lat="40.192217" lon="-5.075117">
        <ele>1597.0</ele>
        <time>2015-03-14T15:43:12Z</time>
      </trkpt>
      <trkpt lat="40.192167" lon="-5.075233">
        <ele>1595.0</ele>
        <time>2015-03-14T15:43:13Z</time>
      </trkpt>
      <trkpt lat="40.192117" lon="-5.075333">
        <ele>1593.0</ele>
        <time>2015-03-14T15:43:14Z</time>
      </trkpt>
      <trkpt lat="40.192083" lon="-5.075450">
        <ele>1592.0</ele>
        <time>2015-03-14T15:43:15Z</time>
      </trkpt>
      <trkpt lat="40.192033" lon="-5.075550">
        <ele>1590.0</ele>
        <time>2015-03-14T15:43:16Z</time>
      </trkpt>
      <trkpt lat="40.191983" lon="-5.075667">
        <ele>1588.0</ele>
        <time>2015-03-14T15:43:17Z</time>
      </trkpt>
      <trkpt lat="40.191950" lon="-5.075783">
        <ele>1586.0</ele>
        <time>2015-03-14T15:43:18Z</time>
      </trkpt>
      <trkpt lat="40.191900" lon="-5.075900">
        <ele>1584.0</ele>
        <time>2015-03-14T15:43:19Z</time>
      </trkpt>
      <trkpt lat="40.191867" lon="-5.076017">
        <ele>1582.0</ele>
        <time>2015-03-14T15:43:20Z</time>
      </trkpt>
      <trkpt lat="40.191817" lon="-5.076133">
        <ele>1581.0</ele>
        <time>2015-03-14T15:43:21Z</time>
      </trkpt>
      <trkpt lat="40.191767" lon="-5.076250">
        <ele>1580.0</ele>
        <time>2015-03-14T15:43:22Z</time>
      </trkpt>
      <trkpt lat="40.191733" lon="-5.076367">
        <ele>1578.0</ele>
        <time>2015-03-14T15:43:23Z</time>
      </trkpt>
      <trkpt lat="40.191700" lon="-5.076500">
        <ele>1576.0</ele>
        <time>2015-03-14T15:43:24Z</time>
      </trkpt>
      <trkpt lat="40.191650" lon="-5.076617">
        <ele>1574.0</ele>
        <time>2015-03-14T15:43:25Z</time>
      </trkpt>
      <trkpt lat="40.191600" lon="-5.076750">
        <ele>1572.0</ele>
        <time>2015-03-14T15:43:26Z</time>
      </trkpt>
      <trkpt lat="40.191533" lon="-5.076867">
        <ele>1571.0</ele>
        <time>2015-03-14T15:43:27Z</time>
      </trkpt>
      <trkpt lat="40.191483" lon="-5.077000">
        <ele>1570.0</ele>
        <time>2015-03-14T15:43:28Z</time>
      </trkpt>
      <trkpt lat="40.191433" lon="-5.077117">
        <ele>1569.0</ele>
        <time>2015-03-14T15:43:29Z</time>
      </trkpt>
      <trkpt lat="40.191400" lon="-5.077233">
        <ele>1567.0</ele>
        <time>2015-03-14T15:43:30Z</time>
      </trkpt>
      <trkpt lat="40.191350" lon="-5.077350">
        <ele>1566.0</ele>
        <time>2015-03-14T15:43:31Z</time>
      </trkpt>
      <trkpt lat="40.191283" lon="-5.077467">
        <ele>1564.0</ele>
        <time>2015-03-14T15:43:32Z</time>
      </trkpt>
      <trkpt lat="40.191233" lon="-5.077583">
        <ele>1562.0</ele>
        <time>2015-03-14T15:43:33Z</time>
      </trkpt>
      <trkpt lat="40.191200" lon="-5.077717">
        <ele>1560.0</ele>
        <time>2015-03-14T15:43:34Z</time>
      </trkpt>
      <trkpt lat="40.191150" lon="-5.077850">
        <ele>1558.0</ele>
        <time>2015-03-14T15:43:35Z</time>
      </trkpt>
      <trkpt lat="40.191100" lon="-5.077967">
        <ele>1557.0</ele>
        <time>2015-03-14T15:43:36Z</time>
      </trkpt>
      <trkpt lat="40.191067" lon="-5.078100">
        <ele>1556.0</ele>
        <time>2015-03-14T15:43:37Z</time>
      </trkpt>
      <trkpt lat="40.191017" lon="-5.078217">
        <ele>1555.0</ele>
        <time>2015-03-14T15:43:38Z</time>
      </trkpt>
      <trkpt lat="40.190983" lon="-5.078333">
        <ele>1554.0</ele>
        <time>2015-03-14T15:43:39Z</time>
      </trkpt>
      <trkpt lat="40.190950" lon="-5.078450">
        <ele>1553.0</ele>
        <time>2015-03-14T15:43:40Z</time>
      </trkpt>
      <trkpt lat="40.190917" lon="-5.078567">
        <ele>1551.0</ele>
        <time>2015-03-14T15:43:41Z</time>
      </trkpt>
      <trkpt lat="40.190867" lon="-5.078683">
        <ele>1549.0</ele>
        <time>2015-03-14T15:43:42Z</time>
      </trkpt>
      <trkpt lat="40.190833" lon="-5.078800">
        <ele>1547.0</ele>
        <time>2015-03-14T15:43:43Z</time>
      </trkpt>
      <trkpt lat="40.190783" lon="-5.078917">
        <ele>1546.0</ele>
        <time>2015-03-14T15:43:44Z</time>
      </trkpt>
      <trkpt lat="40.190733" lon="-5.079033">
        <ele>1544.0</ele>
        <time>2015-03-14T15:43:45Z</time>
      </trkpt>
      <trkpt lat="40.190683" lon="-5.079167">
        <ele>1542.0</ele>
        <time>2015-03-14T15:43:46Z</time>
      </trkpt>
      <trkpt lat="40.190617" lon="-5.079283">
        <ele>1541.0</ele>
        <time>2015-03-14T15:43:47Z</time>
      </trkpt>
      <trkpt lat="40.190567" lon="-5.079400">
        <ele>1539.0</ele>
        <time>2015-03-14T15:43:48Z</time>
      </trkpt>
      <trkpt lat="40.190500" lon="-5.079500">
        <ele>1538.0</ele>
        <time>2015-03-14T15:43:49Z</time>
      </trkpt>
      <trkpt lat="40.190450" lon="-5.079617">
        <ele>1537.0</ele>
        <time>2015-03-14T15:43:50Z</time>
      </trkpt>
      <trkpt lat="40.190383" lon="-5.079717">
        <ele>1536.0</ele>
        <time>2015-03-14T15:43:51Z</time>
      </trkpt>
      <trkpt lat="40.190317" lon="-5.079817">
        <ele>1533.0</ele>
        <time>2015-03-14T15:43:52Z</time>
      </trkpt>
      <trkpt lat="40.190250" lon="-5.079933">
        <ele>1531.0</ele>
        <time>2015-03-14T15:43:53Z</time>
      </trkpt>
      <trkpt lat="40.190183" lon="-5.080050">
        <ele>1529.0</ele>
        <time>2015-03-14T15:43:54Z</time>
      </trkpt>
      <trkpt lat="40.190117" lon="-5.080167">
        <ele>1528.0</ele>
        <time>2015-03-14T15:43:55Z</time>
      </trkpt>
      <trkpt lat="40.190050" lon="-5.080267">
        <ele>1528.0</ele>
        <time>2015-03-14T15:43:56Z</time>
      </trkpt>
      <trkpt lat="40.189983" lon="-5.080367">
        <ele>1528.0</ele>
        <time>2015-03-14T15:43:57Z</time>
      </trkpt>
      <trkpt lat="40.189933" lon="-5.080467">
        <ele>1528.0</ele>
        <time>2015-03-14T15:43:58Z</time>
      </trkpt>
      <trkpt lat="40.189883" lon="-5.080567">
        <ele>1527.0</ele>
        <time>2015-03-14T15:43:59Z</time>
      </trkpt>
      <trkpt lat="40.189833" lon="-5.080667">
        <ele>1525.0</ele>
        <time>2015-03-14T15:44:00Z</time>
      </trkpt>
      <trkpt lat="40.189783" lon="-5.080767">
        <ele>1523.0</ele>
        <time>2015-03-14T15:44:01Z</time>
      </trkpt>
      <trkpt lat="40.189733" lon="-5.080883">
        <ele>1521.0</ele>
        <time>2015-03-14T15:44:02Z</time>
      </trkpt>
      <trkpt lat="40.189683" lon="-5.081000">
        <ele>1520.0</ele>
        <time>2015-03-14T15:44:03Z</time>
      </trkpt>
      <trkpt lat="40.189617" lon="-5.081100">
        <ele>1519.0</ele>
        <time>2015-03-14T15:44:04Z</time>
      </trkpt>
      <trkpt lat="40.189567" lon="-5.081217">
        <ele>1517.0</ele>
        <time>2015-03-14T15:44:05Z</time>
      </trkpt>
      <trkpt lat="40.189517" lon="-5.081317">
        <ele>1516.0</ele>
        <time>2015-03-14T15:44:06Z</time>
      </trkpt>
      <trkpt lat="40.189467" lon="-5.081417">
        <ele>1513.0</ele>
        <time>2015-03-14T15:44:07Z</time>
      </trkpt>
      <trkpt lat="40.189383" lon="-5.081533">
        <ele>1511.0</ele>
        <time>2015-03-14T15:44:08Z</time>
      </trkpt>
      <trkpt lat="40.189317" lon="-5.081633">
        <ele>1508.0</ele>
        <time>2015-03-14T15:44:09Z</time>
      </trkpt>
      <trkpt lat="40.189233" lon="-5.081750">
        <ele>1506.0</ele>
        <time>2015-03-14T15:44:10Z</time>
      </trkpt>
      <trkpt lat="40.189150" lon="-5.081850">
        <ele>1505.0</ele>
        <time>2015-03-14T15:44:11Z</time>
      </trkpt>
      <trkpt lat="40.189083" lon="-5.081950">
        <ele>1503.0</ele>
        <time>2015-03-14T15:44:12Z</time>
      </trkpt>
      <trkpt lat="40.189000" lon="-5.082067">
        <ele>1501.0</ele>
        <time>2015-03-14T15:44:13Z</time>
      </trkpt>
      <trkpt lat="40.188917" lon="-5.082150">
        <ele>1499.0</ele>
        <time>2015-03-14T15:44:14Z</time>
      </trkpt>
      <trkpt lat="40.188833" lon="-5.082250">
        <ele>1497.0</ele>
        <time>2015-03-14T15:44:15Z</time>
      </trkpt>
      <trkpt lat="40.188750" lon="-5.082350">
        <ele>1495.0</ele>
        <time>2015-03-14T15:44:16Z</time>
      </trkpt>
      <trkpt lat="40.188667" lon="-5.082467">
        <ele>1493.0</ele>
        <time>2015-03-14T15:44:17Z</time>
      </trkpt>
      <trkpt lat="40.188583" lon="-5.082567">
        <ele>1491.0</ele>
        <time>2015-03-14T15:44:18Z</time>
      </trkpt>
      <trkpt lat="40.188517" lon="-5.082667">
        <ele>1490.0</ele>
        <time>2015-03-14T15:44:19Z</time>
      </trkpt>
      <trkpt lat="40.188450" lon="-5.082767">
        <ele>1489.0</ele>
        <time>2015-03-14T15:44:20Z</time>
      </trkpt>
      <trkpt lat="40.188383" lon="-5.082867">
        <ele>1487.0</ele>
        <time>2015-03-14T15:44:21Z</time>
      </trkpt>
      <trkpt lat="40.188317" lon="-5.082983">
        <ele>1485.0</ele>
        <time>2015-03-14T15:44:22Z</time>
      </trkpt>
      <trkpt lat="40.188267" lon="-5.083100">
        <ele>1483.0</ele>
        <time>2015-03-14T15:44:23Z</time>
      </trkpt>
      <trkpt lat="40.188200" lon="-5.083217">
        <ele>1481.0</ele>
        <time>2015-03-14T15:44:24Z</time>
      </trkpt>
      <trkpt lat="40.188150" lon="-5.083350">
        <ele>1480.0</ele>
        <time>2015-03-14T15:44:25Z</time>
      </trkpt>
      <trkpt lat="40.188100" lon="-5.083467">
        <ele>1479.0</ele>
        <time>2015-03-14T15:44:26Z</time>
      </trkpt>
      <trkpt lat="40.188050" lon="-5.083583">
        <ele>1478.0</ele>
        <time>2015-03-14T15:44:27Z</time>
      </trkpt>
      <trkpt lat="40.188017" lon="-5.083700">
        <ele>1477.0</ele>
        <time>2015-03-14T15:44:28Z</time>
      </trkpt>
      <trkpt lat="40.187967" lon="-5.083817">
        <ele>1475.0</ele>
        <time>2015-03-14T15:44:29Z</time>
      </trkpt>
      <trkpt lat="40.187917" lon="-5.083933">
        <ele>1474.0</ele>
        <time>2015-03-14T15:44:30Z</time>
      </trkpt>
      <trkpt lat="40.187867" lon="-5.084050">
        <ele>1473.0</ele>
        <time>2015-03-14T15:44:31Z</time>
      </trkpt>
      <trkpt lat="40.187817" lon="-5.084167">
        <ele>1473.0</ele>
        <time>2015-03-14T15:44:32Z</time>
      </trkpt>
      <trkpt lat="40.187767" lon="-5.084267">
        <ele>1473.0</ele>
        <time>2015-03-14T15:44:33Z</time>
      </trkpt>
      <trkpt lat="40.187717" lon="-5.084383">
        <ele>1472.0</ele>
        <time>2015-03-14T15:44:34Z</time>
      </trkpt>
      <trkpt lat="40.187683" lon="-5.084483">
        <ele>1470.0</ele>
        <time>2015-03-14T15:44:35Z</time>
      </trkpt>
      <trkpt lat="40.187633" lon="-5.084600">
        <ele>1468.0</ele>
        <time>2015-03-14T15:44:36Z</time>
      </trkpt>
      <trkpt lat="40.187567" lon="-5.084717">
        <ele>1466.0</ele>
        <time>2015-03-14T15:44:37Z</time>
      </trkpt>
      <trkpt lat="40.187517" lon="-5.084833">
        <ele>1465.0</ele>
        <time>2015-03-14T15:44:38Z</time>
      </trkpt>
      <trkpt lat="40.187450" lon="-5.084950">
        <ele>1463.0</ele>
        <time>2015-03-14T15:44:39Z</time>
      </trkpt>
      <trkpt lat="40.187383" lon="-5.085050">
        <ele>1463.0</ele>
        <time>2015-03-14T15:44:40Z</time>
      </trkpt>
      <trkpt lat="40.187317" lon="-5.085133">
        <ele>1463.0</ele>
        <time>2015-03-14T15:44:41Z</time>
      </trkpt>
      <trkpt lat="40.187267" lon="-5.085233">
        <ele>1462.0</ele>
        <time>2015-03-14T15:44:42Z</time>
      </trkpt>
      <trkpt lat="40.187200" lon="-5.085333">
        <ele>1460.0</ele>
        <time>2015-03-14T15:44:43Z</time>
      </trkpt>
      <trkpt lat="40.187117" lon="-5.085433">
        <ele>1459.0</ele>
        <time>2015-03-14T15:44:44Z</time>
      </trkpt>
      <trkpt lat="40.187050" lon="-5.085550">
        <ele>1457.0</ele>
        <time>2015-03-14T15:44:45Z</time>
      </trkpt>
      <trkpt lat="40.186967" lon="-5.085650">
        <ele>1456.0</ele>
        <time>2015-03-14T15:44:46Z</time>
      </trkpt>
      <trkpt lat="40.186883" lon="-5.085750">
        <ele>1456.0</ele>
        <time>2015-03-14T15:44:47Z</time>
      </trkpt>
      <trkpt lat="40.186817" lon="-5.085833">
        <ele>1455.0</ele>
        <time>2015-03-14T15:44:48Z</time>
      </trkpt>
      <trkpt lat="40.186733" lon="-5.085917">
        <ele>1453.0</ele>
        <time>2015-03-14T15:44:49Z</time>
      </trkpt>
      <trkpt lat="40.186667" lon="-5.086017">
        <ele>1451.0</ele>
        <time>2015-03-14T15:44:50Z</time>
      </trkpt>
      <trkpt lat="40.186583" lon="-5.086117">
        <ele>1448.0</ele>
        <time>2015-03-14T15:44:51Z</time>
      </trkpt>
      <trkpt lat="40.186517" lon="-5.086217">
        <ele>1446.0</ele>
        <time>2015-03-14T15:44:52Z</time>
      </trkpt>
      <trkpt lat="40.186433" lon="-5.086317">
        <ele>1445.0</ele>
        <time>2015-03-14T15:44:53Z</time>
      </trkpt>
      <trkpt lat="40.186350" lon="-5.086417">
        <ele>1444.0</ele>
        <time>2015-03-14T15:44:54Z</time>
      </trkpt>
      <trkpt lat="40.186267" lon="-5.086483">
        <ele>1444.0</ele>
        <time>2015-03-14T15:44:55Z</time>
      </trkpt>
      <trkpt lat="40.186183" lon="-5.086567">
        <ele>1443.0</ele>
        <time>2015-03-14T15:44:56Z</time>
      </trkpt>
      <trkpt lat="40.186100" lon="-5.086633">
        <ele>1442.0</ele>
        <time>2015-03-14T15:44:57Z</time>
      </trkpt>
      <trkpt lat="40.186017" lon="-5.086733">
        <ele>1440.0</ele>
        <time>2015-03-14T15:44:58Z</time>
      </trkpt>
      <trkpt lat="40.185933" lon="-5.086833">
        <ele>1439.0</ele>
        <time>2015-03-14T15:44:59Z</time>
      </trkpt>
      <trkpt lat="40.185867" lon="-5.086933">
        <ele>1438.0</ele>
        <time>2015-03-14T15:45:00Z</time>
      </trkpt>
      <trkpt lat="40.185783" lon="-5.087000">
        <ele>1438.0</ele>
        <time>2015-03-14T15:45:01Z</time>
      </trkpt>
      <trkpt lat="40.185717" lon="-5.087083">
        <ele>1436.0</ele>
        <time>2015-03-14T15:45:02Z</time>
      </trkpt>
      <trkpt lat="40.185633" lon="-5.087150">
        <ele>1434.0</ele>
        <time>2015-03-14T15:45:03Z</time>
      </trkpt>
      <trkpt lat="40.185567" lon="-5.087250">
        <ele>1432.0</ele>
        <time>2015-03-14T15:45:04Z</time>
      </trkpt>
      <trkpt lat="40.185483" lon="-5.087350">
        <ele>1431.0</ele>
        <time>2015-03-14T15:45:05Z</time>
      </trkpt>
      <trkpt lat="40.185417" lon="-5.087450">
        <ele>1430.0</ele>
        <time>2015-03-14T15:45:06Z</time>
      </trkpt>
      <trkpt lat="40.185333" lon="-5.087550">
        <ele>1429.0</ele>
        <time>2015-03-14T15:45:07Z</time>
      </trkpt>
      <trkpt lat="40.185267" lon="-5.087633">
        <ele>1428.0</ele>
        <time>2015-03-14T15:45:08Z</time>
      </trkpt>
      <trkpt lat="40.185200" lon="-5.087717">
        <ele>1426.0</ele>
        <time>2015-03-14T15:45:09Z</time>
      </trkpt>
      <trkpt lat="40.185133" lon="-5.087817">
        <ele>1424.0</ele>
        <time>2015-03-14T15:45:10Z</time>
      </trkpt>
      <trkpt lat="40.185067" lon="-5.087933">
        <ele>1421.0</ele>
        <time>2015-03-14T15:45:11Z</time>
      </trkpt>
      <trkpt lat="40.185017" lon="-5.088050">
        <ele>1419.0</ele>
        <time>2015-03-14T15:45:12Z</time>
      </trkpt>
      <trkpt lat="40.184950" lon="-5.088167">
        <ele>1418.0</ele>
        <time>2015-03-14T15:45:13Z</time>
      </trkpt>
      <trkpt lat="40.184900" lon="-5.088283">
        <ele>1417.0</ele>
        <time>2015-03-14T15:45:14Z</time>
      </trkpt>
      <trkpt lat="40.184850" lon="-5.088400">
        <ele>1417.0</ele>
        <time>2015-03-14T15:45:15Z</time>
      </trkpt>
      <trkpt lat="40.184800" lon="-5.088533">
        <ele>1417.0</ele>
        <time>2015-03-14T15:45:16Z</time>
      </trkpt>
      <trkpt lat="40.184750" lon="-5.088650">
        <ele>1417.0</ele>
        <time>2015-03-14T15:45:17Z</time>
      </trkpt>
      <trkpt lat="40.184700" lon="-5.088750">
        <ele>1417.0</ele>
        <time>2015-03-14T15:45:18Z</time>
      </trkpt>
      <trkpt lat="40.184667" lon="-5.088867">
        <ele>1416.0</ele>
        <time>2015-03-14T15:45:19Z</time>
      </trkpt>
      <trkpt lat="40.184617" lon="-5.088967">
        <ele>1415.0</ele>
        <time>2015-03-14T15:45:20Z</time>
      </trkpt>
      <trkpt lat="40.184583" lon="-5.089067">
        <ele>1414.0</ele>
        <time>2015-03-14T15:45:21Z</time>
      </trkpt>
      <trkpt lat="40.184533" lon="-5.089200">
        <ele>1411.0</ele>
        <time>2015-03-14T15:45:22Z</time>
      </trkpt>
      <trkpt lat="40.184483" lon="-5.089333">
        <ele>1410.0</ele>
        <time>2015-03-14T15:45:23Z</time>
      </trkpt>
      <trkpt lat="40.184417" lon="-5.089450">
        <ele>1409.0</ele>
        <time>2015-03-14T15:45:24Z</time>
      </trkpt>
      <trkpt lat="40.184367" lon="-5.089567">
        <ele>1409.0</ele>
        <time>2015-03-14T15:45:25Z</time>
      </trkpt>
      <trkpt lat="40.184333" lon="-5.089667">
        <ele>1409.0</ele>
        <time>2015-03-14T15:45:26Z</time>
      </trkpt>
      <trkpt lat="40.184283" lon="-5.089767">
        <ele>1407.0</ele>
        <time>2015-03-14T15:45:27Z</time>
      </trkpt>
      <trkpt lat="40.184233" lon="-5.089867">
        <ele>1405.0</ele>
        <time>2015-03-14T15:45:28Z</time>
      </trkpt>
      <trkpt lat="40.184183" lon="-5.089983">
        <ele>1403.0</ele>
        <time>2015-03-14T15:45:29Z</time>
      </trkpt>
      <trkpt lat="40.184133" lon="-5.090100">
        <ele>1401.0</ele>
        <time>2015-03-14T15:45:30Z</time>
      </trkpt>
      <trkpt lat="40.184083" lon="-5.090217">
        <ele>1399.0</ele>
        <time>2015-03-14T15:45:31Z</time>
      </trkpt>
      <trkpt lat="40.184033" lon="-5.090333">
        <ele>1398.0</ele>
        <time>2015-03-14T15:45:32Z</time>
      </trkpt>
      <trkpt lat="40.183967" lon="-5.090450">
        <ele>1396.0</ele>
        <time>2015-03-14T15:45:33Z</time>
      </trkpt>
      <trkpt lat="40.183917" lon="-5.090550">
        <ele>1395.0</ele>
        <time>2015-03-14T15:45:34Z</time>
      </trkpt>
      <trkpt lat="40.183867" lon="-5.090667">
        <ele>1393.0</ele>
        <time>2015-03-14T15:45:35Z</time>
      </trkpt>
      <trkpt lat="40.183817" lon="-5.090767">
        <ele>1391.0</ele>
        <time>2015-03-14T15:45:36Z</time>
      </trkpt>
      <trkpt lat="40.183750" lon="-5.090867">
        <ele>1389.0</ele>
        <time>2015-03-14T15:45:37Z</time>
      </trkpt>
      <trkpt lat="40.183700" lon="-5.090983">
        <ele>1386.0</ele>
        <time>2015-03-14T15:45:38Z</time>
      </trkpt>
      <trkpt lat="40.183633" lon="-5.091100">
        <ele>1383.0</ele>
        <time>2015-03-14T15:45:39Z</time>
      </trkpt>
      <trkpt lat="40.183583" lon="-5.091217">
        <ele>1382.0</ele>
        <time>2015-03-14T15:45:40Z</time>
      </trkpt>
      <trkpt lat="40.183517" lon="-5.091333">
        <ele>1380.0</ele>
        <time>2015-03-14T15:45:41Z</time>
      </trkpt>
      <trkpt lat="40.183450" lon="-5.091450">
        <ele>1379.0</ele>
        <time>2015-03-14T15:45:42Z</time>
      </trkpt>
      <trkpt lat="40.183417" lon="-5.091550">
        <ele>1377.0</ele>
        <time>2015-03-14T15:45:43Z</time>
      </trkpt>
      <trkpt lat="40.183367" lon="-5.091667">
        <ele>1375.0</ele>
        <time>2015-03-14T15:45:44Z</time>
      </trkpt>
      <trkpt lat="40.183333" lon="-5.091783">
        <ele>1372.0</ele>
        <time>2015-03-14T15:45:45Z</time>
      </trkpt>
      <trkpt lat="40.183283" lon="-5.091900">
        <ele>1370.0</ele>
        <time>2015-03-14T15:45:46Z</time>
      </trkpt>
      <trkpt lat="40.183217" lon="-5.092017">
        <ele>1368.0</ele>
        <time>2015-03-14T15:45:47Z</time>
      </trkpt>
      <trkpt lat="40.183150" lon="-5.092133">
        <ele>1366.0</ele>
        <time>2015-03-14T15:45:48Z</time>
      </trkpt>
      <trkpt lat="40.183100" lon="-5.092233">
        <ele>1364.0</ele>
        <time>2015-03-14T15:45:49Z</time>
      </trkpt>
      <trkpt lat="40.183050" lon="-5.092333">
        <ele>1362.0</ele>
        <time>2015-03-14T15:45:50Z</time>
      </trkpt>
      <trkpt lat="40.182983" lon="-5.092450">
        <ele>1360.0</ele>
        <time>2015-03-14T15:45:51Z</time>
      </trkpt>
      <trkpt lat="40.182933" lon="-5.092550">
        <ele>1358.0</ele>
        <time>2015-03-14T15:45:52Z</time>
      </trkpt>
      <trkpt lat="40.182883" lon="-5.092667">
        <ele>1356.0</ele>
        <time>2015-03-14T15:45:53Z</time>
      </trkpt>
      <trkpt lat="40.182817" lon="-5.092783">
        <ele>1354.0</ele>
        <time>2015-03-14T15:45:54Z</time>
      </trkpt>
      <trkpt lat="40.182750" lon="-5.092900">
        <ele>1352.0</ele>
        <time>2015-03-14T15:45:55Z</time>
      </trkpt>
      <trkpt lat="40.182700" lon="-5.093000">
        <ele>1351.0</ele>
        <time>2015-03-14T15:45:56Z</time>
      </trkpt>
      <trkpt lat="40.182650" lon="-5.093083">
        <ele>1350.0</ele>
        <time>2015-03-14T15:45:57Z</time>
      </trkpt>
      <trkpt lat="40.182583" lon="-5.093183">
        <ele>1348.0</ele>
        <time>2015-03-14T15:45:58Z</time>
      </trkpt>
      <trkpt lat="40.182533" lon="-5.093283">
        <ele>1346.0</ele>
        <time>2015-03-14T15:45:59Z</time>
      </trkpt>
      <trkpt lat="40.182467" lon="-5.093367">
        <ele>1345.0</ele>
        <time>2015-03-14T15:46:00Z</time>
      </trkpt>
      <trkpt lat="40.182417" lon="-5.093467">
        <ele>1343.0</ele>
        <time>2015-03-14T15:46:01Z</time>
      </trkpt>
      <trkpt lat="40.182367" lon="-5.093567">
        <ele>1340.0</ele>
        <time>2015-03-14T15:46:02Z</time>
      </trkpt>
      <trkpt lat="40.182317" lon="-5.093667">
        <ele>1338.0</ele>
        <time>2015-03-14T15:46:03Z</time>
      </trkpt>
      <trkpt lat="40.182267" lon="-5.093767">
        <ele>1336.0</ele>
        <time>2015-03-14T15:46:04Z</time>
      </trkpt>
      <trkpt lat="40.182217" lon="-5.093867">
        <ele>1334.0</ele>
        <time>2015-03-14T15:46:05Z</time>
      </trkpt>
      <trkpt lat="40.182183" lon="-5.093950">
        <ele>1332.0</ele>
        <time>2015-03-14T15:46:06Z</time>
      </trkpt>
      <trkpt lat="40.182133" lon="-5.094050">
        <ele>1330.0</ele>
        <time>2015-03-14T15:46:07Z</time>
      </trkpt>
      <trkpt lat="40.182083" lon="-5.094133">
        <ele>1328.0</ele>
        <time>2015-03-14T15:46:08Z</time>
      </trkpt>
      <trkpt lat="40.182033" lon="-5.094217">
        <ele>1327.0</ele>
        <time>2015-03-14T15:46:09Z</time>
      </trkpt>
      <trkpt lat="40.181983" lon="-5.094317">
        <ele>1326.0</ele>
        <time>2015-03-14T15:46:10Z</time>
      </trkpt>
      <trkpt lat="40.181933" lon="-5.094400">
        <ele>1324.0</ele>
        <time>2015-03-14T15:46:11Z</time>
      </trkpt>
      <trkpt lat="40.181900" lon="-5.094500">
        <ele>1322.0</ele>
        <time>2015-03-14T15:46:12Z</time>
      </trkpt>
      <trkpt lat="40.181850" lon="-5.094600">
        <ele>1320.0</ele>
        <time>2015-03-14T15:46:13Z</time>
      </trkpt>
      <trkpt lat="40.181800" lon="-5.094700">
        <ele>1319.0</ele>
        <time>2015-03-14T15:46:14Z</time>
      </trkpt>
      <trkpt lat="40.181750" lon="-5.094783">
        <ele>1318.0</ele>
        <time>2015-03-14T15:46:15Z</time>
      </trkpt>
      <trkpt lat="40.181717" lon="-5.094883">
        <ele>1317.0</ele>
        <time>2015-03-14T15:46:16Z</time>
      </trkpt>
      <trkpt lat="40.181667" lon="-5.094983">
        <ele>1317.0</ele>
        <time>2015-03-14T15:46:17Z</time>
      </trkpt>
      <trkpt lat="40.181633" lon="-5.095067">
        <ele>1316.0</ele>
        <time>2015-03-14T15:46:18Z</time>
      </trkpt>
      <trkpt lat="40.181583" lon="-5.095167">
        <ele>1315.0</ele>
        <time>2015-03-14T15:46:19Z</time>
      </trkpt>
      <trkpt lat="40.181550" lon="-5.095267">
        <ele>1313.0</ele>
        <time>2015-03-14T15:46:20Z</time>
      </trkpt>
      <trkpt lat="40.181517" lon="-5.095367">
        <ele>1312.0</ele>
        <time>2015-03-14T15:46:21Z</time>
      </trkpt>
      <trkpt lat="40.181483" lon="-5.095467">
        <ele>1310.0</ele>
        <time>2015-03-14T15:46:22Z</time>
      </trkpt>
      <trkpt lat="40.181450" lon="-5.095567">
        <ele>1308.0</ele>
        <time>2015-03-14T15:46:23Z</time>
      </trkpt>
      <trkpt lat="40.181400" lon="-5.095667">
        <ele>1306.0</ele>
        <time>2015-03-14T15:46:24Z</time>
      </trkpt>
      <trkpt lat="40.181367" lon="-5.095783">
        <ele>1303.0</ele>
        <time>2015-03-14T15:46:25Z</time>
      </trkpt>
      <trkpt lat="40.181333" lon="-5.095883">
        <ele>1301.0</ele>
        <time>2015-03-14T15:46:26Z</time>
      </trkpt>
      <trkpt lat="40.181300" lon="-5.095983">
        <ele>1300.0</ele>
        <time>2015-03-14T15:46:27Z</time>
      </trkpt>
      <trkpt lat="40.181267" lon="-5.096083">
        <ele>1298.0</ele>
        <time>2015-03-14T15:46:28Z</time>
      </trkpt>
      <trkpt lat="40.181217" lon="-5.096183">
        <ele>1296.0</ele>
        <time>2015-03-14T15:46:29Z</time>
      </trkpt>
      <trkpt lat="40.181183" lon="-5.096267">
        <ele>1295.0</ele>
        <time>2015-03-14T15:46:30Z</time>
      </trkpt>
      <trkpt lat="40.181150" lon="-5.096367">
        <ele>1293.0</ele>
        <time>2015-03-14T15:46:31Z</time>
      </trkpt>
      <trkpt lat="40.181117" lon="-5.096467">
        <ele>1291.0</ele>
        <time>2015-03-14T15:46:32Z</time>
      </trkpt>
      <trkpt lat="40.181083" lon="-5.096567">
        <ele>1289.0</ele>
        <time>2015-03-14T15:46:33Z</time>
      </trkpt>
      <trkpt lat="40.181033" lon="-5.096650">
        <ele>1288.0</ele>
        <time>2015-03-14T15:46:34Z</time>
      </trkpt>
      <trkpt lat="40.181000" lon="-5.096750">
        <ele>1286.0</ele>
        <time>2015-03-14T15:46:35Z</time>
      </trkpt>
      <trkpt lat="40.180967" lon="-5.096850">
        <ele>1284.0</ele>
        <time>2015-03-14T15:46:36Z</time>
      </trkpt>
      <trkpt lat="40.180933" lon="-5.096950">
        <ele>1282.0</ele>
        <time>2015-03-14T15:46:37Z</time>
      </trkpt>
      <trkpt lat="40.180900" lon="-5.097067">
        <ele>1280.0</ele>
        <time>2015-03-14T15:46:38Z</time>
      </trkpt>
      <trkpt lat="40.180867" lon="-5.097167">
        <ele>1278.0</ele>
        <time>2015-03-14T15:46:39Z</time>
      </trkpt>
      <trkpt lat="40.180833" lon="-5.097267">
        <ele>1276.0</ele>
        <time>2015-03-14T15:46:40Z</time>
      </trkpt>
      <trkpt lat="40.180783" lon="-5.097367">
        <ele>1274.0</ele>
        <time>2015-03-14T15:46:41Z</time>
      </trkpt>
      <trkpt lat="40.180750" lon="-5.097467">
        <ele>1272.0</ele>
        <time>2015-03-14T15:46:42Z</time>
      </trkpt>
      <trkpt lat="40.180717" lon="-5.097567">
        <ele>1270.0</ele>
        <time>2015-03-14T15:46:43Z</time>
      </trkpt>
      <trkpt lat="40.180700" lon="-5.097683">
        <ele>1268.0</ele>
        <time>2015-03-14T15:46:44Z</time>
      </trkpt>
      <trkpt lat="40.180650" lon="-5.097800">
        <ele>1265.0</ele>
        <time>2015-03-14T15:46:45Z</time>
      </trkpt>
      <trkpt lat="40.180617" lon="-5.097900">
        <ele>1263.0</ele>
        <time>2015-03-14T15:46:46Z</time>
      </trkpt>
      <trkpt lat="40.180567" lon="-5.098017">
        <ele>1261.0</ele>
        <time>2015-03-14T15:46:47Z</time>
      </trkpt>
      <trkpt lat="40.180533" lon="-5.098117">
        <ele>1260.0</ele>
        <time>2015-03-14T15:46:48Z</time>
      </trkpt>
      <trkpt lat="40.180500" lon="-5.098217">
        <ele>1258.0</ele>
        <time>2015-03-14T15:46:49Z</time>
      </trkpt>
      <trkpt lat="40.180467" lon="-5.098333">
        <ele>1256.0</ele>
        <time>2015-03-14T15:46:50Z</time>
      </trkpt>
      <trkpt lat="40.180433" lon="-5.098433">
        <ele>1254.0</ele>
        <time>2015-03-14T15:46:51Z</time>
      </trkpt>
      <trkpt lat="40.180383" lon="-5.098550">
        <ele>1253.0</ele>
        <time>2015-03-14T15:46:52Z</time>
      </trkpt>
      <trkpt lat="40.180350" lon="-5.098650">
        <ele>1251.0</ele>
        <time>2015-03-14T15:46:53Z</time>
      </trkpt>
      <trkpt lat="40.180317" lon="-5.098750">
        <ele>1249.0</ele>
        <time>2015-03-14T15:46:54Z</time>
      </trkpt>
      <trkpt lat="40.180267" lon="-5.098850">
        <ele>1248.0</ele>
        <time>2015-03-14T15:46:55Z</time>
      </trkpt>
      <trkpt lat="40.180233" lon="-5.098950">
        <ele>1246.0</ele>
        <time>2015-03-14T15:46:56Z</time>
      </trkpt>
      <trkpt lat="40.180183" lon="-5.099050">
        <ele>1245.0</ele>
        <time>2015-03-14T15:46:57Z</time>
      </trkpt>
      <trkpt lat="40.180150" lon="-5.099150">
        <ele>1242.0</ele>
        <time>2015-03-14T15:46:58Z</time>
      </trkpt>
      <trkpt lat="40.180100" lon="-5.099267">
        <ele>1240.0</ele>
        <time>2015-03-14T15:46:59Z</time>
      </trkpt>
      <trkpt lat="40.180033" lon="-5.099367">
        <ele>1239.0</ele>
        <time>2015-03-14T15:47:00Z</time>
      </trkpt>
      <trkpt lat="40.179967" lon="-5.099433">
        <ele>1238.0</ele>
        <time>2015-03-14T15:47:01Z</time>
      </trkpt>
      <trkpt lat="40.179900" lon="-5.099517">
        <ele>1237.0</ele>
        <time>2015-03-14T15:47:02Z</time>
      </trkpt>
      <trkpt lat="40.179833" lon="-5.099583">
        <ele>1235.0</ele>
        <time>2015-03-14T15:47:03Z</time>
      </trkpt>
      <trkpt lat="40.179783" lon="-5.099683">
        <ele>1232.0</ele>
        <time>2015-03-14T15:47:04Z</time>
      </trkpt>
      <trkpt lat="40.179717" lon="-5.099783">
        <ele>1229.0</ele>
        <time>2015-03-14T15:47:05Z</time>
      </trkpt>
      <trkpt lat="40.179633" lon="-5.099883">
        <ele>1228.0</ele>
        <time>2015-03-14T15:47:06Z</time>
      </trkpt>
      <trkpt lat="40.179567" lon="-5.099950">
        <ele>1227.0</ele>
        <time>2015-03-14T15:47:07Z</time>
      </trkpt>
      <trkpt lat="40.179500" lon="-5.100017">
        <ele>1225.0</ele>
        <time>2015-03-14T15:47:08Z</time>
      </trkpt>
      <trkpt lat="40.179433" lon="-5.100083">
        <ele>1223.0</ele>
        <time>2015-03-14T15:47:09Z</time>
      </trkpt>
      <trkpt lat="40.179367" lon="-5.100150">
        <ele>1220.0</ele>
        <time>2015-03-14T15:47:10Z</time>
      </trkpt>
      <trkpt lat="40.179317" lon="-5.100233">
        <ele>1217.0</ele>
        <time>2015-03-14T15:47:11Z</time>
      </trkpt>
      <trkpt lat="40.179233" lon="-5.100317">
        <ele>1214.0</ele>
        <time>2015-03-14T15:47:12Z</time>
      </trkpt>
      <trkpt lat="40.179167" lon="-5.100417">
        <ele>1212.0</ele>
        <time>2015-03-14T15:47:13Z</time>
      </trkpt>
      <trkpt lat="40.179100" lon="-5.100500">
        <ele>1211.0</ele>
        <time>2015-03-14T15:47:14Z</time>
      </trkpt>
      <trkpt lat="40.179017" lon="-5.100583">
        <ele>1210.0</ele>
        <time>2015-03-14T15:47:15Z</time>
      </trkpt>
      <trkpt lat="40.178967" lon="-5.100667">
        <ele>1209.0</ele>
        <time>2015-03-14T15:47:16Z</time>
      </trkpt>
      <trkpt lat="40.178900" lon="-5.100733">
        <ele>1208.0</ele>
        <time>2015-03-14T15:47:17Z</time>
      </trkpt>
      <trkpt lat="40.178833" lon="-5.100817">
        <ele>1206.0</ele>
        <time>2015-03-14T15:47:18Z</time>
      </trkpt>
      <trkpt lat="40.178767" lon="-5.100900">
        <ele>1204.0</ele>
        <time>2015-03-14T15:47:19Z</time>
      </trkpt>
      <trkpt lat="40.178700" lon="-5.100983">
        <ele>1201.0</ele>
        <time>2015-03-14T15:47:20Z</time>
      </trkpt>
      <trkpt lat="40.178633" lon="-5.101083">
        <ele>1199.0</ele>
        <time>2015-03-14T15:47:21Z</time>
      </trkpt>
      <trkpt lat="40.178567" lon="-5.101183">
        <ele>1199.0</ele>
        <time>2015-03-14T15:47:22Z</time>
      </trkpt>
      <trkpt lat="40.178500" lon="-5.101267">
        <ele>1198.0</ele>
        <time>2015-03-14T15:47:23Z</time>
      </trkpt>
      <trkpt lat="40.178433" lon="-5.101367">
        <ele>1198.0</ele>
        <time>2015-03-14T15:47:24Z</time>
      </trkpt>
      <trkpt lat="40.178383" lon="-5.101450">
        <ele>1197.0</ele>
        <time>2015-03-14T15:47:25Z</time>
      </trkpt>
      <trkpt lat="40.178317" lon="-5.101517">
        <ele>1195.0</ele>
        <time>2015-03-14T15:47:26Z</time>
      </trkpt>
      <trkpt lat="40.178233" lon="-5.101600">
        <ele>1194.0</ele>
        <time>2015-03-14T15:47:27Z</time>
      </trkpt>
      <trkpt lat="40.178167" lon="-5.101683">
        <ele>1193.0</ele>
        <time>2015-03-14T15:47:28Z</time>
      </trkpt>
      <trkpt lat="40.178117" lon="-5.101767">
        <ele>1193.0</ele>
        <time>2015-03-14T15:47:29Z</time>
      </trkpt>
      <trkpt lat="40.178067" lon="-5.101850">
        <ele>1193.0</ele>
        <time>2015-03-14T15:47:30Z</time>
      </trkpt>
      <trkpt lat="40.178017" lon="-5.101933">
        <ele>1192.0</ele>
        <time>2015-03-14T15:47:31Z</time>
      </trkpt>
      <trkpt lat="40.177967" lon="-5.102000">
        <ele>1190.0</ele>
        <time>2015-03-14T15:47:32Z</time>
      </trkpt>
      <trkpt lat="40.177917" lon="-5.102100">
        <ele>1188.0</ele>
        <time>2015-03-14T15:47:33Z</time>
      </trkpt>
      <trkpt lat="40.177867" lon="-5.102183">
        <ele>1187.0</ele>
        <time>2015-03-14T15:47:34Z</time>
      </trkpt>
      <trkpt lat="40.177817" lon="-5.102283">
        <ele>1185.0</ele>
        <time>2015-03-14T15:47:35Z</time>
      </trkpt>
      <trkpt lat="40.177783" lon="-5.102367">
        <ele>1184.0</ele>
        <time>2015-03-14T15:47:36Z</time>
      </trkpt>
      <trkpt lat="40.177733" lon="-5.102450">
        <ele>1183.0</ele>
        <time>2015-03-14T15:47:37Z</time>
      </trkpt>
      <trkpt lat="40.177683" lon="-5.102533">
        <ele>1181.0</ele>
        <time>2015-03-14T15:47:38Z</time>
      </trkpt>
      <trkpt lat="40.177633" lon="-5.102633">
        <ele>1179.0</ele>
        <time>2015-03-14T15:47:39Z</time>
      </trkpt>
      <trkpt lat="40.177583" lon="-5.102733">
        <ele>1177.0</ele>
        <time>2015-03-14T15:47:40Z</time>
      </trkpt>
      <trkpt lat="40.177533" lon="-5.102817">
        <ele>1175.0</ele>
        <time>2015-03-14T15:47:41Z</time>
      </trkpt>
      <trkpt lat="40.177483" lon="-5.102917">
        <ele>1173.0</ele>
        <time>2015-03-14T15:47:42Z</time>
      </trkpt>
      <trkpt lat="40.177433" lon="-5.103000">
        <ele>1171.0</ele>
        <time>2015-03-14T15:47:43Z</time>
      </trkpt>
      <trkpt lat="40.177383" lon="-5.103083">
        <ele>1169.0</ele>
        <time>2015-03-14T15:47:44Z</time>
      </trkpt>
      <trkpt lat="40.177333" lon="-5.103167">
        <ele>1167.0</ele>
        <time>2015-03-14T15:47:45Z</time>
      </trkpt>
      <trkpt lat="40.177283" lon="-5.103250">
        <ele>1165.0</ele>
        <time>2015-03-14T15:47:46Z</time>
      </trkpt>
      <trkpt lat="40.177250" lon="-5.103333">
        <ele>1163.0</ele>
        <time>2015-03-14T15:47:47Z</time>
      </trkpt>
      <trkpt lat="40.177200" lon="-5.103417">
        <ele>1162.0</ele>
        <time>2015-03-14T15:47:48Z</time>
      </trkpt>
      <trkpt lat="40.177150" lon="-5.103517">
        <ele>1160.0</ele>
        <time>2015-03-14T15:47:49Z</time>
      </trkpt>
      <trkpt lat="40.177100" lon="-5.103600">
        <ele>1158.0</ele>
        <time>2015-03-14T15:47:50Z</time>
      </trkpt>
      <trkpt lat="40.177050" lon="-5.103683">
        <ele>1156.0</ele>
        <time>2015-03-14T15:47:51Z</time>
      </trkpt>
      <trkpt lat="40.177017" lon="-5.103783">
        <ele>1154.0</ele>
        <time>2015-03-14T15:47:52Z</time>
      </trkpt>
      <trkpt lat="40.176967" lon="-5.103867">
        <ele>1152.0</ele>
        <time>2015-03-14T15:47:53Z</time>
      </trkpt>
      <trkpt lat="40.176933" lon="-5.103950">
        <ele>1150.0</ele>
        <time>2015-03-14T15:47:54Z</time>
      </trkpt>
      <trkpt lat="40.176883" lon="-5.104033">
        <ele>1148.0</ele>
        <time>2015-03-14T15:47:55Z</time>
      </trkpt>
      <trkpt lat="40.176850" lon="-5.104133">
        <ele>1146.0</ele>
        <time>2015-03-14T15:47:56Z</time>
      </trkpt>
      <trkpt lat="40.176817" lon="-5.104233">
        <ele>1144.0</ele>
        <time>2015-03-14T15:47:57Z</time>
      </trkpt>
      <trkpt lat="40.176767" lon="-5.104317">
        <ele>1142.0</ele>
        <time>2015-03-14T15:47:58Z</time>
      </trkpt>
      <trkpt lat="40.176733" lon="-5.104400">
        <ele>1141.0</ele>
        <time>2015-03-14T15:47:59Z</time>
      </trkpt>
      <trkpt lat="40.176683" lon="-5.104483">
        <ele>1139.0</ele>
        <time>2015-03-14T15:48:00Z</time>
      </trkpt>
      <trkpt lat="40.176650" lon="-5.104567">
        <ele>1137.0</ele>
        <time>2015-03-14T15:48:01Z</time>
      </trkpt>
      <trkpt lat="40.176617" lon="-5.104650">
        <ele>1135.0</ele>
        <time>2015-03-14T15:48:02Z</time>
      </trkpt>
      <trkpt lat="40.176583" lon="-5.104733">
        <ele>1132.0</ele>
        <time>2015-03-14T15:48:03Z</time>
      </trkpt>
      <trkpt lat="40.176533" lon="-5.104817">
        <ele>1129.0</ele>
        <time>2015-03-14T15:48:04Z</time>
      </trkpt>
      <trkpt lat="40.176483" lon="-5.104883">
        <ele>1127.0</ele>
        <time>2015-03-14T15:48:05Z</time>
      </trkpt>
      <trkpt lat="40.176433" lon="-5.104950">
        <ele>1126.0</ele>
        <time>2015-03-14T15:48:06Z</time>
      </trkpt>
      <trkpt lat="40.176383" lon="-5.105033">
        <ele>1126.0</ele>
        <time>2015-03-14T15:48:07Z</time>
      </trkpt>
      <trkpt lat="40.176333" lon="-5.105117">
        <ele>1127.0</ele>
        <time>2015-03-14T15:48:08Z</time>
      </trkpt>
      <trkpt lat="40.176283" lon="-5.105183">
        <ele>1127.0</ele>
        <time>2015-03-14T15:48:09Z</time>
      </trkpt>
      <trkpt lat="40.176233" lon="-5.105233">
        <ele>1128.0</ele>
        <time>2015-03-14T15:48:10Z</time>
      </trkpt>
      <trkpt lat="40.176183" lon="-5.105283">
        <ele>1127.0</ele>
        <time>2015-03-14T15:48:11Z</time>
      </trkpt>
      <trkpt lat="40.176117" lon="-5.105333">
        <ele>1126.0</ele>
        <time>2015-03-14T15:48:12Z</time>
      </trkpt>
      <trkpt lat="40.176083" lon="-5.105400">
        <ele>1125.0</ele>
        <time>2015-03-14T15:48:13Z</time>
      </trkpt>
      <trkpt lat="40.176033" lon="-5.105467">
        <ele>1123.0</ele>
        <time>2015-03-14T15:48:14Z</time>
      </trkpt>
      <trkpt lat="40.176000" lon="-5.105550">
        <ele>1121.0</ele>
        <time>2015-03-14T15:48:15Z</time>
      </trkpt>
      <trkpt lat="40.175983" lon="-5.105617">
        <ele>1119.0</ele>
        <time>2015-03-14T15:48:16Z</time>
      </trkpt>
      <trkpt lat="40.175950" lon="-5.105683">
        <ele>1116.0</ele>
        <time>2015-03-14T15:48:17Z</time>
      </trkpt>
      <trkpt lat="40.175900" lon="-5.105767">
        <ele>1112.0</ele>
        <time>2015-03-14T15:48:18Z</time>
      </trkpt>
      <trkpt lat="40.175867" lon="-5.105850">
        <ele>1109.0</ele>
        <time>2015-03-14T15:48:19Z</time>
      </trkpt>
      <trkpt lat="40.175817" lon="-5.105967">
        <ele>1107.0</ele>
        <time>2015-03-14T15:48:20Z</time>
      </trkpt>
      <trkpt lat="40.175767" lon="-5.106067">
        <ele>1106.0</ele>
        <time>2015-03-14T15:48:21Z</time>
      </trkpt>
      <trkpt lat="40.175717" lon="-5.106167">
        <ele>1107.0</ele>
        <time>2015-03-14T15:48:22Z</time>
      </trkpt>
      <trkpt lat="40.175683" lon="-5.106233">
        <ele>1107.0</ele>
        <time>2015-03-14T15:48:23Z</time>
      </trkpt>
      <trkpt lat="40.175650" lon="-5.106317">
        <ele>1106.0</ele>
        <time>2015-03-14T15:48:24Z</time>
      </trkpt>
      <trkpt lat="40.175617" lon="-5.106400">
        <ele>1103.0</ele>
        <time>2015-03-14T15:48:25Z</time>
      </trkpt>
      <trkpt lat="40.175583" lon="-5.106500">
        <ele>1101.0</ele>
        <time>2015-03-14T15:48:26Z</time>
      </trkpt>
      <trkpt lat="40.175550" lon="-5.106600">
        <ele>1099.0</ele>
        <time>2015-03-14T15:48:27Z</time>
      </trkpt>
      <trkpt lat="40.175517" lon="-5.106700">
        <ele>1098.0</ele>
        <time>2015-03-14T15:48:28Z</time>
      </trkpt>
      <trkpt lat="40.175483" lon="-5.106800">
        <ele>1098.0</ele>
        <time>2015-03-14T15:48:29Z</time>
      </trkpt>
      <trkpt lat="40.175450" lon="-5.106900">
        <ele>1098.0</ele>
        <time>2015-03-14T15:48:30Z</time>
      </trkpt>
      <trkpt lat="40.175433" lon="-5.107000">
        <ele>1097.0</ele>
        <time>2015-03-14T15:48:31Z</time>
      </trkpt>
      <trkpt lat="40.175400" lon="-5.107100">
        <ele>1097.0</ele>
        <time>2015-03-14T15:48:32Z</time>
      </trkpt>
      <trkpt lat="40.175367" lon="-5.107200">
        <ele>1096.0</ele>
        <time>2015-03-14T15:48:33Z</time>
      </trkpt>
      <trkpt lat="40.175333" lon="-5.107300">
        <ele>1095.0</ele>
        <time>2015-03-14T15:48:34Z</time>
      </trkpt>
      <trkpt lat="40.175283" lon="-5.107417">
        <ele>1095.0</ele>
        <time>2015-03-14T15:48:35Z</time>
      </trkpt>
      <trkpt lat="40.175250" lon="-5.107533">
        <ele>1095.0</ele>
        <time>2015-03-14T15:48:36Z</time>
      </trkpt>
      <trkpt lat="40.175233" lon="-5.107650">
        <ele>1097.0</ele>
        <time>2015-03-14T15:48:37Z</time>
      </trkpt>
      <trkpt lat="40.175233" lon="-5.107783">
        <ele>1098.0</ele>
        <time>2015-03-14T15:48:38Z</time>
      </trkpt>
      <trkpt lat="40.175217" lon="-5.107900">
        <ele>1100.0</ele>
        <time>2015-03-14T15:48:39Z</time>
      </trkpt>
      <trkpt lat="40.175217" lon="-5.108017">
        <ele>1101.0</ele>
        <time>2015-03-14T15:48:40Z</time>
      </trkpt>
      <trkpt lat="40.175200" lon="-5.108117">
        <ele>1101.0</ele>
        <time>2015-03-14T15:48:41Z</time>
      </trkpt>
      <trkpt lat="40.175200" lon="-5.108233">
        <ele>1101.0</ele>
        <time>2015-03-14T15:48:42Z</time>
      </trkpt>
      <trkpt lat="40.175167" lon="-5.108333">
        <ele>1101.0</ele>
        <time>2015-03-14T15:48:43Z</time>
      </trkpt>
      <trkpt lat="40.175133" lon="-5.108400">
        <ele>1101.0</ele>
        <time>2015-03-14T15:48:44Z</time>
      </trkpt>
      <trkpt lat="40.175067" lon="-5.108433">
        <ele>1100.0</ele>
        <time>2015-03-14T15:48:45Z</time>
      </trkpt>
      <trkpt lat="40.175000" lon="-5.108433">
        <ele>1099.0</ele>
        <time>2015-03-14T15:48:46Z</time>
      </trkpt>
      <trkpt lat="40.174933" lon="-5.108400">
        <ele>1099.0</ele>
        <time>2015-03-14T15:48:47Z</time>
      </trkpt>
      <trkpt lat="40.174883" lon="-5.108350">
        <ele>1099.0</ele>
        <time>2015-03-14T15:48:48Z</time>
      </trkpt>
      <trkpt lat="40.174867" lon="-5.108267">
        <ele>1100.0</ele>
        <time>2015-03-14T15:48:49Z</time>
      </trkpt>
      <trkpt lat="40.174867" lon="-5.108167">
        <ele>1100.0</ele>
        <time>2015-03-14T15:48:50Z</time>
      </trkpt>
      <trkpt lat="40.174883" lon="-5.108067">
        <ele>1099.0</ele>
        <time>2015-03-14T15:48:51Z</time>
      </trkpt>
      <trkpt lat="40.174933" lon="-5.107950">
        <ele>1098.0</ele>
        <time>2015-03-14T15:48:52Z</time>
      </trkpt>
      <trkpt lat="40.175000" lon="-5.107867">
        <ele>1098.0</ele>
        <time>2015-03-14T15:48:53Z</time>
      </trkpt>
      <trkpt lat="40.175083" lon="-5.107783">
        <ele>1099.0</ele>
        <time>2015-03-14T15:48:54Z</time>
      </trkpt>
      <trkpt lat="40.175183" lon="-5.107717">
        <ele>1098.0</ele>
        <time>2015-03-14T15:48:55Z</time>
      </trkpt>
      <trkpt lat="40.175283" lon="-5.107683">
        <ele>1097.0</ele>
        <time>2015-03-14T15:48:56Z</time>
      </trkpt>
      <trkpt lat="40.175400" lon="-5.107650">
        <ele>1097.0</ele>
        <time>2015-03-14T15:48:57Z</time>
      </trkpt>
      <trkpt lat="40.175500" lon="-5.107650">
        <ele>1097.0</ele>
        <time>2015-03-14T15:48:58Z</time>
      </trkpt>
      <trkpt lat="40.175617" lon="-5.107683">
        <ele>1097.0</ele>
        <time>2015-03-14T15:48:59Z</time>
      </trkpt>
      <trkpt lat="40.175733" lon="-5.107750">
        <ele>1096.0</ele>
        <time>2015-03-14T15:49:00Z</time>
      </trkpt>
      <trkpt lat="40.175817" lon="-5.107833">
        <ele>1097.0</ele>
        <time>2015-03-14T15:49:01Z</time>
      </trkpt>
      <trkpt lat="40.175883" lon="-5.107950">
        <ele>1097.0</ele>
        <time>2015-03-14T15:49:02Z</time>
      </trkpt>
      <trkpt lat="40.175950" lon="-5.108067">
        <ele>1098.0</ele>
        <time>2015-03-14T15:49:03Z</time>
      </trkpt>
      <trkpt lat="40.175983" lon="-5.108183">
        <ele>1098.0</ele>
        <time>2015-03-14T15:49:04Z</time>
      </trkpt>
      <trkpt lat="40.176017" lon="-5.108300">
        <ele>1098.0</ele>
        <time>2015-03-14T15:49:05Z</time>
      </trkpt>
      <trkpt lat="40.176033" lon="-5.108400">
        <ele>1097.0</ele>
        <time>2015-03-14T15:49:06Z</time>
      </trkpt>
      <trkpt lat="40.176050" lon="-5.108517">
        <ele>1096.0</ele>
        <time>2015-03-14T15:49:07Z</time>
      </trkpt>
      <trkpt lat="40.176050" lon="-5.108633">
        <ele>1095.0</ele>
        <time>2015-03-14T15:49:08Z</time>
      </trkpt>
      <trkpt lat="40.176033" lon="-5.108750">
        <ele>1094.0</ele>
        <time>2015-03-14T15:49:09Z</time>
      </trkpt>
      <trkpt lat="40.176033" lon="-5.108867">
        <ele>1094.0</ele>
        <time>2015-03-14T15:49:10Z</time>
      </trkpt>
      <trkpt lat="40.176017" lon="-5.108967">
        <ele>1093.0</ele>
        <time>2015-03-14T15:49:11Z</time>
      </trkpt>
      <trkpt lat="40.176000" lon="-5.109067">
        <ele>1092.0</ele>
        <time>2015-03-14T15:49:12Z</time>
      </trkpt>
      <trkpt lat="40.175983" lon="-5.109183">
        <ele>1091.0</ele>
        <time>2015-03-14T15:49:13Z</time>
      </trkpt>
      <trkpt lat="40.175950" lon="-5.109300">
        <ele>1091.0</ele>
        <time>2015-03-14T15:49:14Z</time>
      </trkpt>
      <trkpt lat="40.175933" lon="-5.109400">
        <ele>1090.0</ele>
        <time>2015-03-14T15:49:15Z</time>
      </trkpt>
      <trkpt lat="40.175900" lon="-5.109517">
        <ele>1090.0</ele>
        <time>2015-03-14T15:49:16Z</time>
      </trkpt>
      <trkpt lat="40.175867" lon="-5.109617">
        <ele>1091.0</ele>
        <time>2015-03-14T15:49:17Z</time>
      </trkpt>
      <trkpt lat="40.175833" lon="-5.109700">
        <ele>1090.0</ele>
        <time>2015-03-14T15:49:18Z</time>
      </trkpt>
      <trkpt lat="40.175783" lon="-5.109800">
        <ele>1090.0</ele>
        <time>2015-03-14T15:49:19Z</time>
      </trkpt>
      <trkpt lat="40.175750" lon="-5.109900">
        <ele>1090.0</ele>
        <time>2015-03-14T15:49:20Z</time>
      </trkpt>
      <trkpt lat="40.175700" lon="-5.110000">
        <ele>1090.0</ele>
        <time>2015-03-14T15:49:21Z</time>
      </trkpt>
      <trkpt lat="40.175667" lon="-5.110100">
        <ele>1091.0</ele>
        <time>2015-03-14T15:49:22Z</time>
      </trkpt>
      <trkpt lat="40.175617" lon="-5.110200">
        <ele>1092.0</ele>
        <time>2015-03-14T15:49:23Z</time>
      </trkpt>
      <trkpt lat="40.175600" lon="-5.110267">
        <ele>1093.0</ele>
        <time>2015-03-14T15:49:24Z</time>
      </trkpt>
      <trkpt lat="40.175567" lon="-5.110350">
        <ele>1094.0</ele>
        <time>2015-03-14T15:49:25Z</time>
      </trkpt>
      <trkpt lat="40.175550" lon="-5.110433">
        <ele>1094.0</ele>
        <time>2015-03-14T15:49:26Z</time>
      </trkpt>
      <trkpt lat="40.175533" lon="-5.110500">
        <ele>1094.0</ele>
        <time>2015-03-14T15:49:27Z</time>
      </trkpt>
      <trkpt lat="40.175500" lon="-5.110550">
        <ele>1094.0</ele>
        <time>2015-03-14T15:49:28Z</time>
      </trkpt>
      <trkpt lat="40.175467" lon="-5.110583">
        <ele>1092.0</ele>
        <time>2015-03-14T15:49:29Z</time>
      </trkpt>
      <trkpt lat="40.175400" lon="-5.110583">
        <ele>1090.0</ele>
        <time>2015-03-14T15:49:30Z</time>
      </trkpt>
      <trkpt lat="40.175333" lon="-5.110550">
        <ele>1090.0</ele>
        <time>2015-03-14T15:49:31Z</time>
      </trkpt>
      <trkpt lat="40.175283" lon="-5.110517">
        <ele>1090.0</ele>
        <time>2015-03-14T15:49:32Z</time>
      </trkpt>
      <trkpt lat="40.175233" lon="-5.110433">
        <ele>1091.0</ele>
        <time>2015-03-14T15:49:33Z</time>
      </trkpt>
      <trkpt lat="40.175200" lon="-5.110333">
        <ele>1091.0</ele>
        <time>2015-03-14T15:49:34Z</time>
      </trkpt>
      <trkpt lat="40.175200" lon="-5.110233">
        <ele>1091.0</ele>
        <time>2015-03-14T15:49:35Z</time>
      </trkpt>
      <trkpt lat="40.175200" lon="-5.110100">
        <ele>1090.0</ele>
        <time>2015-03-14T15:49:36Z</time>
      </trkpt>
      <trkpt lat="40.175233" lon="-5.109983">
        <ele>1089.0</ele>
        <time>2015-03-14T15:49:37Z</time>
      </trkpt>
      <trkpt lat="40.175267" lon="-5.109867">
        <ele>1087.0</ele>
        <time>2015-03-14T15:49:38Z</time>
      </trkpt>
      <trkpt lat="40.175333" lon="-5.109750">
        <ele>1086.0</ele>
        <time>2015-03-14T15:49:39Z</time>
      </trkpt>
      <trkpt lat="40.175400" lon="-5.109650">
        <ele>1084.0</ele>
        <time>2015-03-14T15:49:40Z</time>
      </trkpt>
      <trkpt lat="40.175483" lon="-5.109567">
        <ele>1083.0</ele>
        <time>2015-03-14T15:49:41Z</time>
      </trkpt>
      <trkpt lat="40.175600" lon="-5.109500">
        <ele>1082.0</ele>
        <time>2015-03-14T15:49:42Z</time>
      </trkpt>
      <trkpt lat="40.175717" lon="-5.109483">
        <ele>1080.0</ele>
        <time>2015-03-14T15:49:43Z</time>
      </trkpt>
      <trkpt lat="40.175833" lon="-5.109500">
        <ele>1079.0</ele>
        <time>2015-03-14T15:49:44Z</time>
      </trkpt>
      <trkpt lat="40.175950" lon="-5.109533">
        <ele>1080.0</ele>
        <time>2015-03-14T15:49:45Z</time>
      </trkpt>
      <trkpt lat="40.176067" lon="-5.109583">
        <ele>1081.0</ele>
        <time>2015-03-14T15:49:46Z</time>
      </trkpt>
      <trkpt lat="40.176150" lon="-5.109633">
        <ele>1083.0</ele>
        <time>2015-03-14T15:49:47Z</time>
      </trkpt>
      <trkpt lat="40.176250" lon="-5.109683">
        <ele>1084.0</ele>
        <time>2015-03-14T15:49:48Z</time>
      </trkpt>
      <trkpt lat="40.176350" lon="-5.109733">
        <ele>1085.0</ele>
        <time>2015-03-14T15:49:49Z</time>
      </trkpt>
      <trkpt lat="40.176433" lon="-5.109783">
        <ele>1085.0</ele>
        <time>2015-03-14T15:49:50Z</time>
      </trkpt>
      <trkpt lat="40.176517" lon="-5.109867">
        <ele>1085.0</ele>
        <time>2015-03-14T15:49:51Z</time>
      </trkpt>
      <trkpt lat="40.176617" lon="-5.109950">
        <ele>1085.0</ele>
        <time>2015-03-14T15:49:52Z</time>
      </trkpt>
      <trkpt lat="40.176683" lon="-5.110050">
        <ele>1086.0</ele>
        <time>2015-03-14T15:49:53Z</time>
      </trkpt>
      <trkpt lat="40.176750" lon="-5.110133">
        <ele>1086.0</ele>
        <time>2015-03-14T15:49:54Z</time>
      </trkpt>
      <trkpt lat="40.176800" lon="-5.110233">
        <ele>1085.0</ele>
        <time>2015-03-14T15:49:55Z</time>
      </trkpt>
      <trkpt lat="40.176817" lon="-5.110333">
        <ele>1085.0</ele>
        <time>2015-03-14T15:49:56Z</time>
      </trkpt>
      <trkpt lat="40.176833" lon="-5.110450">
        <ele>1084.0</ele>
        <time>2015-03-14T15:49:57Z</time>
      </trkpt>
      <trkpt lat="40.176833" lon="-5.110550">
        <ele>1083.0</ele>
        <time>2015-03-14T15:49:58Z</time>
      </trkpt>
      <trkpt lat="40.176850" lon="-5.110650">
        <ele>1082.0</ele>
        <time>2015-03-14T15:49:59Z</time>
      </trkpt>
      <trkpt lat="40.176850" lon="-5.110733">
        <ele>1082.0</ele>
        <time>2015-03-14T15:50:00Z</time>
      </trkpt>
      <trkpt lat="40.176850" lon="-5.110833">
        <ele>1081.0</ele>
        <time>2015-03-14T15:50:01Z</time>
      </trkpt>
      <trkpt lat="40.176850" lon="-5.110917">
        <ele>1080.0</ele>
        <time>2015-03-14T15:50:02Z</time>
      </trkpt>
      <trkpt lat="40.176833" lon="-5.111017">
        <ele>1079.0</ele>
        <time>2015-03-14T15:50:03Z</time>
      </trkpt>
      <trkpt lat="40.176817" lon="-5.111100">
        <ele>1078.0</ele>
        <time>2015-03-14T15:50:04Z</time>
      </trkpt>
      <trkpt lat="40.176783" lon="-5.111200">
        <ele>1077.0</ele>
        <time>2015-03-14T15:50:05Z</time>
      </trkpt>
      <trkpt lat="40.176767" lon="-5.111283">
        <ele>1077.0</ele>
        <time>2015-03-14T15:50:06Z</time>
      </trkpt>
      <trkpt lat="40.176750" lon="-5.111367">
        <ele>1078.0</ele>
        <time>2015-03-14T15:50:07Z</time>
      </trkpt>
      <trkpt lat="40.176733" lon="-5.111467">
        <ele>1077.0</ele>
        <time>2015-03-14T15:50:08Z</time>
      </trkpt>
      <trkpt lat="40.176717" lon="-5.111567">
        <ele>1077.0</ele>
        <time>2015-03-14T15:50:09Z</time>
      </trkpt>
      <trkpt lat="40.176700" lon="-5.111650">
        <ele>1077.0</ele>
        <time>2015-03-14T15:50:10Z</time>
      </trkpt>
      <trkpt lat="40.176667" lon="-5.111733">
        <ele>1077.0</ele>
        <time>2015-03-14T15:50:11Z</time>
      </trkpt>
      <trkpt lat="40.176650" lon="-5.111833">
        <ele>1077.0</ele>
        <time>2015-03-14T15:50:12Z</time>
      </trkpt>
      <trkpt lat="40.176617" lon="-5.111933">
        <ele>1077.0</ele>
        <time>2015-03-14T15:50:13Z</time>
      </trkpt>
      <trkpt lat="40.176583" lon="-5.112017">
        <ele>1077.0</ele>
        <time>2015-03-14T15:50:14Z</time>
      </trkpt>
      <trkpt lat="40.176567" lon="-5.112100">
        <ele>1076.0</ele>
        <time>2015-03-14T15:50:15Z</time>
      </trkpt>
      <trkpt lat="40.176533" lon="-5.112200">
        <ele>1077.0</ele>
        <time>2015-03-14T15:50:16Z</time>
      </trkpt>
      <trkpt lat="40.176500" lon="-5.112300">
        <ele>1077.0</ele>
        <time>2015-03-14T15:50:17Z</time>
      </trkpt>
      <trkpt lat="40.176467" lon="-5.112383">
        <ele>1077.0</ele>
        <time>2015-03-14T15:50:18Z</time>
      </trkpt>
      <trkpt lat="40.176450" lon="-5.112450">
        <ele>1078.0</ele>
        <time>2015-03-14T15:50:19Z</time>
      </trkpt>
      <trkpt lat="40.176417" lon="-5.112533">
        <ele>1077.0</ele>
        <time>2015-03-14T15:50:20Z</time>
      </trkpt>
      <trkpt lat="40.176400" lon="-5.112600">
        <ele>1076.0</ele>
        <time>2015-03-14T15:50:21Z</time>
      </trkpt>
      <trkpt lat="40.176367" lon="-5.112683">
        <ele>1074.0</ele>
        <time>2015-03-14T15:50:22Z</time>
      </trkpt>
      <trkpt lat="40.176333" lon="-5.112750">
        <ele>1073.0</ele>
        <time>2015-03-14T15:50:23Z</time>
      </trkpt>
      <trkpt lat="40.176317" lon="-5.112817">
        <ele>1071.0</ele>
        <time>2015-03-14T15:50:24Z</time>
      </trkpt>
      <trkpt lat="40.176300" lon="-5.112900">
        <ele>1069.0</ele>
        <time>2015-03-14T15:50:25Z</time>
      </trkpt>
      <trkpt lat="40.176267" lon="-5.112983">
        <ele>1067.0</ele>
        <time>2015-03-14T15:50:26Z</time>
      </trkpt>
      <trkpt lat="40.176233" lon="-5.113050">
        <ele>1065.0</ele>
        <time>2015-03-14T15:50:27Z</time>
      </trkpt>
      <trkpt lat="40.176183" lon="-5.113133">
        <ele>1064.0</ele>
        <time>2015-03-14T15:50:28Z</time>
      </trkpt>
      <trkpt lat="40.176133" lon="-5.113200">
        <ele>1063.0</ele>
        <time>2015-03-14T15:50:29Z</time>
      </trkpt>
      <trkpt lat="40.176100" lon="-5.113283">
        <ele>1062.0</ele>
        <time>2015-03-14T15:50:30Z</time>
      </trkpt>
      <trkpt lat="40.176067" lon="-5.113350">
        <ele>1062.0</ele>
        <time>2015-03-14T15:50:31Z</time>
      </trkpt>
      <trkpt lat="40.176033" lon="-5.113417">
        <ele>1061.0</ele>
        <time>2015-03-14T15:50:32Z</time>
      </trkpt>
      <trkpt lat="40.176000" lon="-5.113483">
        <ele>1060.0</ele>
        <time>2015-03-14T15:50:33Z</time>
      </trkpt>
      <trkpt lat="40.175967" lon="-5.113567">
        <ele>1059.0</ele>
        <time>2015-03-14T15:50:34Z</time>
      </trkpt>
      <trkpt lat="40.175917" lon="-5.113633">
        <ele>1058.0</ele>
        <time>2015-03-14T15:50:35Z</time>
      </trkpt>
      <trkpt lat="40.175883" lon="-5.113700">
        <ele>1057.0</ele>
        <time>2015-03-14T15:50:36Z</time>
      </trkpt>
      <trkpt lat="40.175850" lon="-5.113783">
        <ele>1055.0</ele>
        <time>2015-03-14T15:50:37Z</time>
      </trkpt>
      <trkpt lat="40.175833" lon="-5.113850">
        <ele>1053.0</ele>
        <time>2015-03-14T15:50:38Z</time>
      </trkpt>
      <trkpt lat="40.175800" lon="-5.113933">
        <ele>1051.0</ele>
        <time>2015-03-14T15:50:39Z</time>
      </trkpt>
      <trkpt lat="40.175767" lon="-5.114033">
        <ele>1050.0</ele>
        <time>2015-03-14T15:50:40Z</time>
      </trkpt>
      <trkpt lat="40.175733" lon="-5.114133">
        <ele>1048.0</ele>
        <time>2015-03-14T15:50:41Z</time>
      </trkpt>
      <trkpt lat="40.175700" lon="-5.114217">
        <ele>1048.0</ele>
        <time>2015-03-14T15:50:42Z</time>
      </trkpt>
      <trkpt lat="40.175683" lon="-5.114283">
        <ele>1048.0</ele>
        <time>2015-03-14T15:50:43Z</time>
      </trkpt>
      <trkpt lat="40.175650" lon="-5.114350">
        <ele>1048.0</ele>
        <time>2015-03-14T15:50:44Z</time>
      </trkpt>
      <trkpt lat="40.175633" lon="-5.114417">
        <ele>1047.0</ele>
        <time>2015-03-14T15:50:45Z</time>
      </trkpt>
      <trkpt lat="40.175633" lon="-5.114483">
        <ele>1047.0</ele>
        <time>2015-03-14T15:50:46Z</time>
      </trkpt>
      <trkpt lat="40.175617" lon="-5.114533">
        <ele>1047.0</ele>
        <time>2015-03-14T15:50:47Z</time>
      </trkpt>
      <trkpt lat="40.175600" lon="-5.114583">
        <ele>1046.0</ele>
        <time>2015-03-14T15:50:48Z</time>
      </trkpt>
      <trkpt lat="40.175583" lon="-5.114650">
        <ele>1045.0</ele>
        <time>2015-03-14T15:50:49Z</time>
      </trkpt>
      <trkpt lat="40.175567" lon="-5.114700">
        <ele>1044.0</ele>
        <time>2015-03-14T15:50:50Z</time>
      </trkpt>
      <trkpt lat="40.175533" lon="-5.114767">
        <ele>1043.0</ele>
        <time>2015-03-14T15:50:51Z</time>
      </trkpt>
      <trkpt lat="40.175517" lon="-5.114833">
        <ele>1043.0</ele>
        <time>2015-03-14T15:50:52Z</time>
      </trkpt>
      <trkpt lat="40.175483" lon="-5.114900">
        <ele>1043.0</ele>
        <time>2015-03-14T15:50:53Z</time>
      </trkpt>
      <trkpt lat="40.175467" lon="-5.114967">
        <ele>1043.0</ele>
        <time>2015-03-14T15:50:54Z</time>
      </trkpt>
      <trkpt lat="40.175450" lon="-5.115017">
        <ele>1043.0</ele>
        <time>2015-03-14T15:50:55Z</time>
      </trkpt>
      <trkpt lat="40.175433" lon="-5.115067">
        <ele>1042.0</ele>
        <time>2015-03-14T15:50:56Z</time>
      </trkpt>
      <trkpt lat="40.175417" lon="-5.115117">
        <ele>1039.0</ele>
        <time>2015-03-14T15:50:57Z</time>
      </trkpt>
      <trkpt lat="40.175400" lon="-5.115183">
        <ele>1036.0</ele>
        <time>2015-03-14T15:50:58Z</time>
      </trkpt>
      <trkpt lat="40.175367" lon="-5.115250">
        <ele>1033.0</ele>
        <time>2015-03-14T15:50:59Z</time>
      </trkpt>
      <trkpt lat="40.175333" lon="-5.115317">
        <ele>1030.0</ele>
        <time>2015-03-14T15:51:00Z</time>
      </trkpt>
      <trkpt lat="40.175300" lon="-5.115400">
        <ele>1027.0</ele>
        <time>2015-03-14T15:51:01Z</time>
      </trkpt>
      <trkpt lat="40.175267" lon="-5.115467">
        <ele>1026.0</ele>
        <time>2015-03-14T15:51:02Z</time>
      </trkpt>
      <trkpt lat="40.175250" lon="-5.115517">
        <ele>1024.0</ele>
        <time>2015-03-14T15:51:03Z</time>
      </trkpt>
      <trkpt lat="40.175233" lon="-5.115550">
        <ele>1022.0</ele>
        <time>2015-03-14T15:51:04Z</time>
      </trkpt>
      <trkpt lat="40.175217" lon="-5.115617">
        <ele>1019.0</ele>
        <time>2015-03-14T15:51:05Z</time>
      </trkpt>
      <trkpt lat="40.175200" lon="-5.115667">
        <ele>1014.0</ele>
        <time>2015-03-14T15:51:06Z</time>
      </trkpt>
      <trkpt lat="40.175183" lon="-5.115750">
        <ele>1010.0</ele>
        <time>2015-03-14T15:51:07Z</time>
      </trkpt>
      <trkpt lat="40.175150" lon="-5.115833">
        <ele>1008.0</ele>
        <time>2015-03-14T15:51:08Z</time>
      </trkpt>
      <trkpt lat="40.175133" lon="-5.115917">
        <ele>1006.0</ele>
        <time>2015-03-14T15:51:09Z</time>
      </trkpt>
      <trkpt lat="40.175117" lon="-5.116000">
        <ele>1005.0</ele>
        <time>2015-03-14T15:51:10Z</time>
      </trkpt>
      <trkpt lat="40.175100" lon="-5.116067">
        <ele>1004.0</ele>
        <time>2015-03-14T15:51:11Z</time>
      </trkpt>
      <trkpt lat="40.175083" lon="-5.116117">
        <ele>1001.0</ele>
        <time>2015-03-14T15:51:12Z</time>
      </trkpt>
      <trkpt lat="40.175067" lon="-5.116183">
        <ele>1000.0</ele>
        <time>2015-03-14T15:51:13Z</time>
      </trkpt>
      <trkpt lat="40.175033" lon="-5.116233">
        <ele>998.0</ele>
        <time>2015-03-14T15:51:14Z</time>
      </trkpt>
      <trkpt lat="40.175017" lon="-5.116300">
        <ele>997.0</ele>
        <time>2015-03-14T15:51:15Z</time>
      </trkpt>
      <trkpt lat="40.175000" lon="-5.116350">
        <ele>997.0</ele>
        <time>2015-03-14T15:51:16Z</time>
      </trkpt>
      <trkpt lat="40.175000" lon="-5.116400">
        <ele>995.0</ele>
        <time>2015-03-14T15:51:17Z</time>
      </trkpt>
      <trkpt lat="40.174983" lon="-5.116450">
        <ele>992.0</ele>
        <time>2015-03-14T15:51:18Z</time>
      </trkpt>
      <trkpt lat="40.174967" lon="-5.116500">
        <ele>989.0</ele>
        <time>2015-03-14T15:51:19Z</time>
      </trkpt>
      <trkpt lat="40.174950" lon="-5.116550">
        <ele>986.0</ele>
        <time>2015-03-14T15:51:20Z</time>
      </trkpt>
      <trkpt lat="40.174917" lon="-5.116617">
        <ele>983.0</ele>
        <time>2015-03-14T15:51:21Z</time>
      </trkpt>
      <trkpt lat="40.174900" lon="-5.116683">
        <ele>981.0</ele>
        <time>2015-03-14T15:51:22Z</time>
      </trkpt>
      <trkpt lat="40.174883" lon="-5.116750">
        <ele>979.0</ele>
        <time>2015-03-14T15:51:23Z</time>
      </trkpt>
      <trkpt lat="40.174867" lon="-5.116817">
        <ele>977.0</ele>
        <time>2015-03-14T15:51:24Z</time>
      </trkpt>
      <trkpt lat="40.174833" lon="-5.116900">
        <ele>976.0</ele>
        <time>2015-03-14T15:51:25Z</time>
      </trkpt>
      <trkpt lat="40.174817" lon="-5.116967">
        <ele>975.0</ele>
        <time>2015-03-14T15:51:26Z</time>
      </trkpt>
      <trkpt lat="40.174817" lon="-5.117050">
        <ele>974.0</ele>
        <time>2015-03-14T15:51:27Z</time>
      </trkpt>
      <trkpt lat="40.174817" lon="-5.117133">
        <ele>973.0</ele>
        <time>2015-03-14T15:51:28Z</time>
      </trkpt>
      <trkpt lat="40.174817" lon="-5.117200">
        <ele>972.0</ele>
        <time>2015-03-14T15:51:29Z</time>
      </trkpt>
      <trkpt lat="40.174817" lon="-5.117267">
        <ele>971.0</ele>
        <time>2015-03-14T15:51:30Z</time>
      </trkpt>
      <trkpt lat="40.174817" lon="-5.117333">
        <ele>969.0</ele>
        <time>2015-03-14T15:51:31Z</time>
      </trkpt>
      <trkpt lat="40.174817" lon="-5.117417">
        <ele>966.0</ele>
        <time>2015-03-14T15:51:32Z</time>
      </trkpt>
      <trkpt lat="40.174800" lon="-5.117500">
        <ele>964.0</ele>
        <time>2015-03-14T15:51:33Z</time>
      </trkpt>
      <trkpt lat="40.174783" lon="-5.117583">
        <ele>963.0</ele>
        <time>2015-03-14T15:51:34Z</time>
      </trkpt>
      <trkpt lat="40.174767" lon="-5.117667">
        <ele>962.0</ele>
        <time>2015-03-14T15:51:35Z</time>
      </trkpt>
      <trkpt lat="40.174750" lon="-5.117733">
        <ele>962.0</ele>
        <time>2015-03-14T15:51:36Z</time>
      </trkpt>
      <trkpt lat="40.174733" lon="-5.117800">
        <ele>960.0</ele>
        <time>2015-03-14T15:51:37Z</time>
      </trkpt>
      <trkpt lat="40.174717" lon="-5.117883">
        <ele>958.0</ele>
        <time>2015-03-14T15:51:38Z</time>
      </trkpt>
      <trkpt lat="40.174700" lon="-5.117950">
        <ele>955.0</ele>
        <time>2015-03-14T15:51:39Z</time>
      </trkpt>
      <trkpt lat="40.174683" lon="-5.118033">
        <ele>952.0</ele>
        <time>2015-03-14T15:51:40Z</time>
      </trkpt>
      <trkpt lat="40.174650" lon="-5.118100">
        <ele>949.0</ele>
        <time>2015-03-14T15:51:41Z</time>
      </trkpt>
      <trkpt lat="40.174617" lon="-5.118167">
        <ele>946.0</ele>
        <time>2015-03-14T15:51:42Z</time>
      </trkpt>
      <trkpt lat="40.174600" lon="-5.118233">
        <ele>943.0</ele>
        <time>2015-03-14T15:51:43Z</time>
      </trkpt>
      <trkpt lat="40.174567" lon="-5.118317">
        <ele>940.0</ele>
        <time>2015-03-14T15:51:44Z</time>
      </trkpt>
      <trkpt lat="40.174533" lon="-5.118400">
        <ele>937.0</ele>
        <time>2015-03-14T15:51:45Z</time>
      </trkpt>
      <trkpt lat="40.174483" lon="-5.118483">
        <ele>935.0</ele>
        <time>2015-03-14T15:51:46Z</time>
      </trkpt>
      <trkpt lat="40.174433" lon="-5.118567">
        <ele>933.0</ele>
        <time>2015-03-14T15:51:47Z</time>
      </trkpt>
      <trkpt lat="40.174383" lon="-5.118650">
        <ele>932.0</ele>
        <time>2015-03-14T15:51:48Z</time>
      </trkpt>
      <trkpt lat="40.174367" lon="-5.118750">
        <ele>931.0</ele>
        <time>2015-03-14T15:51:49Z</time>
      </trkpt>
      <trkpt lat="40.174350" lon="-5.118850">
        <ele>930.0</ele>
        <time>2015-03-14T15:51:50Z</time>
      </trkpt>
      <trkpt lat="40.174317" lon="-5.118933">
        <ele>928.0</ele>
        <time>2015-03-14T15:51:51Z</time>
      </trkpt>
      <trkpt lat="40.174300" lon="-5.119017">
        <ele>926.0</ele>
        <time>2015-03-14T15:51:52Z</time>
      </trkpt>
      <trkpt lat="40.174250" lon="-5.119100">
        <ele>923.0</ele>
        <time>2015-03-14T15:51:53Z</time>
      </trkpt>
      <trkpt lat="40.174200" lon="-5.119183">
        <ele>922.0</ele>
        <time>2015-03-14T15:51:54Z</time>
      </trkpt>
      <trkpt lat="40.174150" lon="-5.119267">
        <ele>922.0</ele>
        <time>2015-03-14T15:51:55Z</time>
      </trkpt>
      <trkpt lat="40.174100" lon="-5.119367">
        <ele>923.0</ele>
        <time>2015-03-14T15:51:56Z</time>
      </trkpt>
      <trkpt lat="40.174067" lon="-5.119467">
        <ele>924.0</ele>
        <time>2015-03-14T15:51:57Z</time>
      </trkpt>
      <trkpt lat="40.174033" lon="-5.119550">
        <ele>923.0</ele>
        <time>2015-03-14T15:51:58Z</time>
      </trkpt>
      <trkpt lat="40.174017" lon="-5.119633">
        <ele>923.0</ele>
        <time>2015-03-14T15:51:59Z</time>
      </trkpt>
      <trkpt lat="40.173983" lon="-5.119733">
        <ele>922.0</ele>
        <time>2015-03-14T15:52:00Z</time>
      </trkpt>
      <trkpt lat="40.173950" lon="-5.119833">
        <ele>920.0</ele>
        <time>2015-03-14T15:52:01Z</time>
      </trkpt>
      <trkpt lat="40.173917" lon="-5.119933">
        <ele>919.0</ele>
        <time>2015-03-14T15:52:02Z</time>
      </trkpt>
      <trkpt lat="40.173900" lon="-5.120017">
        <ele>919.0</ele>
        <time>2015-03-14T15:52:03Z</time>
      </trkpt>
      <trkpt lat="40.173867" lon="-5.120117">
        <ele>918.0</ele>
        <time>2015-03-14T15:52:04Z</time>
      </trkpt>
      <trkpt lat="40.173833" lon="-5.120200">
        <ele>918.0</ele>
        <time>2015-03-14T15:52:05Z</time>
      </trkpt>
      <trkpt lat="40.173800" lon="-5.120267">
        <ele>918.0</ele>
        <time>2015-03-14T15:52:06Z</time>
      </trkpt>
      <trkpt lat="40.173767" lon="-5.120333">
        <ele>918.0</ele>
        <time>2015-03-14T15:52:07Z</time>
      </trkpt>
      <trkpt lat="40.173733" lon="-5.120417">
        <ele>917.0</ele>
        <time>2015-03-14T15:52:08Z</time>
      </trkpt>
      <trkpt lat="40.173733" lon="-5.120517">
        <ele>915.0</ele>
        <time>2015-03-14T15:52:09Z</time>
      </trkpt>
      <trkpt lat="40.173717" lon="-5.120617">
        <ele>915.0</ele>
        <time>2015-03-14T15:52:10Z</time>
      </trkpt>
      <trkpt lat="40.173717" lon="-5.120717">
        <ele>915.0</ele>
        <time>2015-03-14T15:52:11Z</time>
      </trkpt>
      <trkpt lat="40.173717" lon="-5.120817">
        <ele>915.0</ele>
        <time>2015-03-14T15:52:12Z</time>
      </trkpt>
      <trkpt lat="40.173700" lon="-5.120917">
        <ele>916.0</ele>
        <time>2015-03-14T15:52:13Z</time>
      </trkpt>
      <trkpt lat="40.173700" lon="-5.121000">
        <ele>916.0</ele>
        <time>2015-03-14T15:52:14Z</time>
      </trkpt>
      <trkpt lat="40.173683" lon="-5.121100">
        <ele>917.0</ele>
        <time>2015-03-14T15:52:15Z</time>
      </trkpt>
      <trkpt lat="40.173683" lon="-5.121183">
        <ele>917.0</ele>
        <time>2015-03-14T15:52:16Z</time>
      </trkpt>
      <trkpt lat="40.173700" lon="-5.121267">
        <ele>917.0</ele>
        <time>2015-03-14T15:52:17Z</time>
      </trkpt>
      <trkpt lat="40.173717" lon="-5.121333">
        <ele>917.0</ele>
        <time>2015-03-14T15:52:18Z</time>
      </trkpt>
      <trkpt lat="40.173733" lon="-5.121400">
        <ele>916.0</ele>
        <time>2015-03-14T15:52:19Z</time>
      </trkpt>
      <trkpt lat="40.173767" lon="-5.121467">
        <ele>914.0</ele>
        <time>2015-03-14T15:52:20Z</time>
      </trkpt>
      <trkpt lat="40.173767" lon="-5.121533">
        <ele>912.0</ele>
        <time>2015-03-14T15:52:21Z</time>
      </trkpt>
      <trkpt lat="40.173750" lon="-5.121617">
        <ele>909.0</ele>
        <time>2015-03-14T15:52:22Z</time>
      </trkpt>
      <trkpt lat="40.173733" lon="-5.121700">
        <ele>907.0</ele>
        <time>2015-03-14T15:52:23Z</time>
      </trkpt>
      <trkpt lat="40.173700" lon="-5.121783">
        <ele>905.0</ele>
        <time>2015-03-14T15:52:24Z</time>
      </trkpt>
      <trkpt lat="40.173683" lon="-5.121883">
        <ele>903.0</ele>
        <time>2015-03-14T15:52:25Z</time>
      </trkpt>
      <trkpt lat="40.173650" lon="-5.121967">
        <ele>902.0</ele>
        <time>2015-03-14T15:52:26Z</time>
      </trkpt>
      <trkpt lat="40.173617" lon="-5.122033">
        <ele>901.0</ele>
        <time>2015-03-14T15:52:27Z</time>
      </trkpt>
      <trkpt lat="40.173583" lon="-5.122100">
        <ele>898.0</ele>
        <time>2015-03-14T15:52:28Z</time>
      </trkpt>
      <trkpt lat="40.173550" lon="-5.122183">
        <ele>896.0</ele>
        <time>2015-03-14T15:52:29Z</time>
      </trkpt>
      <trkpt lat="40.173517" lon="-5.122283">
        <ele>893.0</ele>
        <time>2015-03-14T15:52:30Z</time>
      </trkpt>
      <trkpt lat="40.173483" lon="-5.122383">
        <ele>891.0</ele>
        <time>2015-03-14T15:52:31Z</time>
      </trkpt>
      <trkpt lat="40.173450" lon="-5.122467">
        <ele>890.0</ele>
        <time>2015-03-14T15:52:32Z</time>
      </trkpt>
      <trkpt lat="40.173417" lon="-5.122550">
        <ele>889.0</ele>
        <time>2015-03-14T15:52:33Z</time>
      </trkpt>
      <trkpt lat="40.173367" lon="-5.122633">
        <ele>888.0</ele>
        <time>2015-03-14T15:52:34Z</time>
      </trkpt>
      <trkpt lat="40.173333" lon="-5.122717">
        <ele>887.0</ele>
        <time>2015-03-14T15:52:35Z</time>
      </trkpt>
      <trkpt lat="40.173283" lon="-5.122800">
        <ele>886.0</ele>
        <time>2015-03-14T15:52:36Z</time>
      </trkpt>
      <trkpt lat="40.173250" lon="-5.122883">
        <ele>886.0</ele>
        <time>2015-03-14T15:52:37Z</time>
      </trkpt>
      <trkpt lat="40.173200" lon="-5.122967">
        <ele>885.0</ele>
        <time>2015-03-14T15:52:38Z</time>
      </trkpt>
      <trkpt lat="40.173150" lon="-5.123050">
        <ele>885.0</ele>
        <time>2015-03-14T15:52:39Z</time>
      </trkpt>
      <trkpt lat="40.173117" lon="-5.123117">
        <ele>884.0</ele>
        <time>2015-03-14T15:52:40Z</time>
      </trkpt>
      <trkpt lat="40.173067" lon="-5.123200">
        <ele>883.0</ele>
        <time>2015-03-14T15:52:41Z</time>
      </trkpt>
      <trkpt lat="40.173017" lon="-5.123283">
        <ele>883.0</ele>
        <time>2015-03-14T15:52:42Z</time>
      </trkpt>
      <trkpt lat="40.172983" lon="-5.123350">
        <ele>884.0</ele>
        <time>2015-03-14T15:52:43Z</time>
      </trkpt>
      <trkpt lat="40.172950" lon="-5.123400">
        <ele>884.0</ele>
        <time>2015-03-14T15:52:44Z</time>
      </trkpt>
      <trkpt lat="40.172917" lon="-5.123467">
        <ele>882.0</ele>
        <time>2015-03-14T15:52:45Z</time>
      </trkpt>
      <trkpt lat="40.172900" lon="-5.123517">
        <ele>880.0</ele>
        <time>2015-03-14T15:52:46Z</time>
      </trkpt>
      <trkpt lat="40.172867" lon="-5.123583">
        <ele>877.0</ele>
        <time>2015-03-14T15:52:47Z</time>
      </trkpt>
      <trkpt lat="40.172833" lon="-5.123633">
        <ele>874.0</ele>
        <time>2015-03-14T15:52:48Z</time>
      </trkpt>
      <trkpt lat="40.172800" lon="-5.123700">
        <ele>871.0</ele>
        <time>2015-03-14T15:52:49Z</time>
      </trkpt>
      <trkpt lat="40.172750" lon="-5.123767">
        <ele>868.0</ele>
        <time>2015-03-14T15:52:50Z</time>
      </trkpt>
      <trkpt lat="40.172700" lon="-5.123850">
        <ele>865.0</ele>
        <time>2015-03-14T15:52:51Z</time>
      </trkpt>
      <trkpt lat="40.172633" lon="-5.123917">
        <ele>863.0</ele>
        <time>2015-03-14T15:52:52Z</time>
      </trkpt>
      <trkpt lat="40.172583" lon="-5.123983">
        <ele>861.0</ele>
        <time>2015-03-14T15:52:53Z</time>
      </trkpt>
      <trkpt lat="40.172517" lon="-5.124033">
        <ele>860.0</ele>
        <time>2015-03-14T15:52:54Z</time>
      </trkpt>
      <trkpt lat="40.172467" lon="-5.124100">
        <ele>858.0</ele>
        <time>2015-03-14T15:52:55Z</time>
      </trkpt>
      <trkpt lat="40.172400" lon="-5.124150">
        <ele>857.0</ele>
        <time>2015-03-14T15:52:56Z</time>
      </trkpt>
      <trkpt lat="40.172350" lon="-5.124217">
        <ele>855.0</ele>
        <time>2015-03-14T15:52:57Z</time>
      </trkpt>
      <trkpt lat="40.172283" lon="-5.124267">
        <ele>853.0</ele>
        <time>2015-03-14T15:52:58Z</time>
      </trkpt>
      <trkpt lat="40.172217" lon="-5.124317">
        <ele>852.0</ele>
        <time>2015-03-14T15:52:59Z</time>
      </trkpt>
      <trkpt lat="40.172150" lon="-5.124383">
        <ele>851.0</ele>
        <time>2015-03-14T15:53:00Z</time>
      </trkpt>
      <trkpt lat="40.172083" lon="-5.124450">
        <ele>850.0</ele>
        <time>2015-03-14T15:53:01Z</time>
      </trkpt>
      <trkpt lat="40.172033" lon="-5.124517">
        <ele>849.0</ele>
        <time>2015-03-14T15:53:02Z</time>
      </trkpt>
      <trkpt lat="40.171983" lon="-5.124583">
        <ele>849.0</ele>
        <time>2015-03-14T15:53:03Z</time>
      </trkpt>
      <trkpt lat="40.171933" lon="-5.124650">
        <ele>849.0</ele>
        <time>2015-03-14T15:53:04Z</time>
      </trkpt>
      <trkpt lat="40.171900" lon="-5.124733">
        <ele>848.0</ele>
        <time>2015-03-14T15:53:05Z</time>
      </trkpt>
      <trkpt lat="40.171867" lon="-5.124800">
        <ele>847.0</ele>
        <time>2015-03-14T15:53:06Z</time>
      </trkpt>
      <trkpt lat="40.171833" lon="-5.124883">
        <ele>845.0</ele>
        <time>2015-03-14T15:53:07Z</time>
      </trkpt>
      <trkpt lat="40.171800" lon="-5.124983">
        <ele>844.0</ele>
        <time>2015-03-14T15:53:08Z</time>
      </trkpt>
      <trkpt lat="40.171767" lon="-5.125067">
        <ele>843.0</ele>
        <time>2015-03-14T15:53:09Z</time>
      </trkpt>
      <trkpt lat="40.171733" lon="-5.125150">
        <ele>842.0</ele>
        <time>2015-03-14T15:53:10Z</time>
      </trkpt>
      <trkpt lat="40.171700" lon="-5.125250">
        <ele>842.0</ele>
        <time>2015-03-14T15:53:11Z</time>
      </trkpt>
      <trkpt lat="40.171667" lon="-5.125333">
        <ele>841.0</ele>
        <time>2015-03-14T15:53:12Z</time>
      </trkpt>
      <trkpt lat="40.171633" lon="-5.125417">
        <ele>840.0</ele>
        <time>2015-03-14T15:53:13Z</time>
      </trkpt>
      <trkpt lat="40.171600" lon="-5.125500">
        <ele>840.0</ele>
        <time>2015-03-14T15:53:14Z</time>
      </trkpt>
      <trkpt lat="40.171550" lon="-5.125567">
        <ele>840.0</ele>
        <time>2015-03-14T15:53:15Z</time>
      </trkpt>
      <trkpt lat="40.171517" lon="-5.125617">
        <ele>840.0</ele>
        <time>2015-03-14T15:53:16Z</time>
      </trkpt>
      <trkpt lat="40.171467" lon="-5.125683">
        <ele>840.0</ele>
        <time>2015-03-14T15:53:17Z</time>
      </trkpt>
      <trkpt lat="40.171433" lon="-5.125750">
        <ele>839.0</ele>
        <time>2015-03-14T15:53:18Z</time>
      </trkpt>
      <trkpt lat="40.171383" lon="-5.125817">
        <ele>838.0</ele>
        <time>2015-03-14T15:53:19Z</time>
      </trkpt>
      <trkpt lat="40.171333" lon="-5.125883">
        <ele>837.0</ele>
        <time>2015-03-14T15:53:20Z</time>
      </trkpt>
      <trkpt lat="40.171283" lon="-5.125933">
        <ele>836.0</ele>
        <time>2015-03-14T15:53:21Z</time>
      </trkpt>
      <trkpt lat="40.171233" lon="-5.125983">
        <ele>835.0</ele>
        <time>2015-03-14T15:53:22Z</time>
      </trkpt>
      <trkpt lat="40.171183" lon="-5.126033">
        <ele>834.0</ele>
        <time>2015-03-14T15:53:23Z</time>
      </trkpt>
      <trkpt lat="40.171150" lon="-5.126083">
        <ele>832.0</ele>
        <time>2015-03-14T15:53:24Z</time>
      </trkpt>
      <trkpt lat="40.171117" lon="-5.126133">
        <ele>829.0</ele>
        <time>2015-03-14T15:53:25Z</time>
      </trkpt>
      <trkpt lat="40.171067" lon="-5.126200">
        <ele>826.0</ele>
        <time>2015-03-14T15:53:26Z</time>
      </trkpt>
      <trkpt lat="40.171017" lon="-5.126267">
        <ele>823.0</ele>
        <time>2015-03-14T15:53:27Z</time>
      </trkpt>
      <trkpt lat="40.170983" lon="-5.126350">
        <ele>820.0</ele>
        <time>2015-03-14T15:53:28Z</time>
      </trkpt>
      <trkpt lat="40.170933" lon="-5.126433">
        <ele>819.0</ele>
        <time>2015-03-14T15:53:29Z</time>
      </trkpt>
      <trkpt lat="40.170900" lon="-5.126517">
        <ele>819.0</ele>
        <time>2015-03-14T15:53:30Z</time>
      </trkpt>
      <trkpt lat="40.170883" lon="-5.126583">
        <ele>818.0</ele>
        <time>2015-03-14T15:53:31Z</time>
      </trkpt>
      <trkpt lat="40.170850" lon="-5.126650">
        <ele>816.0</ele>
        <time>2015-03-14T15:53:32Z</time>
      </trkpt>
      <trkpt lat="40.170817" lon="-5.126733">
        <ele>813.0</ele>
        <time>2015-03-14T15:53:33Z</time>
      </trkpt>
      <trkpt lat="40.170783" lon="-5.126800">
        <ele>811.0</ele>
        <time>2015-03-14T15:53:34Z</time>
      </trkpt>
      <trkpt lat="40.170750" lon="-5.126900">
        <ele>809.0</ele>
        <time>2015-03-14T15:53:35Z</time>
      </trkpt>
      <trkpt lat="40.170733" lon="-5.127000">
        <ele>808.0</ele>
        <time>2015-03-14T15:53:36Z</time>
      </trkpt>
      <trkpt lat="40.170700" lon="-5.127067">
        <ele>808.0</ele>
        <time>2015-03-14T15:53:37Z</time>
      </trkpt>
      <trkpt lat="40.170667" lon="-5.127133">
        <ele>808.0</ele>
        <time>2015-03-14T15:53:38Z</time>
      </trkpt>
      <trkpt lat="40.170650" lon="-5.127183">
        <ele>807.0</ele>
        <time>2015-03-14T15:53:39Z</time>
      </trkpt>
      <trkpt lat="40.170617" lon="-5.127267">
        <ele>805.0</ele>
        <time>2015-03-14T15:53:40Z</time>
      </trkpt>
      <trkpt lat="40.170600" lon="-5.127333">
        <ele>803.0</ele>
        <time>2015-03-14T15:53:41Z</time>
      </trkpt>
      <trkpt lat="40.170567" lon="-5.127417">
        <ele>802.0</ele>
        <time>2015-03-14T15:53:42Z</time>
      </trkpt>
      <trkpt lat="40.170533" lon="-5.127483">
        <ele>801.0</ele>
        <time>2015-03-14T15:53:43Z</time>
      </trkpt>
      <trkpt lat="40.170483" lon="-5.127550">
        <ele>802.0</ele>
        <time>2015-03-14T15:53:44Z</time>
      </trkpt>
      <trkpt lat="40.170467" lon="-5.127600">
        <ele>802.0</ele>
        <time>2015-03-14T15:53:45Z</time>
      </trkpt>
      <trkpt lat="40.170433" lon="-5.127633">
        <ele>801.0</ele>
        <time>2015-03-14T15:53:46Z</time>
      </trkpt>
      <trkpt lat="40.170417" lon="-5.127700">
        <ele>799.0</ele>
        <time>2015-03-14T15:53:47Z</time>
      </trkpt>
      <trkpt lat="40.170383" lon="-5.127750">
        <ele>798.0</ele>
        <time>2015-03-14T15:53:48Z</time>
      </trkpt>
      <trkpt lat="40.170333" lon="-5.127800">
        <ele>796.0</ele>
        <time>2015-03-14T15:53:49Z</time>
      </trkpt>
      <trkpt lat="40.170283" lon="-5.127867">
        <ele>794.0</ele>
        <time>2015-03-14T15:53:50Z</time>
      </trkpt>
      <trkpt lat="40.170233" lon="-5.127933">
        <ele>794.0</ele>
        <time>2015-03-14T15:53:51Z</time>
      </trkpt>
      <trkpt lat="40.170200" lon="-5.127983">
        <ele>794.0</ele>
        <time>2015-03-14T15:53:52Z</time>
      </trkpt>
      <trkpt lat="40.170167" lon="-5.128033">
        <ele>795.0</ele>
        <time>2015-03-14T15:53:53Z</time>
      </trkpt>
      <trkpt lat="40.170133" lon="-5.128067">
        <ele>795.0</ele>
        <time>2015-03-14T15:53:54Z</time>
      </trkpt>
      <trkpt lat="40.170100" lon="-5.128117">
        <ele>793.0</ele>
        <time>2015-03-14T15:53:55Z</time>
      </trkpt>
      <trkpt lat="40.170067" lon="-5.128167">
        <ele>791.0</ele>
        <time>2015-03-14T15:53:56Z</time>
      </trkpt>
      <trkpt lat="40.170017" lon="-5.128217">
        <ele>788.0</ele>
        <time>2015-03-14T15:53:57Z</time>
      </trkpt>
      <trkpt lat="40.169983" lon="-5.128283">
        <ele>786.0</ele>
        <time>2015-03-14T15:53:58Z</time>
      </trkpt>
      <trkpt lat="40.169950" lon="-5.128333">
        <ele>784.0</ele>
        <time>2015-03-14T15:53:59Z</time>
      </trkpt>
      <trkpt lat="40.169900" lon="-5.128383">
        <ele>781.0</ele>
        <time>2015-03-14T15:54:00Z</time>
      </trkpt>
      <trkpt lat="40.169867" lon="-5.128417">
        <ele>779.0</ele>
        <time>2015-03-14T15:54:01Z</time>
      </trkpt>
      <trkpt lat="40.169833" lon="-5.128483">
        <ele>777.0</ele>
        <time>2015-03-14T15:54:02Z</time>
      </trkpt>
      <trkpt lat="40.169800" lon="-5.128533">
        <ele>775.0</ele>
        <time>2015-03-14T15:54:03Z</time>
      </trkpt>
      <trkpt lat="40.169767" lon="-5.128600">
        <ele>773.0</ele>
        <time>2015-03-14T15:54:04Z</time>
      </trkpt>
      <trkpt lat="40.169733" lon="-5.128633">
        <ele>771.0</ele>
        <time>2015-03-14T15:54:05Z</time>
      </trkpt>
      <trkpt lat="40.169683" lon="-5.128683">
        <ele>769.0</ele>
        <time>2015-03-14T15:54:06Z</time>
      </trkpt>
      <trkpt lat="40.169650" lon="-5.128733">
        <ele>767.0</ele>
        <time>2015-03-14T15:54:07Z</time>
      </trkpt>
      <trkpt lat="40.169633" lon="-5.128783">
        <ele>766.0</ele>
        <time>2015-03-14T15:54:08Z</time>
      </trkpt>
      <trkpt lat="40.169617" lon="-5.128833">
        <ele>765.0</ele>
        <time>2015-03-14T15:54:09Z</time>
      </trkpt>
      <trkpt lat="40.169583" lon="-5.128883">
        <ele>762.0</ele>
        <time>2015-03-14T15:54:10Z</time>
      </trkpt>
      <trkpt lat="40.169550" lon="-5.128933">
        <ele>760.0</ele>
        <time>2015-03-14T15:54:11Z</time>
      </trkpt>
      <trkpt lat="40.169517" lon="-5.128967">
        <ele>757.0</ele>
        <time>2015-03-14T15:54:12Z</time>
      </trkpt>
      <trkpt lat="40.169483" lon="-5.129017">
        <ele>755.0</ele>
        <time>2015-03-14T15:54:13Z</time>
      </trkpt>
      <trkpt lat="40.169467" lon="-5.129067">
        <ele>753.0</ele>
        <time>2015-03-14T15:54:14Z</time>
      </trkpt>
      <trkpt lat="40.169433" lon="-5.129117">
        <ele>751.0</ele>
        <time>2015-03-14T15:54:15Z</time>
      </trkpt>
      <trkpt lat="40.169383" lon="-5.129150">
        <ele>751.0</ele>
        <time>2015-03-14T15:54:16Z</time>
      </trkpt>
      <trkpt lat="40.169333" lon="-5.129183">
        <ele>751.0</ele>
        <time>2015-03-14T15:54:17Z</time>
      </trkpt>
      <trkpt lat="40.169300" lon="-5.129233">
        <ele>751.0</ele>
        <time>2015-03-14T15:54:18Z</time>
      </trkpt>
      <trkpt lat="40.169283" lon="-5.129300">
        <ele>751.0</ele>
        <time>2015-03-14T15:54:19Z</time>
      </trkpt>
      <trkpt lat="40.169283" lon="-5.129383">
        <ele>751.0</ele>
        <time>2015-03-14T15:54:20Z</time>
      </trkpt>
      <trkpt lat="40.169267" lon="-5.129467">
        <ele>752.0</ele>
        <time>2015-03-14T15:54:21Z</time>
      </trkpt>
      <trkpt lat="40.169250" lon="-5.129533">
        <ele>752.0</ele>
        <time>2015-03-14T15:54:22Z</time>
      </trkpt>
      <trkpt lat="40.169233" lon="-5.129617">
        <ele>752.0</ele>
        <time>2015-03-14T15:54:23Z</time>
      </trkpt>
      <trkpt lat="40.169233" lon="-5.129700">
        <ele>750.0</ele>
        <time>2015-03-14T15:54:24Z</time>
      </trkpt>
      <trkpt lat="40.169217" lon="-5.129783">
        <ele>749.0</ele>
        <time>2015-03-14T15:54:25Z</time>
      </trkpt>
      <trkpt lat="40.169200" lon="-5.129850">
        <ele>748.0</ele>
        <time>2015-03-14T15:54:26Z</time>
      </trkpt>
      <trkpt lat="40.169183" lon="-5.129917">
        <ele>748.0</ele>
        <time>2015-03-14T15:54:27Z</time>
      </trkpt>
      <trkpt lat="40.169167" lon="-5.129983">
        <ele>747.0</ele>
        <time>2015-03-14T15:54:28Z</time>
      </trkpt>
      <trkpt lat="40.169150" lon="-5.130050">
        <ele>745.0</ele>
        <time>2015-03-14T15:54:29Z</time>
      </trkpt>
      <trkpt lat="40.169150" lon="-5.130117">
        <ele>745.0</ele>
        <time>2015-03-14T15:54:30Z</time>
      </trkpt>
      <trkpt lat="40.169133" lon="-5.130183">
        <ele>744.0</ele>
        <time>2015-03-14T15:54:31Z</time>
      </trkpt>
      <trkpt lat="40.169100" lon="-5.130233">
        <ele>743.0</ele>
        <time>2015-03-14T15:54:32Z</time>
      </trkpt>
      <trkpt lat="40.169067" lon="-5.130300">
        <ele>742.0</ele>
        <time>2015-03-14T15:54:33Z</time>
      </trkpt>
      <trkpt lat="40.169050" lon="-5.130383">
        <ele>740.0</ele>
        <time>2015-03-14T15:54:34Z</time>
      </trkpt>
      <trkpt lat="40.169050" lon="-5.130467">
        <ele>739.0</ele>
        <time>2015-03-14T15:54:35Z</time>
      </trkpt>
      <trkpt lat="40.169050" lon="-5.130550">
        <ele>737.0</ele>
        <time>2015-03-14T15:54:36Z</time>
      </trkpt>
      <trkpt lat="40.169050" lon="-5.130633">
        <ele>736.0</ele>
        <time>2015-03-14T15:54:37Z</time>
      </trkpt>
      <trkpt lat="40.169050" lon="-5.130717">
        <ele>734.0</ele>
        <time>2015-03-14T15:54:38Z</time>
      </trkpt>
      <trkpt lat="40.169017" lon="-5.130800">
        <ele>731.0</ele>
        <time>2015-03-14T15:54:39Z</time>
      </trkpt>
      <trkpt lat="40.169000" lon="-5.130883">
        <ele>729.0</ele>
        <time>2015-03-14T15:54:40Z</time>
      </trkpt>
      <trkpt lat="40.168983" lon="-5.130967">
        <ele>727.0</ele>
        <time>2015-03-14T15:54:41Z</time>
      </trkpt>
      <trkpt lat="40.168950" lon="-5.131050">
        <ele>725.0</ele>
        <time>2015-03-14T15:54:42Z</time>
      </trkpt>
      <trkpt lat="40.168917" lon="-5.131133">
        <ele>723.0</ele>
        <time>2015-03-14T15:54:43Z</time>
      </trkpt>
      <trkpt lat="40.168883" lon="-5.131217">
        <ele>721.0</ele>
        <time>2015-03-14T15:54:44Z</time>
      </trkpt>
      <trkpt lat="40.168850" lon="-5.131300">
        <ele>719.0</ele>
        <time>2015-03-14T15:54:45Z</time>
      </trkpt>
      <trkpt lat="40.168817" lon="-5.131400">
        <ele>717.0</ele>
        <time>2015-03-14T15:54:46Z</time>
      </trkpt>
      <trkpt lat="40.168783" lon="-5.131483">
        <ele>716.0</ele>
        <time>2015-03-14T15:54:47Z</time>
      </trkpt>
      <trkpt lat="40.168733" lon="-5.131567">
        <ele>714.0</ele>
        <time>2015-03-14T15:54:48Z</time>
      </trkpt>
      <trkpt lat="40.168700" lon="-5.131633">
        <ele>713.0</ele>
        <time>2015-03-14T15:54:49Z</time>
      </trkpt>
      <trkpt lat="40.168683" lon="-5.131717">
        <ele>712.0</ele>
        <time>2015-03-14T15:54:50Z</time>
      </trkpt>
      <trkpt lat="40.168650" lon="-5.131800">
        <ele>711.0</ele>
        <time>2015-03-14T15:54:51Z</time>
      </trkpt>
      <trkpt lat="40.168633" lon="-5.131883">
        <ele>709.0</ele>
        <time>2015-03-14T15:54:52Z</time>
      </trkpt>
      <trkpt lat="40.168600" lon="-5.131983">
        <ele>708.0</ele>
        <time>2015-03-14T15:54:53Z</time>
      </trkpt>
      <trkpt lat="40.168567" lon="-5.132067">
        <ele>707.0</ele>
        <time>2015-03-14T15:54:54Z</time>
      </trkpt>
      <trkpt lat="40.168533" lon="-5.132167">
        <ele>705.0</ele>
        <time>2015-03-14T15:54:55Z</time>
      </trkpt>
      <trkpt lat="40.168517" lon="-5.132267">
        <ele>703.0</ele>
        <time>2015-03-14T15:54:56Z</time>
      </trkpt>
      <trkpt lat="40.168500" lon="-5.132350">
        <ele>700.0</ele>
        <time>2015-03-14T15:54:57Z</time>
      </trkpt>
      <trkpt lat="40.168467" lon="-5.132450">
        <ele>696.0</ele>
        <time>2015-03-14T15:54:58Z</time>
      </trkpt>
      <trkpt lat="40.168450" lon="-5.132550">
        <ele>693.0</ele>
        <time>2015-03-14T15:54:59Z</time>
      </trkpt>
      <trkpt lat="40.168433" lon="-5.132667">
        <ele>691.0</ele>
        <time>2015-03-14T15:55:00Z</time>
      </trkpt>
      <trkpt lat="40.168417" lon="-5.132767">
        <ele>688.0</ele>
        <time>2015-03-14T15:55:01Z</time>
      </trkpt>
      <trkpt lat="40.168383" lon="-5.132900">
        <ele>686.0</ele>
        <time>2015-03-14T15:55:02Z</time>
      </trkpt>
      <trkpt lat="40.168367" lon="-5.133000">
        <ele>685.0</ele>
        <time>2015-03-14T15:55:03Z</time>
      </trkpt>
      <trkpt lat="40.168350" lon="-5.133117">
        <ele>683.0</ele>
        <time>2015-03-14T15:55:04Z</time>
      </trkpt>
      <trkpt lat="40.168317" lon="-5.133217">
        <ele>681.0</ele>
        <time>2015-03-14T15:55:05Z</time>
      </trkpt>
      <trkpt lat="40.168300" lon="-5.133317">
        <ele>678.0</ele>
        <time>2015-03-14T15:55:06Z</time>
      </trkpt>
      <trkpt lat="40.168267" lon="-5.133433">
        <ele>676.0</ele>
        <time>2015-03-14T15:55:07Z</time>
      </trkpt>
      <trkpt lat="40.168217" lon="-5.133517">
        <ele>674.0</ele>
        <time>2015-03-14T15:55:08Z</time>
      </trkpt>
      <trkpt lat="40.168183" lon="-5.133600">
        <ele>672.0</ele>
        <time>2015-03-14T15:55:09Z</time>
      </trkpt>
      <trkpt lat="40.168150" lon="-5.133667">
        <ele>671.0</ele>
        <time>2015-03-14T15:55:10Z</time>
      </trkpt>
      <trkpt lat="40.168117" lon="-5.133750">
        <ele>669.0</ele>
        <time>2015-03-14T15:55:11Z</time>
      </trkpt>
      <trkpt lat="40.168083" lon="-5.133833">
        <ele>667.0</ele>
        <time>2015-03-14T15:55:12Z</time>
      </trkpt>
      <trkpt lat="40.168050" lon="-5.133900">
        <ele>665.0</ele>
        <time>2015-03-14T15:55:13Z</time>
      </trkpt>
      <trkpt lat="40.168033" lon="-5.133967">
        <ele>663.0</ele>
        <time>2015-03-14T15:55:14Z</time>
      </trkpt>
      <trkpt lat="40.168000" lon="-5.134033">
        <ele>660.0</ele>
        <time>2015-03-14T15:55:15Z</time>
      </trkpt>
      <trkpt lat="40.167983" lon="-5.134133">
        <ele>657.0</ele>
        <time>2015-03-14T15:55:16Z</time>
      </trkpt>
      <trkpt lat="40.167950" lon="-5.134233">
        <ele>654.0</ele>
        <time>2015-03-14T15:55:17Z</time>
      </trkpt>
      <trkpt lat="40.167933" lon="-5.134350">
        <ele>651.0</ele>
        <time>2015-03-14T15:55:18Z</time>
      </trkpt>
      <trkpt lat="40.167883" lon="-5.134450">
        <ele>649.0</ele>
        <time>2015-03-14T15:55:19Z</time>
      </trkpt>
      <trkpt lat="40.167850" lon="-5.134550">
        <ele>648.0</ele>
        <time>2015-03-14T15:55:20Z</time>
      </trkpt>
      <trkpt lat="40.167817" lon="-5.134633">
        <ele>647.0</ele>
        <time>2015-03-14T15:55:21Z</time>
      </trkpt>
      <trkpt lat="40.167783" lon="-5.134717">
        <ele>646.0</ele>
        <time>2015-03-14T15:55:22Z</time>
      </trkpt>
      <trkpt lat="40.167767" lon="-5.134767">
        <ele>645.0</ele>
        <time>2015-03-14T15:55:23Z</time>
      </trkpt>
      <trkpt lat="40.167750" lon="-5.134817">
        <ele>643.0</ele>
        <time>2015-03-14T15:55:24Z</time>
      </trkpt>
      <trkpt lat="40.167717" lon="-5.134867">
        <ele>640.0</ele>
        <time>2015-03-14T15:55:25Z</time>
      </trkpt>
      <trkpt lat="40.167667" lon="-5.134917">
        <ele>636.0</ele>
        <time>2015-03-14T15:55:26Z</time>
      </trkpt>
      <trkpt lat="40.167633" lon="-5.135000">
        <ele>633.0</ele>
        <time>2015-03-14T15:55:27Z</time>
      </trkpt>
      <trkpt lat="40.167583" lon="-5.135067">
        <ele>630.0</ele>
        <time>2015-03-14T15:55:28Z</time>
      </trkpt>
      <trkpt lat="40.167550" lon="-5.135133">
        <ele>628.0</ele>
        <time>2015-03-14T15:55:29Z</time>
      </trkpt>
      <trkpt lat="40.167500" lon="-5.135200">
        <ele>625.0</ele>
        <time>2015-03-14T15:55:30Z</time>
      </trkpt>
      <trkpt lat="40.167433" lon="-5.135250">
        <ele>624.0</ele>
        <time>2015-03-14T15:55:31Z</time>
      </trkpt>
      <trkpt lat="40.167367" lon="-5.135300">
        <ele>624.0</ele>
        <time>2015-03-14T15:55:32Z</time>
      </trkpt>
      <trkpt lat="40.167333" lon="-5.135383">
        <ele>625.0</ele>
        <time>2015-03-14T15:55:33Z</time>
      </trkpt>
      <trkpt lat="40.167300" lon="-5.135483">
        <ele>625.0</ele>
        <time>2015-03-14T15:55:34Z</time>
      </trkpt>
      <trkpt lat="40.167283" lon="-5.135600">
        <ele>625.0</ele>
        <time>2015-03-14T15:55:35Z</time>
      </trkpt>
      <trkpt lat="40.167267" lon="-5.135700">
        <ele>626.0</ele>
        <time>2015-03-14T15:55:36Z</time>
      </trkpt>
      <trkpt lat="40.167250" lon="-5.135800">
        <ele>626.0</ele>
        <time>2015-03-14T15:55:37Z</time>
      </trkpt>
      <trkpt lat="40.167233" lon="-5.135900">
        <ele>626.0</ele>
        <time>2015-03-14T15:55:38Z</time>
      </trkpt>
      <trkpt lat="40.167217" lon="-5.135983">
        <ele>625.0</ele>
        <time>2015-03-14T15:55:39Z</time>
      </trkpt>
      <trkpt lat="40.167200" lon="-5.136083">
        <ele>625.0</ele>
        <time>2015-03-14T15:55:40Z</time>
      </trkpt>
      <trkpt lat="40.167183" lon="-5.136183">
        <ele>623.0</ele>
        <time>2015-03-14T15:55:41Z</time>
      </trkpt>
      <trkpt lat="40.167167" lon="-5.136283">
        <ele>622.0</ele>
        <time>2015-03-14T15:55:42Z</time>
      </trkpt>
      <trkpt lat="40.167133" lon="-5.136367">
        <ele>622.0</ele>
        <time>2015-03-14T15:55:43Z</time>
      </trkpt>
      <trkpt lat="40.167117" lon="-5.136467">
        <ele>622.0</ele>
        <time>2015-03-14T15:55:44Z</time>
      </trkpt>
      <trkpt lat="40.167100" lon="-5.136550">
        <ele>622.0</ele>
        <time>2015-03-14T15:55:45Z</time>
      </trkpt>
      <trkpt lat="40.167100" lon="-5.136617">
        <ele>623.0</ele>
        <time>2015-03-14T15:55:46Z</time>
      </trkpt>
      <trkpt lat="40.167100" lon="-5.136683">
        <ele>622.0</ele>
        <time>2015-03-14T15:55:47Z</time>
      </trkpt>
      <trkpt lat="40.167083" lon="-5.136733">
        <ele>622.0</ele>
        <time>2015-03-14T15:55:48Z</time>
      </trkpt>
      <trkpt lat="40.167083" lon="-5.136783">
        <ele>620.0</ele>
        <time>2015-03-14T15:55:49Z</time>
      </trkpt>
      <trkpt lat="40.167050" lon="-5.136833">
        <ele>618.0</ele>
        <time>2015-03-14T15:55:50Z</time>
      </trkpt>
      <trkpt lat="40.167017" lon="-5.136883">
        <ele>615.0</ele>
        <time>2015-03-14T15:55:51Z</time>
      </trkpt>
      <trkpt lat="40.166967" lon="-5.136933">
        <ele>613.0</ele>
        <time>2015-03-14T15:55:52Z</time>
      </trkpt>
      <trkpt lat="40.166917" lon="-5.136983">
        <ele>611.0</ele>
        <time>2015-03-14T15:55:53Z</time>
      </trkpt>
      <trkpt lat="40.166883" lon="-5.137050">
        <ele>609.0</ele>
        <time>2015-03-14T15:55:54Z</time>
      </trkpt>
      <trkpt lat="40.166850" lon="-5.137117">
        <ele>609.0</ele>
        <time>2015-03-14T15:55:55Z</time>
      </trkpt>
      <trkpt lat="40.166817" lon="-5.137167">
        <ele>609.0</ele>
        <time>2015-03-14T15:55:56Z</time>
      </trkpt>
      <trkpt lat="40.166783" lon="-5.137217">
        <ele>609.0</ele>
        <time>2015-03-14T15:55:57Z</time>
      </trkpt>
      <trkpt lat="40.166733" lon="-5.137267">
        <ele>608.0</ele>
        <time>2015-03-14T15:55:58Z</time>
      </trkpt>
      <trkpt lat="40.166683" lon="-5.137317">
        <ele>608.0</ele>
        <time>2015-03-14T15:55:59Z</time>
      </trkpt>
      <trkpt lat="40.166633" lon="-5.137350">
        <ele>608.0</ele>
        <time>2015-03-14T15:56:00Z</time>
      </trkpt>
      <trkpt lat="40.166583" lon="-5.137400">
        <ele>607.0</ele>
        <time>2015-03-14T15:56:01Z</time>
      </trkpt>
      <trkpt lat="40.166550" lon="-5.137450">
        <ele>606.0</ele>
        <time>2015-03-14T15:56:02Z</time>
      </trkpt>
      <trkpt lat="40.166517" lon="-5.137500">
        <ele>604.0</ele>
        <time>2015-03-14T15:56:03Z</time>
      </trkpt>
      <trkpt lat="40.166467" lon="-5.137550">
        <ele>602.0</ele>
        <time>2015-03-14T15:56:04Z</time>
      </trkpt>
      <trkpt lat="40.166417" lon="-5.137600">
        <ele>599.0</ele>
        <time>2015-03-14T15:56:05Z</time>
      </trkpt>
      <trkpt lat="40.166367" lon="-5.137650">
        <ele>598.0</ele>
        <time>2015-03-14T15:56:06Z</time>
      </trkpt>
      <trkpt lat="40.166317" lon="-5.137717">
        <ele>596.0</ele>
        <time>2015-03-14T15:56:07Z</time>
      </trkpt>
      <trkpt lat="40.166283" lon="-5.137800">
        <ele>595.0</ele>
        <time>2015-03-14T15:56:08Z</time>
      </trkpt>
      <trkpt lat="40.166233" lon="-5.137883">
        <ele>596.0</ele>
        <time>2015-03-14T15:56:09Z</time>
      </trkpt>
      <trkpt lat="40.166200" lon="-5.137933">
        <ele>596.0</ele>
        <time>2015-03-14T15:56:10Z</time>
      </trkpt>
      <trkpt lat="40.166167" lon="-5.137983">
        <ele>597.0</ele>
        <time>2015-03-14T15:56:11Z</time>
      </trkpt>
      <trkpt lat="40.166117" lon="-5.138033">
        <ele>596.0</ele>
        <time>2015-03-14T15:56:12Z</time>
      </trkpt>
      <trkpt lat="40.166083" lon="-5.138083">
        <ele>594.0</ele>
        <time>2015-03-14T15:56:13Z</time>
      </trkpt>
      <trkpt lat="40.166033" lon="-5.138150">
        <ele>593.0</ele>
        <time>2015-03-14T15:56:14Z</time>
      </trkpt>
      <trkpt lat="40.166000" lon="-5.138233">
        <ele>592.0</ele>
        <time>2015-03-14T15:56:15Z</time>
      </trkpt>
      <trkpt lat="40.165950" lon="-5.138300">
        <ele>592.0</ele>
        <time>2015-03-14T15:56:16Z</time>
      </trkpt>
      <trkpt lat="40.165900" lon="-5.138367">
        <ele>594.0</ele>
        <time>2015-03-14T15:56:17Z</time>
      </trkpt>
      <trkpt lat="40.165850" lon="-5.138417">
        <ele>596.0</ele>
        <time>2015-03-14T15:56:18Z</time>
      </trkpt>
      <trkpt lat="40.165817" lon="-5.138467">
        <ele>598.0</ele>
        <time>2015-03-14T15:56:19Z</time>
      </trkpt>
      <trkpt lat="40.165800" lon="-5.138517">
        <ele>598.0</ele>
        <time>2015-03-14T15:56:20Z</time>
      </trkpt>
      <trkpt lat="40.165767" lon="-5.138550">
        <ele>598.0</ele>
        <time>2015-03-14T15:56:21Z</time>
      </trkpt>
      <trkpt lat="40.165750" lon="-5.138583">
        <ele>598.0</ele>
        <time>2015-03-14T15:56:22Z</time>
      </trkpt>
      <trkpt lat="40.165717" lon="-5.138617">
        <ele>598.0</ele>
        <time>2015-03-14T15:56:23Z</time>
      </trkpt>
      <trkpt lat="40.165667" lon="-5.138633">
        <ele>598.0</ele>
        <time>2015-03-14T15:56:24Z</time>
      </trkpt>
      <trkpt lat="40.165617" lon="-5.138633">
        <ele>597.0</ele>
        <time>2015-03-14T15:56:25Z</time>
      </trkpt>
      <trkpt lat="40.165550" lon="-5.138600">
        <ele>597.0</ele>
        <time>2015-03-14T15:56:26Z</time>
      </trkpt>
      <trkpt lat="40.165500" lon="-5.138533">
        <ele>598.0</ele>
        <time>2015-03-14T15:56:27Z</time>
      </trkpt>
      <trkpt lat="40.165450" lon="-5.138433">
        <ele>598.0</ele>
        <time>2015-03-14T15:56:28Z</time>
      </trkpt>
      <trkpt lat="40.165417" lon="-5.138317">
        <ele>598.0</ele>
        <time>2015-03-14T15:56:29Z</time>
      </trkpt>
      <trkpt lat="40.165400" lon="-5.138167">
        <ele>598.0</ele>
        <time>2015-03-14T15:56:30Z</time>
      </trkpt>
      <trkpt lat="40.165417" lon="-5.138033">
        <ele>599.0</ele>
        <time>2015-03-14T15:56:31Z</time>
      </trkpt>
      <trkpt lat="40.165450" lon="-5.137883">
        <ele>598.0</ele>
        <time>2015-03-14T15:56:32Z</time>
      </trkpt>
      <trkpt lat="40.165517" lon="-5.137750">
        <ele>597.0</ele>
        <time>2015-03-14T15:56:33Z</time>
      </trkpt>
      <trkpt lat="40.165617" lon="-5.137633">
        <ele>596.0</ele>
        <time>2015-03-14T15:56:34Z</time>
      </trkpt>
      <trkpt lat="40.165733" lon="-5.137567">
        <ele>596.0</ele>
        <time>2015-03-14T15:56:35Z</time>
      </trkpt>
      <trkpt lat="40.165833" lon="-5.137533">
        <ele>595.0</ele>
        <time>2015-03-14T15:56:36Z</time>
      </trkpt>
      <trkpt lat="40.165950" lon="-5.137533">
        <ele>594.0</ele>
        <time>2015-03-14T15:56:37Z</time>
      </trkpt>
      <trkpt lat="40.166033" lon="-5.137583">
        <ele>592.0</ele>
        <time>2015-03-14T15:56:38Z</time>
      </trkpt>
      <trkpt lat="40.166100" lon="-5.137650">
        <ele>590.0</ele>
        <time>2015-03-14T15:56:39Z</time>
      </trkpt>
      <trkpt lat="40.166117" lon="-5.137733">
        <ele>589.0</ele>
        <time>2015-03-14T15:56:40Z</time>
      </trkpt>
      <trkpt lat="40.166133" lon="-5.137817">
        <ele>589.0</ele>
        <time>2015-03-14T15:56:41Z</time>
      </trkpt>
      <trkpt lat="40.166133" lon="-5.137900">
        <ele>591.0</ele>
        <time>2015-03-14T15:56:42Z</time>
      </trkpt>
      <trkpt lat="40.166133" lon="-5.137950">
        <ele>592.0</ele>
        <time>2015-03-14T15:56:43Z</time>
      </trkpt>
      <trkpt lat="40.166133" lon="-5.138017">
        <ele>592.0</ele>
        <time>2015-03-14T15:56:44Z</time>
      </trkpt>
      <trkpt lat="40.166133" lon="-5.138067">
        <ele>591.0</ele>
        <time>2015-03-14T15:56:45Z</time>
      </trkpt>
      <trkpt lat="40.166117" lon="-5.138133">
        <ele>589.0</ele>
        <time>2015-03-14T15:56:46Z</time>
      </trkpt>
      <trkpt lat="40.166100" lon="-5.138200">
        <ele>589.0</ele>
        <time>2015-03-14T15:56:47Z</time>
      </trkpt>
      <trkpt lat="40.166083" lon="-5.138267">
        <ele>589.0</ele>
        <time>2015-03-14T15:56:48Z</time>
      </trkpt>
      <trkpt lat="40.166067" lon="-5.138317">
        <ele>589.0</ele>
        <time>2015-03-14T15:56:49Z</time>
      </trkpt>
      <trkpt lat="40.166033" lon="-5.138367">
        <ele>589.0</ele>
        <time>2015-03-14T15:56:50Z</time>
      </trkpt>
      <trkpt lat="40.166017" lon="-5.138417">
        <ele>587.0</ele>
        <time>2015-03-14T15:56:51Z</time>
      </trkpt>
      <trkpt lat="40.165967" lon="-5.138467">
        <ele>585.0</ele>
        <time>2015-03-14T15:56:52Z</time>
      </trkpt>
      <trkpt lat="40.165933" lon="-5.138533">
        <ele>583.0</ele>
        <time>2015-03-14T15:56:53Z</time>
      </trkpt>
      <trkpt lat="40.165900" lon="-5.138617">
        <ele>582.0</ele>
        <time>2015-03-14T15:56:54Z</time>
      </trkpt>
      <trkpt lat="40.165867" lon="-5.138683">
        <ele>582.0</ele>
        <time>2015-03-14T15:56:55Z</time>
      </trkpt>
      <trkpt lat="40.165833" lon="-5.138750">
        <ele>582.0</ele>
        <time>2015-03-14T15:56:56Z</time>
      </trkpt>
      <trkpt lat="40.165783" lon="-5.138800">
        <ele>581.0</ele>
        <time>2015-03-14T15:56:57Z</time>
      </trkpt>
      <trkpt lat="40.165750" lon="-5.138867">
        <ele>579.0</ele>
        <time>2015-03-14T15:56:58Z</time>
      </trkpt>
      <trkpt lat="40.165717" lon="-5.138933">
        <ele>577.0</ele>
        <time>2015-03-14T15:56:59Z</time>
      </trkpt>
      <trkpt lat="40.165683" lon="-5.139000">
        <ele>574.0</ele>
        <time>2015-03-14T15:57:00Z</time>
      </trkpt>
      <trkpt lat="40.165633" lon="-5.139083">
        <ele>572.0</ele>
        <time>2015-03-14T15:57:01Z</time>
      </trkpt>
      <trkpt lat="40.165583" lon="-5.139167">
        <ele>571.0</ele>
        <time>2015-03-14T15:57:02Z</time>
      </trkpt>
      <trkpt lat="40.165550" lon="-5.139217">
        <ele>572.0</ele>
        <time>2015-03-14T15:57:03Z</time>
      </trkpt>
      <trkpt lat="40.165533" lon="-5.139283">
        <ele>573.0</ele>
        <time>2015-03-14T15:57:04Z</time>
      </trkpt>
      <trkpt lat="40.165500" lon="-5.139333">
        <ele>572.0</ele>
        <time>2015-03-14T15:57:05Z</time>
      </trkpt>
      <trkpt lat="40.165483" lon="-5.139367">
        <ele>570.0</ele>
        <time>2015-03-14T15:57:06Z</time>
      </trkpt>
      <trkpt lat="40.165433" lon="-5.139417">
        <ele>569.0</ele>
        <time>2015-03-14T15:57:07Z</time>
      </trkpt>
      <trkpt lat="40.165383" lon="-5.139467">
        <ele>567.0</ele>
        <time>2015-03-14T15:57:08Z</time>
      </trkpt>
      <trkpt lat="40.165350" lon="-5.139517">
        <ele>566.0</ele>
        <time>2015-03-14T15:57:09Z</time>
      </trkpt>
      <trkpt lat="40.165300" lon="-5.139567">
        <ele>565.0</ele>
        <time>2015-03-14T15:57:10Z</time>
      </trkpt>
      <trkpt lat="40.165267" lon="-5.139617">
        <ele>565.0</ele>
        <time>2015-03-14T15:57:11Z</time>
      </trkpt>
      <trkpt lat="40.165233" lon="-5.139650">
        <ele>565.0</ele>
        <time>2015-03-14T15:57:12Z</time>
      </trkpt>
      <trkpt lat="40.165200" lon="-5.139683">
        <ele>564.0</ele>
        <time>2015-03-14T15:57:13Z</time>
      </trkpt>
      <trkpt lat="40.165167" lon="-5.139700">
        <ele>563.0</ele>
        <time>2015-03-14T15:57:14Z</time>
      </trkpt>
      <trkpt lat="40.165133" lon="-5.139733">
        <ele>561.0</ele>
        <time>2015-03-14T15:57:15Z</time>
      </trkpt>
      <trkpt lat="40.165100" lon="-5.139783">
        <ele>559.0</ele>
        <time>2015-03-14T15:57:16Z</time>
      </trkpt>
      <trkpt lat="40.165067" lon="-5.139850">
        <ele>558.0</ele>
        <time>2015-03-14T15:57:17Z</time>
      </trkpt>
      <trkpt lat="40.165033" lon="-5.139900">
        <ele>557.0</ele>
        <time>2015-03-14T15:57:18Z</time>
      </trkpt>
      <trkpt lat="40.165000" lon="-5.139933">
        <ele>557.0</ele>
        <time>2015-03-14T15:57:19Z</time>
      </trkpt>
      <trkpt lat="40.164983" lon="-5.139967">
        <ele>557.0</ele>
        <time>2015-03-14T15:57:20Z</time>
      </trkpt>
      <trkpt lat="40.164950" lon="-5.139967">
        <ele>556.0</ele>
        <time>2015-03-14T15:57:21Z</time>
      </trkpt>
      <trkpt lat="40.164933" lon="-5.140000">
        <ele>553.0</ele>
        <time>2015-03-14T15:57:22Z</time>
      </trkpt>
      <trkpt lat="40.164917" lon="-5.140033">
        <ele>549.0</ele>
        <time>2015-03-14T15:57:23Z</time>
      </trkpt>
      <trkpt lat="40.164900" lon="-5.140083">
        <ele>545.0</ele>
        <time>2015-03-14T15:57:24Z</time>
      </trkpt>
      <trkpt lat="40.164867" lon="-5.140167">
        <ele>542.0</ele>
        <time>2015-03-14T15:57:25Z</time>
      </trkpt>
      <trkpt lat="40.164817" lon="-5.140233">
        <ele>540.0</ele>
        <time>2015-03-14T15:57:26Z</time>
      </trkpt>
      <trkpt lat="40.164783" lon="-5.140267">
        <ele>540.0</ele>
        <time>2015-03-14T15:57:27Z</time>
      </trkpt>
      <trkpt lat="40.164733" lon="-5.140283">
        <ele>539.0</ele>
        <time>2015-03-14T15:57:28Z</time>
      </trkpt>
      <trkpt lat="40.164683" lon="-5.140300">
        <ele>538.0</ele>
        <time>2015-03-14T15:57:29Z</time>
      </trkpt>
      <trkpt lat="40.164650" lon="-5.140333">
        <ele>534.0</ele>
        <time>2015-03-14T15:57:30Z</time>
      </trkpt>
      <trkpt lat="40.164600" lon="-5.140383">
        <ele>531.0</ele>
        <time>2015-03-14T15:57:31Z</time>
      </trkpt>
      <trkpt lat="40.164533" lon="-5.140417">
        <ele>529.0</ele>
        <time>2015-03-14T15:57:32Z</time>
      </trkpt>
      <trkpt lat="40.164483" lon="-5.140433">
        <ele>528.0</ele>
        <time>2015-03-14T15:57:33Z</time>
      </trkpt>
      <trkpt lat="40.164433" lon="-5.140450">
        <ele>527.0</ele>
        <time>2015-03-14T15:57:34Z</time>
      </trkpt>
      <trkpt lat="40.164383" lon="-5.140483">
        <ele>527.0</ele>
        <time>2015-03-14T15:57:35Z</time>
      </trkpt>
      <trkpt lat="40.164350" lon="-5.140517">
        <ele>527.0</ele>
        <time>2015-03-14T15:57:36Z</time>
      </trkpt>
      <trkpt lat="40.164300" lon="-5.140533">
        <ele>526.0</ele>
        <time>2015-03-14T15:57:37Z</time>
      </trkpt>
      <trkpt lat="40.164250" lon="-5.140567">
        <ele>525.0</ele>
        <time>2015-03-14T15:57:38Z</time>
      </trkpt>
      <trkpt lat="40.164200" lon="-5.140583">
        <ele>524.0</ele>
        <time>2015-03-14T15:57:39Z</time>
      </trkpt>
      <trkpt lat="40.164150" lon="-5.140600">
        <ele>524.0</ele>
        <time>2015-03-14T15:57:40Z</time>
      </trkpt>
      <trkpt lat="40.164117" lon="-5.140633">
        <ele>523.0</ele>
        <time>2015-03-14T15:57:41Z</time>
      </trkpt>
      <trkpt lat="40.164083" lon="-5.140667">
        <ele>523.0</ele>
        <time>2015-03-14T15:57:42Z</time>
      </trkpt>
      <trkpt lat="40.164033" lon="-5.140683">
        <ele>522.0</ele>
        <time>2015-03-14T15:57:43Z</time>
      </trkpt>
      <trkpt lat="40.163983" lon="-5.140700">
        <ele>522.0</ele>
        <time>2015-03-14T15:57:44Z</time>
      </trkpt>
      <trkpt lat="40.163950" lon="-5.140733">
        <ele>522.0</ele>
        <time>2015-03-14T15:57:45Z</time>
      </trkpt>
      <trkpt lat="40.163917" lon="-5.140767">
        <ele>521.0</ele>
        <time>2015-03-14T15:57:46Z</time>
      </trkpt>
      <trkpt lat="40.163883" lon="-5.140800">
        <ele>521.0</ele>
        <time>2015-03-14T15:57:47Z</time>
      </trkpt>
      <trkpt lat="40.163850" lon="-5.140817">
        <ele>520.0</ele>
        <time>2015-03-14T15:57:48Z</time>
      </trkpt>
      <trkpt lat="40.163800" lon="-5.140833">
        <ele>519.0</ele>
        <time>2015-03-14T15:57:49Z</time>
      </trkpt>
      <trkpt lat="40.163767" lon="-5.140850">
        <ele>519.0</ele>
        <time>2015-03-14T15:57:50Z</time>
      </trkpt>
      <trkpt lat="40.163750" lon="-5.140883">
        <ele>518.0</ele>
        <time>2015-03-14T15:57:51Z</time>
      </trkpt>
      <trkpt lat="40.163717" lon="-5.140933">
        <ele>518.0</ele>
        <time>2015-03-14T15:57:52Z</time>
      </trkpt>
      <trkpt lat="40.163683" lon="-5.140967">
        <ele>517.0</ele>
        <time>2015-03-14T15:57:53Z</time>
      </trkpt>
      <trkpt lat="40.163667" lon="-5.141000">
        <ele>516.0</ele>
        <time>2015-03-14T15:57:54Z</time>
      </trkpt>
      <trkpt lat="40.163650" lon="-5.141050">
        <ele>515.0</ele>
        <time>2015-03-14T15:57:55Z</time>
      </trkpt>
      <trkpt lat="40.163633" lon="-5.141083">
        <ele>514.0</ele>
        <time>2015-03-14T15:57:56Z</time>
      </trkpt>
      <trkpt lat="40.163617" lon="-5.141133">
        <ele>512.0</ele>
        <time>2015-03-14T15:57:57Z</time>
      </trkpt>
      <trkpt lat="40.163600" lon="-5.141200">
        <ele>512.0</ele>
        <time>2015-03-14T15:57:58Z</time>
      </trkpt>
      <trkpt lat="40.163583" lon="-5.141250">
        <ele>511.0</ele>
        <time>2015-03-14T15:57:59Z</time>
      </trkpt>
      <trkpt lat="40.163567" lon="-5.141300">
        <ele>510.0</ele>
        <time>2015-03-14T15:58:00Z</time>
      </trkpt>
      <trkpt lat="40.163550" lon="-5.141367">
        <ele>510.0</ele>
        <time>2015-03-14T15:58:01Z</time>
      </trkpt>
      <trkpt lat="40.163533" lon="-5.141400">
        <ele>509.0</ele>
        <time>2015-03-14T15:58:02Z</time>
      </trkpt>
      <trkpt lat="40.163517" lon="-5.141450">
        <ele>508.0</ele>
        <time>2015-03-14T15:58:03Z</time>
      </trkpt>
      <trkpt lat="40.163500" lon="-5.141500">
        <ele>507.0</ele>
        <time>2015-03-14T15:58:04Z</time>
      </trkpt>
      <trkpt lat="40.163483" lon="-5.141533">
        <ele>505.0</ele>
        <time>2015-03-14T15:58:05Z</time>
      </trkpt>
      <trkpt lat="40.163450" lon="-5.141567">
        <ele>502.0</ele>
        <time>2015-03-14T15:58:06Z</time>
      </trkpt>
      <trkpt lat="40.163433" lon="-5.141600">
        <ele>500.0</ele>
        <time>2015-03-14T15:58:07Z</time>
      </trkpt>
      <trkpt lat="40.163400" lon="-5.141633">
        <ele>498.0</ele>
        <time>2015-03-14T15:58:08Z</time>
      </trkpt>
      <trkpt lat="40.163367" lon="-5.141683">
        <ele>496.0</ele>
        <time>2015-03-14T15:58:09Z</time>
      </trkpt>
      <trkpt lat="40.163333" lon="-5.141717">
        <ele>494.0</ele>
        <time>2015-03-14T15:58:10Z</time>
      </trkpt>
      <trkpt lat="40.163300" lon="-5.141750">
        <ele>492.0</ele>
        <time>2015-03-14T15:58:11Z</time>
      </trkpt>
      <trkpt lat="40.163250" lon="-5.141783">
        <ele>490.0</ele>
        <time>2015-03-14T15:58:12Z</time>
      </trkpt>
      <trkpt lat="40.163217" lon="-5.141817">
        <ele>489.0</ele>
        <time>2015-03-14T15:58:13Z</time>
      </trkpt>
      <trkpt lat="40.163167" lon="-5.141850">
        <ele>488.0</ele>
        <time>2015-03-14T15:58:14Z</time>
      </trkpt>
      <trkpt lat="40.163133" lon="-5.141883">
        <ele>487.0</ele>
        <time>2015-03-14T15:58:15Z</time>
      </trkpt>
      <trkpt lat="40.163100" lon="-5.141900">
        <ele>486.0</ele>
        <time>2015-03-14T15:58:16Z</time>
      </trkpt>
      <trkpt lat="40.163083" lon="-5.141933">
        <ele>485.0</ele>
        <time>2015-03-14T15:58:17Z</time>
      </trkpt>
      <trkpt lat="40.163050" lon="-5.141967">
        <ele>483.0</ele>
        <time>2015-03-14T15:58:18Z</time>
      </trkpt>
      <trkpt lat="40.163017" lon="-5.142000">
        <ele>481.0</ele>
        <time>2015-03-14T15:58:19Z</time>
      </trkpt>
      <trkpt lat="40.162983" lon="-5.142050">
        <ele>479.0</ele>
        <time>2015-03-14T15:58:20Z</time>
      </trkpt>
      <trkpt lat="40.162967" lon="-5.142100">
        <ele>477.0</ele>
        <time>2015-03-14T15:58:21Z</time>
      </trkpt>
      <trkpt lat="40.162950" lon="-5.142150">
        <ele>476.0</ele>
        <time>2015-03-14T15:58:22Z</time>
      </trkpt>
      <trkpt lat="40.162933" lon="-5.142200">
        <ele>475.0</ele>
        <time>2015-03-14T15:58:23Z</time>
      </trkpt>
      <trkpt lat="40.162900" lon="-5.142233">
        <ele>473.0</ele>
        <time>2015-03-14T15:58:24Z</time>
      </trkpt>
      <trkpt lat="40.162883" lon="-5.142283">
        <ele>470.0</ele>
        <time>2015-03-14T15:58:25Z</time>
      </trkpt>
      <trkpt lat="40.162850" lon="-5.142333">
        <ele>466.0</ele>
        <time>2015-03-14T15:58:26Z</time>
      </trkpt>
      <trkpt lat="40.162817" lon="-5.142400">
        <ele>463.0</ele>
        <time>2015-03-14T15:58:27Z</time>
      </trkpt>
      <trkpt lat="40.162783" lon="-5.142467">
        <ele>461.0</ele>
        <time>2015-03-14T15:58:28Z</time>
      </trkpt>
      <trkpt lat="40.162750" lon="-5.142517">
        <ele>460.0</ele>
        <time>2015-03-14T15:58:29Z</time>
      </trkpt>
      <trkpt lat="40.162717" lon="-5.142567">
        <ele>459.0</ele>
        <time>2015-03-14T15:58:30Z</time>
      </trkpt>
      <trkpt lat="40.162700" lon="-5.142617">
        <ele>459.0</ele>
        <time>2015-03-14T15:58:31Z</time>
      </trkpt>
      <trkpt lat="40.162683" lon="-5.142650">
        <ele>458.0</ele>
        <time>2015-03-14T15:58:32Z</time>
      </trkpt>
      <trkpt lat="40.162667" lon="-5.142700">
        <ele>456.0</ele>
        <time>2015-03-14T15:58:33Z</time>
      </trkpt>
      <trkpt lat="40.162650" lon="-5.142750">
        <ele>454.0</ele>
        <time>2015-03-14T15:58:34Z</time>
      </trkpt>
      <trkpt lat="40.162617" lon="-5.142783">
        <ele>452.0</ele>
        <time>2015-03-14T15:58:35Z</time>
      </trkpt>
      <trkpt lat="40.162583" lon="-5.142833">
        <ele>449.0</ele>
        <time>2015-03-14T15:58:36Z</time>
      </trkpt>
      <trkpt lat="40.162550" lon="-5.142883">
        <ele>447.0</ele>
        <time>2015-03-14T15:58:37Z</time>
      </trkpt>
      <trkpt lat="40.162517" lon="-5.142933">
        <ele>445.0</ele>
        <time>2015-03-14T15:58:38Z</time>
      </trkpt>
      <trkpt lat="40.162483" lon="-5.142983">
        <ele>444.0</ele>
        <time>2015-03-14T15:58:39Z</time>
      </trkpt>
      <trkpt lat="40.162450" lon="-5.143017">
        <ele>443.0</ele>
        <time>2015-03-14T15:58:40Z</time>
      </trkpt>
      <trkpt lat="40.162417" lon="-5.143050">
        <ele>442.0</ele>
        <time>2015-03-14T15:58:41Z</time>
      </trkpt>
      <trkpt lat="40.162383" lon="-5.143083">
        <ele>440.0</ele>
        <time>2015-03-14T15:58:42Z</time>
      </trkpt>
      <trkpt lat="40.162367" lon="-5.143133">
        <ele>438.0</ele>
        <time>2015-03-14T15:58:43Z</time>
      </trkpt>
      <trkpt lat="40.162333" lon="-5.143183">
        <ele>436.0</ele>
        <time>2015-03-14T15:58:44Z</time>
      </trkpt>
      <trkpt lat="40.162283" lon="-5.143233">
        <ele>434.0</ele>
        <time>2015-03-14T15:58:45Z</time>
      </trkpt>
      <trkpt lat="40.162250" lon="-5.143283">
        <ele>433.0</ele>
        <time>2015-03-14T15:58:46Z</time>
      </trkpt>
      <trkpt lat="40.162217" lon="-5.143333">
        <ele>433.0</ele>
        <time>2015-03-14T15:58:47Z</time>
      </trkpt>
      <trkpt lat="40.162200" lon="-5.143367">
        <ele>432.0</ele>
        <time>2015-03-14T15:58:48Z</time>
      </trkpt>
      <trkpt lat="40.162167" lon="-5.143400">
        <ele>430.0</ele>
        <time>2015-03-14T15:58:49Z</time>
      </trkpt>
      <trkpt lat="40.162133" lon="-5.143433">
        <ele>428.0</ele>
        <time>2015-03-14T15:58:50Z</time>
      </trkpt>
      <trkpt lat="40.162100" lon="-5.143483">
        <ele>426.0</ele>
        <time>2015-03-14T15:58:51Z</time>
      </trkpt>
      <trkpt lat="40.162050" lon="-5.143533">
        <ele>425.0</ele>
        <time>2015-03-14T15:58:52Z</time>
      </trkpt>
      <trkpt lat="40.162017" lon="-5.143567">
        <ele>424.0</ele>
        <time>2015-03-14T15:58:53Z</time>
      </trkpt>
      <trkpt lat="40.161983" lon="-5.143600">
        <ele>423.0</ele>
        <time>2015-03-14T15:58:54Z</time>
      </trkpt>
      <trkpt lat="40.161967" lon="-5.143633">
        <ele>422.0</ele>
        <time>2015-03-14T15:58:55Z</time>
      </trkpt>
      <trkpt lat="40.161933" lon="-5.143667">
        <ele>419.0</ele>
        <time>2015-03-14T15:58:56Z</time>
      </trkpt>
      <trkpt lat="40.161900" lon="-5.143717">
        <ele>417.0</ele>
        <time>2015-03-14T15:58:57Z</time>
      </trkpt>
      <trkpt lat="40.161850" lon="-5.143767">
        <ele>415.0</ele>
        <time>2015-03-14T15:58:58Z</time>
      </trkpt>
      <trkpt lat="40.161800" lon="-5.143817">
        <ele>414.0</ele>
        <time>2015-03-14T15:58:59Z</time>
      </trkpt>
      <trkpt lat="40.161767" lon="-5.143867">
        <ele>414.0</ele>
        <time>2015-03-14T15:59:00Z</time>
      </trkpt>
      <trkpt lat="40.161733" lon="-5.143900">
        <ele>414.0</ele>
        <time>2015-03-14T15:59:01Z</time>
      </trkpt>
      <trkpt lat="40.161717" lon="-5.143933">
        <ele>413.0</ele>
        <time>2015-03-14T15:59:02Z</time>
      </trkpt>
      <trkpt lat="40.161667" lon="-5.143983">
        <ele>411.0</ele>
        <time>2015-03-14T15:59:03Z</time>
      </trkpt>
      <trkpt lat="40.161633" lon="-5.144033">
        <ele>410.0</ele>
        <time>2015-03-14T15:59:04Z</time>
      </trkpt>
      <trkpt lat="40.161600" lon="-5.144067">
        <ele>409.0</ele>
        <time>2015-03-14T15:59:05Z</time>
      </trkpt>
      <trkpt lat="40.161567" lon="-5.144083">
        <ele>410.0</ele>
        <time>2015-03-14T15:59:06Z</time>
      </trkpt>
      <trkpt lat="40.161567" lon="-5.144083">
        <ele>410.0</ele>
        <time>2015-03-14T15:59:07Z</time>
      </trkpt>
      <trkpt lat="40.161550" lon="-5.144083">
        <ele>409.0</ele>
        <time>2015-03-14T15:59:08Z</time>
      </trkpt>
      <trkpt lat="40.161550" lon="-5.144083">
        <ele>408.0</ele>
        <time>2015-03-14T15:59:09Z</time>
      </trkpt>
      <trkpt lat="40.161567" lon="-5.144083">
        <ele>408.0</ele>
        <time>2015-03-14T15:59:10Z</time>
      </trkpt>
      <trkpt lat="40.161567" lon="-5.144067">
        <ele>408.0</ele>
        <time>2015-03-14T15:59:11Z</time>
      </trkpt>
      <trkpt lat="40.161550" lon="-5.144050">
        <ele>407.0</ele>
        <time>2015-03-14T15:59:12Z</time>
      </trkpt>
      <trkpt lat="40.161583" lon="-5.144083">
        <ele>407.0</ele>
        <time>2015-03-14T15:59:13Z</time>
      </trkpt>
      <trkpt lat="40.161533" lon="-5.144083">
        <ele>406.0</ele>
        <time>2015-03-14T15:59:14Z</time>
      </trkpt>
      <trkpt lat="40.161533" lon="-5.144050">
        <ele>406.0</ele>
        <time>2015-03-14T15:59:15Z</time>
      </trkpt>
      <trkpt lat="40.161533" lon="-5.144050">
        <ele>406.0</ele>
        <time>2015-03-14T15:59:16Z</time>
      </trkpt>
      <trkpt lat="40.161550" lon="-5.144050">
        <ele>407.0</ele>
        <time>2015-03-14T15:59:17Z</time>
      </trkpt>
      <trkpt lat="40.161550" lon="-5.144050">
        <ele>407.0</ele>
        <time>2015-03-14T15:59:18Z</time>
      </trkpt>
      <trkpt lat="40.161550" lon="-5.144050">
        <ele>407.0</ele>
        <time>2015-03-14T15:59:19Z</time>
      </trkpt>
      <trkpt lat="40.161550" lon="-5.144033">
        <ele>407.0</ele>
        <time>2015-03-14T15:59:20Z</time>
      </trkpt>
      <trkpt lat="40.161550" lon="-5.144033">
        <ele>407.0</ele>
        <time>2015-03-14T15:59:21Z</time>
      </trkpt>
      <trkpt lat="40.161550" lon="-5.144033">
        <ele>407.0</ele>
        <time>2015-03-14T15:59:22Z</time>
      </trkpt>
      <trkpt lat="40.161550" lon="-5.144033">
        <ele>406.0</ele>
        <time>2015-03-14T15:59:23Z</time>
      </trkpt>
      <trkpt lat="40.161533" lon="-5.144033">
        <ele>405.0</ele>
        <time>2015-03-14T15:59:24Z</time>
      </trkpt>
      <trkpt lat="40.161550" lon="-5.144050">
        <ele>406.0</ele>
        <time>2015-03-14T15:59:25Z</time>
      </trkpt>
      <trkpt lat="40.161550" lon="-5.144033">
        <ele>406.0</ele>
        <time>2015-03-14T15:59:26Z</time>
      </trkpt>
      <trkpt lat="40.161567" lon="-5.144033">
        <ele>406.0</ele>
        <time>2015-03-14T15:59:27Z</time>
      </trkpt>
      <trkpt lat="40.161567" lon="-5.144033">
        <ele>406.0</ele>
        <time>2015-03-14T15:59:28Z</time>
      </trkpt>
      <trkpt lat="40.161567" lon="-5.144033">
        <ele>405.0</ele>
        <time>2015-03-14T15:59:29Z</time>
      </trkpt>
      <trkpt lat="40.161567" lon="-5.144033">
        <ele>405.0</ele>
        <time>2015-03-14T15:59:30Z</time>
      </trkpt>
      <trkpt lat="40.161567" lon="-5.144033">
        <ele>405.0</ele>
        <time>2015-03-14T15:59:31Z</time>
      </trkpt>
      <trkpt lat="40.161567" lon="-5.144033">
        <ele>405.0</ele>
        <time>2015-03-14T15:59:32Z</time>
      </trkpt>
      <trkpt lat="40.161567" lon="-5.144033">
        <ele>405.0</ele>
        <time>2015-03-14T15:59:33Z</time>
      </trkpt>
      <trkpt lat="40.161567" lon="-5.144033">
        <ele>406.0</ele>
        <time>2015-03-14T15:59:34Z</time>
      </trkpt>
      <trkpt lat="40.161567" lon="-5.144033">
        <ele>405.0</ele>
        <time>2015-03-14T15:59:35Z</time>
      </trkpt>
      <trkpt lat="40.161567" lon="-5.144033">
        <ele>405.0</ele>
        <time>2015-03-14T15:59:36Z</time>
      </trkpt>
      <trkpt lat="40.161567" lon="-5.144033">
        <ele>405.0</ele>
        <time>2015-03-14T15:59:37Z</time>
      </trkpt>
      <trkpt lat="40.161567" lon="-5.144033">
        <ele>405.0</ele>
        <time>2015-03-14T15:59:38Z</time>
      </trkpt>
      <trkpt lat="40.161567" lon="-5.144033">
        <ele>406.0</ele>
        <time>2015-03-14T15:59:39Z</time>
      </trkpt>
      <trkpt lat="40.161567" lon="-5.144033">
        <ele>405.0</ele>
        <time>2015-03-14T15:59:40Z</time>
      </trkpt>
      <trkpt lat="40.161567" lon="-5.144033">
        <ele>405.0</ele>
        <time>2015-03-14T15:59:41Z</time>
      </trkpt>
      <trkpt lat="40.161567" lon="-5.144033">
        <ele>405.0</ele>
        <time>2015-03-14T15:59:42Z</time>
      </trkpt>
      <trkpt lat="40.161567" lon="-5.144033">
        <ele>405.0</ele>
        <time>2015-03-14T15:59:43Z</time>
      </trkpt>
      <trkpt lat="40.161567" lon="-5.144033">
        <ele>404.0</ele>
        <time>2015-03-14T15:59:44Z</time>
      </trkpt>
    </trkseg>
  </trk>
</gpx>
